<?xml version="1.0" encoding="UTF-8" standalone="no" ?>
<gpx xmlns="http://www.topografix.com/GPX/1/1" xmlns:xsi="http://www.w3.org/2001/XMLSchema-instance" xsi:schemaLocation="http://www.topografix.com/GPX/1/1 http://www.topografix.com/GPX/1/1/gpx.xsd" version="1.1" creator="VisuGPX - https://www.visugpx.com">
  <metadata>
    <name>2025 06 08 Bort les Orgues, le tour des orgues</name>
  </metadata>
  <trk>
    <name><![CDATA[2025 06 08 Bort les orgues Pierre]]></name>
    <extensions>
      <line xmlns="http://www.topografix.com/GPX/gpx_style/0/2">
        <color>0000FF</color>
        <width>4</width>
      </line>
    </extensions>
    <trkseg>
      <trkpt lat="45.39628" lon="2.48275">
        <ele>801</ele>
        <time>2025-06-08T07:50:41.479Z</time>
      </trkpt>
      <trkpt lat="45.39629" lon="2.4828">
        <ele>803</ele>
        <time>2025-06-08T07:50:42.479Z</time>
      </trkpt>
      <trkpt lat="45.39627" lon="2.48279">
        <ele>804</ele>
        <time>2025-06-08T07:50:43.479Z</time>
      </trkpt>
      <trkpt lat="45.39627" lon="2.48281">
        <ele>805</ele>
        <time>2025-06-08T07:50:44.479Z</time>
      </trkpt>
      <trkpt lat="45.39628" lon="2.48284">
        <ele>807</ele>
        <time>2025-06-08T07:50:45.479Z</time>
      </trkpt>
      <trkpt lat="45.39629" lon="2.48286">
        <ele>807</ele>
        <time>2025-06-08T07:50:46.479Z</time>
      </trkpt>
      <trkpt lat="45.39629" lon="2.48287">
        <ele>808</ele>
        <time>2025-06-08T07:50:47.479Z</time>
      </trkpt>
      <trkpt lat="45.39628" lon="2.48288">
        <ele>809</ele>
        <time>2025-06-08T07:50:48.479Z</time>
      </trkpt>
      <trkpt lat="45.39625" lon="2.48289">
        <ele>809</ele>
        <time>2025-06-08T07:50:49.479Z</time>
      </trkpt>
      <trkpt lat="45.39623" lon="2.48291">
        <ele>810</ele>
        <time>2025-06-08T07:50:50.479Z</time>
      </trkpt>
      <trkpt lat="45.39623" lon="2.48291">
        <ele>810</ele>
        <time>2025-06-08T07:50:51.479Z</time>
      </trkpt>
      <trkpt lat="45.39622" lon="2.48293">
        <ele>810</ele>
        <time>2025-06-08T07:50:52.479Z</time>
      </trkpt>
      <trkpt lat="45.39622" lon="2.48293">
        <ele>810</ele>
        <time>2025-06-08T07:50:53.479Z</time>
      </trkpt>
      <trkpt lat="45.39622" lon="2.48294">
        <ele>810</ele>
        <time>2025-06-08T07:50:54.479Z</time>
      </trkpt>
      <trkpt lat="45.39622" lon="2.48295">
        <ele>810</ele>
        <time>2025-06-08T07:50:55.479Z</time>
      </trkpt>
      <trkpt lat="45.39622" lon="2.48296">
        <ele>810</ele>
        <time>2025-06-08T07:50:56.479Z</time>
      </trkpt>
      <trkpt lat="45.39622" lon="2.48297">
        <ele>810</ele>
        <time>2025-06-08T07:50:57.479Z</time>
      </trkpt>
      <trkpt lat="45.39622" lon="2.48298">
        <ele>809</ele>
        <time>2025-06-08T07:50:58.479Z</time>
      </trkpt>
      <trkpt lat="45.39622" lon="2.48298">
        <ele>809</ele>
        <time>2025-06-08T07:50:59.479Z</time>
      </trkpt>
      <trkpt lat="45.39623" lon="2.483">
        <ele>809</ele>
        <time>2025-06-08T07:51:00.479Z</time>
      </trkpt>
      <trkpt lat="45.39624" lon="2.48302">
        <ele>809</ele>
        <time>2025-06-08T07:51:01.479Z</time>
      </trkpt>
      <trkpt lat="45.39624" lon="2.48302">
        <ele>809</ele>
        <time>2025-06-08T07:51:02.479Z</time>
      </trkpt>
      <trkpt lat="45.39624" lon="2.48303">
        <ele>809</ele>
        <time>2025-06-08T07:51:03.479Z</time>
      </trkpt>
      <trkpt lat="45.39623" lon="2.48304">
        <ele>809</ele>
        <time>2025-06-08T07:51:04.479Z</time>
      </trkpt>
      <trkpt lat="45.39622" lon="2.48305">
        <ele>808</ele>
        <time>2025-06-08T07:51:05.479Z</time>
      </trkpt>
      <trkpt lat="45.39622" lon="2.48306">
        <ele>808</ele>
        <time>2025-06-08T07:51:06.479Z</time>
      </trkpt>
      <trkpt lat="45.39622" lon="2.48307">
        <ele>808</ele>
        <time>2025-06-08T07:51:07.479Z</time>
      </trkpt>
      <trkpt lat="45.39623" lon="2.48309">
        <ele>808</ele>
        <time>2025-06-08T07:51:08.479Z</time>
      </trkpt>
      <trkpt lat="45.39624" lon="2.4831">
        <ele>808</ele>
        <time>2025-06-08T07:51:09.479Z</time>
      </trkpt>
      <trkpt lat="45.39624" lon="2.48312">
        <ele>807</ele>
        <time>2025-06-08T07:51:10.479Z</time>
      </trkpt>
      <trkpt lat="45.39623" lon="2.48313">
        <ele>807</ele>
        <time>2025-06-08T07:51:11.479Z</time>
      </trkpt>
      <trkpt lat="45.39623" lon="2.48313">
        <ele>807</ele>
        <time>2025-06-08T07:51:12.479Z</time>
      </trkpt>
      <trkpt lat="45.39624" lon="2.48315">
        <ele>807</ele>
        <time>2025-06-08T07:51:13.479Z</time>
      </trkpt>
      <trkpt lat="45.39625" lon="2.48316">
        <ele>807</ele>
        <time>2025-06-08T07:51:14.479Z</time>
      </trkpt>
      <trkpt lat="45.39624" lon="2.48317">
        <ele>807</ele>
        <time>2025-06-08T07:51:15.479Z</time>
      </trkpt>
      <trkpt lat="45.39623" lon="2.48317">
        <ele>806</ele>
        <time>2025-06-08T07:51:16.479Z</time>
      </trkpt>
      <trkpt lat="45.39623" lon="2.48318">
        <ele>806</ele>
        <time>2025-06-08T07:51:17.479Z</time>
      </trkpt>
      <trkpt lat="45.39623" lon="2.48319">
        <ele>805</ele>
        <time>2025-06-08T07:51:18.479Z</time>
      </trkpt>
      <trkpt lat="45.39621" lon="2.48319">
        <ele>805</ele>
        <time>2025-06-08T07:51:19.479Z</time>
      </trkpt>
      <trkpt lat="45.3962" lon="2.48318">
        <ele>804</ele>
        <time>2025-06-08T07:51:20.479Z</time>
      </trkpt>
      <trkpt lat="45.39619" lon="2.48318">
        <ele>804</ele>
        <time>2025-06-08T07:51:21.479Z</time>
      </trkpt>
      <trkpt lat="45.39618" lon="2.4832">
        <ele>803</ele>
        <time>2025-06-08T07:51:22.479Z</time>
      </trkpt>
      <trkpt lat="45.39617" lon="2.48322">
        <ele>803</ele>
        <time>2025-06-08T07:51:23.479Z</time>
      </trkpt>
      <trkpt lat="45.39615" lon="2.48325">
        <ele>802</ele>
        <time>2025-06-08T07:51:24.479Z</time>
      </trkpt>
      <trkpt lat="45.39613" lon="2.48327">
        <ele>802</ele>
        <time>2025-06-08T07:51:25.479Z</time>
      </trkpt>
      <trkpt lat="45.39612" lon="2.48329">
        <ele>801</ele>
        <time>2025-06-08T07:51:26.479Z</time>
      </trkpt>
      <trkpt lat="45.39611" lon="2.4833">
        <ele>801</ele>
        <time>2025-06-08T07:51:27.479Z</time>
      </trkpt>
      <trkpt lat="45.3961" lon="2.48332">
        <ele>801</ele>
        <time>2025-06-08T07:51:28.479Z</time>
      </trkpt>
      <trkpt lat="45.39611" lon="2.48333">
        <ele>800</ele>
        <time>2025-06-08T07:51:29.479Z</time>
      </trkpt>
      <trkpt lat="45.3961" lon="2.48334">
        <ele>800</ele>
        <time>2025-06-08T07:51:30.479Z</time>
      </trkpt>
      <trkpt lat="45.39609" lon="2.48335">
        <ele>800</ele>
        <time>2025-06-08T07:51:31.479Z</time>
      </trkpt>
      <trkpt lat="45.39608" lon="2.48335">
        <ele>799</ele>
        <time>2025-06-08T07:51:32.479Z</time>
      </trkpt>
      <trkpt lat="45.39608" lon="2.48335">
        <ele>799</ele>
        <time>2025-06-08T07:51:33.479Z</time>
      </trkpt>
      <trkpt lat="45.39609" lon="2.48334">
        <ele>799</ele>
        <time>2025-06-08T07:51:34.479Z</time>
      </trkpt>
      <trkpt lat="45.39608" lon="2.48334">
        <ele>799</ele>
        <time>2025-06-08T07:51:35.479Z</time>
      </trkpt>
      <trkpt lat="45.39606" lon="2.48334">
        <ele>798</ele>
        <time>2025-06-08T07:51:36.479Z</time>
      </trkpt>
      <trkpt lat="45.39606" lon="2.48335">
        <ele>798</ele>
        <time>2025-06-08T07:51:37.479Z</time>
      </trkpt>
      <trkpt lat="45.39605" lon="2.48333">
        <ele>797</ele>
        <time>2025-06-08T07:51:38.479Z</time>
      </trkpt>
      <trkpt lat="45.39604" lon="2.48332">
        <ele>797</ele>
        <time>2025-06-08T07:51:39.479Z</time>
      </trkpt>
      <trkpt lat="45.39602" lon="2.48333">
        <ele>796</ele>
        <time>2025-06-08T07:51:40.479Z</time>
      </trkpt>
      <trkpt lat="45.39601" lon="2.48334">
        <ele>796</ele>
        <time>2025-06-08T07:51:41.479Z</time>
      </trkpt>
      <trkpt lat="45.396" lon="2.48334">
        <ele>796</ele>
        <time>2025-06-08T07:51:42.479Z</time>
      </trkpt>
      <trkpt lat="45.396" lon="2.48335">
        <ele>796</ele>
        <time>2025-06-08T07:51:43.479Z</time>
      </trkpt>
      <trkpt lat="45.396" lon="2.48335">
        <ele>796</ele>
        <time>2025-06-08T07:51:44.479Z</time>
      </trkpt>
      <trkpt lat="45.396" lon="2.48335">
        <ele>796</ele>
        <time>2025-06-08T07:51:45.479Z</time>
      </trkpt>
      <trkpt lat="45.396" lon="2.48335">
        <ele>796</ele>
        <time>2025-06-08T07:51:46.479Z</time>
      </trkpt>
      <trkpt lat="45.396" lon="2.48336">
        <ele>796</ele>
        <time>2025-06-08T07:51:47.479Z</time>
      </trkpt>
      <trkpt lat="45.39599" lon="2.48337">
        <ele>796</ele>
        <time>2025-06-08T07:51:48.479Z</time>
      </trkpt>
      <trkpt lat="45.39599" lon="2.48337">
        <ele>796</ele>
        <time>2025-06-08T07:51:49.479Z</time>
      </trkpt>
      <trkpt lat="45.39599" lon="2.48337">
        <ele>796</ele>
        <time>2025-06-08T07:51:50.479Z</time>
      </trkpt>
      <trkpt lat="45.39599" lon="2.48337">
        <ele>796</ele>
        <time>2025-06-08T07:51:51.479Z</time>
      </trkpt>
      <trkpt lat="45.39599" lon="2.48336">
        <ele>796</ele>
        <time>2025-06-08T07:51:52.479Z</time>
      </trkpt>
      <trkpt lat="45.39599" lon="2.48336">
        <ele>796</ele>
        <time>2025-06-08T07:51:53.479Z</time>
      </trkpt>
      <trkpt lat="45.39599" lon="2.48336">
        <ele>796</ele>
        <time>2025-06-08T07:51:54.479Z</time>
      </trkpt>
      <trkpt lat="45.39598" lon="2.48336">
        <ele>796</ele>
        <time>2025-06-08T07:51:55.479Z</time>
      </trkpt>
      <trkpt lat="45.39599" lon="2.48336">
        <ele>796</ele>
        <time>2025-06-08T07:51:56.479Z</time>
      </trkpt>
      <trkpt lat="45.396" lon="2.48336">
        <ele>796</ele>
        <time>2025-06-08T07:51:57.479Z</time>
      </trkpt>
      <trkpt lat="45.39601" lon="2.48336">
        <ele>796</ele>
        <time>2025-06-08T07:51:58.479Z</time>
      </trkpt>
      <trkpt lat="45.39602" lon="2.48337">
        <ele>796</ele>
        <time>2025-06-08T07:51:59.479Z</time>
      </trkpt>
      <trkpt lat="45.39602" lon="2.48338">
        <ele>795</ele>
        <time>2025-06-08T07:52:00.479Z</time>
      </trkpt>
      <trkpt lat="45.39603" lon="2.48341">
        <ele>795</ele>
        <time>2025-06-08T07:52:01.479Z</time>
      </trkpt>
      <trkpt lat="45.39604" lon="2.48343">
        <ele>795</ele>
        <time>2025-06-08T07:52:02.479Z</time>
      </trkpt>
      <trkpt lat="45.39605" lon="2.48344">
        <ele>795</ele>
        <time>2025-06-08T07:52:03.479Z</time>
      </trkpt>
      <trkpt lat="45.39605" lon="2.48346">
        <ele>795</ele>
        <time>2025-06-08T07:52:04.479Z</time>
      </trkpt>
      <trkpt lat="45.39605" lon="2.48346">
        <ele>795</ele>
        <time>2025-06-08T07:52:05.479Z</time>
      </trkpt>
      <trkpt lat="45.39605" lon="2.48346">
        <ele>795</ele>
        <time>2025-06-08T07:52:06.479Z</time>
      </trkpt>
      <trkpt lat="45.39604" lon="2.48346">
        <ele>795</ele>
        <time>2025-06-08T07:52:07.479Z</time>
      </trkpt>
      <trkpt lat="45.39604" lon="2.48347">
        <ele>795</ele>
        <time>2025-06-08T07:52:08.479Z</time>
      </trkpt>
      <trkpt lat="45.39604" lon="2.48348">
        <ele>795</ele>
        <time>2025-06-08T07:52:09.479Z</time>
      </trkpt>
      <trkpt lat="45.39604" lon="2.48349">
        <ele>794</ele>
        <time>2025-06-08T07:52:10.479Z</time>
      </trkpt>
      <trkpt lat="45.39603" lon="2.48349">
        <ele>794</ele>
        <time>2025-06-08T07:52:11.479Z</time>
      </trkpt>
      <trkpt lat="45.39603" lon="2.48348">
        <ele>794</ele>
        <time>2025-06-08T07:52:12.479Z</time>
      </trkpt>
      <trkpt lat="45.39603" lon="2.48347">
        <ele>794</ele>
        <time>2025-06-08T07:52:13.479Z</time>
      </trkpt>
      <trkpt lat="45.39603" lon="2.48347">
        <ele>793</ele>
        <time>2025-06-08T07:52:14.479Z</time>
      </trkpt>
      <trkpt lat="45.39602" lon="2.48346">
        <ele>793</ele>
        <time>2025-06-08T07:52:15.479Z</time>
      </trkpt>
      <trkpt lat="45.39602" lon="2.48345">
        <ele>792</ele>
        <time>2025-06-08T07:52:16.479Z</time>
      </trkpt>
      <trkpt lat="45.39601" lon="2.48343">
        <ele>792</ele>
        <time>2025-06-08T07:52:17.479Z</time>
      </trkpt>
      <trkpt lat="45.39601" lon="2.48342">
        <ele>792</ele>
        <time>2025-06-08T07:52:18.479Z</time>
      </trkpt>
      <trkpt lat="45.39601" lon="2.48341">
        <ele>791</ele>
        <time>2025-06-08T07:52:19.479Z</time>
      </trkpt>
      <trkpt lat="45.39601" lon="2.48339">
        <ele>790</ele>
        <time>2025-06-08T07:52:20.479Z</time>
      </trkpt>
      <trkpt lat="45.39601" lon="2.48339">
        <ele>790</ele>
        <time>2025-06-08T07:52:21.479Z</time>
      </trkpt>
      <trkpt lat="45.39602" lon="2.48338">
        <ele>790</ele>
        <time>2025-06-08T07:52:22.479Z</time>
      </trkpt>
      <trkpt lat="45.39602" lon="2.48337">
        <ele>789</ele>
        <time>2025-06-08T07:52:23.479Z</time>
      </trkpt>
      <trkpt lat="45.39603" lon="2.48337">
        <ele>789</ele>
        <time>2025-06-08T07:52:24.479Z</time>
      </trkpt>
      <trkpt lat="45.39603" lon="2.48337">
        <ele>789</ele>
        <time>2025-06-08T07:52:25.479Z</time>
      </trkpt>
      <trkpt lat="45.39603" lon="2.48336">
        <ele>789</ele>
        <time>2025-06-08T07:52:26.479Z</time>
      </trkpt>
      <trkpt lat="45.39603" lon="2.48336">
        <ele>789</ele>
        <time>2025-06-08T07:52:27.479Z</time>
      </trkpt>
      <trkpt lat="45.39603" lon="2.48336">
        <ele>789</ele>
        <time>2025-06-08T07:52:28.479Z</time>
      </trkpt>
      <trkpt lat="45.39603" lon="2.48336">
        <ele>789</ele>
        <time>2025-06-08T07:52:29.479Z</time>
      </trkpt>
      <trkpt lat="45.39604" lon="2.48335">
        <ele>789</ele>
        <time>2025-06-08T07:52:30.479Z</time>
      </trkpt>
      <trkpt lat="45.39605" lon="2.48333">
        <ele>789</ele>
        <time>2025-06-08T07:52:31.479Z</time>
      </trkpt>
      <trkpt lat="45.39606" lon="2.4833">
        <ele>789</ele>
        <time>2025-06-08T07:52:32.479Z</time>
      </trkpt>
      <trkpt lat="45.39606" lon="2.48329">
        <ele>789</ele>
        <time>2025-06-08T07:52:33.479Z</time>
      </trkpt>
      <trkpt lat="45.39606" lon="2.48328">
        <ele>789</ele>
        <time>2025-06-08T07:52:34.479Z</time>
      </trkpt>
      <trkpt lat="45.39606" lon="2.48328">
        <ele>790</ele>
        <time>2025-06-08T07:52:35.479Z</time>
      </trkpt>
      <trkpt lat="45.39606" lon="2.48329">
        <ele>790</ele>
        <time>2025-06-08T07:52:36.479Z</time>
      </trkpt>
      <trkpt lat="45.39607" lon="2.48329">
        <ele>790</ele>
        <time>2025-06-08T07:52:37.479Z</time>
      </trkpt>
      <trkpt lat="45.39607" lon="2.48329">
        <ele>790</ele>
        <time>2025-06-08T07:52:38.479Z</time>
      </trkpt>
      <trkpt lat="45.39607" lon="2.4833">
        <ele>790</ele>
        <time>2025-06-08T07:52:39.479Z</time>
      </trkpt>
      <trkpt lat="45.39607" lon="2.48331">
        <ele>790</ele>
        <time>2025-06-08T07:52:40.479Z</time>
      </trkpt>
      <trkpt lat="45.39608" lon="2.48332">
        <ele>790</ele>
        <time>2025-06-08T07:52:41.479Z</time>
      </trkpt>
      <trkpt lat="45.39608" lon="2.48333">
        <ele>790</ele>
        <time>2025-06-08T07:52:42.479Z</time>
      </trkpt>
      <trkpt lat="45.39609" lon="2.48334">
        <ele>790</ele>
        <time>2025-06-08T07:52:43.479Z</time>
      </trkpt>
      <trkpt lat="45.3961" lon="2.48334">
        <ele>791</ele>
        <time>2025-06-08T07:52:44.479Z</time>
      </trkpt>
      <trkpt lat="45.39611" lon="2.48334">
        <ele>791</ele>
        <time>2025-06-08T07:52:45.479Z</time>
      </trkpt>
      <trkpt lat="45.39612" lon="2.48334">
        <ele>791</ele>
        <time>2025-06-08T07:52:46.479Z</time>
      </trkpt>
      <trkpt lat="45.39611" lon="2.48333">
        <ele>791</ele>
        <time>2025-06-08T07:52:47.479Z</time>
      </trkpt>
      <trkpt lat="45.39611" lon="2.48334">
        <ele>792</ele>
        <time>2025-06-08T07:52:48.479Z</time>
      </trkpt>
      <trkpt lat="45.3961" lon="2.48334">
        <ele>792</ele>
        <time>2025-06-08T07:52:49.479Z</time>
      </trkpt>
      <trkpt lat="45.3961" lon="2.48334">
        <ele>793</ele>
        <time>2025-06-08T07:52:50.479Z</time>
      </trkpt>
      <trkpt lat="45.3961" lon="2.48334">
        <ele>794</ele>
        <time>2025-06-08T07:52:51.479Z</time>
      </trkpt>
      <trkpt lat="45.3961" lon="2.48334">
        <ele>794</ele>
        <time>2025-06-08T07:52:52.479Z</time>
      </trkpt>
      <trkpt lat="45.3961" lon="2.48335">
        <ele>794</ele>
        <time>2025-06-08T07:52:53.479Z</time>
      </trkpt>
      <trkpt lat="45.3961" lon="2.48335">
        <ele>794</ele>
        <time>2025-06-08T07:52:54.479Z</time>
      </trkpt>
      <trkpt lat="45.3961" lon="2.48335">
        <ele>793</ele>
        <time>2025-06-08T07:52:55.479Z</time>
      </trkpt>
      <trkpt lat="45.39611" lon="2.48335">
        <ele>793</ele>
        <time>2025-06-08T07:52:56.479Z</time>
      </trkpt>
      <trkpt lat="45.39611" lon="2.48336">
        <ele>793</ele>
        <time>2025-06-08T07:52:57.479Z</time>
      </trkpt>
      <trkpt lat="45.39611" lon="2.48336">
        <ele>793</ele>
        <time>2025-06-08T07:52:58.479Z</time>
      </trkpt>
      <trkpt lat="45.39612" lon="2.48336">
        <ele>793</ele>
        <time>2025-06-08T07:52:59.479Z</time>
      </trkpt>
      <trkpt lat="45.39612" lon="2.48336">
        <ele>792</ele>
        <time>2025-06-08T07:53:00.479Z</time>
      </trkpt>
      <trkpt lat="45.39612" lon="2.48337">
        <ele>792</ele>
        <time>2025-06-08T07:53:01.479Z</time>
      </trkpt>
      <trkpt lat="45.39612" lon="2.48338">
        <ele>792</ele>
        <time>2025-06-08T07:53:02.479Z</time>
      </trkpt>
      <trkpt lat="45.39613" lon="2.48339">
        <ele>792</ele>
        <time>2025-06-08T07:53:03.479Z</time>
      </trkpt>
      <trkpt lat="45.39613" lon="2.48339">
        <ele>791</ele>
        <time>2025-06-08T07:53:04.479Z</time>
      </trkpt>
      <trkpt lat="45.39613" lon="2.48339">
        <ele>791</ele>
        <time>2025-06-08T07:53:05.479Z</time>
      </trkpt>
      <trkpt lat="45.39613" lon="2.48339">
        <ele>791</ele>
        <time>2025-06-08T07:53:06.479Z</time>
      </trkpt>
      <trkpt lat="45.39614" lon="2.48339">
        <ele>790</ele>
        <time>2025-06-08T07:53:07.479Z</time>
      </trkpt>
      <trkpt lat="45.39615" lon="2.48339">
        <ele>790</ele>
        <time>2025-06-08T07:53:08.479Z</time>
      </trkpt>
      <trkpt lat="45.39616" lon="2.48339">
        <ele>790</ele>
        <time>2025-06-08T07:53:09.479Z</time>
      </trkpt>
      <trkpt lat="45.39617" lon="2.4834">
        <ele>790</ele>
        <time>2025-06-08T07:53:10.479Z</time>
      </trkpt>
      <trkpt lat="45.39617" lon="2.48339">
        <ele>790</ele>
        <time>2025-06-08T07:53:11.479Z</time>
      </trkpt>
      <trkpt lat="45.39618" lon="2.48338">
        <ele>790</ele>
        <time>2025-06-08T07:53:12.479Z</time>
      </trkpt>
      <trkpt lat="45.39619" lon="2.48338">
        <ele>791</ele>
        <time>2025-06-08T07:53:13.479Z</time>
      </trkpt>
      <trkpt lat="45.3962" lon="2.48337">
        <ele>791</ele>
        <time>2025-06-08T07:53:14.479Z</time>
      </trkpt>
      <trkpt lat="45.3962" lon="2.48337">
        <ele>791</ele>
        <time>2025-06-08T07:53:15.479Z</time>
      </trkpt>
      <trkpt lat="45.39621" lon="2.48338">
        <ele>791</ele>
        <time>2025-06-08T07:53:16.479Z</time>
      </trkpt>
      <trkpt lat="45.39622" lon="2.48339">
        <ele>791</ele>
        <time>2025-06-08T07:53:17.479Z</time>
      </trkpt>
      <trkpt lat="45.39622" lon="2.48339">
        <ele>791</ele>
        <time>2025-06-08T07:53:18.479Z</time>
      </trkpt>
      <trkpt lat="45.39623" lon="2.48339">
        <ele>791</ele>
        <time>2025-06-08T07:53:19.479Z</time>
      </trkpt>
      <trkpt lat="45.39623" lon="2.48339">
        <ele>791</ele>
        <time>2025-06-08T07:53:20.479Z</time>
      </trkpt>
      <trkpt lat="45.39623" lon="2.4834">
        <ele>791</ele>
        <time>2025-06-08T07:53:21.479Z</time>
      </trkpt>
      <trkpt lat="45.39623" lon="2.4834">
        <ele>791</ele>
        <time>2025-06-08T07:53:22.479Z</time>
      </trkpt>
      <trkpt lat="45.39623" lon="2.48341">
        <ele>790</ele>
        <time>2025-06-08T07:53:23.479Z</time>
      </trkpt>
      <trkpt lat="45.39623" lon="2.48341">
        <ele>790</ele>
        <time>2025-06-08T07:53:24.479Z</time>
      </trkpt>
      <trkpt lat="45.39623" lon="2.48341">
        <ele>790</ele>
        <time>2025-06-08T07:53:25.479Z</time>
      </trkpt>
      <trkpt lat="45.39623" lon="2.48342">
        <ele>790</ele>
        <time>2025-06-08T07:53:26.479Z</time>
      </trkpt>
      <trkpt lat="45.39623" lon="2.48344">
        <ele>790</ele>
        <time>2025-06-08T07:53:27.479Z</time>
      </trkpt>
      <trkpt lat="45.39623" lon="2.48345">
        <ele>790</ele>
        <time>2025-06-08T07:53:28.479Z</time>
      </trkpt>
      <trkpt lat="45.39624" lon="2.48345">
        <ele>790</ele>
        <time>2025-06-08T07:53:29.479Z</time>
      </trkpt>
      <trkpt lat="45.39625" lon="2.48345">
        <ele>790</ele>
        <time>2025-06-08T07:53:30.479Z</time>
      </trkpt>
      <trkpt lat="45.39627" lon="2.48345">
        <ele>790</ele>
        <time>2025-06-08T07:53:31.479Z</time>
      </trkpt>
      <trkpt lat="45.39627" lon="2.48345">
        <ele>790</ele>
        <time>2025-06-08T07:53:32.479Z</time>
      </trkpt>
      <trkpt lat="45.39628" lon="2.48344">
        <ele>790</ele>
        <time>2025-06-08T07:53:33.479Z</time>
      </trkpt>
      <trkpt lat="45.39629" lon="2.48344">
        <ele>790</ele>
        <time>2025-06-08T07:53:34.479Z</time>
      </trkpt>
      <trkpt lat="45.3963" lon="2.48343">
        <ele>790</ele>
        <time>2025-06-08T07:53:35.479Z</time>
      </trkpt>
      <trkpt lat="45.39632" lon="2.48343">
        <ele>790</ele>
        <time>2025-06-08T07:53:36.479Z</time>
      </trkpt>
      <trkpt lat="45.39634" lon="2.48342">
        <ele>791</ele>
        <time>2025-06-08T07:53:37.479Z</time>
      </trkpt>
      <trkpt lat="45.39636" lon="2.48341">
        <ele>791</ele>
        <time>2025-06-08T07:53:38.479Z</time>
      </trkpt>
      <trkpt lat="45.39638" lon="2.48341">
        <ele>792</ele>
        <time>2025-06-08T07:53:39.479Z</time>
      </trkpt>
      <trkpt lat="45.39639" lon="2.48341">
        <ele>792</ele>
        <time>2025-06-08T07:53:40.479Z</time>
      </trkpt>
      <trkpt lat="45.39641" lon="2.48342">
        <ele>793</ele>
        <time>2025-06-08T07:53:41.479Z</time>
      </trkpt>
      <trkpt lat="45.39642" lon="2.48343">
        <ele>793</ele>
        <time>2025-06-08T07:53:42.479Z</time>
      </trkpt>
      <trkpt lat="45.39643" lon="2.48342">
        <ele>794</ele>
        <time>2025-06-08T07:53:43.479Z</time>
      </trkpt>
      <trkpt lat="45.39644" lon="2.48342">
        <ele>794</ele>
        <time>2025-06-08T07:53:44.479Z</time>
      </trkpt>
      <trkpt lat="45.39645" lon="2.48342">
        <ele>794</ele>
        <time>2025-06-08T07:53:45.479Z</time>
      </trkpt>
      <trkpt lat="45.39645" lon="2.48341">
        <ele>794</ele>
        <time>2025-06-08T07:53:46.479Z</time>
      </trkpt>
      <trkpt lat="45.39646" lon="2.4834">
        <ele>794</ele>
        <time>2025-06-08T07:53:47.479Z</time>
      </trkpt>
      <trkpt lat="45.39648" lon="2.48338">
        <ele>794</ele>
        <time>2025-06-08T07:53:48.479Z</time>
      </trkpt>
      <trkpt lat="45.39649" lon="2.48339">
        <ele>794</ele>
        <time>2025-06-08T07:53:49.479Z</time>
      </trkpt>
      <trkpt lat="45.39651" lon="2.48338">
        <ele>794</ele>
        <time>2025-06-08T07:53:50.479Z</time>
      </trkpt>
      <trkpt lat="45.39653" lon="2.48338">
        <ele>794</ele>
        <time>2025-06-08T07:53:51.479Z</time>
      </trkpt>
      <trkpt lat="45.39654" lon="2.48337">
        <ele>794</ele>
        <time>2025-06-08T07:53:52.479Z</time>
      </trkpt>
      <trkpt lat="45.39654" lon="2.48337">
        <ele>794</ele>
        <time>2025-06-08T07:53:53.479Z</time>
      </trkpt>
      <trkpt lat="45.39655" lon="2.48337">
        <ele>794</ele>
        <time>2025-06-08T07:53:54.479Z</time>
      </trkpt>
      <trkpt lat="45.39655" lon="2.48336">
        <ele>794</ele>
        <time>2025-06-08T07:53:55.479Z</time>
      </trkpt>
      <trkpt lat="45.39656" lon="2.48337">
        <ele>794</ele>
        <time>2025-06-08T07:53:56.479Z</time>
      </trkpt>
      <trkpt lat="45.39657" lon="2.48337">
        <ele>794</ele>
        <time>2025-06-08T07:53:57.479Z</time>
      </trkpt>
      <trkpt lat="45.39658" lon="2.48337">
        <ele>795</ele>
        <time>2025-06-08T07:53:58.479Z</time>
      </trkpt>
      <trkpt lat="45.39659" lon="2.48337">
        <ele>795</ele>
        <time>2025-06-08T07:53:59.479Z</time>
      </trkpt>
      <trkpt lat="45.3966" lon="2.48337">
        <ele>795</ele>
        <time>2025-06-08T07:54:00.479Z</time>
      </trkpt>
      <trkpt lat="45.39662" lon="2.48337">
        <ele>795</ele>
        <time>2025-06-08T07:54:01.479Z</time>
      </trkpt>
      <trkpt lat="45.39664" lon="2.48338">
        <ele>795</ele>
        <time>2025-06-08T07:54:02.479Z</time>
      </trkpt>
      <trkpt lat="45.39665" lon="2.4834">
        <ele>796</ele>
        <time>2025-06-08T07:54:03.479Z</time>
      </trkpt>
      <trkpt lat="45.39666" lon="2.48339">
        <ele>796</ele>
        <time>2025-06-08T07:54:04.479Z</time>
      </trkpt>
      <trkpt lat="45.39667" lon="2.48338">
        <ele>797</ele>
        <time>2025-06-08T07:54:05.479Z</time>
      </trkpt>
      <trkpt lat="45.39668" lon="2.48338">
        <ele>797</ele>
        <time>2025-06-08T07:54:06.479Z</time>
      </trkpt>
      <trkpt lat="45.39669" lon="2.48338">
        <ele>797</ele>
        <time>2025-06-08T07:54:07.479Z</time>
      </trkpt>
      <trkpt lat="45.3967" lon="2.48338">
        <ele>798</ele>
        <time>2025-06-08T07:54:08.479Z</time>
      </trkpt>
      <trkpt lat="45.39671" lon="2.48339">
        <ele>798</ele>
        <time>2025-06-08T07:54:09.479Z</time>
      </trkpt>
      <trkpt lat="45.39673" lon="2.48339">
        <ele>798</ele>
        <time>2025-06-08T07:54:10.479Z</time>
      </trkpt>
      <trkpt lat="45.39674" lon="2.48339">
        <ele>798</ele>
        <time>2025-06-08T07:54:11.479Z</time>
      </trkpt>
      <trkpt lat="45.39675" lon="2.48339">
        <ele>798</ele>
        <time>2025-06-08T07:54:12.479Z</time>
      </trkpt>
      <trkpt lat="45.39675" lon="2.48339">
        <ele>798</ele>
        <time>2025-06-08T07:54:13.479Z</time>
      </trkpt>
      <trkpt lat="45.39676" lon="2.48338">
        <ele>798</ele>
        <time>2025-06-08T07:54:14.479Z</time>
      </trkpt>
      <trkpt lat="45.39677" lon="2.48338">
        <ele>798</ele>
        <time>2025-06-08T07:54:15.479Z</time>
      </trkpt>
      <trkpt lat="45.39677" lon="2.48337">
        <ele>797</ele>
        <time>2025-06-08T07:54:16.479Z</time>
      </trkpt>
      <trkpt lat="45.39678" lon="2.48337">
        <ele>797</ele>
        <time>2025-06-08T07:54:17.479Z</time>
      </trkpt>
      <trkpt lat="45.39679" lon="2.48337">
        <ele>797</ele>
        <time>2025-06-08T07:54:18.479Z</time>
      </trkpt>
      <trkpt lat="45.3968" lon="2.48336">
        <ele>797</ele>
        <time>2025-06-08T07:54:19.479Z</time>
      </trkpt>
      <trkpt lat="45.39682" lon="2.48337">
        <ele>797</ele>
        <time>2025-06-08T07:54:20.479Z</time>
      </trkpt>
      <trkpt lat="45.39684" lon="2.48337">
        <ele>797</ele>
        <time>2025-06-08T07:54:21.479Z</time>
      </trkpt>
      <trkpt lat="45.39685" lon="2.48337">
        <ele>797</ele>
        <time>2025-06-08T07:54:22.479Z</time>
      </trkpt>
      <trkpt lat="45.39686" lon="2.48337">
        <ele>797</ele>
        <time>2025-06-08T07:54:23.479Z</time>
      </trkpt>
      <trkpt lat="45.39688" lon="2.48337">
        <ele>797</ele>
        <time>2025-06-08T07:54:24.479Z</time>
      </trkpt>
      <trkpt lat="45.39689" lon="2.48337">
        <ele>797</ele>
        <time>2025-06-08T07:54:25.479Z</time>
      </trkpt>
      <trkpt lat="45.39691" lon="2.48338">
        <ele>797</ele>
        <time>2025-06-08T07:54:26.479Z</time>
      </trkpt>
      <trkpt lat="45.39692" lon="2.48338">
        <ele>797</ele>
        <time>2025-06-08T07:54:27.479Z</time>
      </trkpt>
      <trkpt lat="45.39693" lon="2.48338">
        <ele>798</ele>
        <time>2025-06-08T07:54:28.479Z</time>
      </trkpt>
      <trkpt lat="45.39694" lon="2.48339">
        <ele>798</ele>
        <time>2025-06-08T07:54:29.479Z</time>
      </trkpt>
      <trkpt lat="45.39694" lon="2.48338">
        <ele>798</ele>
        <time>2025-06-08T07:54:30.479Z</time>
      </trkpt>
      <trkpt lat="45.39695" lon="2.48339">
        <ele>799</ele>
        <time>2025-06-08T07:54:31.479Z</time>
      </trkpt>
      <trkpt lat="45.39695" lon="2.48339">
        <ele>799</ele>
        <time>2025-06-08T07:54:32.479Z</time>
      </trkpt>
      <trkpt lat="45.39697" lon="2.48339">
        <ele>800</ele>
        <time>2025-06-08T07:54:33.479Z</time>
      </trkpt>
      <trkpt lat="45.397" lon="2.48339">
        <ele>800</ele>
        <time>2025-06-08T07:54:34.479Z</time>
      </trkpt>
      <trkpt lat="45.39702" lon="2.48338">
        <ele>800</ele>
        <time>2025-06-08T07:54:35.479Z</time>
      </trkpt>
      <trkpt lat="45.39702" lon="2.48338">
        <ele>800</ele>
        <time>2025-06-08T07:54:36.479Z</time>
      </trkpt>
      <trkpt lat="45.39702" lon="2.48338">
        <ele>800</ele>
        <time>2025-06-08T07:54:37.479Z</time>
      </trkpt>
      <trkpt lat="45.39703" lon="2.48339">
        <ele>801</ele>
        <time>2025-06-08T07:54:38.479Z</time>
      </trkpt>
      <trkpt lat="45.39704" lon="2.48341">
        <ele>801</ele>
        <time>2025-06-08T07:54:39.479Z</time>
      </trkpt>
      <trkpt lat="45.39705" lon="2.48342">
        <ele>801</ele>
        <time>2025-06-08T07:54:40.479Z</time>
      </trkpt>
      <trkpt lat="45.39706" lon="2.48343">
        <ele>801</ele>
        <time>2025-06-08T07:54:41.479Z</time>
      </trkpt>
      <trkpt lat="45.39708" lon="2.48344">
        <ele>802</ele>
        <time>2025-06-08T07:54:42.479Z</time>
      </trkpt>
      <trkpt lat="45.39709" lon="2.48345">
        <ele>802</ele>
        <time>2025-06-08T07:54:43.479Z</time>
      </trkpt>
      <trkpt lat="45.39709" lon="2.48346">
        <ele>802</ele>
        <time>2025-06-08T07:54:44.479Z</time>
      </trkpt>
      <trkpt lat="45.39709" lon="2.48346">
        <ele>802</ele>
        <time>2025-06-08T07:54:45.479Z</time>
      </trkpt>
      <trkpt lat="45.39709" lon="2.48347">
        <ele>802</ele>
        <time>2025-06-08T07:54:46.479Z</time>
      </trkpt>
      <trkpt lat="45.39711" lon="2.48349">
        <ele>802</ele>
        <time>2025-06-08T07:54:47.479Z</time>
      </trkpt>
      <trkpt lat="45.39712" lon="2.48351">
        <ele>803</ele>
        <time>2025-06-08T07:54:48.479Z</time>
      </trkpt>
      <trkpt lat="45.39713" lon="2.48352">
        <ele>803</ele>
        <time>2025-06-08T07:54:49.479Z</time>
      </trkpt>
      <trkpt lat="45.39714" lon="2.48354">
        <ele>802</ele>
        <time>2025-06-08T07:54:50.479Z</time>
      </trkpt>
      <trkpt lat="45.39716" lon="2.48356">
        <ele>802</ele>
        <time>2025-06-08T07:54:51.479Z</time>
      </trkpt>
      <trkpt lat="45.39717" lon="2.48358">
        <ele>801</ele>
        <time>2025-06-08T07:54:52.479Z</time>
      </trkpt>
      <trkpt lat="45.39718" lon="2.48359">
        <ele>801</ele>
        <time>2025-06-08T07:54:53.479Z</time>
      </trkpt>
      <trkpt lat="45.39719" lon="2.4836">
        <ele>800</ele>
        <time>2025-06-08T07:54:54.479Z</time>
      </trkpt>
      <trkpt lat="45.39719" lon="2.48361">
        <ele>800</ele>
        <time>2025-06-08T07:54:55.479Z</time>
      </trkpt>
      <trkpt lat="45.39721" lon="2.48363">
        <ele>799</ele>
        <time>2025-06-08T07:54:56.479Z</time>
      </trkpt>
      <trkpt lat="45.39723" lon="2.48363">
        <ele>799</ele>
        <time>2025-06-08T07:54:57.479Z</time>
      </trkpt>
      <trkpt lat="45.39723" lon="2.48362">
        <ele>799</ele>
        <time>2025-06-08T07:54:58.479Z</time>
      </trkpt>
      <trkpt lat="45.39724" lon="2.4836">
        <ele>800</ele>
        <time>2025-06-08T07:54:59.479Z</time>
      </trkpt>
      <trkpt lat="45.39725" lon="2.48359">
        <ele>800</ele>
        <time>2025-06-08T07:55:00.479Z</time>
      </trkpt>
      <trkpt lat="45.39727" lon="2.48359">
        <ele>800</ele>
        <time>2025-06-08T07:55:01.479Z</time>
      </trkpt>
      <trkpt lat="45.39728" lon="2.48357">
        <ele>800</ele>
        <time>2025-06-08T07:55:02.479Z</time>
      </trkpt>
      <trkpt lat="45.39729" lon="2.48357">
        <ele>799</ele>
        <time>2025-06-08T07:55:03.479Z</time>
      </trkpt>
      <trkpt lat="45.3973" lon="2.48357">
        <ele>799</ele>
        <time>2025-06-08T07:55:04.479Z</time>
      </trkpt>
      <trkpt lat="45.39732" lon="2.48356">
        <ele>799</ele>
        <time>2025-06-08T07:55:05.479Z</time>
      </trkpt>
      <trkpt lat="45.39733" lon="2.48356">
        <ele>799</ele>
        <time>2025-06-08T07:55:06.479Z</time>
      </trkpt>
      <trkpt lat="45.39734" lon="2.48356">
        <ele>800</ele>
        <time>2025-06-08T07:55:07.479Z</time>
      </trkpt>
      <trkpt lat="45.39735" lon="2.48357">
        <ele>800</ele>
        <time>2025-06-08T07:55:08.479Z</time>
      </trkpt>
      <trkpt lat="45.39737" lon="2.48357">
        <ele>800</ele>
        <time>2025-06-08T07:55:09.479Z</time>
      </trkpt>
      <trkpt lat="45.39738" lon="2.48358">
        <ele>800</ele>
        <time>2025-06-08T07:55:10.479Z</time>
      </trkpt>
      <trkpt lat="45.3974" lon="2.48358">
        <ele>800</ele>
        <time>2025-06-08T07:55:11.479Z</time>
      </trkpt>
      <trkpt lat="45.3974" lon="2.48358">
        <ele>801</ele>
        <time>2025-06-08T07:55:12.479Z</time>
      </trkpt>
      <trkpt lat="45.39741" lon="2.48361">
        <ele>801</ele>
        <time>2025-06-08T07:55:13.479Z</time>
      </trkpt>
      <trkpt lat="45.39744" lon="2.48363">
        <ele>801</ele>
        <time>2025-06-08T07:55:14.479Z</time>
      </trkpt>
      <trkpt lat="45.39745" lon="2.48363">
        <ele>802</ele>
        <time>2025-06-08T07:55:15.479Z</time>
      </trkpt>
      <trkpt lat="45.39746" lon="2.48364">
        <ele>802</ele>
        <time>2025-06-08T07:55:16.479Z</time>
      </trkpt>
      <trkpt lat="45.39747" lon="2.48364">
        <ele>802</ele>
        <time>2025-06-08T07:55:17.479Z</time>
      </trkpt>
      <trkpt lat="45.39748" lon="2.48363">
        <ele>802</ele>
        <time>2025-06-08T07:55:18.479Z</time>
      </trkpt>
      <trkpt lat="45.39748" lon="2.48364">
        <ele>802</ele>
        <time>2025-06-08T07:55:19.479Z</time>
      </trkpt>
      <trkpt lat="45.39749" lon="2.48364">
        <ele>802</ele>
        <time>2025-06-08T07:55:20.479Z</time>
      </trkpt>
      <trkpt lat="45.39749" lon="2.48364">
        <ele>802</ele>
        <time>2025-06-08T07:55:21.479Z</time>
      </trkpt>
      <trkpt lat="45.3975" lon="2.48363">
        <ele>802</ele>
        <time>2025-06-08T07:55:22.479Z</time>
      </trkpt>
      <trkpt lat="45.39752" lon="2.48362">
        <ele>802</ele>
        <time>2025-06-08T07:55:23.479Z</time>
      </trkpt>
      <trkpt lat="45.39753" lon="2.48362">
        <ele>802</ele>
        <time>2025-06-08T07:55:24.479Z</time>
      </trkpt>
      <trkpt lat="45.39752" lon="2.48361">
        <ele>802</ele>
        <time>2025-06-08T07:55:25.479Z</time>
      </trkpt>
      <trkpt lat="45.39753" lon="2.48362">
        <ele>803</ele>
        <time>2025-06-08T07:55:26.479Z</time>
      </trkpt>
      <trkpt lat="45.39755" lon="2.4836">
        <ele>803</ele>
        <time>2025-06-08T07:55:27.479Z</time>
      </trkpt>
      <trkpt lat="45.39758" lon="2.4836">
        <ele>804</ele>
        <time>2025-06-08T07:55:28.479Z</time>
      </trkpt>
      <trkpt lat="45.3976" lon="2.48359">
        <ele>804</ele>
        <time>2025-06-08T07:55:29.479Z</time>
      </trkpt>
      <trkpt lat="45.39761" lon="2.48359">
        <ele>804</ele>
        <time>2025-06-08T07:55:30.479Z</time>
      </trkpt>
      <trkpt lat="45.39762" lon="2.48359">
        <ele>805</ele>
        <time>2025-06-08T07:55:31.479Z</time>
      </trkpt>
      <trkpt lat="45.39762" lon="2.48359">
        <ele>805</ele>
        <time>2025-06-08T07:55:32.479Z</time>
      </trkpt>
      <trkpt lat="45.39763" lon="2.48359">
        <ele>805</ele>
        <time>2025-06-08T07:55:33.479Z</time>
      </trkpt>
      <trkpt lat="45.39764" lon="2.4836">
        <ele>805</ele>
        <time>2025-06-08T07:55:34.479Z</time>
      </trkpt>
      <trkpt lat="45.39764" lon="2.48361">
        <ele>805</ele>
        <time>2025-06-08T07:55:35.479Z</time>
      </trkpt>
      <trkpt lat="45.39764" lon="2.48361">
        <ele>805</ele>
        <time>2025-06-08T07:55:36.479Z</time>
      </trkpt>
      <trkpt lat="45.39765" lon="2.48361">
        <ele>805</ele>
        <time>2025-06-08T07:55:37.479Z</time>
      </trkpt>
      <trkpt lat="45.39764" lon="2.48361">
        <ele>804</ele>
        <time>2025-06-08T07:55:38.479Z</time>
      </trkpt>
      <trkpt lat="45.39765" lon="2.48361">
        <ele>804</ele>
        <time>2025-06-08T07:55:39.479Z</time>
      </trkpt>
      <trkpt lat="45.39766" lon="2.48361">
        <ele>803</ele>
        <time>2025-06-08T07:55:40.479Z</time>
      </trkpt>
      <trkpt lat="45.39767" lon="2.48362">
        <ele>803</ele>
        <time>2025-06-08T07:55:41.479Z</time>
      </trkpt>
      <trkpt lat="45.39768" lon="2.48362">
        <ele>803</ele>
        <time>2025-06-08T07:55:42.479Z</time>
      </trkpt>
      <trkpt lat="45.39768" lon="2.48363">
        <ele>802</ele>
        <time>2025-06-08T07:55:43.479Z</time>
      </trkpt>
      <trkpt lat="45.39768" lon="2.48363">
        <ele>802</ele>
        <time>2025-06-08T07:55:44.479Z</time>
      </trkpt>
      <trkpt lat="45.39768" lon="2.48364">
        <ele>802</ele>
        <time>2025-06-08T07:55:45.479Z</time>
      </trkpt>
      <trkpt lat="45.3977" lon="2.48365">
        <ele>802</ele>
        <time>2025-06-08T07:55:46.479Z</time>
      </trkpt>
      <trkpt lat="45.39771" lon="2.48365">
        <ele>801</ele>
        <time>2025-06-08T07:55:47.479Z</time>
      </trkpt>
      <trkpt lat="45.39771" lon="2.48365">
        <ele>801</ele>
        <time>2025-06-08T07:55:48.479Z</time>
      </trkpt>
      <trkpt lat="45.39771" lon="2.48365">
        <ele>800</ele>
        <time>2025-06-08T07:55:49.479Z</time>
      </trkpt>
      <trkpt lat="45.39771" lon="2.48365">
        <ele>800</ele>
        <time>2025-06-08T07:55:50.479Z</time>
      </trkpt>
      <trkpt lat="45.39771" lon="2.48365">
        <ele>799</ele>
        <time>2025-06-08T07:55:51.479Z</time>
      </trkpt>
      <trkpt lat="45.39771" lon="2.48365">
        <ele>799</ele>
        <time>2025-06-08T07:55:52.479Z</time>
      </trkpt>
      <trkpt lat="45.39772" lon="2.48365">
        <ele>799</ele>
        <time>2025-06-08T07:55:53.479Z</time>
      </trkpt>
      <trkpt lat="45.39773" lon="2.48366">
        <ele>798</ele>
        <time>2025-06-08T07:55:54.479Z</time>
      </trkpt>
      <trkpt lat="45.39774" lon="2.48366">
        <ele>798</ele>
        <time>2025-06-08T07:55:55.479Z</time>
      </trkpt>
      <trkpt lat="45.39773" lon="2.48367">
        <ele>797</ele>
        <time>2025-06-08T07:55:56.479Z</time>
      </trkpt>
      <trkpt lat="45.39773" lon="2.48367">
        <ele>797</ele>
        <time>2025-06-08T07:55:57.479Z</time>
      </trkpt>
      <trkpt lat="45.39773" lon="2.48368">
        <ele>796</ele>
        <time>2025-06-08T07:55:58.479Z</time>
      </trkpt>
      <trkpt lat="45.39774" lon="2.48369">
        <ele>796</ele>
        <time>2025-06-08T07:55:59.479Z</time>
      </trkpt>
      <trkpt lat="45.39774" lon="2.48369">
        <ele>795</ele>
        <time>2025-06-08T07:56:00.479Z</time>
      </trkpt>
      <trkpt lat="45.39775" lon="2.4837">
        <ele>795</ele>
        <time>2025-06-08T07:56:01.479Z</time>
      </trkpt>
      <trkpt lat="45.39775" lon="2.48372">
        <ele>794</ele>
        <time>2025-06-08T07:56:02.479Z</time>
      </trkpt>
      <trkpt lat="45.39775" lon="2.48373">
        <ele>794</ele>
        <time>2025-06-08T07:56:03.479Z</time>
      </trkpt>
      <trkpt lat="45.39776" lon="2.48373">
        <ele>793</ele>
        <time>2025-06-08T07:56:04.479Z</time>
      </trkpt>
      <trkpt lat="45.39776" lon="2.48374">
        <ele>793</ele>
        <time>2025-06-08T07:56:05.479Z</time>
      </trkpt>
      <trkpt lat="45.39777" lon="2.48375">
        <ele>792</ele>
        <time>2025-06-08T07:56:06.479Z</time>
      </trkpt>
      <trkpt lat="45.39777" lon="2.48376">
        <ele>792</ele>
        <time>2025-06-08T07:56:07.479Z</time>
      </trkpt>
      <trkpt lat="45.39777" lon="2.48376">
        <ele>792</ele>
        <time>2025-06-08T07:56:08.479Z</time>
      </trkpt>
      <trkpt lat="45.39777" lon="2.48376">
        <ele>792</ele>
        <time>2025-06-08T07:56:09.479Z</time>
      </trkpt>
      <trkpt lat="45.39778" lon="2.48377">
        <ele>792</ele>
        <time>2025-06-08T07:56:10.479Z</time>
      </trkpt>
      <trkpt lat="45.39779" lon="2.48378">
        <ele>792</ele>
        <time>2025-06-08T07:56:11.479Z</time>
      </trkpt>
      <trkpt lat="45.39779" lon="2.48379">
        <ele>792</ele>
        <time>2025-06-08T07:56:12.479Z</time>
      </trkpt>
      <trkpt lat="45.39779" lon="2.48379">
        <ele>792</ele>
        <time>2025-06-08T07:56:13.479Z</time>
      </trkpt>
      <trkpt lat="45.39779" lon="2.4838">
        <ele>792</ele>
        <time>2025-06-08T07:56:14.479Z</time>
      </trkpt>
      <trkpt lat="45.39781" lon="2.48381">
        <ele>792</ele>
        <time>2025-06-08T07:56:15.479Z</time>
      </trkpt>
      <trkpt lat="45.39781" lon="2.48381">
        <ele>792</ele>
        <time>2025-06-08T07:56:16.479Z</time>
      </trkpt>
      <trkpt lat="45.39782" lon="2.48382">
        <ele>791</ele>
        <time>2025-06-08T07:56:17.479Z</time>
      </trkpt>
      <trkpt lat="45.39782" lon="2.48383">
        <ele>791</ele>
        <time>2025-06-08T07:56:18.479Z</time>
      </trkpt>
      <trkpt lat="45.39782" lon="2.48384">
        <ele>790</ele>
        <time>2025-06-08T07:56:19.479Z</time>
      </trkpt>
      <trkpt lat="45.39783" lon="2.48384">
        <ele>790</ele>
        <time>2025-06-08T07:56:20.479Z</time>
      </trkpt>
      <trkpt lat="45.39783" lon="2.48385">
        <ele>790</ele>
        <time>2025-06-08T07:56:21.479Z</time>
      </trkpt>
      <trkpt lat="45.39783" lon="2.48386">
        <ele>789</ele>
        <time>2025-06-08T07:56:22.479Z</time>
      </trkpt>
      <trkpt lat="45.39783" lon="2.48386">
        <ele>789</ele>
        <time>2025-06-08T07:56:23.479Z</time>
      </trkpt>
      <trkpt lat="45.39783" lon="2.48386">
        <ele>789</ele>
        <time>2025-06-08T07:56:24.479Z</time>
      </trkpt>
      <trkpt lat="45.39783" lon="2.48387">
        <ele>789</ele>
        <time>2025-06-08T07:56:25.479Z</time>
      </trkpt>
      <trkpt lat="45.39783" lon="2.48387">
        <ele>789</ele>
        <time>2025-06-08T07:56:26.479Z</time>
      </trkpt>
      <trkpt lat="45.39783" lon="2.48387">
        <ele>789</ele>
        <time>2025-06-08T07:56:27.479Z</time>
      </trkpt>
      <trkpt lat="45.39784" lon="2.48387">
        <ele>789</ele>
        <time>2025-06-08T07:56:28.479Z</time>
      </trkpt>
      <trkpt lat="45.39784" lon="2.48387">
        <ele>789</ele>
        <time>2025-06-08T07:56:29.479Z</time>
      </trkpt>
      <trkpt lat="45.39784" lon="2.48387">
        <ele>789</ele>
        <time>2025-06-08T07:56:30.479Z</time>
      </trkpt>
      <trkpt lat="45.39784" lon="2.48387">
        <ele>789</ele>
        <time>2025-06-08T07:56:31.479Z</time>
      </trkpt>
      <trkpt lat="45.39785" lon="2.48388">
        <ele>790</ele>
        <time>2025-06-08T07:56:32.479Z</time>
      </trkpt>
      <trkpt lat="45.39786" lon="2.48388">
        <ele>790</ele>
        <time>2025-06-08T07:56:33.479Z</time>
      </trkpt>
      <trkpt lat="45.39786" lon="2.48388">
        <ele>790</ele>
        <time>2025-06-08T07:56:34.479Z</time>
      </trkpt>
      <trkpt lat="45.39786" lon="2.48389">
        <ele>790</ele>
        <time>2025-06-08T07:56:35.479Z</time>
      </trkpt>
      <trkpt lat="45.39786" lon="2.48389">
        <ele>790</ele>
        <time>2025-06-08T07:56:36.479Z</time>
      </trkpt>
      <trkpt lat="45.39786" lon="2.48389">
        <ele>790</ele>
        <time>2025-06-08T07:56:37.479Z</time>
      </trkpt>
      <trkpt lat="45.39786" lon="2.48389">
        <ele>790</ele>
        <time>2025-06-08T07:56:38.479Z</time>
      </trkpt>
      <trkpt lat="45.39788" lon="2.4839">
        <ele>790</ele>
        <time>2025-06-08T07:56:39.479Z</time>
      </trkpt>
      <trkpt lat="45.3979" lon="2.48391">
        <ele>790</ele>
        <time>2025-06-08T07:56:40.479Z</time>
      </trkpt>
      <trkpt lat="45.3979" lon="2.48391">
        <ele>790</ele>
        <time>2025-06-08T07:56:41.479Z</time>
      </trkpt>
      <trkpt lat="45.39792" lon="2.48393">
        <ele>789</ele>
        <time>2025-06-08T07:56:42.479Z</time>
      </trkpt>
      <trkpt lat="45.39794" lon="2.48394">
        <ele>789</ele>
        <time>2025-06-08T07:56:43.479Z</time>
      </trkpt>
      <trkpt lat="45.39795" lon="2.48395">
        <ele>789</ele>
        <time>2025-06-08T07:56:44.479Z</time>
      </trkpt>
      <trkpt lat="45.39796" lon="2.48396">
        <ele>788</ele>
        <time>2025-06-08T07:56:45.479Z</time>
      </trkpt>
      <trkpt lat="45.39796" lon="2.48396">
        <ele>788</ele>
        <time>2025-06-08T07:56:46.479Z</time>
      </trkpt>
      <trkpt lat="45.39797" lon="2.48396">
        <ele>788</ele>
        <time>2025-06-08T07:56:47.479Z</time>
      </trkpt>
      <trkpt lat="45.39798" lon="2.48396">
        <ele>788</ele>
        <time>2025-06-08T07:56:48.479Z</time>
      </trkpt>
      <trkpt lat="45.39799" lon="2.48397">
        <ele>788</ele>
        <time>2025-06-08T07:56:49.479Z</time>
      </trkpt>
      <trkpt lat="45.39799" lon="2.48397">
        <ele>788</ele>
        <time>2025-06-08T07:56:50.479Z</time>
      </trkpt>
      <trkpt lat="45.398" lon="2.48398">
        <ele>788</ele>
        <time>2025-06-08T07:56:51.479Z</time>
      </trkpt>
      <trkpt lat="45.398" lon="2.48398">
        <ele>788</ele>
        <time>2025-06-08T07:56:52.479Z</time>
      </trkpt>
      <trkpt lat="45.398" lon="2.48399">
        <ele>788</ele>
        <time>2025-06-08T07:56:53.479Z</time>
      </trkpt>
      <trkpt lat="45.398" lon="2.48399">
        <ele>787</ele>
        <time>2025-06-08T07:56:54.479Z</time>
      </trkpt>
      <trkpt lat="45.398" lon="2.484">
        <ele>787</ele>
        <time>2025-06-08T07:56:55.479Z</time>
      </trkpt>
      <trkpt lat="45.398" lon="2.484">
        <ele>787</ele>
        <time>2025-06-08T07:56:56.479Z</time>
      </trkpt>
      <trkpt lat="45.39799" lon="2.484">
        <ele>786</ele>
        <time>2025-06-08T07:56:57.479Z</time>
      </trkpt>
      <trkpt lat="45.39799" lon="2.484">
        <ele>786</ele>
        <time>2025-06-08T07:56:58.479Z</time>
      </trkpt>
      <trkpt lat="45.39799" lon="2.484">
        <ele>786</ele>
        <time>2025-06-08T07:56:59.479Z</time>
      </trkpt>
      <trkpt lat="45.39799" lon="2.484">
        <ele>786</ele>
        <time>2025-06-08T07:57:00.479Z</time>
      </trkpt>
      <trkpt lat="45.39798" lon="2.484">
        <ele>786</ele>
        <time>2025-06-08T07:57:01.479Z</time>
      </trkpt>
      <trkpt lat="45.39798" lon="2.48401">
        <ele>786</ele>
        <time>2025-06-08T07:57:02.479Z</time>
      </trkpt>
      <trkpt lat="45.39798" lon="2.48401">
        <ele>786</ele>
        <time>2025-06-08T07:57:03.479Z</time>
      </trkpt>
      <trkpt lat="45.39798" lon="2.48401">
        <ele>786</ele>
        <time>2025-06-08T07:57:04.479Z</time>
      </trkpt>
      <trkpt lat="45.39798" lon="2.48401">
        <ele>786</ele>
        <time>2025-06-08T07:57:05.479Z</time>
      </trkpt>
      <trkpt lat="45.39798" lon="2.48401">
        <ele>786</ele>
        <time>2025-06-08T07:57:06.479Z</time>
      </trkpt>
      <trkpt lat="45.39797" lon="2.48401">
        <ele>786</ele>
        <time>2025-06-08T07:57:07.479Z</time>
      </trkpt>
      <trkpt lat="45.39797" lon="2.48401">
        <ele>786</ele>
        <time>2025-06-08T07:57:08.479Z</time>
      </trkpt>
      <trkpt lat="45.39797" lon="2.48401">
        <ele>786</ele>
        <time>2025-06-08T07:57:09.479Z</time>
      </trkpt>
      <trkpt lat="45.39797" lon="2.48401">
        <ele>786</ele>
        <time>2025-06-08T07:57:10.479Z</time>
      </trkpt>
      <trkpt lat="45.39797" lon="2.48401">
        <ele>786</ele>
        <time>2025-06-08T07:57:11.479Z</time>
      </trkpt>
      <trkpt lat="45.39798" lon="2.484">
        <ele>786</ele>
        <time>2025-06-08T07:57:12.479Z</time>
      </trkpt>
      <trkpt lat="45.39798" lon="2.484">
        <ele>786</ele>
        <time>2025-06-08T07:57:13.479Z</time>
      </trkpt>
      <trkpt lat="45.39798" lon="2.484">
        <ele>786</ele>
        <time>2025-06-08T07:57:14.479Z</time>
      </trkpt>
      <trkpt lat="45.39799" lon="2.48401">
        <ele>786</ele>
        <time>2025-06-08T07:57:15.479Z</time>
      </trkpt>
      <trkpt lat="45.39799" lon="2.48401">
        <ele>786</ele>
        <time>2025-06-08T07:57:16.479Z</time>
      </trkpt>
      <trkpt lat="45.39799" lon="2.48401">
        <ele>787</ele>
        <time>2025-06-08T07:57:17.479Z</time>
      </trkpt>
      <trkpt lat="45.39799" lon="2.48401">
        <ele>787</ele>
        <time>2025-06-08T07:57:18.479Z</time>
      </trkpt>
      <trkpt lat="45.39799" lon="2.48401">
        <ele>788</ele>
        <time>2025-06-08T07:57:19.479Z</time>
      </trkpt>
      <trkpt lat="45.39799" lon="2.48401">
        <ele>788</ele>
        <time>2025-06-08T07:57:20.479Z</time>
      </trkpt>
      <trkpt lat="45.398" lon="2.48401">
        <ele>788</ele>
        <time>2025-06-08T07:57:21.479Z</time>
      </trkpt>
      <trkpt lat="45.39801" lon="2.484">
        <ele>788</ele>
        <time>2025-06-08T07:57:22.479Z</time>
      </trkpt>
      <trkpt lat="45.39801" lon="2.484">
        <ele>788</ele>
        <time>2025-06-08T07:57:23.479Z</time>
      </trkpt>
      <trkpt lat="45.39801" lon="2.484">
        <ele>787</ele>
        <time>2025-06-08T07:57:24.479Z</time>
      </trkpt>
      <trkpt lat="45.39801" lon="2.484">
        <ele>787</ele>
        <time>2025-06-08T07:57:25.479Z</time>
      </trkpt>
      <trkpt lat="45.398" lon="2.48399">
        <ele>787</ele>
        <time>2025-06-08T07:57:26.479Z</time>
      </trkpt>
      <trkpt lat="45.398" lon="2.48399">
        <ele>786</ele>
        <time>2025-06-08T07:57:27.479Z</time>
      </trkpt>
      <trkpt lat="45.398" lon="2.48399">
        <ele>786</ele>
        <time>2025-06-08T07:57:28.479Z</time>
      </trkpt>
      <trkpt lat="45.39801" lon="2.48399">
        <ele>785</ele>
        <time>2025-06-08T07:57:29.479Z</time>
      </trkpt>
      <trkpt lat="45.39802" lon="2.48399">
        <ele>785</ele>
        <time>2025-06-08T07:57:30.479Z</time>
      </trkpt>
      <trkpt lat="45.39802" lon="2.48398">
        <ele>785</ele>
        <time>2025-06-08T07:57:31.479Z</time>
      </trkpt>
      <trkpt lat="45.39803" lon="2.48397">
        <ele>785</ele>
        <time>2025-06-08T07:57:32.479Z</time>
      </trkpt>
      <trkpt lat="45.39803" lon="2.48398">
        <ele>785</ele>
        <time>2025-06-08T07:57:33.479Z</time>
      </trkpt>
      <trkpt lat="45.39803" lon="2.48398">
        <ele>785</ele>
        <time>2025-06-08T07:57:34.479Z</time>
      </trkpt>
      <trkpt lat="45.39803" lon="2.48397">
        <ele>785</ele>
        <time>2025-06-08T07:57:35.479Z</time>
      </trkpt>
      <trkpt lat="45.39802" lon="2.48397">
        <ele>785</ele>
        <time>2025-06-08T07:57:36.479Z</time>
      </trkpt>
      <trkpt lat="45.39802" lon="2.48397">
        <ele>785</ele>
        <time>2025-06-08T07:57:37.479Z</time>
      </trkpt>
      <trkpt lat="45.39802" lon="2.48396">
        <ele>785</ele>
        <time>2025-06-08T07:57:38.479Z</time>
      </trkpt>
      <trkpt lat="45.39802" lon="2.48395">
        <ele>785</ele>
        <time>2025-06-08T07:57:39.479Z</time>
      </trkpt>
      <trkpt lat="45.39802" lon="2.48395">
        <ele>785</ele>
        <time>2025-06-08T07:57:40.479Z</time>
      </trkpt>
      <trkpt lat="45.39802" lon="2.48394">
        <ele>785</ele>
        <time>2025-06-08T07:57:41.479Z</time>
      </trkpt>
      <trkpt lat="45.39802" lon="2.48394">
        <ele>784</ele>
        <time>2025-06-08T07:57:42.479Z</time>
      </trkpt>
      <trkpt lat="45.39802" lon="2.48393">
        <ele>784</ele>
        <time>2025-06-08T07:57:43.479Z</time>
      </trkpt>
      <trkpt lat="45.39803" lon="2.48392">
        <ele>784</ele>
        <time>2025-06-08T07:57:44.479Z</time>
      </trkpt>
      <trkpt lat="45.39806" lon="2.48391">
        <ele>783</ele>
        <time>2025-06-08T07:57:45.479Z</time>
      </trkpt>
      <trkpt lat="45.39809" lon="2.48391">
        <ele>783</ele>
        <time>2025-06-08T07:57:46.479Z</time>
      </trkpt>
      <trkpt lat="45.39811" lon="2.48391">
        <ele>782</ele>
        <time>2025-06-08T07:57:47.479Z</time>
      </trkpt>
      <trkpt lat="45.39812" lon="2.48391">
        <ele>782</ele>
        <time>2025-06-08T07:57:48.479Z</time>
      </trkpt>
      <trkpt lat="45.39811" lon="2.48391">
        <ele>781</ele>
        <time>2025-06-08T07:57:49.479Z</time>
      </trkpt>
      <trkpt lat="45.39812" lon="2.48391">
        <ele>781</ele>
        <time>2025-06-08T07:57:50.479Z</time>
      </trkpt>
      <trkpt lat="45.39811" lon="2.48391">
        <ele>781</ele>
        <time>2025-06-08T07:57:51.479Z</time>
      </trkpt>
      <trkpt lat="45.39811" lon="2.4839">
        <ele>781</ele>
        <time>2025-06-08T07:57:52.479Z</time>
      </trkpt>
      <trkpt lat="45.3981" lon="2.4839">
        <ele>781</ele>
        <time>2025-06-08T07:57:53.479Z</time>
      </trkpt>
      <trkpt lat="45.3981" lon="2.48389">
        <ele>781</ele>
        <time>2025-06-08T07:57:54.479Z</time>
      </trkpt>
      <trkpt lat="45.3981" lon="2.48388">
        <ele>781</ele>
        <time>2025-06-08T07:57:55.479Z</time>
      </trkpt>
      <trkpt lat="45.3981" lon="2.48387">
        <ele>781</ele>
        <time>2025-06-08T07:57:56.479Z</time>
      </trkpt>
      <trkpt lat="45.3981" lon="2.48386">
        <ele>781</ele>
        <time>2025-06-08T07:57:57.479Z</time>
      </trkpt>
      <trkpt lat="45.39809" lon="2.48386">
        <ele>782</ele>
        <time>2025-06-08T07:57:58.479Z</time>
      </trkpt>
      <trkpt lat="45.39808" lon="2.48385">
        <ele>782</ele>
        <time>2025-06-08T07:57:59.479Z</time>
      </trkpt>
      <trkpt lat="45.39808" lon="2.48386">
        <ele>783</ele>
        <time>2025-06-08T07:58:00.479Z</time>
      </trkpt>
      <trkpt lat="45.39807" lon="2.48386">
        <ele>784</ele>
        <time>2025-06-08T07:58:01.479Z</time>
      </trkpt>
      <trkpt lat="45.39807" lon="2.48386">
        <ele>784</ele>
        <time>2025-06-08T07:58:02.479Z</time>
      </trkpt>
      <trkpt lat="45.39806" lon="2.48386">
        <ele>785</ele>
        <time>2025-06-08T07:58:03.479Z</time>
      </trkpt>
      <trkpt lat="45.39805" lon="2.48385">
        <ele>785</ele>
        <time>2025-06-08T07:58:04.479Z</time>
      </trkpt>
      <trkpt lat="45.39804" lon="2.48385">
        <ele>786</ele>
        <time>2025-06-08T07:58:05.479Z</time>
      </trkpt>
      <trkpt lat="45.39803" lon="2.48383">
        <ele>786</ele>
        <time>2025-06-08T07:58:06.479Z</time>
      </trkpt>
      <trkpt lat="45.39802" lon="2.4838">
        <ele>787</ele>
        <time>2025-06-08T07:58:07.479Z</time>
      </trkpt>
      <trkpt lat="45.39801" lon="2.48378">
        <ele>787</ele>
        <time>2025-06-08T07:58:08.479Z</time>
      </trkpt>
      <trkpt lat="45.398" lon="2.48376">
        <ele>787</ele>
        <time>2025-06-08T07:58:09.479Z</time>
      </trkpt>
      <trkpt lat="45.39799" lon="2.48373">
        <ele>787</ele>
        <time>2025-06-08T07:58:10.479Z</time>
      </trkpt>
      <trkpt lat="45.39799" lon="2.48371">
        <ele>787</ele>
        <time>2025-06-08T07:58:11.479Z</time>
      </trkpt>
      <trkpt lat="45.39799" lon="2.4837">
        <ele>787</ele>
        <time>2025-06-08T07:58:12.479Z</time>
      </trkpt>
      <trkpt lat="45.39799" lon="2.48369">
        <ele>787</ele>
        <time>2025-06-08T07:58:13.479Z</time>
      </trkpt>
      <trkpt lat="45.39799" lon="2.48368">
        <ele>787</ele>
        <time>2025-06-08T07:58:14.479Z</time>
      </trkpt>
      <trkpt lat="45.39799" lon="2.48367">
        <ele>787</ele>
        <time>2025-06-08T07:58:15.479Z</time>
      </trkpt>
      <trkpt lat="45.398" lon="2.48363">
        <ele>787</ele>
        <time>2025-06-08T07:58:16.479Z</time>
      </trkpt>
      <trkpt lat="45.398" lon="2.48361">
        <ele>787</ele>
        <time>2025-06-08T07:58:17.479Z</time>
      </trkpt>
      <trkpt lat="45.398" lon="2.4836">
        <ele>786</ele>
        <time>2025-06-08T07:58:18.479Z</time>
      </trkpt>
      <trkpt lat="45.39801" lon="2.48357">
        <ele>786</ele>
        <time>2025-06-08T07:58:19.479Z</time>
      </trkpt>
      <trkpt lat="45.39802" lon="2.48353">
        <ele>786</ele>
        <time>2025-06-08T07:58:20.479Z</time>
      </trkpt>
      <trkpt lat="45.39803" lon="2.48348">
        <ele>786</ele>
        <time>2025-06-08T07:58:21.479Z</time>
      </trkpt>
      <trkpt lat="45.39805" lon="2.48345">
        <ele>786</ele>
        <time>2025-06-08T07:58:22.479Z</time>
      </trkpt>
      <trkpt lat="45.39807" lon="2.48344">
        <ele>785</ele>
        <time>2025-06-08T07:58:23.479Z</time>
      </trkpt>
      <trkpt lat="45.39811" lon="2.48343">
        <ele>786</ele>
        <time>2025-06-08T07:58:24.479Z</time>
      </trkpt>
      <trkpt lat="45.39813" lon="2.48342">
        <ele>786</ele>
        <time>2025-06-08T07:58:25.479Z</time>
      </trkpt>
      <trkpt lat="45.39814" lon="2.4834">
        <ele>786</ele>
        <time>2025-06-08T07:58:26.479Z</time>
      </trkpt>
      <trkpt lat="45.39815" lon="2.48339">
        <ele>786</ele>
        <time>2025-06-08T07:58:27.479Z</time>
      </trkpt>
      <trkpt lat="45.39815" lon="2.48338">
        <ele>787</ele>
        <time>2025-06-08T07:58:28.479Z</time>
      </trkpt>
      <trkpt lat="45.39815" lon="2.48336">
        <ele>787</ele>
        <time>2025-06-08T07:58:29.479Z</time>
      </trkpt>
      <trkpt lat="45.39816" lon="2.48334">
        <ele>788</ele>
        <time>2025-06-08T07:58:30.479Z</time>
      </trkpt>
      <trkpt lat="45.39817" lon="2.48333">
        <ele>788</ele>
        <time>2025-06-08T07:58:31.479Z</time>
      </trkpt>
      <trkpt lat="45.39818" lon="2.48332">
        <ele>788</ele>
        <time>2025-06-08T07:58:32.479Z</time>
      </trkpt>
      <trkpt lat="45.39819" lon="2.48331">
        <ele>788</ele>
        <time>2025-06-08T07:58:33.479Z</time>
      </trkpt>
      <trkpt lat="45.3982" lon="2.4833">
        <ele>788</ele>
        <time>2025-06-08T07:58:34.479Z</time>
      </trkpt>
      <trkpt lat="45.39821" lon="2.48329">
        <ele>789</ele>
        <time>2025-06-08T07:58:35.479Z</time>
      </trkpt>
      <trkpt lat="45.39822" lon="2.48328">
        <ele>789</ele>
        <time>2025-06-08T07:58:36.479Z</time>
      </trkpt>
      <trkpt lat="45.39822" lon="2.48327">
        <ele>789</ele>
        <time>2025-06-08T07:58:37.479Z</time>
      </trkpt>
      <trkpt lat="45.39823" lon="2.48325">
        <ele>789</ele>
        <time>2025-06-08T07:58:38.479Z</time>
      </trkpt>
      <trkpt lat="45.39822" lon="2.48323">
        <ele>789</ele>
        <time>2025-06-08T07:58:39.479Z</time>
      </trkpt>
      <trkpt lat="45.39823" lon="2.48321">
        <ele>789</ele>
        <time>2025-06-08T07:58:40.479Z</time>
      </trkpt>
      <trkpt lat="45.39823" lon="2.48319">
        <ele>789</ele>
        <time>2025-06-08T07:58:41.479Z</time>
      </trkpt>
      <trkpt lat="45.39823" lon="2.48318">
        <ele>790</ele>
        <time>2025-06-08T07:58:42.479Z</time>
      </trkpt>
      <trkpt lat="45.39823" lon="2.48318">
        <ele>790</ele>
        <time>2025-06-08T07:58:43.479Z</time>
      </trkpt>
      <trkpt lat="45.39823" lon="2.48317">
        <ele>790</ele>
        <time>2025-06-08T07:58:44.479Z</time>
      </trkpt>
      <trkpt lat="45.39824" lon="2.48316">
        <ele>790</ele>
        <time>2025-06-08T07:58:45.479Z</time>
      </trkpt>
      <trkpt lat="45.39823" lon="2.48315">
        <ele>790</ele>
        <time>2025-06-08T07:58:46.479Z</time>
      </trkpt>
      <trkpt lat="45.39823" lon="2.48313">
        <ele>791</ele>
        <time>2025-06-08T07:58:47.479Z</time>
      </trkpt>
      <trkpt lat="45.39822" lon="2.48311">
        <ele>791</ele>
        <time>2025-06-08T07:58:48.479Z</time>
      </trkpt>
      <trkpt lat="45.39822" lon="2.48309">
        <ele>791</ele>
        <time>2025-06-08T07:58:49.479Z</time>
      </trkpt>
      <trkpt lat="45.39822" lon="2.48308">
        <ele>791</ele>
        <time>2025-06-08T07:58:50.479Z</time>
      </trkpt>
      <trkpt lat="45.39823" lon="2.48307">
        <ele>791</ele>
        <time>2025-06-08T07:58:51.479Z</time>
      </trkpt>
      <trkpt lat="45.39823" lon="2.48306">
        <ele>791</ele>
        <time>2025-06-08T07:58:52.479Z</time>
      </trkpt>
      <trkpt lat="45.39823" lon="2.48305">
        <ele>791</ele>
        <time>2025-06-08T07:58:53.479Z</time>
      </trkpt>
      <trkpt lat="45.39824" lon="2.48305">
        <ele>791</ele>
        <time>2025-06-08T07:58:54.479Z</time>
      </trkpt>
      <trkpt lat="45.39824" lon="2.48304">
        <ele>791</ele>
        <time>2025-06-08T07:58:55.479Z</time>
      </trkpt>
      <trkpt lat="45.39825" lon="2.48303">
        <ele>791</ele>
        <time>2025-06-08T07:58:56.479Z</time>
      </trkpt>
      <trkpt lat="45.39825" lon="2.48302">
        <ele>791</ele>
        <time>2025-06-08T07:58:57.479Z</time>
      </trkpt>
      <trkpt lat="45.39824" lon="2.48301">
        <ele>791</ele>
        <time>2025-06-08T07:58:58.479Z</time>
      </trkpt>
      <trkpt lat="45.39825" lon="2.483">
        <ele>791</ele>
        <time>2025-06-08T07:58:59.479Z</time>
      </trkpt>
      <trkpt lat="45.39826" lon="2.483">
        <ele>791</ele>
        <time>2025-06-08T07:59:00.479Z</time>
      </trkpt>
      <trkpt lat="45.39827" lon="2.48298">
        <ele>791</ele>
        <time>2025-06-08T07:59:01.479Z</time>
      </trkpt>
      <trkpt lat="45.39826" lon="2.48296">
        <ele>791</ele>
        <time>2025-06-08T07:59:02.479Z</time>
      </trkpt>
      <trkpt lat="45.39826" lon="2.48294">
        <ele>791</ele>
        <time>2025-06-08T07:59:03.479Z</time>
      </trkpt>
      <trkpt lat="45.39826" lon="2.48292">
        <ele>791</ele>
        <time>2025-06-08T07:59:04.479Z</time>
      </trkpt>
      <trkpt lat="45.39827" lon="2.48291">
        <ele>791</ele>
        <time>2025-06-08T07:59:05.479Z</time>
      </trkpt>
      <trkpt lat="45.39827" lon="2.4829">
        <ele>791</ele>
        <time>2025-06-08T07:59:06.479Z</time>
      </trkpt>
      <trkpt lat="45.39828" lon="2.48288">
        <ele>791</ele>
        <time>2025-06-08T07:59:07.479Z</time>
      </trkpt>
      <trkpt lat="45.39828" lon="2.48286">
        <ele>790</ele>
        <time>2025-06-08T07:59:08.479Z</time>
      </trkpt>
      <trkpt lat="45.39828" lon="2.48285">
        <ele>790</ele>
        <time>2025-06-08T07:59:09.479Z</time>
      </trkpt>
      <trkpt lat="45.39827" lon="2.48284">
        <ele>790</ele>
        <time>2025-06-08T07:59:10.479Z</time>
      </trkpt>
      <trkpt lat="45.39827" lon="2.48283">
        <ele>790</ele>
        <time>2025-06-08T07:59:11.479Z</time>
      </trkpt>
      <trkpt lat="45.39827" lon="2.48282">
        <ele>790</ele>
        <time>2025-06-08T07:59:12.479Z</time>
      </trkpt>
      <trkpt lat="45.39826" lon="2.48281">
        <ele>790</ele>
        <time>2025-06-08T07:59:13.479Z</time>
      </trkpt>
      <trkpt lat="45.39827" lon="2.4828">
        <ele>789</ele>
        <time>2025-06-08T07:59:14.479Z</time>
      </trkpt>
      <trkpt lat="45.39827" lon="2.48279">
        <ele>789</ele>
        <time>2025-06-08T07:59:15.479Z</time>
      </trkpt>
      <trkpt lat="45.39826" lon="2.48278">
        <ele>789</ele>
        <time>2025-06-08T07:59:16.479Z</time>
      </trkpt>
      <trkpt lat="45.39826" lon="2.48277">
        <ele>789</ele>
        <time>2025-06-08T07:59:17.479Z</time>
      </trkpt>
      <trkpt lat="45.39825" lon="2.48276">
        <ele>789</ele>
        <time>2025-06-08T07:59:18.479Z</time>
      </trkpt>
      <trkpt lat="45.39824" lon="2.48274">
        <ele>789</ele>
        <time>2025-06-08T07:59:19.479Z</time>
      </trkpt>
      <trkpt lat="45.39824" lon="2.48273">
        <ele>789</ele>
        <time>2025-06-08T07:59:20.479Z</time>
      </trkpt>
      <trkpt lat="45.39824" lon="2.48272">
        <ele>788</ele>
        <time>2025-06-08T07:59:21.479Z</time>
      </trkpt>
      <trkpt lat="45.39823" lon="2.48272">
        <ele>788</ele>
        <time>2025-06-08T07:59:22.479Z</time>
      </trkpt>
      <trkpt lat="45.39823" lon="2.48272">
        <ele>788</ele>
        <time>2025-06-08T07:59:23.479Z</time>
      </trkpt>
      <trkpt lat="45.39823" lon="2.48272">
        <ele>788</ele>
        <time>2025-06-08T07:59:24.479Z</time>
      </trkpt>
      <trkpt lat="45.39823" lon="2.48272">
        <ele>788</ele>
        <time>2025-06-08T07:59:25.479Z</time>
      </trkpt>
      <trkpt lat="45.39822" lon="2.48272">
        <ele>788</ele>
        <time>2025-06-08T07:59:26.479Z</time>
      </trkpt>
      <trkpt lat="45.39822" lon="2.48271">
        <ele>787</ele>
        <time>2025-06-08T07:59:27.479Z</time>
      </trkpt>
      <trkpt lat="45.39821" lon="2.4827">
        <ele>787</ele>
        <time>2025-06-08T07:59:28.479Z</time>
      </trkpt>
      <trkpt lat="45.3982" lon="2.48268">
        <ele>787</ele>
        <time>2025-06-08T07:59:29.479Z</time>
      </trkpt>
      <trkpt lat="45.39818" lon="2.48266">
        <ele>787</ele>
        <time>2025-06-08T07:59:30.479Z</time>
      </trkpt>
      <trkpt lat="45.39818" lon="2.48266">
        <ele>787</ele>
        <time>2025-06-08T07:59:31.479Z</time>
      </trkpt>
      <trkpt lat="45.39817" lon="2.48265">
        <ele>787</ele>
        <time>2025-06-08T07:59:32.479Z</time>
      </trkpt>
      <trkpt lat="45.39816" lon="2.48265">
        <ele>787</ele>
        <time>2025-06-08T07:59:33.479Z</time>
      </trkpt>
      <trkpt lat="45.39815" lon="2.48265">
        <ele>787</ele>
        <time>2025-06-08T07:59:34.479Z</time>
      </trkpt>
      <trkpt lat="45.39813" lon="2.48264">
        <ele>788</ele>
        <time>2025-06-08T07:59:35.479Z</time>
      </trkpt>
      <trkpt lat="45.39813" lon="2.48264">
        <ele>788</ele>
        <time>2025-06-08T07:59:36.479Z</time>
      </trkpt>
      <trkpt lat="45.39812" lon="2.48263">
        <ele>788</ele>
        <time>2025-06-08T07:59:37.479Z</time>
      </trkpt>
      <trkpt lat="45.39812" lon="2.48263">
        <ele>788</ele>
        <time>2025-06-08T07:59:38.479Z</time>
      </trkpt>
      <trkpt lat="45.39811" lon="2.48262">
        <ele>788</ele>
        <time>2025-06-08T07:59:39.479Z</time>
      </trkpt>
      <trkpt lat="45.3981" lon="2.48263">
        <ele>788</ele>
        <time>2025-06-08T07:59:40.479Z</time>
      </trkpt>
      <trkpt lat="45.39809" lon="2.48262">
        <ele>788</ele>
        <time>2025-06-08T07:59:41.479Z</time>
      </trkpt>
      <trkpt lat="45.39808" lon="2.48261">
        <ele>788</ele>
        <time>2025-06-08T07:59:42.479Z</time>
      </trkpt>
      <trkpt lat="45.39807" lon="2.4826">
        <ele>788</ele>
        <time>2025-06-08T07:59:43.479Z</time>
      </trkpt>
      <trkpt lat="45.39806" lon="2.48259">
        <ele>788</ele>
        <time>2025-06-08T07:59:44.479Z</time>
      </trkpt>
      <trkpt lat="45.39804" lon="2.48257">
        <ele>787</ele>
        <time>2025-06-08T07:59:45.479Z</time>
      </trkpt>
      <trkpt lat="45.39804" lon="2.48257">
        <ele>787</ele>
        <time>2025-06-08T07:59:46.479Z</time>
      </trkpt>
      <trkpt lat="45.39803" lon="2.48254">
        <ele>787</ele>
        <time>2025-06-08T07:59:47.479Z</time>
      </trkpt>
      <trkpt lat="45.39803" lon="2.48254">
        <ele>787</ele>
        <time>2025-06-08T07:59:48.479Z</time>
      </trkpt>
      <trkpt lat="45.39803" lon="2.48252">
        <ele>787</ele>
        <time>2025-06-08T07:59:49.479Z</time>
      </trkpt>
      <trkpt lat="45.39803" lon="2.48249">
        <ele>787</ele>
        <time>2025-06-08T07:59:50.479Z</time>
      </trkpt>
      <trkpt lat="45.39804" lon="2.48249">
        <ele>786</ele>
        <time>2025-06-08T07:59:51.479Z</time>
      </trkpt>
      <trkpt lat="45.39805" lon="2.48248">
        <ele>786</ele>
        <time>2025-06-08T07:59:52.479Z</time>
      </trkpt>
      <trkpt lat="45.39805" lon="2.48246">
        <ele>786</ele>
        <time>2025-06-08T07:59:53.479Z</time>
      </trkpt>
      <trkpt lat="45.39806" lon="2.48244">
        <ele>786</ele>
        <time>2025-06-08T07:59:54.479Z</time>
      </trkpt>
      <trkpt lat="45.39807" lon="2.48242">
        <ele>786</ele>
        <time>2025-06-08T07:59:55.479Z</time>
      </trkpt>
      <trkpt lat="45.39807" lon="2.48242">
        <ele>786</ele>
        <time>2025-06-08T07:59:56.479Z</time>
      </trkpt>
      <trkpt lat="45.39807" lon="2.48241">
        <ele>786</ele>
        <time>2025-06-08T07:59:57.479Z</time>
      </trkpt>
      <trkpt lat="45.39807" lon="2.48241">
        <ele>787</ele>
        <time>2025-06-08T07:59:58.479Z</time>
      </trkpt>
      <trkpt lat="45.39807" lon="2.4824">
        <ele>787</ele>
        <time>2025-06-08T07:59:59.479Z</time>
      </trkpt>
      <trkpt lat="45.39807" lon="2.48239">
        <ele>788</ele>
        <time>2025-06-08T08:00:00.479Z</time>
      </trkpt>
      <trkpt lat="45.39807" lon="2.48237">
        <ele>788</ele>
        <time>2025-06-08T08:00:01.479Z</time>
      </trkpt>
      <trkpt lat="45.39807" lon="2.48237">
        <ele>788</ele>
        <time>2025-06-08T08:00:02.479Z</time>
      </trkpt>
      <trkpt lat="45.39806" lon="2.48235">
        <ele>789</ele>
        <time>2025-06-08T08:00:03.479Z</time>
      </trkpt>
      <trkpt lat="45.39803" lon="2.48233">
        <ele>790</ele>
        <time>2025-06-08T08:00:04.479Z</time>
      </trkpt>
      <trkpt lat="45.39802" lon="2.48231">
        <ele>791</ele>
        <time>2025-06-08T08:00:05.479Z</time>
      </trkpt>
      <trkpt lat="45.39802" lon="2.48231">
        <ele>792</ele>
        <time>2025-06-08T08:00:06.479Z</time>
      </trkpt>
      <trkpt lat="45.39801" lon="2.48229">
        <ele>792</ele>
        <time>2025-06-08T08:00:07.479Z</time>
      </trkpt>
      <trkpt lat="45.39801" lon="2.48227">
        <ele>792</ele>
        <time>2025-06-08T08:00:08.479Z</time>
      </trkpt>
      <trkpt lat="45.398" lon="2.48225">
        <ele>792</ele>
        <time>2025-06-08T08:00:09.479Z</time>
      </trkpt>
      <trkpt lat="45.39801" lon="2.48223">
        <ele>792</ele>
        <time>2025-06-08T08:00:10.479Z</time>
      </trkpt>
      <trkpt lat="45.39801" lon="2.48221">
        <ele>793</ele>
        <time>2025-06-08T08:00:11.479Z</time>
      </trkpt>
      <trkpt lat="45.39802" lon="2.48221">
        <ele>793</ele>
        <time>2025-06-08T08:00:12.479Z</time>
      </trkpt>
      <trkpt lat="45.39802" lon="2.4822">
        <ele>793</ele>
        <time>2025-06-08T08:00:13.479Z</time>
      </trkpt>
      <trkpt lat="45.39803" lon="2.48219">
        <ele>793</ele>
        <time>2025-06-08T08:00:14.479Z</time>
      </trkpt>
      <trkpt lat="45.39804" lon="2.48217">
        <ele>793</ele>
        <time>2025-06-08T08:00:15.479Z</time>
      </trkpt>
      <trkpt lat="45.39804" lon="2.48216">
        <ele>793</ele>
        <time>2025-06-08T08:00:16.479Z</time>
      </trkpt>
      <trkpt lat="45.39805" lon="2.48214">
        <ele>793</ele>
        <time>2025-06-08T08:00:17.479Z</time>
      </trkpt>
      <trkpt lat="45.39806" lon="2.48213">
        <ele>793</ele>
        <time>2025-06-08T08:00:18.479Z</time>
      </trkpt>
      <trkpt lat="45.39806" lon="2.48214">
        <ele>793</ele>
        <time>2025-06-08T08:00:19.479Z</time>
      </trkpt>
      <trkpt lat="45.39806" lon="2.48214">
        <ele>793</ele>
        <time>2025-06-08T08:00:20.479Z</time>
      </trkpt>
      <trkpt lat="45.39806" lon="2.48214">
        <ele>792</ele>
        <time>2025-06-08T08:00:21.479Z</time>
      </trkpt>
      <trkpt lat="45.39807" lon="2.48213">
        <ele>792</ele>
        <time>2025-06-08T08:00:22.479Z</time>
      </trkpt>
      <trkpt lat="45.39807" lon="2.48213">
        <ele>792</ele>
        <time>2025-06-08T08:00:23.479Z</time>
      </trkpt>
      <trkpt lat="45.39806" lon="2.48213">
        <ele>791</ele>
        <time>2025-06-08T08:00:24.479Z</time>
      </trkpt>
      <trkpt lat="45.39806" lon="2.48213">
        <ele>791</ele>
        <time>2025-06-08T08:00:25.479Z</time>
      </trkpt>
      <trkpt lat="45.39806" lon="2.48213">
        <ele>790</ele>
        <time>2025-06-08T08:00:26.479Z</time>
      </trkpt>
      <trkpt lat="45.39807" lon="2.48213">
        <ele>790</ele>
        <time>2025-06-08T08:00:27.479Z</time>
      </trkpt>
      <trkpt lat="45.39805" lon="2.48213">
        <ele>789</ele>
        <time>2025-06-08T08:00:28.479Z</time>
      </trkpt>
      <trkpt lat="45.39805" lon="2.48213">
        <ele>789</ele>
        <time>2025-06-08T08:00:29.479Z</time>
      </trkpt>
      <trkpt lat="45.39805" lon="2.48213">
        <ele>789</ele>
        <time>2025-06-08T08:00:30.479Z</time>
      </trkpt>
      <trkpt lat="45.39804" lon="2.48213">
        <ele>790</ele>
        <time>2025-06-08T08:00:31.479Z</time>
      </trkpt>
      <trkpt lat="45.39804" lon="2.48213">
        <ele>790</ele>
        <time>2025-06-08T08:00:32.479Z</time>
      </trkpt>
      <trkpt lat="45.39804" lon="2.48213">
        <ele>790</ele>
        <time>2025-06-08T08:00:33.479Z</time>
      </trkpt>
      <trkpt lat="45.39804" lon="2.48214">
        <ele>790</ele>
        <time>2025-06-08T08:00:34.479Z</time>
      </trkpt>
      <trkpt lat="45.39805" lon="2.48214">
        <ele>791</ele>
        <time>2025-06-08T08:00:35.479Z</time>
      </trkpt>
      <trkpt lat="45.39805" lon="2.48214">
        <ele>791</ele>
        <time>2025-06-08T08:00:36.479Z</time>
      </trkpt>
      <trkpt lat="45.39804" lon="2.48214">
        <ele>791</ele>
        <time>2025-06-08T08:00:37.479Z</time>
      </trkpt>
      <trkpt lat="45.39805" lon="2.48214">
        <ele>792</ele>
        <time>2025-06-08T08:00:38.479Z</time>
      </trkpt>
      <trkpt lat="45.39805" lon="2.48214">
        <ele>792</ele>
        <time>2025-06-08T08:00:39.479Z</time>
      </trkpt>
      <trkpt lat="45.39806" lon="2.48214">
        <ele>793</ele>
        <time>2025-06-08T08:00:40.479Z</time>
      </trkpt>
      <trkpt lat="45.39806" lon="2.48215">
        <ele>793</ele>
        <time>2025-06-08T08:00:41.479Z</time>
      </trkpt>
      <trkpt lat="45.39806" lon="2.48214">
        <ele>794</ele>
        <time>2025-06-08T08:00:42.479Z</time>
      </trkpt>
      <trkpt lat="45.39806" lon="2.48214">
        <ele>795</ele>
        <time>2025-06-08T08:00:43.479Z</time>
      </trkpt>
      <trkpt lat="45.39805" lon="2.48214">
        <ele>795</ele>
        <time>2025-06-08T08:00:44.479Z</time>
      </trkpt>
      <trkpt lat="45.39805" lon="2.48213">
        <ele>796</ele>
        <time>2025-06-08T08:00:45.479Z</time>
      </trkpt>
      <trkpt lat="45.39804" lon="2.48211">
        <ele>797</ele>
        <time>2025-06-08T08:00:46.479Z</time>
      </trkpt>
      <trkpt lat="45.39804" lon="2.48211">
        <ele>798</ele>
        <time>2025-06-08T08:00:47.479Z</time>
      </trkpt>
      <trkpt lat="45.39804" lon="2.48211">
        <ele>799</ele>
        <time>2025-06-08T08:00:48.479Z</time>
      </trkpt>
      <trkpt lat="45.39804" lon="2.48211">
        <ele>801</ele>
        <time>2025-06-08T08:00:49.479Z</time>
      </trkpt>
      <trkpt lat="45.39804" lon="2.48211">
        <ele>802</ele>
        <time>2025-06-08T08:00:50.479Z</time>
      </trkpt>
      <trkpt lat="45.39804" lon="2.48211">
        <ele>803</ele>
        <time>2025-06-08T08:00:51.479Z</time>
      </trkpt>
      <trkpt lat="45.39804" lon="2.48211">
        <ele>804</ele>
        <time>2025-06-08T08:00:52.479Z</time>
      </trkpt>
      <trkpt lat="45.39804" lon="2.48211">
        <ele>804</ele>
        <time>2025-06-08T08:00:53.479Z</time>
      </trkpt>
      <trkpt lat="45.39804" lon="2.48211">
        <ele>804</ele>
        <time>2025-06-08T08:00:54.479Z</time>
      </trkpt>
      <trkpt lat="45.39804" lon="2.48211">
        <ele>805</ele>
        <time>2025-06-08T08:00:55.479Z</time>
      </trkpt>
      <trkpt lat="45.39804" lon="2.48211">
        <ele>805</ele>
        <time>2025-06-08T08:00:56.479Z</time>
      </trkpt>
      <trkpt lat="45.39804" lon="2.48211">
        <ele>805</ele>
        <time>2025-06-08T08:00:57.479Z</time>
      </trkpt>
      <trkpt lat="45.39804" lon="2.48211">
        <ele>805</ele>
        <time>2025-06-08T08:00:58.479Z</time>
      </trkpt>
      <trkpt lat="45.39804" lon="2.48211">
        <ele>805</ele>
        <time>2025-06-08T08:00:59.479Z</time>
      </trkpt>
      <trkpt lat="45.39804" lon="2.48211">
        <ele>805</ele>
        <time>2025-06-08T08:01:00.479Z</time>
      </trkpt>
      <trkpt lat="45.39804" lon="2.48211">
        <ele>805</ele>
        <time>2025-06-08T08:01:01.479Z</time>
      </trkpt>
      <trkpt lat="45.39804" lon="2.48211">
        <ele>805</ele>
        <time>2025-06-08T08:01:02.479Z</time>
      </trkpt>
      <trkpt lat="45.39804" lon="2.48211">
        <ele>805</ele>
        <time>2025-06-08T08:01:03.479Z</time>
      </trkpt>
      <trkpt lat="45.39804" lon="2.48211">
        <ele>805</ele>
        <time>2025-06-08T08:01:04.479Z</time>
      </trkpt>
      <trkpt lat="45.39804" lon="2.48211">
        <ele>805</ele>
        <time>2025-06-08T08:01:05.479Z</time>
      </trkpt>
      <trkpt lat="45.39804" lon="2.48211">
        <ele>804</ele>
        <time>2025-06-08T08:01:06.479Z</time>
      </trkpt>
      <trkpt lat="45.39804" lon="2.48211">
        <ele>804</ele>
        <time>2025-06-08T08:01:07.479Z</time>
      </trkpt>
      <trkpt lat="45.39805" lon="2.4821">
        <ele>804</ele>
        <time>2025-06-08T08:01:08.479Z</time>
      </trkpt>
      <trkpt lat="45.39806" lon="2.4821">
        <ele>803</ele>
        <time>2025-06-08T08:01:09.479Z</time>
      </trkpt>
      <trkpt lat="45.39807" lon="2.4821">
        <ele>803</ele>
        <time>2025-06-08T08:01:10.479Z</time>
      </trkpt>
      <trkpt lat="45.39808" lon="2.48209">
        <ele>803</ele>
        <time>2025-06-08T08:01:11.479Z</time>
      </trkpt>
      <trkpt lat="45.39809" lon="2.48207">
        <ele>802</ele>
        <time>2025-06-08T08:01:12.479Z</time>
      </trkpt>
      <trkpt lat="45.39809" lon="2.48206">
        <ele>802</ele>
        <time>2025-06-08T08:01:13.479Z</time>
      </trkpt>
      <trkpt lat="45.3981" lon="2.48206">
        <ele>802</ele>
        <time>2025-06-08T08:01:14.479Z</time>
      </trkpt>
      <trkpt lat="45.3981" lon="2.48205">
        <ele>801</ele>
        <time>2025-06-08T08:01:15.479Z</time>
      </trkpt>
      <trkpt lat="45.39811" lon="2.48204">
        <ele>801</ele>
        <time>2025-06-08T08:01:16.479Z</time>
      </trkpt>
      <trkpt lat="45.39812" lon="2.48203">
        <ele>800</ele>
        <time>2025-06-08T08:01:17.479Z</time>
      </trkpt>
      <trkpt lat="45.39813" lon="2.48202">
        <ele>800</ele>
        <time>2025-06-08T08:01:18.479Z</time>
      </trkpt>
      <trkpt lat="45.39814" lon="2.48201">
        <ele>799</ele>
        <time>2025-06-08T08:01:19.479Z</time>
      </trkpt>
      <trkpt lat="45.39815" lon="2.48201">
        <ele>799</ele>
        <time>2025-06-08T08:01:20.479Z</time>
      </trkpt>
      <trkpt lat="45.39816" lon="2.482">
        <ele>799</ele>
        <time>2025-06-08T08:01:21.479Z</time>
      </trkpt>
      <trkpt lat="45.39817" lon="2.48199">
        <ele>798</ele>
        <time>2025-06-08T08:01:22.479Z</time>
      </trkpt>
      <trkpt lat="45.39817" lon="2.48198">
        <ele>798</ele>
        <time>2025-06-08T08:01:23.479Z</time>
      </trkpt>
      <trkpt lat="45.39818" lon="2.48197">
        <ele>798</ele>
        <time>2025-06-08T08:01:24.479Z</time>
      </trkpt>
      <trkpt lat="45.39819" lon="2.48196">
        <ele>798</ele>
        <time>2025-06-08T08:01:25.479Z</time>
      </trkpt>
      <trkpt lat="45.3982" lon="2.48195">
        <ele>798</ele>
        <time>2025-06-08T08:01:26.479Z</time>
      </trkpt>
      <trkpt lat="45.39821" lon="2.48194">
        <ele>798</ele>
        <time>2025-06-08T08:01:27.479Z</time>
      </trkpt>
      <trkpt lat="45.39822" lon="2.48194">
        <ele>797</ele>
        <time>2025-06-08T08:01:28.479Z</time>
      </trkpt>
      <trkpt lat="45.39824" lon="2.48194">
        <ele>797</ele>
        <time>2025-06-08T08:01:29.479Z</time>
      </trkpt>
      <trkpt lat="45.39826" lon="2.48194">
        <ele>797</ele>
        <time>2025-06-08T08:01:30.479Z</time>
      </trkpt>
      <trkpt lat="45.39828" lon="2.48194">
        <ele>797</ele>
        <time>2025-06-08T08:01:31.479Z</time>
      </trkpt>
      <trkpt lat="45.39829" lon="2.48194">
        <ele>796</ele>
        <time>2025-06-08T08:01:32.479Z</time>
      </trkpt>
      <trkpt lat="45.39829" lon="2.48193">
        <ele>796</ele>
        <time>2025-06-08T08:01:33.479Z</time>
      </trkpt>
      <trkpt lat="45.3983" lon="2.48192">
        <ele>796</ele>
        <time>2025-06-08T08:01:34.479Z</time>
      </trkpt>
      <trkpt lat="45.3983" lon="2.48191">
        <ele>796</ele>
        <time>2025-06-08T08:01:35.479Z</time>
      </trkpt>
      <trkpt lat="45.39832" lon="2.48191">
        <ele>796</ele>
        <time>2025-06-08T08:01:36.479Z</time>
      </trkpt>
      <trkpt lat="45.39833" lon="2.4819">
        <ele>796</ele>
        <time>2025-06-08T08:01:37.479Z</time>
      </trkpt>
      <trkpt lat="45.39834" lon="2.48189">
        <ele>796</ele>
        <time>2025-06-08T08:01:38.479Z</time>
      </trkpt>
      <trkpt lat="45.39835" lon="2.48188">
        <ele>796</ele>
        <time>2025-06-08T08:01:39.479Z</time>
      </trkpt>
      <trkpt lat="45.39836" lon="2.48187">
        <ele>795</ele>
        <time>2025-06-08T08:01:40.479Z</time>
      </trkpt>
      <trkpt lat="45.39836" lon="2.48186">
        <ele>794</ele>
        <time>2025-06-08T08:01:41.479Z</time>
      </trkpt>
      <trkpt lat="45.39835" lon="2.48185">
        <ele>794</ele>
        <time>2025-06-08T08:01:42.479Z</time>
      </trkpt>
      <trkpt lat="45.39836" lon="2.48183">
        <ele>793</ele>
        <time>2025-06-08T08:01:43.479Z</time>
      </trkpt>
      <trkpt lat="45.39837" lon="2.48181">
        <ele>792</ele>
        <time>2025-06-08T08:01:44.479Z</time>
      </trkpt>
      <trkpt lat="45.39837" lon="2.48179">
        <ele>792</ele>
        <time>2025-06-08T08:01:45.479Z</time>
      </trkpt>
      <trkpt lat="45.39837" lon="2.48178">
        <ele>791</ele>
        <time>2025-06-08T08:01:46.479Z</time>
      </trkpt>
      <trkpt lat="45.39838" lon="2.48177">
        <ele>790</ele>
        <time>2025-06-08T08:01:47.479Z</time>
      </trkpt>
      <trkpt lat="45.39839" lon="2.48175">
        <ele>790</ele>
        <time>2025-06-08T08:01:48.479Z</time>
      </trkpt>
      <trkpt lat="45.3984" lon="2.48174">
        <ele>789</ele>
        <time>2025-06-08T08:01:49.479Z</time>
      </trkpt>
      <trkpt lat="45.3984" lon="2.48173">
        <ele>789</ele>
        <time>2025-06-08T08:01:50.479Z</time>
      </trkpt>
      <trkpt lat="45.39841" lon="2.48172">
        <ele>789</ele>
        <time>2025-06-08T08:01:51.479Z</time>
      </trkpt>
      <trkpt lat="45.39842" lon="2.48169">
        <ele>788</ele>
        <time>2025-06-08T08:01:52.479Z</time>
      </trkpt>
      <trkpt lat="45.39843" lon="2.48168">
        <ele>788</ele>
        <time>2025-06-08T08:01:53.479Z</time>
      </trkpt>
      <trkpt lat="45.39845" lon="2.48167">
        <ele>788</ele>
        <time>2025-06-08T08:01:54.479Z</time>
      </trkpt>
      <trkpt lat="45.39845" lon="2.48165">
        <ele>788</ele>
        <time>2025-06-08T08:01:55.479Z</time>
      </trkpt>
      <trkpt lat="45.39846" lon="2.48161">
        <ele>789</ele>
        <time>2025-06-08T08:01:56.479Z</time>
      </trkpt>
      <trkpt lat="45.39846" lon="2.48158">
        <ele>789</ele>
        <time>2025-06-08T08:01:57.479Z</time>
      </trkpt>
      <trkpt lat="45.39845" lon="2.48155">
        <ele>789</ele>
        <time>2025-06-08T08:01:58.479Z</time>
      </trkpt>
      <trkpt lat="45.39846" lon="2.48152">
        <ele>790</ele>
        <time>2025-06-08T08:01:59.479Z</time>
      </trkpt>
      <trkpt lat="45.39846" lon="2.4815">
        <ele>790</ele>
        <time>2025-06-08T08:02:00.479Z</time>
      </trkpt>
      <trkpt lat="45.39846" lon="2.48149">
        <ele>790</ele>
        <time>2025-06-08T08:02:01.479Z</time>
      </trkpt>
      <trkpt lat="45.39847" lon="2.48148">
        <ele>791</ele>
        <time>2025-06-08T08:02:02.479Z</time>
      </trkpt>
      <trkpt lat="45.39847" lon="2.48146">
        <ele>791</ele>
        <time>2025-06-08T08:02:03.479Z</time>
      </trkpt>
      <trkpt lat="45.39847" lon="2.48144">
        <ele>791</ele>
        <time>2025-06-08T08:02:04.479Z</time>
      </trkpt>
      <trkpt lat="45.39849" lon="2.48143">
        <ele>792</ele>
        <time>2025-06-08T08:02:05.479Z</time>
      </trkpt>
      <trkpt lat="45.3985" lon="2.48142">
        <ele>792</ele>
        <time>2025-06-08T08:02:06.479Z</time>
      </trkpt>
      <trkpt lat="45.39851" lon="2.48141">
        <ele>793</ele>
        <time>2025-06-08T08:02:07.479Z</time>
      </trkpt>
      <trkpt lat="45.39851" lon="2.48139">
        <ele>794</ele>
        <time>2025-06-08T08:02:08.479Z</time>
      </trkpt>
      <trkpt lat="45.39852" lon="2.48137">
        <ele>795</ele>
        <time>2025-06-08T08:02:09.479Z</time>
      </trkpt>
      <trkpt lat="45.39852" lon="2.48136">
        <ele>796</ele>
        <time>2025-06-08T08:02:10.479Z</time>
      </trkpt>
      <trkpt lat="45.39853" lon="2.48135">
        <ele>796</ele>
        <time>2025-06-08T08:02:11.479Z</time>
      </trkpt>
      <trkpt lat="45.39855" lon="2.48137">
        <ele>797</ele>
        <time>2025-06-08T08:02:12.479Z</time>
      </trkpt>
      <trkpt lat="45.39857" lon="2.48138">
        <ele>797</ele>
        <time>2025-06-08T08:02:13.479Z</time>
      </trkpt>
      <trkpt lat="45.3986" lon="2.48139">
        <ele>797</ele>
        <time>2025-06-08T08:02:14.479Z</time>
      </trkpt>
      <trkpt lat="45.39861" lon="2.4814">
        <ele>797</ele>
        <time>2025-06-08T08:02:15.479Z</time>
      </trkpt>
      <trkpt lat="45.39862" lon="2.4814">
        <ele>797</ele>
        <time>2025-06-08T08:02:16.479Z</time>
      </trkpt>
      <trkpt lat="45.39862" lon="2.4814">
        <ele>797</ele>
        <time>2025-06-08T08:02:17.479Z</time>
      </trkpt>
      <trkpt lat="45.39864" lon="2.48139">
        <ele>797</ele>
        <time>2025-06-08T08:02:18.479Z</time>
      </trkpt>
      <trkpt lat="45.39864" lon="2.48138">
        <ele>797</ele>
        <time>2025-06-08T08:02:19.479Z</time>
      </trkpt>
      <trkpt lat="45.39866" lon="2.48138">
        <ele>797</ele>
        <time>2025-06-08T08:02:20.479Z</time>
      </trkpt>
      <trkpt lat="45.39867" lon="2.48137">
        <ele>797</ele>
        <time>2025-06-08T08:02:21.479Z</time>
      </trkpt>
      <trkpt lat="45.39869" lon="2.48137">
        <ele>796</ele>
        <time>2025-06-08T08:02:22.479Z</time>
      </trkpt>
      <trkpt lat="45.3987" lon="2.48137">
        <ele>796</ele>
        <time>2025-06-08T08:02:23.479Z</time>
      </trkpt>
      <trkpt lat="45.39871" lon="2.48137">
        <ele>795</ele>
        <time>2025-06-08T08:02:24.479Z</time>
      </trkpt>
      <trkpt lat="45.39872" lon="2.48138">
        <ele>795</ele>
        <time>2025-06-08T08:02:25.479Z</time>
      </trkpt>
      <trkpt lat="45.39874" lon="2.48138">
        <ele>794</ele>
        <time>2025-06-08T08:02:26.479Z</time>
      </trkpt>
      <trkpt lat="45.39875" lon="2.48139">
        <ele>794</ele>
        <time>2025-06-08T08:02:27.479Z</time>
      </trkpt>
      <trkpt lat="45.39877" lon="2.4814">
        <ele>793</ele>
        <time>2025-06-08T08:02:28.479Z</time>
      </trkpt>
      <trkpt lat="45.39878" lon="2.4814">
        <ele>792</ele>
        <time>2025-06-08T08:02:29.479Z</time>
      </trkpt>
      <trkpt lat="45.3988" lon="2.4814">
        <ele>792</ele>
        <time>2025-06-08T08:02:30.479Z</time>
      </trkpt>
      <trkpt lat="45.39881" lon="2.4814">
        <ele>792</ele>
        <time>2025-06-08T08:02:31.479Z</time>
      </trkpt>
      <trkpt lat="45.39881" lon="2.4814">
        <ele>791</ele>
        <time>2025-06-08T08:02:32.479Z</time>
      </trkpt>
      <trkpt lat="45.39882" lon="2.4814">
        <ele>791</ele>
        <time>2025-06-08T08:02:33.479Z</time>
      </trkpt>
      <trkpt lat="45.39883" lon="2.4814">
        <ele>791</ele>
        <time>2025-06-08T08:02:34.479Z</time>
      </trkpt>
      <trkpt lat="45.39884" lon="2.48139">
        <ele>791</ele>
        <time>2025-06-08T08:02:35.479Z</time>
      </trkpt>
      <trkpt lat="45.39884" lon="2.48138">
        <ele>791</ele>
        <time>2025-06-08T08:02:36.479Z</time>
      </trkpt>
      <trkpt lat="45.39885" lon="2.48138">
        <ele>791</ele>
        <time>2025-06-08T08:02:37.479Z</time>
      </trkpt>
      <trkpt lat="45.39886" lon="2.48138">
        <ele>790</ele>
        <time>2025-06-08T08:02:38.479Z</time>
      </trkpt>
      <trkpt lat="45.39887" lon="2.48138">
        <ele>790</ele>
        <time>2025-06-08T08:02:39.479Z</time>
      </trkpt>
      <trkpt lat="45.39889" lon="2.48139">
        <ele>790</ele>
        <time>2025-06-08T08:02:40.479Z</time>
      </trkpt>
      <trkpt lat="45.39891" lon="2.48139">
        <ele>790</ele>
        <time>2025-06-08T08:02:41.479Z</time>
      </trkpt>
      <trkpt lat="45.39892" lon="2.4814">
        <ele>790</ele>
        <time>2025-06-08T08:02:42.479Z</time>
      </trkpt>
      <trkpt lat="45.39894" lon="2.4814">
        <ele>791</ele>
        <time>2025-06-08T08:02:43.479Z</time>
      </trkpt>
      <trkpt lat="45.39895" lon="2.48139">
        <ele>791</ele>
        <time>2025-06-08T08:02:44.479Z</time>
      </trkpt>
      <trkpt lat="45.39895" lon="2.48139">
        <ele>791</ele>
        <time>2025-06-08T08:02:45.479Z</time>
      </trkpt>
      <trkpt lat="45.39896" lon="2.48139">
        <ele>791</ele>
        <time>2025-06-08T08:02:46.479Z</time>
      </trkpt>
      <trkpt lat="45.39897" lon="2.48139">
        <ele>791</ele>
        <time>2025-06-08T08:02:47.479Z</time>
      </trkpt>
      <trkpt lat="45.39899" lon="2.48139">
        <ele>791</ele>
        <time>2025-06-08T08:02:48.479Z</time>
      </trkpt>
      <trkpt lat="45.399" lon="2.48139">
        <ele>791</ele>
        <time>2025-06-08T08:02:49.479Z</time>
      </trkpt>
      <trkpt lat="45.39901" lon="2.48139">
        <ele>791</ele>
        <time>2025-06-08T08:02:50.479Z</time>
      </trkpt>
      <trkpt lat="45.39902" lon="2.48139">
        <ele>791</ele>
        <time>2025-06-08T08:02:51.479Z</time>
      </trkpt>
      <trkpt lat="45.39903" lon="2.48138">
        <ele>791</ele>
        <time>2025-06-08T08:02:52.479Z</time>
      </trkpt>
      <trkpt lat="45.39904" lon="2.48138">
        <ele>791</ele>
        <time>2025-06-08T08:02:53.479Z</time>
      </trkpt>
      <trkpt lat="45.39904" lon="2.48137">
        <ele>791</ele>
        <time>2025-06-08T08:02:54.479Z</time>
      </trkpt>
      <trkpt lat="45.39905" lon="2.48136">
        <ele>791</ele>
        <time>2025-06-08T08:02:55.479Z</time>
      </trkpt>
      <trkpt lat="45.39906" lon="2.48135">
        <ele>791</ele>
        <time>2025-06-08T08:02:56.479Z</time>
      </trkpt>
      <trkpt lat="45.39906" lon="2.48133">
        <ele>791</ele>
        <time>2025-06-08T08:02:57.479Z</time>
      </trkpt>
      <trkpt lat="45.39907" lon="2.48132">
        <ele>790</ele>
        <time>2025-06-08T08:02:58.479Z</time>
      </trkpt>
      <trkpt lat="45.39908" lon="2.48131">
        <ele>790</ele>
        <time>2025-06-08T08:02:59.479Z</time>
      </trkpt>
      <trkpt lat="45.39908" lon="2.48131">
        <ele>790</ele>
        <time>2025-06-08T08:03:00.479Z</time>
      </trkpt>
      <trkpt lat="45.3991" lon="2.48131">
        <ele>790</ele>
        <time>2025-06-08T08:03:01.479Z</time>
      </trkpt>
      <trkpt lat="45.39911" lon="2.48131">
        <ele>789</ele>
        <time>2025-06-08T08:03:02.479Z</time>
      </trkpt>
      <trkpt lat="45.39912" lon="2.48131">
        <ele>789</ele>
        <time>2025-06-08T08:03:03.479Z</time>
      </trkpt>
      <trkpt lat="45.39914" lon="2.48131">
        <ele>789</ele>
        <time>2025-06-08T08:03:04.479Z</time>
      </trkpt>
      <trkpt lat="45.39915" lon="2.48131">
        <ele>789</ele>
        <time>2025-06-08T08:03:05.479Z</time>
      </trkpt>
      <trkpt lat="45.39916" lon="2.48131">
        <ele>788</ele>
        <time>2025-06-08T08:03:06.479Z</time>
      </trkpt>
      <trkpt lat="45.39917" lon="2.48131">
        <ele>788</ele>
        <time>2025-06-08T08:03:07.479Z</time>
      </trkpt>
      <trkpt lat="45.39918" lon="2.4813">
        <ele>788</ele>
        <time>2025-06-08T08:03:08.479Z</time>
      </trkpt>
      <trkpt lat="45.3992" lon="2.48131">
        <ele>788</ele>
        <time>2025-06-08T08:03:09.479Z</time>
      </trkpt>
      <trkpt lat="45.39921" lon="2.48131">
        <ele>788</ele>
        <time>2025-06-08T08:03:10.479Z</time>
      </trkpt>
      <trkpt lat="45.39922" lon="2.4813">
        <ele>788</ele>
        <time>2025-06-08T08:03:11.479Z</time>
      </trkpt>
      <trkpt lat="45.39923" lon="2.4813">
        <ele>788</ele>
        <time>2025-06-08T08:03:12.479Z</time>
      </trkpt>
      <trkpt lat="45.39924" lon="2.4813">
        <ele>788</ele>
        <time>2025-06-08T08:03:13.479Z</time>
      </trkpt>
      <trkpt lat="45.39925" lon="2.4813">
        <ele>788</ele>
        <time>2025-06-08T08:03:14.479Z</time>
      </trkpt>
      <trkpt lat="45.39926" lon="2.48129">
        <ele>788</ele>
        <time>2025-06-08T08:03:15.479Z</time>
      </trkpt>
      <trkpt lat="45.39926" lon="2.48129">
        <ele>788</ele>
        <time>2025-06-08T08:03:16.479Z</time>
      </trkpt>
      <trkpt lat="45.39928" lon="2.48129">
        <ele>788</ele>
        <time>2025-06-08T08:03:17.479Z</time>
      </trkpt>
      <trkpt lat="45.39929" lon="2.48129">
        <ele>788</ele>
        <time>2025-06-08T08:03:18.479Z</time>
      </trkpt>
      <trkpt lat="45.39931" lon="2.48128">
        <ele>788</ele>
        <time>2025-06-08T08:03:19.479Z</time>
      </trkpt>
      <trkpt lat="45.39932" lon="2.48127">
        <ele>788</ele>
        <time>2025-06-08T08:03:20.479Z</time>
      </trkpt>
      <trkpt lat="45.39933" lon="2.48126">
        <ele>788</ele>
        <time>2025-06-08T08:03:21.479Z</time>
      </trkpt>
      <trkpt lat="45.39934" lon="2.48125">
        <ele>789</ele>
        <time>2025-06-08T08:03:22.479Z</time>
      </trkpt>
      <trkpt lat="45.39935" lon="2.48124">
        <ele>789</ele>
        <time>2025-06-08T08:03:23.479Z</time>
      </trkpt>
      <trkpt lat="45.39936" lon="2.48123">
        <ele>789</ele>
        <time>2025-06-08T08:03:24.479Z</time>
      </trkpt>
      <trkpt lat="45.39938" lon="2.48123">
        <ele>790</ele>
        <time>2025-06-08T08:03:25.479Z</time>
      </trkpt>
      <trkpt lat="45.39939" lon="2.48122">
        <ele>790</ele>
        <time>2025-06-08T08:03:26.479Z</time>
      </trkpt>
      <trkpt lat="45.39941" lon="2.48121">
        <ele>790</ele>
        <time>2025-06-08T08:03:27.479Z</time>
      </trkpt>
      <trkpt lat="45.39943" lon="2.4812">
        <ele>790</ele>
        <time>2025-06-08T08:03:28.479Z</time>
      </trkpt>
      <trkpt lat="45.39944" lon="2.48119">
        <ele>790</ele>
        <time>2025-06-08T08:03:29.479Z</time>
      </trkpt>
      <trkpt lat="45.39945" lon="2.48118">
        <ele>789</ele>
        <time>2025-06-08T08:03:30.479Z</time>
      </trkpt>
      <trkpt lat="45.39946" lon="2.48117">
        <ele>789</ele>
        <time>2025-06-08T08:03:31.479Z</time>
      </trkpt>
      <trkpt lat="45.39946" lon="2.48116">
        <ele>789</ele>
        <time>2025-06-08T08:03:32.479Z</time>
      </trkpt>
      <trkpt lat="45.39947" lon="2.48116">
        <ele>788</ele>
        <time>2025-06-08T08:03:33.479Z</time>
      </trkpt>
      <trkpt lat="45.39948" lon="2.48115">
        <ele>788</ele>
        <time>2025-06-08T08:03:34.479Z</time>
      </trkpt>
      <trkpt lat="45.39949" lon="2.48115">
        <ele>787</ele>
        <time>2025-06-08T08:03:35.479Z</time>
      </trkpt>
      <trkpt lat="45.39951" lon="2.48115">
        <ele>788</ele>
        <time>2025-06-08T08:03:36.479Z</time>
      </trkpt>
      <trkpt lat="45.39951" lon="2.48114">
        <ele>788</ele>
        <time>2025-06-08T08:03:37.479Z</time>
      </trkpt>
      <trkpt lat="45.39952" lon="2.48114">
        <ele>788</ele>
        <time>2025-06-08T08:03:38.479Z</time>
      </trkpt>
      <trkpt lat="45.39953" lon="2.48114">
        <ele>788</ele>
        <time>2025-06-08T08:03:39.479Z</time>
      </trkpt>
      <trkpt lat="45.39954" lon="2.48114">
        <ele>788</ele>
        <time>2025-06-08T08:03:40.479Z</time>
      </trkpt>
      <trkpt lat="45.39955" lon="2.48114">
        <ele>788</ele>
        <time>2025-06-08T08:03:41.479Z</time>
      </trkpt>
      <trkpt lat="45.39957" lon="2.48114">
        <ele>787</ele>
        <time>2025-06-08T08:03:42.479Z</time>
      </trkpt>
      <trkpt lat="45.39958" lon="2.48114">
        <ele>787</ele>
        <time>2025-06-08T08:03:43.479Z</time>
      </trkpt>
      <trkpt lat="45.39959" lon="2.48115">
        <ele>787</ele>
        <time>2025-06-08T08:03:44.479Z</time>
      </trkpt>
      <trkpt lat="45.3996" lon="2.48115">
        <ele>787</ele>
        <time>2025-06-08T08:03:45.479Z</time>
      </trkpt>
      <trkpt lat="45.3996" lon="2.48115">
        <ele>787</ele>
        <time>2025-06-08T08:03:46.479Z</time>
      </trkpt>
      <trkpt lat="45.3996" lon="2.48115">
        <ele>787</ele>
        <time>2025-06-08T08:03:47.479Z</time>
      </trkpt>
      <trkpt lat="45.39961" lon="2.48115">
        <ele>787</ele>
        <time>2025-06-08T08:03:48.479Z</time>
      </trkpt>
      <trkpt lat="45.39962" lon="2.48114">
        <ele>787</ele>
        <time>2025-06-08T08:03:49.479Z</time>
      </trkpt>
      <trkpt lat="45.39963" lon="2.48114">
        <ele>787</ele>
        <time>2025-06-08T08:03:50.479Z</time>
      </trkpt>
      <trkpt lat="45.39964" lon="2.48114">
        <ele>788</ele>
        <time>2025-06-08T08:03:51.479Z</time>
      </trkpt>
      <trkpt lat="45.39965" lon="2.48114">
        <ele>788</ele>
        <time>2025-06-08T08:03:52.479Z</time>
      </trkpt>
      <trkpt lat="45.39966" lon="2.48114">
        <ele>788</ele>
        <time>2025-06-08T08:03:53.479Z</time>
      </trkpt>
      <trkpt lat="45.39968" lon="2.48115">
        <ele>788</ele>
        <time>2025-06-08T08:03:54.479Z</time>
      </trkpt>
      <trkpt lat="45.39969" lon="2.48115">
        <ele>789</ele>
        <time>2025-06-08T08:03:55.479Z</time>
      </trkpt>
      <trkpt lat="45.39971" lon="2.48116">
        <ele>789</ele>
        <time>2025-06-08T08:03:56.479Z</time>
      </trkpt>
      <trkpt lat="45.39972" lon="2.48116">
        <ele>789</ele>
        <time>2025-06-08T08:03:57.479Z</time>
      </trkpt>
      <trkpt lat="45.39974" lon="2.48117">
        <ele>789</ele>
        <time>2025-06-08T08:03:58.479Z</time>
      </trkpt>
      <trkpt lat="45.39975" lon="2.48118">
        <ele>789</ele>
        <time>2025-06-08T08:03:59.479Z</time>
      </trkpt>
      <trkpt lat="45.39976" lon="2.48118">
        <ele>789</ele>
        <time>2025-06-08T08:04:00.479Z</time>
      </trkpt>
      <trkpt lat="45.39977" lon="2.48119">
        <ele>788</ele>
        <time>2025-06-08T08:04:01.479Z</time>
      </trkpt>
      <trkpt lat="45.39978" lon="2.4812">
        <ele>789</ele>
        <time>2025-06-08T08:04:02.479Z</time>
      </trkpt>
      <trkpt lat="45.39979" lon="2.48121">
        <ele>789</ele>
        <time>2025-06-08T08:04:03.479Z</time>
      </trkpt>
      <trkpt lat="45.3998" lon="2.48123">
        <ele>789</ele>
        <time>2025-06-08T08:04:04.479Z</time>
      </trkpt>
      <trkpt lat="45.39982" lon="2.48124">
        <ele>789</ele>
        <time>2025-06-08T08:04:05.479Z</time>
      </trkpt>
      <trkpt lat="45.39984" lon="2.48125">
        <ele>789</ele>
        <time>2025-06-08T08:04:06.479Z</time>
      </trkpt>
      <trkpt lat="45.39985" lon="2.48126">
        <ele>788</ele>
        <time>2025-06-08T08:04:07.479Z</time>
      </trkpt>
      <trkpt lat="45.39986" lon="2.48128">
        <ele>788</ele>
        <time>2025-06-08T08:04:08.479Z</time>
      </trkpt>
      <trkpt lat="45.39987" lon="2.48129">
        <ele>788</ele>
        <time>2025-06-08T08:04:09.479Z</time>
      </trkpt>
      <trkpt lat="45.39987" lon="2.4813">
        <ele>788</ele>
        <time>2025-06-08T08:04:10.479Z</time>
      </trkpt>
      <trkpt lat="45.39987" lon="2.48131">
        <ele>787</ele>
        <time>2025-06-08T08:04:11.479Z</time>
      </trkpt>
      <trkpt lat="45.39987" lon="2.48132">
        <ele>787</ele>
        <time>2025-06-08T08:04:12.479Z</time>
      </trkpt>
      <trkpt lat="45.39988" lon="2.48133">
        <ele>787</ele>
        <time>2025-06-08T08:04:13.479Z</time>
      </trkpt>
      <trkpt lat="45.39988" lon="2.48134">
        <ele>787</ele>
        <time>2025-06-08T08:04:14.479Z</time>
      </trkpt>
      <trkpt lat="45.39989" lon="2.48135">
        <ele>787</ele>
        <time>2025-06-08T08:04:15.479Z</time>
      </trkpt>
      <trkpt lat="45.3999" lon="2.48136">
        <ele>787</ele>
        <time>2025-06-08T08:04:16.479Z</time>
      </trkpt>
      <trkpt lat="45.39991" lon="2.48137">
        <ele>787</ele>
        <time>2025-06-08T08:04:17.479Z</time>
      </trkpt>
      <trkpt lat="45.39992" lon="2.48138">
        <ele>787</ele>
        <time>2025-06-08T08:04:18.479Z</time>
      </trkpt>
      <trkpt lat="45.39993" lon="2.48139">
        <ele>787</ele>
        <time>2025-06-08T08:04:19.479Z</time>
      </trkpt>
      <trkpt lat="45.39994" lon="2.4814">
        <ele>787</ele>
        <time>2025-06-08T08:04:20.479Z</time>
      </trkpt>
      <trkpt lat="45.39995" lon="2.48141">
        <ele>787</ele>
        <time>2025-06-08T08:04:21.479Z</time>
      </trkpt>
      <trkpt lat="45.39997" lon="2.48141">
        <ele>787</ele>
        <time>2025-06-08T08:04:22.479Z</time>
      </trkpt>
      <trkpt lat="45.39998" lon="2.48143">
        <ele>787</ele>
        <time>2025-06-08T08:04:23.479Z</time>
      </trkpt>
      <trkpt lat="45.39999" lon="2.48145">
        <ele>787</ele>
        <time>2025-06-08T08:04:24.479Z</time>
      </trkpt>
      <trkpt lat="45.40001" lon="2.48147">
        <ele>787</ele>
        <time>2025-06-08T08:04:25.479Z</time>
      </trkpt>
      <trkpt lat="45.40002" lon="2.48148">
        <ele>787</ele>
        <time>2025-06-08T08:04:26.479Z</time>
      </trkpt>
      <trkpt lat="45.40003" lon="2.48149">
        <ele>786</ele>
        <time>2025-06-08T08:04:27.479Z</time>
      </trkpt>
      <trkpt lat="45.40005" lon="2.48152">
        <ele>786</ele>
        <time>2025-06-08T08:04:28.479Z</time>
      </trkpt>
      <trkpt lat="45.40005" lon="2.48152">
        <ele>786</ele>
        <time>2025-06-08T08:04:29.479Z</time>
      </trkpt>
      <trkpt lat="45.40005" lon="2.48153">
        <ele>785</ele>
        <time>2025-06-08T08:04:30.479Z</time>
      </trkpt>
      <trkpt lat="45.40005" lon="2.48154">
        <ele>785</ele>
        <time>2025-06-08T08:04:31.479Z</time>
      </trkpt>
      <trkpt lat="45.40007" lon="2.48155">
        <ele>785</ele>
        <time>2025-06-08T08:04:32.479Z</time>
      </trkpt>
      <trkpt lat="45.40007" lon="2.48157">
        <ele>785</ele>
        <time>2025-06-08T08:04:33.479Z</time>
      </trkpt>
      <trkpt lat="45.40007" lon="2.48157">
        <ele>785</ele>
        <time>2025-06-08T08:04:34.479Z</time>
      </trkpt>
      <trkpt lat="45.40008" lon="2.48158">
        <ele>785</ele>
        <time>2025-06-08T08:04:35.479Z</time>
      </trkpt>
      <trkpt lat="45.40008" lon="2.48159">
        <ele>784</ele>
        <time>2025-06-08T08:04:36.479Z</time>
      </trkpt>
      <trkpt lat="45.40009" lon="2.4816">
        <ele>784</ele>
        <time>2025-06-08T08:04:37.479Z</time>
      </trkpt>
      <trkpt lat="45.4001" lon="2.48161">
        <ele>784</ele>
        <time>2025-06-08T08:04:38.479Z</time>
      </trkpt>
      <trkpt lat="45.40011" lon="2.48162">
        <ele>784</ele>
        <time>2025-06-08T08:04:39.479Z</time>
      </trkpt>
      <trkpt lat="45.40012" lon="2.48163">
        <ele>783</ele>
        <time>2025-06-08T08:04:40.479Z</time>
      </trkpt>
      <trkpt lat="45.40012" lon="2.48163">
        <ele>783</ele>
        <time>2025-06-08T08:04:41.479Z</time>
      </trkpt>
      <trkpt lat="45.40013" lon="2.48164">
        <ele>783</ele>
        <time>2025-06-08T08:04:42.479Z</time>
      </trkpt>
      <trkpt lat="45.40014" lon="2.48164">
        <ele>783</ele>
        <time>2025-06-08T08:04:43.479Z</time>
      </trkpt>
      <trkpt lat="45.40015" lon="2.48165">
        <ele>783</ele>
        <time>2025-06-08T08:04:44.479Z</time>
      </trkpt>
      <trkpt lat="45.40016" lon="2.48166">
        <ele>783</ele>
        <time>2025-06-08T08:04:45.479Z</time>
      </trkpt>
      <trkpt lat="45.40016" lon="2.48167">
        <ele>783</ele>
        <time>2025-06-08T08:04:46.479Z</time>
      </trkpt>
      <trkpt lat="45.40017" lon="2.48168">
        <ele>782</ele>
        <time>2025-06-08T08:04:47.479Z</time>
      </trkpt>
      <trkpt lat="45.40019" lon="2.48169">
        <ele>782</ele>
        <time>2025-06-08T08:04:48.479Z</time>
      </trkpt>
      <trkpt lat="45.4002" lon="2.48169">
        <ele>782</ele>
        <time>2025-06-08T08:04:49.479Z</time>
      </trkpt>
      <trkpt lat="45.40021" lon="2.4817">
        <ele>782</ele>
        <time>2025-06-08T08:04:50.479Z</time>
      </trkpt>
      <trkpt lat="45.40022" lon="2.48171">
        <ele>782</ele>
        <time>2025-06-08T08:04:51.479Z</time>
      </trkpt>
      <trkpt lat="45.40024" lon="2.48172">
        <ele>782</ele>
        <time>2025-06-08T08:04:52.479Z</time>
      </trkpt>
      <trkpt lat="45.40025" lon="2.48174">
        <ele>783</ele>
        <time>2025-06-08T08:04:53.479Z</time>
      </trkpt>
      <trkpt lat="45.40026" lon="2.48175">
        <ele>783</ele>
        <time>2025-06-08T08:04:54.479Z</time>
      </trkpt>
      <trkpt lat="45.40028" lon="2.48176">
        <ele>783</ele>
        <time>2025-06-08T08:04:55.479Z</time>
      </trkpt>
      <trkpt lat="45.40029" lon="2.48176">
        <ele>783</ele>
        <time>2025-06-08T08:04:56.479Z</time>
      </trkpt>
      <trkpt lat="45.40029" lon="2.48177">
        <ele>783</ele>
        <time>2025-06-08T08:04:57.479Z</time>
      </trkpt>
      <trkpt lat="45.40029" lon="2.48178">
        <ele>783</ele>
        <time>2025-06-08T08:04:58.479Z</time>
      </trkpt>
      <trkpt lat="45.4003" lon="2.48179">
        <ele>783</ele>
        <time>2025-06-08T08:04:59.479Z</time>
      </trkpt>
      <trkpt lat="45.40031" lon="2.4818">
        <ele>783</ele>
        <time>2025-06-08T08:05:00.479Z</time>
      </trkpt>
      <trkpt lat="45.40033" lon="2.48181">
        <ele>783</ele>
        <time>2025-06-08T08:05:01.479Z</time>
      </trkpt>
      <trkpt lat="45.40034" lon="2.48182">
        <ele>784</ele>
        <time>2025-06-08T08:05:02.479Z</time>
      </trkpt>
      <trkpt lat="45.40035" lon="2.48184">
        <ele>784</ele>
        <time>2025-06-08T08:05:03.479Z</time>
      </trkpt>
      <trkpt lat="45.40036" lon="2.48185">
        <ele>784</ele>
        <time>2025-06-08T08:05:04.479Z</time>
      </trkpt>
      <trkpt lat="45.40037" lon="2.48186">
        <ele>784</ele>
        <time>2025-06-08T08:05:05.479Z</time>
      </trkpt>
      <trkpt lat="45.40038" lon="2.48187">
        <ele>784</ele>
        <time>2025-06-08T08:05:06.479Z</time>
      </trkpt>
      <trkpt lat="45.40038" lon="2.48188">
        <ele>784</ele>
        <time>2025-06-08T08:05:07.479Z</time>
      </trkpt>
      <trkpt lat="45.40038" lon="2.48188">
        <ele>785</ele>
        <time>2025-06-08T08:05:08.479Z</time>
      </trkpt>
      <trkpt lat="45.40039" lon="2.48188">
        <ele>785</ele>
        <time>2025-06-08T08:05:09.479Z</time>
      </trkpt>
      <trkpt lat="45.4004" lon="2.48189">
        <ele>785</ele>
        <time>2025-06-08T08:05:10.479Z</time>
      </trkpt>
      <trkpt lat="45.4004" lon="2.48189">
        <ele>785</ele>
        <time>2025-06-08T08:05:11.479Z</time>
      </trkpt>
      <trkpt lat="45.40041" lon="2.4819">
        <ele>785</ele>
        <time>2025-06-08T08:05:12.479Z</time>
      </trkpt>
      <trkpt lat="45.40042" lon="2.4819">
        <ele>785</ele>
        <time>2025-06-08T08:05:13.479Z</time>
      </trkpt>
      <trkpt lat="45.40043" lon="2.4819">
        <ele>785</ele>
        <time>2025-06-08T08:05:14.479Z</time>
      </trkpt>
      <trkpt lat="45.40044" lon="2.4819">
        <ele>785</ele>
        <time>2025-06-08T08:05:15.479Z</time>
      </trkpt>
      <trkpt lat="45.40045" lon="2.48191">
        <ele>785</ele>
        <time>2025-06-08T08:05:16.479Z</time>
      </trkpt>
      <trkpt lat="45.40046" lon="2.48193">
        <ele>785</ele>
        <time>2025-06-08T08:05:17.479Z</time>
      </trkpt>
      <trkpt lat="45.40046" lon="2.48194">
        <ele>786</ele>
        <time>2025-06-08T08:05:18.479Z</time>
      </trkpt>
      <trkpt lat="45.40047" lon="2.48194">
        <ele>786</ele>
        <time>2025-06-08T08:05:19.479Z</time>
      </trkpt>
      <trkpt lat="45.40048" lon="2.48195">
        <ele>786</ele>
        <time>2025-06-08T08:05:20.479Z</time>
      </trkpt>
      <trkpt lat="45.40049" lon="2.48195">
        <ele>785</ele>
        <time>2025-06-08T08:05:21.479Z</time>
      </trkpt>
      <trkpt lat="45.40051" lon="2.48194">
        <ele>785</ele>
        <time>2025-06-08T08:05:22.479Z</time>
      </trkpt>
      <trkpt lat="45.40051" lon="2.48195">
        <ele>785</ele>
        <time>2025-06-08T08:05:23.479Z</time>
      </trkpt>
      <trkpt lat="45.40053" lon="2.48197">
        <ele>785</ele>
        <time>2025-06-08T08:05:24.479Z</time>
      </trkpt>
      <trkpt lat="45.40055" lon="2.48198">
        <ele>785</ele>
        <time>2025-06-08T08:05:25.479Z</time>
      </trkpt>
      <trkpt lat="45.40055" lon="2.48199">
        <ele>785</ele>
        <time>2025-06-08T08:05:26.479Z</time>
      </trkpt>
      <trkpt lat="45.40056" lon="2.482">
        <ele>785</ele>
        <time>2025-06-08T08:05:27.479Z</time>
      </trkpt>
      <trkpt lat="45.40057" lon="2.48202">
        <ele>785</ele>
        <time>2025-06-08T08:05:28.479Z</time>
      </trkpt>
      <trkpt lat="45.40057" lon="2.48203">
        <ele>784</ele>
        <time>2025-06-08T08:05:29.479Z</time>
      </trkpt>
      <trkpt lat="45.40058" lon="2.48205">
        <ele>784</ele>
        <time>2025-06-08T08:05:30.479Z</time>
      </trkpt>
      <trkpt lat="45.40058" lon="2.48205">
        <ele>784</ele>
        <time>2025-06-08T08:05:31.479Z</time>
      </trkpt>
      <trkpt lat="45.4006" lon="2.48206">
        <ele>783</ele>
        <time>2025-06-08T08:05:32.479Z</time>
      </trkpt>
      <trkpt lat="45.4006" lon="2.48206">
        <ele>783</ele>
        <time>2025-06-08T08:05:33.479Z</time>
      </trkpt>
      <trkpt lat="45.40061" lon="2.48207">
        <ele>783</ele>
        <time>2025-06-08T08:05:34.479Z</time>
      </trkpt>
      <trkpt lat="45.40062" lon="2.48207">
        <ele>783</ele>
        <time>2025-06-08T08:05:35.479Z</time>
      </trkpt>
      <trkpt lat="45.40064" lon="2.48208">
        <ele>783</ele>
        <time>2025-06-08T08:05:36.479Z</time>
      </trkpt>
      <trkpt lat="45.40065" lon="2.48208">
        <ele>783</ele>
        <time>2025-06-08T08:05:37.479Z</time>
      </trkpt>
      <trkpt lat="45.40066" lon="2.48209">
        <ele>783</ele>
        <time>2025-06-08T08:05:38.479Z</time>
      </trkpt>
      <trkpt lat="45.40067" lon="2.4821">
        <ele>783</ele>
        <time>2025-06-08T08:05:39.479Z</time>
      </trkpt>
      <trkpt lat="45.40068" lon="2.48212">
        <ele>782</ele>
        <time>2025-06-08T08:05:40.479Z</time>
      </trkpt>
      <trkpt lat="45.40069" lon="2.48214">
        <ele>782</ele>
        <time>2025-06-08T08:05:41.479Z</time>
      </trkpt>
      <trkpt lat="45.4007" lon="2.48217">
        <ele>782</ele>
        <time>2025-06-08T08:05:42.479Z</time>
      </trkpt>
      <trkpt lat="45.40071" lon="2.48218">
        <ele>782</ele>
        <time>2025-06-08T08:05:43.479Z</time>
      </trkpt>
      <trkpt lat="45.40071" lon="2.4822">
        <ele>782</ele>
        <time>2025-06-08T08:05:44.479Z</time>
      </trkpt>
      <trkpt lat="45.40071" lon="2.48222">
        <ele>782</ele>
        <time>2025-06-08T08:05:45.479Z</time>
      </trkpt>
      <trkpt lat="45.40072" lon="2.48223">
        <ele>782</ele>
        <time>2025-06-08T08:05:46.479Z</time>
      </trkpt>
      <trkpt lat="45.40072" lon="2.48225">
        <ele>782</ele>
        <time>2025-06-08T08:05:47.479Z</time>
      </trkpt>
      <trkpt lat="45.40072" lon="2.48226">
        <ele>782</ele>
        <time>2025-06-08T08:05:48.479Z</time>
      </trkpt>
      <trkpt lat="45.40072" lon="2.48227">
        <ele>782</ele>
        <time>2025-06-08T08:05:49.479Z</time>
      </trkpt>
      <trkpt lat="45.40072" lon="2.48228">
        <ele>782</ele>
        <time>2025-06-08T08:05:50.479Z</time>
      </trkpt>
      <trkpt lat="45.40073" lon="2.48228">
        <ele>782</ele>
        <time>2025-06-08T08:05:51.479Z</time>
      </trkpt>
      <trkpt lat="45.40073" lon="2.48229">
        <ele>783</ele>
        <time>2025-06-08T08:05:52.479Z</time>
      </trkpt>
      <trkpt lat="45.40073" lon="2.4823">
        <ele>783</ele>
        <time>2025-06-08T08:05:53.479Z</time>
      </trkpt>
      <trkpt lat="45.40074" lon="2.4823">
        <ele>782</ele>
        <time>2025-06-08T08:05:54.479Z</time>
      </trkpt>
      <trkpt lat="45.40073" lon="2.4823">
        <ele>783</ele>
        <time>2025-06-08T08:05:55.479Z</time>
      </trkpt>
      <trkpt lat="45.40072" lon="2.4823">
        <ele>783</ele>
        <time>2025-06-08T08:05:56.479Z</time>
      </trkpt>
      <trkpt lat="45.40072" lon="2.4823">
        <ele>783</ele>
        <time>2025-06-08T08:05:57.479Z</time>
      </trkpt>
      <trkpt lat="45.40072" lon="2.4823">
        <ele>783</ele>
        <time>2025-06-08T08:05:58.479Z</time>
      </trkpt>
      <trkpt lat="45.40072" lon="2.4823">
        <ele>783</ele>
        <time>2025-06-08T08:05:59.479Z</time>
      </trkpt>
      <trkpt lat="45.40072" lon="2.4823">
        <ele>783</ele>
        <time>2025-06-08T08:06:00.479Z</time>
      </trkpt>
      <trkpt lat="45.40072" lon="2.4823">
        <ele>783</ele>
        <time>2025-06-08T08:06:01.479Z</time>
      </trkpt>
      <trkpt lat="45.40072" lon="2.4823">
        <ele>784</ele>
        <time>2025-06-08T08:06:02.479Z</time>
      </trkpt>
      <trkpt lat="45.40072" lon="2.4823">
        <ele>784</ele>
        <time>2025-06-08T08:06:03.479Z</time>
      </trkpt>
      <trkpt lat="45.40073" lon="2.48229">
        <ele>784</ele>
        <time>2025-06-08T08:06:04.479Z</time>
      </trkpt>
      <trkpt lat="45.40073" lon="2.48228">
        <ele>784</ele>
        <time>2025-06-08T08:06:05.479Z</time>
      </trkpt>
      <trkpt lat="45.40073" lon="2.48228">
        <ele>784</ele>
        <time>2025-06-08T08:06:06.479Z</time>
      </trkpt>
      <trkpt lat="45.40073" lon="2.48228">
        <ele>784</ele>
        <time>2025-06-08T08:06:07.479Z</time>
      </trkpt>
      <trkpt lat="45.40073" lon="2.48228">
        <ele>784</ele>
        <time>2025-06-08T08:06:08.479Z</time>
      </trkpt>
      <trkpt lat="45.40075" lon="2.48228">
        <ele>784</ele>
        <time>2025-06-08T08:06:09.479Z</time>
      </trkpt>
      <trkpt lat="45.40076" lon="2.48229">
        <ele>783</ele>
        <time>2025-06-08T08:06:10.479Z</time>
      </trkpt>
      <trkpt lat="45.40078" lon="2.48229">
        <ele>783</ele>
        <time>2025-06-08T08:06:11.479Z</time>
      </trkpt>
      <trkpt lat="45.40078" lon="2.48229">
        <ele>782</ele>
        <time>2025-06-08T08:06:12.479Z</time>
      </trkpt>
      <trkpt lat="45.40078" lon="2.48229">
        <ele>782</ele>
        <time>2025-06-08T08:06:13.479Z</time>
      </trkpt>
      <trkpt lat="45.40078" lon="2.48229">
        <ele>781</ele>
        <time>2025-06-08T08:06:14.479Z</time>
      </trkpt>
      <trkpt lat="45.40079" lon="2.48229">
        <ele>781</ele>
        <time>2025-06-08T08:06:15.479Z</time>
      </trkpt>
      <trkpt lat="45.4008" lon="2.48229">
        <ele>781</ele>
        <time>2025-06-08T08:06:16.479Z</time>
      </trkpt>
      <trkpt lat="45.40081" lon="2.4823">
        <ele>780</ele>
        <time>2025-06-08T08:06:17.479Z</time>
      </trkpt>
      <trkpt lat="45.40081" lon="2.48231">
        <ele>779</ele>
        <time>2025-06-08T08:06:18.479Z</time>
      </trkpt>
      <trkpt lat="45.40081" lon="2.48231">
        <ele>779</ele>
        <time>2025-06-08T08:06:19.479Z</time>
      </trkpt>
      <trkpt lat="45.40081" lon="2.48232">
        <ele>778</ele>
        <time>2025-06-08T08:06:20.479Z</time>
      </trkpt>
      <trkpt lat="45.40082" lon="2.48233">
        <ele>777</ele>
        <time>2025-06-08T08:06:21.479Z</time>
      </trkpt>
      <trkpt lat="45.40082" lon="2.48233">
        <ele>776</ele>
        <time>2025-06-08T08:06:22.479Z</time>
      </trkpt>
      <trkpt lat="45.40082" lon="2.48233">
        <ele>776</ele>
        <time>2025-06-08T08:06:23.479Z</time>
      </trkpt>
      <trkpt lat="45.40082" lon="2.48233">
        <ele>775</ele>
        <time>2025-06-08T08:06:24.479Z</time>
      </trkpt>
      <trkpt lat="45.40083" lon="2.48232">
        <ele>775</ele>
        <time>2025-06-08T08:06:25.479Z</time>
      </trkpt>
      <trkpt lat="45.40083" lon="2.48232">
        <ele>774</ele>
        <time>2025-06-08T08:06:26.479Z</time>
      </trkpt>
      <trkpt lat="45.40084" lon="2.48232">
        <ele>774</ele>
        <time>2025-06-08T08:06:27.479Z</time>
      </trkpt>
      <trkpt lat="45.40085" lon="2.48232">
        <ele>773</ele>
        <time>2025-06-08T08:06:28.479Z</time>
      </trkpt>
      <trkpt lat="45.40086" lon="2.48231">
        <ele>773</ele>
        <time>2025-06-08T08:06:29.479Z</time>
      </trkpt>
      <trkpt lat="45.40088" lon="2.48231">
        <ele>773</ele>
        <time>2025-06-08T08:06:30.479Z</time>
      </trkpt>
      <trkpt lat="45.40088" lon="2.4823">
        <ele>772</ele>
        <time>2025-06-08T08:06:31.479Z</time>
      </trkpt>
      <trkpt lat="45.4009" lon="2.48229">
        <ele>772</ele>
        <time>2025-06-08T08:06:32.479Z</time>
      </trkpt>
      <trkpt lat="45.40091" lon="2.48228">
        <ele>771</ele>
        <time>2025-06-08T08:06:33.479Z</time>
      </trkpt>
      <trkpt lat="45.40092" lon="2.48228">
        <ele>771</ele>
        <time>2025-06-08T08:06:34.479Z</time>
      </trkpt>
      <trkpt lat="45.40093" lon="2.48228">
        <ele>770</ele>
        <time>2025-06-08T08:06:35.479Z</time>
      </trkpt>
      <trkpt lat="45.40095" lon="2.48228">
        <ele>770</ele>
        <time>2025-06-08T08:06:36.479Z</time>
      </trkpt>
      <trkpt lat="45.40095" lon="2.48228">
        <ele>769</ele>
        <time>2025-06-08T08:06:37.479Z</time>
      </trkpt>
      <trkpt lat="45.40096" lon="2.48228">
        <ele>769</ele>
        <time>2025-06-08T08:06:38.479Z</time>
      </trkpt>
      <trkpt lat="45.40096" lon="2.48227">
        <ele>769</ele>
        <time>2025-06-08T08:06:39.479Z</time>
      </trkpt>
      <trkpt lat="45.40096" lon="2.48226">
        <ele>768</ele>
        <time>2025-06-08T08:06:40.479Z</time>
      </trkpt>
      <trkpt lat="45.40098" lon="2.48226">
        <ele>768</ele>
        <time>2025-06-08T08:06:41.479Z</time>
      </trkpt>
      <trkpt lat="45.40099" lon="2.48226">
        <ele>767</ele>
        <time>2025-06-08T08:06:42.479Z</time>
      </trkpt>
      <trkpt lat="45.401" lon="2.48226">
        <ele>766</ele>
        <time>2025-06-08T08:06:43.479Z</time>
      </trkpt>
      <trkpt lat="45.40102" lon="2.48227">
        <ele>766</ele>
        <time>2025-06-08T08:06:44.479Z</time>
      </trkpt>
      <trkpt lat="45.40102" lon="2.48227">
        <ele>765</ele>
        <time>2025-06-08T08:06:45.479Z</time>
      </trkpt>
      <trkpt lat="45.40103" lon="2.48227">
        <ele>765</ele>
        <time>2025-06-08T08:06:46.479Z</time>
      </trkpt>
      <trkpt lat="45.40104" lon="2.48226">
        <ele>765</ele>
        <time>2025-06-08T08:06:47.479Z</time>
      </trkpt>
      <trkpt lat="45.40104" lon="2.48226">
        <ele>764</ele>
        <time>2025-06-08T08:06:48.479Z</time>
      </trkpt>
      <trkpt lat="45.40105" lon="2.48224">
        <ele>764</ele>
        <time>2025-06-08T08:06:49.479Z</time>
      </trkpt>
      <trkpt lat="45.40106" lon="2.48224">
        <ele>764</ele>
        <time>2025-06-08T08:06:50.479Z</time>
      </trkpt>
      <trkpt lat="45.40107" lon="2.48224">
        <ele>764</ele>
        <time>2025-06-08T08:06:51.479Z</time>
      </trkpt>
      <trkpt lat="45.40108" lon="2.48223">
        <ele>763</ele>
        <time>2025-06-08T08:06:52.479Z</time>
      </trkpt>
      <trkpt lat="45.40109" lon="2.48223">
        <ele>763</ele>
        <time>2025-06-08T08:06:53.479Z</time>
      </trkpt>
      <trkpt lat="45.4011" lon="2.48222">
        <ele>763</ele>
        <time>2025-06-08T08:06:54.479Z</time>
      </trkpt>
      <trkpt lat="45.4011" lon="2.4822">
        <ele>763</ele>
        <time>2025-06-08T08:06:55.479Z</time>
      </trkpt>
      <trkpt lat="45.40111" lon="2.48218">
        <ele>763</ele>
        <time>2025-06-08T08:06:56.479Z</time>
      </trkpt>
      <trkpt lat="45.40111" lon="2.48217">
        <ele>763</ele>
        <time>2025-06-08T08:06:57.479Z</time>
      </trkpt>
      <trkpt lat="45.40112" lon="2.48216">
        <ele>763</ele>
        <time>2025-06-08T08:06:58.479Z</time>
      </trkpt>
      <trkpt lat="45.40113" lon="2.48216">
        <ele>762</ele>
        <time>2025-06-08T08:06:59.479Z</time>
      </trkpt>
      <trkpt lat="45.40114" lon="2.48215">
        <ele>762</ele>
        <time>2025-06-08T08:07:00.479Z</time>
      </trkpt>
      <trkpt lat="45.40115" lon="2.48215">
        <ele>762</ele>
        <time>2025-06-08T08:07:01.479Z</time>
      </trkpt>
      <trkpt lat="45.40116" lon="2.48215">
        <ele>762</ele>
        <time>2025-06-08T08:07:02.479Z</time>
      </trkpt>
      <trkpt lat="45.40117" lon="2.48215">
        <ele>762</ele>
        <time>2025-06-08T08:07:03.479Z</time>
      </trkpt>
      <trkpt lat="45.40119" lon="2.48215">
        <ele>761</ele>
        <time>2025-06-08T08:07:04.479Z</time>
      </trkpt>
      <trkpt lat="45.4012" lon="2.48216">
        <ele>761</ele>
        <time>2025-06-08T08:07:05.479Z</time>
      </trkpt>
      <trkpt lat="45.40121" lon="2.48217">
        <ele>761</ele>
        <time>2025-06-08T08:07:06.479Z</time>
      </trkpt>
      <trkpt lat="45.40122" lon="2.48217">
        <ele>760</ele>
        <time>2025-06-08T08:07:07.479Z</time>
      </trkpt>
      <trkpt lat="45.40123" lon="2.48216">
        <ele>760</ele>
        <time>2025-06-08T08:07:08.479Z</time>
      </trkpt>
      <trkpt lat="45.40123" lon="2.48216">
        <ele>759</ele>
        <time>2025-06-08T08:07:09.479Z</time>
      </trkpt>
      <trkpt lat="45.40123" lon="2.48216">
        <ele>759</ele>
        <time>2025-06-08T08:07:10.479Z</time>
      </trkpt>
      <trkpt lat="45.40123" lon="2.48215">
        <ele>758</ele>
        <time>2025-06-08T08:07:11.479Z</time>
      </trkpt>
      <trkpt lat="45.40125" lon="2.48215">
        <ele>758</ele>
        <time>2025-06-08T08:07:12.479Z</time>
      </trkpt>
      <trkpt lat="45.40126" lon="2.48215">
        <ele>758</ele>
        <time>2025-06-08T08:07:13.479Z</time>
      </trkpt>
      <trkpt lat="45.40127" lon="2.48214">
        <ele>757</ele>
        <time>2025-06-08T08:07:14.479Z</time>
      </trkpt>
      <trkpt lat="45.40129" lon="2.48214">
        <ele>757</ele>
        <time>2025-06-08T08:07:15.479Z</time>
      </trkpt>
      <trkpt lat="45.4013" lon="2.48215">
        <ele>757</ele>
        <time>2025-06-08T08:07:16.479Z</time>
      </trkpt>
      <trkpt lat="45.40131" lon="2.48215">
        <ele>757</ele>
        <time>2025-06-08T08:07:17.479Z</time>
      </trkpt>
      <trkpt lat="45.40131" lon="2.48214">
        <ele>757</ele>
        <time>2025-06-08T08:07:18.479Z</time>
      </trkpt>
      <trkpt lat="45.40132" lon="2.48214">
        <ele>757</ele>
        <time>2025-06-08T08:07:19.479Z</time>
      </trkpt>
      <trkpt lat="45.40133" lon="2.48214">
        <ele>757</ele>
        <time>2025-06-08T08:07:20.479Z</time>
      </trkpt>
      <trkpt lat="45.40134" lon="2.48214">
        <ele>757</ele>
        <time>2025-06-08T08:07:21.479Z</time>
      </trkpt>
      <trkpt lat="45.40136" lon="2.48214">
        <ele>757</ele>
        <time>2025-06-08T08:07:22.479Z</time>
      </trkpt>
      <trkpt lat="45.40136" lon="2.48214">
        <ele>757</ele>
        <time>2025-06-08T08:07:23.479Z</time>
      </trkpt>
      <trkpt lat="45.40136" lon="2.48214">
        <ele>757</ele>
        <time>2025-06-08T08:07:24.479Z</time>
      </trkpt>
      <trkpt lat="45.40136" lon="2.48213">
        <ele>758</ele>
        <time>2025-06-08T08:07:25.479Z</time>
      </trkpt>
      <trkpt lat="45.40136" lon="2.48213">
        <ele>758</ele>
        <time>2025-06-08T08:07:26.479Z</time>
      </trkpt>
      <trkpt lat="45.40137" lon="2.48213">
        <ele>758</ele>
        <time>2025-06-08T08:07:27.479Z</time>
      </trkpt>
      <trkpt lat="45.40137" lon="2.48213">
        <ele>758</ele>
        <time>2025-06-08T08:07:28.479Z</time>
      </trkpt>
      <trkpt lat="45.40136" lon="2.48212">
        <ele>758</ele>
        <time>2025-06-08T08:07:29.479Z</time>
      </trkpt>
      <trkpt lat="45.40136" lon="2.48212">
        <ele>758</ele>
        <time>2025-06-08T08:07:30.479Z</time>
      </trkpt>
      <trkpt lat="45.40137" lon="2.48212">
        <ele>758</ele>
        <time>2025-06-08T08:07:31.479Z</time>
      </trkpt>
      <trkpt lat="45.40137" lon="2.48212">
        <ele>757</ele>
        <time>2025-06-08T08:07:32.479Z</time>
      </trkpt>
      <trkpt lat="45.40138" lon="2.48212">
        <ele>757</ele>
        <time>2025-06-08T08:07:33.479Z</time>
      </trkpt>
      <trkpt lat="45.4014" lon="2.48212">
        <ele>757</ele>
        <time>2025-06-08T08:07:34.479Z</time>
      </trkpt>
      <trkpt lat="45.40141" lon="2.48212">
        <ele>756</ele>
        <time>2025-06-08T08:07:35.479Z</time>
      </trkpt>
      <trkpt lat="45.40142" lon="2.48211">
        <ele>756</ele>
        <time>2025-06-08T08:07:36.479Z</time>
      </trkpt>
      <trkpt lat="45.40143" lon="2.48211">
        <ele>756</ele>
        <time>2025-06-08T08:07:37.479Z</time>
      </trkpt>
      <trkpt lat="45.40144" lon="2.4821">
        <ele>756</ele>
        <time>2025-06-08T08:07:38.479Z</time>
      </trkpt>
      <trkpt lat="45.40145" lon="2.48209">
        <ele>756</ele>
        <time>2025-06-08T08:07:39.479Z</time>
      </trkpt>
      <trkpt lat="45.40146" lon="2.48207">
        <ele>756</ele>
        <time>2025-06-08T08:07:40.479Z</time>
      </trkpt>
      <trkpt lat="45.40147" lon="2.48206">
        <ele>756</ele>
        <time>2025-06-08T08:07:41.479Z</time>
      </trkpt>
      <trkpt lat="45.40148" lon="2.48205">
        <ele>756</ele>
        <time>2025-06-08T08:07:42.479Z</time>
      </trkpt>
      <trkpt lat="45.4015" lon="2.48205">
        <ele>757</ele>
        <time>2025-06-08T08:07:43.479Z</time>
      </trkpt>
      <trkpt lat="45.40151" lon="2.48204">
        <ele>757</ele>
        <time>2025-06-08T08:07:44.479Z</time>
      </trkpt>
      <trkpt lat="45.40151" lon="2.48204">
        <ele>757</ele>
        <time>2025-06-08T08:07:45.479Z</time>
      </trkpt>
      <trkpt lat="45.40152" lon="2.48205">
        <ele>757</ele>
        <time>2025-06-08T08:07:46.479Z</time>
      </trkpt>
      <trkpt lat="45.40154" lon="2.48205">
        <ele>757</ele>
        <time>2025-06-08T08:07:47.479Z</time>
      </trkpt>
      <trkpt lat="45.40155" lon="2.48206">
        <ele>757</ele>
        <time>2025-06-08T08:07:48.479Z</time>
      </trkpt>
      <trkpt lat="45.40157" lon="2.48206">
        <ele>757</ele>
        <time>2025-06-08T08:07:49.479Z</time>
      </trkpt>
      <trkpt lat="45.40158" lon="2.48206">
        <ele>757</ele>
        <time>2025-06-08T08:07:50.479Z</time>
      </trkpt>
      <trkpt lat="45.40159" lon="2.48205">
        <ele>757</ele>
        <time>2025-06-08T08:07:51.479Z</time>
      </trkpt>
      <trkpt lat="45.4016" lon="2.48205">
        <ele>757</ele>
        <time>2025-06-08T08:07:52.479Z</time>
      </trkpt>
      <trkpt lat="45.40162" lon="2.48203">
        <ele>756</ele>
        <time>2025-06-08T08:07:53.479Z</time>
      </trkpt>
      <trkpt lat="45.40162" lon="2.48203">
        <ele>756</ele>
        <time>2025-06-08T08:07:54.479Z</time>
      </trkpt>
      <trkpt lat="45.40162" lon="2.48203">
        <ele>756</ele>
        <time>2025-06-08T08:07:55.479Z</time>
      </trkpt>
      <trkpt lat="45.40162" lon="2.48203">
        <ele>756</ele>
        <time>2025-06-08T08:07:56.479Z</time>
      </trkpt>
      <trkpt lat="45.40162" lon="2.48203">
        <ele>755</ele>
        <time>2025-06-08T08:07:57.479Z</time>
      </trkpt>
      <trkpt lat="45.40163" lon="2.48203">
        <ele>755</ele>
        <time>2025-06-08T08:07:58.479Z</time>
      </trkpt>
      <trkpt lat="45.40164" lon="2.48203">
        <ele>754</ele>
        <time>2025-06-08T08:07:59.479Z</time>
      </trkpt>
      <trkpt lat="45.40165" lon="2.48202">
        <ele>754</ele>
        <time>2025-06-08T08:08:00.479Z</time>
      </trkpt>
      <trkpt lat="45.40165" lon="2.48202">
        <ele>753</ele>
        <time>2025-06-08T08:08:01.479Z</time>
      </trkpt>
      <trkpt lat="45.40165" lon="2.48201">
        <ele>753</ele>
        <time>2025-06-08T08:08:02.479Z</time>
      </trkpt>
      <trkpt lat="45.40166" lon="2.482">
        <ele>753</ele>
        <time>2025-06-08T08:08:03.479Z</time>
      </trkpt>
      <trkpt lat="45.40167" lon="2.48199">
        <ele>753</ele>
        <time>2025-06-08T08:08:04.479Z</time>
      </trkpt>
      <trkpt lat="45.40169" lon="2.48199">
        <ele>753</ele>
        <time>2025-06-08T08:08:05.479Z</time>
      </trkpt>
      <trkpt lat="45.4017" lon="2.48199">
        <ele>752</ele>
        <time>2025-06-08T08:08:06.479Z</time>
      </trkpt>
      <trkpt lat="45.40171" lon="2.48199">
        <ele>752</ele>
        <time>2025-06-08T08:08:07.479Z</time>
      </trkpt>
      <trkpt lat="45.40172" lon="2.48199">
        <ele>752</ele>
        <time>2025-06-08T08:08:08.479Z</time>
      </trkpt>
      <trkpt lat="45.40173" lon="2.48197">
        <ele>752</ele>
        <time>2025-06-08T08:08:09.479Z</time>
      </trkpt>
      <trkpt lat="45.40174" lon="2.48197">
        <ele>751</ele>
        <time>2025-06-08T08:08:10.479Z</time>
      </trkpt>
      <trkpt lat="45.40174" lon="2.48197">
        <ele>751</ele>
        <time>2025-06-08T08:08:11.479Z</time>
      </trkpt>
      <trkpt lat="45.40175" lon="2.48197">
        <ele>751</ele>
        <time>2025-06-08T08:08:12.479Z</time>
      </trkpt>
      <trkpt lat="45.40176" lon="2.48197">
        <ele>751</ele>
        <time>2025-06-08T08:08:13.479Z</time>
      </trkpt>
      <trkpt lat="45.40177" lon="2.48195">
        <ele>751</ele>
        <time>2025-06-08T08:08:14.479Z</time>
      </trkpt>
      <trkpt lat="45.40177" lon="2.48194">
        <ele>751</ele>
        <time>2025-06-08T08:08:15.479Z</time>
      </trkpt>
      <trkpt lat="45.40177" lon="2.48192">
        <ele>751</ele>
        <time>2025-06-08T08:08:16.479Z</time>
      </trkpt>
      <trkpt lat="45.40177" lon="2.48191">
        <ele>751</ele>
        <time>2025-06-08T08:08:17.479Z</time>
      </trkpt>
      <trkpt lat="45.40178" lon="2.48191">
        <ele>750</ele>
        <time>2025-06-08T08:08:18.479Z</time>
      </trkpt>
      <trkpt lat="45.40179" lon="2.48191">
        <ele>750</ele>
        <time>2025-06-08T08:08:19.479Z</time>
      </trkpt>
      <trkpt lat="45.4018" lon="2.4819">
        <ele>750</ele>
        <time>2025-06-08T08:08:20.479Z</time>
      </trkpt>
      <trkpt lat="45.40181" lon="2.4819">
        <ele>749</ele>
        <time>2025-06-08T08:08:21.479Z</time>
      </trkpt>
      <trkpt lat="45.40182" lon="2.48191">
        <ele>749</ele>
        <time>2025-06-08T08:08:22.479Z</time>
      </trkpt>
      <trkpt lat="45.40183" lon="2.48192">
        <ele>749</ele>
        <time>2025-06-08T08:08:23.479Z</time>
      </trkpt>
      <trkpt lat="45.40185" lon="2.48193">
        <ele>748</ele>
        <time>2025-06-08T08:08:24.479Z</time>
      </trkpt>
      <trkpt lat="45.40185" lon="2.48194">
        <ele>748</ele>
        <time>2025-06-08T08:08:25.479Z</time>
      </trkpt>
      <trkpt lat="45.40186" lon="2.48196">
        <ele>748</ele>
        <time>2025-06-08T08:08:26.479Z</time>
      </trkpt>
      <trkpt lat="45.40187" lon="2.48198">
        <ele>747</ele>
        <time>2025-06-08T08:08:27.479Z</time>
      </trkpt>
      <trkpt lat="45.40188" lon="2.482">
        <ele>747</ele>
        <time>2025-06-08T08:08:28.479Z</time>
      </trkpt>
      <trkpt lat="45.40188" lon="2.48202">
        <ele>747</ele>
        <time>2025-06-08T08:08:29.479Z</time>
      </trkpt>
      <trkpt lat="45.40188" lon="2.48203">
        <ele>747</ele>
        <time>2025-06-08T08:08:30.479Z</time>
      </trkpt>
      <trkpt lat="45.40187" lon="2.48205">
        <ele>747</ele>
        <time>2025-06-08T08:08:31.479Z</time>
      </trkpt>
      <trkpt lat="45.40188" lon="2.48206">
        <ele>747</ele>
        <time>2025-06-08T08:08:32.479Z</time>
      </trkpt>
      <trkpt lat="45.40188" lon="2.48208">
        <ele>746</ele>
        <time>2025-06-08T08:08:33.479Z</time>
      </trkpt>
      <trkpt lat="45.4019" lon="2.48209">
        <ele>746</ele>
        <time>2025-06-08T08:08:34.479Z</time>
      </trkpt>
      <trkpt lat="45.40191" lon="2.48209">
        <ele>746</ele>
        <time>2025-06-08T08:08:35.479Z</time>
      </trkpt>
      <trkpt lat="45.40191" lon="2.4821">
        <ele>746</ele>
        <time>2025-06-08T08:08:36.479Z</time>
      </trkpt>
      <trkpt lat="45.40192" lon="2.48211">
        <ele>745</ele>
        <time>2025-06-08T08:08:37.479Z</time>
      </trkpt>
      <trkpt lat="45.40191" lon="2.48211">
        <ele>745</ele>
        <time>2025-06-08T08:08:38.479Z</time>
      </trkpt>
      <trkpt lat="45.40191" lon="2.48211">
        <ele>745</ele>
        <time>2025-06-08T08:08:39.479Z</time>
      </trkpt>
      <trkpt lat="45.40192" lon="2.48212">
        <ele>745</ele>
        <time>2025-06-08T08:08:40.479Z</time>
      </trkpt>
      <trkpt lat="45.40193" lon="2.48213">
        <ele>744</ele>
        <time>2025-06-08T08:08:41.479Z</time>
      </trkpt>
      <trkpt lat="45.40194" lon="2.48214">
        <ele>744</ele>
        <time>2025-06-08T08:08:42.479Z</time>
      </trkpt>
      <trkpt lat="45.40194" lon="2.48216">
        <ele>744</ele>
        <time>2025-06-08T08:08:43.479Z</time>
      </trkpt>
      <trkpt lat="45.40194" lon="2.48217">
        <ele>743</ele>
        <time>2025-06-08T08:08:44.479Z</time>
      </trkpt>
      <trkpt lat="45.40195" lon="2.48218">
        <ele>743</ele>
        <time>2025-06-08T08:08:45.479Z</time>
      </trkpt>
      <trkpt lat="45.40196" lon="2.48218">
        <ele>743</ele>
        <time>2025-06-08T08:08:46.479Z</time>
      </trkpt>
      <trkpt lat="45.40196" lon="2.48218">
        <ele>742</ele>
        <time>2025-06-08T08:08:47.479Z</time>
      </trkpt>
      <trkpt lat="45.40196" lon="2.48219">
        <ele>742</ele>
        <time>2025-06-08T08:08:48.479Z</time>
      </trkpt>
      <trkpt lat="45.40197" lon="2.48219">
        <ele>742</ele>
        <time>2025-06-08T08:08:49.479Z</time>
      </trkpt>
      <trkpt lat="45.40197" lon="2.48219">
        <ele>742</ele>
        <time>2025-06-08T08:08:50.479Z</time>
      </trkpt>
      <trkpt lat="45.40197" lon="2.48219">
        <ele>741</ele>
        <time>2025-06-08T08:08:51.479Z</time>
      </trkpt>
      <trkpt lat="45.40197" lon="2.48219">
        <ele>741</ele>
        <time>2025-06-08T08:08:52.479Z</time>
      </trkpt>
      <trkpt lat="45.40197" lon="2.48217">
        <ele>741</ele>
        <time>2025-06-08T08:08:53.479Z</time>
      </trkpt>
      <trkpt lat="45.40197" lon="2.48217">
        <ele>741</ele>
        <time>2025-06-08T08:08:54.479Z</time>
      </trkpt>
      <trkpt lat="45.40197" lon="2.48216">
        <ele>741</ele>
        <time>2025-06-08T08:08:55.479Z</time>
      </trkpt>
      <trkpt lat="45.40198" lon="2.48216">
        <ele>741</ele>
        <time>2025-06-08T08:08:56.479Z</time>
      </trkpt>
      <trkpt lat="45.40197" lon="2.48217">
        <ele>742</ele>
        <time>2025-06-08T08:08:57.479Z</time>
      </trkpt>
      <trkpt lat="45.40196" lon="2.48217">
        <ele>742</ele>
        <time>2025-06-08T08:08:58.479Z</time>
      </trkpt>
      <trkpt lat="45.40196" lon="2.48217">
        <ele>743</ele>
        <time>2025-06-08T08:08:59.479Z</time>
      </trkpt>
      <trkpt lat="45.40196" lon="2.48216">
        <ele>743</ele>
        <time>2025-06-08T08:09:00.479Z</time>
      </trkpt>
      <trkpt lat="45.40196" lon="2.48216">
        <ele>743</ele>
        <time>2025-06-08T08:09:01.479Z</time>
      </trkpt>
      <trkpt lat="45.40196" lon="2.48216">
        <ele>744</ele>
        <time>2025-06-08T08:09:02.479Z</time>
      </trkpt>
      <trkpt lat="45.40196" lon="2.48216">
        <ele>745</ele>
        <time>2025-06-08T08:09:03.479Z</time>
      </trkpt>
      <trkpt lat="45.40196" lon="2.48216">
        <ele>745</ele>
        <time>2025-06-08T08:09:04.479Z</time>
      </trkpt>
      <trkpt lat="45.40196" lon="2.48216">
        <ele>745</ele>
        <time>2025-06-08T08:09:05.479Z</time>
      </trkpt>
      <trkpt lat="45.40195" lon="2.48216">
        <ele>746</ele>
        <time>2025-06-08T08:09:06.479Z</time>
      </trkpt>
      <trkpt lat="45.40195" lon="2.48216">
        <ele>746</ele>
        <time>2025-06-08T08:09:07.479Z</time>
      </trkpt>
      <trkpt lat="45.40195" lon="2.48215">
        <ele>746</ele>
        <time>2025-06-08T08:09:08.479Z</time>
      </trkpt>
      <trkpt lat="45.40195" lon="2.48215">
        <ele>746</ele>
        <time>2025-06-08T08:09:09.479Z</time>
      </trkpt>
      <trkpt lat="45.40195" lon="2.48216">
        <ele>746</ele>
        <time>2025-06-08T08:09:10.479Z</time>
      </trkpt>
      <trkpt lat="45.40196" lon="2.48215">
        <ele>746</ele>
        <time>2025-06-08T08:09:11.479Z</time>
      </trkpt>
      <trkpt lat="45.40196" lon="2.48216">
        <ele>746</ele>
        <time>2025-06-08T08:09:12.479Z</time>
      </trkpt>
      <trkpt lat="45.40197" lon="2.48216">
        <ele>746</ele>
        <time>2025-06-08T08:09:13.479Z</time>
      </trkpt>
      <trkpt lat="45.40197" lon="2.48216">
        <ele>746</ele>
        <time>2025-06-08T08:09:14.479Z</time>
      </trkpt>
      <trkpt lat="45.40196" lon="2.48216">
        <ele>746</ele>
        <time>2025-06-08T08:09:15.479Z</time>
      </trkpt>
      <trkpt lat="45.40195" lon="2.48215">
        <ele>746</ele>
        <time>2025-06-08T08:09:16.479Z</time>
      </trkpt>
      <trkpt lat="45.40195" lon="2.48215">
        <ele>747</ele>
        <time>2025-06-08T08:09:17.479Z</time>
      </trkpt>
      <trkpt lat="45.40195" lon="2.48215">
        <ele>747</ele>
        <time>2025-06-08T08:09:18.479Z</time>
      </trkpt>
      <trkpt lat="45.40195" lon="2.48216">
        <ele>746</ele>
        <time>2025-06-08T08:09:19.479Z</time>
      </trkpt>
      <trkpt lat="45.40195" lon="2.48216">
        <ele>746</ele>
        <time>2025-06-08T08:09:20.479Z</time>
      </trkpt>
      <trkpt lat="45.40195" lon="2.48216">
        <ele>745</ele>
        <time>2025-06-08T08:09:21.479Z</time>
      </trkpt>
      <trkpt lat="45.40195" lon="2.48216">
        <ele>745</ele>
        <time>2025-06-08T08:09:22.479Z</time>
      </trkpt>
      <trkpt lat="45.40195" lon="2.48216">
        <ele>744</ele>
        <time>2025-06-08T08:09:23.479Z</time>
      </trkpt>
      <trkpt lat="45.40195" lon="2.48216">
        <ele>744</ele>
        <time>2025-06-08T08:09:24.479Z</time>
      </trkpt>
      <trkpt lat="45.40195" lon="2.48216">
        <ele>743</ele>
        <time>2025-06-08T08:09:25.479Z</time>
      </trkpt>
      <trkpt lat="45.40195" lon="2.48215">
        <ele>743</ele>
        <time>2025-06-08T08:09:26.479Z</time>
      </trkpt>
      <trkpt lat="45.40195" lon="2.48215">
        <ele>743</ele>
        <time>2025-06-08T08:09:27.479Z</time>
      </trkpt>
      <trkpt lat="45.40195" lon="2.48215">
        <ele>742</ele>
        <time>2025-06-08T08:09:28.479Z</time>
      </trkpt>
      <trkpt lat="45.40195" lon="2.48215">
        <ele>741</ele>
        <time>2025-06-08T08:09:29.479Z</time>
      </trkpt>
      <trkpt lat="45.40195" lon="2.48215">
        <ele>741</ele>
        <time>2025-06-08T08:09:30.479Z</time>
      </trkpt>
      <trkpt lat="45.40196" lon="2.48215">
        <ele>740</ele>
        <time>2025-06-08T08:09:31.479Z</time>
      </trkpt>
      <trkpt lat="45.40195" lon="2.48215">
        <ele>739</ele>
        <time>2025-06-08T08:09:32.479Z</time>
      </trkpt>
      <trkpt lat="45.40195" lon="2.48215">
        <ele>738</ele>
        <time>2025-06-08T08:09:33.479Z</time>
      </trkpt>
      <trkpt lat="45.40195" lon="2.48215">
        <ele>738</ele>
        <time>2025-06-08T08:09:34.479Z</time>
      </trkpt>
      <trkpt lat="45.40195" lon="2.48214">
        <ele>737</ele>
        <time>2025-06-08T08:09:35.479Z</time>
      </trkpt>
      <trkpt lat="45.40195" lon="2.48214">
        <ele>737</ele>
        <time>2025-06-08T08:09:36.479Z</time>
      </trkpt>
      <trkpt lat="45.40194" lon="2.48214">
        <ele>737</ele>
        <time>2025-06-08T08:09:37.479Z</time>
      </trkpt>
      <trkpt lat="45.40194" lon="2.48214">
        <ele>736</ele>
        <time>2025-06-08T08:09:38.479Z</time>
      </trkpt>
      <trkpt lat="45.40194" lon="2.48214">
        <ele>736</ele>
        <time>2025-06-08T08:09:39.479Z</time>
      </trkpt>
      <trkpt lat="45.40193" lon="2.48214">
        <ele>735</ele>
        <time>2025-06-08T08:09:40.479Z</time>
      </trkpt>
      <trkpt lat="45.40193" lon="2.48214">
        <ele>734</ele>
        <time>2025-06-08T08:09:41.479Z</time>
      </trkpt>
      <trkpt lat="45.40193" lon="2.48214">
        <ele>734</ele>
        <time>2025-06-08T08:09:42.479Z</time>
      </trkpt>
      <trkpt lat="45.40194" lon="2.48213">
        <ele>734</ele>
        <time>2025-06-08T08:09:43.479Z</time>
      </trkpt>
      <trkpt lat="45.40194" lon="2.48213">
        <ele>733</ele>
        <time>2025-06-08T08:09:44.479Z</time>
      </trkpt>
      <trkpt lat="45.40194" lon="2.48213">
        <ele>733</ele>
        <time>2025-06-08T08:09:45.479Z</time>
      </trkpt>
      <trkpt lat="45.40194" lon="2.48213">
        <ele>733</ele>
        <time>2025-06-08T08:09:46.479Z</time>
      </trkpt>
      <trkpt lat="45.40194" lon="2.48213">
        <ele>733</ele>
        <time>2025-06-08T08:09:47.479Z</time>
      </trkpt>
      <trkpt lat="45.40194" lon="2.48213">
        <ele>733</ele>
        <time>2025-06-08T08:09:48.479Z</time>
      </trkpt>
      <trkpt lat="45.40194" lon="2.48213">
        <ele>733</ele>
        <time>2025-06-08T08:09:49.479Z</time>
      </trkpt>
      <trkpt lat="45.40194" lon="2.48214">
        <ele>734</ele>
        <time>2025-06-08T08:09:50.479Z</time>
      </trkpt>
      <trkpt lat="45.40193" lon="2.48214">
        <ele>734</ele>
        <time>2025-06-08T08:09:51.479Z</time>
      </trkpt>
      <trkpt lat="45.40193" lon="2.48215">
        <ele>734</ele>
        <time>2025-06-08T08:09:52.479Z</time>
      </trkpt>
      <trkpt lat="45.40193" lon="2.48216">
        <ele>734</ele>
        <time>2025-06-08T08:09:53.479Z</time>
      </trkpt>
      <trkpt lat="45.40193" lon="2.48216">
        <ele>734</ele>
        <time>2025-06-08T08:09:54.479Z</time>
      </trkpt>
      <trkpt lat="45.40193" lon="2.48216">
        <ele>735</ele>
        <time>2025-06-08T08:09:55.479Z</time>
      </trkpt>
      <trkpt lat="45.40192" lon="2.48216">
        <ele>735</ele>
        <time>2025-06-08T08:09:56.479Z</time>
      </trkpt>
      <trkpt lat="45.40193" lon="2.48217">
        <ele>735</ele>
        <time>2025-06-08T08:09:57.479Z</time>
      </trkpt>
      <trkpt lat="45.40193" lon="2.48217">
        <ele>735</ele>
        <time>2025-06-08T08:09:58.479Z</time>
      </trkpt>
      <trkpt lat="45.40193" lon="2.48218">
        <ele>736</ele>
        <time>2025-06-08T08:09:59.479Z</time>
      </trkpt>
      <trkpt lat="45.40193" lon="2.48219">
        <ele>736</ele>
        <time>2025-06-08T08:10:00.479Z</time>
      </trkpt>
      <trkpt lat="45.40193" lon="2.4822">
        <ele>736</ele>
        <time>2025-06-08T08:10:01.479Z</time>
      </trkpt>
      <trkpt lat="45.40193" lon="2.48221">
        <ele>736</ele>
        <time>2025-06-08T08:10:02.479Z</time>
      </trkpt>
      <trkpt lat="45.40193" lon="2.48221">
        <ele>736</ele>
        <time>2025-06-08T08:10:03.479Z</time>
      </trkpt>
      <trkpt lat="45.40193" lon="2.48221">
        <ele>736</ele>
        <time>2025-06-08T08:10:04.479Z</time>
      </trkpt>
      <trkpt lat="45.40193" lon="2.48223">
        <ele>737</ele>
        <time>2025-06-08T08:10:05.479Z</time>
      </trkpt>
      <trkpt lat="45.40193" lon="2.48224">
        <ele>737</ele>
        <time>2025-06-08T08:10:06.479Z</time>
      </trkpt>
      <trkpt lat="45.40194" lon="2.48226">
        <ele>737</ele>
        <time>2025-06-08T08:10:07.479Z</time>
      </trkpt>
      <trkpt lat="45.40195" lon="2.48228">
        <ele>738</ele>
        <time>2025-06-08T08:10:08.479Z</time>
      </trkpt>
      <trkpt lat="45.40196" lon="2.48231">
        <ele>738</ele>
        <time>2025-06-08T08:10:09.479Z</time>
      </trkpt>
      <trkpt lat="45.40197" lon="2.48233">
        <ele>738</ele>
        <time>2025-06-08T08:10:10.479Z</time>
      </trkpt>
      <trkpt lat="45.40197" lon="2.48235">
        <ele>738</ele>
        <time>2025-06-08T08:10:11.479Z</time>
      </trkpt>
      <trkpt lat="45.40197" lon="2.48236">
        <ele>739</ele>
        <time>2025-06-08T08:10:12.479Z</time>
      </trkpt>
      <trkpt lat="45.40197" lon="2.48236">
        <ele>739</ele>
        <time>2025-06-08T08:10:13.479Z</time>
      </trkpt>
      <trkpt lat="45.40198" lon="2.48237">
        <ele>739</ele>
        <time>2025-06-08T08:10:14.479Z</time>
      </trkpt>
      <trkpt lat="45.40198" lon="2.48238">
        <ele>738</ele>
        <time>2025-06-08T08:10:15.479Z</time>
      </trkpt>
      <trkpt lat="45.40199" lon="2.48238">
        <ele>738</ele>
        <time>2025-06-08T08:10:16.479Z</time>
      </trkpt>
      <trkpt lat="45.40199" lon="2.48239">
        <ele>738</ele>
        <time>2025-06-08T08:10:17.479Z</time>
      </trkpt>
      <trkpt lat="45.40199" lon="2.48239">
        <ele>738</ele>
        <time>2025-06-08T08:10:18.479Z</time>
      </trkpt>
      <trkpt lat="45.40198" lon="2.4824">
        <ele>738</ele>
        <time>2025-06-08T08:10:19.479Z</time>
      </trkpt>
      <trkpt lat="45.40198" lon="2.48241">
        <ele>739</ele>
        <time>2025-06-08T08:10:20.479Z</time>
      </trkpt>
      <trkpt lat="45.40198" lon="2.48243">
        <ele>739</ele>
        <time>2025-06-08T08:10:21.479Z</time>
      </trkpt>
      <trkpt lat="45.40198" lon="2.48244">
        <ele>739</ele>
        <time>2025-06-08T08:10:22.479Z</time>
      </trkpt>
      <trkpt lat="45.40198" lon="2.48246">
        <ele>739</ele>
        <time>2025-06-08T08:10:23.479Z</time>
      </trkpt>
      <trkpt lat="45.40199" lon="2.48247">
        <ele>740</ele>
        <time>2025-06-08T08:10:24.479Z</time>
      </trkpt>
      <trkpt lat="45.40199" lon="2.4825">
        <ele>740</ele>
        <time>2025-06-08T08:10:25.479Z</time>
      </trkpt>
      <trkpt lat="45.40199" lon="2.48252">
        <ele>740</ele>
        <time>2025-06-08T08:10:26.479Z</time>
      </trkpt>
      <trkpt lat="45.40199" lon="2.48254">
        <ele>740</ele>
        <time>2025-06-08T08:10:27.479Z</time>
      </trkpt>
      <trkpt lat="45.402" lon="2.48256">
        <ele>740</ele>
        <time>2025-06-08T08:10:28.479Z</time>
      </trkpt>
      <trkpt lat="45.402" lon="2.48257">
        <ele>740</ele>
        <time>2025-06-08T08:10:29.479Z</time>
      </trkpt>
      <trkpt lat="45.402" lon="2.48259">
        <ele>740</ele>
        <time>2025-06-08T08:10:30.479Z</time>
      </trkpt>
      <trkpt lat="45.40199" lon="2.48261">
        <ele>740</ele>
        <time>2025-06-08T08:10:31.479Z</time>
      </trkpt>
      <trkpt lat="45.40198" lon="2.48263">
        <ele>741</ele>
        <time>2025-06-08T08:10:32.479Z</time>
      </trkpt>
      <trkpt lat="45.40198" lon="2.48264">
        <ele>741</ele>
        <time>2025-06-08T08:10:33.479Z</time>
      </trkpt>
      <trkpt lat="45.40197" lon="2.48264">
        <ele>741</ele>
        <time>2025-06-08T08:10:34.479Z</time>
      </trkpt>
      <trkpt lat="45.40197" lon="2.48265">
        <ele>741</ele>
        <time>2025-06-08T08:10:35.479Z</time>
      </trkpt>
      <trkpt lat="45.40197" lon="2.48265">
        <ele>741</ele>
        <time>2025-06-08T08:10:36.479Z</time>
      </trkpt>
      <trkpt lat="45.40197" lon="2.48266">
        <ele>741</ele>
        <time>2025-06-08T08:10:37.479Z</time>
      </trkpt>
      <trkpt lat="45.40197" lon="2.48266">
        <ele>741</ele>
        <time>2025-06-08T08:10:38.479Z</time>
      </trkpt>
      <trkpt lat="45.40197" lon="2.48267">
        <ele>741</ele>
        <time>2025-06-08T08:10:39.479Z</time>
      </trkpt>
      <trkpt lat="45.40197" lon="2.48267">
        <ele>741</ele>
        <time>2025-06-08T08:10:40.479Z</time>
      </trkpt>
      <trkpt lat="45.40198" lon="2.48268">
        <ele>742</ele>
        <time>2025-06-08T08:10:41.479Z</time>
      </trkpt>
      <trkpt lat="45.40198" lon="2.48269">
        <ele>742</ele>
        <time>2025-06-08T08:10:42.479Z</time>
      </trkpt>
      <trkpt lat="45.40199" lon="2.48269">
        <ele>741</ele>
        <time>2025-06-08T08:10:43.479Z</time>
      </trkpt>
      <trkpt lat="45.40199" lon="2.48269">
        <ele>741</ele>
        <time>2025-06-08T08:10:44.479Z</time>
      </trkpt>
      <trkpt lat="45.40197" lon="2.4827">
        <ele>741</ele>
        <time>2025-06-08T08:10:45.479Z</time>
      </trkpt>
      <trkpt lat="45.40196" lon="2.48271">
        <ele>740</ele>
        <time>2025-06-08T08:10:46.479Z</time>
      </trkpt>
      <trkpt lat="45.40195" lon="2.48272">
        <ele>740</ele>
        <time>2025-06-08T08:10:47.479Z</time>
      </trkpt>
      <trkpt lat="45.40196" lon="2.48272">
        <ele>740</ele>
        <time>2025-06-08T08:10:48.479Z</time>
      </trkpt>
      <trkpt lat="45.40195" lon="2.48272">
        <ele>740</ele>
        <time>2025-06-08T08:10:49.479Z</time>
      </trkpt>
      <trkpt lat="45.40194" lon="2.48273">
        <ele>739</ele>
        <time>2025-06-08T08:10:50.479Z</time>
      </trkpt>
      <trkpt lat="45.40193" lon="2.48275">
        <ele>739</ele>
        <time>2025-06-08T08:10:51.479Z</time>
      </trkpt>
      <trkpt lat="45.40193" lon="2.48275">
        <ele>739</ele>
        <time>2025-06-08T08:10:52.479Z</time>
      </trkpt>
      <trkpt lat="45.40193" lon="2.48275">
        <ele>740</ele>
        <time>2025-06-08T08:10:53.479Z</time>
      </trkpt>
      <trkpt lat="45.40193" lon="2.48276">
        <ele>740</ele>
        <time>2025-06-08T08:10:54.479Z</time>
      </trkpt>
      <trkpt lat="45.40191" lon="2.48278">
        <ele>740</ele>
        <time>2025-06-08T08:10:55.479Z</time>
      </trkpt>
      <trkpt lat="45.4019" lon="2.48281">
        <ele>740</ele>
        <time>2025-06-08T08:10:56.479Z</time>
      </trkpt>
      <trkpt lat="45.40189" lon="2.48282">
        <ele>741</ele>
        <time>2025-06-08T08:10:57.479Z</time>
      </trkpt>
      <trkpt lat="45.40188" lon="2.48284">
        <ele>741</ele>
        <time>2025-06-08T08:10:58.479Z</time>
      </trkpt>
      <trkpt lat="45.40187" lon="2.48286">
        <ele>741</ele>
        <time>2025-06-08T08:10:59.479Z</time>
      </trkpt>
      <trkpt lat="45.40187" lon="2.48287">
        <ele>742</ele>
        <time>2025-06-08T08:11:00.479Z</time>
      </trkpt>
      <trkpt lat="45.40186" lon="2.48288">
        <ele>742</ele>
        <time>2025-06-08T08:11:01.479Z</time>
      </trkpt>
      <trkpt lat="45.40185" lon="2.48289">
        <ele>743</ele>
        <time>2025-06-08T08:11:02.479Z</time>
      </trkpt>
      <trkpt lat="45.40185" lon="2.48291">
        <ele>743</ele>
        <time>2025-06-08T08:11:03.479Z</time>
      </trkpt>
      <trkpt lat="45.40185" lon="2.48292">
        <ele>743</ele>
        <time>2025-06-08T08:11:04.479Z</time>
      </trkpt>
      <trkpt lat="45.40185" lon="2.48293">
        <ele>744</ele>
        <time>2025-06-08T08:11:05.479Z</time>
      </trkpt>
      <trkpt lat="45.40185" lon="2.48293">
        <ele>744</ele>
        <time>2025-06-08T08:11:06.479Z</time>
      </trkpt>
      <trkpt lat="45.40186" lon="2.48294">
        <ele>744</ele>
        <time>2025-06-08T08:11:07.479Z</time>
      </trkpt>
      <trkpt lat="45.40187" lon="2.48294">
        <ele>744</ele>
        <time>2025-06-08T08:11:08.479Z</time>
      </trkpt>
      <trkpt lat="45.40187" lon="2.48295">
        <ele>744</ele>
        <time>2025-06-08T08:11:09.479Z</time>
      </trkpt>
      <trkpt lat="45.40187" lon="2.48296">
        <ele>745</ele>
        <time>2025-06-08T08:11:10.479Z</time>
      </trkpt>
      <trkpt lat="45.40187" lon="2.48296">
        <ele>745</ele>
        <time>2025-06-08T08:11:11.479Z</time>
      </trkpt>
      <trkpt lat="45.40186" lon="2.48298">
        <ele>745</ele>
        <time>2025-06-08T08:11:12.479Z</time>
      </trkpt>
      <trkpt lat="45.40183" lon="2.483">
        <ele>745</ele>
        <time>2025-06-08T08:11:13.479Z</time>
      </trkpt>
      <trkpt lat="45.40182" lon="2.48301">
        <ele>745</ele>
        <time>2025-06-08T08:11:14.479Z</time>
      </trkpt>
      <trkpt lat="45.40181" lon="2.48303">
        <ele>745</ele>
        <time>2025-06-08T08:11:15.479Z</time>
      </trkpt>
      <trkpt lat="45.4018" lon="2.48304">
        <ele>745</ele>
        <time>2025-06-08T08:11:16.479Z</time>
      </trkpt>
      <trkpt lat="45.4018" lon="2.48306">
        <ele>746</ele>
        <time>2025-06-08T08:11:17.479Z</time>
      </trkpt>
      <trkpt lat="45.40179" lon="2.48306">
        <ele>746</ele>
        <time>2025-06-08T08:11:18.479Z</time>
      </trkpt>
      <trkpt lat="45.40178" lon="2.48307">
        <ele>746</ele>
        <time>2025-06-08T08:11:19.479Z</time>
      </trkpt>
      <trkpt lat="45.40178" lon="2.48308">
        <ele>746</ele>
        <time>2025-06-08T08:11:20.479Z</time>
      </trkpt>
      <trkpt lat="45.40178" lon="2.48309">
        <ele>746</ele>
        <time>2025-06-08T08:11:21.479Z</time>
      </trkpt>
      <trkpt lat="45.40177" lon="2.4831">
        <ele>746</ele>
        <time>2025-06-08T08:11:22.479Z</time>
      </trkpt>
      <trkpt lat="45.40177" lon="2.48311">
        <ele>746</ele>
        <time>2025-06-08T08:11:23.479Z</time>
      </trkpt>
      <trkpt lat="45.40177" lon="2.48313">
        <ele>746</ele>
        <time>2025-06-08T08:11:24.479Z</time>
      </trkpt>
      <trkpt lat="45.40178" lon="2.48315">
        <ele>747</ele>
        <time>2025-06-08T08:11:25.479Z</time>
      </trkpt>
      <trkpt lat="45.40178" lon="2.48317">
        <ele>747</ele>
        <time>2025-06-08T08:11:26.479Z</time>
      </trkpt>
      <trkpt lat="45.40178" lon="2.48319">
        <ele>747</ele>
        <time>2025-06-08T08:11:27.479Z</time>
      </trkpt>
      <trkpt lat="45.40177" lon="2.4832">
        <ele>747</ele>
        <time>2025-06-08T08:11:28.479Z</time>
      </trkpt>
      <trkpt lat="45.40177" lon="2.48322">
        <ele>747</ele>
        <time>2025-06-08T08:11:29.479Z</time>
      </trkpt>
      <trkpt lat="45.40177" lon="2.48323">
        <ele>747</ele>
        <time>2025-06-08T08:11:30.479Z</time>
      </trkpt>
      <trkpt lat="45.40177" lon="2.48324">
        <ele>747</ele>
        <time>2025-06-08T08:11:31.479Z</time>
      </trkpt>
      <trkpt lat="45.40177" lon="2.48325">
        <ele>747</ele>
        <time>2025-06-08T08:11:32.479Z</time>
      </trkpt>
      <trkpt lat="45.40177" lon="2.48326">
        <ele>747</ele>
        <time>2025-06-08T08:11:33.479Z</time>
      </trkpt>
      <trkpt lat="45.40178" lon="2.48326">
        <ele>747</ele>
        <time>2025-06-08T08:11:34.479Z</time>
      </trkpt>
      <trkpt lat="45.40179" lon="2.48327">
        <ele>747</ele>
        <time>2025-06-08T08:11:35.479Z</time>
      </trkpt>
      <trkpt lat="45.40179" lon="2.48328">
        <ele>747</ele>
        <time>2025-06-08T08:11:36.479Z</time>
      </trkpt>
      <trkpt lat="45.40179" lon="2.48327">
        <ele>746</ele>
        <time>2025-06-08T08:11:37.479Z</time>
      </trkpt>
      <trkpt lat="45.40178" lon="2.48325">
        <ele>746</ele>
        <time>2025-06-08T08:11:38.479Z</time>
      </trkpt>
      <trkpt lat="45.40177" lon="2.48323">
        <ele>746</ele>
        <time>2025-06-08T08:11:39.479Z</time>
      </trkpt>
      <trkpt lat="45.40177" lon="2.48322">
        <ele>746</ele>
        <time>2025-06-08T08:11:40.479Z</time>
      </trkpt>
      <trkpt lat="45.40177" lon="2.48322">
        <ele>746</ele>
        <time>2025-06-08T08:11:41.479Z</time>
      </trkpt>
      <trkpt lat="45.40177" lon="2.48322">
        <ele>745</ele>
        <time>2025-06-08T08:11:42.479Z</time>
      </trkpt>
      <trkpt lat="45.40177" lon="2.48322">
        <ele>745</ele>
        <time>2025-06-08T08:11:43.479Z</time>
      </trkpt>
      <trkpt lat="45.40177" lon="2.48322">
        <ele>745</ele>
        <time>2025-06-08T08:11:44.479Z</time>
      </trkpt>
      <trkpt lat="45.40177" lon="2.48322">
        <ele>745</ele>
        <time>2025-06-08T08:11:45.479Z</time>
      </trkpt>
      <trkpt lat="45.40177" lon="2.48322">
        <ele>745</ele>
        <time>2025-06-08T08:11:46.479Z</time>
      </trkpt>
      <trkpt lat="45.40177" lon="2.48323">
        <ele>745</ele>
        <time>2025-06-08T08:11:47.479Z</time>
      </trkpt>
      <trkpt lat="45.40178" lon="2.48323">
        <ele>745</ele>
        <time>2025-06-08T08:11:48.479Z</time>
      </trkpt>
      <trkpt lat="45.40178" lon="2.48323">
        <ele>745</ele>
        <time>2025-06-08T08:11:49.479Z</time>
      </trkpt>
      <trkpt lat="45.40178" lon="2.48323">
        <ele>744</ele>
        <time>2025-06-08T08:11:50.479Z</time>
      </trkpt>
      <trkpt lat="45.40178" lon="2.48323">
        <ele>744</ele>
        <time>2025-06-08T08:11:51.479Z</time>
      </trkpt>
      <trkpt lat="45.40178" lon="2.48323">
        <ele>744</ele>
        <time>2025-06-08T08:11:52.479Z</time>
      </trkpt>
      <trkpt lat="45.40178" lon="2.48324">
        <ele>743</ele>
        <time>2025-06-08T08:11:53.479Z</time>
      </trkpt>
      <trkpt lat="45.40176" lon="2.48324">
        <ele>743</ele>
        <time>2025-06-08T08:11:54.479Z</time>
      </trkpt>
      <trkpt lat="45.40176" lon="2.48324">
        <ele>743</ele>
        <time>2025-06-08T08:11:55.479Z</time>
      </trkpt>
      <trkpt lat="45.40176" lon="2.48324">
        <ele>742</ele>
        <time>2025-06-08T08:11:56.479Z</time>
      </trkpt>
      <trkpt lat="45.40176" lon="2.48323">
        <ele>742</ele>
        <time>2025-06-08T08:11:57.479Z</time>
      </trkpt>
      <trkpt lat="45.40175" lon="2.48323">
        <ele>742</ele>
        <time>2025-06-08T08:11:58.479Z</time>
      </trkpt>
      <trkpt lat="45.40174" lon="2.48323">
        <ele>741</ele>
        <time>2025-06-08T08:11:59.479Z</time>
      </trkpt>
      <trkpt lat="45.40174" lon="2.48324">
        <ele>741</ele>
        <time>2025-06-08T08:12:00.479Z</time>
      </trkpt>
      <trkpt lat="45.40174" lon="2.48325">
        <ele>741</ele>
        <time>2025-06-08T08:12:01.479Z</time>
      </trkpt>
      <trkpt lat="45.40173" lon="2.48327">
        <ele>741</ele>
        <time>2025-06-08T08:12:02.479Z</time>
      </trkpt>
      <trkpt lat="45.40171" lon="2.48331">
        <ele>740</ele>
        <time>2025-06-08T08:12:03.479Z</time>
      </trkpt>
      <trkpt lat="45.4017" lon="2.48335">
        <ele>740</ele>
        <time>2025-06-08T08:12:04.479Z</time>
      </trkpt>
      <trkpt lat="45.40169" lon="2.48337">
        <ele>740</ele>
        <time>2025-06-08T08:12:05.479Z</time>
      </trkpt>
      <trkpt lat="45.40169" lon="2.48339">
        <ele>740</ele>
        <time>2025-06-08T08:12:06.479Z</time>
      </trkpt>
      <trkpt lat="45.40169" lon="2.48341">
        <ele>740</ele>
        <time>2025-06-08T08:12:07.479Z</time>
      </trkpt>
      <trkpt lat="45.40169" lon="2.48342">
        <ele>740</ele>
        <time>2025-06-08T08:12:08.479Z</time>
      </trkpt>
      <trkpt lat="45.4017" lon="2.48343">
        <ele>741</ele>
        <time>2025-06-08T08:12:09.479Z</time>
      </trkpt>
      <trkpt lat="45.40169" lon="2.48344">
        <ele>741</ele>
        <time>2025-06-08T08:12:10.479Z</time>
      </trkpt>
      <trkpt lat="45.40169" lon="2.48345">
        <ele>741</ele>
        <time>2025-06-08T08:12:11.479Z</time>
      </trkpt>
      <trkpt lat="45.40169" lon="2.48346">
        <ele>740</ele>
        <time>2025-06-08T08:12:12.479Z</time>
      </trkpt>
      <trkpt lat="45.4017" lon="2.48347">
        <ele>740</ele>
        <time>2025-06-08T08:12:13.479Z</time>
      </trkpt>
      <trkpt lat="45.4017" lon="2.48348">
        <ele>740</ele>
        <time>2025-06-08T08:12:14.479Z</time>
      </trkpt>
      <trkpt lat="45.4017" lon="2.48348">
        <ele>739</ele>
        <time>2025-06-08T08:12:15.479Z</time>
      </trkpt>
      <trkpt lat="45.4017" lon="2.48349">
        <ele>739</ele>
        <time>2025-06-08T08:12:16.479Z</time>
      </trkpt>
      <trkpt lat="45.40169" lon="2.48351">
        <ele>739</ele>
        <time>2025-06-08T08:12:17.479Z</time>
      </trkpt>
      <trkpt lat="45.40169" lon="2.48352">
        <ele>738</ele>
        <time>2025-06-08T08:12:18.479Z</time>
      </trkpt>
      <trkpt lat="45.40169" lon="2.48354">
        <ele>738</ele>
        <time>2025-06-08T08:12:19.479Z</time>
      </trkpt>
      <trkpt lat="45.40168" lon="2.48355">
        <ele>738</ele>
        <time>2025-06-08T08:12:20.479Z</time>
      </trkpt>
      <trkpt lat="45.40168" lon="2.48356">
        <ele>738</ele>
        <time>2025-06-08T08:12:21.479Z</time>
      </trkpt>
      <trkpt lat="45.40169" lon="2.48357">
        <ele>738</ele>
        <time>2025-06-08T08:12:22.479Z</time>
      </trkpt>
      <trkpt lat="45.40169" lon="2.48358">
        <ele>738</ele>
        <time>2025-06-08T08:12:23.479Z</time>
      </trkpt>
      <trkpt lat="45.40169" lon="2.48359">
        <ele>738</ele>
        <time>2025-06-08T08:12:24.479Z</time>
      </trkpt>
      <trkpt lat="45.40169" lon="2.48361">
        <ele>738</ele>
        <time>2025-06-08T08:12:25.479Z</time>
      </trkpt>
      <trkpt lat="45.40169" lon="2.48362">
        <ele>737</ele>
        <time>2025-06-08T08:12:26.479Z</time>
      </trkpt>
      <trkpt lat="45.4017" lon="2.48364">
        <ele>737</ele>
        <time>2025-06-08T08:12:27.479Z</time>
      </trkpt>
      <trkpt lat="45.40171" lon="2.48365">
        <ele>737</ele>
        <time>2025-06-08T08:12:28.479Z</time>
      </trkpt>
      <trkpt lat="45.40172" lon="2.48366">
        <ele>736</ele>
        <time>2025-06-08T08:12:29.479Z</time>
      </trkpt>
      <trkpt lat="45.40173" lon="2.48366">
        <ele>736</ele>
        <time>2025-06-08T08:12:30.479Z</time>
      </trkpt>
      <trkpt lat="45.40172" lon="2.48367">
        <ele>736</ele>
        <time>2025-06-08T08:12:31.479Z</time>
      </trkpt>
      <trkpt lat="45.40172" lon="2.48368">
        <ele>736</ele>
        <time>2025-06-08T08:12:32.479Z</time>
      </trkpt>
      <trkpt lat="45.40173" lon="2.48368">
        <ele>736</ele>
        <time>2025-06-08T08:12:33.479Z</time>
      </trkpt>
      <trkpt lat="45.40173" lon="2.48369">
        <ele>736</ele>
        <time>2025-06-08T08:12:34.479Z</time>
      </trkpt>
      <trkpt lat="45.40173" lon="2.4837">
        <ele>736</ele>
        <time>2025-06-08T08:12:35.479Z</time>
      </trkpt>
      <trkpt lat="45.40173" lon="2.4837">
        <ele>737</ele>
        <time>2025-06-08T08:12:36.479Z</time>
      </trkpt>
      <trkpt lat="45.40173" lon="2.48371">
        <ele>737</ele>
        <time>2025-06-08T08:12:37.479Z</time>
      </trkpt>
      <trkpt lat="45.40173" lon="2.48373">
        <ele>737</ele>
        <time>2025-06-08T08:12:38.479Z</time>
      </trkpt>
      <trkpt lat="45.40173" lon="2.48374">
        <ele>737</ele>
        <time>2025-06-08T08:12:39.479Z</time>
      </trkpt>
      <trkpt lat="45.40173" lon="2.48375">
        <ele>737</ele>
        <time>2025-06-08T08:12:40.479Z</time>
      </trkpt>
      <trkpt lat="45.40174" lon="2.48376">
        <ele>737</ele>
        <time>2025-06-08T08:12:41.479Z</time>
      </trkpt>
      <trkpt lat="45.40174" lon="2.48377">
        <ele>737</ele>
        <time>2025-06-08T08:12:42.479Z</time>
      </trkpt>
      <trkpt lat="45.40175" lon="2.48378">
        <ele>737</ele>
        <time>2025-06-08T08:12:43.479Z</time>
      </trkpt>
      <trkpt lat="45.40175" lon="2.48379">
        <ele>736</ele>
        <time>2025-06-08T08:12:44.479Z</time>
      </trkpt>
      <trkpt lat="45.40176" lon="2.48379">
        <ele>736</ele>
        <time>2025-06-08T08:12:45.479Z</time>
      </trkpt>
      <trkpt lat="45.40177" lon="2.48381">
        <ele>736</ele>
        <time>2025-06-08T08:12:46.479Z</time>
      </trkpt>
      <trkpt lat="45.40178" lon="2.48381">
        <ele>735</ele>
        <time>2025-06-08T08:12:47.479Z</time>
      </trkpt>
      <trkpt lat="45.40179" lon="2.48382">
        <ele>735</ele>
        <time>2025-06-08T08:12:48.479Z</time>
      </trkpt>
      <trkpt lat="45.4018" lon="2.48384">
        <ele>735</ele>
        <time>2025-06-08T08:12:49.479Z</time>
      </trkpt>
      <trkpt lat="45.4018" lon="2.48385">
        <ele>735</ele>
        <time>2025-06-08T08:12:50.479Z</time>
      </trkpt>
      <trkpt lat="45.4018" lon="2.48387">
        <ele>735</ele>
        <time>2025-06-08T08:12:51.479Z</time>
      </trkpt>
      <trkpt lat="45.4018" lon="2.48388">
        <ele>735</ele>
        <time>2025-06-08T08:12:52.479Z</time>
      </trkpt>
      <trkpt lat="45.40182" lon="2.48389">
        <ele>735</ele>
        <time>2025-06-08T08:12:53.479Z</time>
      </trkpt>
      <trkpt lat="45.40182" lon="2.4839">
        <ele>735</ele>
        <time>2025-06-08T08:12:54.479Z</time>
      </trkpt>
      <trkpt lat="45.40182" lon="2.4839">
        <ele>735</ele>
        <time>2025-06-08T08:12:55.479Z</time>
      </trkpt>
      <trkpt lat="45.40182" lon="2.48391">
        <ele>735</ele>
        <time>2025-06-08T08:12:56.479Z</time>
      </trkpt>
      <trkpt lat="45.40182" lon="2.48391">
        <ele>736</ele>
        <time>2025-06-08T08:12:57.479Z</time>
      </trkpt>
      <trkpt lat="45.40182" lon="2.48392">
        <ele>736</ele>
        <time>2025-06-08T08:12:58.479Z</time>
      </trkpt>
      <trkpt lat="45.40183" lon="2.48392">
        <ele>737</ele>
        <time>2025-06-08T08:12:59.479Z</time>
      </trkpt>
      <trkpt lat="45.40184" lon="2.48393">
        <ele>737</ele>
        <time>2025-06-08T08:13:00.479Z</time>
      </trkpt>
      <trkpt lat="45.40184" lon="2.48394">
        <ele>737</ele>
        <time>2025-06-08T08:13:01.479Z</time>
      </trkpt>
      <trkpt lat="45.40184" lon="2.48395">
        <ele>738</ele>
        <time>2025-06-08T08:13:02.479Z</time>
      </trkpt>
      <trkpt lat="45.40184" lon="2.48396">
        <ele>739</ele>
        <time>2025-06-08T08:13:03.479Z</time>
      </trkpt>
      <trkpt lat="45.40185" lon="2.48397">
        <ele>739</ele>
        <time>2025-06-08T08:13:04.479Z</time>
      </trkpt>
      <trkpt lat="45.40185" lon="2.48397">
        <ele>740</ele>
        <time>2025-06-08T08:13:05.479Z</time>
      </trkpt>
      <trkpt lat="45.40186" lon="2.48398">
        <ele>740</ele>
        <time>2025-06-08T08:13:06.479Z</time>
      </trkpt>
      <trkpt lat="45.40187" lon="2.48399">
        <ele>741</ele>
        <time>2025-06-08T08:13:07.479Z</time>
      </trkpt>
      <trkpt lat="45.40187" lon="2.484">
        <ele>741</ele>
        <time>2025-06-08T08:13:08.479Z</time>
      </trkpt>
      <trkpt lat="45.40187" lon="2.48401">
        <ele>742</ele>
        <time>2025-06-08T08:13:09.479Z</time>
      </trkpt>
      <trkpt lat="45.40187" lon="2.48402">
        <ele>742</ele>
        <time>2025-06-08T08:13:10.479Z</time>
      </trkpt>
      <trkpt lat="45.40188" lon="2.48402">
        <ele>742</ele>
        <time>2025-06-08T08:13:11.479Z</time>
      </trkpt>
      <trkpt lat="45.40188" lon="2.48403">
        <ele>742</ele>
        <time>2025-06-08T08:13:12.479Z</time>
      </trkpt>
      <trkpt lat="45.40188" lon="2.48404">
        <ele>742</ele>
        <time>2025-06-08T08:13:13.479Z</time>
      </trkpt>
      <trkpt lat="45.40189" lon="2.48404">
        <ele>742</ele>
        <time>2025-06-08T08:13:14.479Z</time>
      </trkpt>
      <trkpt lat="45.40189" lon="2.48404">
        <ele>742</ele>
        <time>2025-06-08T08:13:15.479Z</time>
      </trkpt>
      <trkpt lat="45.4019" lon="2.48406">
        <ele>742</ele>
        <time>2025-06-08T08:13:16.479Z</time>
      </trkpt>
      <trkpt lat="45.4019" lon="2.48408">
        <ele>742</ele>
        <time>2025-06-08T08:13:17.479Z</time>
      </trkpt>
      <trkpt lat="45.4019" lon="2.4841">
        <ele>742</ele>
        <time>2025-06-08T08:13:18.479Z</time>
      </trkpt>
      <trkpt lat="45.4019" lon="2.48411">
        <ele>741</ele>
        <time>2025-06-08T08:13:19.479Z</time>
      </trkpt>
      <trkpt lat="45.4019" lon="2.48413">
        <ele>741</ele>
        <time>2025-06-08T08:13:20.479Z</time>
      </trkpt>
      <trkpt lat="45.4019" lon="2.48415">
        <ele>741</ele>
        <time>2025-06-08T08:13:21.479Z</time>
      </trkpt>
      <trkpt lat="45.4019" lon="2.48415">
        <ele>740</ele>
        <time>2025-06-08T08:13:22.479Z</time>
      </trkpt>
      <trkpt lat="45.4019" lon="2.48416">
        <ele>740</ele>
        <time>2025-06-08T08:13:23.479Z</time>
      </trkpt>
      <trkpt lat="45.4019" lon="2.48417">
        <ele>739</ele>
        <time>2025-06-08T08:13:24.479Z</time>
      </trkpt>
      <trkpt lat="45.4019" lon="2.48418">
        <ele>739</ele>
        <time>2025-06-08T08:13:25.479Z</time>
      </trkpt>
      <trkpt lat="45.4019" lon="2.4842">
        <ele>738</ele>
        <time>2025-06-08T08:13:26.479Z</time>
      </trkpt>
      <trkpt lat="45.40189" lon="2.48421">
        <ele>737</ele>
        <time>2025-06-08T08:13:27.479Z</time>
      </trkpt>
      <trkpt lat="45.40189" lon="2.48422">
        <ele>737</ele>
        <time>2025-06-08T08:13:28.479Z</time>
      </trkpt>
      <trkpt lat="45.40188" lon="2.48424">
        <ele>736</ele>
        <time>2025-06-08T08:13:29.479Z</time>
      </trkpt>
      <trkpt lat="45.40188" lon="2.48425">
        <ele>735</ele>
        <time>2025-06-08T08:13:30.479Z</time>
      </trkpt>
      <trkpt lat="45.40187" lon="2.48426">
        <ele>735</ele>
        <time>2025-06-08T08:13:31.479Z</time>
      </trkpt>
      <trkpt lat="45.40188" lon="2.48426">
        <ele>735</ele>
        <time>2025-06-08T08:13:32.479Z</time>
      </trkpt>
      <trkpt lat="45.40188" lon="2.48426">
        <ele>734</ele>
        <time>2025-06-08T08:13:33.479Z</time>
      </trkpt>
      <trkpt lat="45.40188" lon="2.48428">
        <ele>734</ele>
        <time>2025-06-08T08:13:34.479Z</time>
      </trkpt>
      <trkpt lat="45.40188" lon="2.48429">
        <ele>734</ele>
        <time>2025-06-08T08:13:35.479Z</time>
      </trkpt>
      <trkpt lat="45.40189" lon="2.4843">
        <ele>733</ele>
        <time>2025-06-08T08:13:36.479Z</time>
      </trkpt>
      <trkpt lat="45.40188" lon="2.48431">
        <ele>733</ele>
        <time>2025-06-08T08:13:37.479Z</time>
      </trkpt>
      <trkpt lat="45.40188" lon="2.48432">
        <ele>732</ele>
        <time>2025-06-08T08:13:38.479Z</time>
      </trkpt>
      <trkpt lat="45.40189" lon="2.48432">
        <ele>731</ele>
        <time>2025-06-08T08:13:39.479Z</time>
      </trkpt>
      <trkpt lat="45.40189" lon="2.48433">
        <ele>731</ele>
        <time>2025-06-08T08:13:40.479Z</time>
      </trkpt>
      <trkpt lat="45.4019" lon="2.48434">
        <ele>730</ele>
        <time>2025-06-08T08:13:41.479Z</time>
      </trkpt>
      <trkpt lat="45.40191" lon="2.48435">
        <ele>729</ele>
        <time>2025-06-08T08:13:42.479Z</time>
      </trkpt>
      <trkpt lat="45.40191" lon="2.48437">
        <ele>729</ele>
        <time>2025-06-08T08:13:43.479Z</time>
      </trkpt>
      <trkpt lat="45.4019" lon="2.48439">
        <ele>728</ele>
        <time>2025-06-08T08:13:44.479Z</time>
      </trkpt>
      <trkpt lat="45.40189" lon="2.48442">
        <ele>727</ele>
        <time>2025-06-08T08:13:45.479Z</time>
      </trkpt>
      <trkpt lat="45.40187" lon="2.48443">
        <ele>727</ele>
        <time>2025-06-08T08:13:46.479Z</time>
      </trkpt>
      <trkpt lat="45.40186" lon="2.48444">
        <ele>726</ele>
        <time>2025-06-08T08:13:47.479Z</time>
      </trkpt>
      <trkpt lat="45.40186" lon="2.48444">
        <ele>725</ele>
        <time>2025-06-08T08:13:48.479Z</time>
      </trkpt>
      <trkpt lat="45.40185" lon="2.48445">
        <ele>725</ele>
        <time>2025-06-08T08:13:49.479Z</time>
      </trkpt>
      <trkpt lat="45.40185" lon="2.48446">
        <ele>724</ele>
        <time>2025-06-08T08:13:50.479Z</time>
      </trkpt>
      <trkpt lat="45.40185" lon="2.48447">
        <ele>724</ele>
        <time>2025-06-08T08:13:51.479Z</time>
      </trkpt>
      <trkpt lat="45.40184" lon="2.48448">
        <ele>723</ele>
        <time>2025-06-08T08:13:52.479Z</time>
      </trkpt>
      <trkpt lat="45.40184" lon="2.48449">
        <ele>723</ele>
        <time>2025-06-08T08:13:53.479Z</time>
      </trkpt>
      <trkpt lat="45.40183" lon="2.48449">
        <ele>722</ele>
        <time>2025-06-08T08:13:54.479Z</time>
      </trkpt>
      <trkpt lat="45.40183" lon="2.4845">
        <ele>722</ele>
        <time>2025-06-08T08:13:55.479Z</time>
      </trkpt>
      <trkpt lat="45.40182" lon="2.48451">
        <ele>721</ele>
        <time>2025-06-08T08:13:56.479Z</time>
      </trkpt>
      <trkpt lat="45.40182" lon="2.48452">
        <ele>721</ele>
        <time>2025-06-08T08:13:57.479Z</time>
      </trkpt>
      <trkpt lat="45.40181" lon="2.48453">
        <ele>720</ele>
        <time>2025-06-08T08:13:58.479Z</time>
      </trkpt>
      <trkpt lat="45.40182" lon="2.48454">
        <ele>720</ele>
        <time>2025-06-08T08:13:59.479Z</time>
      </trkpt>
      <trkpt lat="45.40182" lon="2.48456">
        <ele>719</ele>
        <time>2025-06-08T08:14:00.479Z</time>
      </trkpt>
      <trkpt lat="45.40183" lon="2.48458">
        <ele>719</ele>
        <time>2025-06-08T08:14:01.479Z</time>
      </trkpt>
      <trkpt lat="45.40183" lon="2.48461">
        <ele>719</ele>
        <time>2025-06-08T08:14:02.479Z</time>
      </trkpt>
      <trkpt lat="45.40184" lon="2.48463">
        <ele>718</ele>
        <time>2025-06-08T08:14:03.479Z</time>
      </trkpt>
      <trkpt lat="45.40185" lon="2.48466">
        <ele>718</ele>
        <time>2025-06-08T08:14:04.479Z</time>
      </trkpt>
      <trkpt lat="45.40186" lon="2.48468">
        <ele>718</ele>
        <time>2025-06-08T08:14:05.479Z</time>
      </trkpt>
      <trkpt lat="45.40186" lon="2.48469">
        <ele>718</ele>
        <time>2025-06-08T08:14:06.479Z</time>
      </trkpt>
      <trkpt lat="45.40185" lon="2.48471">
        <ele>718</ele>
        <time>2025-06-08T08:14:07.479Z</time>
      </trkpt>
      <trkpt lat="45.40184" lon="2.48473">
        <ele>718</ele>
        <time>2025-06-08T08:14:08.479Z</time>
      </trkpt>
      <trkpt lat="45.40184" lon="2.48475">
        <ele>718</ele>
        <time>2025-06-08T08:14:09.479Z</time>
      </trkpt>
      <trkpt lat="45.40183" lon="2.48477">
        <ele>718</ele>
        <time>2025-06-08T08:14:10.479Z</time>
      </trkpt>
      <trkpt lat="45.40183" lon="2.48478">
        <ele>718</ele>
        <time>2025-06-08T08:14:11.479Z</time>
      </trkpt>
      <trkpt lat="45.40182" lon="2.48479">
        <ele>718</ele>
        <time>2025-06-08T08:14:12.479Z</time>
      </trkpt>
      <trkpt lat="45.40182" lon="2.4848">
        <ele>718</ele>
        <time>2025-06-08T08:14:13.479Z</time>
      </trkpt>
      <trkpt lat="45.40181" lon="2.48482">
        <ele>718</ele>
        <time>2025-06-08T08:14:14.479Z</time>
      </trkpt>
      <trkpt lat="45.4018" lon="2.48482">
        <ele>719</ele>
        <time>2025-06-08T08:14:15.479Z</time>
      </trkpt>
      <trkpt lat="45.4018" lon="2.48482">
        <ele>719</ele>
        <time>2025-06-08T08:14:16.479Z</time>
      </trkpt>
      <trkpt lat="45.40179" lon="2.48482">
        <ele>719</ele>
        <time>2025-06-08T08:14:17.479Z</time>
      </trkpt>
      <trkpt lat="45.4018" lon="2.48483">
        <ele>720</ele>
        <time>2025-06-08T08:14:18.479Z</time>
      </trkpt>
      <trkpt lat="45.4018" lon="2.48484">
        <ele>720</ele>
        <time>2025-06-08T08:14:19.479Z</time>
      </trkpt>
      <trkpt lat="45.4018" lon="2.48485">
        <ele>720</ele>
        <time>2025-06-08T08:14:20.479Z</time>
      </trkpt>
      <trkpt lat="45.4018" lon="2.48487">
        <ele>720</ele>
        <time>2025-06-08T08:14:21.479Z</time>
      </trkpt>
      <trkpt lat="45.4018" lon="2.48488">
        <ele>721</ele>
        <time>2025-06-08T08:14:22.479Z</time>
      </trkpt>
      <trkpt lat="45.4018" lon="2.48489">
        <ele>721</ele>
        <time>2025-06-08T08:14:23.479Z</time>
      </trkpt>
      <trkpt lat="45.4018" lon="2.4849">
        <ele>721</ele>
        <time>2025-06-08T08:14:24.479Z</time>
      </trkpt>
      <trkpt lat="45.40179" lon="2.48491">
        <ele>721</ele>
        <time>2025-06-08T08:14:25.479Z</time>
      </trkpt>
      <trkpt lat="45.40179" lon="2.48493">
        <ele>721</ele>
        <time>2025-06-08T08:14:26.479Z</time>
      </trkpt>
      <trkpt lat="45.40179" lon="2.48495">
        <ele>721</ele>
        <time>2025-06-08T08:14:27.479Z</time>
      </trkpt>
      <trkpt lat="45.40179" lon="2.48497">
        <ele>720</ele>
        <time>2025-06-08T08:14:28.479Z</time>
      </trkpt>
      <trkpt lat="45.40178" lon="2.48498">
        <ele>720</ele>
        <time>2025-06-08T08:14:29.479Z</time>
      </trkpt>
      <trkpt lat="45.40178" lon="2.48499">
        <ele>720</ele>
        <time>2025-06-08T08:14:30.479Z</time>
      </trkpt>
      <trkpt lat="45.40177" lon="2.48499">
        <ele>720</ele>
        <time>2025-06-08T08:14:31.479Z</time>
      </trkpt>
      <trkpt lat="45.40176" lon="2.48499">
        <ele>720</ele>
        <time>2025-06-08T08:14:32.479Z</time>
      </trkpt>
      <trkpt lat="45.40176" lon="2.48499">
        <ele>720</ele>
        <time>2025-06-08T08:14:33.479Z</time>
      </trkpt>
      <trkpt lat="45.40175" lon="2.485">
        <ele>720</ele>
        <time>2025-06-08T08:14:34.479Z</time>
      </trkpt>
      <trkpt lat="45.40176" lon="2.48501">
        <ele>720</ele>
        <time>2025-06-08T08:14:35.479Z</time>
      </trkpt>
      <trkpt lat="45.40176" lon="2.48503">
        <ele>720</ele>
        <time>2025-06-08T08:14:36.479Z</time>
      </trkpt>
      <trkpt lat="45.40175" lon="2.48504">
        <ele>720</ele>
        <time>2025-06-08T08:14:37.479Z</time>
      </trkpt>
      <trkpt lat="45.40175" lon="2.48505">
        <ele>720</ele>
        <time>2025-06-08T08:14:38.479Z</time>
      </trkpt>
      <trkpt lat="45.40174" lon="2.48507">
        <ele>719</ele>
        <time>2025-06-08T08:14:39.479Z</time>
      </trkpt>
      <trkpt lat="45.40174" lon="2.48509">
        <ele>719</ele>
        <time>2025-06-08T08:14:40.479Z</time>
      </trkpt>
      <trkpt lat="45.40173" lon="2.48509">
        <ele>719</ele>
        <time>2025-06-08T08:14:41.479Z</time>
      </trkpt>
      <trkpt lat="45.40172" lon="2.4851">
        <ele>719</ele>
        <time>2025-06-08T08:14:42.479Z</time>
      </trkpt>
      <trkpt lat="45.40171" lon="2.48511">
        <ele>719</ele>
        <time>2025-06-08T08:14:43.479Z</time>
      </trkpt>
      <trkpt lat="45.4017" lon="2.48511">
        <ele>719</ele>
        <time>2025-06-08T08:14:44.479Z</time>
      </trkpt>
      <trkpt lat="45.40169" lon="2.48512">
        <ele>720</ele>
        <time>2025-06-08T08:14:45.479Z</time>
      </trkpt>
      <trkpt lat="45.40169" lon="2.48512">
        <ele>720</ele>
        <time>2025-06-08T08:14:46.479Z</time>
      </trkpt>
      <trkpt lat="45.40168" lon="2.48513">
        <ele>720</ele>
        <time>2025-06-08T08:14:47.479Z</time>
      </trkpt>
      <trkpt lat="45.40167" lon="2.48514">
        <ele>720</ele>
        <time>2025-06-08T08:14:48.479Z</time>
      </trkpt>
      <trkpt lat="45.40167" lon="2.48517">
        <ele>720</ele>
        <time>2025-06-08T08:14:49.479Z</time>
      </trkpt>
      <trkpt lat="45.40166" lon="2.48518">
        <ele>720</ele>
        <time>2025-06-08T08:14:50.479Z</time>
      </trkpt>
      <trkpt lat="45.40166" lon="2.48518">
        <ele>720</ele>
        <time>2025-06-08T08:14:51.479Z</time>
      </trkpt>
      <trkpt lat="45.40165" lon="2.48518">
        <ele>720</ele>
        <time>2025-06-08T08:14:52.479Z</time>
      </trkpt>
      <trkpt lat="45.40164" lon="2.48519">
        <ele>720</ele>
        <time>2025-06-08T08:14:53.479Z</time>
      </trkpt>
      <trkpt lat="45.40164" lon="2.48521">
        <ele>719</ele>
        <time>2025-06-08T08:14:54.479Z</time>
      </trkpt>
      <trkpt lat="45.40164" lon="2.48521">
        <ele>719</ele>
        <time>2025-06-08T08:14:55.479Z</time>
      </trkpt>
      <trkpt lat="45.40164" lon="2.48521">
        <ele>719</ele>
        <time>2025-06-08T08:14:56.479Z</time>
      </trkpt>
      <trkpt lat="45.40164" lon="2.48521">
        <ele>718</ele>
        <time>2025-06-08T08:14:57.479Z</time>
      </trkpt>
      <trkpt lat="45.40164" lon="2.48522">
        <ele>718</ele>
        <time>2025-06-08T08:14:58.479Z</time>
      </trkpt>
      <trkpt lat="45.40164" lon="2.48523">
        <ele>718</ele>
        <time>2025-06-08T08:14:59.479Z</time>
      </trkpt>
      <trkpt lat="45.40164" lon="2.48525">
        <ele>718</ele>
        <time>2025-06-08T08:15:00.479Z</time>
      </trkpt>
      <trkpt lat="45.40164" lon="2.48525">
        <ele>717</ele>
        <time>2025-06-08T08:15:01.479Z</time>
      </trkpt>
      <trkpt lat="45.40163" lon="2.48527">
        <ele>717</ele>
        <time>2025-06-08T08:15:02.479Z</time>
      </trkpt>
      <trkpt lat="45.40162" lon="2.48529">
        <ele>717</ele>
        <time>2025-06-08T08:15:03.479Z</time>
      </trkpt>
      <trkpt lat="45.40162" lon="2.4853">
        <ele>717</ele>
        <time>2025-06-08T08:15:04.479Z</time>
      </trkpt>
      <trkpt lat="45.40161" lon="2.48532">
        <ele>717</ele>
        <time>2025-06-08T08:15:05.479Z</time>
      </trkpt>
      <trkpt lat="45.4016" lon="2.48532">
        <ele>717</ele>
        <time>2025-06-08T08:15:06.479Z</time>
      </trkpt>
      <trkpt lat="45.40158" lon="2.48533">
        <ele>717</ele>
        <time>2025-06-08T08:15:07.479Z</time>
      </trkpt>
      <trkpt lat="45.40158" lon="2.48533">
        <ele>717</ele>
        <time>2025-06-08T08:15:08.479Z</time>
      </trkpt>
      <trkpt lat="45.40157" lon="2.48534">
        <ele>717</ele>
        <time>2025-06-08T08:15:09.479Z</time>
      </trkpt>
      <trkpt lat="45.40157" lon="2.48535">
        <ele>718</ele>
        <time>2025-06-08T08:15:10.479Z</time>
      </trkpt>
      <trkpt lat="45.40157" lon="2.48535">
        <ele>718</ele>
        <time>2025-06-08T08:15:11.479Z</time>
      </trkpt>
      <trkpt lat="45.40157" lon="2.48536">
        <ele>718</ele>
        <time>2025-06-08T08:15:12.479Z</time>
      </trkpt>
      <trkpt lat="45.40157" lon="2.48537">
        <ele>718</ele>
        <time>2025-06-08T08:15:13.479Z</time>
      </trkpt>
      <trkpt lat="45.40157" lon="2.48537">
        <ele>718</ele>
        <time>2025-06-08T08:15:14.479Z</time>
      </trkpt>
      <trkpt lat="45.40157" lon="2.48537">
        <ele>718</ele>
        <time>2025-06-08T08:15:15.479Z</time>
      </trkpt>
      <trkpt lat="45.40157" lon="2.48537">
        <ele>718</ele>
        <time>2025-06-08T08:15:16.479Z</time>
      </trkpt>
      <trkpt lat="45.40157" lon="2.48537">
        <ele>718</ele>
        <time>2025-06-08T08:15:17.479Z</time>
      </trkpt>
      <trkpt lat="45.40157" lon="2.48537">
        <ele>718</ele>
        <time>2025-06-08T08:15:18.479Z</time>
      </trkpt>
      <trkpt lat="45.40156" lon="2.48537">
        <ele>718</ele>
        <time>2025-06-08T08:15:19.479Z</time>
      </trkpt>
      <trkpt lat="45.40156" lon="2.48537">
        <ele>719</ele>
        <time>2025-06-08T08:15:20.479Z</time>
      </trkpt>
      <trkpt lat="45.40156" lon="2.48538">
        <ele>719</ele>
        <time>2025-06-08T08:15:21.479Z</time>
      </trkpt>
      <trkpt lat="45.40156" lon="2.48538">
        <ele>719</ele>
        <time>2025-06-08T08:15:22.479Z</time>
      </trkpt>
      <trkpt lat="45.40155" lon="2.48538">
        <ele>719</ele>
        <time>2025-06-08T08:15:23.479Z</time>
      </trkpt>
      <trkpt lat="45.40155" lon="2.48538">
        <ele>719</ele>
        <time>2025-06-08T08:15:24.479Z</time>
      </trkpt>
      <trkpt lat="45.40155" lon="2.48538">
        <ele>719</ele>
        <time>2025-06-08T08:15:25.479Z</time>
      </trkpt>
      <trkpt lat="45.40155" lon="2.48539">
        <ele>719</ele>
        <time>2025-06-08T08:15:26.479Z</time>
      </trkpt>
      <trkpt lat="45.40154" lon="2.48539">
        <ele>719</ele>
        <time>2025-06-08T08:15:27.479Z</time>
      </trkpt>
      <trkpt lat="45.40154" lon="2.48539">
        <ele>719</ele>
        <time>2025-06-08T08:15:28.479Z</time>
      </trkpt>
      <trkpt lat="45.40154" lon="2.48539">
        <ele>719</ele>
        <time>2025-06-08T08:15:29.479Z</time>
      </trkpt>
      <trkpt lat="45.40154" lon="2.48539">
        <ele>719</ele>
        <time>2025-06-08T08:15:30.479Z</time>
      </trkpt>
      <trkpt lat="45.40154" lon="2.48539">
        <ele>720</ele>
        <time>2025-06-08T08:15:31.479Z</time>
      </trkpt>
      <trkpt lat="45.40154" lon="2.48539">
        <ele>720</ele>
        <time>2025-06-08T08:15:32.479Z</time>
      </trkpt>
      <trkpt lat="45.40154" lon="2.48539">
        <ele>720</ele>
        <time>2025-06-08T08:15:33.479Z</time>
      </trkpt>
      <trkpt lat="45.40154" lon="2.48539">
        <ele>721</ele>
        <time>2025-06-08T08:15:34.479Z</time>
      </trkpt>
      <trkpt lat="45.40154" lon="2.48539">
        <ele>721</ele>
        <time>2025-06-08T08:15:35.479Z</time>
      </trkpt>
      <trkpt lat="45.40155" lon="2.48539">
        <ele>721</ele>
        <time>2025-06-08T08:15:36.479Z</time>
      </trkpt>
      <trkpt lat="45.40155" lon="2.48539">
        <ele>721</ele>
        <time>2025-06-08T08:15:37.479Z</time>
      </trkpt>
      <trkpt lat="45.40155" lon="2.48539">
        <ele>721</ele>
        <time>2025-06-08T08:15:38.479Z</time>
      </trkpt>
      <trkpt lat="45.40155" lon="2.48539">
        <ele>721</ele>
        <time>2025-06-08T08:15:39.479Z</time>
      </trkpt>
      <trkpt lat="45.40155" lon="2.48539">
        <ele>721</ele>
        <time>2025-06-08T08:15:40.479Z</time>
      </trkpt>
      <trkpt lat="45.40155" lon="2.48539">
        <ele>720</ele>
        <time>2025-06-08T08:15:41.479Z</time>
      </trkpt>
      <trkpt lat="45.40155" lon="2.48539">
        <ele>720</ele>
        <time>2025-06-08T08:15:42.479Z</time>
      </trkpt>
      <trkpt lat="45.40155" lon="2.48539">
        <ele>719</ele>
        <time>2025-06-08T08:15:43.479Z</time>
      </trkpt>
      <trkpt lat="45.40155" lon="2.48539">
        <ele>719</ele>
        <time>2025-06-08T08:15:44.479Z</time>
      </trkpt>
      <trkpt lat="45.40155" lon="2.4854">
        <ele>719</ele>
        <time>2025-06-08T08:15:45.479Z</time>
      </trkpt>
      <trkpt lat="45.40155" lon="2.4854">
        <ele>718</ele>
        <time>2025-06-08T08:15:46.479Z</time>
      </trkpt>
      <trkpt lat="45.40155" lon="2.4854">
        <ele>717</ele>
        <time>2025-06-08T08:15:47.479Z</time>
      </trkpt>
      <trkpt lat="45.40155" lon="2.48541">
        <ele>717</ele>
        <time>2025-06-08T08:15:48.479Z</time>
      </trkpt>
      <trkpt lat="45.40154" lon="2.48542">
        <ele>716</ele>
        <time>2025-06-08T08:15:49.479Z</time>
      </trkpt>
      <trkpt lat="45.40154" lon="2.48542">
        <ele>715</ele>
        <time>2025-06-08T08:15:50.479Z</time>
      </trkpt>
      <trkpt lat="45.40154" lon="2.48542">
        <ele>715</ele>
        <time>2025-06-08T08:15:51.479Z</time>
      </trkpt>
      <trkpt lat="45.40153" lon="2.48543">
        <ele>714</ele>
        <time>2025-06-08T08:15:52.479Z</time>
      </trkpt>
      <trkpt lat="45.40153" lon="2.48543">
        <ele>714</ele>
        <time>2025-06-08T08:15:53.479Z</time>
      </trkpt>
      <trkpt lat="45.40152" lon="2.48544">
        <ele>713</ele>
        <time>2025-06-08T08:15:54.479Z</time>
      </trkpt>
      <trkpt lat="45.40152" lon="2.48544">
        <ele>713</ele>
        <time>2025-06-08T08:15:55.479Z</time>
      </trkpt>
      <trkpt lat="45.40152" lon="2.48544">
        <ele>712</ele>
        <time>2025-06-08T08:15:56.479Z</time>
      </trkpt>
      <trkpt lat="45.40152" lon="2.48545">
        <ele>712</ele>
        <time>2025-06-08T08:15:57.479Z</time>
      </trkpt>
      <trkpt lat="45.40152" lon="2.48545">
        <ele>712</ele>
        <time>2025-06-08T08:15:58.479Z</time>
      </trkpt>
      <trkpt lat="45.40152" lon="2.48546">
        <ele>712</ele>
        <time>2025-06-08T08:15:59.479Z</time>
      </trkpt>
      <trkpt lat="45.40152" lon="2.48547">
        <ele>712</ele>
        <time>2025-06-08T08:16:00.479Z</time>
      </trkpt>
      <trkpt lat="45.40151" lon="2.48549">
        <ele>712</ele>
        <time>2025-06-08T08:16:01.479Z</time>
      </trkpt>
      <trkpt lat="45.40151" lon="2.48551">
        <ele>712</ele>
        <time>2025-06-08T08:16:02.479Z</time>
      </trkpt>
      <trkpt lat="45.4015" lon="2.48553">
        <ele>713</ele>
        <time>2025-06-08T08:16:03.479Z</time>
      </trkpt>
      <trkpt lat="45.40149" lon="2.48555">
        <ele>713</ele>
        <time>2025-06-08T08:16:04.479Z</time>
      </trkpt>
      <trkpt lat="45.40148" lon="2.48556">
        <ele>714</ele>
        <time>2025-06-08T08:16:05.479Z</time>
      </trkpt>
      <trkpt lat="45.40147" lon="2.48557">
        <ele>714</ele>
        <time>2025-06-08T08:16:06.479Z</time>
      </trkpt>
      <trkpt lat="45.40147" lon="2.48557">
        <ele>714</ele>
        <time>2025-06-08T08:16:07.479Z</time>
      </trkpt>
      <trkpt lat="45.40146" lon="2.48558">
        <ele>715</ele>
        <time>2025-06-08T08:16:08.479Z</time>
      </trkpt>
      <trkpt lat="45.40145" lon="2.4856">
        <ele>715</ele>
        <time>2025-06-08T08:16:09.479Z</time>
      </trkpt>
      <trkpt lat="45.40144" lon="2.48561">
        <ele>716</ele>
        <time>2025-06-08T08:16:10.479Z</time>
      </trkpt>
      <trkpt lat="45.40144" lon="2.48561">
        <ele>716</ele>
        <time>2025-06-08T08:16:11.479Z</time>
      </trkpt>
      <trkpt lat="45.40144" lon="2.48562">
        <ele>717</ele>
        <time>2025-06-08T08:16:12.479Z</time>
      </trkpt>
      <trkpt lat="45.40143" lon="2.48563">
        <ele>718</ele>
        <time>2025-06-08T08:16:13.479Z</time>
      </trkpt>
      <trkpt lat="45.40142" lon="2.48564">
        <ele>718</ele>
        <time>2025-06-08T08:16:14.479Z</time>
      </trkpt>
      <trkpt lat="45.40142" lon="2.48565">
        <ele>719</ele>
        <time>2025-06-08T08:16:15.479Z</time>
      </trkpt>
      <trkpt lat="45.40141" lon="2.48566">
        <ele>719</ele>
        <time>2025-06-08T08:16:16.479Z</time>
      </trkpt>
      <trkpt lat="45.40141" lon="2.48566">
        <ele>720</ele>
        <time>2025-06-08T08:16:17.479Z</time>
      </trkpt>
      <trkpt lat="45.4014" lon="2.48567">
        <ele>720</ele>
        <time>2025-06-08T08:16:18.479Z</time>
      </trkpt>
      <trkpt lat="45.4014" lon="2.48569">
        <ele>720</ele>
        <time>2025-06-08T08:16:19.479Z</time>
      </trkpt>
      <trkpt lat="45.40138" lon="2.48571">
        <ele>720</ele>
        <time>2025-06-08T08:16:20.479Z</time>
      </trkpt>
      <trkpt lat="45.40137" lon="2.48573">
        <ele>720</ele>
        <time>2025-06-08T08:16:21.479Z</time>
      </trkpt>
      <trkpt lat="45.40136" lon="2.48574">
        <ele>720</ele>
        <time>2025-06-08T08:16:22.479Z</time>
      </trkpt>
      <trkpt lat="45.40135" lon="2.48575">
        <ele>720</ele>
        <time>2025-06-08T08:16:23.479Z</time>
      </trkpt>
      <trkpt lat="45.40134" lon="2.48576">
        <ele>719</ele>
        <time>2025-06-08T08:16:24.479Z</time>
      </trkpt>
      <trkpt lat="45.40134" lon="2.48576">
        <ele>719</ele>
        <time>2025-06-08T08:16:25.479Z</time>
      </trkpt>
      <trkpt lat="45.40134" lon="2.48576">
        <ele>719</ele>
        <time>2025-06-08T08:16:26.479Z</time>
      </trkpt>
      <trkpt lat="45.40134" lon="2.48574">
        <ele>719</ele>
        <time>2025-06-08T08:16:27.479Z</time>
      </trkpt>
      <trkpt lat="45.40132" lon="2.48572">
        <ele>719</ele>
        <time>2025-06-08T08:16:28.479Z</time>
      </trkpt>
      <trkpt lat="45.40132" lon="2.48571">
        <ele>719</ele>
        <time>2025-06-08T08:16:29.479Z</time>
      </trkpt>
      <trkpt lat="45.40132" lon="2.4857">
        <ele>718</ele>
        <time>2025-06-08T08:16:30.479Z</time>
      </trkpt>
      <trkpt lat="45.40131" lon="2.4857">
        <ele>718</ele>
        <time>2025-06-08T08:16:31.479Z</time>
      </trkpt>
      <trkpt lat="45.40131" lon="2.48569">
        <ele>718</ele>
        <time>2025-06-08T08:16:32.479Z</time>
      </trkpt>
      <trkpt lat="45.4013" lon="2.48568">
        <ele>718</ele>
        <time>2025-06-08T08:16:33.479Z</time>
      </trkpt>
      <trkpt lat="45.4013" lon="2.48568">
        <ele>718</ele>
        <time>2025-06-08T08:16:34.479Z</time>
      </trkpt>
      <trkpt lat="45.4013" lon="2.48567">
        <ele>718</ele>
        <time>2025-06-08T08:16:35.479Z</time>
      </trkpt>
      <trkpt lat="45.4013" lon="2.48567">
        <ele>718</ele>
        <time>2025-06-08T08:16:36.479Z</time>
      </trkpt>
      <trkpt lat="45.4013" lon="2.48567">
        <ele>718</ele>
        <time>2025-06-08T08:16:37.479Z</time>
      </trkpt>
      <trkpt lat="45.4013" lon="2.48567">
        <ele>719</ele>
        <time>2025-06-08T08:16:38.479Z</time>
      </trkpt>
      <trkpt lat="45.4013" lon="2.48567">
        <ele>719</ele>
        <time>2025-06-08T08:16:39.479Z</time>
      </trkpt>
      <trkpt lat="45.4013" lon="2.48567">
        <ele>719</ele>
        <time>2025-06-08T08:16:40.479Z</time>
      </trkpt>
      <trkpt lat="45.4013" lon="2.48567">
        <ele>719</ele>
        <time>2025-06-08T08:16:41.479Z</time>
      </trkpt>
      <trkpt lat="45.4013" lon="2.48567">
        <ele>719</ele>
        <time>2025-06-08T08:16:42.479Z</time>
      </trkpt>
      <trkpt lat="45.4013" lon="2.48567">
        <ele>719</ele>
        <time>2025-06-08T08:16:43.479Z</time>
      </trkpt>
      <trkpt lat="45.40129" lon="2.48567">
        <ele>719</ele>
        <time>2025-06-08T08:16:44.479Z</time>
      </trkpt>
      <trkpt lat="45.40129" lon="2.48567">
        <ele>719</ele>
        <time>2025-06-08T08:16:45.479Z</time>
      </trkpt>
      <trkpt lat="45.40129" lon="2.48567">
        <ele>719</ele>
        <time>2025-06-08T08:16:46.479Z</time>
      </trkpt>
      <trkpt lat="45.40129" lon="2.48567">
        <ele>719</ele>
        <time>2025-06-08T08:16:47.479Z</time>
      </trkpt>
      <trkpt lat="45.40129" lon="2.48567">
        <ele>719</ele>
        <time>2025-06-08T08:16:48.479Z</time>
      </trkpt>
      <trkpt lat="45.4013" lon="2.48567">
        <ele>719</ele>
        <time>2025-06-08T08:16:49.479Z</time>
      </trkpt>
      <trkpt lat="45.40129" lon="2.48567">
        <ele>719</ele>
        <time>2025-06-08T08:16:50.479Z</time>
      </trkpt>
      <trkpt lat="45.40129" lon="2.48568">
        <ele>719</ele>
        <time>2025-06-08T08:16:51.479Z</time>
      </trkpt>
      <trkpt lat="45.40129" lon="2.48567">
        <ele>720</ele>
        <time>2025-06-08T08:16:52.479Z</time>
      </trkpt>
      <trkpt lat="45.40129" lon="2.48568">
        <ele>720</ele>
        <time>2025-06-08T08:16:53.479Z</time>
      </trkpt>
      <trkpt lat="45.40129" lon="2.48568">
        <ele>720</ele>
        <time>2025-06-08T08:16:54.479Z</time>
      </trkpt>
      <trkpt lat="45.40129" lon="2.48568">
        <ele>721</ele>
        <time>2025-06-08T08:16:55.479Z</time>
      </trkpt>
      <trkpt lat="45.4013" lon="2.48568">
        <ele>721</ele>
        <time>2025-06-08T08:16:56.479Z</time>
      </trkpt>
      <trkpt lat="45.4013" lon="2.48568">
        <ele>722</ele>
        <time>2025-06-08T08:16:57.479Z</time>
      </trkpt>
      <trkpt lat="45.4013" lon="2.48568">
        <ele>722</ele>
        <time>2025-06-08T08:16:58.479Z</time>
      </trkpt>
      <trkpt lat="45.40129" lon="2.48568">
        <ele>723</ele>
        <time>2025-06-08T08:16:59.479Z</time>
      </trkpt>
      <trkpt lat="45.40129" lon="2.48569">
        <ele>724</ele>
        <time>2025-06-08T08:17:00.479Z</time>
      </trkpt>
      <trkpt lat="45.40129" lon="2.48569">
        <ele>724</ele>
        <time>2025-06-08T08:17:01.479Z</time>
      </trkpt>
      <trkpt lat="45.40129" lon="2.48569">
        <ele>724</ele>
        <time>2025-06-08T08:17:02.479Z</time>
      </trkpt>
      <trkpt lat="45.40129" lon="2.48568">
        <ele>724</ele>
        <time>2025-06-08T08:17:03.479Z</time>
      </trkpt>
      <trkpt lat="45.40129" lon="2.48568">
        <ele>724</ele>
        <time>2025-06-08T08:17:04.479Z</time>
      </trkpt>
      <trkpt lat="45.40128" lon="2.48567">
        <ele>725</ele>
        <time>2025-06-08T08:17:05.479Z</time>
      </trkpt>
      <trkpt lat="45.40128" lon="2.48566">
        <ele>725</ele>
        <time>2025-06-08T08:17:06.479Z</time>
      </trkpt>
      <trkpt lat="45.40128" lon="2.48566">
        <ele>725</ele>
        <time>2025-06-08T08:17:07.479Z</time>
      </trkpt>
      <trkpt lat="45.40128" lon="2.48566">
        <ele>725</ele>
        <time>2025-06-08T08:17:08.479Z</time>
      </trkpt>
      <trkpt lat="45.40128" lon="2.48566">
        <ele>726</ele>
        <time>2025-06-08T08:17:09.479Z</time>
      </trkpt>
      <trkpt lat="45.40128" lon="2.48567">
        <ele>726</ele>
        <time>2025-06-08T08:17:10.479Z</time>
      </trkpt>
      <trkpt lat="45.40128" lon="2.48567">
        <ele>727</ele>
        <time>2025-06-08T08:17:11.479Z</time>
      </trkpt>
      <trkpt lat="45.40128" lon="2.48567">
        <ele>728</ele>
        <time>2025-06-08T08:17:12.479Z</time>
      </trkpt>
      <trkpt lat="45.40128" lon="2.48567">
        <ele>729</ele>
        <time>2025-06-08T08:17:13.479Z</time>
      </trkpt>
      <trkpt lat="45.40129" lon="2.48567">
        <ele>730</ele>
        <time>2025-06-08T08:17:14.479Z</time>
      </trkpt>
      <trkpt lat="45.40129" lon="2.48568">
        <ele>731</ele>
        <time>2025-06-08T08:17:15.479Z</time>
      </trkpt>
      <trkpt lat="45.40129" lon="2.48568">
        <ele>731</ele>
        <time>2025-06-08T08:17:16.479Z</time>
      </trkpt>
      <trkpt lat="45.40129" lon="2.48567">
        <ele>732</ele>
        <time>2025-06-08T08:17:17.479Z</time>
      </trkpt>
      <trkpt lat="45.40129" lon="2.48568">
        <ele>732</ele>
        <time>2025-06-08T08:17:18.479Z</time>
      </trkpt>
      <trkpt lat="45.40129" lon="2.48568">
        <ele>733</ele>
        <time>2025-06-08T08:17:19.479Z</time>
      </trkpt>
      <trkpt lat="45.40129" lon="2.48568">
        <ele>734</ele>
        <time>2025-06-08T08:17:20.479Z</time>
      </trkpt>
      <trkpt lat="45.40129" lon="2.48568">
        <ele>734</ele>
        <time>2025-06-08T08:17:21.479Z</time>
      </trkpt>
      <trkpt lat="45.40129" lon="2.48568">
        <ele>735</ele>
        <time>2025-06-08T08:17:22.479Z</time>
      </trkpt>
      <trkpt lat="45.40128" lon="2.48567">
        <ele>735</ele>
        <time>2025-06-08T08:17:23.479Z</time>
      </trkpt>
      <trkpt lat="45.40128" lon="2.48566">
        <ele>735</ele>
        <time>2025-06-08T08:17:24.479Z</time>
      </trkpt>
      <trkpt lat="45.40127" lon="2.48565">
        <ele>735</ele>
        <time>2025-06-08T08:17:25.479Z</time>
      </trkpt>
      <trkpt lat="45.40127" lon="2.48565">
        <ele>735</ele>
        <time>2025-06-08T08:17:26.479Z</time>
      </trkpt>
      <trkpt lat="45.40127" lon="2.48565">
        <ele>736</ele>
        <time>2025-06-08T08:17:27.479Z</time>
      </trkpt>
      <trkpt lat="45.40127" lon="2.48566">
        <ele>736</ele>
        <time>2025-06-08T08:17:28.479Z</time>
      </trkpt>
      <trkpt lat="45.40126" lon="2.48566">
        <ele>735</ele>
        <time>2025-06-08T08:17:29.479Z</time>
      </trkpt>
      <trkpt lat="45.40126" lon="2.48566">
        <ele>735</ele>
        <time>2025-06-08T08:17:30.479Z</time>
      </trkpt>
      <trkpt lat="45.40126" lon="2.48566">
        <ele>734</ele>
        <time>2025-06-08T08:17:31.479Z</time>
      </trkpt>
      <trkpt lat="45.40126" lon="2.48566">
        <ele>734</ele>
        <time>2025-06-08T08:17:32.479Z</time>
      </trkpt>
      <trkpt lat="45.40126" lon="2.48566">
        <ele>734</ele>
        <time>2025-06-08T08:17:33.479Z</time>
      </trkpt>
      <trkpt lat="45.40126" lon="2.48567">
        <ele>733</ele>
        <time>2025-06-08T08:17:34.479Z</time>
      </trkpt>
      <trkpt lat="45.40126" lon="2.48567">
        <ele>733</ele>
        <time>2025-06-08T08:17:35.479Z</time>
      </trkpt>
      <trkpt lat="45.40125" lon="2.48567">
        <ele>733</ele>
        <time>2025-06-08T08:17:36.479Z</time>
      </trkpt>
      <trkpt lat="45.40125" lon="2.48567">
        <ele>732</ele>
        <time>2025-06-08T08:17:37.479Z</time>
      </trkpt>
      <trkpt lat="45.40124" lon="2.48566">
        <ele>732</ele>
        <time>2025-06-08T08:17:38.479Z</time>
      </trkpt>
      <trkpt lat="45.40124" lon="2.48567">
        <ele>732</ele>
        <time>2025-06-08T08:17:39.479Z</time>
      </trkpt>
      <trkpt lat="45.40124" lon="2.48566">
        <ele>731</ele>
        <time>2025-06-08T08:17:40.479Z</time>
      </trkpt>
      <trkpt lat="45.40124" lon="2.48566">
        <ele>731</ele>
        <time>2025-06-08T08:17:41.479Z</time>
      </trkpt>
      <trkpt lat="45.40124" lon="2.48566">
        <ele>731</ele>
        <time>2025-06-08T08:17:42.479Z</time>
      </trkpt>
      <trkpt lat="45.40124" lon="2.48566">
        <ele>731</ele>
        <time>2025-06-08T08:17:43.479Z</time>
      </trkpt>
      <trkpt lat="45.40125" lon="2.48566">
        <ele>731</ele>
        <time>2025-06-08T08:17:44.479Z</time>
      </trkpt>
      <trkpt lat="45.40125" lon="2.48566">
        <ele>731</ele>
        <time>2025-06-08T08:17:45.479Z</time>
      </trkpt>
      <trkpt lat="45.40125" lon="2.48566">
        <ele>730</ele>
        <time>2025-06-08T08:17:46.479Z</time>
      </trkpt>
      <trkpt lat="45.40125" lon="2.48567">
        <ele>730</ele>
        <time>2025-06-08T08:17:47.479Z</time>
      </trkpt>
      <trkpt lat="45.40125" lon="2.48567">
        <ele>729</ele>
        <time>2025-06-08T08:17:48.479Z</time>
      </trkpt>
      <trkpt lat="45.40125" lon="2.48567">
        <ele>729</ele>
        <time>2025-06-08T08:17:49.479Z</time>
      </trkpt>
      <trkpt lat="45.40125" lon="2.48567">
        <ele>728</ele>
        <time>2025-06-08T08:17:50.479Z</time>
      </trkpt>
      <trkpt lat="45.40125" lon="2.48567">
        <ele>728</ele>
        <time>2025-06-08T08:17:51.479Z</time>
      </trkpt>
      <trkpt lat="45.40125" lon="2.48567">
        <ele>727</ele>
        <time>2025-06-08T08:17:52.479Z</time>
      </trkpt>
      <trkpt lat="45.40125" lon="2.48567">
        <ele>727</ele>
        <time>2025-06-08T08:17:53.479Z</time>
      </trkpt>
      <trkpt lat="45.40125" lon="2.48568">
        <ele>727</ele>
        <time>2025-06-08T08:17:54.479Z</time>
      </trkpt>
      <trkpt lat="45.40125" lon="2.48568">
        <ele>727</ele>
        <time>2025-06-08T08:17:55.479Z</time>
      </trkpt>
      <trkpt lat="45.40125" lon="2.48568">
        <ele>726</ele>
        <time>2025-06-08T08:17:56.479Z</time>
      </trkpt>
      <trkpt lat="45.40125" lon="2.48568">
        <ele>726</ele>
        <time>2025-06-08T08:17:57.479Z</time>
      </trkpt>
      <trkpt lat="45.40125" lon="2.48568">
        <ele>725</ele>
        <time>2025-06-08T08:17:58.479Z</time>
      </trkpt>
      <trkpt lat="45.40125" lon="2.48567">
        <ele>725</ele>
        <time>2025-06-08T08:17:59.479Z</time>
      </trkpt>
      <trkpt lat="45.40125" lon="2.48567">
        <ele>725</ele>
        <time>2025-06-08T08:18:00.479Z</time>
      </trkpt>
      <trkpt lat="45.40125" lon="2.48567">
        <ele>725</ele>
        <time>2025-06-08T08:18:01.479Z</time>
      </trkpt>
      <trkpt lat="45.40124" lon="2.48567">
        <ele>726</ele>
        <time>2025-06-08T08:18:02.479Z</time>
      </trkpt>
      <trkpt lat="45.40124" lon="2.48567">
        <ele>726</ele>
        <time>2025-06-08T08:18:03.479Z</time>
      </trkpt>
      <trkpt lat="45.40123" lon="2.48567">
        <ele>726</ele>
        <time>2025-06-08T08:18:04.479Z</time>
      </trkpt>
      <trkpt lat="45.40123" lon="2.48567">
        <ele>726</ele>
        <time>2025-06-08T08:18:05.479Z</time>
      </trkpt>
      <trkpt lat="45.40123" lon="2.48567">
        <ele>726</ele>
        <time>2025-06-08T08:18:06.479Z</time>
      </trkpt>
      <trkpt lat="45.40122" lon="2.48566">
        <ele>727</ele>
        <time>2025-06-08T08:18:07.479Z</time>
      </trkpt>
      <trkpt lat="45.40122" lon="2.48566">
        <ele>728</ele>
        <time>2025-06-08T08:18:08.479Z</time>
      </trkpt>
      <trkpt lat="45.40122" lon="2.48566">
        <ele>729</ele>
        <time>2025-06-08T08:18:09.479Z</time>
      </trkpt>
      <trkpt lat="45.40122" lon="2.48566">
        <ele>730</ele>
        <time>2025-06-08T08:18:10.479Z</time>
      </trkpt>
      <trkpt lat="45.4012" lon="2.48565">
        <ele>730</ele>
        <time>2025-06-08T08:18:11.479Z</time>
      </trkpt>
      <trkpt lat="45.4012" lon="2.48565">
        <ele>731</ele>
        <time>2025-06-08T08:18:12.479Z</time>
      </trkpt>
      <trkpt lat="45.4012" lon="2.48565">
        <ele>732</ele>
        <time>2025-06-08T08:18:13.479Z</time>
      </trkpt>
      <trkpt lat="45.4012" lon="2.48565">
        <ele>733</ele>
        <time>2025-06-08T08:18:14.479Z</time>
      </trkpt>
      <trkpt lat="45.4012" lon="2.48565">
        <ele>733</ele>
        <time>2025-06-08T08:18:15.479Z</time>
      </trkpt>
      <trkpt lat="45.4012" lon="2.48565">
        <ele>733</ele>
        <time>2025-06-08T08:18:16.479Z</time>
      </trkpt>
      <trkpt lat="45.4012" lon="2.48565">
        <ele>733</ele>
        <time>2025-06-08T08:18:17.479Z</time>
      </trkpt>
      <trkpt lat="45.4012" lon="2.48565">
        <ele>734</ele>
        <time>2025-06-08T08:18:18.479Z</time>
      </trkpt>
      <trkpt lat="45.4012" lon="2.48565">
        <ele>734</ele>
        <time>2025-06-08T08:18:19.479Z</time>
      </trkpt>
      <trkpt lat="45.4012" lon="2.48563">
        <ele>734</ele>
        <time>2025-06-08T08:18:20.479Z</time>
      </trkpt>
      <trkpt lat="45.40119" lon="2.48563">
        <ele>735</ele>
        <time>2025-06-08T08:18:21.479Z</time>
      </trkpt>
      <trkpt lat="45.40119" lon="2.48563">
        <ele>736</ele>
        <time>2025-06-08T08:18:22.479Z</time>
      </trkpt>
      <trkpt lat="45.40119" lon="2.48563">
        <ele>736</ele>
        <time>2025-06-08T08:18:23.479Z</time>
      </trkpt>
      <trkpt lat="45.40119" lon="2.48562">
        <ele>737</ele>
        <time>2025-06-08T08:18:24.479Z</time>
      </trkpt>
      <trkpt lat="45.40119" lon="2.48561">
        <ele>738</ele>
        <time>2025-06-08T08:18:25.479Z</time>
      </trkpt>
      <trkpt lat="45.40118" lon="2.4856">
        <ele>739</ele>
        <time>2025-06-08T08:18:26.479Z</time>
      </trkpt>
      <trkpt lat="45.40118" lon="2.4856">
        <ele>739</ele>
        <time>2025-06-08T08:18:27.479Z</time>
      </trkpt>
      <trkpt lat="45.40118" lon="2.4856">
        <ele>739</ele>
        <time>2025-06-08T08:18:28.479Z</time>
      </trkpt>
      <trkpt lat="45.40118" lon="2.4856">
        <ele>740</ele>
        <time>2025-06-08T08:18:29.479Z</time>
      </trkpt>
      <trkpt lat="45.40118" lon="2.4856">
        <ele>740</ele>
        <time>2025-06-08T08:18:30.479Z</time>
      </trkpt>
      <trkpt lat="45.40118" lon="2.4856">
        <ele>740</ele>
        <time>2025-06-08T08:18:31.479Z</time>
      </trkpt>
      <trkpt lat="45.40117" lon="2.48559">
        <ele>741</ele>
        <time>2025-06-08T08:18:32.479Z</time>
      </trkpt>
      <trkpt lat="45.40116" lon="2.48558">
        <ele>741</ele>
        <time>2025-06-08T08:18:33.479Z</time>
      </trkpt>
      <trkpt lat="45.40116" lon="2.48557">
        <ele>742</ele>
        <time>2025-06-08T08:18:34.479Z</time>
      </trkpt>
      <trkpt lat="45.40116" lon="2.48557">
        <ele>742</ele>
        <time>2025-06-08T08:18:35.479Z</time>
      </trkpt>
      <trkpt lat="45.40116" lon="2.48557">
        <ele>742</ele>
        <time>2025-06-08T08:18:36.479Z</time>
      </trkpt>
      <trkpt lat="45.40116" lon="2.48557">
        <ele>742</ele>
        <time>2025-06-08T08:18:37.479Z</time>
      </trkpt>
      <trkpt lat="45.40116" lon="2.48556">
        <ele>743</ele>
        <time>2025-06-08T08:18:38.479Z</time>
      </trkpt>
      <trkpt lat="45.40116" lon="2.48556">
        <ele>743</ele>
        <time>2025-06-08T08:18:39.479Z</time>
      </trkpt>
      <trkpt lat="45.40116" lon="2.48556">
        <ele>743</ele>
        <time>2025-06-08T08:18:40.479Z</time>
      </trkpt>
      <trkpt lat="45.40116" lon="2.48556">
        <ele>743</ele>
        <time>2025-06-08T08:18:41.479Z</time>
      </trkpt>
      <trkpt lat="45.40117" lon="2.48556">
        <ele>742</ele>
        <time>2025-06-08T08:18:42.479Z</time>
      </trkpt>
      <trkpt lat="45.40117" lon="2.48556">
        <ele>742</ele>
        <time>2025-06-08T08:18:43.479Z</time>
      </trkpt>
      <trkpt lat="45.40116" lon="2.48556">
        <ele>742</ele>
        <time>2025-06-08T08:18:44.479Z</time>
      </trkpt>
      <trkpt lat="45.40116" lon="2.48555">
        <ele>741</ele>
        <time>2025-06-08T08:18:45.479Z</time>
      </trkpt>
      <trkpt lat="45.40116" lon="2.48555">
        <ele>741</ele>
        <time>2025-06-08T08:18:46.479Z</time>
      </trkpt>
      <trkpt lat="45.40116" lon="2.48555">
        <ele>740</ele>
        <time>2025-06-08T08:18:47.479Z</time>
      </trkpt>
      <trkpt lat="45.40116" lon="2.48555">
        <ele>740</ele>
        <time>2025-06-08T08:18:48.479Z</time>
      </trkpt>
      <trkpt lat="45.40116" lon="2.48556">
        <ele>740</ele>
        <time>2025-06-08T08:18:49.479Z</time>
      </trkpt>
      <trkpt lat="45.40116" lon="2.48555">
        <ele>739</ele>
        <time>2025-06-08T08:18:50.479Z</time>
      </trkpt>
      <trkpt lat="45.40116" lon="2.48556">
        <ele>739</ele>
        <time>2025-06-08T08:18:51.479Z</time>
      </trkpt>
      <trkpt lat="45.40117" lon="2.48556">
        <ele>739</ele>
        <time>2025-06-08T08:18:52.479Z</time>
      </trkpt>
      <trkpt lat="45.40117" lon="2.48556">
        <ele>740</ele>
        <time>2025-06-08T08:18:53.479Z</time>
      </trkpt>
      <trkpt lat="45.40117" lon="2.48556">
        <ele>740</ele>
        <time>2025-06-08T08:18:54.479Z</time>
      </trkpt>
      <trkpt lat="45.40117" lon="2.48556">
        <ele>740</ele>
        <time>2025-06-08T08:18:55.479Z</time>
      </trkpt>
      <trkpt lat="45.40117" lon="2.48557">
        <ele>741</ele>
        <time>2025-06-08T08:18:56.479Z</time>
      </trkpt>
      <trkpt lat="45.40117" lon="2.48557">
        <ele>741</ele>
        <time>2025-06-08T08:18:57.479Z</time>
      </trkpt>
      <trkpt lat="45.40117" lon="2.48558">
        <ele>740</ele>
        <time>2025-06-08T08:18:58.479Z</time>
      </trkpt>
      <trkpt lat="45.40117" lon="2.48558">
        <ele>740</ele>
        <time>2025-06-08T08:18:59.479Z</time>
      </trkpt>
      <trkpt lat="45.40117" lon="2.48558">
        <ele>739</ele>
        <time>2025-06-08T08:19:00.479Z</time>
      </trkpt>
      <trkpt lat="45.40117" lon="2.48557">
        <ele>739</ele>
        <time>2025-06-08T08:19:01.479Z</time>
      </trkpt>
      <trkpt lat="45.40117" lon="2.48557">
        <ele>739</ele>
        <time>2025-06-08T08:19:02.479Z</time>
      </trkpt>
      <trkpt lat="45.40117" lon="2.48557">
        <ele>739</ele>
        <time>2025-06-08T08:19:03.479Z</time>
      </trkpt>
      <trkpt lat="45.40117" lon="2.48557">
        <ele>739</ele>
        <time>2025-06-08T08:19:04.479Z</time>
      </trkpt>
      <trkpt lat="45.40117" lon="2.48557">
        <ele>739</ele>
        <time>2025-06-08T08:19:05.479Z</time>
      </trkpt>
      <trkpt lat="45.40117" lon="2.48556">
        <ele>739</ele>
        <time>2025-06-08T08:19:06.479Z</time>
      </trkpt>
      <trkpt lat="45.40117" lon="2.48556">
        <ele>739</ele>
        <time>2025-06-08T08:19:07.479Z</time>
      </trkpt>
      <trkpt lat="45.40116" lon="2.48556">
        <ele>739</ele>
        <time>2025-06-08T08:19:08.479Z</time>
      </trkpt>
      <trkpt lat="45.40117" lon="2.48556">
        <ele>739</ele>
        <time>2025-06-08T08:19:09.479Z</time>
      </trkpt>
      <trkpt lat="45.40117" lon="2.48557">
        <ele>740</ele>
        <time>2025-06-08T08:19:10.479Z</time>
      </trkpt>
      <trkpt lat="45.40117" lon="2.48557">
        <ele>740</ele>
        <time>2025-06-08T08:19:11.479Z</time>
      </trkpt>
      <trkpt lat="45.40117" lon="2.48557">
        <ele>740</ele>
        <time>2025-06-08T08:19:12.479Z</time>
      </trkpt>
      <trkpt lat="45.40117" lon="2.48557">
        <ele>740</ele>
        <time>2025-06-08T08:19:13.479Z</time>
      </trkpt>
      <trkpt lat="45.40117" lon="2.48555">
        <ele>740</ele>
        <time>2025-06-08T08:19:14.479Z</time>
      </trkpt>
      <trkpt lat="45.40117" lon="2.48554">
        <ele>740</ele>
        <time>2025-06-08T08:19:15.479Z</time>
      </trkpt>
      <trkpt lat="45.40117" lon="2.48555">
        <ele>740</ele>
        <time>2025-06-08T08:19:16.479Z</time>
      </trkpt>
      <trkpt lat="45.40117" lon="2.48554">
        <ele>740</ele>
        <time>2025-06-08T08:19:17.479Z</time>
      </trkpt>
      <trkpt lat="45.40116" lon="2.48552">
        <ele>740</ele>
        <time>2025-06-08T08:19:18.479Z</time>
      </trkpt>
      <trkpt lat="45.40116" lon="2.48552">
        <ele>740</ele>
        <time>2025-06-08T08:19:19.479Z</time>
      </trkpt>
      <trkpt lat="45.40117" lon="2.48551">
        <ele>741</ele>
        <time>2025-06-08T08:19:20.479Z</time>
      </trkpt>
      <trkpt lat="45.40117" lon="2.48549">
        <ele>741</ele>
        <time>2025-06-08T08:19:21.479Z</time>
      </trkpt>
      <trkpt lat="45.40116" lon="2.48548">
        <ele>741</ele>
        <time>2025-06-08T08:19:22.479Z</time>
      </trkpt>
      <trkpt lat="45.40117" lon="2.48548">
        <ele>741</ele>
        <time>2025-06-08T08:19:23.479Z</time>
      </trkpt>
      <trkpt lat="45.40117" lon="2.48547">
        <ele>742</ele>
        <time>2025-06-08T08:19:24.479Z</time>
      </trkpt>
      <trkpt lat="45.40118" lon="2.48548">
        <ele>742</ele>
        <time>2025-06-08T08:19:25.479Z</time>
      </trkpt>
      <trkpt lat="45.4012" lon="2.48549">
        <ele>742</ele>
        <time>2025-06-08T08:19:26.479Z</time>
      </trkpt>
      <trkpt lat="45.4012" lon="2.4855">
        <ele>742</ele>
        <time>2025-06-08T08:19:27.479Z</time>
      </trkpt>
      <trkpt lat="45.40121" lon="2.48551">
        <ele>742</ele>
        <time>2025-06-08T08:19:28.479Z</time>
      </trkpt>
      <trkpt lat="45.40122" lon="2.48551">
        <ele>742</ele>
        <time>2025-06-08T08:19:29.479Z</time>
      </trkpt>
      <trkpt lat="45.40122" lon="2.48552">
        <ele>741</ele>
        <time>2025-06-08T08:19:30.479Z</time>
      </trkpt>
      <trkpt lat="45.40122" lon="2.48551">
        <ele>741</ele>
        <time>2025-06-08T08:19:31.479Z</time>
      </trkpt>
      <trkpt lat="45.40122" lon="2.48551">
        <ele>740</ele>
        <time>2025-06-08T08:19:32.479Z</time>
      </trkpt>
      <trkpt lat="45.40122" lon="2.48551">
        <ele>739</ele>
        <time>2025-06-08T08:19:33.479Z</time>
      </trkpt>
      <trkpt lat="45.40121" lon="2.48551">
        <ele>738</ele>
        <time>2025-06-08T08:19:34.479Z</time>
      </trkpt>
      <trkpt lat="45.40122" lon="2.48551">
        <ele>737</ele>
        <time>2025-06-08T08:19:35.479Z</time>
      </trkpt>
      <trkpt lat="45.40121" lon="2.48551">
        <ele>736</ele>
        <time>2025-06-08T08:19:36.479Z</time>
      </trkpt>
      <trkpt lat="45.40121" lon="2.48551">
        <ele>735</ele>
        <time>2025-06-08T08:19:37.479Z</time>
      </trkpt>
      <trkpt lat="45.40121" lon="2.48551">
        <ele>735</ele>
        <time>2025-06-08T08:19:38.479Z</time>
      </trkpt>
      <trkpt lat="45.40121" lon="2.48551">
        <ele>734</ele>
        <time>2025-06-08T08:19:39.479Z</time>
      </trkpt>
      <trkpt lat="45.40121" lon="2.48552">
        <ele>734</ele>
        <time>2025-06-08T08:19:40.479Z</time>
      </trkpt>
      <trkpt lat="45.40121" lon="2.48552">
        <ele>733</ele>
        <time>2025-06-08T08:19:41.479Z</time>
      </trkpt>
      <trkpt lat="45.40122" lon="2.48552">
        <ele>732</ele>
        <time>2025-06-08T08:19:42.479Z</time>
      </trkpt>
      <trkpt lat="45.40122" lon="2.48552">
        <ele>732</ele>
        <time>2025-06-08T08:19:43.479Z</time>
      </trkpt>
      <trkpt lat="45.40122" lon="2.48552">
        <ele>731</ele>
        <time>2025-06-08T08:19:44.479Z</time>
      </trkpt>
      <trkpt lat="45.40122" lon="2.48552">
        <ele>731</ele>
        <time>2025-06-08T08:19:45.479Z</time>
      </trkpt>
      <trkpt lat="45.40122" lon="2.48552">
        <ele>730</ele>
        <time>2025-06-08T08:19:46.479Z</time>
      </trkpt>
      <trkpt lat="45.40122" lon="2.48552">
        <ele>730</ele>
        <time>2025-06-08T08:19:47.479Z</time>
      </trkpt>
      <trkpt lat="45.40122" lon="2.48552">
        <ele>729</ele>
        <time>2025-06-08T08:19:48.479Z</time>
      </trkpt>
      <trkpt lat="45.40121" lon="2.48551">
        <ele>729</ele>
        <time>2025-06-08T08:19:49.479Z</time>
      </trkpt>
      <trkpt lat="45.40121" lon="2.48551">
        <ele>728</ele>
        <time>2025-06-08T08:19:50.479Z</time>
      </trkpt>
      <trkpt lat="45.40121" lon="2.48551">
        <ele>728</ele>
        <time>2025-06-08T08:19:51.479Z</time>
      </trkpt>
      <trkpt lat="45.40122" lon="2.48551">
        <ele>728</ele>
        <time>2025-06-08T08:19:52.479Z</time>
      </trkpt>
      <trkpt lat="45.40122" lon="2.48551">
        <ele>728</ele>
        <time>2025-06-08T08:19:53.479Z</time>
      </trkpt>
      <trkpt lat="45.40122" lon="2.48551">
        <ele>728</ele>
        <time>2025-06-08T08:19:54.479Z</time>
      </trkpt>
      <trkpt lat="45.40122" lon="2.48551">
        <ele>728</ele>
        <time>2025-06-08T08:19:55.479Z</time>
      </trkpt>
      <trkpt lat="45.40122" lon="2.48551">
        <ele>728</ele>
        <time>2025-06-08T08:19:56.479Z</time>
      </trkpt>
      <trkpt lat="45.40122" lon="2.48551">
        <ele>727</ele>
        <time>2025-06-08T08:19:57.479Z</time>
      </trkpt>
      <trkpt lat="45.40122" lon="2.48551">
        <ele>727</ele>
        <time>2025-06-08T08:19:58.479Z</time>
      </trkpt>
      <trkpt lat="45.40122" lon="2.48551">
        <ele>727</ele>
        <time>2025-06-08T08:19:59.479Z</time>
      </trkpt>
      <trkpt lat="45.40122" lon="2.48551">
        <ele>726</ele>
        <time>2025-06-08T08:20:00.479Z</time>
      </trkpt>
      <trkpt lat="45.40122" lon="2.48551">
        <ele>725</ele>
        <time>2025-06-08T08:20:01.479Z</time>
      </trkpt>
      <trkpt lat="45.40122" lon="2.48551">
        <ele>725</ele>
        <time>2025-06-08T08:20:02.479Z</time>
      </trkpt>
      <trkpt lat="45.40122" lon="2.48551">
        <ele>724</ele>
        <time>2025-06-08T08:20:03.479Z</time>
      </trkpt>
      <trkpt lat="45.40122" lon="2.48551">
        <ele>723</ele>
        <time>2025-06-08T08:20:04.479Z</time>
      </trkpt>
      <trkpt lat="45.40122" lon="2.48551">
        <ele>723</ele>
        <time>2025-06-08T08:20:05.479Z</time>
      </trkpt>
      <trkpt lat="45.40122" lon="2.48551">
        <ele>722</ele>
        <time>2025-06-08T08:20:06.479Z</time>
      </trkpt>
      <trkpt lat="45.40122" lon="2.48552">
        <ele>722</ele>
        <time>2025-06-08T08:20:07.479Z</time>
      </trkpt>
      <trkpt lat="45.40122" lon="2.48553">
        <ele>722</ele>
        <time>2025-06-08T08:20:08.479Z</time>
      </trkpt>
      <trkpt lat="45.40122" lon="2.48553">
        <ele>722</ele>
        <time>2025-06-08T08:20:09.479Z</time>
      </trkpt>
      <trkpt lat="45.40122" lon="2.48553">
        <ele>723</ele>
        <time>2025-06-08T08:20:10.479Z</time>
      </trkpt>
      <trkpt lat="45.40122" lon="2.48553">
        <ele>723</ele>
        <time>2025-06-08T08:20:11.479Z</time>
      </trkpt>
      <trkpt lat="45.40123" lon="2.48554">
        <ele>723</ele>
        <time>2025-06-08T08:20:12.479Z</time>
      </trkpt>
      <trkpt lat="45.40123" lon="2.48554">
        <ele>723</ele>
        <time>2025-06-08T08:20:13.479Z</time>
      </trkpt>
      <trkpt lat="45.40122" lon="2.48554">
        <ele>724</ele>
        <time>2025-06-08T08:20:14.479Z</time>
      </trkpt>
      <trkpt lat="45.40122" lon="2.48553">
        <ele>724</ele>
        <time>2025-06-08T08:20:15.479Z</time>
      </trkpt>
      <trkpt lat="45.40121" lon="2.48552">
        <ele>724</ele>
        <time>2025-06-08T08:20:16.479Z</time>
      </trkpt>
      <trkpt lat="45.40121" lon="2.48552">
        <ele>725</ele>
        <time>2025-06-08T08:20:17.479Z</time>
      </trkpt>
      <trkpt lat="45.40121" lon="2.48552">
        <ele>725</ele>
        <time>2025-06-08T08:20:18.479Z</time>
      </trkpt>
      <trkpt lat="45.40121" lon="2.48552">
        <ele>725</ele>
        <time>2025-06-08T08:20:19.479Z</time>
      </trkpt>
      <trkpt lat="45.40121" lon="2.48552">
        <ele>725</ele>
        <time>2025-06-08T08:20:20.479Z</time>
      </trkpt>
      <trkpt lat="45.4012" lon="2.48553">
        <ele>725</ele>
        <time>2025-06-08T08:20:21.479Z</time>
      </trkpt>
      <trkpt lat="45.40119" lon="2.48553">
        <ele>726</ele>
        <time>2025-06-08T08:20:22.479Z</time>
      </trkpt>
      <trkpt lat="45.40118" lon="2.48553">
        <ele>726</ele>
        <time>2025-06-08T08:20:23.479Z</time>
      </trkpt>
      <trkpt lat="45.40117" lon="2.48553">
        <ele>726</ele>
        <time>2025-06-08T08:20:24.479Z</time>
      </trkpt>
      <trkpt lat="45.40117" lon="2.48553">
        <ele>726</ele>
        <time>2025-06-08T08:20:25.479Z</time>
      </trkpt>
      <trkpt lat="45.40117" lon="2.48553">
        <ele>726</ele>
        <time>2025-06-08T08:20:26.479Z</time>
      </trkpt>
      <trkpt lat="45.40117" lon="2.48554">
        <ele>726</ele>
        <time>2025-06-08T08:20:27.479Z</time>
      </trkpt>
      <trkpt lat="45.40117" lon="2.48554">
        <ele>726</ele>
        <time>2025-06-08T08:20:28.479Z</time>
      </trkpt>
      <trkpt lat="45.40117" lon="2.48554">
        <ele>726</ele>
        <time>2025-06-08T08:20:29.479Z</time>
      </trkpt>
      <trkpt lat="45.40115" lon="2.48553">
        <ele>726</ele>
        <time>2025-06-08T08:20:30.479Z</time>
      </trkpt>
      <trkpt lat="45.40115" lon="2.48553">
        <ele>727</ele>
        <time>2025-06-08T08:20:31.479Z</time>
      </trkpt>
      <trkpt lat="45.40115" lon="2.48553">
        <ele>727</ele>
        <time>2025-06-08T08:20:32.479Z</time>
      </trkpt>
      <trkpt lat="45.40115" lon="2.48553">
        <ele>727</ele>
        <time>2025-06-08T08:20:33.479Z</time>
      </trkpt>
      <trkpt lat="45.40115" lon="2.48554">
        <ele>727</ele>
        <time>2025-06-08T08:20:34.479Z</time>
      </trkpt>
      <trkpt lat="45.40115" lon="2.48555">
        <ele>727</ele>
        <time>2025-06-08T08:20:35.479Z</time>
      </trkpt>
      <trkpt lat="45.40116" lon="2.48557">
        <ele>727</ele>
        <time>2025-06-08T08:20:36.479Z</time>
      </trkpt>
      <trkpt lat="45.40117" lon="2.48558">
        <ele>727</ele>
        <time>2025-06-08T08:20:37.479Z</time>
      </trkpt>
      <trkpt lat="45.40117" lon="2.4856">
        <ele>728</ele>
        <time>2025-06-08T08:20:38.479Z</time>
      </trkpt>
      <trkpt lat="45.40117" lon="2.48561">
        <ele>727</ele>
        <time>2025-06-08T08:20:39.479Z</time>
      </trkpt>
      <trkpt lat="45.40117" lon="2.48561">
        <ele>727</ele>
        <time>2025-06-08T08:20:40.479Z</time>
      </trkpt>
      <trkpt lat="45.40117" lon="2.48561">
        <ele>727</ele>
        <time>2025-06-08T08:20:41.479Z</time>
      </trkpt>
      <trkpt lat="45.40116" lon="2.48562">
        <ele>727</ele>
        <time>2025-06-08T08:20:42.479Z</time>
      </trkpt>
      <trkpt lat="45.40116" lon="2.48563">
        <ele>727</ele>
        <time>2025-06-08T08:20:43.479Z</time>
      </trkpt>
      <trkpt lat="45.40115" lon="2.48564">
        <ele>727</ele>
        <time>2025-06-08T08:20:44.479Z</time>
      </trkpt>
      <trkpt lat="45.40115" lon="2.48564">
        <ele>727</ele>
        <time>2025-06-08T08:20:45.479Z</time>
      </trkpt>
      <trkpt lat="45.40115" lon="2.48566">
        <ele>727</ele>
        <time>2025-06-08T08:20:46.479Z</time>
      </trkpt>
      <trkpt lat="45.40115" lon="2.48566">
        <ele>727</ele>
        <time>2025-06-08T08:20:47.479Z</time>
      </trkpt>
      <trkpt lat="45.40114" lon="2.48568">
        <ele>727</ele>
        <time>2025-06-08T08:20:48.479Z</time>
      </trkpt>
      <trkpt lat="45.40113" lon="2.48569">
        <ele>727</ele>
        <time>2025-06-08T08:20:49.479Z</time>
      </trkpt>
      <trkpt lat="45.40113" lon="2.48572">
        <ele>726</ele>
        <time>2025-06-08T08:20:50.479Z</time>
      </trkpt>
      <trkpt lat="45.40113" lon="2.48574">
        <ele>726</ele>
        <time>2025-06-08T08:20:51.479Z</time>
      </trkpt>
      <trkpt lat="45.40112" lon="2.48576">
        <ele>726</ele>
        <time>2025-06-08T08:20:52.479Z</time>
      </trkpt>
      <trkpt lat="45.40112" lon="2.48578">
        <ele>726</ele>
        <time>2025-06-08T08:20:53.479Z</time>
      </trkpt>
      <trkpt lat="45.40112" lon="2.4858">
        <ele>726</ele>
        <time>2025-06-08T08:20:54.479Z</time>
      </trkpt>
      <trkpt lat="45.40111" lon="2.48581">
        <ele>726</ele>
        <time>2025-06-08T08:20:55.479Z</time>
      </trkpt>
      <trkpt lat="45.40109" lon="2.48582">
        <ele>726</ele>
        <time>2025-06-08T08:20:56.479Z</time>
      </trkpt>
      <trkpt lat="45.40108" lon="2.48581">
        <ele>726</ele>
        <time>2025-06-08T08:20:57.479Z</time>
      </trkpt>
      <trkpt lat="45.40107" lon="2.48581">
        <ele>726</ele>
        <time>2025-06-08T08:20:58.479Z</time>
      </trkpt>
      <trkpt lat="45.40106" lon="2.48581">
        <ele>726</ele>
        <time>2025-06-08T08:20:59.479Z</time>
      </trkpt>
      <trkpt lat="45.40105" lon="2.48581">
        <ele>726</ele>
        <time>2025-06-08T08:21:00.479Z</time>
      </trkpt>
      <trkpt lat="45.40104" lon="2.48582">
        <ele>725</ele>
        <time>2025-06-08T08:21:01.479Z</time>
      </trkpt>
      <trkpt lat="45.40103" lon="2.48582">
        <ele>725</ele>
        <time>2025-06-08T08:21:02.479Z</time>
      </trkpt>
      <trkpt lat="45.40102" lon="2.48583">
        <ele>724</ele>
        <time>2025-06-08T08:21:03.479Z</time>
      </trkpt>
      <trkpt lat="45.40102" lon="2.48585">
        <ele>724</ele>
        <time>2025-06-08T08:21:04.479Z</time>
      </trkpt>
      <trkpt lat="45.40101" lon="2.48586">
        <ele>723</ele>
        <time>2025-06-08T08:21:05.479Z</time>
      </trkpt>
      <trkpt lat="45.401" lon="2.48587">
        <ele>723</ele>
        <time>2025-06-08T08:21:06.479Z</time>
      </trkpt>
      <trkpt lat="45.40099" lon="2.48589">
        <ele>722</ele>
        <time>2025-06-08T08:21:07.479Z</time>
      </trkpt>
      <trkpt lat="45.40099" lon="2.4859">
        <ele>722</ele>
        <time>2025-06-08T08:21:08.479Z</time>
      </trkpt>
      <trkpt lat="45.40098" lon="2.48591">
        <ele>721</ele>
        <time>2025-06-08T08:21:09.479Z</time>
      </trkpt>
      <trkpt lat="45.40097" lon="2.48591">
        <ele>721</ele>
        <time>2025-06-08T08:21:10.479Z</time>
      </trkpt>
      <trkpt lat="45.40097" lon="2.48592">
        <ele>721</ele>
        <time>2025-06-08T08:21:11.479Z</time>
      </trkpt>
      <trkpt lat="45.40097" lon="2.48593">
        <ele>720</ele>
        <time>2025-06-08T08:21:12.479Z</time>
      </trkpt>
      <trkpt lat="45.40097" lon="2.48594">
        <ele>720</ele>
        <time>2025-06-08T08:21:13.479Z</time>
      </trkpt>
      <trkpt lat="45.40097" lon="2.48595">
        <ele>720</ele>
        <time>2025-06-08T08:21:14.479Z</time>
      </trkpt>
      <trkpt lat="45.40098" lon="2.48593">
        <ele>720</ele>
        <time>2025-06-08T08:21:15.479Z</time>
      </trkpt>
      <trkpt lat="45.40098" lon="2.48594">
        <ele>720</ele>
        <time>2025-06-08T08:21:16.479Z</time>
      </trkpt>
      <trkpt lat="45.40097" lon="2.48597">
        <ele>720</ele>
        <time>2025-06-08T08:21:17.479Z</time>
      </trkpt>
      <trkpt lat="45.40097" lon="2.48599">
        <ele>720</ele>
        <time>2025-06-08T08:21:18.479Z</time>
      </trkpt>
      <trkpt lat="45.40096" lon="2.486">
        <ele>720</ele>
        <time>2025-06-08T08:21:19.479Z</time>
      </trkpt>
      <trkpt lat="45.40096" lon="2.48602">
        <ele>720</ele>
        <time>2025-06-08T08:21:20.479Z</time>
      </trkpt>
      <trkpt lat="45.40096" lon="2.48603">
        <ele>720</ele>
        <time>2025-06-08T08:21:21.479Z</time>
      </trkpt>
      <trkpt lat="45.40095" lon="2.48603">
        <ele>720</ele>
        <time>2025-06-08T08:21:22.479Z</time>
      </trkpt>
      <trkpt lat="45.40093" lon="2.48602">
        <ele>719</ele>
        <time>2025-06-08T08:21:23.479Z</time>
      </trkpt>
      <trkpt lat="45.40092" lon="2.48602">
        <ele>719</ele>
        <time>2025-06-08T08:21:24.479Z</time>
      </trkpt>
      <trkpt lat="45.40091" lon="2.48603">
        <ele>719</ele>
        <time>2025-06-08T08:21:25.479Z</time>
      </trkpt>
      <trkpt lat="45.4009" lon="2.48603">
        <ele>719</ele>
        <time>2025-06-08T08:21:26.479Z</time>
      </trkpt>
      <trkpt lat="45.40091" lon="2.48602">
        <ele>719</ele>
        <time>2025-06-08T08:21:27.479Z</time>
      </trkpt>
      <trkpt lat="45.40091" lon="2.48603">
        <ele>719</ele>
        <time>2025-06-08T08:21:28.479Z</time>
      </trkpt>
      <trkpt lat="45.40091" lon="2.48604">
        <ele>719</ele>
        <time>2025-06-08T08:21:29.479Z</time>
      </trkpt>
      <trkpt lat="45.4009" lon="2.48606">
        <ele>718</ele>
        <time>2025-06-08T08:21:30.479Z</time>
      </trkpt>
      <trkpt lat="45.40089" lon="2.48607">
        <ele>718</ele>
        <time>2025-06-08T08:21:31.479Z</time>
      </trkpt>
      <trkpt lat="45.40088" lon="2.48608">
        <ele>718</ele>
        <time>2025-06-08T08:21:32.479Z</time>
      </trkpt>
      <trkpt lat="45.40088" lon="2.48609">
        <ele>717</ele>
        <time>2025-06-08T08:21:33.479Z</time>
      </trkpt>
      <trkpt lat="45.40088" lon="2.4861">
        <ele>717</ele>
        <time>2025-06-08T08:21:34.479Z</time>
      </trkpt>
      <trkpt lat="45.40087" lon="2.48611">
        <ele>717</ele>
        <time>2025-06-08T08:21:35.479Z</time>
      </trkpt>
      <trkpt lat="45.40087" lon="2.48613">
        <ele>717</ele>
        <time>2025-06-08T08:21:36.479Z</time>
      </trkpt>
      <trkpt lat="45.40086" lon="2.48614">
        <ele>716</ele>
        <time>2025-06-08T08:21:37.479Z</time>
      </trkpt>
      <trkpt lat="45.40085" lon="2.48616">
        <ele>716</ele>
        <time>2025-06-08T08:21:38.479Z</time>
      </trkpt>
      <trkpt lat="45.40085" lon="2.48618">
        <ele>716</ele>
        <time>2025-06-08T08:21:39.479Z</time>
      </trkpt>
      <trkpt lat="45.40084" lon="2.48619">
        <ele>716</ele>
        <time>2025-06-08T08:21:40.479Z</time>
      </trkpt>
      <trkpt lat="45.40083" lon="2.48621">
        <ele>715</ele>
        <time>2025-06-08T08:21:41.479Z</time>
      </trkpt>
      <trkpt lat="45.40082" lon="2.48623">
        <ele>715</ele>
        <time>2025-06-08T08:21:42.479Z</time>
      </trkpt>
      <trkpt lat="45.40081" lon="2.48625">
        <ele>714</ele>
        <time>2025-06-08T08:21:43.479Z</time>
      </trkpt>
      <trkpt lat="45.40081" lon="2.48625">
        <ele>714</ele>
        <time>2025-06-08T08:21:44.479Z</time>
      </trkpt>
      <trkpt lat="45.40081" lon="2.48626">
        <ele>714</ele>
        <time>2025-06-08T08:21:45.479Z</time>
      </trkpt>
      <trkpt lat="45.40082" lon="2.48626">
        <ele>713</ele>
        <time>2025-06-08T08:21:46.479Z</time>
      </trkpt>
      <trkpt lat="45.40082" lon="2.48626">
        <ele>713</ele>
        <time>2025-06-08T08:21:47.479Z</time>
      </trkpt>
      <trkpt lat="45.40083" lon="2.48627">
        <ele>714</ele>
        <time>2025-06-08T08:21:48.479Z</time>
      </trkpt>
      <trkpt lat="45.40083" lon="2.48628">
        <ele>714</ele>
        <time>2025-06-08T08:21:49.479Z</time>
      </trkpt>
      <trkpt lat="45.40083" lon="2.48629">
        <ele>714</ele>
        <time>2025-06-08T08:21:50.479Z</time>
      </trkpt>
      <trkpt lat="45.40082" lon="2.4863">
        <ele>714</ele>
        <time>2025-06-08T08:21:51.479Z</time>
      </trkpt>
      <trkpt lat="45.40082" lon="2.4863">
        <ele>714</ele>
        <time>2025-06-08T08:21:52.479Z</time>
      </trkpt>
      <trkpt lat="45.40082" lon="2.48631">
        <ele>715</ele>
        <time>2025-06-08T08:21:53.479Z</time>
      </trkpt>
      <trkpt lat="45.40082" lon="2.48632">
        <ele>715</ele>
        <time>2025-06-08T08:21:54.479Z</time>
      </trkpt>
      <trkpt lat="45.40082" lon="2.48632">
        <ele>716</ele>
        <time>2025-06-08T08:21:55.479Z</time>
      </trkpt>
      <trkpt lat="45.40082" lon="2.48633">
        <ele>716</ele>
        <time>2025-06-08T08:21:56.479Z</time>
      </trkpt>
      <trkpt lat="45.40082" lon="2.48635">
        <ele>716</ele>
        <time>2025-06-08T08:21:57.479Z</time>
      </trkpt>
      <trkpt lat="45.40082" lon="2.48636">
        <ele>717</ele>
        <time>2025-06-08T08:21:58.479Z</time>
      </trkpt>
      <trkpt lat="45.40081" lon="2.48637">
        <ele>717</ele>
        <time>2025-06-08T08:21:59.479Z</time>
      </trkpt>
      <trkpt lat="45.40081" lon="2.48639">
        <ele>717</ele>
        <time>2025-06-08T08:22:00.479Z</time>
      </trkpt>
      <trkpt lat="45.40082" lon="2.48639">
        <ele>717</ele>
        <time>2025-06-08T08:22:01.479Z</time>
      </trkpt>
      <trkpt lat="45.40082" lon="2.48639">
        <ele>717</ele>
        <time>2025-06-08T08:22:02.479Z</time>
      </trkpt>
      <trkpt lat="45.40082" lon="2.48641">
        <ele>717</ele>
        <time>2025-06-08T08:22:03.479Z</time>
      </trkpt>
      <trkpt lat="45.40081" lon="2.48644">
        <ele>717</ele>
        <time>2025-06-08T08:22:04.479Z</time>
      </trkpt>
      <trkpt lat="45.40081" lon="2.48646">
        <ele>717</ele>
        <time>2025-06-08T08:22:05.479Z</time>
      </trkpt>
      <trkpt lat="45.40081" lon="2.48649">
        <ele>717</ele>
        <time>2025-06-08T08:22:06.479Z</time>
      </trkpt>
      <trkpt lat="45.40081" lon="2.4865">
        <ele>717</ele>
        <time>2025-06-08T08:22:07.479Z</time>
      </trkpt>
      <trkpt lat="45.4008" lon="2.48653">
        <ele>717</ele>
        <time>2025-06-08T08:22:08.479Z</time>
      </trkpt>
      <trkpt lat="45.40079" lon="2.48655">
        <ele>717</ele>
        <time>2025-06-08T08:22:09.479Z</time>
      </trkpt>
      <trkpt lat="45.40078" lon="2.48657">
        <ele>717</ele>
        <time>2025-06-08T08:22:10.479Z</time>
      </trkpt>
      <trkpt lat="45.40077" lon="2.48659">
        <ele>717</ele>
        <time>2025-06-08T08:22:11.479Z</time>
      </trkpt>
      <trkpt lat="45.40076" lon="2.48661">
        <ele>716</ele>
        <time>2025-06-08T08:22:12.479Z</time>
      </trkpt>
      <trkpt lat="45.40076" lon="2.48661">
        <ele>716</ele>
        <time>2025-06-08T08:22:13.479Z</time>
      </trkpt>
      <trkpt lat="45.40076" lon="2.4866">
        <ele>715</ele>
        <time>2025-06-08T08:22:14.479Z</time>
      </trkpt>
      <trkpt lat="45.40076" lon="2.48661">
        <ele>714</ele>
        <time>2025-06-08T08:22:15.479Z</time>
      </trkpt>
      <trkpt lat="45.40075" lon="2.48662">
        <ele>712</ele>
        <time>2025-06-08T08:22:16.479Z</time>
      </trkpt>
      <trkpt lat="45.40074" lon="2.48664">
        <ele>711</ele>
        <time>2025-06-08T08:22:17.479Z</time>
      </trkpt>
      <trkpt lat="45.40073" lon="2.48666">
        <ele>710</ele>
        <time>2025-06-08T08:22:18.479Z</time>
      </trkpt>
      <trkpt lat="45.40073" lon="2.48666">
        <ele>709</ele>
        <time>2025-06-08T08:22:19.479Z</time>
      </trkpt>
      <trkpt lat="45.40073" lon="2.48668">
        <ele>709</ele>
        <time>2025-06-08T08:22:20.479Z</time>
      </trkpt>
      <trkpt lat="45.40073" lon="2.4867">
        <ele>708</ele>
        <time>2025-06-08T08:22:21.479Z</time>
      </trkpt>
      <trkpt lat="45.40073" lon="2.4867">
        <ele>707</ele>
        <time>2025-06-08T08:22:22.479Z</time>
      </trkpt>
      <trkpt lat="45.40074" lon="2.48671">
        <ele>707</ele>
        <time>2025-06-08T08:22:23.479Z</time>
      </trkpt>
      <trkpt lat="45.40073" lon="2.48674">
        <ele>706</ele>
        <time>2025-06-08T08:22:24.479Z</time>
      </trkpt>
      <trkpt lat="45.40073" lon="2.48676">
        <ele>706</ele>
        <time>2025-06-08T08:22:25.479Z</time>
      </trkpt>
      <trkpt lat="45.40073" lon="2.48678">
        <ele>705</ele>
        <time>2025-06-08T08:22:26.479Z</time>
      </trkpt>
      <trkpt lat="45.40072" lon="2.4868">
        <ele>705</ele>
        <time>2025-06-08T08:22:27.479Z</time>
      </trkpt>
      <trkpt lat="45.40072" lon="2.48681">
        <ele>704</ele>
        <time>2025-06-08T08:22:28.479Z</time>
      </trkpt>
      <trkpt lat="45.40072" lon="2.48684">
        <ele>704</ele>
        <time>2025-06-08T08:22:29.479Z</time>
      </trkpt>
      <trkpt lat="45.40072" lon="2.48686">
        <ele>703</ele>
        <time>2025-06-08T08:22:30.479Z</time>
      </trkpt>
      <trkpt lat="45.40072" lon="2.48689">
        <ele>703</ele>
        <time>2025-06-08T08:22:31.479Z</time>
      </trkpt>
      <trkpt lat="45.40072" lon="2.4869">
        <ele>703</ele>
        <time>2025-06-08T08:22:32.479Z</time>
      </trkpt>
      <trkpt lat="45.40072" lon="2.48692">
        <ele>702</ele>
        <time>2025-06-08T08:22:33.479Z</time>
      </trkpt>
      <trkpt lat="45.40072" lon="2.48693">
        <ele>702</ele>
        <time>2025-06-08T08:22:34.479Z</time>
      </trkpt>
      <trkpt lat="45.40072" lon="2.48694">
        <ele>702</ele>
        <time>2025-06-08T08:22:35.479Z</time>
      </trkpt>
      <trkpt lat="45.40072" lon="2.48696">
        <ele>702</ele>
        <time>2025-06-08T08:22:36.479Z</time>
      </trkpt>
      <trkpt lat="45.40072" lon="2.48697">
        <ele>701</ele>
        <time>2025-06-08T08:22:37.479Z</time>
      </trkpt>
      <trkpt lat="45.40072" lon="2.48699">
        <ele>701</ele>
        <time>2025-06-08T08:22:38.479Z</time>
      </trkpt>
      <trkpt lat="45.40072" lon="2.487">
        <ele>701</ele>
        <time>2025-06-08T08:22:39.479Z</time>
      </trkpt>
      <trkpt lat="45.40073" lon="2.48701">
        <ele>701</ele>
        <time>2025-06-08T08:22:40.479Z</time>
      </trkpt>
      <trkpt lat="45.40073" lon="2.48703">
        <ele>701</ele>
        <time>2025-06-08T08:22:41.479Z</time>
      </trkpt>
      <trkpt lat="45.40072" lon="2.48704">
        <ele>701</ele>
        <time>2025-06-08T08:22:42.479Z</time>
      </trkpt>
      <trkpt lat="45.40072" lon="2.48706">
        <ele>702</ele>
        <time>2025-06-08T08:22:43.479Z</time>
      </trkpt>
      <trkpt lat="45.40072" lon="2.48707">
        <ele>702</ele>
        <time>2025-06-08T08:22:44.479Z</time>
      </trkpt>
      <trkpt lat="45.40072" lon="2.48709">
        <ele>703</ele>
        <time>2025-06-08T08:22:45.479Z</time>
      </trkpt>
      <trkpt lat="45.40073" lon="2.4871">
        <ele>703</ele>
        <time>2025-06-08T08:22:46.479Z</time>
      </trkpt>
      <trkpt lat="45.40073" lon="2.48711">
        <ele>703</ele>
        <time>2025-06-08T08:22:47.479Z</time>
      </trkpt>
      <trkpt lat="45.40073" lon="2.48713">
        <ele>703</ele>
        <time>2025-06-08T08:22:48.479Z</time>
      </trkpt>
      <trkpt lat="45.40073" lon="2.48714">
        <ele>704</ele>
        <time>2025-06-08T08:22:49.479Z</time>
      </trkpt>
      <trkpt lat="45.40073" lon="2.48715">
        <ele>704</ele>
        <time>2025-06-08T08:22:50.479Z</time>
      </trkpt>
      <trkpt lat="45.40073" lon="2.48715">
        <ele>703</ele>
        <time>2025-06-08T08:22:51.479Z</time>
      </trkpt>
      <trkpt lat="45.40073" lon="2.48716">
        <ele>703</ele>
        <time>2025-06-08T08:22:52.479Z</time>
      </trkpt>
      <trkpt lat="45.40072" lon="2.48718">
        <ele>702</ele>
        <time>2025-06-08T08:22:53.479Z</time>
      </trkpt>
      <trkpt lat="45.40072" lon="2.48719">
        <ele>702</ele>
        <time>2025-06-08T08:22:54.479Z</time>
      </trkpt>
      <trkpt lat="45.40071" lon="2.4872">
        <ele>702</ele>
        <time>2025-06-08T08:22:55.479Z</time>
      </trkpt>
      <trkpt lat="45.40071" lon="2.48721">
        <ele>701</ele>
        <time>2025-06-08T08:22:56.479Z</time>
      </trkpt>
      <trkpt lat="45.40071" lon="2.48722">
        <ele>701</ele>
        <time>2025-06-08T08:22:57.479Z</time>
      </trkpt>
      <trkpt lat="45.40071" lon="2.48722">
        <ele>701</ele>
        <time>2025-06-08T08:22:58.479Z</time>
      </trkpt>
      <trkpt lat="45.4007" lon="2.48724">
        <ele>700</ele>
        <time>2025-06-08T08:22:59.479Z</time>
      </trkpt>
      <trkpt lat="45.4007" lon="2.48725">
        <ele>700</ele>
        <time>2025-06-08T08:23:00.479Z</time>
      </trkpt>
      <trkpt lat="45.40069" lon="2.48727">
        <ele>699</ele>
        <time>2025-06-08T08:23:01.479Z</time>
      </trkpt>
      <trkpt lat="45.40067" lon="2.48727">
        <ele>698</ele>
        <time>2025-06-08T08:23:02.479Z</time>
      </trkpt>
      <trkpt lat="45.40066" lon="2.48728">
        <ele>697</ele>
        <time>2025-06-08T08:23:03.479Z</time>
      </trkpt>
      <trkpt lat="45.40065" lon="2.48729">
        <ele>696</ele>
        <time>2025-06-08T08:23:04.479Z</time>
      </trkpt>
      <trkpt lat="45.40063" lon="2.4873">
        <ele>696</ele>
        <time>2025-06-08T08:23:05.479Z</time>
      </trkpt>
      <trkpt lat="45.40061" lon="2.4873">
        <ele>695</ele>
        <time>2025-06-08T08:23:06.479Z</time>
      </trkpt>
      <trkpt lat="45.40059" lon="2.4873">
        <ele>695</ele>
        <time>2025-06-08T08:23:07.479Z</time>
      </trkpt>
      <trkpt lat="45.40058" lon="2.48731">
        <ele>694</ele>
        <time>2025-06-08T08:23:08.479Z</time>
      </trkpt>
      <trkpt lat="45.40058" lon="2.48732">
        <ele>694</ele>
        <time>2025-06-08T08:23:09.479Z</time>
      </trkpt>
      <trkpt lat="45.40057" lon="2.48734">
        <ele>694</ele>
        <time>2025-06-08T08:23:10.479Z</time>
      </trkpt>
      <trkpt lat="45.40056" lon="2.48735">
        <ele>693</ele>
        <time>2025-06-08T08:23:11.479Z</time>
      </trkpt>
      <trkpt lat="45.40054" lon="2.48737">
        <ele>693</ele>
        <time>2025-06-08T08:23:12.479Z</time>
      </trkpt>
      <trkpt lat="45.40053" lon="2.48738">
        <ele>692</ele>
        <time>2025-06-08T08:23:13.479Z</time>
      </trkpt>
      <trkpt lat="45.40052" lon="2.48739">
        <ele>692</ele>
        <time>2025-06-08T08:23:14.479Z</time>
      </trkpt>
      <trkpt lat="45.40052" lon="2.4874">
        <ele>692</ele>
        <time>2025-06-08T08:23:15.479Z</time>
      </trkpt>
      <trkpt lat="45.40051" lon="2.48742">
        <ele>692</ele>
        <time>2025-06-08T08:23:16.479Z</time>
      </trkpt>
      <trkpt lat="45.4005" lon="2.48744">
        <ele>692</ele>
        <time>2025-06-08T08:23:17.479Z</time>
      </trkpt>
      <trkpt lat="45.4005" lon="2.48745">
        <ele>692</ele>
        <time>2025-06-08T08:23:18.479Z</time>
      </trkpt>
      <trkpt lat="45.4005" lon="2.48746">
        <ele>691</ele>
        <time>2025-06-08T08:23:19.479Z</time>
      </trkpt>
      <trkpt lat="45.40049" lon="2.48748">
        <ele>691</ele>
        <time>2025-06-08T08:23:20.479Z</time>
      </trkpt>
      <trkpt lat="45.40048" lon="2.48749">
        <ele>690</ele>
        <time>2025-06-08T08:23:21.479Z</time>
      </trkpt>
      <trkpt lat="45.40048" lon="2.48749">
        <ele>690</ele>
        <time>2025-06-08T08:23:22.479Z</time>
      </trkpt>
      <trkpt lat="45.40047" lon="2.4875">
        <ele>689</ele>
        <time>2025-06-08T08:23:23.479Z</time>
      </trkpt>
      <trkpt lat="45.40047" lon="2.48751">
        <ele>689</ele>
        <time>2025-06-08T08:23:24.479Z</time>
      </trkpt>
      <trkpt lat="45.40047" lon="2.48751">
        <ele>688</ele>
        <time>2025-06-08T08:23:25.479Z</time>
      </trkpt>
      <trkpt lat="45.40047" lon="2.48751">
        <ele>688</ele>
        <time>2025-06-08T08:23:26.479Z</time>
      </trkpt>
      <trkpt lat="45.40047" lon="2.48752">
        <ele>688</ele>
        <time>2025-06-08T08:23:27.479Z</time>
      </trkpt>
      <trkpt lat="45.40047" lon="2.48752">
        <ele>687</ele>
        <time>2025-06-08T08:23:28.479Z</time>
      </trkpt>
      <trkpt lat="45.40046" lon="2.48753">
        <ele>687</ele>
        <time>2025-06-08T08:23:29.479Z</time>
      </trkpt>
      <trkpt lat="45.40046" lon="2.48753">
        <ele>687</ele>
        <time>2025-06-08T08:23:30.479Z</time>
      </trkpt>
      <trkpt lat="45.40046" lon="2.48753">
        <ele>687</ele>
        <time>2025-06-08T08:23:31.479Z</time>
      </trkpt>
      <trkpt lat="45.40046" lon="2.48753">
        <ele>687</ele>
        <time>2025-06-08T08:23:32.479Z</time>
      </trkpt>
      <trkpt lat="45.40046" lon="2.48753">
        <ele>687</ele>
        <time>2025-06-08T08:23:33.479Z</time>
      </trkpt>
      <trkpt lat="45.40045" lon="2.48753">
        <ele>687</ele>
        <time>2025-06-08T08:23:34.479Z</time>
      </trkpt>
      <trkpt lat="45.40044" lon="2.48752">
        <ele>687</ele>
        <time>2025-06-08T08:23:35.479Z</time>
      </trkpt>
      <trkpt lat="45.40044" lon="2.48752">
        <ele>687</ele>
        <time>2025-06-08T08:23:36.479Z</time>
      </trkpt>
      <trkpt lat="45.40044" lon="2.48752">
        <ele>687</ele>
        <time>2025-06-08T08:23:37.479Z</time>
      </trkpt>
      <trkpt lat="45.40044" lon="2.48751">
        <ele>687</ele>
        <time>2025-06-08T08:23:38.479Z</time>
      </trkpt>
      <trkpt lat="45.40043" lon="2.48751">
        <ele>687</ele>
        <time>2025-06-08T08:23:39.479Z</time>
      </trkpt>
      <trkpt lat="45.40044" lon="2.48751">
        <ele>688</ele>
        <time>2025-06-08T08:23:40.479Z</time>
      </trkpt>
      <trkpt lat="45.40044" lon="2.48751">
        <ele>689</ele>
        <time>2025-06-08T08:23:41.479Z</time>
      </trkpt>
      <trkpt lat="45.40044" lon="2.48751">
        <ele>690</ele>
        <time>2025-06-08T08:23:42.479Z</time>
      </trkpt>
      <trkpt lat="45.40044" lon="2.48751">
        <ele>691</ele>
        <time>2025-06-08T08:23:43.479Z</time>
      </trkpt>
      <trkpt lat="45.40044" lon="2.48751">
        <ele>692</ele>
        <time>2025-06-08T08:23:44.479Z</time>
      </trkpt>
      <trkpt lat="45.40044" lon="2.48751">
        <ele>694</ele>
        <time>2025-06-08T08:23:45.479Z</time>
      </trkpt>
      <trkpt lat="45.40044" lon="2.48751">
        <ele>695</ele>
        <time>2025-06-08T08:23:46.479Z</time>
      </trkpt>
      <trkpt lat="45.40044" lon="2.48751">
        <ele>696</ele>
        <time>2025-06-08T08:23:47.479Z</time>
      </trkpt>
      <trkpt lat="45.40044" lon="2.4875">
        <ele>697</ele>
        <time>2025-06-08T08:23:48.479Z</time>
      </trkpt>
      <trkpt lat="45.40044" lon="2.4875">
        <ele>698</ele>
        <time>2025-06-08T08:23:49.479Z</time>
      </trkpt>
      <trkpt lat="45.40044" lon="2.4875">
        <ele>699</ele>
        <time>2025-06-08T08:23:50.479Z</time>
      </trkpt>
      <trkpt lat="45.40044" lon="2.4875">
        <ele>700</ele>
        <time>2025-06-08T08:23:51.479Z</time>
      </trkpt>
      <trkpt lat="45.40044" lon="2.48751">
        <ele>701</ele>
        <time>2025-06-08T08:23:52.479Z</time>
      </trkpt>
      <trkpt lat="45.40044" lon="2.48751">
        <ele>702</ele>
        <time>2025-06-08T08:23:53.479Z</time>
      </trkpt>
      <trkpt lat="45.40044" lon="2.48751">
        <ele>703</ele>
        <time>2025-06-08T08:23:54.479Z</time>
      </trkpt>
      <trkpt lat="45.40043" lon="2.48751">
        <ele>703</ele>
        <time>2025-06-08T08:23:55.479Z</time>
      </trkpt>
      <trkpt lat="45.40043" lon="2.48751">
        <ele>703</ele>
        <time>2025-06-08T08:23:56.479Z</time>
      </trkpt>
      <trkpt lat="45.40043" lon="2.48751">
        <ele>703</ele>
        <time>2025-06-08T08:23:57.479Z</time>
      </trkpt>
      <trkpt lat="45.40043" lon="2.48751">
        <ele>703</ele>
        <time>2025-06-08T08:23:58.479Z</time>
      </trkpt>
      <trkpt lat="45.40043" lon="2.48751">
        <ele>702</ele>
        <time>2025-06-08T08:23:59.479Z</time>
      </trkpt>
      <trkpt lat="45.40043" lon="2.48751">
        <ele>702</ele>
        <time>2025-06-08T08:24:00.479Z</time>
      </trkpt>
      <trkpt lat="45.40043" lon="2.48751">
        <ele>702</ele>
        <time>2025-06-08T08:24:01.479Z</time>
      </trkpt>
      <trkpt lat="45.40043" lon="2.48751">
        <ele>702</ele>
        <time>2025-06-08T08:24:02.479Z</time>
      </trkpt>
      <trkpt lat="45.40043" lon="2.48751">
        <ele>702</ele>
        <time>2025-06-08T08:24:03.479Z</time>
      </trkpt>
      <trkpt lat="45.40043" lon="2.48751">
        <ele>702</ele>
        <time>2025-06-08T08:24:04.479Z</time>
      </trkpt>
      <trkpt lat="45.40043" lon="2.4875">
        <ele>703</ele>
        <time>2025-06-08T08:24:05.479Z</time>
      </trkpt>
      <trkpt lat="45.40043" lon="2.4875">
        <ele>703</ele>
        <time>2025-06-08T08:24:06.479Z</time>
      </trkpt>
      <trkpt lat="45.40043" lon="2.4875">
        <ele>703</ele>
        <time>2025-06-08T08:24:07.479Z</time>
      </trkpt>
      <trkpt lat="45.40042" lon="2.48752">
        <ele>703</ele>
        <time>2025-06-08T08:24:08.479Z</time>
      </trkpt>
      <trkpt lat="45.40042" lon="2.48753">
        <ele>703</ele>
        <time>2025-06-08T08:24:09.479Z</time>
      </trkpt>
      <trkpt lat="45.40042" lon="2.48753">
        <ele>703</ele>
        <time>2025-06-08T08:24:10.479Z</time>
      </trkpt>
      <trkpt lat="45.40041" lon="2.48753">
        <ele>703</ele>
        <time>2025-06-08T08:24:11.479Z</time>
      </trkpt>
      <trkpt lat="45.40041" lon="2.48754">
        <ele>703</ele>
        <time>2025-06-08T08:24:12.479Z</time>
      </trkpt>
      <trkpt lat="45.40041" lon="2.48754">
        <ele>703</ele>
        <time>2025-06-08T08:24:13.479Z</time>
      </trkpt>
      <trkpt lat="45.40041" lon="2.48754">
        <ele>702</ele>
        <time>2025-06-08T08:24:14.479Z</time>
      </trkpt>
      <trkpt lat="45.40041" lon="2.48754">
        <ele>702</ele>
        <time>2025-06-08T08:24:15.479Z</time>
      </trkpt>
      <trkpt lat="45.40041" lon="2.48754">
        <ele>702</ele>
        <time>2025-06-08T08:24:16.479Z</time>
      </trkpt>
      <trkpt lat="45.40041" lon="2.48754">
        <ele>701</ele>
        <time>2025-06-08T08:24:17.479Z</time>
      </trkpt>
      <trkpt lat="45.40041" lon="2.48754">
        <ele>700</ele>
        <time>2025-06-08T08:24:18.479Z</time>
      </trkpt>
      <trkpt lat="45.40041" lon="2.48754">
        <ele>700</ele>
        <time>2025-06-08T08:24:19.479Z</time>
      </trkpt>
      <trkpt lat="45.40041" lon="2.48754">
        <ele>699</ele>
        <time>2025-06-08T08:24:20.479Z</time>
      </trkpt>
      <trkpt lat="45.40041" lon="2.48754">
        <ele>698</ele>
        <time>2025-06-08T08:24:21.479Z</time>
      </trkpt>
      <trkpt lat="45.40041" lon="2.48753">
        <ele>697</ele>
        <time>2025-06-08T08:24:22.479Z</time>
      </trkpt>
      <trkpt lat="45.40041" lon="2.48753">
        <ele>696</ele>
        <time>2025-06-08T08:24:23.479Z</time>
      </trkpt>
      <trkpt lat="45.40041" lon="2.48753">
        <ele>695</ele>
        <time>2025-06-08T08:24:24.479Z</time>
      </trkpt>
      <trkpt lat="45.40041" lon="2.48753">
        <ele>694</ele>
        <time>2025-06-08T08:24:25.479Z</time>
      </trkpt>
      <trkpt lat="45.40042" lon="2.48753">
        <ele>692</ele>
        <time>2025-06-08T08:24:26.479Z</time>
      </trkpt>
      <trkpt lat="45.40042" lon="2.48753">
        <ele>691</ele>
        <time>2025-06-08T08:24:27.479Z</time>
      </trkpt>
      <trkpt lat="45.40042" lon="2.48753">
        <ele>689</ele>
        <time>2025-06-08T08:24:28.479Z</time>
      </trkpt>
      <trkpt lat="45.40041" lon="2.48753">
        <ele>688</ele>
        <time>2025-06-08T08:24:29.479Z</time>
      </trkpt>
      <trkpt lat="45.40041" lon="2.48753">
        <ele>686</ele>
        <time>2025-06-08T08:24:30.479Z</time>
      </trkpt>
      <trkpt lat="45.40041" lon="2.48753">
        <ele>685</ele>
        <time>2025-06-08T08:24:31.479Z</time>
      </trkpt>
      <trkpt lat="45.40041" lon="2.48753">
        <ele>684</ele>
        <time>2025-06-08T08:24:32.479Z</time>
      </trkpt>
      <trkpt lat="45.40041" lon="2.48753">
        <ele>683</ele>
        <time>2025-06-08T08:24:33.479Z</time>
      </trkpt>
      <trkpt lat="45.40041" lon="2.48753">
        <ele>682</ele>
        <time>2025-06-08T08:24:34.479Z</time>
      </trkpt>
      <trkpt lat="45.40041" lon="2.48753">
        <ele>681</ele>
        <time>2025-06-08T08:24:35.479Z</time>
      </trkpt>
      <trkpt lat="45.40041" lon="2.48753">
        <ele>680</ele>
        <time>2025-06-08T08:24:36.479Z</time>
      </trkpt>
      <trkpt lat="45.40041" lon="2.48753">
        <ele>679</ele>
        <time>2025-06-08T08:24:37.479Z</time>
      </trkpt>
      <trkpt lat="45.40041" lon="2.48753">
        <ele>677</ele>
        <time>2025-06-08T08:24:38.479Z</time>
      </trkpt>
      <trkpt lat="45.40041" lon="2.48753">
        <ele>676</ele>
        <time>2025-06-08T08:24:39.479Z</time>
      </trkpt>
      <trkpt lat="45.40041" lon="2.48753">
        <ele>675</ele>
        <time>2025-06-08T08:24:40.479Z</time>
      </trkpt>
      <trkpt lat="45.40041" lon="2.48753">
        <ele>673</ele>
        <time>2025-06-08T08:24:41.479Z</time>
      </trkpt>
      <trkpt lat="45.40041" lon="2.48753">
        <ele>671</ele>
        <time>2025-06-08T08:24:42.479Z</time>
      </trkpt>
      <trkpt lat="45.4004" lon="2.48753">
        <ele>670</ele>
        <time>2025-06-08T08:24:43.479Z</time>
      </trkpt>
      <trkpt lat="45.4004" lon="2.48753">
        <ele>668</ele>
        <time>2025-06-08T08:24:44.479Z</time>
      </trkpt>
      <trkpt lat="45.4004" lon="2.48753">
        <ele>667</ele>
        <time>2025-06-08T08:24:45.479Z</time>
      </trkpt>
      <trkpt lat="45.4004" lon="2.48753">
        <ele>666</ele>
        <time>2025-06-08T08:24:46.479Z</time>
      </trkpt>
      <trkpt lat="45.4004" lon="2.48753">
        <ele>666</ele>
        <time>2025-06-08T08:24:47.479Z</time>
      </trkpt>
      <trkpt lat="45.4004" lon="2.48753">
        <ele>666</ele>
        <time>2025-06-08T08:24:48.479Z</time>
      </trkpt>
      <trkpt lat="45.4004" lon="2.48753">
        <ele>665</ele>
        <time>2025-06-08T08:24:49.479Z</time>
      </trkpt>
      <trkpt lat="45.4004" lon="2.48753">
        <ele>665</ele>
        <time>2025-06-08T08:24:50.479Z</time>
      </trkpt>
      <trkpt lat="45.4004" lon="2.48753">
        <ele>664</ele>
        <time>2025-06-08T08:24:51.479Z</time>
      </trkpt>
      <trkpt lat="45.4004" lon="2.48753">
        <ele>663</ele>
        <time>2025-06-08T08:24:52.479Z</time>
      </trkpt>
      <trkpt lat="45.4004" lon="2.48753">
        <ele>663</ele>
        <time>2025-06-08T08:24:53.479Z</time>
      </trkpt>
      <trkpt lat="45.4004" lon="2.48753">
        <ele>662</ele>
        <time>2025-06-08T08:24:54.479Z</time>
      </trkpt>
      <trkpt lat="45.4004" lon="2.48753">
        <ele>662</ele>
        <time>2025-06-08T08:24:55.479Z</time>
      </trkpt>
      <trkpt lat="45.4004" lon="2.48752">
        <ele>661</ele>
        <time>2025-06-08T08:24:56.479Z</time>
      </trkpt>
      <trkpt lat="45.4004" lon="2.48752">
        <ele>661</ele>
        <time>2025-06-08T08:24:57.479Z</time>
      </trkpt>
      <trkpt lat="45.4004" lon="2.48752">
        <ele>660</ele>
        <time>2025-06-08T08:24:58.479Z</time>
      </trkpt>
      <trkpt lat="45.4004" lon="2.48752">
        <ele>659</ele>
        <time>2025-06-08T08:24:59.479Z</time>
      </trkpt>
      <trkpt lat="45.4004" lon="2.48752">
        <ele>659</ele>
        <time>2025-06-08T08:25:00.479Z</time>
      </trkpt>
      <trkpt lat="45.4004" lon="2.48752">
        <ele>659</ele>
        <time>2025-06-08T08:25:01.479Z</time>
      </trkpt>
      <trkpt lat="45.4004" lon="2.48752">
        <ele>659</ele>
        <time>2025-06-08T08:25:02.479Z</time>
      </trkpt>
      <trkpt lat="45.4004" lon="2.48751">
        <ele>659</ele>
        <time>2025-06-08T08:25:03.479Z</time>
      </trkpt>
      <trkpt lat="45.40039" lon="2.48751">
        <ele>659</ele>
        <time>2025-06-08T08:25:04.479Z</time>
      </trkpt>
      <trkpt lat="45.40039" lon="2.48751">
        <ele>659</ele>
        <time>2025-06-08T08:25:05.479Z</time>
      </trkpt>
      <trkpt lat="45.40038" lon="2.48751">
        <ele>660</ele>
        <time>2025-06-08T08:25:06.479Z</time>
      </trkpt>
      <trkpt lat="45.40037" lon="2.48751">
        <ele>660</ele>
        <time>2025-06-08T08:25:07.479Z</time>
      </trkpt>
      <trkpt lat="45.40037" lon="2.48751">
        <ele>661</ele>
        <time>2025-06-08T08:25:08.479Z</time>
      </trkpt>
      <trkpt lat="45.40036" lon="2.48751">
        <ele>662</ele>
        <time>2025-06-08T08:25:09.479Z</time>
      </trkpt>
      <trkpt lat="45.40035" lon="2.48752">
        <ele>662</ele>
        <time>2025-06-08T08:25:10.479Z</time>
      </trkpt>
      <trkpt lat="45.40035" lon="2.48752">
        <ele>663</ele>
        <time>2025-06-08T08:25:11.479Z</time>
      </trkpt>
      <trkpt lat="45.40034" lon="2.48752">
        <ele>663</ele>
        <time>2025-06-08T08:25:12.479Z</time>
      </trkpt>
      <trkpt lat="45.40033" lon="2.48753">
        <ele>663</ele>
        <time>2025-06-08T08:25:13.479Z</time>
      </trkpt>
      <trkpt lat="45.40032" lon="2.48753">
        <ele>664</ele>
        <time>2025-06-08T08:25:14.479Z</time>
      </trkpt>
      <trkpt lat="45.40029" lon="2.48752">
        <ele>665</ele>
        <time>2025-06-08T08:25:15.479Z</time>
      </trkpt>
      <trkpt lat="45.40027" lon="2.48752">
        <ele>665</ele>
        <time>2025-06-08T08:25:16.479Z</time>
      </trkpt>
      <trkpt lat="45.40027" lon="2.48752">
        <ele>666</ele>
        <time>2025-06-08T08:25:17.479Z</time>
      </trkpt>
      <trkpt lat="45.40026" lon="2.48751">
        <ele>666</ele>
        <time>2025-06-08T08:25:18.479Z</time>
      </trkpt>
      <trkpt lat="45.40025" lon="2.4875">
        <ele>667</ele>
        <time>2025-06-08T08:25:19.479Z</time>
      </trkpt>
      <trkpt lat="45.40024" lon="2.48749">
        <ele>668</ele>
        <time>2025-06-08T08:25:20.479Z</time>
      </trkpt>
      <trkpt lat="45.40023" lon="2.48749">
        <ele>669</ele>
        <time>2025-06-08T08:25:21.479Z</time>
      </trkpt>
      <trkpt lat="45.40022" lon="2.48749">
        <ele>669</ele>
        <time>2025-06-08T08:25:22.479Z</time>
      </trkpt>
      <trkpt lat="45.40021" lon="2.48749">
        <ele>670</ele>
        <time>2025-06-08T08:25:23.479Z</time>
      </trkpt>
      <trkpt lat="45.4002" lon="2.48748">
        <ele>671</ele>
        <time>2025-06-08T08:25:24.479Z</time>
      </trkpt>
      <trkpt lat="45.40019" lon="2.48747">
        <ele>671</ele>
        <time>2025-06-08T08:25:25.479Z</time>
      </trkpt>
      <trkpt lat="45.40018" lon="2.48746">
        <ele>672</ele>
        <time>2025-06-08T08:25:26.479Z</time>
      </trkpt>
      <trkpt lat="45.40018" lon="2.48747">
        <ele>672</ele>
        <time>2025-06-08T08:25:27.479Z</time>
      </trkpt>
      <trkpt lat="45.40017" lon="2.48747">
        <ele>673</ele>
        <time>2025-06-08T08:25:28.479Z</time>
      </trkpt>
      <trkpt lat="45.40016" lon="2.48748">
        <ele>673</ele>
        <time>2025-06-08T08:25:29.479Z</time>
      </trkpt>
      <trkpt lat="45.40016" lon="2.48748">
        <ele>674</ele>
        <time>2025-06-08T08:25:30.479Z</time>
      </trkpt>
      <trkpt lat="45.40015" lon="2.48749">
        <ele>675</ele>
        <time>2025-06-08T08:25:31.479Z</time>
      </trkpt>
      <trkpt lat="45.40014" lon="2.4875">
        <ele>675</ele>
        <time>2025-06-08T08:25:32.479Z</time>
      </trkpt>
      <trkpt lat="45.40013" lon="2.4875">
        <ele>676</ele>
        <time>2025-06-08T08:25:33.479Z</time>
      </trkpt>
      <trkpt lat="45.40013" lon="2.4875">
        <ele>677</ele>
        <time>2025-06-08T08:25:34.479Z</time>
      </trkpt>
      <trkpt lat="45.40013" lon="2.4875">
        <ele>677</ele>
        <time>2025-06-08T08:25:35.479Z</time>
      </trkpt>
      <trkpt lat="45.40013" lon="2.4875">
        <ele>678</ele>
        <time>2025-06-08T08:25:36.479Z</time>
      </trkpt>
      <trkpt lat="45.40013" lon="2.48751">
        <ele>678</ele>
        <time>2025-06-08T08:25:37.479Z</time>
      </trkpt>
      <trkpt lat="45.40013" lon="2.48751">
        <ele>679</ele>
        <time>2025-06-08T08:25:38.479Z</time>
      </trkpt>
      <trkpt lat="45.40014" lon="2.48749">
        <ele>679</ele>
        <time>2025-06-08T08:25:39.479Z</time>
      </trkpt>
      <trkpt lat="45.40015" lon="2.48746">
        <ele>679</ele>
        <time>2025-06-08T08:25:40.479Z</time>
      </trkpt>
      <trkpt lat="45.40017" lon="2.48743">
        <ele>679</ele>
        <time>2025-06-08T08:25:41.479Z</time>
      </trkpt>
      <trkpt lat="45.40017" lon="2.48739">
        <ele>679</ele>
        <time>2025-06-08T08:25:42.479Z</time>
      </trkpt>
      <trkpt lat="45.40017" lon="2.48739">
        <ele>679</ele>
        <time>2025-06-08T08:25:43.479Z</time>
      </trkpt>
      <trkpt lat="45.40017" lon="2.48739">
        <ele>678</ele>
        <time>2025-06-08T08:25:44.479Z</time>
      </trkpt>
      <trkpt lat="45.40016" lon="2.48738">
        <ele>678</ele>
        <time>2025-06-08T08:25:45.479Z</time>
      </trkpt>
      <trkpt lat="45.40016" lon="2.48738">
        <ele>678</ele>
        <time>2025-06-08T08:25:46.479Z</time>
      </trkpt>
      <trkpt lat="45.40016" lon="2.48738">
        <ele>678</ele>
        <time>2025-06-08T08:25:47.479Z</time>
      </trkpt>
      <trkpt lat="45.40017" lon="2.48739">
        <ele>677</ele>
        <time>2025-06-08T08:25:48.479Z</time>
      </trkpt>
      <trkpt lat="45.40018" lon="2.48739">
        <ele>677</ele>
        <time>2025-06-08T08:25:49.479Z</time>
      </trkpt>
      <trkpt lat="45.40018" lon="2.48739">
        <ele>677</ele>
        <time>2025-06-08T08:25:50.479Z</time>
      </trkpt>
      <trkpt lat="45.40018" lon="2.48739">
        <ele>676</ele>
        <time>2025-06-08T08:25:51.479Z</time>
      </trkpt>
      <trkpt lat="45.40018" lon="2.48739">
        <ele>676</ele>
        <time>2025-06-08T08:25:52.479Z</time>
      </trkpt>
      <trkpt lat="45.40018" lon="2.48739">
        <ele>676</ele>
        <time>2025-06-08T08:25:53.479Z</time>
      </trkpt>
      <trkpt lat="45.40018" lon="2.48739">
        <ele>675</ele>
        <time>2025-06-08T08:25:54.479Z</time>
      </trkpt>
      <trkpt lat="45.40018" lon="2.48739">
        <ele>675</ele>
        <time>2025-06-08T08:25:55.479Z</time>
      </trkpt>
      <trkpt lat="45.40018" lon="2.48739">
        <ele>675</ele>
        <time>2025-06-08T08:25:56.479Z</time>
      </trkpt>
      <trkpt lat="45.40017" lon="2.48739">
        <ele>675</ele>
        <time>2025-06-08T08:25:57.479Z</time>
      </trkpt>
      <trkpt lat="45.40017" lon="2.4874">
        <ele>675</ele>
        <time>2025-06-08T08:25:58.479Z</time>
      </trkpt>
      <trkpt lat="45.40017" lon="2.4874">
        <ele>675</ele>
        <time>2025-06-08T08:25:59.479Z</time>
      </trkpt>
      <trkpt lat="45.40018" lon="2.48739">
        <ele>675</ele>
        <time>2025-06-08T08:26:00.479Z</time>
      </trkpt>
      <trkpt lat="45.40018" lon="2.48739">
        <ele>675</ele>
        <time>2025-06-08T08:26:01.479Z</time>
      </trkpt>
      <trkpt lat="45.40018" lon="2.48738">
        <ele>676</ele>
        <time>2025-06-08T08:26:02.479Z</time>
      </trkpt>
      <trkpt lat="45.40018" lon="2.48739">
        <ele>676</ele>
        <time>2025-06-08T08:26:03.479Z</time>
      </trkpt>
      <trkpt lat="45.40019" lon="2.48738">
        <ele>677</ele>
        <time>2025-06-08T08:26:04.479Z</time>
      </trkpt>
      <trkpt lat="45.40019" lon="2.48738">
        <ele>677</ele>
        <time>2025-06-08T08:26:05.479Z</time>
      </trkpt>
      <trkpt lat="45.4002" lon="2.48739">
        <ele>677</ele>
        <time>2025-06-08T08:26:06.479Z</time>
      </trkpt>
      <trkpt lat="45.4002" lon="2.48741">
        <ele>678</ele>
        <time>2025-06-08T08:26:07.479Z</time>
      </trkpt>
      <trkpt lat="45.40019" lon="2.48742">
        <ele>678</ele>
        <time>2025-06-08T08:26:08.479Z</time>
      </trkpt>
      <trkpt lat="45.40019" lon="2.48742">
        <ele>679</ele>
        <time>2025-06-08T08:26:09.479Z</time>
      </trkpt>
      <trkpt lat="45.40018" lon="2.48743">
        <ele>679</ele>
        <time>2025-06-08T08:26:10.479Z</time>
      </trkpt>
      <trkpt lat="45.40018" lon="2.48743">
        <ele>680</ele>
        <time>2025-06-08T08:26:11.479Z</time>
      </trkpt>
      <trkpt lat="45.40018" lon="2.48743">
        <ele>681</ele>
        <time>2025-06-08T08:26:12.479Z</time>
      </trkpt>
      <trkpt lat="45.40017" lon="2.48743">
        <ele>681</ele>
        <time>2025-06-08T08:26:13.479Z</time>
      </trkpt>
      <trkpt lat="45.40017" lon="2.48743">
        <ele>682</ele>
        <time>2025-06-08T08:26:14.479Z</time>
      </trkpt>
      <trkpt lat="45.40017" lon="2.48743">
        <ele>683</ele>
        <time>2025-06-08T08:26:15.479Z</time>
      </trkpt>
      <trkpt lat="45.40017" lon="2.48743">
        <ele>683</ele>
        <time>2025-06-08T08:26:16.479Z</time>
      </trkpt>
      <trkpt lat="45.40017" lon="2.48743">
        <ele>684</ele>
        <time>2025-06-08T08:26:17.479Z</time>
      </trkpt>
      <trkpt lat="45.40017" lon="2.48743">
        <ele>685</ele>
        <time>2025-06-08T08:26:18.479Z</time>
      </trkpt>
      <trkpt lat="45.40017" lon="2.48743">
        <ele>686</ele>
        <time>2025-06-08T08:26:19.479Z</time>
      </trkpt>
      <trkpt lat="45.40017" lon="2.48743">
        <ele>687</ele>
        <time>2025-06-08T08:26:20.479Z</time>
      </trkpt>
      <trkpt lat="45.40016" lon="2.48743">
        <ele>687</ele>
        <time>2025-06-08T08:26:21.479Z</time>
      </trkpt>
      <trkpt lat="45.40016" lon="2.48742">
        <ele>688</ele>
        <time>2025-06-08T08:26:22.479Z</time>
      </trkpt>
      <trkpt lat="45.40016" lon="2.48742">
        <ele>688</ele>
        <time>2025-06-08T08:26:23.479Z</time>
      </trkpt>
      <trkpt lat="45.40016" lon="2.48742">
        <ele>688</ele>
        <time>2025-06-08T08:26:24.479Z</time>
      </trkpt>
      <trkpt lat="45.40016" lon="2.48742">
        <ele>688</ele>
        <time>2025-06-08T08:26:25.479Z</time>
      </trkpt>
      <trkpt lat="45.40016" lon="2.48742">
        <ele>688</ele>
        <time>2025-06-08T08:26:26.479Z</time>
      </trkpt>
      <trkpt lat="45.40016" lon="2.48742">
        <ele>688</ele>
        <time>2025-06-08T08:26:27.479Z</time>
      </trkpt>
      <trkpt lat="45.40016" lon="2.48742">
        <ele>688</ele>
        <time>2025-06-08T08:26:28.479Z</time>
      </trkpt>
      <trkpt lat="45.40016" lon="2.48742">
        <ele>687</ele>
        <time>2025-06-08T08:26:29.479Z</time>
      </trkpt>
      <trkpt lat="45.40016" lon="2.48742">
        <ele>687</ele>
        <time>2025-06-08T08:26:30.479Z</time>
      </trkpt>
      <trkpt lat="45.40016" lon="2.48742">
        <ele>688</ele>
        <time>2025-06-08T08:26:31.479Z</time>
      </trkpt>
      <trkpt lat="45.40016" lon="2.48742">
        <ele>688</ele>
        <time>2025-06-08T08:26:32.479Z</time>
      </trkpt>
      <trkpt lat="45.40016" lon="2.48742">
        <ele>688</ele>
        <time>2025-06-08T08:26:33.479Z</time>
      </trkpt>
      <trkpt lat="45.40016" lon="2.48742">
        <ele>688</ele>
        <time>2025-06-08T08:26:34.479Z</time>
      </trkpt>
      <trkpt lat="45.40016" lon="2.48742">
        <ele>688</ele>
        <time>2025-06-08T08:26:35.479Z</time>
      </trkpt>
      <trkpt lat="45.40016" lon="2.48742">
        <ele>688</ele>
        <time>2025-06-08T08:26:36.479Z</time>
      </trkpt>
      <trkpt lat="45.40016" lon="2.48742">
        <ele>688</ele>
        <time>2025-06-08T08:26:37.479Z</time>
      </trkpt>
      <trkpt lat="45.40016" lon="2.48742">
        <ele>688</ele>
        <time>2025-06-08T08:26:38.479Z</time>
      </trkpt>
      <trkpt lat="45.40016" lon="2.48742">
        <ele>688</ele>
        <time>2025-06-08T08:26:39.479Z</time>
      </trkpt>
      <trkpt lat="45.40016" lon="2.48742">
        <ele>688</ele>
        <time>2025-06-08T08:26:40.479Z</time>
      </trkpt>
      <trkpt lat="45.40016" lon="2.48742">
        <ele>688</ele>
        <time>2025-06-08T08:26:41.479Z</time>
      </trkpt>
      <trkpt lat="45.40016" lon="2.48743">
        <ele>688</ele>
        <time>2025-06-08T08:26:42.479Z</time>
      </trkpt>
      <trkpt lat="45.40016" lon="2.48743">
        <ele>688</ele>
        <time>2025-06-08T08:26:43.479Z</time>
      </trkpt>
      <trkpt lat="45.40016" lon="2.48743">
        <ele>688</ele>
        <time>2025-06-08T08:26:44.479Z</time>
      </trkpt>
      <trkpt lat="45.40016" lon="2.48743">
        <ele>688</ele>
        <time>2025-06-08T08:26:45.479Z</time>
      </trkpt>
      <trkpt lat="45.40016" lon="2.48743">
        <ele>687</ele>
        <time>2025-06-08T08:26:46.479Z</time>
      </trkpt>
      <trkpt lat="45.40016" lon="2.48743">
        <ele>687</ele>
        <time>2025-06-08T08:26:47.479Z</time>
      </trkpt>
      <trkpt lat="45.40016" lon="2.48743">
        <ele>686</ele>
        <time>2025-06-08T08:26:48.479Z</time>
      </trkpt>
      <trkpt lat="45.40016" lon="2.48743">
        <ele>686</ele>
        <time>2025-06-08T08:26:49.479Z</time>
      </trkpt>
      <trkpt lat="45.40016" lon="2.48743">
        <ele>685</ele>
        <time>2025-06-08T08:26:50.479Z</time>
      </trkpt>
      <trkpt lat="45.40016" lon="2.48743">
        <ele>685</ele>
        <time>2025-06-08T08:26:51.479Z</time>
      </trkpt>
      <trkpt lat="45.40016" lon="2.48743">
        <ele>684</ele>
        <time>2025-06-08T08:26:52.479Z</time>
      </trkpt>
      <trkpt lat="45.40016" lon="2.48743">
        <ele>684</ele>
        <time>2025-06-08T08:26:53.479Z</time>
      </trkpt>
      <trkpt lat="45.40016" lon="2.48743">
        <ele>683</ele>
        <time>2025-06-08T08:26:54.479Z</time>
      </trkpt>
      <trkpt lat="45.40016" lon="2.48742">
        <ele>683</ele>
        <time>2025-06-08T08:26:55.479Z</time>
      </trkpt>
      <trkpt lat="45.40016" lon="2.48742">
        <ele>682</ele>
        <time>2025-06-08T08:26:56.479Z</time>
      </trkpt>
      <trkpt lat="45.40016" lon="2.48742">
        <ele>682</ele>
        <time>2025-06-08T08:26:57.479Z</time>
      </trkpt>
      <trkpt lat="45.40016" lon="2.48742">
        <ele>681</ele>
        <time>2025-06-08T08:26:58.479Z</time>
      </trkpt>
      <trkpt lat="45.40016" lon="2.48742">
        <ele>681</ele>
        <time>2025-06-08T08:26:59.479Z</time>
      </trkpt>
      <trkpt lat="45.40016" lon="2.48742">
        <ele>681</ele>
        <time>2025-06-08T08:27:00.479Z</time>
      </trkpt>
      <trkpt lat="45.40016" lon="2.48743">
        <ele>681</ele>
        <time>2025-06-08T08:27:01.479Z</time>
      </trkpt>
      <trkpt lat="45.40017" lon="2.48744">
        <ele>681</ele>
        <time>2025-06-08T08:27:02.479Z</time>
      </trkpt>
      <trkpt lat="45.40018" lon="2.48745">
        <ele>681</ele>
        <time>2025-06-08T08:27:03.479Z</time>
      </trkpt>
      <trkpt lat="45.40019" lon="2.48745">
        <ele>681</ele>
        <time>2025-06-08T08:27:04.479Z</time>
      </trkpt>
      <trkpt lat="45.40019" lon="2.48746">
        <ele>680</ele>
        <time>2025-06-08T08:27:05.479Z</time>
      </trkpt>
      <trkpt lat="45.40018" lon="2.48745">
        <ele>680</ele>
        <time>2025-06-08T08:27:06.479Z</time>
      </trkpt>
      <trkpt lat="45.40019" lon="2.48745">
        <ele>680</ele>
        <time>2025-06-08T08:27:07.479Z</time>
      </trkpt>
      <trkpt lat="45.40018" lon="2.48744">
        <ele>680</ele>
        <time>2025-06-08T08:27:08.479Z</time>
      </trkpt>
      <trkpt lat="45.40018" lon="2.48744">
        <ele>680</ele>
        <time>2025-06-08T08:27:09.479Z</time>
      </trkpt>
      <trkpt lat="45.40018" lon="2.48744">
        <ele>680</ele>
        <time>2025-06-08T08:27:10.479Z</time>
      </trkpt>
      <trkpt lat="45.40018" lon="2.48744">
        <ele>680</ele>
        <time>2025-06-08T08:27:11.479Z</time>
      </trkpt>
      <trkpt lat="45.40018" lon="2.48744">
        <ele>680</ele>
        <time>2025-06-08T08:27:12.479Z</time>
      </trkpt>
      <trkpt lat="45.40018" lon="2.48744">
        <ele>680</ele>
        <time>2025-06-08T08:27:13.479Z</time>
      </trkpt>
      <trkpt lat="45.40018" lon="2.48744">
        <ele>680</ele>
        <time>2025-06-08T08:27:14.479Z</time>
      </trkpt>
      <trkpt lat="45.40018" lon="2.48744">
        <ele>680</ele>
        <time>2025-06-08T08:27:15.479Z</time>
      </trkpt>
      <trkpt lat="45.40018" lon="2.48744">
        <ele>679</ele>
        <time>2025-06-08T08:27:16.479Z</time>
      </trkpt>
      <trkpt lat="45.40017" lon="2.48743">
        <ele>679</ele>
        <time>2025-06-08T08:27:17.479Z</time>
      </trkpt>
      <trkpt lat="45.40017" lon="2.48742">
        <ele>679</ele>
        <time>2025-06-08T08:27:18.479Z</time>
      </trkpt>
      <trkpt lat="45.40017" lon="2.48742">
        <ele>679</ele>
        <time>2025-06-08T08:27:19.479Z</time>
      </trkpt>
      <trkpt lat="45.40017" lon="2.48742">
        <ele>678</ele>
        <time>2025-06-08T08:27:20.479Z</time>
      </trkpt>
      <trkpt lat="45.40017" lon="2.48742">
        <ele>678</ele>
        <time>2025-06-08T08:27:21.479Z</time>
      </trkpt>
      <trkpt lat="45.40017" lon="2.48742">
        <ele>677</ele>
        <time>2025-06-08T08:27:22.479Z</time>
      </trkpt>
      <trkpt lat="45.40017" lon="2.48741">
        <ele>677</ele>
        <time>2025-06-08T08:27:23.479Z</time>
      </trkpt>
      <trkpt lat="45.40017" lon="2.4874">
        <ele>676</ele>
        <time>2025-06-08T08:27:24.479Z</time>
      </trkpt>
      <trkpt lat="45.40016" lon="2.48739">
        <ele>676</ele>
        <time>2025-06-08T08:27:25.479Z</time>
      </trkpt>
      <trkpt lat="45.40016" lon="2.48738">
        <ele>676</ele>
        <time>2025-06-08T08:27:26.479Z</time>
      </trkpt>
      <trkpt lat="45.40016" lon="2.48737">
        <ele>676</ele>
        <time>2025-06-08T08:27:27.479Z</time>
      </trkpt>
      <trkpt lat="45.40015" lon="2.48737">
        <ele>676</ele>
        <time>2025-06-08T08:27:28.479Z</time>
      </trkpt>
      <trkpt lat="45.40015" lon="2.48736">
        <ele>676</ele>
        <time>2025-06-08T08:27:29.479Z</time>
      </trkpt>
      <trkpt lat="45.40015" lon="2.48736">
        <ele>676</ele>
        <time>2025-06-08T08:27:30.479Z</time>
      </trkpt>
      <trkpt lat="45.40015" lon="2.48736">
        <ele>677</ele>
        <time>2025-06-08T08:27:31.479Z</time>
      </trkpt>
      <trkpt lat="45.40015" lon="2.48736">
        <ele>677</ele>
        <time>2025-06-08T08:27:32.479Z</time>
      </trkpt>
      <trkpt lat="45.40015" lon="2.48736">
        <ele>677</ele>
        <time>2025-06-08T08:27:33.479Z</time>
      </trkpt>
      <trkpt lat="45.40015" lon="2.48736">
        <ele>677</ele>
        <time>2025-06-08T08:27:34.479Z</time>
      </trkpt>
      <trkpt lat="45.40015" lon="2.48737">
        <ele>677</ele>
        <time>2025-06-08T08:27:35.479Z</time>
      </trkpt>
      <trkpt lat="45.40015" lon="2.48737">
        <ele>678</ele>
        <time>2025-06-08T08:27:36.479Z</time>
      </trkpt>
      <trkpt lat="45.40015" lon="2.48737">
        <ele>678</ele>
        <time>2025-06-08T08:27:37.479Z</time>
      </trkpt>
      <trkpt lat="45.40015" lon="2.48737">
        <ele>677</ele>
        <time>2025-06-08T08:27:38.479Z</time>
      </trkpt>
      <trkpt lat="45.40015" lon="2.48737">
        <ele>677</ele>
        <time>2025-06-08T08:27:39.479Z</time>
      </trkpt>
      <trkpt lat="45.40014" lon="2.48737">
        <ele>678</ele>
        <time>2025-06-08T08:27:40.479Z</time>
      </trkpt>
      <trkpt lat="45.40014" lon="2.48737">
        <ele>678</ele>
        <time>2025-06-08T08:27:41.479Z</time>
      </trkpt>
      <trkpt lat="45.40013" lon="2.48737">
        <ele>678</ele>
        <time>2025-06-08T08:27:42.479Z</time>
      </trkpt>
      <trkpt lat="45.40013" lon="2.48736">
        <ele>678</ele>
        <time>2025-06-08T08:27:43.479Z</time>
      </trkpt>
      <trkpt lat="45.40012" lon="2.48736">
        <ele>678</ele>
        <time>2025-06-08T08:27:44.479Z</time>
      </trkpt>
      <trkpt lat="45.40011" lon="2.48736">
        <ele>678</ele>
        <time>2025-06-08T08:27:45.479Z</time>
      </trkpt>
      <trkpt lat="45.4001" lon="2.48735">
        <ele>678</ele>
        <time>2025-06-08T08:27:46.479Z</time>
      </trkpt>
      <trkpt lat="45.4001" lon="2.48735">
        <ele>678</ele>
        <time>2025-06-08T08:27:47.479Z</time>
      </trkpt>
      <trkpt lat="45.40009" lon="2.48735">
        <ele>678</ele>
        <time>2025-06-08T08:27:48.479Z</time>
      </trkpt>
      <trkpt lat="45.40008" lon="2.48736">
        <ele>678</ele>
        <time>2025-06-08T08:27:49.479Z</time>
      </trkpt>
      <trkpt lat="45.40007" lon="2.48737">
        <ele>678</ele>
        <time>2025-06-08T08:27:50.479Z</time>
      </trkpt>
      <trkpt lat="45.40007" lon="2.48737">
        <ele>678</ele>
        <time>2025-06-08T08:27:51.479Z</time>
      </trkpt>
      <trkpt lat="45.40007" lon="2.48737">
        <ele>678</ele>
        <time>2025-06-08T08:27:52.479Z</time>
      </trkpt>
      <trkpt lat="45.40006" lon="2.48737">
        <ele>679</ele>
        <time>2025-06-08T08:27:53.479Z</time>
      </trkpt>
      <trkpt lat="45.40005" lon="2.48736">
        <ele>679</ele>
        <time>2025-06-08T08:27:54.479Z</time>
      </trkpt>
      <trkpt lat="45.40003" lon="2.48736">
        <ele>679</ele>
        <time>2025-06-08T08:27:55.479Z</time>
      </trkpt>
      <trkpt lat="45.40001" lon="2.48736">
        <ele>679</ele>
        <time>2025-06-08T08:27:56.479Z</time>
      </trkpt>
      <trkpt lat="45.39999" lon="2.48735">
        <ele>679</ele>
        <time>2025-06-08T08:27:57.479Z</time>
      </trkpt>
      <trkpt lat="45.39997" lon="2.48735">
        <ele>679</ele>
        <time>2025-06-08T08:27:58.479Z</time>
      </trkpt>
      <trkpt lat="45.39996" lon="2.48735">
        <ele>679</ele>
        <time>2025-06-08T08:27:59.479Z</time>
      </trkpt>
      <trkpt lat="45.39994" lon="2.48734">
        <ele>679</ele>
        <time>2025-06-08T08:28:00.479Z</time>
      </trkpt>
      <trkpt lat="45.39993" lon="2.48732">
        <ele>679</ele>
        <time>2025-06-08T08:28:01.479Z</time>
      </trkpt>
      <trkpt lat="45.39992" lon="2.48732">
        <ele>679</ele>
        <time>2025-06-08T08:28:02.479Z</time>
      </trkpt>
      <trkpt lat="45.39992" lon="2.48732">
        <ele>679</ele>
        <time>2025-06-08T08:28:03.479Z</time>
      </trkpt>
      <trkpt lat="45.39992" lon="2.4873">
        <ele>679</ele>
        <time>2025-06-08T08:28:04.479Z</time>
      </trkpt>
      <trkpt lat="45.39991" lon="2.4873">
        <ele>679</ele>
        <time>2025-06-08T08:28:05.479Z</time>
      </trkpt>
      <trkpt lat="45.3999" lon="2.4873">
        <ele>678</ele>
        <time>2025-06-08T08:28:06.479Z</time>
      </trkpt>
      <trkpt lat="45.39989" lon="2.4873">
        <ele>678</ele>
        <time>2025-06-08T08:28:07.479Z</time>
      </trkpt>
      <trkpt lat="45.39988" lon="2.4873">
        <ele>678</ele>
        <time>2025-06-08T08:28:08.479Z</time>
      </trkpt>
      <trkpt lat="45.39987" lon="2.48731">
        <ele>678</ele>
        <time>2025-06-08T08:28:09.479Z</time>
      </trkpt>
      <trkpt lat="45.39986" lon="2.48731">
        <ele>678</ele>
        <time>2025-06-08T08:28:10.479Z</time>
      </trkpt>
      <trkpt lat="45.39985" lon="2.48732">
        <ele>678</ele>
        <time>2025-06-08T08:28:11.479Z</time>
      </trkpt>
      <trkpt lat="45.39984" lon="2.48732">
        <ele>678</ele>
        <time>2025-06-08T08:28:12.479Z</time>
      </trkpt>
      <trkpt lat="45.39983" lon="2.48731">
        <ele>678</ele>
        <time>2025-06-08T08:28:13.479Z</time>
      </trkpt>
      <trkpt lat="45.39982" lon="2.48731">
        <ele>678</ele>
        <time>2025-06-08T08:28:14.479Z</time>
      </trkpt>
      <trkpt lat="45.3998" lon="2.48731">
        <ele>679</ele>
        <time>2025-06-08T08:28:15.479Z</time>
      </trkpt>
      <trkpt lat="45.39979" lon="2.48731">
        <ele>679</ele>
        <time>2025-06-08T08:28:16.479Z</time>
      </trkpt>
      <trkpt lat="45.39978" lon="2.48731">
        <ele>679</ele>
        <time>2025-06-08T08:28:17.479Z</time>
      </trkpt>
      <trkpt lat="45.39977" lon="2.48731">
        <ele>679</ele>
        <time>2025-06-08T08:28:18.479Z</time>
      </trkpt>
      <trkpt lat="45.39976" lon="2.48731">
        <ele>680</ele>
        <time>2025-06-08T08:28:19.479Z</time>
      </trkpt>
      <trkpt lat="45.39975" lon="2.48731">
        <ele>680</ele>
        <time>2025-06-08T08:28:20.479Z</time>
      </trkpt>
      <trkpt lat="45.39974" lon="2.48731">
        <ele>680</ele>
        <time>2025-06-08T08:28:21.479Z</time>
      </trkpt>
      <trkpt lat="45.39972" lon="2.4873">
        <ele>681</ele>
        <time>2025-06-08T08:28:22.479Z</time>
      </trkpt>
      <trkpt lat="45.39971" lon="2.48729">
        <ele>681</ele>
        <time>2025-06-08T08:28:23.479Z</time>
      </trkpt>
      <trkpt lat="45.39969" lon="2.48729">
        <ele>681</ele>
        <time>2025-06-08T08:28:24.479Z</time>
      </trkpt>
      <trkpt lat="45.39968" lon="2.48729">
        <ele>682</ele>
        <time>2025-06-08T08:28:25.479Z</time>
      </trkpt>
      <trkpt lat="45.39966" lon="2.48729">
        <ele>682</ele>
        <time>2025-06-08T08:28:26.479Z</time>
      </trkpt>
      <trkpt lat="45.39964" lon="2.48729">
        <ele>682</ele>
        <time>2025-06-08T08:28:27.479Z</time>
      </trkpt>
      <trkpt lat="45.39963" lon="2.48729">
        <ele>682</ele>
        <time>2025-06-08T08:28:28.479Z</time>
      </trkpt>
      <trkpt lat="45.39961" lon="2.48729">
        <ele>681</ele>
        <time>2025-06-08T08:28:29.479Z</time>
      </trkpt>
      <trkpt lat="45.3996" lon="2.48729">
        <ele>681</ele>
        <time>2025-06-08T08:28:30.479Z</time>
      </trkpt>
      <trkpt lat="45.39958" lon="2.48728">
        <ele>681</ele>
        <time>2025-06-08T08:28:31.479Z</time>
      </trkpt>
      <trkpt lat="45.39957" lon="2.48728">
        <ele>681</ele>
        <time>2025-06-08T08:28:32.479Z</time>
      </trkpt>
      <trkpt lat="45.39955" lon="2.48727">
        <ele>681</ele>
        <time>2025-06-08T08:28:33.479Z</time>
      </trkpt>
      <trkpt lat="45.39954" lon="2.48727">
        <ele>681</ele>
        <time>2025-06-08T08:28:34.479Z</time>
      </trkpt>
      <trkpt lat="45.39952" lon="2.48726">
        <ele>681</ele>
        <time>2025-06-08T08:28:35.479Z</time>
      </trkpt>
      <trkpt lat="45.39951" lon="2.48727">
        <ele>681</ele>
        <time>2025-06-08T08:28:36.479Z</time>
      </trkpt>
      <trkpt lat="45.39949" lon="2.48727">
        <ele>680</ele>
        <time>2025-06-08T08:28:37.479Z</time>
      </trkpt>
      <trkpt lat="45.39948" lon="2.48728">
        <ele>680</ele>
        <time>2025-06-08T08:28:38.479Z</time>
      </trkpt>
      <trkpt lat="45.39946" lon="2.48728">
        <ele>681</ele>
        <time>2025-06-08T08:28:39.479Z</time>
      </trkpt>
      <trkpt lat="45.39944" lon="2.48728">
        <ele>681</ele>
        <time>2025-06-08T08:28:40.479Z</time>
      </trkpt>
      <trkpt lat="45.39943" lon="2.48729">
        <ele>681</ele>
        <time>2025-06-08T08:28:41.479Z</time>
      </trkpt>
      <trkpt lat="45.39943" lon="2.48729">
        <ele>681</ele>
        <time>2025-06-08T08:28:42.479Z</time>
      </trkpt>
      <trkpt lat="45.39943" lon="2.48728">
        <ele>681</ele>
        <time>2025-06-08T08:28:43.479Z</time>
      </trkpt>
      <trkpt lat="45.39943" lon="2.48725">
        <ele>681</ele>
        <time>2025-06-08T08:28:44.479Z</time>
      </trkpt>
      <trkpt lat="45.39942" lon="2.48723">
        <ele>681</ele>
        <time>2025-06-08T08:28:45.479Z</time>
      </trkpt>
      <trkpt lat="45.39942" lon="2.48723">
        <ele>682</ele>
        <time>2025-06-08T08:28:46.479Z</time>
      </trkpt>
      <trkpt lat="45.39942" lon="2.48723">
        <ele>682</ele>
        <time>2025-06-08T08:28:47.479Z</time>
      </trkpt>
      <trkpt lat="45.39941" lon="2.48722">
        <ele>682</ele>
        <time>2025-06-08T08:28:48.479Z</time>
      </trkpt>
      <trkpt lat="45.39941" lon="2.48722">
        <ele>683</ele>
        <time>2025-06-08T08:28:49.479Z</time>
      </trkpt>
      <trkpt lat="45.39941" lon="2.48722">
        <ele>683</ele>
        <time>2025-06-08T08:28:50.479Z</time>
      </trkpt>
      <trkpt lat="45.39941" lon="2.48722">
        <ele>683</ele>
        <time>2025-06-08T08:28:51.479Z</time>
      </trkpt>
      <trkpt lat="45.39941" lon="2.48723">
        <ele>683</ele>
        <time>2025-06-08T08:28:52.479Z</time>
      </trkpt>
      <trkpt lat="45.39941" lon="2.48723">
        <ele>683</ele>
        <time>2025-06-08T08:28:53.479Z</time>
      </trkpt>
      <trkpt lat="45.39941" lon="2.48723">
        <ele>683</ele>
        <time>2025-06-08T08:28:54.479Z</time>
      </trkpt>
      <trkpt lat="45.39941" lon="2.48724">
        <ele>682</ele>
        <time>2025-06-08T08:28:55.479Z</time>
      </trkpt>
      <trkpt lat="45.39941" lon="2.48725">
        <ele>683</ele>
        <time>2025-06-08T08:28:56.479Z</time>
      </trkpt>
      <trkpt lat="45.3994" lon="2.48727">
        <ele>683</ele>
        <time>2025-06-08T08:28:57.479Z</time>
      </trkpt>
      <trkpt lat="45.39938" lon="2.48728">
        <ele>683</ele>
        <time>2025-06-08T08:28:58.479Z</time>
      </trkpt>
      <trkpt lat="45.39936" lon="2.48729">
        <ele>683</ele>
        <time>2025-06-08T08:28:59.479Z</time>
      </trkpt>
      <trkpt lat="45.39935" lon="2.48731">
        <ele>683</ele>
        <time>2025-06-08T08:29:00.479Z</time>
      </trkpt>
      <trkpt lat="45.39934" lon="2.48731">
        <ele>682</ele>
        <time>2025-06-08T08:29:01.479Z</time>
      </trkpt>
      <trkpt lat="45.39932" lon="2.48732">
        <ele>682</ele>
        <time>2025-06-08T08:29:02.479Z</time>
      </trkpt>
      <trkpt lat="45.39931" lon="2.48732">
        <ele>682</ele>
        <time>2025-06-08T08:29:03.479Z</time>
      </trkpt>
      <trkpt lat="45.39931" lon="2.48732">
        <ele>681</ele>
        <time>2025-06-08T08:29:04.479Z</time>
      </trkpt>
      <trkpt lat="45.3993" lon="2.48732">
        <ele>681</ele>
        <time>2025-06-08T08:29:05.479Z</time>
      </trkpt>
      <trkpt lat="45.39928" lon="2.48731">
        <ele>681</ele>
        <time>2025-06-08T08:29:06.479Z</time>
      </trkpt>
      <trkpt lat="45.39927" lon="2.4873">
        <ele>680</ele>
        <time>2025-06-08T08:29:07.479Z</time>
      </trkpt>
      <trkpt lat="45.39926" lon="2.48729">
        <ele>680</ele>
        <time>2025-06-08T08:29:08.479Z</time>
      </trkpt>
      <trkpt lat="45.39924" lon="2.48729">
        <ele>679</ele>
        <time>2025-06-08T08:29:09.479Z</time>
      </trkpt>
      <trkpt lat="45.39922" lon="2.48729">
        <ele>679</ele>
        <time>2025-06-08T08:29:10.479Z</time>
      </trkpt>
      <trkpt lat="45.39921" lon="2.48728">
        <ele>679</ele>
        <time>2025-06-08T08:29:11.479Z</time>
      </trkpt>
      <trkpt lat="45.39919" lon="2.48728">
        <ele>679</ele>
        <time>2025-06-08T08:29:12.479Z</time>
      </trkpt>
      <trkpt lat="45.39918" lon="2.48728">
        <ele>679</ele>
        <time>2025-06-08T08:29:13.479Z</time>
      </trkpt>
      <trkpt lat="45.39917" lon="2.48729">
        <ele>679</ele>
        <time>2025-06-08T08:29:14.479Z</time>
      </trkpt>
      <trkpt lat="45.39916" lon="2.4873">
        <ele>679</ele>
        <time>2025-06-08T08:29:15.479Z</time>
      </trkpt>
      <trkpt lat="45.39914" lon="2.4873">
        <ele>679</ele>
        <time>2025-06-08T08:29:16.479Z</time>
      </trkpt>
      <trkpt lat="45.39913" lon="2.4873">
        <ele>678</ele>
        <time>2025-06-08T08:29:17.479Z</time>
      </trkpt>
      <trkpt lat="45.39912" lon="2.4873">
        <ele>678</ele>
        <time>2025-06-08T08:29:18.479Z</time>
      </trkpt>
      <trkpt lat="45.39911" lon="2.4873">
        <ele>677</ele>
        <time>2025-06-08T08:29:19.479Z</time>
      </trkpt>
      <trkpt lat="45.3991" lon="2.4873">
        <ele>677</ele>
        <time>2025-06-08T08:29:20.479Z</time>
      </trkpt>
      <trkpt lat="45.39909" lon="2.4873">
        <ele>676</ele>
        <time>2025-06-08T08:29:21.479Z</time>
      </trkpt>
      <trkpt lat="45.39908" lon="2.48731">
        <ele>676</ele>
        <time>2025-06-08T08:29:22.479Z</time>
      </trkpt>
      <trkpt lat="45.39907" lon="2.48732">
        <ele>676</ele>
        <time>2025-06-08T08:29:23.479Z</time>
      </trkpt>
      <trkpt lat="45.39907" lon="2.48734">
        <ele>675</ele>
        <time>2025-06-08T08:29:24.479Z</time>
      </trkpt>
      <trkpt lat="45.39906" lon="2.48734">
        <ele>675</ele>
        <time>2025-06-08T08:29:25.479Z</time>
      </trkpt>
      <trkpt lat="45.39905" lon="2.48734">
        <ele>675</ele>
        <time>2025-06-08T08:29:26.479Z</time>
      </trkpt>
      <trkpt lat="45.39904" lon="2.48735">
        <ele>675</ele>
        <time>2025-06-08T08:29:27.479Z</time>
      </trkpt>
      <trkpt lat="45.39903" lon="2.48736">
        <ele>675</ele>
        <time>2025-06-08T08:29:28.479Z</time>
      </trkpt>
      <trkpt lat="45.39902" lon="2.48736">
        <ele>675</ele>
        <time>2025-06-08T08:29:29.479Z</time>
      </trkpt>
      <trkpt lat="45.39901" lon="2.48738">
        <ele>675</ele>
        <time>2025-06-08T08:29:30.479Z</time>
      </trkpt>
      <trkpt lat="45.399" lon="2.4874">
        <ele>675</ele>
        <time>2025-06-08T08:29:31.479Z</time>
      </trkpt>
      <trkpt lat="45.39898" lon="2.48741">
        <ele>675</ele>
        <time>2025-06-08T08:29:32.479Z</time>
      </trkpt>
      <trkpt lat="45.39897" lon="2.48743">
        <ele>675</ele>
        <time>2025-06-08T08:29:33.479Z</time>
      </trkpt>
      <trkpt lat="45.39895" lon="2.48745">
        <ele>675</ele>
        <time>2025-06-08T08:29:34.479Z</time>
      </trkpt>
      <trkpt lat="45.39893" lon="2.48746">
        <ele>675</ele>
        <time>2025-06-08T08:29:35.479Z</time>
      </trkpt>
      <trkpt lat="45.39892" lon="2.48747">
        <ele>674</ele>
        <time>2025-06-08T08:29:36.479Z</time>
      </trkpt>
      <trkpt lat="45.39891" lon="2.48747">
        <ele>674</ele>
        <time>2025-06-08T08:29:37.479Z</time>
      </trkpt>
      <trkpt lat="45.3989" lon="2.48748">
        <ele>673</ele>
        <time>2025-06-08T08:29:38.479Z</time>
      </trkpt>
      <trkpt lat="45.39888" lon="2.48748">
        <ele>673</ele>
        <time>2025-06-08T08:29:39.479Z</time>
      </trkpt>
      <trkpt lat="45.39888" lon="2.48746">
        <ele>672</ele>
        <time>2025-06-08T08:29:40.479Z</time>
      </trkpt>
      <trkpt lat="45.39887" lon="2.48746">
        <ele>672</ele>
        <time>2025-06-08T08:29:41.479Z</time>
      </trkpt>
      <trkpt lat="45.39886" lon="2.48746">
        <ele>672</ele>
        <time>2025-06-08T08:29:42.479Z</time>
      </trkpt>
      <trkpt lat="45.39885" lon="2.48747">
        <ele>672</ele>
        <time>2025-06-08T08:29:43.479Z</time>
      </trkpt>
      <trkpt lat="45.39883" lon="2.48747">
        <ele>672</ele>
        <time>2025-06-08T08:29:44.479Z</time>
      </trkpt>
      <trkpt lat="45.39881" lon="2.48748">
        <ele>672</ele>
        <time>2025-06-08T08:29:45.479Z</time>
      </trkpt>
      <trkpt lat="45.39877" lon="2.48748">
        <ele>672</ele>
        <time>2025-06-08T08:29:46.479Z</time>
      </trkpt>
      <trkpt lat="45.39875" lon="2.48748">
        <ele>673</ele>
        <time>2025-06-08T08:29:47.479Z</time>
      </trkpt>
      <trkpt lat="45.39873" lon="2.48747">
        <ele>673</ele>
        <time>2025-06-08T08:29:48.479Z</time>
      </trkpt>
      <trkpt lat="45.39871" lon="2.48747">
        <ele>673</ele>
        <time>2025-06-08T08:29:49.479Z</time>
      </trkpt>
      <trkpt lat="45.3987" lon="2.48747">
        <ele>674</ele>
        <time>2025-06-08T08:29:50.479Z</time>
      </trkpt>
      <trkpt lat="45.39869" lon="2.48748">
        <ele>674</ele>
        <time>2025-06-08T08:29:51.479Z</time>
      </trkpt>
      <trkpt lat="45.39868" lon="2.48747">
        <ele>675</ele>
        <time>2025-06-08T08:29:52.479Z</time>
      </trkpt>
      <trkpt lat="45.39866" lon="2.48747">
        <ele>675</ele>
        <time>2025-06-08T08:29:53.479Z</time>
      </trkpt>
      <trkpt lat="45.39865" lon="2.48747">
        <ele>675</ele>
        <time>2025-06-08T08:29:54.479Z</time>
      </trkpt>
      <trkpt lat="45.39864" lon="2.48747">
        <ele>675</ele>
        <time>2025-06-08T08:29:55.479Z</time>
      </trkpt>
      <trkpt lat="45.39863" lon="2.48747">
        <ele>675</ele>
        <time>2025-06-08T08:29:56.479Z</time>
      </trkpt>
      <trkpt lat="45.39861" lon="2.48745">
        <ele>675</ele>
        <time>2025-06-08T08:29:57.479Z</time>
      </trkpt>
      <trkpt lat="45.3986" lon="2.48744">
        <ele>675</ele>
        <time>2025-06-08T08:29:58.479Z</time>
      </trkpt>
      <trkpt lat="45.39858" lon="2.48744">
        <ele>675</ele>
        <time>2025-06-08T08:29:59.479Z</time>
      </trkpt>
      <trkpt lat="45.39857" lon="2.48744">
        <ele>675</ele>
        <time>2025-06-08T08:30:00.479Z</time>
      </trkpt>
      <trkpt lat="45.39856" lon="2.48743">
        <ele>675</ele>
        <time>2025-06-08T08:30:01.479Z</time>
      </trkpt>
      <trkpt lat="45.39855" lon="2.48743">
        <ele>675</ele>
        <time>2025-06-08T08:30:02.479Z</time>
      </trkpt>
      <trkpt lat="45.39854" lon="2.48742">
        <ele>675</ele>
        <time>2025-06-08T08:30:03.479Z</time>
      </trkpt>
      <trkpt lat="45.39854" lon="2.48742">
        <ele>675</ele>
        <time>2025-06-08T08:30:04.479Z</time>
      </trkpt>
      <trkpt lat="45.39853" lon="2.48741">
        <ele>675</ele>
        <time>2025-06-08T08:30:05.479Z</time>
      </trkpt>
      <trkpt lat="45.39852" lon="2.4874">
        <ele>675</ele>
        <time>2025-06-08T08:30:06.479Z</time>
      </trkpt>
      <trkpt lat="45.39851" lon="2.48739">
        <ele>675</ele>
        <time>2025-06-08T08:30:07.479Z</time>
      </trkpt>
      <trkpt lat="45.3985" lon="2.48738">
        <ele>674</ele>
        <time>2025-06-08T08:30:08.479Z</time>
      </trkpt>
      <trkpt lat="45.39849" lon="2.48737">
        <ele>674</ele>
        <time>2025-06-08T08:30:09.479Z</time>
      </trkpt>
      <trkpt lat="45.39849" lon="2.48734">
        <ele>674</ele>
        <time>2025-06-08T08:30:10.479Z</time>
      </trkpt>
      <trkpt lat="45.39847" lon="2.48733">
        <ele>673</ele>
        <time>2025-06-08T08:30:11.479Z</time>
      </trkpt>
      <trkpt lat="45.39845" lon="2.48732">
        <ele>673</ele>
        <time>2025-06-08T08:30:12.479Z</time>
      </trkpt>
      <trkpt lat="45.39843" lon="2.48732">
        <ele>673</ele>
        <time>2025-06-08T08:30:13.479Z</time>
      </trkpt>
      <trkpt lat="45.39841" lon="2.48731">
        <ele>673</ele>
        <time>2025-06-08T08:30:14.479Z</time>
      </trkpt>
      <trkpt lat="45.3984" lon="2.4873">
        <ele>672</ele>
        <time>2025-06-08T08:30:15.479Z</time>
      </trkpt>
      <trkpt lat="45.39839" lon="2.48727">
        <ele>672</ele>
        <time>2025-06-08T08:30:16.479Z</time>
      </trkpt>
      <trkpt lat="45.39838" lon="2.48725">
        <ele>671</ele>
        <time>2025-06-08T08:30:17.479Z</time>
      </trkpt>
      <trkpt lat="45.39838" lon="2.48723">
        <ele>670</ele>
        <time>2025-06-08T08:30:18.479Z</time>
      </trkpt>
      <trkpt lat="45.39837" lon="2.48723">
        <ele>670</ele>
        <time>2025-06-08T08:30:19.479Z</time>
      </trkpt>
      <trkpt lat="45.39836" lon="2.48722">
        <ele>669</ele>
        <time>2025-06-08T08:30:20.479Z</time>
      </trkpt>
      <trkpt lat="45.39835" lon="2.48721">
        <ele>669</ele>
        <time>2025-06-08T08:30:21.479Z</time>
      </trkpt>
      <trkpt lat="45.39833" lon="2.48721">
        <ele>669</ele>
        <time>2025-06-08T08:30:22.479Z</time>
      </trkpt>
      <trkpt lat="45.39831" lon="2.48721">
        <ele>668</ele>
        <time>2025-06-08T08:30:23.479Z</time>
      </trkpt>
      <trkpt lat="45.3983" lon="2.4872">
        <ele>668</ele>
        <time>2025-06-08T08:30:24.479Z</time>
      </trkpt>
      <trkpt lat="45.39829" lon="2.4872">
        <ele>668</ele>
        <time>2025-06-08T08:30:25.479Z</time>
      </trkpt>
      <trkpt lat="45.39828" lon="2.4872">
        <ele>668</ele>
        <time>2025-06-08T08:30:26.479Z</time>
      </trkpt>
      <trkpt lat="45.39827" lon="2.48718">
        <ele>668</ele>
        <time>2025-06-08T08:30:27.479Z</time>
      </trkpt>
      <trkpt lat="45.39825" lon="2.48718">
        <ele>669</ele>
        <time>2025-06-08T08:30:28.479Z</time>
      </trkpt>
      <trkpt lat="45.39823" lon="2.48716">
        <ele>669</ele>
        <time>2025-06-08T08:30:29.479Z</time>
      </trkpt>
      <trkpt lat="45.39822" lon="2.48715">
        <ele>669</ele>
        <time>2025-06-08T08:30:30.479Z</time>
      </trkpt>
      <trkpt lat="45.3982" lon="2.48714">
        <ele>669</ele>
        <time>2025-06-08T08:30:31.479Z</time>
      </trkpt>
      <trkpt lat="45.3982" lon="2.48713">
        <ele>669</ele>
        <time>2025-06-08T08:30:32.479Z</time>
      </trkpt>
      <trkpt lat="45.39819" lon="2.48713">
        <ele>669</ele>
        <time>2025-06-08T08:30:33.479Z</time>
      </trkpt>
      <trkpt lat="45.39818" lon="2.48712">
        <ele>670</ele>
        <time>2025-06-08T08:30:34.479Z</time>
      </trkpt>
      <trkpt lat="45.39818" lon="2.48712">
        <ele>670</ele>
        <time>2025-06-08T08:30:35.479Z</time>
      </trkpt>
      <trkpt lat="45.39817" lon="2.48711">
        <ele>670</ele>
        <time>2025-06-08T08:30:36.479Z</time>
      </trkpt>
      <trkpt lat="45.39816" lon="2.4871">
        <ele>670</ele>
        <time>2025-06-08T08:30:37.479Z</time>
      </trkpt>
      <trkpt lat="45.39815" lon="2.48709">
        <ele>670</ele>
        <time>2025-06-08T08:30:38.479Z</time>
      </trkpt>
      <trkpt lat="45.39813" lon="2.48707">
        <ele>670</ele>
        <time>2025-06-08T08:30:39.479Z</time>
      </trkpt>
      <trkpt lat="45.39812" lon="2.48706">
        <ele>670</ele>
        <time>2025-06-08T08:30:40.479Z</time>
      </trkpt>
      <trkpt lat="45.39811" lon="2.48704">
        <ele>670</ele>
        <time>2025-06-08T08:30:41.479Z</time>
      </trkpt>
      <trkpt lat="45.39809" lon="2.48701">
        <ele>670</ele>
        <time>2025-06-08T08:30:42.479Z</time>
      </trkpt>
      <trkpt lat="45.39809" lon="2.487">
        <ele>671</ele>
        <time>2025-06-08T08:30:43.479Z</time>
      </trkpt>
      <trkpt lat="45.39808" lon="2.48702">
        <ele>671</ele>
        <time>2025-06-08T08:30:44.479Z</time>
      </trkpt>
      <trkpt lat="45.39806" lon="2.48701">
        <ele>672</ele>
        <time>2025-06-08T08:30:45.479Z</time>
      </trkpt>
      <trkpt lat="45.39803" lon="2.48702">
        <ele>672</ele>
        <time>2025-06-08T08:30:46.479Z</time>
      </trkpt>
      <trkpt lat="45.39802" lon="2.48702">
        <ele>672</ele>
        <time>2025-06-08T08:30:47.479Z</time>
      </trkpt>
      <trkpt lat="45.39802" lon="2.48702">
        <ele>673</ele>
        <time>2025-06-08T08:30:48.479Z</time>
      </trkpt>
      <trkpt lat="45.39801" lon="2.48701">
        <ele>673</ele>
        <time>2025-06-08T08:30:49.479Z</time>
      </trkpt>
      <trkpt lat="45.398" lon="2.48698">
        <ele>673</ele>
        <time>2025-06-08T08:30:50.479Z</time>
      </trkpt>
      <trkpt lat="45.398" lon="2.48698">
        <ele>673</ele>
        <time>2025-06-08T08:30:51.479Z</time>
      </trkpt>
      <trkpt lat="45.398" lon="2.48696">
        <ele>673</ele>
        <time>2025-06-08T08:30:52.479Z</time>
      </trkpt>
      <trkpt lat="45.39799" lon="2.48693">
        <ele>673</ele>
        <time>2025-06-08T08:30:53.479Z</time>
      </trkpt>
      <trkpt lat="45.39799" lon="2.48692">
        <ele>673</ele>
        <time>2025-06-08T08:30:54.479Z</time>
      </trkpt>
      <trkpt lat="45.39798" lon="2.4869">
        <ele>673</ele>
        <time>2025-06-08T08:30:55.479Z</time>
      </trkpt>
      <trkpt lat="45.39798" lon="2.48689">
        <ele>673</ele>
        <time>2025-06-08T08:30:56.479Z</time>
      </trkpt>
      <trkpt lat="45.39798" lon="2.48687">
        <ele>674</ele>
        <time>2025-06-08T08:30:57.479Z</time>
      </trkpt>
      <trkpt lat="45.39797" lon="2.48687">
        <ele>674</ele>
        <time>2025-06-08T08:30:58.479Z</time>
      </trkpt>
      <trkpt lat="45.39797" lon="2.48686">
        <ele>675</ele>
        <time>2025-06-08T08:30:59.479Z</time>
      </trkpt>
      <trkpt lat="45.39796" lon="2.48685">
        <ele>675</ele>
        <time>2025-06-08T08:31:00.479Z</time>
      </trkpt>
      <trkpt lat="45.39795" lon="2.48685">
        <ele>676</ele>
        <time>2025-06-08T08:31:01.479Z</time>
      </trkpt>
      <trkpt lat="45.39794" lon="2.48685">
        <ele>676</ele>
        <time>2025-06-08T08:31:02.479Z</time>
      </trkpt>
      <trkpt lat="45.39794" lon="2.48685">
        <ele>676</ele>
        <time>2025-06-08T08:31:03.479Z</time>
      </trkpt>
      <trkpt lat="45.39793" lon="2.48685">
        <ele>676</ele>
        <time>2025-06-08T08:31:04.479Z</time>
      </trkpt>
      <trkpt lat="45.39793" lon="2.48684">
        <ele>677</ele>
        <time>2025-06-08T08:31:05.479Z</time>
      </trkpt>
      <trkpt lat="45.39792" lon="2.48684">
        <ele>676</ele>
        <time>2025-06-08T08:31:06.479Z</time>
      </trkpt>
      <trkpt lat="45.39791" lon="2.48684">
        <ele>676</ele>
        <time>2025-06-08T08:31:07.479Z</time>
      </trkpt>
      <trkpt lat="45.3979" lon="2.48683">
        <ele>676</ele>
        <time>2025-06-08T08:31:08.479Z</time>
      </trkpt>
      <trkpt lat="45.39789" lon="2.48682">
        <ele>676</ele>
        <time>2025-06-08T08:31:09.479Z</time>
      </trkpt>
      <trkpt lat="45.39789" lon="2.48682">
        <ele>675</ele>
        <time>2025-06-08T08:31:10.479Z</time>
      </trkpt>
      <trkpt lat="45.39788" lon="2.48682">
        <ele>675</ele>
        <time>2025-06-08T08:31:11.479Z</time>
      </trkpt>
      <trkpt lat="45.39787" lon="2.48682">
        <ele>675</ele>
        <time>2025-06-08T08:31:12.479Z</time>
      </trkpt>
      <trkpt lat="45.39786" lon="2.48683">
        <ele>674</ele>
        <time>2025-06-08T08:31:13.479Z</time>
      </trkpt>
      <trkpt lat="45.39784" lon="2.48685">
        <ele>674</ele>
        <time>2025-06-08T08:31:14.479Z</time>
      </trkpt>
      <trkpt lat="45.39783" lon="2.48685">
        <ele>673</ele>
        <time>2025-06-08T08:31:15.479Z</time>
      </trkpt>
      <trkpt lat="45.39782" lon="2.48685">
        <ele>673</ele>
        <time>2025-06-08T08:31:16.479Z</time>
      </trkpt>
      <trkpt lat="45.39781" lon="2.48684">
        <ele>672</ele>
        <time>2025-06-08T08:31:17.479Z</time>
      </trkpt>
      <trkpt lat="45.3978" lon="2.48682">
        <ele>672</ele>
        <time>2025-06-08T08:31:18.479Z</time>
      </trkpt>
      <trkpt lat="45.39779" lon="2.48681">
        <ele>672</ele>
        <time>2025-06-08T08:31:19.479Z</time>
      </trkpt>
      <trkpt lat="45.39777" lon="2.48679">
        <ele>672</ele>
        <time>2025-06-08T08:31:20.479Z</time>
      </trkpt>
      <trkpt lat="45.39776" lon="2.48678">
        <ele>672</ele>
        <time>2025-06-08T08:31:21.479Z</time>
      </trkpt>
      <trkpt lat="45.39775" lon="2.48678">
        <ele>672</ele>
        <time>2025-06-08T08:31:22.479Z</time>
      </trkpt>
      <trkpt lat="45.39774" lon="2.48678">
        <ele>672</ele>
        <time>2025-06-08T08:31:23.479Z</time>
      </trkpt>
      <trkpt lat="45.39773" lon="2.48678">
        <ele>672</ele>
        <time>2025-06-08T08:31:24.479Z</time>
      </trkpt>
      <trkpt lat="45.39773" lon="2.48677">
        <ele>672</ele>
        <time>2025-06-08T08:31:25.479Z</time>
      </trkpt>
      <trkpt lat="45.39772" lon="2.48677">
        <ele>672</ele>
        <time>2025-06-08T08:31:26.479Z</time>
      </trkpt>
      <trkpt lat="45.39771" lon="2.48676">
        <ele>672</ele>
        <time>2025-06-08T08:31:27.479Z</time>
      </trkpt>
      <trkpt lat="45.3977" lon="2.48676">
        <ele>672</ele>
        <time>2025-06-08T08:31:28.479Z</time>
      </trkpt>
      <trkpt lat="45.39769" lon="2.48675">
        <ele>672</ele>
        <time>2025-06-08T08:31:29.479Z</time>
      </trkpt>
      <trkpt lat="45.39768" lon="2.48673">
        <ele>672</ele>
        <time>2025-06-08T08:31:30.479Z</time>
      </trkpt>
      <trkpt lat="45.39766" lon="2.48671">
        <ele>672</ele>
        <time>2025-06-08T08:31:31.479Z</time>
      </trkpt>
      <trkpt lat="45.39765" lon="2.48669">
        <ele>672</ele>
        <time>2025-06-08T08:31:32.479Z</time>
      </trkpt>
      <trkpt lat="45.39764" lon="2.48667">
        <ele>672</ele>
        <time>2025-06-08T08:31:33.479Z</time>
      </trkpt>
      <trkpt lat="45.39763" lon="2.48666">
        <ele>672</ele>
        <time>2025-06-08T08:31:34.479Z</time>
      </trkpt>
      <trkpt lat="45.39763" lon="2.48665">
        <ele>672</ele>
        <time>2025-06-08T08:31:35.479Z</time>
      </trkpt>
      <trkpt lat="45.39762" lon="2.48664">
        <ele>672</ele>
        <time>2025-06-08T08:31:36.479Z</time>
      </trkpt>
      <trkpt lat="45.39761" lon="2.48663">
        <ele>671</ele>
        <time>2025-06-08T08:31:37.479Z</time>
      </trkpt>
      <trkpt lat="45.3976" lon="2.48662">
        <ele>671</ele>
        <time>2025-06-08T08:31:38.479Z</time>
      </trkpt>
      <trkpt lat="45.39759" lon="2.48661">
        <ele>671</ele>
        <time>2025-06-08T08:31:39.479Z</time>
      </trkpt>
      <trkpt lat="45.39758" lon="2.48661">
        <ele>671</ele>
        <time>2025-06-08T08:31:40.479Z</time>
      </trkpt>
      <trkpt lat="45.39757" lon="2.4866">
        <ele>671</ele>
        <time>2025-06-08T08:31:41.479Z</time>
      </trkpt>
      <trkpt lat="45.39757" lon="2.48659">
        <ele>671</ele>
        <time>2025-06-08T08:31:42.479Z</time>
      </trkpt>
      <trkpt lat="45.39756" lon="2.48659">
        <ele>671</ele>
        <time>2025-06-08T08:31:43.479Z</time>
      </trkpt>
      <trkpt lat="45.39756" lon="2.48655">
        <ele>671</ele>
        <time>2025-06-08T08:31:44.479Z</time>
      </trkpt>
      <trkpt lat="45.39756" lon="2.48654">
        <ele>671</ele>
        <time>2025-06-08T08:31:45.479Z</time>
      </trkpt>
      <trkpt lat="45.39755" lon="2.48653">
        <ele>671</ele>
        <time>2025-06-08T08:31:46.479Z</time>
      </trkpt>
      <trkpt lat="45.39754" lon="2.48649">
        <ele>671</ele>
        <time>2025-06-08T08:31:47.479Z</time>
      </trkpt>
      <trkpt lat="45.39753" lon="2.48646">
        <ele>671</ele>
        <time>2025-06-08T08:31:48.479Z</time>
      </trkpt>
      <trkpt lat="45.39752" lon="2.48645">
        <ele>672</ele>
        <time>2025-06-08T08:31:49.479Z</time>
      </trkpt>
      <trkpt lat="45.39751" lon="2.48645">
        <ele>672</ele>
        <time>2025-06-08T08:31:50.479Z</time>
      </trkpt>
      <trkpt lat="45.3975" lon="2.48645">
        <ele>672</ele>
        <time>2025-06-08T08:31:51.479Z</time>
      </trkpt>
      <trkpt lat="45.39749" lon="2.48644">
        <ele>672</ele>
        <time>2025-06-08T08:31:52.479Z</time>
      </trkpt>
      <trkpt lat="45.39748" lon="2.48643">
        <ele>672</ele>
        <time>2025-06-08T08:31:53.479Z</time>
      </trkpt>
      <trkpt lat="45.39747" lon="2.48642">
        <ele>672</ele>
        <time>2025-06-08T08:31:54.479Z</time>
      </trkpt>
      <trkpt lat="45.39746" lon="2.48641">
        <ele>672</ele>
        <time>2025-06-08T08:31:55.479Z</time>
      </trkpt>
      <trkpt lat="45.39744" lon="2.48641">
        <ele>672</ele>
        <time>2025-06-08T08:31:56.479Z</time>
      </trkpt>
      <trkpt lat="45.39743" lon="2.48641">
        <ele>672</ele>
        <time>2025-06-08T08:31:57.479Z</time>
      </trkpt>
      <trkpt lat="45.39742" lon="2.48642">
        <ele>672</ele>
        <time>2025-06-08T08:31:58.479Z</time>
      </trkpt>
      <trkpt lat="45.39741" lon="2.48642">
        <ele>672</ele>
        <time>2025-06-08T08:31:59.479Z</time>
      </trkpt>
      <trkpt lat="45.3974" lon="2.48643">
        <ele>672</ele>
        <time>2025-06-08T08:32:00.479Z</time>
      </trkpt>
      <trkpt lat="45.39739" lon="2.48643">
        <ele>672</ele>
        <time>2025-06-08T08:32:01.479Z</time>
      </trkpt>
      <trkpt lat="45.39738" lon="2.48644">
        <ele>673</ele>
        <time>2025-06-08T08:32:02.479Z</time>
      </trkpt>
      <trkpt lat="45.39736" lon="2.48646">
        <ele>673</ele>
        <time>2025-06-08T08:32:03.479Z</time>
      </trkpt>
      <trkpt lat="45.39735" lon="2.48646">
        <ele>673</ele>
        <time>2025-06-08T08:32:04.479Z</time>
      </trkpt>
      <trkpt lat="45.39735" lon="2.48644">
        <ele>673</ele>
        <time>2025-06-08T08:32:05.479Z</time>
      </trkpt>
      <trkpt lat="45.39735" lon="2.48643">
        <ele>673</ele>
        <time>2025-06-08T08:32:06.479Z</time>
      </trkpt>
      <trkpt lat="45.39733" lon="2.48641">
        <ele>673</ele>
        <time>2025-06-08T08:32:07.479Z</time>
      </trkpt>
      <trkpt lat="45.39732" lon="2.48641">
        <ele>672</ele>
        <time>2025-06-08T08:32:08.479Z</time>
      </trkpt>
      <trkpt lat="45.39731" lon="2.4864">
        <ele>672</ele>
        <time>2025-06-08T08:32:09.479Z</time>
      </trkpt>
      <trkpt lat="45.39729" lon="2.4864">
        <ele>672</ele>
        <time>2025-06-08T08:32:10.479Z</time>
      </trkpt>
      <trkpt lat="45.39729" lon="2.4864">
        <ele>672</ele>
        <time>2025-06-08T08:32:11.479Z</time>
      </trkpt>
      <trkpt lat="45.39728" lon="2.4864">
        <ele>672</ele>
        <time>2025-06-08T08:32:12.479Z</time>
      </trkpt>
      <trkpt lat="45.39728" lon="2.48639">
        <ele>672</ele>
        <time>2025-06-08T08:32:13.479Z</time>
      </trkpt>
      <trkpt lat="45.39727" lon="2.4864">
        <ele>672</ele>
        <time>2025-06-08T08:32:14.479Z</time>
      </trkpt>
      <trkpt lat="45.39726" lon="2.4864">
        <ele>672</ele>
        <time>2025-06-08T08:32:15.479Z</time>
      </trkpt>
      <trkpt lat="45.39725" lon="2.48641">
        <ele>672</ele>
        <time>2025-06-08T08:32:16.479Z</time>
      </trkpt>
      <trkpt lat="45.39724" lon="2.48641">
        <ele>672</ele>
        <time>2025-06-08T08:32:17.479Z</time>
      </trkpt>
      <trkpt lat="45.39723" lon="2.4864">
        <ele>673</ele>
        <time>2025-06-08T08:32:18.479Z</time>
      </trkpt>
      <trkpt lat="45.39721" lon="2.4864">
        <ele>673</ele>
        <time>2025-06-08T08:32:19.479Z</time>
      </trkpt>
      <trkpt lat="45.3972" lon="2.48639">
        <ele>673</ele>
        <time>2025-06-08T08:32:20.479Z</time>
      </trkpt>
      <trkpt lat="45.39719" lon="2.48639">
        <ele>673</ele>
        <time>2025-06-08T08:32:21.479Z</time>
      </trkpt>
      <trkpt lat="45.39719" lon="2.48639">
        <ele>672</ele>
        <time>2025-06-08T08:32:22.479Z</time>
      </trkpt>
      <trkpt lat="45.39717" lon="2.4864">
        <ele>672</ele>
        <time>2025-06-08T08:32:23.479Z</time>
      </trkpt>
      <trkpt lat="45.39716" lon="2.48641">
        <ele>672</ele>
        <time>2025-06-08T08:32:24.479Z</time>
      </trkpt>
      <trkpt lat="45.39715" lon="2.48641">
        <ele>672</ele>
        <time>2025-06-08T08:32:25.479Z</time>
      </trkpt>
      <trkpt lat="45.39714" lon="2.48641">
        <ele>672</ele>
        <time>2025-06-08T08:32:26.479Z</time>
      </trkpt>
      <trkpt lat="45.39714" lon="2.48642">
        <ele>672</ele>
        <time>2025-06-08T08:32:27.479Z</time>
      </trkpt>
      <trkpt lat="45.39713" lon="2.48641">
        <ele>672</ele>
        <time>2025-06-08T08:32:28.479Z</time>
      </trkpt>
      <trkpt lat="45.39712" lon="2.48641">
        <ele>672</ele>
        <time>2025-06-08T08:32:29.479Z</time>
      </trkpt>
      <trkpt lat="45.39711" lon="2.48641">
        <ele>672</ele>
        <time>2025-06-08T08:32:30.479Z</time>
      </trkpt>
      <trkpt lat="45.39711" lon="2.48641">
        <ele>673</ele>
        <time>2025-06-08T08:32:31.479Z</time>
      </trkpt>
      <trkpt lat="45.3971" lon="2.48641">
        <ele>672</ele>
        <time>2025-06-08T08:32:32.479Z</time>
      </trkpt>
      <trkpt lat="45.39708" lon="2.48641">
        <ele>672</ele>
        <time>2025-06-08T08:32:33.479Z</time>
      </trkpt>
      <trkpt lat="45.39707" lon="2.48641">
        <ele>673</ele>
        <time>2025-06-08T08:32:34.479Z</time>
      </trkpt>
      <trkpt lat="45.39706" lon="2.4864">
        <ele>673</ele>
        <time>2025-06-08T08:32:35.479Z</time>
      </trkpt>
      <trkpt lat="45.39705" lon="2.48639">
        <ele>673</ele>
        <time>2025-06-08T08:32:36.479Z</time>
      </trkpt>
      <trkpt lat="45.39703" lon="2.48639">
        <ele>673</ele>
        <time>2025-06-08T08:32:37.479Z</time>
      </trkpt>
      <trkpt lat="45.39702" lon="2.48639">
        <ele>674</ele>
        <time>2025-06-08T08:32:38.479Z</time>
      </trkpt>
      <trkpt lat="45.39701" lon="2.48638">
        <ele>674</ele>
        <time>2025-06-08T08:32:39.479Z</time>
      </trkpt>
      <trkpt lat="45.397" lon="2.48638">
        <ele>675</ele>
        <time>2025-06-08T08:32:40.479Z</time>
      </trkpt>
      <trkpt lat="45.39698" lon="2.48638">
        <ele>675</ele>
        <time>2025-06-08T08:32:41.479Z</time>
      </trkpt>
      <trkpt lat="45.39697" lon="2.48638">
        <ele>676</ele>
        <time>2025-06-08T08:32:42.479Z</time>
      </trkpt>
      <trkpt lat="45.39696" lon="2.48638">
        <ele>676</ele>
        <time>2025-06-08T08:32:43.479Z</time>
      </trkpt>
      <trkpt lat="45.39695" lon="2.48638">
        <ele>677</ele>
        <time>2025-06-08T08:32:44.479Z</time>
      </trkpt>
      <trkpt lat="45.39694" lon="2.48637">
        <ele>677</ele>
        <time>2025-06-08T08:32:45.479Z</time>
      </trkpt>
      <trkpt lat="45.39693" lon="2.48637">
        <ele>678</ele>
        <time>2025-06-08T08:32:46.479Z</time>
      </trkpt>
      <trkpt lat="45.39692" lon="2.48636">
        <ele>678</ele>
        <time>2025-06-08T08:32:47.479Z</time>
      </trkpt>
      <trkpt lat="45.39691" lon="2.48636">
        <ele>679</ele>
        <time>2025-06-08T08:32:48.479Z</time>
      </trkpt>
      <trkpt lat="45.39691" lon="2.48636">
        <ele>679</ele>
        <time>2025-06-08T08:32:49.479Z</time>
      </trkpt>
      <trkpt lat="45.3969" lon="2.48636">
        <ele>679</ele>
        <time>2025-06-08T08:32:50.479Z</time>
      </trkpt>
      <trkpt lat="45.39689" lon="2.48637">
        <ele>679</ele>
        <time>2025-06-08T08:32:51.479Z</time>
      </trkpt>
      <trkpt lat="45.39688" lon="2.48637">
        <ele>680</ele>
        <time>2025-06-08T08:32:52.479Z</time>
      </trkpt>
      <trkpt lat="45.39688" lon="2.48636">
        <ele>680</ele>
        <time>2025-06-08T08:32:53.479Z</time>
      </trkpt>
      <trkpt lat="45.39686" lon="2.48635">
        <ele>680</ele>
        <time>2025-06-08T08:32:54.479Z</time>
      </trkpt>
      <trkpt lat="45.39685" lon="2.48635">
        <ele>681</ele>
        <time>2025-06-08T08:32:55.479Z</time>
      </trkpt>
      <trkpt lat="45.39685" lon="2.48635">
        <ele>681</ele>
        <time>2025-06-08T08:32:56.479Z</time>
      </trkpt>
      <trkpt lat="45.39684" lon="2.48635">
        <ele>681</ele>
        <time>2025-06-08T08:32:57.479Z</time>
      </trkpt>
      <trkpt lat="45.39684" lon="2.48634">
        <ele>681</ele>
        <time>2025-06-08T08:32:58.479Z</time>
      </trkpt>
      <trkpt lat="45.39683" lon="2.48634">
        <ele>680</ele>
        <time>2025-06-08T08:32:59.479Z</time>
      </trkpt>
      <trkpt lat="45.39682" lon="2.48634">
        <ele>680</ele>
        <time>2025-06-08T08:33:00.479Z</time>
      </trkpt>
      <trkpt lat="45.39681" lon="2.48632">
        <ele>680</ele>
        <time>2025-06-08T08:33:01.479Z</time>
      </trkpt>
      <trkpt lat="45.39681" lon="2.48631">
        <ele>679</ele>
        <time>2025-06-08T08:33:02.479Z</time>
      </trkpt>
      <trkpt lat="45.39679" lon="2.48631">
        <ele>678</ele>
        <time>2025-06-08T08:33:03.479Z</time>
      </trkpt>
      <trkpt lat="45.39678" lon="2.48631">
        <ele>678</ele>
        <time>2025-06-08T08:33:04.479Z</time>
      </trkpt>
      <trkpt lat="45.39677" lon="2.4863">
        <ele>678</ele>
        <time>2025-06-08T08:33:05.479Z</time>
      </trkpt>
      <trkpt lat="45.39676" lon="2.48629">
        <ele>677</ele>
        <time>2025-06-08T08:33:06.479Z</time>
      </trkpt>
      <trkpt lat="45.39675" lon="2.48629">
        <ele>677</ele>
        <time>2025-06-08T08:33:07.479Z</time>
      </trkpt>
      <trkpt lat="45.39674" lon="2.48628">
        <ele>677</ele>
        <time>2025-06-08T08:33:08.479Z</time>
      </trkpt>
      <trkpt lat="45.39674" lon="2.48627">
        <ele>677</ele>
        <time>2025-06-08T08:33:09.479Z</time>
      </trkpt>
      <trkpt lat="45.39673" lon="2.48627">
        <ele>677</ele>
        <time>2025-06-08T08:33:10.479Z</time>
      </trkpt>
      <trkpt lat="45.39672" lon="2.48625">
        <ele>677</ele>
        <time>2025-06-08T08:33:11.479Z</time>
      </trkpt>
      <trkpt lat="45.39672" lon="2.48625">
        <ele>677</ele>
        <time>2025-06-08T08:33:12.479Z</time>
      </trkpt>
      <trkpt lat="45.39671" lon="2.48625">
        <ele>677</ele>
        <time>2025-06-08T08:33:13.479Z</time>
      </trkpt>
      <trkpt lat="45.3967" lon="2.48625">
        <ele>676</ele>
        <time>2025-06-08T08:33:14.479Z</time>
      </trkpt>
      <trkpt lat="45.3967" lon="2.48624">
        <ele>676</ele>
        <time>2025-06-08T08:33:15.479Z</time>
      </trkpt>
      <trkpt lat="45.39669" lon="2.48624">
        <ele>676</ele>
        <time>2025-06-08T08:33:16.479Z</time>
      </trkpt>
      <trkpt lat="45.39668" lon="2.48623">
        <ele>675</ele>
        <time>2025-06-08T08:33:17.479Z</time>
      </trkpt>
      <trkpt lat="45.39667" lon="2.48622">
        <ele>675</ele>
        <time>2025-06-08T08:33:18.479Z</time>
      </trkpt>
      <trkpt lat="45.39667" lon="2.48622">
        <ele>674</ele>
        <time>2025-06-08T08:33:19.479Z</time>
      </trkpt>
      <trkpt lat="45.39666" lon="2.48622">
        <ele>674</ele>
        <time>2025-06-08T08:33:20.479Z</time>
      </trkpt>
      <trkpt lat="45.39666" lon="2.48622">
        <ele>674</ele>
        <time>2025-06-08T08:33:21.479Z</time>
      </trkpt>
      <trkpt lat="45.39668" lon="2.48621">
        <ele>673</ele>
        <time>2025-06-08T08:33:22.479Z</time>
      </trkpt>
      <trkpt lat="45.39669" lon="2.48622">
        <ele>673</ele>
        <time>2025-06-08T08:33:23.479Z</time>
      </trkpt>
      <trkpt lat="45.39669" lon="2.48622">
        <ele>673</ele>
        <time>2025-06-08T08:33:24.479Z</time>
      </trkpt>
      <trkpt lat="45.39669" lon="2.48621">
        <ele>673</ele>
        <time>2025-06-08T08:33:25.479Z</time>
      </trkpt>
      <trkpt lat="45.39669" lon="2.48621">
        <ele>673</ele>
        <time>2025-06-08T08:33:26.479Z</time>
      </trkpt>
      <trkpt lat="45.39668" lon="2.48621">
        <ele>673</ele>
        <time>2025-06-08T08:33:27.479Z</time>
      </trkpt>
      <trkpt lat="45.39668" lon="2.48621">
        <ele>674</ele>
        <time>2025-06-08T08:33:28.479Z</time>
      </trkpt>
      <trkpt lat="45.39667" lon="2.48622">
        <ele>674</ele>
        <time>2025-06-08T08:33:29.479Z</time>
      </trkpt>
      <trkpt lat="45.39667" lon="2.48622">
        <ele>674</ele>
        <time>2025-06-08T08:33:30.479Z</time>
      </trkpt>
      <trkpt lat="45.39666" lon="2.48623">
        <ele>674</ele>
        <time>2025-06-08T08:33:31.479Z</time>
      </trkpt>
      <trkpt lat="45.39665" lon="2.48623">
        <ele>675</ele>
        <time>2025-06-08T08:33:32.479Z</time>
      </trkpt>
      <trkpt lat="45.39665" lon="2.48623">
        <ele>674</ele>
        <time>2025-06-08T08:33:33.479Z</time>
      </trkpt>
      <trkpt lat="45.39664" lon="2.48623">
        <ele>674</ele>
        <time>2025-06-08T08:33:34.479Z</time>
      </trkpt>
      <trkpt lat="45.39664" lon="2.48624">
        <ele>674</ele>
        <time>2025-06-08T08:33:35.479Z</time>
      </trkpt>
      <trkpt lat="45.39663" lon="2.48624">
        <ele>674</ele>
        <time>2025-06-08T08:33:36.479Z</time>
      </trkpt>
      <trkpt lat="45.39663" lon="2.48624">
        <ele>674</ele>
        <time>2025-06-08T08:33:37.479Z</time>
      </trkpt>
      <trkpt lat="45.39662" lon="2.48625">
        <ele>673</ele>
        <time>2025-06-08T08:33:38.479Z</time>
      </trkpt>
      <trkpt lat="45.39661" lon="2.48625">
        <ele>673</ele>
        <time>2025-06-08T08:33:39.479Z</time>
      </trkpt>
      <trkpt lat="45.3966" lon="2.48624">
        <ele>673</ele>
        <time>2025-06-08T08:33:40.479Z</time>
      </trkpt>
      <trkpt lat="45.39659" lon="2.48624">
        <ele>674</ele>
        <time>2025-06-08T08:33:41.479Z</time>
      </trkpt>
      <trkpt lat="45.39659" lon="2.48623">
        <ele>674</ele>
        <time>2025-06-08T08:33:42.479Z</time>
      </trkpt>
      <trkpt lat="45.39658" lon="2.48623">
        <ele>675</ele>
        <time>2025-06-08T08:33:43.479Z</time>
      </trkpt>
      <trkpt lat="45.39658" lon="2.48623">
        <ele>675</ele>
        <time>2025-06-08T08:33:44.479Z</time>
      </trkpt>
      <trkpt lat="45.39658" lon="2.48621">
        <ele>674</ele>
        <time>2025-06-08T08:33:45.479Z</time>
      </trkpt>
      <trkpt lat="45.39658" lon="2.4862">
        <ele>674</ele>
        <time>2025-06-08T08:33:46.479Z</time>
      </trkpt>
      <trkpt lat="45.39658" lon="2.4862">
        <ele>674</ele>
        <time>2025-06-08T08:33:47.479Z</time>
      </trkpt>
      <trkpt lat="45.39658" lon="2.48619">
        <ele>673</ele>
        <time>2025-06-08T08:33:48.479Z</time>
      </trkpt>
      <trkpt lat="45.39658" lon="2.48619">
        <ele>672</ele>
        <time>2025-06-08T08:33:49.479Z</time>
      </trkpt>
      <trkpt lat="45.39658" lon="2.48619">
        <ele>671</ele>
        <time>2025-06-08T08:33:50.479Z</time>
      </trkpt>
      <trkpt lat="45.39658" lon="2.48619">
        <ele>670</ele>
        <time>2025-06-08T08:33:51.479Z</time>
      </trkpt>
      <trkpt lat="45.39658" lon="2.48619">
        <ele>669</ele>
        <time>2025-06-08T08:33:52.479Z</time>
      </trkpt>
      <trkpt lat="45.39658" lon="2.48619">
        <ele>668</ele>
        <time>2025-06-08T08:33:53.479Z</time>
      </trkpt>
      <trkpt lat="45.39658" lon="2.48619">
        <ele>667</ele>
        <time>2025-06-08T08:33:54.479Z</time>
      </trkpt>
      <trkpt lat="45.39658" lon="2.48619">
        <ele>666</ele>
        <time>2025-06-08T08:33:55.479Z</time>
      </trkpt>
      <trkpt lat="45.39658" lon="2.48619">
        <ele>666</ele>
        <time>2025-06-08T08:33:56.479Z</time>
      </trkpt>
      <trkpt lat="45.39658" lon="2.48618">
        <ele>665</ele>
        <time>2025-06-08T08:33:57.479Z</time>
      </trkpt>
      <trkpt lat="45.39658" lon="2.48618">
        <ele>665</ele>
        <time>2025-06-08T08:33:58.479Z</time>
      </trkpt>
      <trkpt lat="45.39658" lon="2.48618">
        <ele>665</ele>
        <time>2025-06-08T08:33:59.479Z</time>
      </trkpt>
      <trkpt lat="45.39658" lon="2.48618">
        <ele>666</ele>
        <time>2025-06-08T08:34:00.479Z</time>
      </trkpt>
      <trkpt lat="45.39658" lon="2.48618">
        <ele>666</ele>
        <time>2025-06-08T08:34:01.479Z</time>
      </trkpt>
      <trkpt lat="45.39658" lon="2.48618">
        <ele>666</ele>
        <time>2025-06-08T08:34:02.479Z</time>
      </trkpt>
      <trkpt lat="45.39658" lon="2.48618">
        <ele>666</ele>
        <time>2025-06-08T08:34:03.479Z</time>
      </trkpt>
      <trkpt lat="45.39658" lon="2.48618">
        <ele>667</ele>
        <time>2025-06-08T08:34:04.479Z</time>
      </trkpt>
      <trkpt lat="45.39658" lon="2.48618">
        <ele>668</ele>
        <time>2025-06-08T08:34:05.479Z</time>
      </trkpt>
      <trkpt lat="45.39658" lon="2.48619">
        <ele>668</ele>
        <time>2025-06-08T08:34:06.479Z</time>
      </trkpt>
      <trkpt lat="45.39658" lon="2.48619">
        <ele>669</ele>
        <time>2025-06-08T08:34:07.479Z</time>
      </trkpt>
      <trkpt lat="45.39657" lon="2.48619">
        <ele>670</ele>
        <time>2025-06-08T08:34:08.479Z</time>
      </trkpt>
      <trkpt lat="45.39657" lon="2.48619">
        <ele>670</ele>
        <time>2025-06-08T08:34:09.479Z</time>
      </trkpt>
      <trkpt lat="45.39656" lon="2.48618">
        <ele>671</ele>
        <time>2025-06-08T08:34:10.479Z</time>
      </trkpt>
      <trkpt lat="45.39655" lon="2.48618">
        <ele>672</ele>
        <time>2025-06-08T08:34:11.479Z</time>
      </trkpt>
      <trkpt lat="45.39654" lon="2.48618">
        <ele>673</ele>
        <time>2025-06-08T08:34:12.479Z</time>
      </trkpt>
      <trkpt lat="45.39652" lon="2.48617">
        <ele>674</ele>
        <time>2025-06-08T08:34:13.479Z</time>
      </trkpt>
      <trkpt lat="45.39651" lon="2.48617">
        <ele>675</ele>
        <time>2025-06-08T08:34:14.479Z</time>
      </trkpt>
      <trkpt lat="45.3965" lon="2.48616">
        <ele>676</ele>
        <time>2025-06-08T08:34:15.479Z</time>
      </trkpt>
      <trkpt lat="45.39649" lon="2.48615">
        <ele>677</ele>
        <time>2025-06-08T08:34:16.479Z</time>
      </trkpt>
      <trkpt lat="45.39649" lon="2.48615">
        <ele>677</ele>
        <time>2025-06-08T08:34:17.479Z</time>
      </trkpt>
      <trkpt lat="45.39649" lon="2.48615">
        <ele>678</ele>
        <time>2025-06-08T08:34:18.479Z</time>
      </trkpt>
      <trkpt lat="45.39648" lon="2.48615">
        <ele>678</ele>
        <time>2025-06-08T08:34:19.479Z</time>
      </trkpt>
      <trkpt lat="45.39646" lon="2.48615">
        <ele>679</ele>
        <time>2025-06-08T08:34:20.479Z</time>
      </trkpt>
      <trkpt lat="45.39645" lon="2.48615">
        <ele>679</ele>
        <time>2025-06-08T08:34:21.479Z</time>
      </trkpt>
      <trkpt lat="45.39644" lon="2.48615">
        <ele>679</ele>
        <time>2025-06-08T08:34:22.479Z</time>
      </trkpt>
      <trkpt lat="45.39643" lon="2.48616">
        <ele>679</ele>
        <time>2025-06-08T08:34:23.479Z</time>
      </trkpt>
      <trkpt lat="45.39642" lon="2.48617">
        <ele>680</ele>
        <time>2025-06-08T08:34:24.479Z</time>
      </trkpt>
      <trkpt lat="45.39642" lon="2.48618">
        <ele>680</ele>
        <time>2025-06-08T08:34:25.479Z</time>
      </trkpt>
      <trkpt lat="45.3964" lon="2.48619">
        <ele>680</ele>
        <time>2025-06-08T08:34:26.479Z</time>
      </trkpt>
      <trkpt lat="45.3964" lon="2.48619">
        <ele>680</ele>
        <time>2025-06-08T08:34:27.479Z</time>
      </trkpt>
      <trkpt lat="45.39639" lon="2.48619">
        <ele>679</ele>
        <time>2025-06-08T08:34:28.479Z</time>
      </trkpt>
      <trkpt lat="45.39638" lon="2.4862">
        <ele>679</ele>
        <time>2025-06-08T08:34:29.479Z</time>
      </trkpt>
      <trkpt lat="45.39637" lon="2.48621">
        <ele>679</ele>
        <time>2025-06-08T08:34:30.479Z</time>
      </trkpt>
      <trkpt lat="45.39636" lon="2.48622">
        <ele>679</ele>
        <time>2025-06-08T08:34:31.479Z</time>
      </trkpt>
      <trkpt lat="45.39635" lon="2.48623">
        <ele>678</ele>
        <time>2025-06-08T08:34:32.479Z</time>
      </trkpt>
      <trkpt lat="45.39634" lon="2.48623">
        <ele>678</ele>
        <time>2025-06-08T08:34:33.479Z</time>
      </trkpt>
      <trkpt lat="45.39634" lon="2.48624">
        <ele>678</ele>
        <time>2025-06-08T08:34:34.479Z</time>
      </trkpt>
      <trkpt lat="45.39634" lon="2.48624">
        <ele>677</ele>
        <time>2025-06-08T08:34:35.479Z</time>
      </trkpt>
      <trkpt lat="45.39633" lon="2.48623">
        <ele>677</ele>
        <time>2025-06-08T08:34:36.479Z</time>
      </trkpt>
      <trkpt lat="45.39632" lon="2.48624">
        <ele>677</ele>
        <time>2025-06-08T08:34:37.479Z</time>
      </trkpt>
      <trkpt lat="45.39631" lon="2.48625">
        <ele>677</ele>
        <time>2025-06-08T08:34:38.479Z</time>
      </trkpt>
      <trkpt lat="45.3963" lon="2.48626">
        <ele>676</ele>
        <time>2025-06-08T08:34:39.479Z</time>
      </trkpt>
      <trkpt lat="45.39628" lon="2.48626">
        <ele>676</ele>
        <time>2025-06-08T08:34:40.479Z</time>
      </trkpt>
      <trkpt lat="45.39627" lon="2.48627">
        <ele>676</ele>
        <time>2025-06-08T08:34:41.479Z</time>
      </trkpt>
      <trkpt lat="45.39625" lon="2.48627">
        <ele>675</ele>
        <time>2025-06-08T08:34:42.479Z</time>
      </trkpt>
      <trkpt lat="45.39622" lon="2.48627">
        <ele>675</ele>
        <time>2025-06-08T08:34:43.479Z</time>
      </trkpt>
      <trkpt lat="45.39621" lon="2.48626">
        <ele>675</ele>
        <time>2025-06-08T08:34:44.479Z</time>
      </trkpt>
      <trkpt lat="45.39618" lon="2.48626">
        <ele>674</ele>
        <time>2025-06-08T08:34:45.479Z</time>
      </trkpt>
      <trkpt lat="45.39617" lon="2.48626">
        <ele>674</ele>
        <time>2025-06-08T08:34:46.479Z</time>
      </trkpt>
      <trkpt lat="45.39616" lon="2.48626">
        <ele>673</ele>
        <time>2025-06-08T08:34:47.479Z</time>
      </trkpt>
      <trkpt lat="45.39615" lon="2.48626">
        <ele>673</ele>
        <time>2025-06-08T08:34:48.479Z</time>
      </trkpt>
      <trkpt lat="45.39615" lon="2.48625">
        <ele>673</ele>
        <time>2025-06-08T08:34:49.479Z</time>
      </trkpt>
      <trkpt lat="45.39614" lon="2.48624">
        <ele>673</ele>
        <time>2025-06-08T08:34:50.479Z</time>
      </trkpt>
      <trkpt lat="45.39612" lon="2.48622">
        <ele>674</ele>
        <time>2025-06-08T08:34:51.479Z</time>
      </trkpt>
      <trkpt lat="45.39611" lon="2.48621">
        <ele>674</ele>
        <time>2025-06-08T08:34:52.479Z</time>
      </trkpt>
      <trkpt lat="45.39611" lon="2.4862">
        <ele>674</ele>
        <time>2025-06-08T08:34:53.479Z</time>
      </trkpt>
      <trkpt lat="45.3961" lon="2.48621">
        <ele>675</ele>
        <time>2025-06-08T08:34:54.479Z</time>
      </trkpt>
      <trkpt lat="45.39609" lon="2.4862">
        <ele>675</ele>
        <time>2025-06-08T08:34:55.479Z</time>
      </trkpt>
      <trkpt lat="45.39607" lon="2.48619">
        <ele>674</ele>
        <time>2025-06-08T08:34:56.479Z</time>
      </trkpt>
      <trkpt lat="45.39606" lon="2.48617">
        <ele>674</ele>
        <time>2025-06-08T08:34:57.479Z</time>
      </trkpt>
      <trkpt lat="45.39606" lon="2.48616">
        <ele>674</ele>
        <time>2025-06-08T08:34:58.479Z</time>
      </trkpt>
      <trkpt lat="45.39605" lon="2.48614">
        <ele>673</ele>
        <time>2025-06-08T08:34:59.479Z</time>
      </trkpt>
      <trkpt lat="45.39604" lon="2.48613">
        <ele>673</ele>
        <time>2025-06-08T08:35:00.479Z</time>
      </trkpt>
      <trkpt lat="45.39603" lon="2.48611">
        <ele>673</ele>
        <time>2025-06-08T08:35:01.479Z</time>
      </trkpt>
      <trkpt lat="45.39602" lon="2.4861">
        <ele>673</ele>
        <time>2025-06-08T08:35:02.479Z</time>
      </trkpt>
      <trkpt lat="45.39601" lon="2.4861">
        <ele>673</ele>
        <time>2025-06-08T08:35:03.479Z</time>
      </trkpt>
      <trkpt lat="45.396" lon="2.48609">
        <ele>673</ele>
        <time>2025-06-08T08:35:04.479Z</time>
      </trkpt>
      <trkpt lat="45.39598" lon="2.48608">
        <ele>673</ele>
        <time>2025-06-08T08:35:05.479Z</time>
      </trkpt>
      <trkpt lat="45.39597" lon="2.48607">
        <ele>673</ele>
        <time>2025-06-08T08:35:06.479Z</time>
      </trkpt>
      <trkpt lat="45.39596" lon="2.48607">
        <ele>673</ele>
        <time>2025-06-08T08:35:07.479Z</time>
      </trkpt>
      <trkpt lat="45.39595" lon="2.48607">
        <ele>673</ele>
        <time>2025-06-08T08:35:08.479Z</time>
      </trkpt>
      <trkpt lat="45.39593" lon="2.48607">
        <ele>673</ele>
        <time>2025-06-08T08:35:09.479Z</time>
      </trkpt>
      <trkpt lat="45.39592" lon="2.48607">
        <ele>673</ele>
        <time>2025-06-08T08:35:10.479Z</time>
      </trkpt>
      <trkpt lat="45.39591" lon="2.48607">
        <ele>673</ele>
        <time>2025-06-08T08:35:11.479Z</time>
      </trkpt>
      <trkpt lat="45.3959" lon="2.48607">
        <ele>673</ele>
        <time>2025-06-08T08:35:12.479Z</time>
      </trkpt>
      <trkpt lat="45.39589" lon="2.48606">
        <ele>673</ele>
        <time>2025-06-08T08:35:13.479Z</time>
      </trkpt>
      <trkpt lat="45.39588" lon="2.48606">
        <ele>672</ele>
        <time>2025-06-08T08:35:14.479Z</time>
      </trkpt>
      <trkpt lat="45.39587" lon="2.48605">
        <ele>672</ele>
        <time>2025-06-08T08:35:15.479Z</time>
      </trkpt>
      <trkpt lat="45.39586" lon="2.48605">
        <ele>672</ele>
        <time>2025-06-08T08:35:16.479Z</time>
      </trkpt>
      <trkpt lat="45.39585" lon="2.48605">
        <ele>671</ele>
        <time>2025-06-08T08:35:17.479Z</time>
      </trkpt>
      <trkpt lat="45.39584" lon="2.48605">
        <ele>671</ele>
        <time>2025-06-08T08:35:18.479Z</time>
      </trkpt>
      <trkpt lat="45.39583" lon="2.48605">
        <ele>671</ele>
        <time>2025-06-08T08:35:19.479Z</time>
      </trkpt>
      <trkpt lat="45.39581" lon="2.48605">
        <ele>671</ele>
        <time>2025-06-08T08:35:20.479Z</time>
      </trkpt>
      <trkpt lat="45.3958" lon="2.48604">
        <ele>670</ele>
        <time>2025-06-08T08:35:21.479Z</time>
      </trkpt>
      <trkpt lat="45.39579" lon="2.48604">
        <ele>670</ele>
        <time>2025-06-08T08:35:22.479Z</time>
      </trkpt>
      <trkpt lat="45.39578" lon="2.48603">
        <ele>670</ele>
        <time>2025-06-08T08:35:23.479Z</time>
      </trkpt>
      <trkpt lat="45.39577" lon="2.48602">
        <ele>670</ele>
        <time>2025-06-08T08:35:24.479Z</time>
      </trkpt>
      <trkpt lat="45.39577" lon="2.48601">
        <ele>670</ele>
        <time>2025-06-08T08:35:25.479Z</time>
      </trkpt>
      <trkpt lat="45.39576" lon="2.48601">
        <ele>670</ele>
        <time>2025-06-08T08:35:26.479Z</time>
      </trkpt>
      <trkpt lat="45.39575" lon="2.48601">
        <ele>670</ele>
        <time>2025-06-08T08:35:27.479Z</time>
      </trkpt>
      <trkpt lat="45.39574" lon="2.486">
        <ele>670</ele>
        <time>2025-06-08T08:35:28.479Z</time>
      </trkpt>
      <trkpt lat="45.39573" lon="2.486">
        <ele>670</ele>
        <time>2025-06-08T08:35:29.479Z</time>
      </trkpt>
      <trkpt lat="45.39572" lon="2.486">
        <ele>670</ele>
        <time>2025-06-08T08:35:30.479Z</time>
      </trkpt>
      <trkpt lat="45.39571" lon="2.486">
        <ele>669</ele>
        <time>2025-06-08T08:35:31.479Z</time>
      </trkpt>
      <trkpt lat="45.3957" lon="2.486">
        <ele>669</ele>
        <time>2025-06-08T08:35:32.479Z</time>
      </trkpt>
      <trkpt lat="45.39569" lon="2.48599">
        <ele>668</ele>
        <time>2025-06-08T08:35:33.479Z</time>
      </trkpt>
      <trkpt lat="45.39569" lon="2.48598">
        <ele>668</ele>
        <time>2025-06-08T08:35:34.479Z</time>
      </trkpt>
      <trkpt lat="45.39568" lon="2.48598">
        <ele>668</ele>
        <time>2025-06-08T08:35:35.479Z</time>
      </trkpt>
      <trkpt lat="45.39567" lon="2.48598">
        <ele>668</ele>
        <time>2025-06-08T08:35:36.479Z</time>
      </trkpt>
      <trkpt lat="45.39566" lon="2.48598">
        <ele>668</ele>
        <time>2025-06-08T08:35:37.479Z</time>
      </trkpt>
      <trkpt lat="45.39565" lon="2.48597">
        <ele>668</ele>
        <time>2025-06-08T08:35:38.479Z</time>
      </trkpt>
      <trkpt lat="45.39565" lon="2.48596">
        <ele>669</ele>
        <time>2025-06-08T08:35:39.479Z</time>
      </trkpt>
      <trkpt lat="45.39564" lon="2.48596">
        <ele>669</ele>
        <time>2025-06-08T08:35:40.479Z</time>
      </trkpt>
      <trkpt lat="45.39563" lon="2.48595">
        <ele>669</ele>
        <time>2025-06-08T08:35:41.479Z</time>
      </trkpt>
      <trkpt lat="45.39563" lon="2.48595">
        <ele>670</ele>
        <time>2025-06-08T08:35:42.479Z</time>
      </trkpt>
      <trkpt lat="45.39562" lon="2.48595">
        <ele>670</ele>
        <time>2025-06-08T08:35:43.479Z</time>
      </trkpt>
      <trkpt lat="45.39562" lon="2.48595">
        <ele>670</ele>
        <time>2025-06-08T08:35:44.479Z</time>
      </trkpt>
      <trkpt lat="45.39561" lon="2.48595">
        <ele>670</ele>
        <time>2025-06-08T08:35:45.479Z</time>
      </trkpt>
      <trkpt lat="45.3956" lon="2.48595">
        <ele>670</ele>
        <time>2025-06-08T08:35:46.479Z</time>
      </trkpt>
      <trkpt lat="45.39559" lon="2.48594">
        <ele>670</ele>
        <time>2025-06-08T08:35:47.479Z</time>
      </trkpt>
      <trkpt lat="45.39558" lon="2.48594">
        <ele>670</ele>
        <time>2025-06-08T08:35:48.479Z</time>
      </trkpt>
      <trkpt lat="45.39558" lon="2.48594">
        <ele>670</ele>
        <time>2025-06-08T08:35:49.479Z</time>
      </trkpt>
      <trkpt lat="45.39557" lon="2.48594">
        <ele>670</ele>
        <time>2025-06-08T08:35:50.479Z</time>
      </trkpt>
      <trkpt lat="45.39556" lon="2.48593">
        <ele>670</ele>
        <time>2025-06-08T08:35:51.479Z</time>
      </trkpt>
      <trkpt lat="45.39555" lon="2.48593">
        <ele>671</ele>
        <time>2025-06-08T08:35:52.479Z</time>
      </trkpt>
      <trkpt lat="45.39554" lon="2.48593">
        <ele>671</ele>
        <time>2025-06-08T08:35:53.479Z</time>
      </trkpt>
      <trkpt lat="45.39553" lon="2.48592">
        <ele>671</ele>
        <time>2025-06-08T08:35:54.479Z</time>
      </trkpt>
      <trkpt lat="45.39552" lon="2.4859">
        <ele>671</ele>
        <time>2025-06-08T08:35:55.479Z</time>
      </trkpt>
      <trkpt lat="45.39552" lon="2.48589">
        <ele>671</ele>
        <time>2025-06-08T08:35:56.479Z</time>
      </trkpt>
      <trkpt lat="45.39551" lon="2.48588">
        <ele>671</ele>
        <time>2025-06-08T08:35:57.479Z</time>
      </trkpt>
      <trkpt lat="45.39549" lon="2.48587">
        <ele>672</ele>
        <time>2025-06-08T08:35:58.479Z</time>
      </trkpt>
      <trkpt lat="45.39548" lon="2.48587">
        <ele>672</ele>
        <time>2025-06-08T08:35:59.479Z</time>
      </trkpt>
      <trkpt lat="45.39547" lon="2.48586">
        <ele>673</ele>
        <time>2025-06-08T08:36:00.479Z</time>
      </trkpt>
      <trkpt lat="45.39547" lon="2.48584">
        <ele>673</ele>
        <time>2025-06-08T08:36:01.479Z</time>
      </trkpt>
      <trkpt lat="45.39546" lon="2.48583">
        <ele>673</ele>
        <time>2025-06-08T08:36:02.479Z</time>
      </trkpt>
      <trkpt lat="45.39546" lon="2.48582">
        <ele>673</ele>
        <time>2025-06-08T08:36:03.479Z</time>
      </trkpt>
      <trkpt lat="45.39545" lon="2.48581">
        <ele>673</ele>
        <time>2025-06-08T08:36:04.479Z</time>
      </trkpt>
      <trkpt lat="45.39544" lon="2.4858">
        <ele>673</ele>
        <time>2025-06-08T08:36:05.479Z</time>
      </trkpt>
      <trkpt lat="45.39544" lon="2.4858">
        <ele>674</ele>
        <time>2025-06-08T08:36:06.479Z</time>
      </trkpt>
      <trkpt lat="45.39543" lon="2.48579">
        <ele>675</ele>
        <time>2025-06-08T08:36:07.479Z</time>
      </trkpt>
      <trkpt lat="45.39542" lon="2.48578">
        <ele>676</ele>
        <time>2025-06-08T08:36:08.479Z</time>
      </trkpt>
      <trkpt lat="45.39541" lon="2.48578">
        <ele>677</ele>
        <time>2025-06-08T08:36:09.479Z</time>
      </trkpt>
      <trkpt lat="45.3954" lon="2.48577">
        <ele>678</ele>
        <time>2025-06-08T08:36:10.479Z</time>
      </trkpt>
      <trkpt lat="45.39539" lon="2.48577">
        <ele>678</ele>
        <time>2025-06-08T08:36:11.479Z</time>
      </trkpt>
      <trkpt lat="45.39538" lon="2.48576">
        <ele>679</ele>
        <time>2025-06-08T08:36:12.479Z</time>
      </trkpt>
      <trkpt lat="45.39537" lon="2.48574">
        <ele>679</ele>
        <time>2025-06-08T08:36:13.479Z</time>
      </trkpt>
      <trkpt lat="45.39535" lon="2.48572">
        <ele>679</ele>
        <time>2025-06-08T08:36:14.479Z</time>
      </trkpt>
      <trkpt lat="45.39534" lon="2.48571">
        <ele>679</ele>
        <time>2025-06-08T08:36:15.479Z</time>
      </trkpt>
      <trkpt lat="45.39534" lon="2.48569">
        <ele>679</ele>
        <time>2025-06-08T08:36:16.479Z</time>
      </trkpt>
      <trkpt lat="45.39533" lon="2.48567">
        <ele>678</ele>
        <time>2025-06-08T08:36:17.479Z</time>
      </trkpt>
      <trkpt lat="45.39532" lon="2.48566">
        <ele>678</ele>
        <time>2025-06-08T08:36:18.479Z</time>
      </trkpt>
      <trkpt lat="45.39532" lon="2.48566">
        <ele>678</ele>
        <time>2025-06-08T08:36:19.479Z</time>
      </trkpt>
      <trkpt lat="45.39531" lon="2.48565">
        <ele>678</ele>
        <time>2025-06-08T08:36:20.479Z</time>
      </trkpt>
      <trkpt lat="45.3953" lon="2.48563">
        <ele>677</ele>
        <time>2025-06-08T08:36:21.479Z</time>
      </trkpt>
      <trkpt lat="45.3953" lon="2.48563">
        <ele>677</ele>
        <time>2025-06-08T08:36:22.479Z</time>
      </trkpt>
      <trkpt lat="45.3953" lon="2.48561">
        <ele>676</ele>
        <time>2025-06-08T08:36:23.479Z</time>
      </trkpt>
      <trkpt lat="45.3953" lon="2.48559">
        <ele>675</ele>
        <time>2025-06-08T08:36:24.479Z</time>
      </trkpt>
      <trkpt lat="45.39528" lon="2.48557">
        <ele>674</ele>
        <time>2025-06-08T08:36:25.479Z</time>
      </trkpt>
      <trkpt lat="45.39527" lon="2.48556">
        <ele>673</ele>
        <time>2025-06-08T08:36:26.479Z</time>
      </trkpt>
      <trkpt lat="45.39527" lon="2.48554">
        <ele>672</ele>
        <time>2025-06-08T08:36:27.479Z</time>
      </trkpt>
      <trkpt lat="45.39526" lon="2.48553">
        <ele>671</ele>
        <time>2025-06-08T08:36:28.479Z</time>
      </trkpt>
      <trkpt lat="45.39526" lon="2.48553">
        <ele>670</ele>
        <time>2025-06-08T08:36:29.479Z</time>
      </trkpt>
      <trkpt lat="45.39524" lon="2.48552">
        <ele>669</ele>
        <time>2025-06-08T08:36:30.479Z</time>
      </trkpt>
      <trkpt lat="45.39523" lon="2.48553">
        <ele>669</ele>
        <time>2025-06-08T08:36:31.479Z</time>
      </trkpt>
      <trkpt lat="45.39522" lon="2.48553">
        <ele>668</ele>
        <time>2025-06-08T08:36:32.479Z</time>
      </trkpt>
      <trkpt lat="45.39522" lon="2.48552">
        <ele>668</ele>
        <time>2025-06-08T08:36:33.479Z</time>
      </trkpt>
      <trkpt lat="45.3952" lon="2.48551">
        <ele>668</ele>
        <time>2025-06-08T08:36:34.479Z</time>
      </trkpt>
      <trkpt lat="45.39519" lon="2.48551">
        <ele>669</ele>
        <time>2025-06-08T08:36:35.479Z</time>
      </trkpt>
      <trkpt lat="45.39518" lon="2.48551">
        <ele>669</ele>
        <time>2025-06-08T08:36:36.479Z</time>
      </trkpt>
      <trkpt lat="45.39517" lon="2.48551">
        <ele>669</ele>
        <time>2025-06-08T08:36:37.479Z</time>
      </trkpt>
      <trkpt lat="45.39516" lon="2.4855">
        <ele>670</ele>
        <time>2025-06-08T08:36:38.479Z</time>
      </trkpt>
      <trkpt lat="45.39514" lon="2.48551">
        <ele>670</ele>
        <time>2025-06-08T08:36:39.479Z</time>
      </trkpt>
      <trkpt lat="45.39512" lon="2.48553">
        <ele>670</ele>
        <time>2025-06-08T08:36:40.479Z</time>
      </trkpt>
      <trkpt lat="45.3951" lon="2.48554">
        <ele>670</ele>
        <time>2025-06-08T08:36:41.479Z</time>
      </trkpt>
      <trkpt lat="45.39508" lon="2.48554">
        <ele>670</ele>
        <time>2025-06-08T08:36:42.479Z</time>
      </trkpt>
      <trkpt lat="45.39507" lon="2.48554">
        <ele>670</ele>
        <time>2025-06-08T08:36:43.479Z</time>
      </trkpt>
      <trkpt lat="45.39505" lon="2.48554">
        <ele>671</ele>
        <time>2025-06-08T08:36:44.479Z</time>
      </trkpt>
      <trkpt lat="45.39503" lon="2.48555">
        <ele>671</ele>
        <time>2025-06-08T08:36:45.479Z</time>
      </trkpt>
      <trkpt lat="45.39503" lon="2.48555">
        <ele>671</ele>
        <time>2025-06-08T08:36:46.479Z</time>
      </trkpt>
      <trkpt lat="45.39502" lon="2.48555">
        <ele>671</ele>
        <time>2025-06-08T08:36:47.479Z</time>
      </trkpt>
      <trkpt lat="45.39502" lon="2.48554">
        <ele>671</ele>
        <time>2025-06-08T08:36:48.479Z</time>
      </trkpt>
      <trkpt lat="45.39501" lon="2.48554">
        <ele>671</ele>
        <time>2025-06-08T08:36:49.479Z</time>
      </trkpt>
      <trkpt lat="45.39501" lon="2.48554">
        <ele>671</ele>
        <time>2025-06-08T08:36:50.479Z</time>
      </trkpt>
      <trkpt lat="45.39499" lon="2.48554">
        <ele>671</ele>
        <time>2025-06-08T08:36:51.479Z</time>
      </trkpt>
      <trkpt lat="45.39499" lon="2.48553">
        <ele>671</ele>
        <time>2025-06-08T08:36:52.479Z</time>
      </trkpt>
      <trkpt lat="45.39498" lon="2.48552">
        <ele>670</ele>
        <time>2025-06-08T08:36:53.479Z</time>
      </trkpt>
      <trkpt lat="45.39497" lon="2.48551">
        <ele>670</ele>
        <time>2025-06-08T08:36:54.479Z</time>
      </trkpt>
      <trkpt lat="45.39496" lon="2.48551">
        <ele>669</ele>
        <time>2025-06-08T08:36:55.479Z</time>
      </trkpt>
      <trkpt lat="45.39495" lon="2.48549">
        <ele>669</ele>
        <time>2025-06-08T08:36:56.479Z</time>
      </trkpt>
      <trkpt lat="45.39495" lon="2.48549">
        <ele>669</ele>
        <time>2025-06-08T08:36:57.479Z</time>
      </trkpt>
      <trkpt lat="45.39493" lon="2.48551">
        <ele>668</ele>
        <time>2025-06-08T08:36:58.479Z</time>
      </trkpt>
      <trkpt lat="45.39492" lon="2.48551">
        <ele>668</ele>
        <time>2025-06-08T08:36:59.479Z</time>
      </trkpt>
      <trkpt lat="45.39491" lon="2.48552">
        <ele>668</ele>
        <time>2025-06-08T08:37:00.479Z</time>
      </trkpt>
      <trkpt lat="45.3949" lon="2.48552">
        <ele>668</ele>
        <time>2025-06-08T08:37:01.479Z</time>
      </trkpt>
      <trkpt lat="45.39489" lon="2.48551">
        <ele>666</ele>
        <time>2025-06-08T08:37:02.479Z</time>
      </trkpt>
      <trkpt lat="45.39488" lon="2.4855">
        <ele>666</ele>
        <time>2025-06-08T08:37:03.479Z</time>
      </trkpt>
      <trkpt lat="45.39487" lon="2.48549">
        <ele>665</ele>
        <time>2025-06-08T08:37:04.479Z</time>
      </trkpt>
      <trkpt lat="45.39486" lon="2.48549">
        <ele>665</ele>
        <time>2025-06-08T08:37:05.479Z</time>
      </trkpt>
      <trkpt lat="45.39484" lon="2.48548">
        <ele>665</ele>
        <time>2025-06-08T08:37:06.479Z</time>
      </trkpt>
      <trkpt lat="45.39483" lon="2.48547">
        <ele>665</ele>
        <time>2025-06-08T08:37:07.479Z</time>
      </trkpt>
      <trkpt lat="45.39483" lon="2.48546">
        <ele>665</ele>
        <time>2025-06-08T08:37:08.479Z</time>
      </trkpt>
      <trkpt lat="45.39481" lon="2.48543">
        <ele>666</ele>
        <time>2025-06-08T08:37:09.479Z</time>
      </trkpt>
      <trkpt lat="45.3948" lon="2.48542">
        <ele>666</ele>
        <time>2025-06-08T08:37:10.479Z</time>
      </trkpt>
      <trkpt lat="45.3948" lon="2.48541">
        <ele>666</ele>
        <time>2025-06-08T08:37:11.479Z</time>
      </trkpt>
      <trkpt lat="45.39479" lon="2.48541">
        <ele>666</ele>
        <time>2025-06-08T08:37:12.479Z</time>
      </trkpt>
      <trkpt lat="45.39478" lon="2.48541">
        <ele>665</ele>
        <time>2025-06-08T08:37:13.479Z</time>
      </trkpt>
      <trkpt lat="45.39478" lon="2.4854">
        <ele>665</ele>
        <time>2025-06-08T08:37:14.479Z</time>
      </trkpt>
      <trkpt lat="45.39477" lon="2.4854">
        <ele>665</ele>
        <time>2025-06-08T08:37:15.479Z</time>
      </trkpt>
      <trkpt lat="45.39476" lon="2.48539">
        <ele>664</ele>
        <time>2025-06-08T08:37:16.479Z</time>
      </trkpt>
      <trkpt lat="45.39476" lon="2.4854">
        <ele>664</ele>
        <time>2025-06-08T08:37:17.479Z</time>
      </trkpt>
      <trkpt lat="45.39476" lon="2.48539">
        <ele>663</ele>
        <time>2025-06-08T08:37:18.479Z</time>
      </trkpt>
      <trkpt lat="45.39476" lon="2.48539">
        <ele>663</ele>
        <time>2025-06-08T08:37:19.479Z</time>
      </trkpt>
      <trkpt lat="45.39476" lon="2.48539">
        <ele>663</ele>
        <time>2025-06-08T08:37:20.479Z</time>
      </trkpt>
      <trkpt lat="45.39475" lon="2.48539">
        <ele>663</ele>
        <time>2025-06-08T08:37:21.479Z</time>
      </trkpt>
      <trkpt lat="45.39475" lon="2.48539">
        <ele>663</ele>
        <time>2025-06-08T08:37:22.479Z</time>
      </trkpt>
      <trkpt lat="45.39474" lon="2.48539">
        <ele>663</ele>
        <time>2025-06-08T08:37:23.479Z</time>
      </trkpt>
      <trkpt lat="45.39474" lon="2.4854">
        <ele>664</ele>
        <time>2025-06-08T08:37:24.479Z</time>
      </trkpt>
      <trkpt lat="45.39473" lon="2.4854">
        <ele>664</ele>
        <time>2025-06-08T08:37:25.479Z</time>
      </trkpt>
      <trkpt lat="45.39472" lon="2.4854">
        <ele>664</ele>
        <time>2025-06-08T08:37:26.479Z</time>
      </trkpt>
      <trkpt lat="45.39471" lon="2.48541">
        <ele>664</ele>
        <time>2025-06-08T08:37:27.479Z</time>
      </trkpt>
      <trkpt lat="45.3947" lon="2.48541">
        <ele>664</ele>
        <time>2025-06-08T08:37:28.479Z</time>
      </trkpt>
      <trkpt lat="45.3947" lon="2.48541">
        <ele>663</ele>
        <time>2025-06-08T08:37:29.479Z</time>
      </trkpt>
      <trkpt lat="45.3947" lon="2.48541">
        <ele>662</ele>
        <time>2025-06-08T08:37:30.479Z</time>
      </trkpt>
      <trkpt lat="45.39469" lon="2.4854">
        <ele>662</ele>
        <time>2025-06-08T08:37:31.479Z</time>
      </trkpt>
      <trkpt lat="45.39469" lon="2.4854">
        <ele>662</ele>
        <time>2025-06-08T08:37:32.479Z</time>
      </trkpt>
      <trkpt lat="45.39467" lon="2.4854">
        <ele>661</ele>
        <time>2025-06-08T08:37:33.479Z</time>
      </trkpt>
      <trkpt lat="45.39466" lon="2.4854">
        <ele>661</ele>
        <time>2025-06-08T08:37:34.479Z</time>
      </trkpt>
      <trkpt lat="45.39465" lon="2.48541">
        <ele>660</ele>
        <time>2025-06-08T08:37:35.479Z</time>
      </trkpt>
      <trkpt lat="45.39463" lon="2.48543">
        <ele>660</ele>
        <time>2025-06-08T08:37:36.479Z</time>
      </trkpt>
      <trkpt lat="45.39462" lon="2.48545">
        <ele>659</ele>
        <time>2025-06-08T08:37:37.479Z</time>
      </trkpt>
      <trkpt lat="45.39462" lon="2.48545">
        <ele>658</ele>
        <time>2025-06-08T08:37:38.479Z</time>
      </trkpt>
      <trkpt lat="45.39461" lon="2.48545">
        <ele>658</ele>
        <time>2025-06-08T08:37:39.479Z</time>
      </trkpt>
      <trkpt lat="45.39461" lon="2.48546">
        <ele>658</ele>
        <time>2025-06-08T08:37:40.479Z</time>
      </trkpt>
      <trkpt lat="45.3946" lon="2.48547">
        <ele>657</ele>
        <time>2025-06-08T08:37:41.479Z</time>
      </trkpt>
      <trkpt lat="45.39459" lon="2.48547">
        <ele>657</ele>
        <time>2025-06-08T08:37:42.479Z</time>
      </trkpt>
      <trkpt lat="45.39457" lon="2.48547">
        <ele>656</ele>
        <time>2025-06-08T08:37:43.479Z</time>
      </trkpt>
      <trkpt lat="45.39457" lon="2.48547">
        <ele>656</ele>
        <time>2025-06-08T08:37:44.479Z</time>
      </trkpt>
      <trkpt lat="45.39456" lon="2.48546">
        <ele>655</ele>
        <time>2025-06-08T08:37:45.479Z</time>
      </trkpt>
      <trkpt lat="45.39456" lon="2.48546">
        <ele>655</ele>
        <time>2025-06-08T08:37:46.479Z</time>
      </trkpt>
      <trkpt lat="45.39456" lon="2.48546">
        <ele>655</ele>
        <time>2025-06-08T08:37:47.479Z</time>
      </trkpt>
      <trkpt lat="45.39455" lon="2.48544">
        <ele>655</ele>
        <time>2025-06-08T08:37:48.479Z</time>
      </trkpt>
      <trkpt lat="45.39456" lon="2.48542">
        <ele>654</ele>
        <time>2025-06-08T08:37:49.479Z</time>
      </trkpt>
      <trkpt lat="45.39457" lon="2.4854">
        <ele>654</ele>
        <time>2025-06-08T08:37:50.479Z</time>
      </trkpt>
      <trkpt lat="45.39457" lon="2.4854">
        <ele>653</ele>
        <time>2025-06-08T08:37:51.479Z</time>
      </trkpt>
      <trkpt lat="45.39457" lon="2.4854">
        <ele>653</ele>
        <time>2025-06-08T08:37:52.479Z</time>
      </trkpt>
      <trkpt lat="45.39457" lon="2.4854">
        <ele>652</ele>
        <time>2025-06-08T08:37:53.479Z</time>
      </trkpt>
      <trkpt lat="45.39457" lon="2.48539">
        <ele>652</ele>
        <time>2025-06-08T08:37:54.479Z</time>
      </trkpt>
      <trkpt lat="45.39458" lon="2.48538">
        <ele>651</ele>
        <time>2025-06-08T08:37:55.479Z</time>
      </trkpt>
      <trkpt lat="45.39458" lon="2.48539">
        <ele>650</ele>
        <time>2025-06-08T08:37:56.479Z</time>
      </trkpt>
      <trkpt lat="45.39459" lon="2.48539">
        <ele>650</ele>
        <time>2025-06-08T08:37:57.479Z</time>
      </trkpt>
      <trkpt lat="45.39459" lon="2.48539">
        <ele>649</ele>
        <time>2025-06-08T08:37:58.479Z</time>
      </trkpt>
      <trkpt lat="45.39459" lon="2.48539">
        <ele>649</ele>
        <time>2025-06-08T08:37:59.479Z</time>
      </trkpt>
      <trkpt lat="45.3946" lon="2.48538">
        <ele>649</ele>
        <time>2025-06-08T08:38:00.479Z</time>
      </trkpt>
      <trkpt lat="45.3946" lon="2.48537">
        <ele>649</ele>
        <time>2025-06-08T08:38:01.479Z</time>
      </trkpt>
      <trkpt lat="45.3946" lon="2.48537">
        <ele>650</ele>
        <time>2025-06-08T08:38:02.479Z</time>
      </trkpt>
      <trkpt lat="45.3946" lon="2.48537">
        <ele>650</ele>
        <time>2025-06-08T08:38:03.479Z</time>
      </trkpt>
      <trkpt lat="45.3946" lon="2.48537">
        <ele>650</ele>
        <time>2025-06-08T08:38:04.479Z</time>
      </trkpt>
      <trkpt lat="45.3946" lon="2.48538">
        <ele>651</ele>
        <time>2025-06-08T08:38:05.479Z</time>
      </trkpt>
      <trkpt lat="45.3946" lon="2.48538">
        <ele>651</ele>
        <time>2025-06-08T08:38:06.479Z</time>
      </trkpt>
      <trkpt lat="45.3946" lon="2.48538">
        <ele>652</ele>
        <time>2025-06-08T08:38:07.479Z</time>
      </trkpt>
      <trkpt lat="45.3946" lon="2.48538">
        <ele>652</ele>
        <time>2025-06-08T08:38:08.479Z</time>
      </trkpt>
      <trkpt lat="45.3946" lon="2.48538">
        <ele>653</ele>
        <time>2025-06-08T08:38:09.479Z</time>
      </trkpt>
      <trkpt lat="45.3946" lon="2.48538">
        <ele>653</ele>
        <time>2025-06-08T08:38:10.479Z</time>
      </trkpt>
      <trkpt lat="45.3946" lon="2.48537">
        <ele>654</ele>
        <time>2025-06-08T08:38:11.479Z</time>
      </trkpt>
      <trkpt lat="45.3946" lon="2.48537">
        <ele>654</ele>
        <time>2025-06-08T08:38:12.479Z</time>
      </trkpt>
      <trkpt lat="45.3946" lon="2.48537">
        <ele>654</ele>
        <time>2025-06-08T08:38:13.479Z</time>
      </trkpt>
      <trkpt lat="45.3946" lon="2.48537">
        <ele>654</ele>
        <time>2025-06-08T08:38:14.479Z</time>
      </trkpt>
      <trkpt lat="45.3946" lon="2.48537">
        <ele>654</ele>
        <time>2025-06-08T08:38:15.479Z</time>
      </trkpt>
      <trkpt lat="45.3946" lon="2.48537">
        <ele>654</ele>
        <time>2025-06-08T08:38:16.479Z</time>
      </trkpt>
      <trkpt lat="45.39459" lon="2.48537">
        <ele>654</ele>
        <time>2025-06-08T08:38:17.479Z</time>
      </trkpt>
      <trkpt lat="45.39459" lon="2.48537">
        <ele>654</ele>
        <time>2025-06-08T08:38:18.479Z</time>
      </trkpt>
      <trkpt lat="45.3946" lon="2.48537">
        <ele>655</ele>
        <time>2025-06-08T08:38:19.479Z</time>
      </trkpt>
      <trkpt lat="45.3946" lon="2.48537">
        <ele>655</ele>
        <time>2025-06-08T08:38:20.479Z</time>
      </trkpt>
      <trkpt lat="45.39459" lon="2.48537">
        <ele>655</ele>
        <time>2025-06-08T08:38:21.479Z</time>
      </trkpt>
      <trkpt lat="45.3946" lon="2.48537">
        <ele>655</ele>
        <time>2025-06-08T08:38:22.479Z</time>
      </trkpt>
      <trkpt lat="45.3946" lon="2.48537">
        <ele>655</ele>
        <time>2025-06-08T08:38:23.479Z</time>
      </trkpt>
      <trkpt lat="45.3946" lon="2.48538">
        <ele>655</ele>
        <time>2025-06-08T08:38:24.479Z</time>
      </trkpt>
      <trkpt lat="45.3946" lon="2.48538">
        <ele>655</ele>
        <time>2025-06-08T08:38:25.479Z</time>
      </trkpt>
      <trkpt lat="45.3946" lon="2.48538">
        <ele>655</ele>
        <time>2025-06-08T08:38:26.479Z</time>
      </trkpt>
      <trkpt lat="45.3946" lon="2.48538">
        <ele>655</ele>
        <time>2025-06-08T08:38:27.479Z</time>
      </trkpt>
      <trkpt lat="45.3946" lon="2.48538">
        <ele>655</ele>
        <time>2025-06-08T08:38:28.479Z</time>
      </trkpt>
      <trkpt lat="45.3946" lon="2.48539">
        <ele>655</ele>
        <time>2025-06-08T08:38:29.479Z</time>
      </trkpt>
      <trkpt lat="45.3946" lon="2.48539">
        <ele>656</ele>
        <time>2025-06-08T08:38:30.479Z</time>
      </trkpt>
      <trkpt lat="45.3946" lon="2.48539">
        <ele>656</ele>
        <time>2025-06-08T08:38:31.479Z</time>
      </trkpt>
      <trkpt lat="45.3946" lon="2.48539">
        <ele>657</ele>
        <time>2025-06-08T08:38:32.479Z</time>
      </trkpt>
      <trkpt lat="45.3946" lon="2.48539">
        <ele>658</ele>
        <time>2025-06-08T08:38:33.479Z</time>
      </trkpt>
      <trkpt lat="45.3946" lon="2.48539">
        <ele>659</ele>
        <time>2025-06-08T08:38:34.479Z</time>
      </trkpt>
      <trkpt lat="45.3946" lon="2.48539">
        <ele>659</ele>
        <time>2025-06-08T08:38:35.479Z</time>
      </trkpt>
      <trkpt lat="45.3946" lon="2.48538">
        <ele>660</ele>
        <time>2025-06-08T08:38:36.479Z</time>
      </trkpt>
      <trkpt lat="45.39461" lon="2.48539">
        <ele>660</ele>
        <time>2025-06-08T08:38:37.479Z</time>
      </trkpt>
      <trkpt lat="45.39461" lon="2.48539">
        <ele>661</ele>
        <time>2025-06-08T08:38:38.479Z</time>
      </trkpt>
      <trkpt lat="45.39461" lon="2.48539">
        <ele>661</ele>
        <time>2025-06-08T08:38:39.479Z</time>
      </trkpt>
      <trkpt lat="45.39461" lon="2.48539">
        <ele>661</ele>
        <time>2025-06-08T08:38:40.479Z</time>
      </trkpt>
      <trkpt lat="45.39461" lon="2.48539">
        <ele>661</ele>
        <time>2025-06-08T08:38:41.479Z</time>
      </trkpt>
      <trkpt lat="45.39461" lon="2.48539">
        <ele>660</ele>
        <time>2025-06-08T08:38:42.479Z</time>
      </trkpt>
      <trkpt lat="45.39461" lon="2.48539">
        <ele>660</ele>
        <time>2025-06-08T08:38:43.479Z</time>
      </trkpt>
      <trkpt lat="45.39461" lon="2.48539">
        <ele>660</ele>
        <time>2025-06-08T08:38:44.479Z</time>
      </trkpt>
      <trkpt lat="45.39461" lon="2.48539">
        <ele>659</ele>
        <time>2025-06-08T08:38:45.479Z</time>
      </trkpt>
      <trkpt lat="45.39461" lon="2.48539">
        <ele>659</ele>
        <time>2025-06-08T08:38:46.479Z</time>
      </trkpt>
      <trkpt lat="45.39461" lon="2.48539">
        <ele>659</ele>
        <time>2025-06-08T08:38:47.479Z</time>
      </trkpt>
      <trkpt lat="45.39461" lon="2.48539">
        <ele>658</ele>
        <time>2025-06-08T08:38:48.479Z</time>
      </trkpt>
      <trkpt lat="45.39461" lon="2.48539">
        <ele>658</ele>
        <time>2025-06-08T08:38:49.479Z</time>
      </trkpt>
      <trkpt lat="45.39461" lon="2.48539">
        <ele>658</ele>
        <time>2025-06-08T08:38:50.479Z</time>
      </trkpt>
      <trkpt lat="45.39461" lon="2.48539">
        <ele>657</ele>
        <time>2025-06-08T08:38:51.479Z</time>
      </trkpt>
      <trkpt lat="45.39461" lon="2.48539">
        <ele>656</ele>
        <time>2025-06-08T08:38:52.479Z</time>
      </trkpt>
      <trkpt lat="45.39461" lon="2.48539">
        <ele>656</ele>
        <time>2025-06-08T08:38:53.479Z</time>
      </trkpt>
      <trkpt lat="45.39461" lon="2.48539">
        <ele>655</ele>
        <time>2025-06-08T08:38:54.479Z</time>
      </trkpt>
      <trkpt lat="45.39461" lon="2.48539">
        <ele>655</ele>
        <time>2025-06-08T08:38:55.479Z</time>
      </trkpt>
      <trkpt lat="45.39461" lon="2.48539">
        <ele>655</ele>
        <time>2025-06-08T08:38:56.479Z</time>
      </trkpt>
      <trkpt lat="45.39461" lon="2.48539">
        <ele>655</ele>
        <time>2025-06-08T08:38:57.479Z</time>
      </trkpt>
      <trkpt lat="45.39461" lon="2.48539">
        <ele>655</ele>
        <time>2025-06-08T08:38:58.479Z</time>
      </trkpt>
      <trkpt lat="45.3946" lon="2.48539">
        <ele>654</ele>
        <time>2025-06-08T08:38:59.479Z</time>
      </trkpt>
      <trkpt lat="45.3946" lon="2.48539">
        <ele>654</ele>
        <time>2025-06-08T08:39:00.479Z</time>
      </trkpt>
      <trkpt lat="45.3946" lon="2.48538">
        <ele>654</ele>
        <time>2025-06-08T08:39:01.479Z</time>
      </trkpt>
      <trkpt lat="45.3946" lon="2.48538">
        <ele>654</ele>
        <time>2025-06-08T08:39:02.479Z</time>
      </trkpt>
      <trkpt lat="45.3946" lon="2.48538">
        <ele>654</ele>
        <time>2025-06-08T08:39:03.479Z</time>
      </trkpt>
      <trkpt lat="45.3946" lon="2.48538">
        <ele>654</ele>
        <time>2025-06-08T08:39:04.479Z</time>
      </trkpt>
      <trkpt lat="45.3946" lon="2.48539">
        <ele>654</ele>
        <time>2025-06-08T08:39:05.479Z</time>
      </trkpt>
      <trkpt lat="45.3946" lon="2.48539">
        <ele>655</ele>
        <time>2025-06-08T08:39:06.479Z</time>
      </trkpt>
      <trkpt lat="45.3946" lon="2.48539">
        <ele>655</ele>
        <time>2025-06-08T08:39:07.479Z</time>
      </trkpt>
      <trkpt lat="45.3946" lon="2.48539">
        <ele>655</ele>
        <time>2025-06-08T08:39:08.479Z</time>
      </trkpt>
      <trkpt lat="45.3946" lon="2.48539">
        <ele>655</ele>
        <time>2025-06-08T08:39:09.479Z</time>
      </trkpt>
      <trkpt lat="45.3946" lon="2.48539">
        <ele>655</ele>
        <time>2025-06-08T08:39:10.479Z</time>
      </trkpt>
      <trkpt lat="45.3946" lon="2.48539">
        <ele>655</ele>
        <time>2025-06-08T08:39:11.479Z</time>
      </trkpt>
      <trkpt lat="45.3946" lon="2.48539">
        <ele>655</ele>
        <time>2025-06-08T08:39:12.479Z</time>
      </trkpt>
      <trkpt lat="45.3946" lon="2.48539">
        <ele>655</ele>
        <time>2025-06-08T08:39:13.479Z</time>
      </trkpt>
      <trkpt lat="45.3946" lon="2.48539">
        <ele>655</ele>
        <time>2025-06-08T08:39:14.479Z</time>
      </trkpt>
      <trkpt lat="45.3946" lon="2.48539">
        <ele>655</ele>
        <time>2025-06-08T08:39:15.479Z</time>
      </trkpt>
      <trkpt lat="45.3946" lon="2.48539">
        <ele>654</ele>
        <time>2025-06-08T08:39:16.479Z</time>
      </trkpt>
      <trkpt lat="45.3946" lon="2.48539">
        <ele>654</ele>
        <time>2025-06-08T08:39:17.479Z</time>
      </trkpt>
      <trkpt lat="45.3946" lon="2.48539">
        <ele>653</ele>
        <time>2025-06-08T08:39:18.479Z</time>
      </trkpt>
      <trkpt lat="45.3946" lon="2.48538">
        <ele>653</ele>
        <time>2025-06-08T08:39:19.479Z</time>
      </trkpt>
      <trkpt lat="45.3946" lon="2.48538">
        <ele>652</ele>
        <time>2025-06-08T08:39:20.479Z</time>
      </trkpt>
      <trkpt lat="45.3946" lon="2.48538">
        <ele>651</ele>
        <time>2025-06-08T08:39:21.479Z</time>
      </trkpt>
      <trkpt lat="45.39459" lon="2.48538">
        <ele>651</ele>
        <time>2025-06-08T08:39:22.479Z</time>
      </trkpt>
      <trkpt lat="45.39459" lon="2.48538">
        <ele>650</ele>
        <time>2025-06-08T08:39:23.479Z</time>
      </trkpt>
      <trkpt lat="45.39459" lon="2.48538">
        <ele>649</ele>
        <time>2025-06-08T08:39:24.479Z</time>
      </trkpt>
      <trkpt lat="45.39459" lon="2.48538">
        <ele>649</ele>
        <time>2025-06-08T08:39:25.479Z</time>
      </trkpt>
      <trkpt lat="45.3946" lon="2.48538">
        <ele>649</ele>
        <time>2025-06-08T08:39:26.479Z</time>
      </trkpt>
      <trkpt lat="45.3946" lon="2.48538">
        <ele>648</ele>
        <time>2025-06-08T08:39:27.479Z</time>
      </trkpt>
      <trkpt lat="45.3946" lon="2.48538">
        <ele>647</ele>
        <time>2025-06-08T08:39:28.479Z</time>
      </trkpt>
      <trkpt lat="45.3946" lon="2.48538">
        <ele>646</ele>
        <time>2025-06-08T08:39:29.479Z</time>
      </trkpt>
      <trkpt lat="45.39459" lon="2.48538">
        <ele>645</ele>
        <time>2025-06-08T08:39:30.479Z</time>
      </trkpt>
      <trkpt lat="45.39459" lon="2.48538">
        <ele>644</ele>
        <time>2025-06-08T08:39:31.479Z</time>
      </trkpt>
      <trkpt lat="45.39459" lon="2.48538">
        <ele>644</ele>
        <time>2025-06-08T08:39:32.479Z</time>
      </trkpt>
      <trkpt lat="45.39459" lon="2.48539">
        <ele>643</ele>
        <time>2025-06-08T08:39:33.479Z</time>
      </trkpt>
      <trkpt lat="45.39459" lon="2.48539">
        <ele>643</ele>
        <time>2025-06-08T08:39:34.479Z</time>
      </trkpt>
      <trkpt lat="45.39459" lon="2.48539">
        <ele>642</ele>
        <time>2025-06-08T08:39:35.479Z</time>
      </trkpt>
      <trkpt lat="45.39459" lon="2.48539">
        <ele>641</ele>
        <time>2025-06-08T08:39:36.479Z</time>
      </trkpt>
      <trkpt lat="45.39459" lon="2.48539">
        <ele>641</ele>
        <time>2025-06-08T08:39:37.479Z</time>
      </trkpt>
      <trkpt lat="45.39459" lon="2.48539">
        <ele>641</ele>
        <time>2025-06-08T08:39:38.479Z</time>
      </trkpt>
      <trkpt lat="45.39459" lon="2.48539">
        <ele>640</ele>
        <time>2025-06-08T08:39:39.479Z</time>
      </trkpt>
      <trkpt lat="45.39459" lon="2.48539">
        <ele>640</ele>
        <time>2025-06-08T08:39:40.479Z</time>
      </trkpt>
      <trkpt lat="45.39459" lon="2.48539">
        <ele>640</ele>
        <time>2025-06-08T08:39:41.479Z</time>
      </trkpt>
      <trkpt lat="45.39459" lon="2.48539">
        <ele>640</ele>
        <time>2025-06-08T08:39:42.479Z</time>
      </trkpt>
      <trkpt lat="45.39459" lon="2.48539">
        <ele>640</ele>
        <time>2025-06-08T08:39:43.479Z</time>
      </trkpt>
      <trkpt lat="45.39459" lon="2.4854">
        <ele>640</ele>
        <time>2025-06-08T08:39:44.479Z</time>
      </trkpt>
      <trkpt lat="45.39459" lon="2.48539">
        <ele>640</ele>
        <time>2025-06-08T08:39:45.479Z</time>
      </trkpt>
      <trkpt lat="45.39459" lon="2.48539">
        <ele>639</ele>
        <time>2025-06-08T08:39:46.479Z</time>
      </trkpt>
      <trkpt lat="45.39459" lon="2.48539">
        <ele>639</ele>
        <time>2025-06-08T08:39:47.479Z</time>
      </trkpt>
      <trkpt lat="45.39459" lon="2.48539">
        <ele>639</ele>
        <time>2025-06-08T08:39:48.479Z</time>
      </trkpt>
      <trkpt lat="45.39459" lon="2.48538">
        <ele>638</ele>
        <time>2025-06-08T08:39:49.479Z</time>
      </trkpt>
      <trkpt lat="45.39459" lon="2.48538">
        <ele>638</ele>
        <time>2025-06-08T08:39:50.479Z</time>
      </trkpt>
      <trkpt lat="45.39459" lon="2.48539">
        <ele>637</ele>
        <time>2025-06-08T08:39:51.479Z</time>
      </trkpt>
      <trkpt lat="45.39459" lon="2.48539">
        <ele>637</ele>
        <time>2025-06-08T08:39:52.479Z</time>
      </trkpt>
      <trkpt lat="45.39459" lon="2.48539">
        <ele>636</ele>
        <time>2025-06-08T08:39:53.479Z</time>
      </trkpt>
      <trkpt lat="45.39459" lon="2.48539">
        <ele>635</ele>
        <time>2025-06-08T08:39:54.479Z</time>
      </trkpt>
      <trkpt lat="45.39459" lon="2.48539">
        <ele>635</ele>
        <time>2025-06-08T08:39:55.479Z</time>
      </trkpt>
      <trkpt lat="45.39459" lon="2.48539">
        <ele>634</ele>
        <time>2025-06-08T08:39:56.479Z</time>
      </trkpt>
      <trkpt lat="45.39459" lon="2.48539">
        <ele>634</ele>
        <time>2025-06-08T08:39:57.479Z</time>
      </trkpt>
      <trkpt lat="45.39459" lon="2.4854">
        <ele>633</ele>
        <time>2025-06-08T08:39:58.479Z</time>
      </trkpt>
      <trkpt lat="45.3946" lon="2.4854">
        <ele>633</ele>
        <time>2025-06-08T08:39:59.479Z</time>
      </trkpt>
      <trkpt lat="45.3946" lon="2.4854">
        <ele>632</ele>
        <time>2025-06-08T08:40:00.479Z</time>
      </trkpt>
      <trkpt lat="45.39461" lon="2.48539">
        <ele>632</ele>
        <time>2025-06-08T08:40:01.479Z</time>
      </trkpt>
      <trkpt lat="45.39461" lon="2.48539">
        <ele>631</ele>
        <time>2025-06-08T08:40:02.479Z</time>
      </trkpt>
      <trkpt lat="45.3946" lon="2.48539">
        <ele>631</ele>
        <time>2025-06-08T08:40:03.479Z</time>
      </trkpt>
      <trkpt lat="45.3946" lon="2.48539">
        <ele>630</ele>
        <time>2025-06-08T08:40:04.479Z</time>
      </trkpt>
      <trkpt lat="45.3946" lon="2.48539">
        <ele>630</ele>
        <time>2025-06-08T08:40:05.479Z</time>
      </trkpt>
      <trkpt lat="45.3946" lon="2.48539">
        <ele>630</ele>
        <time>2025-06-08T08:40:06.479Z</time>
      </trkpt>
      <trkpt lat="45.3946" lon="2.48538">
        <ele>630</ele>
        <time>2025-06-08T08:40:07.479Z</time>
      </trkpt>
      <trkpt lat="45.3946" lon="2.48538">
        <ele>631</ele>
        <time>2025-06-08T08:40:08.479Z</time>
      </trkpt>
      <trkpt lat="45.3946" lon="2.48537">
        <ele>631</ele>
        <time>2025-06-08T08:40:09.479Z</time>
      </trkpt>
      <trkpt lat="45.39461" lon="2.48536">
        <ele>631</ele>
        <time>2025-06-08T08:40:10.479Z</time>
      </trkpt>
      <trkpt lat="45.39461" lon="2.48536">
        <ele>632</ele>
        <time>2025-06-08T08:40:11.479Z</time>
      </trkpt>
      <trkpt lat="45.39461" lon="2.48536">
        <ele>632</ele>
        <time>2025-06-08T08:40:12.479Z</time>
      </trkpt>
      <trkpt lat="45.39461" lon="2.48536">
        <ele>633</ele>
        <time>2025-06-08T08:40:13.479Z</time>
      </trkpt>
      <trkpt lat="45.39461" lon="2.48537">
        <ele>633</ele>
        <time>2025-06-08T08:40:14.479Z</time>
      </trkpt>
      <trkpt lat="45.39461" lon="2.48537">
        <ele>633</ele>
        <time>2025-06-08T08:40:15.479Z</time>
      </trkpt>
      <trkpt lat="45.39461" lon="2.48537">
        <ele>633</ele>
        <time>2025-06-08T08:40:16.479Z</time>
      </trkpt>
      <trkpt lat="45.39461" lon="2.48536">
        <ele>633</ele>
        <time>2025-06-08T08:40:17.479Z</time>
      </trkpt>
      <trkpt lat="45.39461" lon="2.48536">
        <ele>633</ele>
        <time>2025-06-08T08:40:18.479Z</time>
      </trkpt>
      <trkpt lat="45.39461" lon="2.48536">
        <ele>633</ele>
        <time>2025-06-08T08:40:19.479Z</time>
      </trkpt>
      <trkpt lat="45.39461" lon="2.48536">
        <ele>633</ele>
        <time>2025-06-08T08:40:20.479Z</time>
      </trkpt>
      <trkpt lat="45.39462" lon="2.48537">
        <ele>632</ele>
        <time>2025-06-08T08:40:21.479Z</time>
      </trkpt>
      <trkpt lat="45.39462" lon="2.48537">
        <ele>633</ele>
        <time>2025-06-08T08:40:22.479Z</time>
      </trkpt>
      <trkpt lat="45.39462" lon="2.48537">
        <ele>633</ele>
        <time>2025-06-08T08:40:23.479Z</time>
      </trkpt>
      <trkpt lat="45.39462" lon="2.48537">
        <ele>632</ele>
        <time>2025-06-08T08:40:24.479Z</time>
      </trkpt>
      <trkpt lat="45.39462" lon="2.48537">
        <ele>632</ele>
        <time>2025-06-08T08:40:25.479Z</time>
      </trkpt>
      <trkpt lat="45.39462" lon="2.48537">
        <ele>632</ele>
        <time>2025-06-08T08:40:26.479Z</time>
      </trkpt>
      <trkpt lat="45.39462" lon="2.48537">
        <ele>632</ele>
        <time>2025-06-08T08:40:27.479Z</time>
      </trkpt>
      <trkpt lat="45.39462" lon="2.48537">
        <ele>632</ele>
        <time>2025-06-08T08:40:28.479Z</time>
      </trkpt>
      <trkpt lat="45.39462" lon="2.48537">
        <ele>632</ele>
        <time>2025-06-08T08:40:29.479Z</time>
      </trkpt>
      <trkpt lat="45.39462" lon="2.48537">
        <ele>632</ele>
        <time>2025-06-08T08:40:30.479Z</time>
      </trkpt>
      <trkpt lat="45.39462" lon="2.48537">
        <ele>632</ele>
        <time>2025-06-08T08:40:31.479Z</time>
      </trkpt>
      <trkpt lat="45.39462" lon="2.48537">
        <ele>633</ele>
        <time>2025-06-08T08:40:32.479Z</time>
      </trkpt>
      <trkpt lat="45.39462" lon="2.48537">
        <ele>633</ele>
        <time>2025-06-08T08:40:33.479Z</time>
      </trkpt>
      <trkpt lat="45.39462" lon="2.48536">
        <ele>634</ele>
        <time>2025-06-08T08:40:34.479Z</time>
      </trkpt>
      <trkpt lat="45.39462" lon="2.48536">
        <ele>635</ele>
        <time>2025-06-08T08:40:35.479Z</time>
      </trkpt>
      <trkpt lat="45.39462" lon="2.48536">
        <ele>635</ele>
        <time>2025-06-08T08:40:36.479Z</time>
      </trkpt>
      <trkpt lat="45.39462" lon="2.48535">
        <ele>636</ele>
        <time>2025-06-08T08:40:37.479Z</time>
      </trkpt>
      <trkpt lat="45.39462" lon="2.48535">
        <ele>637</ele>
        <time>2025-06-08T08:40:38.479Z</time>
      </trkpt>
      <trkpt lat="45.39462" lon="2.48535">
        <ele>638</ele>
        <time>2025-06-08T08:40:39.479Z</time>
      </trkpt>
      <trkpt lat="45.39462" lon="2.48535">
        <ele>639</ele>
        <time>2025-06-08T08:40:40.479Z</time>
      </trkpt>
      <trkpt lat="45.39462" lon="2.48535">
        <ele>640</ele>
        <time>2025-06-08T08:40:41.479Z</time>
      </trkpt>
      <trkpt lat="45.39462" lon="2.48535">
        <ele>640</ele>
        <time>2025-06-08T08:40:42.479Z</time>
      </trkpt>
      <trkpt lat="45.39462" lon="2.48534">
        <ele>641</ele>
        <time>2025-06-08T08:40:43.479Z</time>
      </trkpt>
      <trkpt lat="45.39462" lon="2.48534">
        <ele>641</ele>
        <time>2025-06-08T08:40:44.479Z</time>
      </trkpt>
      <trkpt lat="45.39463" lon="2.48534">
        <ele>642</ele>
        <time>2025-06-08T08:40:45.479Z</time>
      </trkpt>
      <trkpt lat="45.39463" lon="2.48534">
        <ele>642</ele>
        <time>2025-06-08T08:40:46.479Z</time>
      </trkpt>
      <trkpt lat="45.39462" lon="2.48535">
        <ele>643</ele>
        <time>2025-06-08T08:40:47.479Z</time>
      </trkpt>
      <trkpt lat="45.39461" lon="2.48536">
        <ele>644</ele>
        <time>2025-06-08T08:40:48.479Z</time>
      </trkpt>
      <trkpt lat="45.3946" lon="2.48536">
        <ele>644</ele>
        <time>2025-06-08T08:40:49.479Z</time>
      </trkpt>
      <trkpt lat="45.39458" lon="2.48536">
        <ele>645</ele>
        <time>2025-06-08T08:40:50.479Z</time>
      </trkpt>
      <trkpt lat="45.39457" lon="2.48536">
        <ele>645</ele>
        <time>2025-06-08T08:40:51.479Z</time>
      </trkpt>
      <trkpt lat="45.39456" lon="2.48537">
        <ele>645</ele>
        <time>2025-06-08T08:40:52.479Z</time>
      </trkpt>
      <trkpt lat="45.39456" lon="2.48537">
        <ele>646</ele>
        <time>2025-06-08T08:40:53.479Z</time>
      </trkpt>
      <trkpt lat="45.39456" lon="2.48537">
        <ele>646</ele>
        <time>2025-06-08T08:40:54.479Z</time>
      </trkpt>
      <trkpt lat="45.39455" lon="2.48536">
        <ele>646</ele>
        <time>2025-06-08T08:40:55.479Z</time>
      </trkpt>
      <trkpt lat="45.39455" lon="2.48537">
        <ele>647</ele>
        <time>2025-06-08T08:40:56.479Z</time>
      </trkpt>
      <trkpt lat="45.39455" lon="2.48537">
        <ele>648</ele>
        <time>2025-06-08T08:40:57.479Z</time>
      </trkpt>
      <trkpt lat="45.39455" lon="2.48537">
        <ele>648</ele>
        <time>2025-06-08T08:40:58.479Z</time>
      </trkpt>
      <trkpt lat="45.39455" lon="2.48538">
        <ele>649</ele>
        <time>2025-06-08T08:40:59.479Z</time>
      </trkpt>
      <trkpt lat="45.39455" lon="2.48538">
        <ele>649</ele>
        <time>2025-06-08T08:41:00.479Z</time>
      </trkpt>
      <trkpt lat="45.39455" lon="2.48538">
        <ele>650</ele>
        <time>2025-06-08T08:41:01.479Z</time>
      </trkpt>
      <trkpt lat="45.39455" lon="2.48538">
        <ele>650</ele>
        <time>2025-06-08T08:41:02.479Z</time>
      </trkpt>
      <trkpt lat="45.39455" lon="2.48538">
        <ele>651</ele>
        <time>2025-06-08T08:41:03.479Z</time>
      </trkpt>
      <trkpt lat="45.39455" lon="2.48538">
        <ele>651</ele>
        <time>2025-06-08T08:41:04.479Z</time>
      </trkpt>
      <trkpt lat="45.39455" lon="2.48538">
        <ele>652</ele>
        <time>2025-06-08T08:41:05.479Z</time>
      </trkpt>
      <trkpt lat="45.39455" lon="2.48538">
        <ele>652</ele>
        <time>2025-06-08T08:41:06.479Z</time>
      </trkpt>
      <trkpt lat="45.39454" lon="2.48538">
        <ele>653</ele>
        <time>2025-06-08T08:41:07.479Z</time>
      </trkpt>
      <trkpt lat="45.39454" lon="2.48539">
        <ele>653</ele>
        <time>2025-06-08T08:41:08.479Z</time>
      </trkpt>
      <trkpt lat="45.39455" lon="2.48538">
        <ele>654</ele>
        <time>2025-06-08T08:41:09.479Z</time>
      </trkpt>
      <trkpt lat="45.39455" lon="2.48539">
        <ele>654</ele>
        <time>2025-06-08T08:41:10.479Z</time>
      </trkpt>
      <trkpt lat="45.39455" lon="2.48538">
        <ele>655</ele>
        <time>2025-06-08T08:41:11.479Z</time>
      </trkpt>
      <trkpt lat="45.39454" lon="2.48538">
        <ele>656</ele>
        <time>2025-06-08T08:41:12.479Z</time>
      </trkpt>
      <trkpt lat="45.39453" lon="2.48538">
        <ele>656</ele>
        <time>2025-06-08T08:41:13.479Z</time>
      </trkpt>
      <trkpt lat="45.39452" lon="2.48537">
        <ele>656</ele>
        <time>2025-06-08T08:41:14.479Z</time>
      </trkpt>
      <trkpt lat="45.39451" lon="2.48537">
        <ele>656</ele>
        <time>2025-06-08T08:41:15.479Z</time>
      </trkpt>
      <trkpt lat="45.3945" lon="2.48537">
        <ele>656</ele>
        <time>2025-06-08T08:41:16.479Z</time>
      </trkpt>
      <trkpt lat="45.39449" lon="2.48537">
        <ele>655</ele>
        <time>2025-06-08T08:41:17.479Z</time>
      </trkpt>
      <trkpt lat="45.39448" lon="2.48537">
        <ele>655</ele>
        <time>2025-06-08T08:41:18.479Z</time>
      </trkpt>
      <trkpt lat="45.39446" lon="2.48537">
        <ele>654</ele>
        <time>2025-06-08T08:41:19.479Z</time>
      </trkpt>
      <trkpt lat="45.39444" lon="2.48536">
        <ele>654</ele>
        <time>2025-06-08T08:41:20.479Z</time>
      </trkpt>
      <trkpt lat="45.39443" lon="2.48536">
        <ele>654</ele>
        <time>2025-06-08T08:41:21.479Z</time>
      </trkpt>
      <trkpt lat="45.39442" lon="2.48536">
        <ele>654</ele>
        <time>2025-06-08T08:41:22.479Z</time>
      </trkpt>
      <trkpt lat="45.39441" lon="2.48535">
        <ele>654</ele>
        <time>2025-06-08T08:41:23.479Z</time>
      </trkpt>
      <trkpt lat="45.39439" lon="2.48535">
        <ele>654</ele>
        <time>2025-06-08T08:41:24.479Z</time>
      </trkpt>
      <trkpt lat="45.39438" lon="2.48535">
        <ele>655</ele>
        <time>2025-06-08T08:41:25.479Z</time>
      </trkpt>
      <trkpt lat="45.39437" lon="2.48535">
        <ele>655</ele>
        <time>2025-06-08T08:41:26.479Z</time>
      </trkpt>
      <trkpt lat="45.39435" lon="2.48535">
        <ele>654</ele>
        <time>2025-06-08T08:41:27.479Z</time>
      </trkpt>
      <trkpt lat="45.39433" lon="2.48535">
        <ele>654</ele>
        <time>2025-06-08T08:41:28.479Z</time>
      </trkpt>
      <trkpt lat="45.39432" lon="2.48534">
        <ele>654</ele>
        <time>2025-06-08T08:41:29.479Z</time>
      </trkpt>
      <trkpt lat="45.39431" lon="2.48534">
        <ele>654</ele>
        <time>2025-06-08T08:41:30.479Z</time>
      </trkpt>
      <trkpt lat="45.3943" lon="2.48533">
        <ele>654</ele>
        <time>2025-06-08T08:41:31.479Z</time>
      </trkpt>
      <trkpt lat="45.39428" lon="2.48533">
        <ele>654</ele>
        <time>2025-06-08T08:41:32.479Z</time>
      </trkpt>
      <trkpt lat="45.39427" lon="2.48531">
        <ele>654</ele>
        <time>2025-06-08T08:41:33.479Z</time>
      </trkpt>
      <trkpt lat="45.39426" lon="2.4853">
        <ele>654</ele>
        <time>2025-06-08T08:41:34.479Z</time>
      </trkpt>
      <trkpt lat="45.39425" lon="2.4853">
        <ele>654</ele>
        <time>2025-06-08T08:41:35.479Z</time>
      </trkpt>
      <trkpt lat="45.39424" lon="2.48529">
        <ele>654</ele>
        <time>2025-06-08T08:41:36.479Z</time>
      </trkpt>
      <trkpt lat="45.39424" lon="2.48529">
        <ele>654</ele>
        <time>2025-06-08T08:41:37.479Z</time>
      </trkpt>
      <trkpt lat="45.39423" lon="2.48529">
        <ele>654</ele>
        <time>2025-06-08T08:41:38.479Z</time>
      </trkpt>
      <trkpt lat="45.39421" lon="2.48529">
        <ele>654</ele>
        <time>2025-06-08T08:41:39.479Z</time>
      </trkpt>
      <trkpt lat="45.3942" lon="2.48527">
        <ele>654</ele>
        <time>2025-06-08T08:41:40.479Z</time>
      </trkpt>
      <trkpt lat="45.39418" lon="2.48525">
        <ele>654</ele>
        <time>2025-06-08T08:41:41.479Z</time>
      </trkpt>
      <trkpt lat="45.39417" lon="2.48524">
        <ele>654</ele>
        <time>2025-06-08T08:41:42.479Z</time>
      </trkpt>
      <trkpt lat="45.39416" lon="2.48522">
        <ele>654</ele>
        <time>2025-06-08T08:41:43.479Z</time>
      </trkpt>
      <trkpt lat="45.39414" lon="2.48517">
        <ele>654</ele>
        <time>2025-06-08T08:41:44.479Z</time>
      </trkpt>
      <trkpt lat="45.39414" lon="2.48514">
        <ele>654</ele>
        <time>2025-06-08T08:41:45.479Z</time>
      </trkpt>
      <trkpt lat="45.39412" lon="2.48512">
        <ele>654</ele>
        <time>2025-06-08T08:41:46.479Z</time>
      </trkpt>
      <trkpt lat="45.3941" lon="2.48511">
        <ele>653</ele>
        <time>2025-06-08T08:41:47.479Z</time>
      </trkpt>
      <trkpt lat="45.39409" lon="2.4851">
        <ele>654</ele>
        <time>2025-06-08T08:41:48.479Z</time>
      </trkpt>
      <trkpt lat="45.39408" lon="2.48509">
        <ele>654</ele>
        <time>2025-06-08T08:41:49.479Z</time>
      </trkpt>
      <trkpt lat="45.39407" lon="2.48509">
        <ele>654</ele>
        <time>2025-06-08T08:41:50.479Z</time>
      </trkpt>
      <trkpt lat="45.39406" lon="2.48507">
        <ele>654</ele>
        <time>2025-06-08T08:41:51.479Z</time>
      </trkpt>
      <trkpt lat="45.39404" lon="2.48505">
        <ele>655</ele>
        <time>2025-06-08T08:41:52.479Z</time>
      </trkpt>
      <trkpt lat="45.39403" lon="2.48503">
        <ele>655</ele>
        <time>2025-06-08T08:41:53.479Z</time>
      </trkpt>
      <trkpt lat="45.39402" lon="2.48502">
        <ele>655</ele>
        <time>2025-06-08T08:41:54.479Z</time>
      </trkpt>
      <trkpt lat="45.39402" lon="2.48501">
        <ele>655</ele>
        <time>2025-06-08T08:41:55.479Z</time>
      </trkpt>
      <trkpt lat="45.39402" lon="2.485">
        <ele>655</ele>
        <time>2025-06-08T08:41:56.479Z</time>
      </trkpt>
      <trkpt lat="45.39402" lon="2.48499">
        <ele>655</ele>
        <time>2025-06-08T08:41:57.479Z</time>
      </trkpt>
      <trkpt lat="45.39401" lon="2.48498">
        <ele>655</ele>
        <time>2025-06-08T08:41:58.479Z</time>
      </trkpt>
      <trkpt lat="45.39401" lon="2.48497">
        <ele>655</ele>
        <time>2025-06-08T08:41:59.479Z</time>
      </trkpt>
      <trkpt lat="45.394" lon="2.48496">
        <ele>655</ele>
        <time>2025-06-08T08:42:00.479Z</time>
      </trkpt>
      <trkpt lat="45.39399" lon="2.48495">
        <ele>656</ele>
        <time>2025-06-08T08:42:01.479Z</time>
      </trkpt>
      <trkpt lat="45.39398" lon="2.48494">
        <ele>656</ele>
        <time>2025-06-08T08:42:02.479Z</time>
      </trkpt>
      <trkpt lat="45.39396" lon="2.48493">
        <ele>656</ele>
        <time>2025-06-08T08:42:03.479Z</time>
      </trkpt>
      <trkpt lat="45.39396" lon="2.48492">
        <ele>656</ele>
        <time>2025-06-08T08:42:04.479Z</time>
      </trkpt>
      <trkpt lat="45.39395" lon="2.48491">
        <ele>657</ele>
        <time>2025-06-08T08:42:05.479Z</time>
      </trkpt>
      <trkpt lat="45.39394" lon="2.4849">
        <ele>657</ele>
        <time>2025-06-08T08:42:06.479Z</time>
      </trkpt>
      <trkpt lat="45.39393" lon="2.4849">
        <ele>658</ele>
        <time>2025-06-08T08:42:07.479Z</time>
      </trkpt>
      <trkpt lat="45.39393" lon="2.48489">
        <ele>658</ele>
        <time>2025-06-08T08:42:08.479Z</time>
      </trkpt>
      <trkpt lat="45.39392" lon="2.48489">
        <ele>659</ele>
        <time>2025-06-08T08:42:09.479Z</time>
      </trkpt>
      <trkpt lat="45.39391" lon="2.48489">
        <ele>660</ele>
        <time>2025-06-08T08:42:10.479Z</time>
      </trkpt>
      <trkpt lat="45.39391" lon="2.48489">
        <ele>660</ele>
        <time>2025-06-08T08:42:11.479Z</time>
      </trkpt>
      <trkpt lat="45.3939" lon="2.48488">
        <ele>661</ele>
        <time>2025-06-08T08:42:12.479Z</time>
      </trkpt>
      <trkpt lat="45.39389" lon="2.48488">
        <ele>661</ele>
        <time>2025-06-08T08:42:13.479Z</time>
      </trkpt>
      <trkpt lat="45.39388" lon="2.48488">
        <ele>662</ele>
        <time>2025-06-08T08:42:14.479Z</time>
      </trkpt>
      <trkpt lat="45.39388" lon="2.48487">
        <ele>662</ele>
        <time>2025-06-08T08:42:15.479Z</time>
      </trkpt>
      <trkpt lat="45.39387" lon="2.48486">
        <ele>663</ele>
        <time>2025-06-08T08:42:16.479Z</time>
      </trkpt>
      <trkpt lat="45.39386" lon="2.48485">
        <ele>663</ele>
        <time>2025-06-08T08:42:17.479Z</time>
      </trkpt>
      <trkpt lat="45.39385" lon="2.48484">
        <ele>663</ele>
        <time>2025-06-08T08:42:18.479Z</time>
      </trkpt>
      <trkpt lat="45.39384" lon="2.48484">
        <ele>663</ele>
        <time>2025-06-08T08:42:19.479Z</time>
      </trkpt>
      <trkpt lat="45.39383" lon="2.48485">
        <ele>663</ele>
        <time>2025-06-08T08:42:20.479Z</time>
      </trkpt>
      <trkpt lat="45.39382" lon="2.48485">
        <ele>664</ele>
        <time>2025-06-08T08:42:21.479Z</time>
      </trkpt>
      <trkpt lat="45.3938" lon="2.48485">
        <ele>664</ele>
        <time>2025-06-08T08:42:22.479Z</time>
      </trkpt>
      <trkpt lat="45.3938" lon="2.48484">
        <ele>664</ele>
        <time>2025-06-08T08:42:23.479Z</time>
      </trkpt>
      <trkpt lat="45.39379" lon="2.48483">
        <ele>664</ele>
        <time>2025-06-08T08:42:24.479Z</time>
      </trkpt>
      <trkpt lat="45.39379" lon="2.4848">
        <ele>664</ele>
        <time>2025-06-08T08:42:25.479Z</time>
      </trkpt>
      <trkpt lat="45.39378" lon="2.48478">
        <ele>664</ele>
        <time>2025-06-08T08:42:26.479Z</time>
      </trkpt>
      <trkpt lat="45.39377" lon="2.48476">
        <ele>663</ele>
        <time>2025-06-08T08:42:27.479Z</time>
      </trkpt>
      <trkpt lat="45.39377" lon="2.48475">
        <ele>663</ele>
        <time>2025-06-08T08:42:28.479Z</time>
      </trkpt>
      <trkpt lat="45.39376" lon="2.48473">
        <ele>663</ele>
        <time>2025-06-08T08:42:29.479Z</time>
      </trkpt>
      <trkpt lat="45.39375" lon="2.48471">
        <ele>663</ele>
        <time>2025-06-08T08:42:30.479Z</time>
      </trkpt>
      <trkpt lat="45.39373" lon="2.48469">
        <ele>663</ele>
        <time>2025-06-08T08:42:31.479Z</time>
      </trkpt>
      <trkpt lat="45.39372" lon="2.48468">
        <ele>662</ele>
        <time>2025-06-08T08:42:32.479Z</time>
      </trkpt>
      <trkpt lat="45.39371" lon="2.48466">
        <ele>662</ele>
        <time>2025-06-08T08:42:33.479Z</time>
      </trkpt>
      <trkpt lat="45.3937" lon="2.48465">
        <ele>661</ele>
        <time>2025-06-08T08:42:34.479Z</time>
      </trkpt>
      <trkpt lat="45.39369" lon="2.48464">
        <ele>661</ele>
        <time>2025-06-08T08:42:35.479Z</time>
      </trkpt>
      <trkpt lat="45.39368" lon="2.48463">
        <ele>660</ele>
        <time>2025-06-08T08:42:36.479Z</time>
      </trkpt>
      <trkpt lat="45.39367" lon="2.48462">
        <ele>660</ele>
        <time>2025-06-08T08:42:37.479Z</time>
      </trkpt>
      <trkpt lat="45.39365" lon="2.48461">
        <ele>659</ele>
        <time>2025-06-08T08:42:38.479Z</time>
      </trkpt>
      <trkpt lat="45.39365" lon="2.4846">
        <ele>659</ele>
        <time>2025-06-08T08:42:39.479Z</time>
      </trkpt>
      <trkpt lat="45.39364" lon="2.48459">
        <ele>659</ele>
        <time>2025-06-08T08:42:40.479Z</time>
      </trkpt>
      <trkpt lat="45.39364" lon="2.48458">
        <ele>658</ele>
        <time>2025-06-08T08:42:41.479Z</time>
      </trkpt>
      <trkpt lat="45.39364" lon="2.48458">
        <ele>658</ele>
        <time>2025-06-08T08:42:42.479Z</time>
      </trkpt>
      <trkpt lat="45.39364" lon="2.48457">
        <ele>657</ele>
        <time>2025-06-08T08:42:43.479Z</time>
      </trkpt>
      <trkpt lat="45.39362" lon="2.48457">
        <ele>656</ele>
        <time>2025-06-08T08:42:44.479Z</time>
      </trkpt>
      <trkpt lat="45.39361" lon="2.48458">
        <ele>656</ele>
        <time>2025-06-08T08:42:45.479Z</time>
      </trkpt>
      <trkpt lat="45.3936" lon="2.48457">
        <ele>656</ele>
        <time>2025-06-08T08:42:46.479Z</time>
      </trkpt>
      <trkpt lat="45.39359" lon="2.48457">
        <ele>655</ele>
        <time>2025-06-08T08:42:47.479Z</time>
      </trkpt>
      <trkpt lat="45.39357" lon="2.48456">
        <ele>655</ele>
        <time>2025-06-08T08:42:48.479Z</time>
      </trkpt>
      <trkpt lat="45.39356" lon="2.48456">
        <ele>655</ele>
        <time>2025-06-08T08:42:49.479Z</time>
      </trkpt>
      <trkpt lat="45.39355" lon="2.48457">
        <ele>655</ele>
        <time>2025-06-08T08:42:50.479Z</time>
      </trkpt>
      <trkpt lat="45.39354" lon="2.48456">
        <ele>656</ele>
        <time>2025-06-08T08:42:51.479Z</time>
      </trkpt>
      <trkpt lat="45.39354" lon="2.48455">
        <ele>655</ele>
        <time>2025-06-08T08:42:52.479Z</time>
      </trkpt>
      <trkpt lat="45.39353" lon="2.48455">
        <ele>656</ele>
        <time>2025-06-08T08:42:53.479Z</time>
      </trkpt>
      <trkpt lat="45.39353" lon="2.48454">
        <ele>656</ele>
        <time>2025-06-08T08:42:54.479Z</time>
      </trkpt>
      <trkpt lat="45.39352" lon="2.48453">
        <ele>656</ele>
        <time>2025-06-08T08:42:55.479Z</time>
      </trkpt>
      <trkpt lat="45.39351" lon="2.48452">
        <ele>656</ele>
        <time>2025-06-08T08:42:56.479Z</time>
      </trkpt>
      <trkpt lat="45.3935" lon="2.48452">
        <ele>656</ele>
        <time>2025-06-08T08:42:57.479Z</time>
      </trkpt>
      <trkpt lat="45.3935" lon="2.48451">
        <ele>656</ele>
        <time>2025-06-08T08:42:58.479Z</time>
      </trkpt>
      <trkpt lat="45.39349" lon="2.4845">
        <ele>656</ele>
        <time>2025-06-08T08:42:59.479Z</time>
      </trkpt>
      <trkpt lat="45.39349" lon="2.48449">
        <ele>656</ele>
        <time>2025-06-08T08:43:00.479Z</time>
      </trkpt>
      <trkpt lat="45.39348" lon="2.48448">
        <ele>656</ele>
        <time>2025-06-08T08:43:01.479Z</time>
      </trkpt>
      <trkpt lat="45.39348" lon="2.48448">
        <ele>657</ele>
        <time>2025-06-08T08:43:02.479Z</time>
      </trkpt>
      <trkpt lat="45.39347" lon="2.48447">
        <ele>657</ele>
        <time>2025-06-08T08:43:03.479Z</time>
      </trkpt>
      <trkpt lat="45.39347" lon="2.48445">
        <ele>657</ele>
        <time>2025-06-08T08:43:04.479Z</time>
      </trkpt>
      <trkpt lat="45.39347" lon="2.48444">
        <ele>657</ele>
        <time>2025-06-08T08:43:05.479Z</time>
      </trkpt>
      <trkpt lat="45.39347" lon="2.48441">
        <ele>657</ele>
        <time>2025-06-08T08:43:06.479Z</time>
      </trkpt>
      <trkpt lat="45.39346" lon="2.4844">
        <ele>657</ele>
        <time>2025-06-08T08:43:07.479Z</time>
      </trkpt>
      <trkpt lat="45.39346" lon="2.48438">
        <ele>656</ele>
        <time>2025-06-08T08:43:08.479Z</time>
      </trkpt>
      <trkpt lat="45.39345" lon="2.48438">
        <ele>656</ele>
        <time>2025-06-08T08:43:09.479Z</time>
      </trkpt>
      <trkpt lat="45.39345" lon="2.48437">
        <ele>655</ele>
        <time>2025-06-08T08:43:10.479Z</time>
      </trkpt>
      <trkpt lat="45.39344" lon="2.48435">
        <ele>655</ele>
        <time>2025-06-08T08:43:11.479Z</time>
      </trkpt>
      <trkpt lat="45.39344" lon="2.48434">
        <ele>654</ele>
        <time>2025-06-08T08:43:12.479Z</time>
      </trkpt>
      <trkpt lat="45.39343" lon="2.48433">
        <ele>654</ele>
        <time>2025-06-08T08:43:13.479Z</time>
      </trkpt>
      <trkpt lat="45.39342" lon="2.48431">
        <ele>654</ele>
        <time>2025-06-08T08:43:14.479Z</time>
      </trkpt>
      <trkpt lat="45.39341" lon="2.48429">
        <ele>655</ele>
        <time>2025-06-08T08:43:15.479Z</time>
      </trkpt>
      <trkpt lat="45.3934" lon="2.48427">
        <ele>654</ele>
        <time>2025-06-08T08:43:16.479Z</time>
      </trkpt>
      <trkpt lat="45.39339" lon="2.48426">
        <ele>654</ele>
        <time>2025-06-08T08:43:17.479Z</time>
      </trkpt>
      <trkpt lat="45.39339" lon="2.48426">
        <ele>654</ele>
        <time>2025-06-08T08:43:18.479Z</time>
      </trkpt>
      <trkpt lat="45.39338" lon="2.48426">
        <ele>654</ele>
        <time>2025-06-08T08:43:19.479Z</time>
      </trkpt>
      <trkpt lat="45.39338" lon="2.48425">
        <ele>654</ele>
        <time>2025-06-08T08:43:20.479Z</time>
      </trkpt>
      <trkpt lat="45.39337" lon="2.48425">
        <ele>654</ele>
        <time>2025-06-08T08:43:21.479Z</time>
      </trkpt>
      <trkpt lat="45.39336" lon="2.48425">
        <ele>653</ele>
        <time>2025-06-08T08:43:22.479Z</time>
      </trkpt>
      <trkpt lat="45.39335" lon="2.48425">
        <ele>653</ele>
        <time>2025-06-08T08:43:23.479Z</time>
      </trkpt>
      <trkpt lat="45.39335" lon="2.48424">
        <ele>653</ele>
        <time>2025-06-08T08:43:24.479Z</time>
      </trkpt>
      <trkpt lat="45.39334" lon="2.48423">
        <ele>653</ele>
        <time>2025-06-08T08:43:25.479Z</time>
      </trkpt>
      <trkpt lat="45.39333" lon="2.48422">
        <ele>652</ele>
        <time>2025-06-08T08:43:26.479Z</time>
      </trkpt>
      <trkpt lat="45.39332" lon="2.48422">
        <ele>652</ele>
        <time>2025-06-08T08:43:27.479Z</time>
      </trkpt>
      <trkpt lat="45.39331" lon="2.48423">
        <ele>651</ele>
        <time>2025-06-08T08:43:28.479Z</time>
      </trkpt>
      <trkpt lat="45.39329" lon="2.48422">
        <ele>651</ele>
        <time>2025-06-08T08:43:29.479Z</time>
      </trkpt>
      <trkpt lat="45.39327" lon="2.48422">
        <ele>651</ele>
        <time>2025-06-08T08:43:30.479Z</time>
      </trkpt>
      <trkpt lat="45.39326" lon="2.48421">
        <ele>650</ele>
        <time>2025-06-08T08:43:31.479Z</time>
      </trkpt>
      <trkpt lat="45.39324" lon="2.4842">
        <ele>650</ele>
        <time>2025-06-08T08:43:32.479Z</time>
      </trkpt>
      <trkpt lat="45.39323" lon="2.48417">
        <ele>650</ele>
        <time>2025-06-08T08:43:33.479Z</time>
      </trkpt>
      <trkpt lat="45.39323" lon="2.48416">
        <ele>650</ele>
        <time>2025-06-08T08:43:34.479Z</time>
      </trkpt>
      <trkpt lat="45.39322" lon="2.48417">
        <ele>650</ele>
        <time>2025-06-08T08:43:35.479Z</time>
      </trkpt>
      <trkpt lat="45.39321" lon="2.48417">
        <ele>650</ele>
        <time>2025-06-08T08:43:36.479Z</time>
      </trkpt>
      <trkpt lat="45.39321" lon="2.48417">
        <ele>649</ele>
        <time>2025-06-08T08:43:37.479Z</time>
      </trkpt>
      <trkpt lat="45.3932" lon="2.48417">
        <ele>649</ele>
        <time>2025-06-08T08:43:38.479Z</time>
      </trkpt>
      <trkpt lat="45.39319" lon="2.48415">
        <ele>649</ele>
        <time>2025-06-08T08:43:39.479Z</time>
      </trkpt>
      <trkpt lat="45.3932" lon="2.48412">
        <ele>649</ele>
        <time>2025-06-08T08:43:40.479Z</time>
      </trkpt>
      <trkpt lat="45.39319" lon="2.48412">
        <ele>649</ele>
        <time>2025-06-08T08:43:41.479Z</time>
      </trkpt>
      <trkpt lat="45.39318" lon="2.48413">
        <ele>649</ele>
        <time>2025-06-08T08:43:42.479Z</time>
      </trkpt>
      <trkpt lat="45.39317" lon="2.48414">
        <ele>649</ele>
        <time>2025-06-08T08:43:43.479Z</time>
      </trkpt>
      <trkpt lat="45.39315" lon="2.48413">
        <ele>650</ele>
        <time>2025-06-08T08:43:44.479Z</time>
      </trkpt>
      <trkpt lat="45.39314" lon="2.48413">
        <ele>650</ele>
        <time>2025-06-08T08:43:45.479Z</time>
      </trkpt>
      <trkpt lat="45.39313" lon="2.48413">
        <ele>650</ele>
        <time>2025-06-08T08:43:46.479Z</time>
      </trkpt>
      <trkpt lat="45.39312" lon="2.48413">
        <ele>651</ele>
        <time>2025-06-08T08:43:47.479Z</time>
      </trkpt>
      <trkpt lat="45.39311" lon="2.48414">
        <ele>651</ele>
        <time>2025-06-08T08:43:48.479Z</time>
      </trkpt>
      <trkpt lat="45.3931" lon="2.48413">
        <ele>651</ele>
        <time>2025-06-08T08:43:49.479Z</time>
      </trkpt>
      <trkpt lat="45.39309" lon="2.48413">
        <ele>652</ele>
        <time>2025-06-08T08:43:50.479Z</time>
      </trkpt>
      <trkpt lat="45.39308" lon="2.48412">
        <ele>652</ele>
        <time>2025-06-08T08:43:51.479Z</time>
      </trkpt>
      <trkpt lat="45.39307" lon="2.48412">
        <ele>652</ele>
        <time>2025-06-08T08:43:52.479Z</time>
      </trkpt>
      <trkpt lat="45.39307" lon="2.48411">
        <ele>653</ele>
        <time>2025-06-08T08:43:53.479Z</time>
      </trkpt>
      <trkpt lat="45.39306" lon="2.48411">
        <ele>653</ele>
        <time>2025-06-08T08:43:54.479Z</time>
      </trkpt>
      <trkpt lat="45.39305" lon="2.4841">
        <ele>653</ele>
        <time>2025-06-08T08:43:55.479Z</time>
      </trkpt>
      <trkpt lat="45.39304" lon="2.4841">
        <ele>654</ele>
        <time>2025-06-08T08:43:56.479Z</time>
      </trkpt>
      <trkpt lat="45.39303" lon="2.4841">
        <ele>654</ele>
        <time>2025-06-08T08:43:57.479Z</time>
      </trkpt>
      <trkpt lat="45.39302" lon="2.4841">
        <ele>654</ele>
        <time>2025-06-08T08:43:58.479Z</time>
      </trkpt>
      <trkpt lat="45.39302" lon="2.48409">
        <ele>654</ele>
        <time>2025-06-08T08:43:59.479Z</time>
      </trkpt>
      <trkpt lat="45.39301" lon="2.48408">
        <ele>654</ele>
        <time>2025-06-08T08:44:00.479Z</time>
      </trkpt>
      <trkpt lat="45.393" lon="2.48406">
        <ele>654</ele>
        <time>2025-06-08T08:44:01.479Z</time>
      </trkpt>
      <trkpt lat="45.393" lon="2.48406">
        <ele>654</ele>
        <time>2025-06-08T08:44:02.479Z</time>
      </trkpt>
      <trkpt lat="45.393" lon="2.48406">
        <ele>654</ele>
        <time>2025-06-08T08:44:03.479Z</time>
      </trkpt>
      <trkpt lat="45.39299" lon="2.48405">
        <ele>654</ele>
        <time>2025-06-08T08:44:04.479Z</time>
      </trkpt>
      <trkpt lat="45.39298" lon="2.48404">
        <ele>654</ele>
        <time>2025-06-08T08:44:05.479Z</time>
      </trkpt>
      <trkpt lat="45.39296" lon="2.48403">
        <ele>653</ele>
        <time>2025-06-08T08:44:06.479Z</time>
      </trkpt>
      <trkpt lat="45.39296" lon="2.48403">
        <ele>653</ele>
        <time>2025-06-08T08:44:07.479Z</time>
      </trkpt>
      <trkpt lat="45.39295" lon="2.48402">
        <ele>653</ele>
        <time>2025-06-08T08:44:08.479Z</time>
      </trkpt>
      <trkpt lat="45.39294" lon="2.48401">
        <ele>652</ele>
        <time>2025-06-08T08:44:09.479Z</time>
      </trkpt>
      <trkpt lat="45.39293" lon="2.48399">
        <ele>652</ele>
        <time>2025-06-08T08:44:10.479Z</time>
      </trkpt>
      <trkpt lat="45.39292" lon="2.48398">
        <ele>651</ele>
        <time>2025-06-08T08:44:11.479Z</time>
      </trkpt>
      <trkpt lat="45.39291" lon="2.48396">
        <ele>651</ele>
        <time>2025-06-08T08:44:12.479Z</time>
      </trkpt>
      <trkpt lat="45.3929" lon="2.48395">
        <ele>650</ele>
        <time>2025-06-08T08:44:13.479Z</time>
      </trkpt>
      <trkpt lat="45.39288" lon="2.48395">
        <ele>650</ele>
        <time>2025-06-08T08:44:14.479Z</time>
      </trkpt>
      <trkpt lat="45.39287" lon="2.48394">
        <ele>649</ele>
        <time>2025-06-08T08:44:15.479Z</time>
      </trkpt>
      <trkpt lat="45.39287" lon="2.48394">
        <ele>649</ele>
        <time>2025-06-08T08:44:16.479Z</time>
      </trkpt>
      <trkpt lat="45.39286" lon="2.48394">
        <ele>649</ele>
        <time>2025-06-08T08:44:17.479Z</time>
      </trkpt>
      <trkpt lat="45.39285" lon="2.48393">
        <ele>650</ele>
        <time>2025-06-08T08:44:18.479Z</time>
      </trkpt>
      <trkpt lat="45.39284" lon="2.48392">
        <ele>650</ele>
        <time>2025-06-08T08:44:19.479Z</time>
      </trkpt>
      <trkpt lat="45.39283" lon="2.48391">
        <ele>650</ele>
        <time>2025-06-08T08:44:20.479Z</time>
      </trkpt>
      <trkpt lat="45.39282" lon="2.4839">
        <ele>650</ele>
        <time>2025-06-08T08:44:21.479Z</time>
      </trkpt>
      <trkpt lat="45.3928" lon="2.48389">
        <ele>650</ele>
        <time>2025-06-08T08:44:22.479Z</time>
      </trkpt>
      <trkpt lat="45.39279" lon="2.48389">
        <ele>650</ele>
        <time>2025-06-08T08:44:23.479Z</time>
      </trkpt>
      <trkpt lat="45.39278" lon="2.48388">
        <ele>650</ele>
        <time>2025-06-08T08:44:24.479Z</time>
      </trkpt>
      <trkpt lat="45.39277" lon="2.48386">
        <ele>649</ele>
        <time>2025-06-08T08:44:25.479Z</time>
      </trkpt>
      <trkpt lat="45.39276" lon="2.48384">
        <ele>649</ele>
        <time>2025-06-08T08:44:26.479Z</time>
      </trkpt>
      <trkpt lat="45.39275" lon="2.48383">
        <ele>649</ele>
        <time>2025-06-08T08:44:27.479Z</time>
      </trkpt>
      <trkpt lat="45.39274" lon="2.48383">
        <ele>649</ele>
        <time>2025-06-08T08:44:28.479Z</time>
      </trkpt>
      <trkpt lat="45.39273" lon="2.48384">
        <ele>648</ele>
        <time>2025-06-08T08:44:29.479Z</time>
      </trkpt>
      <trkpt lat="45.39271" lon="2.48384">
        <ele>648</ele>
        <time>2025-06-08T08:44:30.479Z</time>
      </trkpt>
      <trkpt lat="45.3927" lon="2.48384">
        <ele>647</ele>
        <time>2025-06-08T08:44:31.479Z</time>
      </trkpt>
      <trkpt lat="45.39268" lon="2.48384">
        <ele>647</ele>
        <time>2025-06-08T08:44:32.479Z</time>
      </trkpt>
      <trkpt lat="45.39267" lon="2.48384">
        <ele>647</ele>
        <time>2025-06-08T08:44:33.479Z</time>
      </trkpt>
      <trkpt lat="45.39266" lon="2.48383">
        <ele>647</ele>
        <time>2025-06-08T08:44:34.479Z</time>
      </trkpt>
      <trkpt lat="45.39265" lon="2.48383">
        <ele>647</ele>
        <time>2025-06-08T08:44:35.479Z</time>
      </trkpt>
      <trkpt lat="45.39264" lon="2.48381">
        <ele>646</ele>
        <time>2025-06-08T08:44:36.479Z</time>
      </trkpt>
      <trkpt lat="45.39263" lon="2.48381">
        <ele>646</ele>
        <time>2025-06-08T08:44:37.479Z</time>
      </trkpt>
      <trkpt lat="45.39263" lon="2.4838">
        <ele>646</ele>
        <time>2025-06-08T08:44:38.479Z</time>
      </trkpt>
      <trkpt lat="45.39262" lon="2.4838">
        <ele>646</ele>
        <time>2025-06-08T08:44:39.479Z</time>
      </trkpt>
      <trkpt lat="45.39261" lon="2.4838">
        <ele>646</ele>
        <time>2025-06-08T08:44:40.479Z</time>
      </trkpt>
      <trkpt lat="45.3926" lon="2.48379">
        <ele>647</ele>
        <time>2025-06-08T08:44:41.479Z</time>
      </trkpt>
      <trkpt lat="45.39259" lon="2.48379">
        <ele>647</ele>
        <time>2025-06-08T08:44:42.479Z</time>
      </trkpt>
      <trkpt lat="45.39258" lon="2.48378">
        <ele>648</ele>
        <time>2025-06-08T08:44:43.479Z</time>
      </trkpt>
      <trkpt lat="45.39257" lon="2.48377">
        <ele>648</ele>
        <time>2025-06-08T08:44:44.479Z</time>
      </trkpt>
      <trkpt lat="45.39255" lon="2.48377">
        <ele>648</ele>
        <time>2025-06-08T08:44:45.479Z</time>
      </trkpt>
      <trkpt lat="45.39254" lon="2.48376">
        <ele>648</ele>
        <time>2025-06-08T08:44:46.479Z</time>
      </trkpt>
      <trkpt lat="45.39252" lon="2.48375">
        <ele>649</ele>
        <time>2025-06-08T08:44:47.479Z</time>
      </trkpt>
      <trkpt lat="45.39251" lon="2.48375">
        <ele>648</ele>
        <time>2025-06-08T08:44:48.479Z</time>
      </trkpt>
      <trkpt lat="45.3925" lon="2.48375">
        <ele>648</ele>
        <time>2025-06-08T08:44:49.479Z</time>
      </trkpt>
      <trkpt lat="45.39249" lon="2.48374">
        <ele>648</ele>
        <time>2025-06-08T08:44:50.479Z</time>
      </trkpt>
      <trkpt lat="45.39249" lon="2.48373">
        <ele>648</ele>
        <time>2025-06-08T08:44:51.479Z</time>
      </trkpt>
      <trkpt lat="45.39248" lon="2.48372">
        <ele>648</ele>
        <time>2025-06-08T08:44:52.479Z</time>
      </trkpt>
      <trkpt lat="45.39247" lon="2.48372">
        <ele>648</ele>
        <time>2025-06-08T08:44:53.479Z</time>
      </trkpt>
      <trkpt lat="45.39246" lon="2.48371">
        <ele>648</ele>
        <time>2025-06-08T08:44:54.479Z</time>
      </trkpt>
      <trkpt lat="45.39245" lon="2.48371">
        <ele>648</ele>
        <time>2025-06-08T08:44:55.479Z</time>
      </trkpt>
      <trkpt lat="45.39244" lon="2.4837">
        <ele>647</ele>
        <time>2025-06-08T08:44:56.479Z</time>
      </trkpt>
      <trkpt lat="45.39243" lon="2.48369">
        <ele>647</ele>
        <time>2025-06-08T08:44:57.479Z</time>
      </trkpt>
      <trkpt lat="45.39242" lon="2.48368">
        <ele>647</ele>
        <time>2025-06-08T08:44:58.479Z</time>
      </trkpt>
      <trkpt lat="45.3924" lon="2.48367">
        <ele>647</ele>
        <time>2025-06-08T08:44:59.479Z</time>
      </trkpt>
      <trkpt lat="45.39239" lon="2.48367">
        <ele>647</ele>
        <time>2025-06-08T08:45:00.479Z</time>
      </trkpt>
      <trkpt lat="45.39238" lon="2.48366">
        <ele>647</ele>
        <time>2025-06-08T08:45:01.479Z</time>
      </trkpt>
      <trkpt lat="45.39237" lon="2.48366">
        <ele>647</ele>
        <time>2025-06-08T08:45:02.479Z</time>
      </trkpt>
      <trkpt lat="45.39236" lon="2.48366">
        <ele>648</ele>
        <time>2025-06-08T08:45:03.479Z</time>
      </trkpt>
      <trkpt lat="45.39235" lon="2.48365">
        <ele>648</ele>
        <time>2025-06-08T08:45:04.479Z</time>
      </trkpt>
      <trkpt lat="45.39234" lon="2.48365">
        <ele>648</ele>
        <time>2025-06-08T08:45:05.479Z</time>
      </trkpt>
      <trkpt lat="45.39232" lon="2.48364">
        <ele>649</ele>
        <time>2025-06-08T08:45:06.479Z</time>
      </trkpt>
      <trkpt lat="45.3923" lon="2.48365">
        <ele>649</ele>
        <time>2025-06-08T08:45:07.479Z</time>
      </trkpt>
      <trkpt lat="45.39229" lon="2.48364">
        <ele>650</ele>
        <time>2025-06-08T08:45:08.479Z</time>
      </trkpt>
      <trkpt lat="45.39228" lon="2.48365">
        <ele>650</ele>
        <time>2025-06-08T08:45:09.479Z</time>
      </trkpt>
      <trkpt lat="45.39228" lon="2.48365">
        <ele>650</ele>
        <time>2025-06-08T08:45:10.479Z</time>
      </trkpt>
      <trkpt lat="45.39228" lon="2.48364">
        <ele>650</ele>
        <time>2025-06-08T08:45:11.479Z</time>
      </trkpt>
      <trkpt lat="45.39227" lon="2.48363">
        <ele>650</ele>
        <time>2025-06-08T08:45:12.479Z</time>
      </trkpt>
      <trkpt lat="45.39224" lon="2.48364">
        <ele>651</ele>
        <time>2025-06-08T08:45:13.479Z</time>
      </trkpt>
      <trkpt lat="45.39222" lon="2.48366">
        <ele>651</ele>
        <time>2025-06-08T08:45:14.479Z</time>
      </trkpt>
      <trkpt lat="45.39221" lon="2.48367">
        <ele>651</ele>
        <time>2025-06-08T08:45:15.479Z</time>
      </trkpt>
      <trkpt lat="45.3922" lon="2.48368">
        <ele>651</ele>
        <time>2025-06-08T08:45:16.479Z</time>
      </trkpt>
      <trkpt lat="45.39219" lon="2.4837">
        <ele>651</ele>
        <time>2025-06-08T08:45:17.479Z</time>
      </trkpt>
      <trkpt lat="45.39218" lon="2.48369">
        <ele>651</ele>
        <time>2025-06-08T08:45:18.479Z</time>
      </trkpt>
      <trkpt lat="45.39215" lon="2.48366">
        <ele>651</ele>
        <time>2025-06-08T08:45:19.479Z</time>
      </trkpt>
      <trkpt lat="45.39213" lon="2.48365">
        <ele>651</ele>
        <time>2025-06-08T08:45:20.479Z</time>
      </trkpt>
      <trkpt lat="45.39212" lon="2.48362">
        <ele>651</ele>
        <time>2025-06-08T08:45:21.479Z</time>
      </trkpt>
      <trkpt lat="45.39211" lon="2.48359">
        <ele>650</ele>
        <time>2025-06-08T08:45:22.479Z</time>
      </trkpt>
      <trkpt lat="45.3921" lon="2.48358">
        <ele>650</ele>
        <time>2025-06-08T08:45:23.479Z</time>
      </trkpt>
      <trkpt lat="45.39209" lon="2.48358">
        <ele>650</ele>
        <time>2025-06-08T08:45:24.479Z</time>
      </trkpt>
      <trkpt lat="45.39208" lon="2.48357">
        <ele>649</ele>
        <time>2025-06-08T08:45:25.479Z</time>
      </trkpt>
      <trkpt lat="45.39206" lon="2.48357">
        <ele>649</ele>
        <time>2025-06-08T08:45:26.479Z</time>
      </trkpt>
      <trkpt lat="45.39205" lon="2.48357">
        <ele>649</ele>
        <time>2025-06-08T08:45:27.479Z</time>
      </trkpt>
      <trkpt lat="45.39204" lon="2.48356">
        <ele>649</ele>
        <time>2025-06-08T08:45:28.479Z</time>
      </trkpt>
      <trkpt lat="45.39203" lon="2.48355">
        <ele>649</ele>
        <time>2025-06-08T08:45:29.479Z</time>
      </trkpt>
      <trkpt lat="45.39202" lon="2.48355">
        <ele>649</ele>
        <time>2025-06-08T08:45:30.479Z</time>
      </trkpt>
      <trkpt lat="45.39201" lon="2.48356">
        <ele>649</ele>
        <time>2025-06-08T08:45:31.479Z</time>
      </trkpt>
      <trkpt lat="45.392" lon="2.48357">
        <ele>648</ele>
        <time>2025-06-08T08:45:32.479Z</time>
      </trkpt>
      <trkpt lat="45.39199" lon="2.48357">
        <ele>648</ele>
        <time>2025-06-08T08:45:33.479Z</time>
      </trkpt>
      <trkpt lat="45.39197" lon="2.48358">
        <ele>647</ele>
        <time>2025-06-08T08:45:34.479Z</time>
      </trkpt>
      <trkpt lat="45.39196" lon="2.48358">
        <ele>647</ele>
        <time>2025-06-08T08:45:35.479Z</time>
      </trkpt>
      <trkpt lat="45.39195" lon="2.48358">
        <ele>646</ele>
        <time>2025-06-08T08:45:36.479Z</time>
      </trkpt>
      <trkpt lat="45.39194" lon="2.48358">
        <ele>646</ele>
        <time>2025-06-08T08:45:37.479Z</time>
      </trkpt>
      <trkpt lat="45.39193" lon="2.48358">
        <ele>645</ele>
        <time>2025-06-08T08:45:38.479Z</time>
      </trkpt>
      <trkpt lat="45.39192" lon="2.48358">
        <ele>645</ele>
        <time>2025-06-08T08:45:39.479Z</time>
      </trkpt>
      <trkpt lat="45.39191" lon="2.48358">
        <ele>645</ele>
        <time>2025-06-08T08:45:40.479Z</time>
      </trkpt>
      <trkpt lat="45.39189" lon="2.48359">
        <ele>644</ele>
        <time>2025-06-08T08:45:41.479Z</time>
      </trkpt>
      <trkpt lat="45.39189" lon="2.48358">
        <ele>644</ele>
        <time>2025-06-08T08:45:42.479Z</time>
      </trkpt>
      <trkpt lat="45.39187" lon="2.48358">
        <ele>644</ele>
        <time>2025-06-08T08:45:43.479Z</time>
      </trkpt>
      <trkpt lat="45.39186" lon="2.48358">
        <ele>644</ele>
        <time>2025-06-08T08:45:44.479Z</time>
      </trkpt>
      <trkpt lat="45.39185" lon="2.48357">
        <ele>644</ele>
        <time>2025-06-08T08:45:45.479Z</time>
      </trkpt>
      <trkpt lat="45.39184" lon="2.48356">
        <ele>645</ele>
        <time>2025-06-08T08:45:46.479Z</time>
      </trkpt>
      <trkpt lat="45.39182" lon="2.48355">
        <ele>645</ele>
        <time>2025-06-08T08:45:47.479Z</time>
      </trkpt>
      <trkpt lat="45.39182" lon="2.48354">
        <ele>645</ele>
        <time>2025-06-08T08:45:48.479Z</time>
      </trkpt>
      <trkpt lat="45.39181" lon="2.48352">
        <ele>645</ele>
        <time>2025-06-08T08:45:49.479Z</time>
      </trkpt>
      <trkpt lat="45.39181" lon="2.48352">
        <ele>645</ele>
        <time>2025-06-08T08:45:50.479Z</time>
      </trkpt>
      <trkpt lat="45.3918" lon="2.48352">
        <ele>645</ele>
        <time>2025-06-08T08:45:51.479Z</time>
      </trkpt>
      <trkpt lat="45.39179" lon="2.48352">
        <ele>645</ele>
        <time>2025-06-08T08:45:52.479Z</time>
      </trkpt>
      <trkpt lat="45.39179" lon="2.4835">
        <ele>645</ele>
        <time>2025-06-08T08:45:53.479Z</time>
      </trkpt>
      <trkpt lat="45.39177" lon="2.48351">
        <ele>645</ele>
        <time>2025-06-08T08:45:54.479Z</time>
      </trkpt>
      <trkpt lat="45.39175" lon="2.48352">
        <ele>645</ele>
        <time>2025-06-08T08:45:55.479Z</time>
      </trkpt>
      <trkpt lat="45.39173" lon="2.48352">
        <ele>645</ele>
        <time>2025-06-08T08:45:56.479Z</time>
      </trkpt>
      <trkpt lat="45.39172" lon="2.48352">
        <ele>645</ele>
        <time>2025-06-08T08:45:57.479Z</time>
      </trkpt>
      <trkpt lat="45.39172" lon="2.48352">
        <ele>645</ele>
        <time>2025-06-08T08:45:58.479Z</time>
      </trkpt>
      <trkpt lat="45.3917" lon="2.48354">
        <ele>645</ele>
        <time>2025-06-08T08:45:59.479Z</time>
      </trkpt>
      <trkpt lat="45.39168" lon="2.48356">
        <ele>645</ele>
        <time>2025-06-08T08:46:00.479Z</time>
      </trkpt>
      <trkpt lat="45.39166" lon="2.48357">
        <ele>644</ele>
        <time>2025-06-08T08:46:01.479Z</time>
      </trkpt>
      <trkpt lat="45.39164" lon="2.48358">
        <ele>644</ele>
        <time>2025-06-08T08:46:02.479Z</time>
      </trkpt>
      <trkpt lat="45.39162" lon="2.48358">
        <ele>644</ele>
        <time>2025-06-08T08:46:03.479Z</time>
      </trkpt>
      <trkpt lat="45.39161" lon="2.4836">
        <ele>644</ele>
        <time>2025-06-08T08:46:04.479Z</time>
      </trkpt>
      <trkpt lat="45.3916" lon="2.48359">
        <ele>644</ele>
        <time>2025-06-08T08:46:05.479Z</time>
      </trkpt>
      <trkpt lat="45.39159" lon="2.48357">
        <ele>643</ele>
        <time>2025-06-08T08:46:06.479Z</time>
      </trkpt>
      <trkpt lat="45.39158" lon="2.48356">
        <ele>643</ele>
        <time>2025-06-08T08:46:07.479Z</time>
      </trkpt>
      <trkpt lat="45.39158" lon="2.48357">
        <ele>643</ele>
        <time>2025-06-08T08:46:08.479Z</time>
      </trkpt>
      <trkpt lat="45.39156" lon="2.48359">
        <ele>643</ele>
        <time>2025-06-08T08:46:09.479Z</time>
      </trkpt>
      <trkpt lat="45.39155" lon="2.4836">
        <ele>643</ele>
        <time>2025-06-08T08:46:10.479Z</time>
      </trkpt>
      <trkpt lat="45.39154" lon="2.4836">
        <ele>643</ele>
        <time>2025-06-08T08:46:11.479Z</time>
      </trkpt>
      <trkpt lat="45.39154" lon="2.4836">
        <ele>643</ele>
        <time>2025-06-08T08:46:12.479Z</time>
      </trkpt>
      <trkpt lat="45.39153" lon="2.48359">
        <ele>643</ele>
        <time>2025-06-08T08:46:13.479Z</time>
      </trkpt>
      <trkpt lat="45.39152" lon="2.48358">
        <ele>644</ele>
        <time>2025-06-08T08:46:14.479Z</time>
      </trkpt>
      <trkpt lat="45.39152" lon="2.48358">
        <ele>644</ele>
        <time>2025-06-08T08:46:15.479Z</time>
      </trkpt>
      <trkpt lat="45.39152" lon="2.48357">
        <ele>644</ele>
        <time>2025-06-08T08:46:16.479Z</time>
      </trkpt>
      <trkpt lat="45.39151" lon="2.48358">
        <ele>644</ele>
        <time>2025-06-08T08:46:17.479Z</time>
      </trkpt>
      <trkpt lat="45.39151" lon="2.48358">
        <ele>644</ele>
        <time>2025-06-08T08:46:18.479Z</time>
      </trkpt>
      <trkpt lat="45.3915" lon="2.48359">
        <ele>645</ele>
        <time>2025-06-08T08:46:19.479Z</time>
      </trkpt>
      <trkpt lat="45.3915" lon="2.48361">
        <ele>645</ele>
        <time>2025-06-08T08:46:20.479Z</time>
      </trkpt>
      <trkpt lat="45.39149" lon="2.48362">
        <ele>645</ele>
        <time>2025-06-08T08:46:21.479Z</time>
      </trkpt>
      <trkpt lat="45.39149" lon="2.48362">
        <ele>645</ele>
        <time>2025-06-08T08:46:22.479Z</time>
      </trkpt>
      <trkpt lat="45.39149" lon="2.48362">
        <ele>645</ele>
        <time>2025-06-08T08:46:23.479Z</time>
      </trkpt>
      <trkpt lat="45.39148" lon="2.48362">
        <ele>645</ele>
        <time>2025-06-08T08:46:24.479Z</time>
      </trkpt>
      <trkpt lat="45.39148" lon="2.48362">
        <ele>645</ele>
        <time>2025-06-08T08:46:25.479Z</time>
      </trkpt>
      <trkpt lat="45.39149" lon="2.4836">
        <ele>645</ele>
        <time>2025-06-08T08:46:26.479Z</time>
      </trkpt>
      <trkpt lat="45.3915" lon="2.48357">
        <ele>645</ele>
        <time>2025-06-08T08:46:27.479Z</time>
      </trkpt>
      <trkpt lat="45.39151" lon="2.48357">
        <ele>645</ele>
        <time>2025-06-08T08:46:28.479Z</time>
      </trkpt>
      <trkpt lat="45.39151" lon="2.48358">
        <ele>646</ele>
        <time>2025-06-08T08:46:29.479Z</time>
      </trkpt>
      <trkpt lat="45.3915" lon="2.48359">
        <ele>646</ele>
        <time>2025-06-08T08:46:30.479Z</time>
      </trkpt>
      <trkpt lat="45.3915" lon="2.48359">
        <ele>647</ele>
        <time>2025-06-08T08:46:31.479Z</time>
      </trkpt>
      <trkpt lat="45.3915" lon="2.4836">
        <ele>648</ele>
        <time>2025-06-08T08:46:32.479Z</time>
      </trkpt>
      <trkpt lat="45.39149" lon="2.48361">
        <ele>649</ele>
        <time>2025-06-08T08:46:33.479Z</time>
      </trkpt>
      <trkpt lat="45.39148" lon="2.48362">
        <ele>649</ele>
        <time>2025-06-08T08:46:34.479Z</time>
      </trkpt>
      <trkpt lat="45.39147" lon="2.48363">
        <ele>650</ele>
        <time>2025-06-08T08:46:35.479Z</time>
      </trkpt>
      <trkpt lat="45.39147" lon="2.48364">
        <ele>651</ele>
        <time>2025-06-08T08:46:36.479Z</time>
      </trkpt>
      <trkpt lat="45.39146" lon="2.48365">
        <ele>651</ele>
        <time>2025-06-08T08:46:37.479Z</time>
      </trkpt>
      <trkpt lat="45.39146" lon="2.48365">
        <ele>652</ele>
        <time>2025-06-08T08:46:38.479Z</time>
      </trkpt>
      <trkpt lat="45.39146" lon="2.48366">
        <ele>653</ele>
        <time>2025-06-08T08:46:39.479Z</time>
      </trkpt>
      <trkpt lat="45.39146" lon="2.48367">
        <ele>653</ele>
        <time>2025-06-08T08:46:40.479Z</time>
      </trkpt>
      <trkpt lat="45.39145" lon="2.48368">
        <ele>654</ele>
        <time>2025-06-08T08:46:41.479Z</time>
      </trkpt>
      <trkpt lat="45.39143" lon="2.48369">
        <ele>654</ele>
        <time>2025-06-08T08:46:42.479Z</time>
      </trkpt>
      <trkpt lat="45.39143" lon="2.48369">
        <ele>655</ele>
        <time>2025-06-08T08:46:43.479Z</time>
      </trkpt>
      <trkpt lat="45.39142" lon="2.48368">
        <ele>655</ele>
        <time>2025-06-08T08:46:44.479Z</time>
      </trkpt>
      <trkpt lat="45.3914" lon="2.4837">
        <ele>655</ele>
        <time>2025-06-08T08:46:45.479Z</time>
      </trkpt>
      <trkpt lat="45.39139" lon="2.48369">
        <ele>654</ele>
        <time>2025-06-08T08:46:46.479Z</time>
      </trkpt>
      <trkpt lat="45.39136" lon="2.48369">
        <ele>654</ele>
        <time>2025-06-08T08:46:47.479Z</time>
      </trkpt>
      <trkpt lat="45.39133" lon="2.48369">
        <ele>653</ele>
        <time>2025-06-08T08:46:48.479Z</time>
      </trkpt>
      <trkpt lat="45.39131" lon="2.48368">
        <ele>653</ele>
        <time>2025-06-08T08:46:49.479Z</time>
      </trkpt>
      <trkpt lat="45.39129" lon="2.48367">
        <ele>652</ele>
        <time>2025-06-08T08:46:50.479Z</time>
      </trkpt>
      <trkpt lat="45.39126" lon="2.48367">
        <ele>652</ele>
        <time>2025-06-08T08:46:51.479Z</time>
      </trkpt>
      <trkpt lat="45.39124" lon="2.48367">
        <ele>651</ele>
        <time>2025-06-08T08:46:52.479Z</time>
      </trkpt>
      <trkpt lat="45.39122" lon="2.48368">
        <ele>651</ele>
        <time>2025-06-08T08:46:53.479Z</time>
      </trkpt>
      <trkpt lat="45.39121" lon="2.4837">
        <ele>651</ele>
        <time>2025-06-08T08:46:54.479Z</time>
      </trkpt>
      <trkpt lat="45.3912" lon="2.4837">
        <ele>650</ele>
        <time>2025-06-08T08:46:55.479Z</time>
      </trkpt>
      <trkpt lat="45.39119" lon="2.4837">
        <ele>650</ele>
        <time>2025-06-08T08:46:56.479Z</time>
      </trkpt>
      <trkpt lat="45.39119" lon="2.48369">
        <ele>650</ele>
        <time>2025-06-08T08:46:57.479Z</time>
      </trkpt>
      <trkpt lat="45.39117" lon="2.48368">
        <ele>650</ele>
        <time>2025-06-08T08:46:58.479Z</time>
      </trkpt>
      <trkpt lat="45.39116" lon="2.48366">
        <ele>650</ele>
        <time>2025-06-08T08:46:59.479Z</time>
      </trkpt>
      <trkpt lat="45.39116" lon="2.48365">
        <ele>650</ele>
        <time>2025-06-08T08:47:00.479Z</time>
      </trkpt>
      <trkpt lat="45.39116" lon="2.48365">
        <ele>650</ele>
        <time>2025-06-08T08:47:01.479Z</time>
      </trkpt>
      <trkpt lat="45.39115" lon="2.48363">
        <ele>650</ele>
        <time>2025-06-08T08:47:02.479Z</time>
      </trkpt>
      <trkpt lat="45.39114" lon="2.48363">
        <ele>650</ele>
        <time>2025-06-08T08:47:03.479Z</time>
      </trkpt>
      <trkpt lat="45.39113" lon="2.48362">
        <ele>651</ele>
        <time>2025-06-08T08:47:04.479Z</time>
      </trkpt>
      <trkpt lat="45.39112" lon="2.48363">
        <ele>651</ele>
        <time>2025-06-08T08:47:05.479Z</time>
      </trkpt>
      <trkpt lat="45.3911" lon="2.48363">
        <ele>652</ele>
        <time>2025-06-08T08:47:06.479Z</time>
      </trkpt>
      <trkpt lat="45.3911" lon="2.48364">
        <ele>652</ele>
        <time>2025-06-08T08:47:07.479Z</time>
      </trkpt>
      <trkpt lat="45.39108" lon="2.48364">
        <ele>653</ele>
        <time>2025-06-08T08:47:08.479Z</time>
      </trkpt>
      <trkpt lat="45.39106" lon="2.48366">
        <ele>653</ele>
        <time>2025-06-08T08:47:09.479Z</time>
      </trkpt>
      <trkpt lat="45.39106" lon="2.48366">
        <ele>654</ele>
        <time>2025-06-08T08:47:10.479Z</time>
      </trkpt>
      <trkpt lat="45.39106" lon="2.48362">
        <ele>654</ele>
        <time>2025-06-08T08:47:11.479Z</time>
      </trkpt>
      <trkpt lat="45.39105" lon="2.48361">
        <ele>654</ele>
        <time>2025-06-08T08:47:12.479Z</time>
      </trkpt>
      <trkpt lat="45.39104" lon="2.48359">
        <ele>655</ele>
        <time>2025-06-08T08:47:13.479Z</time>
      </trkpt>
      <trkpt lat="45.39103" lon="2.48359">
        <ele>655</ele>
        <time>2025-06-08T08:47:14.479Z</time>
      </trkpt>
      <trkpt lat="45.39101" lon="2.48359">
        <ele>655</ele>
        <time>2025-06-08T08:47:15.479Z</time>
      </trkpt>
      <trkpt lat="45.39099" lon="2.48358">
        <ele>655</ele>
        <time>2025-06-08T08:47:16.479Z</time>
      </trkpt>
      <trkpt lat="45.39098" lon="2.48356">
        <ele>655</ele>
        <time>2025-06-08T08:47:17.479Z</time>
      </trkpt>
      <trkpt lat="45.39097" lon="2.48354">
        <ele>655</ele>
        <time>2025-06-08T08:47:18.479Z</time>
      </trkpt>
      <trkpt lat="45.39097" lon="2.4835">
        <ele>655</ele>
        <time>2025-06-08T08:47:19.479Z</time>
      </trkpt>
      <trkpt lat="45.39095" lon="2.48348">
        <ele>655</ele>
        <time>2025-06-08T08:47:20.479Z</time>
      </trkpt>
      <trkpt lat="45.39094" lon="2.48346">
        <ele>655</ele>
        <time>2025-06-08T08:47:21.479Z</time>
      </trkpt>
      <trkpt lat="45.39093" lon="2.48345">
        <ele>655</ele>
        <time>2025-06-08T08:47:22.479Z</time>
      </trkpt>
      <trkpt lat="45.39092" lon="2.48345">
        <ele>655</ele>
        <time>2025-06-08T08:47:23.479Z</time>
      </trkpt>
      <trkpt lat="45.39092" lon="2.48345">
        <ele>656</ele>
        <time>2025-06-08T08:47:24.479Z</time>
      </trkpt>
      <trkpt lat="45.39091" lon="2.48343">
        <ele>657</ele>
        <time>2025-06-08T08:47:25.479Z</time>
      </trkpt>
      <trkpt lat="45.3909" lon="2.48342">
        <ele>657</ele>
        <time>2025-06-08T08:47:26.479Z</time>
      </trkpt>
      <trkpt lat="45.39089" lon="2.4834">
        <ele>657</ele>
        <time>2025-06-08T08:47:27.479Z</time>
      </trkpt>
      <trkpt lat="45.39089" lon="2.4834">
        <ele>658</ele>
        <time>2025-06-08T08:47:28.479Z</time>
      </trkpt>
      <trkpt lat="45.3909" lon="2.48339">
        <ele>658</ele>
        <time>2025-06-08T08:47:29.479Z</time>
      </trkpt>
      <trkpt lat="45.3909" lon="2.48338">
        <ele>658</ele>
        <time>2025-06-08T08:47:30.479Z</time>
      </trkpt>
      <trkpt lat="45.3909" lon="2.48338">
        <ele>659</ele>
        <time>2025-06-08T08:47:31.479Z</time>
      </trkpt>
      <trkpt lat="45.39089" lon="2.48338">
        <ele>659</ele>
        <time>2025-06-08T08:47:32.479Z</time>
      </trkpt>
      <trkpt lat="45.39087" lon="2.48337">
        <ele>659</ele>
        <time>2025-06-08T08:47:33.479Z</time>
      </trkpt>
      <trkpt lat="45.39086" lon="2.48338">
        <ele>660</ele>
        <time>2025-06-08T08:47:34.479Z</time>
      </trkpt>
      <trkpt lat="45.39084" lon="2.48338">
        <ele>660</ele>
        <time>2025-06-08T08:47:35.479Z</time>
      </trkpt>
      <trkpt lat="45.39083" lon="2.48337">
        <ele>660</ele>
        <time>2025-06-08T08:47:36.479Z</time>
      </trkpt>
      <trkpt lat="45.39082" lon="2.48338">
        <ele>660</ele>
        <time>2025-06-08T08:47:37.479Z</time>
      </trkpt>
      <trkpt lat="45.3908" lon="2.48337">
        <ele>660</ele>
        <time>2025-06-08T08:47:38.479Z</time>
      </trkpt>
      <trkpt lat="45.39079" lon="2.48337">
        <ele>660</ele>
        <time>2025-06-08T08:47:39.479Z</time>
      </trkpt>
      <trkpt lat="45.39078" lon="2.48335">
        <ele>659</ele>
        <time>2025-06-08T08:47:40.479Z</time>
      </trkpt>
      <trkpt lat="45.39077" lon="2.48334">
        <ele>659</ele>
        <time>2025-06-08T08:47:41.479Z</time>
      </trkpt>
      <trkpt lat="45.39076" lon="2.48333">
        <ele>659</ele>
        <time>2025-06-08T08:47:42.479Z</time>
      </trkpt>
      <trkpt lat="45.39075" lon="2.48331">
        <ele>658</ele>
        <time>2025-06-08T08:47:43.479Z</time>
      </trkpt>
      <trkpt lat="45.39074" lon="2.4833">
        <ele>657</ele>
        <time>2025-06-08T08:47:44.479Z</time>
      </trkpt>
      <trkpt lat="45.39073" lon="2.48329">
        <ele>656</ele>
        <time>2025-06-08T08:47:45.479Z</time>
      </trkpt>
      <trkpt lat="45.39071" lon="2.48329">
        <ele>656</ele>
        <time>2025-06-08T08:47:46.479Z</time>
      </trkpt>
      <trkpt lat="45.3907" lon="2.48327">
        <ele>656</ele>
        <time>2025-06-08T08:47:47.479Z</time>
      </trkpt>
      <trkpt lat="45.39069" lon="2.48327">
        <ele>656</ele>
        <time>2025-06-08T08:47:48.479Z</time>
      </trkpt>
      <trkpt lat="45.39068" lon="2.48326">
        <ele>655</ele>
        <time>2025-06-08T08:47:49.479Z</time>
      </trkpt>
      <trkpt lat="45.39068" lon="2.48326">
        <ele>655</ele>
        <time>2025-06-08T08:47:50.479Z</time>
      </trkpt>
      <trkpt lat="45.39066" lon="2.48324">
        <ele>655</ele>
        <time>2025-06-08T08:47:51.479Z</time>
      </trkpt>
      <trkpt lat="45.39065" lon="2.48323">
        <ele>655</ele>
        <time>2025-06-08T08:47:52.479Z</time>
      </trkpt>
      <trkpt lat="45.39064" lon="2.48322">
        <ele>655</ele>
        <time>2025-06-08T08:47:53.479Z</time>
      </trkpt>
      <trkpt lat="45.39063" lon="2.48321">
        <ele>655</ele>
        <time>2025-06-08T08:47:54.479Z</time>
      </trkpt>
      <trkpt lat="45.39063" lon="2.48321">
        <ele>655</ele>
        <time>2025-06-08T08:47:55.479Z</time>
      </trkpt>
      <trkpt lat="45.39062" lon="2.48321">
        <ele>654</ele>
        <time>2025-06-08T08:47:56.479Z</time>
      </trkpt>
      <trkpt lat="45.39061" lon="2.4832">
        <ele>654</ele>
        <time>2025-06-08T08:47:57.479Z</time>
      </trkpt>
      <trkpt lat="45.3906" lon="2.48319">
        <ele>654</ele>
        <time>2025-06-08T08:47:58.479Z</time>
      </trkpt>
      <trkpt lat="45.39059" lon="2.48319">
        <ele>653</ele>
        <time>2025-06-08T08:47:59.479Z</time>
      </trkpt>
      <trkpt lat="45.39058" lon="2.48318">
        <ele>653</ele>
        <time>2025-06-08T08:48:00.479Z</time>
      </trkpt>
      <trkpt lat="45.39056" lon="2.48318">
        <ele>653</ele>
        <time>2025-06-08T08:48:01.479Z</time>
      </trkpt>
      <trkpt lat="45.39055" lon="2.48317">
        <ele>653</ele>
        <time>2025-06-08T08:48:02.479Z</time>
      </trkpt>
      <trkpt lat="45.39054" lon="2.48317">
        <ele>653</ele>
        <time>2025-06-08T08:48:03.479Z</time>
      </trkpt>
      <trkpt lat="45.39053" lon="2.48317">
        <ele>653</ele>
        <time>2025-06-08T08:48:04.479Z</time>
      </trkpt>
      <trkpt lat="45.39052" lon="2.48316">
        <ele>654</ele>
        <time>2025-06-08T08:48:05.479Z</time>
      </trkpt>
      <trkpt lat="45.39051" lon="2.48316">
        <ele>654</ele>
        <time>2025-06-08T08:48:06.479Z</time>
      </trkpt>
      <trkpt lat="45.39051" lon="2.48315">
        <ele>654</ele>
        <time>2025-06-08T08:48:07.479Z</time>
      </trkpt>
      <trkpt lat="45.3905" lon="2.48315">
        <ele>654</ele>
        <time>2025-06-08T08:48:08.479Z</time>
      </trkpt>
      <trkpt lat="45.3905" lon="2.48314">
        <ele>654</ele>
        <time>2025-06-08T08:48:09.479Z</time>
      </trkpt>
      <trkpt lat="45.39048" lon="2.48313">
        <ele>654</ele>
        <time>2025-06-08T08:48:10.479Z</time>
      </trkpt>
      <trkpt lat="45.39047" lon="2.48312">
        <ele>654</ele>
        <time>2025-06-08T08:48:11.479Z</time>
      </trkpt>
      <trkpt lat="45.39046" lon="2.48311">
        <ele>654</ele>
        <time>2025-06-08T08:48:12.479Z</time>
      </trkpt>
      <trkpt lat="45.39045" lon="2.4831">
        <ele>653</ele>
        <time>2025-06-08T08:48:13.479Z</time>
      </trkpt>
      <trkpt lat="45.39044" lon="2.48309">
        <ele>653</ele>
        <time>2025-06-08T08:48:14.479Z</time>
      </trkpt>
      <trkpt lat="45.39044" lon="2.48309">
        <ele>653</ele>
        <time>2025-06-08T08:48:15.479Z</time>
      </trkpt>
      <trkpt lat="45.39042" lon="2.48309">
        <ele>652</ele>
        <time>2025-06-08T08:48:16.479Z</time>
      </trkpt>
      <trkpt lat="45.39041" lon="2.48311">
        <ele>652</ele>
        <time>2025-06-08T08:48:17.479Z</time>
      </trkpt>
      <trkpt lat="45.3904" lon="2.48312">
        <ele>652</ele>
        <time>2025-06-08T08:48:18.479Z</time>
      </trkpt>
      <trkpt lat="45.3904" lon="2.48313">
        <ele>652</ele>
        <time>2025-06-08T08:48:19.479Z</time>
      </trkpt>
      <trkpt lat="45.39039" lon="2.48313">
        <ele>652</ele>
        <time>2025-06-08T08:48:20.479Z</time>
      </trkpt>
      <trkpt lat="45.39038" lon="2.48313">
        <ele>652</ele>
        <time>2025-06-08T08:48:21.479Z</time>
      </trkpt>
      <trkpt lat="45.39037" lon="2.48314">
        <ele>652</ele>
        <time>2025-06-08T08:48:22.479Z</time>
      </trkpt>
      <trkpt lat="45.39037" lon="2.48315">
        <ele>653</ele>
        <time>2025-06-08T08:48:23.479Z</time>
      </trkpt>
      <trkpt lat="45.39036" lon="2.48315">
        <ele>653</ele>
        <time>2025-06-08T08:48:24.479Z</time>
      </trkpt>
      <trkpt lat="45.39036" lon="2.48315">
        <ele>653</ele>
        <time>2025-06-08T08:48:25.479Z</time>
      </trkpt>
      <trkpt lat="45.39035" lon="2.48316">
        <ele>653</ele>
        <time>2025-06-08T08:48:26.479Z</time>
      </trkpt>
      <trkpt lat="45.39033" lon="2.48316">
        <ele>653</ele>
        <time>2025-06-08T08:48:27.479Z</time>
      </trkpt>
      <trkpt lat="45.39032" lon="2.48316">
        <ele>653</ele>
        <time>2025-06-08T08:48:28.479Z</time>
      </trkpt>
      <trkpt lat="45.39031" lon="2.48316">
        <ele>652</ele>
        <time>2025-06-08T08:48:29.479Z</time>
      </trkpt>
      <trkpt lat="45.39029" lon="2.48316">
        <ele>652</ele>
        <time>2025-06-08T08:48:30.479Z</time>
      </trkpt>
      <trkpt lat="45.39028" lon="2.48315">
        <ele>652</ele>
        <time>2025-06-08T08:48:31.479Z</time>
      </trkpt>
      <trkpt lat="45.39026" lon="2.48315">
        <ele>652</ele>
        <time>2025-06-08T08:48:32.479Z</time>
      </trkpt>
      <trkpt lat="45.39025" lon="2.48314">
        <ele>652</ele>
        <time>2025-06-08T08:48:33.479Z</time>
      </trkpt>
      <trkpt lat="45.39024" lon="2.48314">
        <ele>651</ele>
        <time>2025-06-08T08:48:34.479Z</time>
      </trkpt>
      <trkpt lat="45.39023" lon="2.48314">
        <ele>651</ele>
        <time>2025-06-08T08:48:35.479Z</time>
      </trkpt>
      <trkpt lat="45.39022" lon="2.48314">
        <ele>652</ele>
        <time>2025-06-08T08:48:36.479Z</time>
      </trkpt>
      <trkpt lat="45.3902" lon="2.48314">
        <ele>652</ele>
        <time>2025-06-08T08:48:37.479Z</time>
      </trkpt>
      <trkpt lat="45.3902" lon="2.48317">
        <ele>652</ele>
        <time>2025-06-08T08:48:38.479Z</time>
      </trkpt>
      <trkpt lat="45.39018" lon="2.48315">
        <ele>652</ele>
        <time>2025-06-08T08:48:39.479Z</time>
      </trkpt>
      <trkpt lat="45.39017" lon="2.48315">
        <ele>652</ele>
        <time>2025-06-08T08:48:40.479Z</time>
      </trkpt>
      <trkpt lat="45.39016" lon="2.48313">
        <ele>652</ele>
        <time>2025-06-08T08:48:41.479Z</time>
      </trkpt>
      <trkpt lat="45.39014" lon="2.48314">
        <ele>652</ele>
        <time>2025-06-08T08:48:42.479Z</time>
      </trkpt>
      <trkpt lat="45.39013" lon="2.48314">
        <ele>653</ele>
        <time>2025-06-08T08:48:43.479Z</time>
      </trkpt>
      <trkpt lat="45.39011" lon="2.48315">
        <ele>653</ele>
        <time>2025-06-08T08:48:44.479Z</time>
      </trkpt>
      <trkpt lat="45.39011" lon="2.48315">
        <ele>653</ele>
        <time>2025-06-08T08:48:45.479Z</time>
      </trkpt>
      <trkpt lat="45.3901" lon="2.48314">
        <ele>652</ele>
        <time>2025-06-08T08:48:46.479Z</time>
      </trkpt>
      <trkpt lat="45.3901" lon="2.48314">
        <ele>652</ele>
        <time>2025-06-08T08:48:47.479Z</time>
      </trkpt>
      <trkpt lat="45.39008" lon="2.48314">
        <ele>651</ele>
        <time>2025-06-08T08:48:48.479Z</time>
      </trkpt>
      <trkpt lat="45.39008" lon="2.48314">
        <ele>651</ele>
        <time>2025-06-08T08:48:49.479Z</time>
      </trkpt>
      <trkpt lat="45.39006" lon="2.48313">
        <ele>650</ele>
        <time>2025-06-08T08:48:50.479Z</time>
      </trkpt>
      <trkpt lat="45.39005" lon="2.48314">
        <ele>649</ele>
        <time>2025-06-08T08:48:51.479Z</time>
      </trkpt>
      <trkpt lat="45.39004" lon="2.48313">
        <ele>649</ele>
        <time>2025-06-08T08:48:52.479Z</time>
      </trkpt>
      <trkpt lat="45.39003" lon="2.48313">
        <ele>648</ele>
        <time>2025-06-08T08:48:53.479Z</time>
      </trkpt>
      <trkpt lat="45.39002" lon="2.48313">
        <ele>648</ele>
        <time>2025-06-08T08:48:54.479Z</time>
      </trkpt>
      <trkpt lat="45.39001" lon="2.48312">
        <ele>647</ele>
        <time>2025-06-08T08:48:55.479Z</time>
      </trkpt>
      <trkpt lat="45.39" lon="2.48312">
        <ele>647</ele>
        <time>2025-06-08T08:48:56.479Z</time>
      </trkpt>
      <trkpt lat="45.38999" lon="2.48312">
        <ele>647</ele>
        <time>2025-06-08T08:48:57.479Z</time>
      </trkpt>
      <trkpt lat="45.38998" lon="2.48312">
        <ele>647</ele>
        <time>2025-06-08T08:48:58.479Z</time>
      </trkpt>
      <trkpt lat="45.38997" lon="2.48312">
        <ele>647</ele>
        <time>2025-06-08T08:48:59.479Z</time>
      </trkpt>
      <trkpt lat="45.38996" lon="2.48313">
        <ele>647</ele>
        <time>2025-06-08T08:49:00.479Z</time>
      </trkpt>
      <trkpt lat="45.38996" lon="2.48313">
        <ele>647</ele>
        <time>2025-06-08T08:49:01.479Z</time>
      </trkpt>
      <trkpt lat="45.38995" lon="2.48314">
        <ele>646</ele>
        <time>2025-06-08T08:49:02.479Z</time>
      </trkpt>
      <trkpt lat="45.38994" lon="2.48314">
        <ele>647</ele>
        <time>2025-06-08T08:49:03.479Z</time>
      </trkpt>
      <trkpt lat="45.38993" lon="2.48314">
        <ele>647</ele>
        <time>2025-06-08T08:49:04.479Z</time>
      </trkpt>
      <trkpt lat="45.38992" lon="2.48314">
        <ele>647</ele>
        <time>2025-06-08T08:49:05.479Z</time>
      </trkpt>
      <trkpt lat="45.38991" lon="2.48313">
        <ele>647</ele>
        <time>2025-06-08T08:49:06.479Z</time>
      </trkpt>
      <trkpt lat="45.3899" lon="2.48313">
        <ele>647</ele>
        <time>2025-06-08T08:49:07.479Z</time>
      </trkpt>
      <trkpt lat="45.38989" lon="2.48313">
        <ele>646</ele>
        <time>2025-06-08T08:49:08.479Z</time>
      </trkpt>
      <trkpt lat="45.38988" lon="2.48313">
        <ele>647</ele>
        <time>2025-06-08T08:49:09.479Z</time>
      </trkpt>
      <trkpt lat="45.38988" lon="2.48313">
        <ele>647</ele>
        <time>2025-06-08T08:49:10.479Z</time>
      </trkpt>
      <trkpt lat="45.38987" lon="2.48314">
        <ele>647</ele>
        <time>2025-06-08T08:49:11.479Z</time>
      </trkpt>
      <trkpt lat="45.38986" lon="2.48314">
        <ele>647</ele>
        <time>2025-06-08T08:49:12.479Z</time>
      </trkpt>
      <trkpt lat="45.38985" lon="2.48314">
        <ele>647</ele>
        <time>2025-06-08T08:49:13.479Z</time>
      </trkpt>
      <trkpt lat="45.38984" lon="2.48315">
        <ele>647</ele>
        <time>2025-06-08T08:49:14.479Z</time>
      </trkpt>
      <trkpt lat="45.38982" lon="2.48315">
        <ele>647</ele>
        <time>2025-06-08T08:49:15.479Z</time>
      </trkpt>
      <trkpt lat="45.38981" lon="2.48315">
        <ele>647</ele>
        <time>2025-06-08T08:49:16.479Z</time>
      </trkpt>
      <trkpt lat="45.38981" lon="2.48315">
        <ele>647</ele>
        <time>2025-06-08T08:49:17.479Z</time>
      </trkpt>
      <trkpt lat="45.3898" lon="2.48314">
        <ele>647</ele>
        <time>2025-06-08T08:49:18.479Z</time>
      </trkpt>
      <trkpt lat="45.3898" lon="2.48313">
        <ele>647</ele>
        <time>2025-06-08T08:49:19.479Z</time>
      </trkpt>
      <trkpt lat="45.38979" lon="2.48312">
        <ele>647</ele>
        <time>2025-06-08T08:49:20.479Z</time>
      </trkpt>
      <trkpt lat="45.38979" lon="2.4831">
        <ele>647</ele>
        <time>2025-06-08T08:49:21.479Z</time>
      </trkpt>
      <trkpt lat="45.38978" lon="2.48309">
        <ele>647</ele>
        <time>2025-06-08T08:49:22.479Z</time>
      </trkpt>
      <trkpt lat="45.38977" lon="2.48309">
        <ele>647</ele>
        <time>2025-06-08T08:49:23.479Z</time>
      </trkpt>
      <trkpt lat="45.38976" lon="2.48309">
        <ele>647</ele>
        <time>2025-06-08T08:49:24.479Z</time>
      </trkpt>
      <trkpt lat="45.38975" lon="2.4831">
        <ele>646</ele>
        <time>2025-06-08T08:49:25.479Z</time>
      </trkpt>
      <trkpt lat="45.38975" lon="2.48309">
        <ele>646</ele>
        <time>2025-06-08T08:49:26.479Z</time>
      </trkpt>
      <trkpt lat="45.38973" lon="2.48307">
        <ele>646</ele>
        <time>2025-06-08T08:49:27.479Z</time>
      </trkpt>
      <trkpt lat="45.38973" lon="2.48307">
        <ele>647</ele>
        <time>2025-06-08T08:49:28.479Z</time>
      </trkpt>
      <trkpt lat="45.38973" lon="2.48307">
        <ele>647</ele>
        <time>2025-06-08T08:49:29.479Z</time>
      </trkpt>
      <trkpt lat="45.38973" lon="2.48307">
        <ele>647</ele>
        <time>2025-06-08T08:49:30.479Z</time>
      </trkpt>
      <trkpt lat="45.38973" lon="2.48306">
        <ele>647</ele>
        <time>2025-06-08T08:49:31.479Z</time>
      </trkpt>
      <trkpt lat="45.38974" lon="2.48307">
        <ele>648</ele>
        <time>2025-06-08T08:49:32.479Z</time>
      </trkpt>
      <trkpt lat="45.38974" lon="2.48308">
        <ele>648</ele>
        <time>2025-06-08T08:49:33.479Z</time>
      </trkpt>
      <trkpt lat="45.38974" lon="2.48307">
        <ele>648</ele>
        <time>2025-06-08T08:49:34.479Z</time>
      </trkpt>
      <trkpt lat="45.38973" lon="2.48308">
        <ele>649</ele>
        <time>2025-06-08T08:49:35.479Z</time>
      </trkpt>
      <trkpt lat="45.38973" lon="2.48307">
        <ele>649</ele>
        <time>2025-06-08T08:49:36.479Z</time>
      </trkpt>
      <trkpt lat="45.38973" lon="2.48307">
        <ele>649</ele>
        <time>2025-06-08T08:49:37.479Z</time>
      </trkpt>
      <trkpt lat="45.38973" lon="2.48307">
        <ele>649</ele>
        <time>2025-06-08T08:49:38.479Z</time>
      </trkpt>
      <trkpt lat="45.38973" lon="2.48307">
        <ele>650</ele>
        <time>2025-06-08T08:49:39.479Z</time>
      </trkpt>
      <trkpt lat="45.38973" lon="2.48307">
        <ele>650</ele>
        <time>2025-06-08T08:49:40.479Z</time>
      </trkpt>
      <trkpt lat="45.38973" lon="2.48306">
        <ele>650</ele>
        <time>2025-06-08T08:49:41.479Z</time>
      </trkpt>
      <trkpt lat="45.38973" lon="2.48306">
        <ele>650</ele>
        <time>2025-06-08T08:49:42.479Z</time>
      </trkpt>
      <trkpt lat="45.38973" lon="2.48306">
        <ele>650</ele>
        <time>2025-06-08T08:49:43.479Z</time>
      </trkpt>
      <trkpt lat="45.38973" lon="2.48306">
        <ele>650</ele>
        <time>2025-06-08T08:49:44.479Z</time>
      </trkpt>
      <trkpt lat="45.38973" lon="2.48306">
        <ele>650</ele>
        <time>2025-06-08T08:49:45.479Z</time>
      </trkpt>
      <trkpt lat="45.38973" lon="2.48305">
        <ele>650</ele>
        <time>2025-06-08T08:49:46.479Z</time>
      </trkpt>
      <trkpt lat="45.38973" lon="2.48305">
        <ele>650</ele>
        <time>2025-06-08T08:49:47.479Z</time>
      </trkpt>
      <trkpt lat="45.38973" lon="2.48304">
        <ele>651</ele>
        <time>2025-06-08T08:49:48.479Z</time>
      </trkpt>
      <trkpt lat="45.38972" lon="2.48303">
        <ele>651</ele>
        <time>2025-06-08T08:49:49.479Z</time>
      </trkpt>
      <trkpt lat="45.38973" lon="2.48303">
        <ele>651</ele>
        <time>2025-06-08T08:49:50.479Z</time>
      </trkpt>
      <trkpt lat="45.38973" lon="2.48303">
        <ele>651</ele>
        <time>2025-06-08T08:49:51.479Z</time>
      </trkpt>
      <trkpt lat="45.38973" lon="2.48302">
        <ele>651</ele>
        <time>2025-06-08T08:49:52.479Z</time>
      </trkpt>
      <trkpt lat="45.38973" lon="2.48302">
        <ele>651</ele>
        <time>2025-06-08T08:49:53.479Z</time>
      </trkpt>
      <trkpt lat="45.38974" lon="2.48302">
        <ele>651</ele>
        <time>2025-06-08T08:49:54.479Z</time>
      </trkpt>
      <trkpt lat="45.38974" lon="2.48302">
        <ele>651</ele>
        <time>2025-06-08T08:49:55.479Z</time>
      </trkpt>
      <trkpt lat="45.38974" lon="2.48302">
        <ele>650</ele>
        <time>2025-06-08T08:49:56.479Z</time>
      </trkpt>
      <trkpt lat="45.38973" lon="2.48302">
        <ele>650</ele>
        <time>2025-06-08T08:49:57.479Z</time>
      </trkpt>
      <trkpt lat="45.38973" lon="2.48302">
        <ele>650</ele>
        <time>2025-06-08T08:49:58.479Z</time>
      </trkpt>
      <trkpt lat="45.38973" lon="2.48302">
        <ele>649</ele>
        <time>2025-06-08T08:49:59.479Z</time>
      </trkpt>
      <trkpt lat="45.38973" lon="2.48302">
        <ele>649</ele>
        <time>2025-06-08T08:50:00.479Z</time>
      </trkpt>
      <trkpt lat="45.38973" lon="2.48302">
        <ele>649</ele>
        <time>2025-06-08T08:50:01.479Z</time>
      </trkpt>
      <trkpt lat="45.38973" lon="2.48302">
        <ele>648</ele>
        <time>2025-06-08T08:50:02.479Z</time>
      </trkpt>
      <trkpt lat="45.38973" lon="2.48302">
        <ele>648</ele>
        <time>2025-06-08T08:50:03.479Z</time>
      </trkpt>
      <trkpt lat="45.38974" lon="2.48302">
        <ele>647</ele>
        <time>2025-06-08T08:50:04.479Z</time>
      </trkpt>
      <trkpt lat="45.38974" lon="2.48302">
        <ele>646</ele>
        <time>2025-06-08T08:50:05.479Z</time>
      </trkpt>
      <trkpt lat="45.38974" lon="2.48302">
        <ele>645</ele>
        <time>2025-06-08T08:50:06.479Z</time>
      </trkpt>
      <trkpt lat="45.38974" lon="2.48301">
        <ele>644</ele>
        <time>2025-06-08T08:50:07.479Z</time>
      </trkpt>
      <trkpt lat="45.38974" lon="2.48301">
        <ele>644</ele>
        <time>2025-06-08T08:50:08.479Z</time>
      </trkpt>
      <trkpt lat="45.38974" lon="2.48301">
        <ele>643</ele>
        <time>2025-06-08T08:50:09.479Z</time>
      </trkpt>
      <trkpt lat="45.38974" lon="2.48301">
        <ele>642</ele>
        <time>2025-06-08T08:50:10.479Z</time>
      </trkpt>
      <trkpt lat="45.38973" lon="2.48301">
        <ele>642</ele>
        <time>2025-06-08T08:50:11.479Z</time>
      </trkpt>
      <trkpt lat="45.38973" lon="2.483">
        <ele>642</ele>
        <time>2025-06-08T08:50:12.479Z</time>
      </trkpt>
      <trkpt lat="45.38973" lon="2.483">
        <ele>641</ele>
        <time>2025-06-08T08:50:13.479Z</time>
      </trkpt>
      <trkpt lat="45.38974" lon="2.483">
        <ele>641</ele>
        <time>2025-06-08T08:50:14.479Z</time>
      </trkpt>
      <trkpt lat="45.38974" lon="2.48301">
        <ele>641</ele>
        <time>2025-06-08T08:50:15.479Z</time>
      </trkpt>
      <trkpt lat="45.38974" lon="2.48301">
        <ele>641</ele>
        <time>2025-06-08T08:50:16.479Z</time>
      </trkpt>
      <trkpt lat="45.38973" lon="2.48301">
        <ele>641</ele>
        <time>2025-06-08T08:50:17.479Z</time>
      </trkpt>
      <trkpt lat="45.38973" lon="2.48301">
        <ele>641</ele>
        <time>2025-06-08T08:50:18.479Z</time>
      </trkpt>
      <trkpt lat="45.38973" lon="2.483">
        <ele>641</ele>
        <time>2025-06-08T08:50:19.479Z</time>
      </trkpt>
      <trkpt lat="45.38973" lon="2.48301">
        <ele>641</ele>
        <time>2025-06-08T08:50:20.479Z</time>
      </trkpt>
      <trkpt lat="45.38973" lon="2.48301">
        <ele>642</ele>
        <time>2025-06-08T08:50:21.479Z</time>
      </trkpt>
      <trkpt lat="45.38973" lon="2.48301">
        <ele>642</ele>
        <time>2025-06-08T08:50:22.479Z</time>
      </trkpt>
      <trkpt lat="45.38973" lon="2.48301">
        <ele>642</ele>
        <time>2025-06-08T08:50:23.479Z</time>
      </trkpt>
      <trkpt lat="45.38973" lon="2.483">
        <ele>642</ele>
        <time>2025-06-08T08:50:24.479Z</time>
      </trkpt>
      <trkpt lat="45.38973" lon="2.483">
        <ele>642</ele>
        <time>2025-06-08T08:50:25.479Z</time>
      </trkpt>
      <trkpt lat="45.38973" lon="2.483">
        <ele>642</ele>
        <time>2025-06-08T08:50:26.479Z</time>
      </trkpt>
      <trkpt lat="45.38973" lon="2.48301">
        <ele>643</ele>
        <time>2025-06-08T08:50:27.479Z</time>
      </trkpt>
      <trkpt lat="45.38973" lon="2.48301">
        <ele>643</ele>
        <time>2025-06-08T08:50:28.479Z</time>
      </trkpt>
      <trkpt lat="45.38973" lon="2.48301">
        <ele>643</ele>
        <time>2025-06-08T08:50:29.479Z</time>
      </trkpt>
      <trkpt lat="45.38973" lon="2.48301">
        <ele>643</ele>
        <time>2025-06-08T08:50:30.479Z</time>
      </trkpt>
      <trkpt lat="45.38973" lon="2.48301">
        <ele>643</ele>
        <time>2025-06-08T08:50:31.479Z</time>
      </trkpt>
      <trkpt lat="45.38973" lon="2.48301">
        <ele>643</ele>
        <time>2025-06-08T08:50:32.479Z</time>
      </trkpt>
      <trkpt lat="45.38972" lon="2.48301">
        <ele>644</ele>
        <time>2025-06-08T08:50:33.479Z</time>
      </trkpt>
      <trkpt lat="45.38972" lon="2.48301">
        <ele>644</ele>
        <time>2025-06-08T08:50:34.479Z</time>
      </trkpt>
      <trkpt lat="45.38973" lon="2.48301">
        <ele>644</ele>
        <time>2025-06-08T08:50:35.479Z</time>
      </trkpt>
      <trkpt lat="45.38973" lon="2.48301">
        <ele>644</ele>
        <time>2025-06-08T08:50:36.479Z</time>
      </trkpt>
      <trkpt lat="45.38973" lon="2.48302">
        <ele>644</ele>
        <time>2025-06-08T08:50:37.479Z</time>
      </trkpt>
      <trkpt lat="45.38973" lon="2.48302">
        <ele>644</ele>
        <time>2025-06-08T08:50:38.479Z</time>
      </trkpt>
      <trkpt lat="45.38972" lon="2.48301">
        <ele>644</ele>
        <time>2025-06-08T08:50:39.479Z</time>
      </trkpt>
      <trkpt lat="45.38973" lon="2.48302">
        <ele>644</ele>
        <time>2025-06-08T08:50:40.479Z</time>
      </trkpt>
      <trkpt lat="45.38973" lon="2.48302">
        <ele>644</ele>
        <time>2025-06-08T08:50:41.479Z</time>
      </trkpt>
      <trkpt lat="45.38973" lon="2.48302">
        <ele>644</ele>
        <time>2025-06-08T08:50:42.479Z</time>
      </trkpt>
      <trkpt lat="45.38973" lon="2.48302">
        <ele>644</ele>
        <time>2025-06-08T08:50:43.479Z</time>
      </trkpt>
      <trkpt lat="45.38973" lon="2.48303">
        <ele>644</ele>
        <time>2025-06-08T08:50:44.479Z</time>
      </trkpt>
      <trkpt lat="45.38973" lon="2.48303">
        <ele>644</ele>
        <time>2025-06-08T08:50:45.479Z</time>
      </trkpt>
      <trkpt lat="45.38973" lon="2.48304">
        <ele>644</ele>
        <time>2025-06-08T08:50:46.479Z</time>
      </trkpt>
      <trkpt lat="45.38973" lon="2.48304">
        <ele>644</ele>
        <time>2025-06-08T08:50:47.479Z</time>
      </trkpt>
      <trkpt lat="45.38973" lon="2.48304">
        <ele>644</ele>
        <time>2025-06-08T08:50:48.479Z</time>
      </trkpt>
      <trkpt lat="45.38973" lon="2.48304">
        <ele>644</ele>
        <time>2025-06-08T08:50:49.479Z</time>
      </trkpt>
      <trkpt lat="45.38974" lon="2.48304">
        <ele>644</ele>
        <time>2025-06-08T08:50:50.479Z</time>
      </trkpt>
      <trkpt lat="45.38974" lon="2.48304">
        <ele>644</ele>
        <time>2025-06-08T08:50:51.479Z</time>
      </trkpt>
      <trkpt lat="45.38974" lon="2.48304">
        <ele>644</ele>
        <time>2025-06-08T08:50:52.479Z</time>
      </trkpt>
      <trkpt lat="45.38974" lon="2.48304">
        <ele>644</ele>
        <time>2025-06-08T08:50:53.479Z</time>
      </trkpt>
      <trkpt lat="45.38974" lon="2.48304">
        <ele>644</ele>
        <time>2025-06-08T08:50:54.479Z</time>
      </trkpt>
      <trkpt lat="45.38974" lon="2.48303">
        <ele>644</ele>
        <time>2025-06-08T08:50:55.479Z</time>
      </trkpt>
      <trkpt lat="45.38974" lon="2.48303">
        <ele>644</ele>
        <time>2025-06-08T08:50:56.479Z</time>
      </trkpt>
      <trkpt lat="45.38974" lon="2.48304">
        <ele>644</ele>
        <time>2025-06-08T08:50:57.479Z</time>
      </trkpt>
      <trkpt lat="45.38974" lon="2.48304">
        <ele>644</ele>
        <time>2025-06-08T08:50:58.479Z</time>
      </trkpt>
      <trkpt lat="45.38974" lon="2.48304">
        <ele>644</ele>
        <time>2025-06-08T08:50:59.479Z</time>
      </trkpt>
      <trkpt lat="45.38974" lon="2.48304">
        <ele>644</ele>
        <time>2025-06-08T08:51:00.479Z</time>
      </trkpt>
      <trkpt lat="45.38974" lon="2.48304">
        <ele>644</ele>
        <time>2025-06-08T08:51:01.479Z</time>
      </trkpt>
      <trkpt lat="45.38974" lon="2.48304">
        <ele>644</ele>
        <time>2025-06-08T08:51:02.479Z</time>
      </trkpt>
      <trkpt lat="45.38974" lon="2.48303">
        <ele>644</ele>
        <time>2025-06-08T08:51:03.479Z</time>
      </trkpt>
      <trkpt lat="45.38974" lon="2.48303">
        <ele>644</ele>
        <time>2025-06-08T08:51:04.479Z</time>
      </trkpt>
      <trkpt lat="45.38974" lon="2.48303">
        <ele>644</ele>
        <time>2025-06-08T08:51:05.479Z</time>
      </trkpt>
      <trkpt lat="45.38974" lon="2.48303">
        <ele>644</ele>
        <time>2025-06-08T08:51:06.479Z</time>
      </trkpt>
      <trkpt lat="45.38974" lon="2.48303">
        <ele>644</ele>
        <time>2025-06-08T08:51:07.479Z</time>
      </trkpt>
      <trkpt lat="45.38974" lon="2.48303">
        <ele>644</ele>
        <time>2025-06-08T08:51:08.479Z</time>
      </trkpt>
      <trkpt lat="45.38974" lon="2.48303">
        <ele>644</ele>
        <time>2025-06-08T08:51:09.479Z</time>
      </trkpt>
      <trkpt lat="45.38974" lon="2.48303">
        <ele>644</ele>
        <time>2025-06-08T08:51:10.479Z</time>
      </trkpt>
      <trkpt lat="45.38973" lon="2.48304">
        <ele>644</ele>
        <time>2025-06-08T08:51:11.479Z</time>
      </trkpt>
      <trkpt lat="45.38973" lon="2.48303">
        <ele>644</ele>
        <time>2025-06-08T08:51:12.479Z</time>
      </trkpt>
      <trkpt lat="45.38973" lon="2.48304">
        <ele>644</ele>
        <time>2025-06-08T08:51:13.479Z</time>
      </trkpt>
      <trkpt lat="45.38973" lon="2.48304">
        <ele>645</ele>
        <time>2025-06-08T08:51:14.479Z</time>
      </trkpt>
      <trkpt lat="45.38973" lon="2.48304">
        <ele>645</ele>
        <time>2025-06-08T08:51:15.479Z</time>
      </trkpt>
      <trkpt lat="45.38972" lon="2.48305">
        <ele>645</ele>
        <time>2025-06-08T08:51:16.479Z</time>
      </trkpt>
      <trkpt lat="45.38972" lon="2.48305">
        <ele>645</ele>
        <time>2025-06-08T08:51:17.479Z</time>
      </trkpt>
      <trkpt lat="45.38972" lon="2.48305">
        <ele>645</ele>
        <time>2025-06-08T08:51:18.479Z</time>
      </trkpt>
      <trkpt lat="45.38972" lon="2.48305">
        <ele>645</ele>
        <time>2025-06-08T08:51:19.479Z</time>
      </trkpt>
      <trkpt lat="45.38973" lon="2.48305">
        <ele>645</ele>
        <time>2025-06-08T08:51:20.479Z</time>
      </trkpt>
      <trkpt lat="45.38973" lon="2.48305">
        <ele>646</ele>
        <time>2025-06-08T08:51:21.479Z</time>
      </trkpt>
      <trkpt lat="45.38973" lon="2.48305">
        <ele>646</ele>
        <time>2025-06-08T08:51:22.479Z</time>
      </trkpt>
      <trkpt lat="45.38972" lon="2.48305">
        <ele>646</ele>
        <time>2025-06-08T08:51:23.479Z</time>
      </trkpt>
      <trkpt lat="45.38972" lon="2.48305">
        <ele>646</ele>
        <time>2025-06-08T08:51:24.479Z</time>
      </trkpt>
      <trkpt lat="45.38972" lon="2.48305">
        <ele>646</ele>
        <time>2025-06-08T08:51:25.479Z</time>
      </trkpt>
      <trkpt lat="45.38972" lon="2.48305">
        <ele>646</ele>
        <time>2025-06-08T08:51:26.479Z</time>
      </trkpt>
      <trkpt lat="45.38972" lon="2.48305">
        <ele>646</ele>
        <time>2025-06-08T08:51:27.479Z</time>
      </trkpt>
      <trkpt lat="45.38973" lon="2.48304">
        <ele>646</ele>
        <time>2025-06-08T08:51:28.479Z</time>
      </trkpt>
      <trkpt lat="45.38973" lon="2.48304">
        <ele>646</ele>
        <time>2025-06-08T08:51:29.479Z</time>
      </trkpt>
      <trkpt lat="45.38973" lon="2.48304">
        <ele>646</ele>
        <time>2025-06-08T08:51:30.479Z</time>
      </trkpt>
      <trkpt lat="45.38973" lon="2.48304">
        <ele>646</ele>
        <time>2025-06-08T08:51:31.479Z</time>
      </trkpt>
      <trkpt lat="45.38973" lon="2.48303">
        <ele>646</ele>
        <time>2025-06-08T08:51:32.479Z</time>
      </trkpt>
      <trkpt lat="45.38973" lon="2.48303">
        <ele>646</ele>
        <time>2025-06-08T08:51:33.479Z</time>
      </trkpt>
      <trkpt lat="45.38973" lon="2.48303">
        <ele>646</ele>
        <time>2025-06-08T08:51:34.479Z</time>
      </trkpt>
      <trkpt lat="45.38973" lon="2.48302">
        <ele>647</ele>
        <time>2025-06-08T08:51:35.479Z</time>
      </trkpt>
      <trkpt lat="45.38973" lon="2.48302">
        <ele>647</ele>
        <time>2025-06-08T08:51:36.479Z</time>
      </trkpt>
      <trkpt lat="45.38973" lon="2.48302">
        <ele>647</ele>
        <time>2025-06-08T08:51:37.479Z</time>
      </trkpt>
      <trkpt lat="45.38973" lon="2.48303">
        <ele>646</ele>
        <time>2025-06-08T08:51:38.479Z</time>
      </trkpt>
      <trkpt lat="45.38973" lon="2.48303">
        <ele>646</ele>
        <time>2025-06-08T08:51:39.479Z</time>
      </trkpt>
      <trkpt lat="45.38973" lon="2.48303">
        <ele>646</ele>
        <time>2025-06-08T08:51:40.479Z</time>
      </trkpt>
      <trkpt lat="45.38972" lon="2.48303">
        <ele>647</ele>
        <time>2025-06-08T08:51:41.479Z</time>
      </trkpt>
      <trkpt lat="45.38972" lon="2.48303">
        <ele>647</ele>
        <time>2025-06-08T08:51:42.479Z</time>
      </trkpt>
      <trkpt lat="45.38972" lon="2.48304">
        <ele>647</ele>
        <time>2025-06-08T08:51:43.479Z</time>
      </trkpt>
      <trkpt lat="45.38972" lon="2.48304">
        <ele>647</ele>
        <time>2025-06-08T08:51:44.479Z</time>
      </trkpt>
      <trkpt lat="45.38971" lon="2.48305">
        <ele>647</ele>
        <time>2025-06-08T08:51:45.479Z</time>
      </trkpt>
      <trkpt lat="45.38971" lon="2.48306">
        <ele>647</ele>
        <time>2025-06-08T08:51:46.479Z</time>
      </trkpt>
      <trkpt lat="45.38971" lon="2.48306">
        <ele>647</ele>
        <time>2025-06-08T08:51:47.479Z</time>
      </trkpt>
      <trkpt lat="45.38971" lon="2.48306">
        <ele>647</ele>
        <time>2025-06-08T08:51:48.479Z</time>
      </trkpt>
      <trkpt lat="45.38971" lon="2.48306">
        <ele>647</ele>
        <time>2025-06-08T08:51:49.479Z</time>
      </trkpt>
      <trkpt lat="45.38971" lon="2.48306">
        <ele>647</ele>
        <time>2025-06-08T08:51:50.479Z</time>
      </trkpt>
      <trkpt lat="45.38971" lon="2.48306">
        <ele>647</ele>
        <time>2025-06-08T08:51:51.479Z</time>
      </trkpt>
      <trkpt lat="45.38971" lon="2.48306">
        <ele>646</ele>
        <time>2025-06-08T08:51:52.479Z</time>
      </trkpt>
      <trkpt lat="45.38971" lon="2.48305">
        <ele>646</ele>
        <time>2025-06-08T08:51:53.479Z</time>
      </trkpt>
      <trkpt lat="45.38971" lon="2.48305">
        <ele>646</ele>
        <time>2025-06-08T08:51:54.479Z</time>
      </trkpt>
      <trkpt lat="45.3897" lon="2.48305">
        <ele>645</ele>
        <time>2025-06-08T08:51:55.479Z</time>
      </trkpt>
      <trkpt lat="45.38971" lon="2.48305">
        <ele>645</ele>
        <time>2025-06-08T08:51:56.479Z</time>
      </trkpt>
      <trkpt lat="45.38971" lon="2.48305">
        <ele>645</ele>
        <time>2025-06-08T08:51:57.479Z</time>
      </trkpt>
      <trkpt lat="45.3897" lon="2.48305">
        <ele>644</ele>
        <time>2025-06-08T08:51:58.479Z</time>
      </trkpt>
      <trkpt lat="45.3897" lon="2.48305">
        <ele>644</ele>
        <time>2025-06-08T08:51:59.479Z</time>
      </trkpt>
      <trkpt lat="45.3897" lon="2.48305">
        <ele>644</ele>
        <time>2025-06-08T08:52:00.479Z</time>
      </trkpt>
      <trkpt lat="45.3897" lon="2.48305">
        <ele>643</ele>
        <time>2025-06-08T08:52:01.479Z</time>
      </trkpt>
      <trkpt lat="45.3897" lon="2.48305">
        <ele>643</ele>
        <time>2025-06-08T08:52:02.479Z</time>
      </trkpt>
      <trkpt lat="45.3897" lon="2.48305">
        <ele>643</ele>
        <time>2025-06-08T08:52:03.479Z</time>
      </trkpt>
      <trkpt lat="45.3897" lon="2.48306">
        <ele>643</ele>
        <time>2025-06-08T08:52:04.479Z</time>
      </trkpt>
      <trkpt lat="45.3897" lon="2.48306">
        <ele>643</ele>
        <time>2025-06-08T08:52:05.479Z</time>
      </trkpt>
      <trkpt lat="45.3897" lon="2.48306">
        <ele>643</ele>
        <time>2025-06-08T08:52:06.479Z</time>
      </trkpt>
      <trkpt lat="45.38969" lon="2.48306">
        <ele>643</ele>
        <time>2025-06-08T08:52:07.479Z</time>
      </trkpt>
      <trkpt lat="45.38969" lon="2.48306">
        <ele>644</ele>
        <time>2025-06-08T08:52:08.479Z</time>
      </trkpt>
      <trkpt lat="45.38969" lon="2.48306">
        <ele>644</ele>
        <time>2025-06-08T08:52:09.479Z</time>
      </trkpt>
      <trkpt lat="45.3897" lon="2.48306">
        <ele>644</ele>
        <time>2025-06-08T08:52:10.479Z</time>
      </trkpt>
      <trkpt lat="45.3897" lon="2.48305">
        <ele>644</ele>
        <time>2025-06-08T08:52:11.479Z</time>
      </trkpt>
      <trkpt lat="45.3897" lon="2.48305">
        <ele>645</ele>
        <time>2025-06-08T08:52:12.479Z</time>
      </trkpt>
      <trkpt lat="45.3897" lon="2.48305">
        <ele>645</ele>
        <time>2025-06-08T08:52:13.479Z</time>
      </trkpt>
      <trkpt lat="45.3897" lon="2.48305">
        <ele>645</ele>
        <time>2025-06-08T08:52:14.479Z</time>
      </trkpt>
      <trkpt lat="45.3897" lon="2.48305">
        <ele>645</ele>
        <time>2025-06-08T08:52:15.479Z</time>
      </trkpt>
      <trkpt lat="45.3897" lon="2.48305">
        <ele>645</ele>
        <time>2025-06-08T08:52:16.479Z</time>
      </trkpt>
      <trkpt lat="45.3897" lon="2.48305">
        <ele>645</ele>
        <time>2025-06-08T08:52:17.479Z</time>
      </trkpt>
      <trkpt lat="45.3897" lon="2.48305">
        <ele>645</ele>
        <time>2025-06-08T08:52:18.479Z</time>
      </trkpt>
      <trkpt lat="45.3897" lon="2.48305">
        <ele>645</ele>
        <time>2025-06-08T08:52:19.479Z</time>
      </trkpt>
      <trkpt lat="45.3897" lon="2.48305">
        <ele>645</ele>
        <time>2025-06-08T08:52:20.479Z</time>
      </trkpt>
      <trkpt lat="45.3897" lon="2.48305">
        <ele>645</ele>
        <time>2025-06-08T08:52:21.479Z</time>
      </trkpt>
      <trkpt lat="45.3897" lon="2.48305">
        <ele>645</ele>
        <time>2025-06-08T08:52:22.479Z</time>
      </trkpt>
      <trkpt lat="45.38971" lon="2.48305">
        <ele>645</ele>
        <time>2025-06-08T08:52:23.479Z</time>
      </trkpt>
      <trkpt lat="45.38971" lon="2.48305">
        <ele>645</ele>
        <time>2025-06-08T08:52:24.479Z</time>
      </trkpt>
      <trkpt lat="45.38971" lon="2.48306">
        <ele>645</ele>
        <time>2025-06-08T08:52:25.479Z</time>
      </trkpt>
      <trkpt lat="45.38971" lon="2.48307">
        <ele>645</ele>
        <time>2025-06-08T08:52:26.479Z</time>
      </trkpt>
      <trkpt lat="45.38972" lon="2.48308">
        <ele>645</ele>
        <time>2025-06-08T08:52:27.479Z</time>
      </trkpt>
      <trkpt lat="45.38972" lon="2.48308">
        <ele>646</ele>
        <time>2025-06-08T08:52:28.479Z</time>
      </trkpt>
      <trkpt lat="45.38972" lon="2.48309">
        <ele>646</ele>
        <time>2025-06-08T08:52:29.479Z</time>
      </trkpt>
      <trkpt lat="45.38972" lon="2.48308">
        <ele>646</ele>
        <time>2025-06-08T08:52:30.479Z</time>
      </trkpt>
      <trkpt lat="45.38972" lon="2.48308">
        <ele>646</ele>
        <time>2025-06-08T08:52:31.479Z</time>
      </trkpt>
      <trkpt lat="45.38972" lon="2.48307">
        <ele>646</ele>
        <time>2025-06-08T08:52:32.479Z</time>
      </trkpt>
      <trkpt lat="45.38972" lon="2.48307">
        <ele>646</ele>
        <time>2025-06-08T08:52:33.479Z</time>
      </trkpt>
      <trkpt lat="45.38971" lon="2.48307">
        <ele>646</ele>
        <time>2025-06-08T08:52:34.479Z</time>
      </trkpt>
      <trkpt lat="45.38971" lon="2.48307">
        <ele>646</ele>
        <time>2025-06-08T08:52:35.479Z</time>
      </trkpt>
      <trkpt lat="45.38971" lon="2.48306">
        <ele>646</ele>
        <time>2025-06-08T08:52:36.479Z</time>
      </trkpt>
      <trkpt lat="45.38971" lon="2.48305">
        <ele>646</ele>
        <time>2025-06-08T08:52:37.479Z</time>
      </trkpt>
      <trkpt lat="45.38971" lon="2.48304">
        <ele>646</ele>
        <time>2025-06-08T08:52:38.479Z</time>
      </trkpt>
      <trkpt lat="45.38971" lon="2.48303">
        <ele>645</ele>
        <time>2025-06-08T08:52:39.479Z</time>
      </trkpt>
      <trkpt lat="45.38971" lon="2.48302">
        <ele>645</ele>
        <time>2025-06-08T08:52:40.479Z</time>
      </trkpt>
      <trkpt lat="45.3897" lon="2.48301">
        <ele>644</ele>
        <time>2025-06-08T08:52:41.479Z</time>
      </trkpt>
      <trkpt lat="45.3897" lon="2.48301">
        <ele>644</ele>
        <time>2025-06-08T08:52:42.479Z</time>
      </trkpt>
      <trkpt lat="45.3897" lon="2.48299">
        <ele>644</ele>
        <time>2025-06-08T08:52:43.479Z</time>
      </trkpt>
      <trkpt lat="45.38969" lon="2.48298">
        <ele>643</ele>
        <time>2025-06-08T08:52:44.479Z</time>
      </trkpt>
      <trkpt lat="45.38968" lon="2.48295">
        <ele>643</ele>
        <time>2025-06-08T08:52:45.479Z</time>
      </trkpt>
      <trkpt lat="45.38968" lon="2.48294">
        <ele>643</ele>
        <time>2025-06-08T08:52:46.479Z</time>
      </trkpt>
      <trkpt lat="45.38967" lon="2.48293">
        <ele>642</ele>
        <time>2025-06-08T08:52:47.479Z</time>
      </trkpt>
      <trkpt lat="45.38967" lon="2.48291">
        <ele>642</ele>
        <time>2025-06-08T08:52:48.479Z</time>
      </trkpt>
      <trkpt lat="45.38967" lon="2.4829">
        <ele>642</ele>
        <time>2025-06-08T08:52:49.479Z</time>
      </trkpt>
      <trkpt lat="45.38967" lon="2.4829">
        <ele>641</ele>
        <time>2025-06-08T08:52:50.479Z</time>
      </trkpt>
      <trkpt lat="45.38967" lon="2.4829">
        <ele>641</ele>
        <time>2025-06-08T08:52:51.479Z</time>
      </trkpt>
      <trkpt lat="45.38966" lon="2.48288">
        <ele>641</ele>
        <time>2025-06-08T08:52:52.479Z</time>
      </trkpt>
      <trkpt lat="45.38966" lon="2.48287">
        <ele>641</ele>
        <time>2025-06-08T08:52:53.479Z</time>
      </trkpt>
      <trkpt lat="45.38966" lon="2.48285">
        <ele>640</ele>
        <time>2025-06-08T08:52:54.479Z</time>
      </trkpt>
      <trkpt lat="45.38965" lon="2.48284">
        <ele>640</ele>
        <time>2025-06-08T08:52:55.479Z</time>
      </trkpt>
      <trkpt lat="45.38965" lon="2.48282">
        <ele>641</ele>
        <time>2025-06-08T08:52:56.479Z</time>
      </trkpt>
      <trkpt lat="45.38964" lon="2.4828">
        <ele>641</ele>
        <time>2025-06-08T08:52:57.479Z</time>
      </trkpt>
      <trkpt lat="45.38964" lon="2.4828">
        <ele>641</ele>
        <time>2025-06-08T08:52:58.479Z</time>
      </trkpt>
      <trkpt lat="45.38964" lon="2.4828">
        <ele>641</ele>
        <time>2025-06-08T08:52:59.479Z</time>
      </trkpt>
      <trkpt lat="45.38965" lon="2.4828">
        <ele>641</ele>
        <time>2025-06-08T08:53:00.479Z</time>
      </trkpt>
      <trkpt lat="45.38965" lon="2.4828">
        <ele>641</ele>
        <time>2025-06-08T08:53:01.479Z</time>
      </trkpt>
      <trkpt lat="45.38965" lon="2.4828">
        <ele>641</ele>
        <time>2025-06-08T08:53:02.479Z</time>
      </trkpt>
      <trkpt lat="45.38965" lon="2.4828">
        <ele>641</ele>
        <time>2025-06-08T08:53:03.479Z</time>
      </trkpt>
      <trkpt lat="45.38966" lon="2.4828">
        <ele>641</ele>
        <time>2025-06-08T08:53:04.479Z</time>
      </trkpt>
      <trkpt lat="45.38966" lon="2.4828">
        <ele>642</ele>
        <time>2025-06-08T08:53:05.479Z</time>
      </trkpt>
      <trkpt lat="45.38966" lon="2.4828">
        <ele>642</ele>
        <time>2025-06-08T08:53:06.479Z</time>
      </trkpt>
      <trkpt lat="45.38966" lon="2.4828">
        <ele>643</ele>
        <time>2025-06-08T08:53:07.479Z</time>
      </trkpt>
      <trkpt lat="45.38965" lon="2.4828">
        <ele>644</ele>
        <time>2025-06-08T08:53:08.479Z</time>
      </trkpt>
      <trkpt lat="45.38965" lon="2.4828">
        <ele>644</ele>
        <time>2025-06-08T08:53:09.479Z</time>
      </trkpt>
      <trkpt lat="45.38965" lon="2.4828">
        <ele>645</ele>
        <time>2025-06-08T08:53:10.479Z</time>
      </trkpt>
      <trkpt lat="45.38965" lon="2.4828">
        <ele>645</ele>
        <time>2025-06-08T08:53:11.479Z</time>
      </trkpt>
      <trkpt lat="45.38965" lon="2.48281">
        <ele>646</ele>
        <time>2025-06-08T08:53:12.479Z</time>
      </trkpt>
      <trkpt lat="45.38965" lon="2.48281">
        <ele>646</ele>
        <time>2025-06-08T08:53:13.479Z</time>
      </trkpt>
      <trkpt lat="45.38965" lon="2.48281">
        <ele>646</ele>
        <time>2025-06-08T08:53:14.479Z</time>
      </trkpt>
      <trkpt lat="45.38965" lon="2.4828">
        <ele>646</ele>
        <time>2025-06-08T08:53:15.479Z</time>
      </trkpt>
      <trkpt lat="45.38965" lon="2.4828">
        <ele>647</ele>
        <time>2025-06-08T08:53:16.479Z</time>
      </trkpt>
      <trkpt lat="45.38965" lon="2.48279">
        <ele>647</ele>
        <time>2025-06-08T08:53:17.479Z</time>
      </trkpt>
      <trkpt lat="45.38964" lon="2.48279">
        <ele>647</ele>
        <time>2025-06-08T08:53:18.479Z</time>
      </trkpt>
      <trkpt lat="45.38964" lon="2.48278">
        <ele>646</ele>
        <time>2025-06-08T08:53:19.479Z</time>
      </trkpt>
      <trkpt lat="45.38964" lon="2.48277">
        <ele>646</ele>
        <time>2025-06-08T08:53:20.479Z</time>
      </trkpt>
      <trkpt lat="45.38964" lon="2.48276">
        <ele>646</ele>
        <time>2025-06-08T08:53:21.479Z</time>
      </trkpt>
      <trkpt lat="45.38963" lon="2.48275">
        <ele>646</ele>
        <time>2025-06-08T08:53:22.479Z</time>
      </trkpt>
      <trkpt lat="45.38963" lon="2.48273">
        <ele>645</ele>
        <time>2025-06-08T08:53:23.479Z</time>
      </trkpt>
      <trkpt lat="45.38962" lon="2.48272">
        <ele>645</ele>
        <time>2025-06-08T08:53:24.479Z</time>
      </trkpt>
      <trkpt lat="45.38962" lon="2.48271">
        <ele>645</ele>
        <time>2025-06-08T08:53:25.479Z</time>
      </trkpt>
      <trkpt lat="45.38962" lon="2.48269">
        <ele>644</ele>
        <time>2025-06-08T08:53:26.479Z</time>
      </trkpt>
      <trkpt lat="45.38961" lon="2.48269">
        <ele>644</ele>
        <time>2025-06-08T08:53:27.479Z</time>
      </trkpt>
      <trkpt lat="45.38961" lon="2.48267">
        <ele>644</ele>
        <time>2025-06-08T08:53:28.479Z</time>
      </trkpt>
      <trkpt lat="45.3896" lon="2.48265">
        <ele>644</ele>
        <time>2025-06-08T08:53:29.479Z</time>
      </trkpt>
      <trkpt lat="45.38959" lon="2.48264">
        <ele>643</ele>
        <time>2025-06-08T08:53:30.479Z</time>
      </trkpt>
      <trkpt lat="45.38959" lon="2.48262">
        <ele>643</ele>
        <time>2025-06-08T08:53:31.479Z</time>
      </trkpt>
      <trkpt lat="45.38958" lon="2.48259">
        <ele>643</ele>
        <time>2025-06-08T08:53:32.479Z</time>
      </trkpt>
      <trkpt lat="45.38958" lon="2.48257">
        <ele>643</ele>
        <time>2025-06-08T08:53:33.479Z</time>
      </trkpt>
      <trkpt lat="45.38958" lon="2.48255">
        <ele>642</ele>
        <time>2025-06-08T08:53:34.479Z</time>
      </trkpt>
      <trkpt lat="45.38958" lon="2.48254">
        <ele>642</ele>
        <time>2025-06-08T08:53:35.479Z</time>
      </trkpt>
      <trkpt lat="45.38958" lon="2.48254">
        <ele>642</ele>
        <time>2025-06-08T08:53:36.479Z</time>
      </trkpt>
      <trkpt lat="45.38958" lon="2.48253">
        <ele>642</ele>
        <time>2025-06-08T08:53:37.479Z</time>
      </trkpt>
      <trkpt lat="45.38957" lon="2.4825">
        <ele>642</ele>
        <time>2025-06-08T08:53:38.479Z</time>
      </trkpt>
      <trkpt lat="45.38957" lon="2.48247">
        <ele>642</ele>
        <time>2025-06-08T08:53:39.479Z</time>
      </trkpt>
      <trkpt lat="45.38956" lon="2.48245">
        <ele>642</ele>
        <time>2025-06-08T08:53:40.479Z</time>
      </trkpt>
      <trkpt lat="45.38956" lon="2.48242">
        <ele>642</ele>
        <time>2025-06-08T08:53:41.479Z</time>
      </trkpt>
      <trkpt lat="45.38956" lon="2.48241">
        <ele>642</ele>
        <time>2025-06-08T08:53:42.479Z</time>
      </trkpt>
      <trkpt lat="45.38956" lon="2.4824">
        <ele>642</ele>
        <time>2025-06-08T08:53:43.479Z</time>
      </trkpt>
      <trkpt lat="45.38955" lon="2.48238">
        <ele>642</ele>
        <time>2025-06-08T08:53:44.479Z</time>
      </trkpt>
      <trkpt lat="45.38956" lon="2.48237">
        <ele>642</ele>
        <time>2025-06-08T08:53:45.479Z</time>
      </trkpt>
      <trkpt lat="45.38956" lon="2.48236">
        <ele>642</ele>
        <time>2025-06-08T08:53:46.479Z</time>
      </trkpt>
      <trkpt lat="45.38956" lon="2.48234">
        <ele>641</ele>
        <time>2025-06-08T08:53:47.479Z</time>
      </trkpt>
      <trkpt lat="45.38955" lon="2.48232">
        <ele>641</ele>
        <time>2025-06-08T08:53:48.479Z</time>
      </trkpt>
      <trkpt lat="45.38954" lon="2.48231">
        <ele>641</ele>
        <time>2025-06-08T08:53:49.479Z</time>
      </trkpt>
      <trkpt lat="45.38954" lon="2.48229">
        <ele>641</ele>
        <time>2025-06-08T08:53:50.479Z</time>
      </trkpt>
      <trkpt lat="45.38953" lon="2.48227">
        <ele>641</ele>
        <time>2025-06-08T08:53:51.479Z</time>
      </trkpt>
      <trkpt lat="45.38952" lon="2.48224">
        <ele>641</ele>
        <time>2025-06-08T08:53:52.479Z</time>
      </trkpt>
      <trkpt lat="45.38951" lon="2.48222">
        <ele>641</ele>
        <time>2025-06-08T08:53:53.479Z</time>
      </trkpt>
      <trkpt lat="45.3895" lon="2.48219">
        <ele>641</ele>
        <time>2025-06-08T08:53:54.479Z</time>
      </trkpt>
      <trkpt lat="45.3895" lon="2.48218">
        <ele>642</ele>
        <time>2025-06-08T08:53:55.479Z</time>
      </trkpt>
      <trkpt lat="45.3895" lon="2.48217">
        <ele>642</ele>
        <time>2025-06-08T08:53:56.479Z</time>
      </trkpt>
      <trkpt lat="45.38949" lon="2.48216">
        <ele>642</ele>
        <time>2025-06-08T08:53:57.479Z</time>
      </trkpt>
      <trkpt lat="45.38948" lon="2.48215">
        <ele>643</ele>
        <time>2025-06-08T08:53:58.479Z</time>
      </trkpt>
      <trkpt lat="45.38947" lon="2.48213">
        <ele>643</ele>
        <time>2025-06-08T08:53:59.479Z</time>
      </trkpt>
      <trkpt lat="45.38947" lon="2.48211">
        <ele>644</ele>
        <time>2025-06-08T08:54:00.479Z</time>
      </trkpt>
      <trkpt lat="45.38946" lon="2.48209">
        <ele>644</ele>
        <time>2025-06-08T08:54:01.479Z</time>
      </trkpt>
      <trkpt lat="45.38945" lon="2.48207">
        <ele>644</ele>
        <time>2025-06-08T08:54:02.479Z</time>
      </trkpt>
      <trkpt lat="45.38944" lon="2.48205">
        <ele>644</ele>
        <time>2025-06-08T08:54:03.479Z</time>
      </trkpt>
      <trkpt lat="45.38942" lon="2.48204">
        <ele>645</ele>
        <time>2025-06-08T08:54:04.479Z</time>
      </trkpt>
      <trkpt lat="45.38941" lon="2.48203">
        <ele>645</ele>
        <time>2025-06-08T08:54:05.479Z</time>
      </trkpt>
      <trkpt lat="45.3894" lon="2.48202">
        <ele>645</ele>
        <time>2025-06-08T08:54:06.479Z</time>
      </trkpt>
      <trkpt lat="45.38939" lon="2.48202">
        <ele>645</ele>
        <time>2025-06-08T08:54:07.479Z</time>
      </trkpt>
      <trkpt lat="45.38938" lon="2.48201">
        <ele>646</ele>
        <time>2025-06-08T08:54:08.479Z</time>
      </trkpt>
      <trkpt lat="45.38938" lon="2.482">
        <ele>646</ele>
        <time>2025-06-08T08:54:09.479Z</time>
      </trkpt>
      <trkpt lat="45.38936" lon="2.482">
        <ele>646</ele>
        <time>2025-06-08T08:54:10.479Z</time>
      </trkpt>
      <trkpt lat="45.38934" lon="2.48201">
        <ele>646</ele>
        <time>2025-06-08T08:54:11.479Z</time>
      </trkpt>
      <trkpt lat="45.38932" lon="2.48199">
        <ele>647</ele>
        <time>2025-06-08T08:54:12.479Z</time>
      </trkpt>
      <trkpt lat="45.38931" lon="2.48198">
        <ele>647</ele>
        <time>2025-06-08T08:54:13.479Z</time>
      </trkpt>
      <trkpt lat="45.38931" lon="2.48196">
        <ele>647</ele>
        <time>2025-06-08T08:54:14.479Z</time>
      </trkpt>
      <trkpt lat="45.3893" lon="2.48193">
        <ele>647</ele>
        <time>2025-06-08T08:54:15.479Z</time>
      </trkpt>
      <trkpt lat="45.3893" lon="2.48193">
        <ele>647</ele>
        <time>2025-06-08T08:54:16.479Z</time>
      </trkpt>
      <trkpt lat="45.3893" lon="2.48193">
        <ele>647</ele>
        <time>2025-06-08T08:54:17.479Z</time>
      </trkpt>
      <trkpt lat="45.38931" lon="2.4819">
        <ele>647</ele>
        <time>2025-06-08T08:54:18.479Z</time>
      </trkpt>
      <trkpt lat="45.3893" lon="2.48189">
        <ele>647</ele>
        <time>2025-06-08T08:54:19.479Z</time>
      </trkpt>
      <trkpt lat="45.3893" lon="2.48188">
        <ele>647</ele>
        <time>2025-06-08T08:54:20.479Z</time>
      </trkpt>
      <trkpt lat="45.3893" lon="2.48187">
        <ele>647</ele>
        <time>2025-06-08T08:54:21.479Z</time>
      </trkpt>
      <trkpt lat="45.3893" lon="2.48186">
        <ele>646</ele>
        <time>2025-06-08T08:54:22.479Z</time>
      </trkpt>
      <trkpt lat="45.38929" lon="2.48185">
        <ele>646</ele>
        <time>2025-06-08T08:54:23.479Z</time>
      </trkpt>
      <trkpt lat="45.38928" lon="2.48184">
        <ele>646</ele>
        <time>2025-06-08T08:54:24.479Z</time>
      </trkpt>
      <trkpt lat="45.38928" lon="2.48183">
        <ele>645</ele>
        <time>2025-06-08T08:54:25.479Z</time>
      </trkpt>
      <trkpt lat="45.38928" lon="2.48183">
        <ele>645</ele>
        <time>2025-06-08T08:54:26.479Z</time>
      </trkpt>
      <trkpt lat="45.38928" lon="2.48182">
        <ele>645</ele>
        <time>2025-06-08T08:54:27.479Z</time>
      </trkpt>
      <trkpt lat="45.38927" lon="2.48181">
        <ele>645</ele>
        <time>2025-06-08T08:54:28.479Z</time>
      </trkpt>
      <trkpt lat="45.38927" lon="2.48181">
        <ele>645</ele>
        <time>2025-06-08T08:54:29.479Z</time>
      </trkpt>
      <trkpt lat="45.38926" lon="2.4818">
        <ele>645</ele>
        <time>2025-06-08T08:54:30.479Z</time>
      </trkpt>
      <trkpt lat="45.38925" lon="2.4818">
        <ele>645</ele>
        <time>2025-06-08T08:54:31.479Z</time>
      </trkpt>
      <trkpt lat="45.38924" lon="2.48179">
        <ele>645</ele>
        <time>2025-06-08T08:54:32.479Z</time>
      </trkpt>
      <trkpt lat="45.38924" lon="2.48178">
        <ele>645</ele>
        <time>2025-06-08T08:54:33.479Z</time>
      </trkpt>
      <trkpt lat="45.38923" lon="2.48177">
        <ele>645</ele>
        <time>2025-06-08T08:54:34.479Z</time>
      </trkpt>
      <trkpt lat="45.38922" lon="2.48176">
        <ele>646</ele>
        <time>2025-06-08T08:54:35.479Z</time>
      </trkpt>
      <trkpt lat="45.38922" lon="2.48174">
        <ele>647</ele>
        <time>2025-06-08T08:54:36.479Z</time>
      </trkpt>
      <trkpt lat="45.38922" lon="2.48173">
        <ele>648</ele>
        <time>2025-06-08T08:54:37.479Z</time>
      </trkpt>
      <trkpt lat="45.38921" lon="2.48171">
        <ele>648</ele>
        <time>2025-06-08T08:54:38.479Z</time>
      </trkpt>
      <trkpt lat="45.3892" lon="2.4817">
        <ele>649</ele>
        <time>2025-06-08T08:54:39.479Z</time>
      </trkpt>
      <trkpt lat="45.3892" lon="2.48168">
        <ele>649</ele>
        <time>2025-06-08T08:54:40.479Z</time>
      </trkpt>
      <trkpt lat="45.3892" lon="2.48166">
        <ele>649</ele>
        <time>2025-06-08T08:54:41.479Z</time>
      </trkpt>
      <trkpt lat="45.3892" lon="2.48165">
        <ele>649</ele>
        <time>2025-06-08T08:54:42.479Z</time>
      </trkpt>
      <trkpt lat="45.3892" lon="2.48162">
        <ele>650</ele>
        <time>2025-06-08T08:54:43.479Z</time>
      </trkpt>
      <trkpt lat="45.38919" lon="2.48161">
        <ele>650</ele>
        <time>2025-06-08T08:54:44.479Z</time>
      </trkpt>
      <trkpt lat="45.38918" lon="2.4816">
        <ele>650</ele>
        <time>2025-06-08T08:54:45.479Z</time>
      </trkpt>
      <trkpt lat="45.38918" lon="2.48158">
        <ele>650</ele>
        <time>2025-06-08T08:54:46.479Z</time>
      </trkpt>
      <trkpt lat="45.38917" lon="2.48157">
        <ele>650</ele>
        <time>2025-06-08T08:54:47.479Z</time>
      </trkpt>
      <trkpt lat="45.38917" lon="2.48156">
        <ele>650</ele>
        <time>2025-06-08T08:54:48.479Z</time>
      </trkpt>
      <trkpt lat="45.38916" lon="2.48154">
        <ele>650</ele>
        <time>2025-06-08T08:54:49.479Z</time>
      </trkpt>
      <trkpt lat="45.38916" lon="2.48153">
        <ele>650</ele>
        <time>2025-06-08T08:54:50.479Z</time>
      </trkpt>
      <trkpt lat="45.38915" lon="2.48152">
        <ele>650</ele>
        <time>2025-06-08T08:54:51.479Z</time>
      </trkpt>
      <trkpt lat="45.38914" lon="2.4815">
        <ele>650</ele>
        <time>2025-06-08T08:54:52.479Z</time>
      </trkpt>
      <trkpt lat="45.38913" lon="2.4815">
        <ele>650</ele>
        <time>2025-06-08T08:54:53.479Z</time>
      </trkpt>
      <trkpt lat="45.38912" lon="2.48149">
        <ele>651</ele>
        <time>2025-06-08T08:54:54.479Z</time>
      </trkpt>
      <trkpt lat="45.38912" lon="2.48148">
        <ele>651</ele>
        <time>2025-06-08T08:54:55.479Z</time>
      </trkpt>
      <trkpt lat="45.38912" lon="2.48147">
        <ele>651</ele>
        <time>2025-06-08T08:54:56.479Z</time>
      </trkpt>
      <trkpt lat="45.38911" lon="2.48145">
        <ele>651</ele>
        <time>2025-06-08T08:54:57.479Z</time>
      </trkpt>
      <trkpt lat="45.38911" lon="2.48143">
        <ele>651</ele>
        <time>2025-06-08T08:54:58.479Z</time>
      </trkpt>
      <trkpt lat="45.38911" lon="2.48143">
        <ele>652</ele>
        <time>2025-06-08T08:54:59.479Z</time>
      </trkpt>
      <trkpt lat="45.3891" lon="2.48142">
        <ele>653</ele>
        <time>2025-06-08T08:55:00.479Z</time>
      </trkpt>
      <trkpt lat="45.3891" lon="2.48141">
        <ele>653</ele>
        <time>2025-06-08T08:55:01.479Z</time>
      </trkpt>
      <trkpt lat="45.3891" lon="2.48141">
        <ele>654</ele>
        <time>2025-06-08T08:55:02.479Z</time>
      </trkpt>
      <trkpt lat="45.3891" lon="2.4814">
        <ele>654</ele>
        <time>2025-06-08T08:55:03.479Z</time>
      </trkpt>
      <trkpt lat="45.38909" lon="2.48138">
        <ele>655</ele>
        <time>2025-06-08T08:55:04.479Z</time>
      </trkpt>
      <trkpt lat="45.38909" lon="2.48137">
        <ele>655</ele>
        <time>2025-06-08T08:55:05.479Z</time>
      </trkpt>
      <trkpt lat="45.38908" lon="2.48136">
        <ele>655</ele>
        <time>2025-06-08T08:55:06.479Z</time>
      </trkpt>
      <trkpt lat="45.38908" lon="2.48135">
        <ele>656</ele>
        <time>2025-06-08T08:55:07.479Z</time>
      </trkpt>
      <trkpt lat="45.38907" lon="2.48133">
        <ele>657</ele>
        <time>2025-06-08T08:55:08.479Z</time>
      </trkpt>
      <trkpt lat="45.38907" lon="2.48132">
        <ele>657</ele>
        <time>2025-06-08T08:55:09.479Z</time>
      </trkpt>
      <trkpt lat="45.38907" lon="2.4813">
        <ele>657</ele>
        <time>2025-06-08T08:55:10.479Z</time>
      </trkpt>
      <trkpt lat="45.38907" lon="2.48128">
        <ele>658</ele>
        <time>2025-06-08T08:55:11.479Z</time>
      </trkpt>
      <trkpt lat="45.38906" lon="2.48126">
        <ele>658</ele>
        <time>2025-06-08T08:55:12.479Z</time>
      </trkpt>
      <trkpt lat="45.38906" lon="2.48125">
        <ele>658</ele>
        <time>2025-06-08T08:55:13.479Z</time>
      </trkpt>
      <trkpt lat="45.38906" lon="2.48124">
        <ele>658</ele>
        <time>2025-06-08T08:55:14.479Z</time>
      </trkpt>
      <trkpt lat="45.38906" lon="2.48123">
        <ele>658</ele>
        <time>2025-06-08T08:55:15.479Z</time>
      </trkpt>
      <trkpt lat="45.38905" lon="2.48122">
        <ele>658</ele>
        <time>2025-06-08T08:55:16.479Z</time>
      </trkpt>
      <trkpt lat="45.38905" lon="2.48121">
        <ele>658</ele>
        <time>2025-06-08T08:55:17.479Z</time>
      </trkpt>
      <trkpt lat="45.38905" lon="2.4812">
        <ele>658</ele>
        <time>2025-06-08T08:55:18.479Z</time>
      </trkpt>
      <trkpt lat="45.38904" lon="2.48119">
        <ele>657</ele>
        <time>2025-06-08T08:55:19.479Z</time>
      </trkpt>
      <trkpt lat="45.38903" lon="2.48118">
        <ele>657</ele>
        <time>2025-06-08T08:55:20.479Z</time>
      </trkpt>
      <trkpt lat="45.38903" lon="2.48117">
        <ele>657</ele>
        <time>2025-06-08T08:55:21.479Z</time>
      </trkpt>
      <trkpt lat="45.38902" lon="2.48116">
        <ele>656</ele>
        <time>2025-06-08T08:55:22.479Z</time>
      </trkpt>
      <trkpt lat="45.38902" lon="2.48115">
        <ele>656</ele>
        <time>2025-06-08T08:55:23.479Z</time>
      </trkpt>
      <trkpt lat="45.38901" lon="2.48114">
        <ele>656</ele>
        <time>2025-06-08T08:55:24.479Z</time>
      </trkpt>
      <trkpt lat="45.38901" lon="2.48112">
        <ele>656</ele>
        <time>2025-06-08T08:55:25.479Z</time>
      </trkpt>
      <trkpt lat="45.389" lon="2.48111">
        <ele>655</ele>
        <time>2025-06-08T08:55:26.479Z</time>
      </trkpt>
      <trkpt lat="45.389" lon="2.48109">
        <ele>655</ele>
        <time>2025-06-08T08:55:27.479Z</time>
      </trkpt>
      <trkpt lat="45.38899" lon="2.48109">
        <ele>654</ele>
        <time>2025-06-08T08:55:28.479Z</time>
      </trkpt>
      <trkpt lat="45.38899" lon="2.48108">
        <ele>654</ele>
        <time>2025-06-08T08:55:29.479Z</time>
      </trkpt>
      <trkpt lat="45.38898" lon="2.48107">
        <ele>654</ele>
        <time>2025-06-08T08:55:30.479Z</time>
      </trkpt>
      <trkpt lat="45.38898" lon="2.48105">
        <ele>653</ele>
        <time>2025-06-08T08:55:31.479Z</time>
      </trkpt>
      <trkpt lat="45.38898" lon="2.48105">
        <ele>653</ele>
        <time>2025-06-08T08:55:32.479Z</time>
      </trkpt>
      <trkpt lat="45.38897" lon="2.48104">
        <ele>653</ele>
        <time>2025-06-08T08:55:33.479Z</time>
      </trkpt>
      <trkpt lat="45.38897" lon="2.48103">
        <ele>653</ele>
        <time>2025-06-08T08:55:34.479Z</time>
      </trkpt>
      <trkpt lat="45.38897" lon="2.48102">
        <ele>652</ele>
        <time>2025-06-08T08:55:35.479Z</time>
      </trkpt>
      <trkpt lat="45.38897" lon="2.48102">
        <ele>652</ele>
        <time>2025-06-08T08:55:36.479Z</time>
      </trkpt>
      <trkpt lat="45.38896" lon="2.48101">
        <ele>652</ele>
        <time>2025-06-08T08:55:37.479Z</time>
      </trkpt>
      <trkpt lat="45.38895" lon="2.48101">
        <ele>652</ele>
        <time>2025-06-08T08:55:38.479Z</time>
      </trkpt>
      <trkpt lat="45.38895" lon="2.481">
        <ele>651</ele>
        <time>2025-06-08T08:55:39.479Z</time>
      </trkpt>
      <trkpt lat="45.38894" lon="2.48099">
        <ele>651</ele>
        <time>2025-06-08T08:55:40.479Z</time>
      </trkpt>
      <trkpt lat="45.38894" lon="2.48098">
        <ele>651</ele>
        <time>2025-06-08T08:55:41.479Z</time>
      </trkpt>
      <trkpt lat="45.38894" lon="2.48096">
        <ele>651</ele>
        <time>2025-06-08T08:55:42.479Z</time>
      </trkpt>
      <trkpt lat="45.38894" lon="2.48096">
        <ele>651</ele>
        <time>2025-06-08T08:55:43.479Z</time>
      </trkpt>
      <trkpt lat="45.38893" lon="2.48094">
        <ele>651</ele>
        <time>2025-06-08T08:55:44.479Z</time>
      </trkpt>
      <trkpt lat="45.38893" lon="2.48092">
        <ele>651</ele>
        <time>2025-06-08T08:55:45.479Z</time>
      </trkpt>
      <trkpt lat="45.38893" lon="2.48089">
        <ele>652</ele>
        <time>2025-06-08T08:55:46.479Z</time>
      </trkpt>
      <trkpt lat="45.38892" lon="2.48089">
        <ele>652</ele>
        <time>2025-06-08T08:55:47.479Z</time>
      </trkpt>
      <trkpt lat="45.38892" lon="2.48088">
        <ele>652</ele>
        <time>2025-06-08T08:55:48.479Z</time>
      </trkpt>
      <trkpt lat="45.38891" lon="2.48088">
        <ele>653</ele>
        <time>2025-06-08T08:55:49.479Z</time>
      </trkpt>
      <trkpt lat="45.38891" lon="2.48088">
        <ele>653</ele>
        <time>2025-06-08T08:55:50.479Z</time>
      </trkpt>
      <trkpt lat="45.3889" lon="2.48087">
        <ele>653</ele>
        <time>2025-06-08T08:55:51.479Z</time>
      </trkpt>
      <trkpt lat="45.3889" lon="2.48087">
        <ele>653</ele>
        <time>2025-06-08T08:55:52.479Z</time>
      </trkpt>
      <trkpt lat="45.3889" lon="2.48088">
        <ele>653</ele>
        <time>2025-06-08T08:55:53.479Z</time>
      </trkpt>
      <trkpt lat="45.3889" lon="2.48087">
        <ele>653</ele>
        <time>2025-06-08T08:55:54.479Z</time>
      </trkpt>
      <trkpt lat="45.38889" lon="2.48086">
        <ele>653</ele>
        <time>2025-06-08T08:55:55.479Z</time>
      </trkpt>
      <trkpt lat="45.38888" lon="2.48085">
        <ele>653</ele>
        <time>2025-06-08T08:55:56.479Z</time>
      </trkpt>
      <trkpt lat="45.38888" lon="2.48083">
        <ele>653</ele>
        <time>2025-06-08T08:55:57.479Z</time>
      </trkpt>
      <trkpt lat="45.38888" lon="2.48083">
        <ele>653</ele>
        <time>2025-06-08T08:55:58.479Z</time>
      </trkpt>
      <trkpt lat="45.38887" lon="2.48082">
        <ele>654</ele>
        <time>2025-06-08T08:55:59.479Z</time>
      </trkpt>
      <trkpt lat="45.38887" lon="2.48081">
        <ele>654</ele>
        <time>2025-06-08T08:56:00.479Z</time>
      </trkpt>
      <trkpt lat="45.38887" lon="2.48079">
        <ele>654</ele>
        <time>2025-06-08T08:56:01.479Z</time>
      </trkpt>
      <trkpt lat="45.38887" lon="2.48078">
        <ele>655</ele>
        <time>2025-06-08T08:56:02.479Z</time>
      </trkpt>
      <trkpt lat="45.38886" lon="2.48077">
        <ele>655</ele>
        <time>2025-06-08T08:56:03.479Z</time>
      </trkpt>
      <trkpt lat="45.38885" lon="2.48075">
        <ele>656</ele>
        <time>2025-06-08T08:56:04.479Z</time>
      </trkpt>
      <trkpt lat="45.38885" lon="2.48073">
        <ele>656</ele>
        <time>2025-06-08T08:56:05.479Z</time>
      </trkpt>
      <trkpt lat="45.38884" lon="2.48072">
        <ele>656</ele>
        <time>2025-06-08T08:56:06.479Z</time>
      </trkpt>
      <trkpt lat="45.38884" lon="2.4807">
        <ele>656</ele>
        <time>2025-06-08T08:56:07.479Z</time>
      </trkpt>
      <trkpt lat="45.38884" lon="2.48069">
        <ele>656</ele>
        <time>2025-06-08T08:56:08.479Z</time>
      </trkpt>
      <trkpt lat="45.38883" lon="2.48068">
        <ele>657</ele>
        <time>2025-06-08T08:56:09.479Z</time>
      </trkpt>
      <trkpt lat="45.38883" lon="2.48068">
        <ele>657</ele>
        <time>2025-06-08T08:56:10.479Z</time>
      </trkpt>
      <trkpt lat="45.38883" lon="2.48067">
        <ele>658</ele>
        <time>2025-06-08T08:56:11.479Z</time>
      </trkpt>
      <trkpt lat="45.38884" lon="2.48067">
        <ele>658</ele>
        <time>2025-06-08T08:56:12.479Z</time>
      </trkpt>
      <trkpt lat="45.38884" lon="2.48068">
        <ele>659</ele>
        <time>2025-06-08T08:56:13.479Z</time>
      </trkpt>
      <trkpt lat="45.38884" lon="2.48068">
        <ele>660</ele>
        <time>2025-06-08T08:56:14.479Z</time>
      </trkpt>
      <trkpt lat="45.38884" lon="2.48068">
        <ele>661</ele>
        <time>2025-06-08T08:56:15.479Z</time>
      </trkpt>
      <trkpt lat="45.38884" lon="2.48068">
        <ele>661</ele>
        <time>2025-06-08T08:56:16.479Z</time>
      </trkpt>
      <trkpt lat="45.38884" lon="2.48068">
        <ele>662</ele>
        <time>2025-06-08T08:56:17.479Z</time>
      </trkpt>
      <trkpt lat="45.38884" lon="2.48068">
        <ele>662</ele>
        <time>2025-06-08T08:56:18.479Z</time>
      </trkpt>
      <trkpt lat="45.38884" lon="2.48068">
        <ele>662</ele>
        <time>2025-06-08T08:56:19.479Z</time>
      </trkpt>
      <trkpt lat="45.38884" lon="2.48068">
        <ele>662</ele>
        <time>2025-06-08T08:56:20.479Z</time>
      </trkpt>
      <trkpt lat="45.38884" lon="2.48068">
        <ele>663</ele>
        <time>2025-06-08T08:56:21.479Z</time>
      </trkpt>
      <trkpt lat="45.38884" lon="2.48068">
        <ele>663</ele>
        <time>2025-06-08T08:56:22.479Z</time>
      </trkpt>
      <trkpt lat="45.38884" lon="2.48068">
        <ele>663</ele>
        <time>2025-06-08T08:56:23.479Z</time>
      </trkpt>
      <trkpt lat="45.38884" lon="2.48068">
        <ele>664</ele>
        <time>2025-06-08T08:56:24.479Z</time>
      </trkpt>
      <trkpt lat="45.38884" lon="2.48067">
        <ele>664</ele>
        <time>2025-06-08T08:56:25.479Z</time>
      </trkpt>
      <trkpt lat="45.38883" lon="2.48067">
        <ele>664</ele>
        <time>2025-06-08T08:56:26.479Z</time>
      </trkpt>
      <trkpt lat="45.38883" lon="2.48067">
        <ele>665</ele>
        <time>2025-06-08T08:56:27.479Z</time>
      </trkpt>
      <trkpt lat="45.38883" lon="2.48067">
        <ele>665</ele>
        <time>2025-06-08T08:56:28.479Z</time>
      </trkpt>
      <trkpt lat="45.38883" lon="2.48067">
        <ele>665</ele>
        <time>2025-06-08T08:56:29.479Z</time>
      </trkpt>
      <trkpt lat="45.38883" lon="2.48067">
        <ele>665</ele>
        <time>2025-06-08T08:56:30.479Z</time>
      </trkpt>
      <trkpt lat="45.38883" lon="2.48067">
        <ele>666</ele>
        <time>2025-06-08T08:56:31.479Z</time>
      </trkpt>
      <trkpt lat="45.38883" lon="2.48067">
        <ele>666</ele>
        <time>2025-06-08T08:56:32.479Z</time>
      </trkpt>
      <trkpt lat="45.38883" lon="2.48067">
        <ele>666</ele>
        <time>2025-06-08T08:56:33.479Z</time>
      </trkpt>
      <trkpt lat="45.38884" lon="2.48067">
        <ele>666</ele>
        <time>2025-06-08T08:56:34.479Z</time>
      </trkpt>
      <trkpt lat="45.38884" lon="2.48067">
        <ele>666</ele>
        <time>2025-06-08T08:56:35.479Z</time>
      </trkpt>
      <trkpt lat="45.38884" lon="2.48066">
        <ele>666</ele>
        <time>2025-06-08T08:56:36.479Z</time>
      </trkpt>
      <trkpt lat="45.38884" lon="2.48066">
        <ele>666</ele>
        <time>2025-06-08T08:56:37.479Z</time>
      </trkpt>
      <trkpt lat="45.38884" lon="2.48066">
        <ele>666</ele>
        <time>2025-06-08T08:56:38.479Z</time>
      </trkpt>
      <trkpt lat="45.38883" lon="2.48066">
        <ele>665</ele>
        <time>2025-06-08T08:56:39.479Z</time>
      </trkpt>
      <trkpt lat="45.38883" lon="2.48066">
        <ele>665</ele>
        <time>2025-06-08T08:56:40.479Z</time>
      </trkpt>
      <trkpt lat="45.38883" lon="2.48066">
        <ele>664</ele>
        <time>2025-06-08T08:56:41.479Z</time>
      </trkpt>
      <trkpt lat="45.38883" lon="2.48066">
        <ele>664</ele>
        <time>2025-06-08T08:56:42.479Z</time>
      </trkpt>
      <trkpt lat="45.38883" lon="2.48066">
        <ele>664</ele>
        <time>2025-06-08T08:56:43.479Z</time>
      </trkpt>
      <trkpt lat="45.38883" lon="2.48066">
        <ele>663</ele>
        <time>2025-06-08T08:56:44.479Z</time>
      </trkpt>
      <trkpt lat="45.38883" lon="2.48066">
        <ele>663</ele>
        <time>2025-06-08T08:56:45.479Z</time>
      </trkpt>
      <trkpt lat="45.38883" lon="2.48066">
        <ele>663</ele>
        <time>2025-06-08T08:56:46.479Z</time>
      </trkpt>
      <trkpt lat="45.38883" lon="2.48066">
        <ele>663</ele>
        <time>2025-06-08T08:56:47.479Z</time>
      </trkpt>
      <trkpt lat="45.38883" lon="2.48066">
        <ele>663</ele>
        <time>2025-06-08T08:56:48.479Z</time>
      </trkpt>
      <trkpt lat="45.38883" lon="2.48066">
        <ele>663</ele>
        <time>2025-06-08T08:56:49.479Z</time>
      </trkpt>
      <trkpt lat="45.38883" lon="2.48066">
        <ele>663</ele>
        <time>2025-06-08T08:56:50.479Z</time>
      </trkpt>
      <trkpt lat="45.38883" lon="2.48066">
        <ele>663</ele>
        <time>2025-06-08T08:56:51.479Z</time>
      </trkpt>
      <trkpt lat="45.38883" lon="2.48066">
        <ele>663</ele>
        <time>2025-06-08T08:56:52.479Z</time>
      </trkpt>
      <trkpt lat="45.38883" lon="2.48066">
        <ele>663</ele>
        <time>2025-06-08T08:56:53.479Z</time>
      </trkpt>
      <trkpt lat="45.38883" lon="2.48066">
        <ele>663</ele>
        <time>2025-06-08T08:56:54.479Z</time>
      </trkpt>
      <trkpt lat="45.38883" lon="2.48066">
        <ele>662</ele>
        <time>2025-06-08T08:56:55.479Z</time>
      </trkpt>
      <trkpt lat="45.38883" lon="2.48065">
        <ele>662</ele>
        <time>2025-06-08T08:56:56.479Z</time>
      </trkpt>
      <trkpt lat="45.38883" lon="2.48065">
        <ele>662</ele>
        <time>2025-06-08T08:56:57.479Z</time>
      </trkpt>
      <trkpt lat="45.38883" lon="2.48064">
        <ele>662</ele>
        <time>2025-06-08T08:56:58.479Z</time>
      </trkpt>
      <trkpt lat="45.38883" lon="2.48064">
        <ele>662</ele>
        <time>2025-06-08T08:56:59.479Z</time>
      </trkpt>
      <trkpt lat="45.38883" lon="2.48064">
        <ele>663</ele>
        <time>2025-06-08T08:57:00.479Z</time>
      </trkpt>
      <trkpt lat="45.38883" lon="2.48064">
        <ele>664</ele>
        <time>2025-06-08T08:57:01.479Z</time>
      </trkpt>
      <trkpt lat="45.38883" lon="2.48064">
        <ele>665</ele>
        <time>2025-06-08T08:57:02.479Z</time>
      </trkpt>
      <trkpt lat="45.38883" lon="2.48065">
        <ele>666</ele>
        <time>2025-06-08T08:57:03.479Z</time>
      </trkpt>
      <trkpt lat="45.38883" lon="2.48065">
        <ele>667</ele>
        <time>2025-06-08T08:57:04.479Z</time>
      </trkpt>
      <trkpt lat="45.38883" lon="2.48065">
        <ele>667</ele>
        <time>2025-06-08T08:57:05.479Z</time>
      </trkpt>
      <trkpt lat="45.38883" lon="2.48065">
        <ele>667</ele>
        <time>2025-06-08T08:57:06.479Z</time>
      </trkpt>
      <trkpt lat="45.38883" lon="2.48065">
        <ele>667</ele>
        <time>2025-06-08T08:57:07.479Z</time>
      </trkpt>
      <trkpt lat="45.38883" lon="2.48065">
        <ele>668</ele>
        <time>2025-06-08T08:57:08.479Z</time>
      </trkpt>
      <trkpt lat="45.38883" lon="2.48065">
        <ele>669</ele>
        <time>2025-06-08T08:57:09.479Z</time>
      </trkpt>
      <trkpt lat="45.38883" lon="2.48065">
        <ele>669</ele>
        <time>2025-06-08T08:57:10.479Z</time>
      </trkpt>
      <trkpt lat="45.38883" lon="2.48065">
        <ele>670</ele>
        <time>2025-06-08T08:57:11.479Z</time>
      </trkpt>
      <trkpt lat="45.38883" lon="2.48065">
        <ele>670</ele>
        <time>2025-06-08T08:57:12.479Z</time>
      </trkpt>
      <trkpt lat="45.38883" lon="2.48065">
        <ele>670</ele>
        <time>2025-06-08T08:57:13.479Z</time>
      </trkpt>
      <trkpt lat="45.38884" lon="2.48065">
        <ele>670</ele>
        <time>2025-06-08T08:57:14.479Z</time>
      </trkpt>
      <trkpt lat="45.38883" lon="2.48065">
        <ele>671</ele>
        <time>2025-06-08T08:57:15.479Z</time>
      </trkpt>
      <trkpt lat="45.38884" lon="2.48065">
        <ele>671</ele>
        <time>2025-06-08T08:57:16.479Z</time>
      </trkpt>
      <trkpt lat="45.38883" lon="2.48065">
        <ele>672</ele>
        <time>2025-06-08T08:57:17.479Z</time>
      </trkpt>
      <trkpt lat="45.38883" lon="2.48065">
        <ele>672</ele>
        <time>2025-06-08T08:57:18.479Z</time>
      </trkpt>
      <trkpt lat="45.38883" lon="2.48065">
        <ele>672</ele>
        <time>2025-06-08T08:57:19.479Z</time>
      </trkpt>
      <trkpt lat="45.38883" lon="2.48065">
        <ele>672</ele>
        <time>2025-06-08T08:57:20.479Z</time>
      </trkpt>
      <trkpt lat="45.38883" lon="2.48065">
        <ele>673</ele>
        <time>2025-06-08T08:57:21.479Z</time>
      </trkpt>
      <trkpt lat="45.38883" lon="2.48065">
        <ele>672</ele>
        <time>2025-06-08T08:57:22.479Z</time>
      </trkpt>
      <trkpt lat="45.38884" lon="2.48064">
        <ele>672</ele>
        <time>2025-06-08T08:57:23.479Z</time>
      </trkpt>
      <trkpt lat="45.38884" lon="2.48064">
        <ele>671</ele>
        <time>2025-06-08T08:57:24.479Z</time>
      </trkpt>
      <trkpt lat="45.38884" lon="2.48064">
        <ele>671</ele>
        <time>2025-06-08T08:57:25.479Z</time>
      </trkpt>
      <trkpt lat="45.38884" lon="2.48064">
        <ele>670</ele>
        <time>2025-06-08T08:57:26.479Z</time>
      </trkpt>
      <trkpt lat="45.38884" lon="2.48064">
        <ele>669</ele>
        <time>2025-06-08T08:57:27.479Z</time>
      </trkpt>
      <trkpt lat="45.38884" lon="2.48064">
        <ele>669</ele>
        <time>2025-06-08T08:57:28.479Z</time>
      </trkpt>
      <trkpt lat="45.38884" lon="2.48064">
        <ele>668</ele>
        <time>2025-06-08T08:57:29.479Z</time>
      </trkpt>
      <trkpt lat="45.38885" lon="2.48064">
        <ele>668</ele>
        <time>2025-06-08T08:57:30.479Z</time>
      </trkpt>
      <trkpt lat="45.38885" lon="2.48064">
        <ele>667</ele>
        <time>2025-06-08T08:57:31.479Z</time>
      </trkpt>
      <trkpt lat="45.38885" lon="2.48064">
        <ele>666</ele>
        <time>2025-06-08T08:57:32.479Z</time>
      </trkpt>
      <trkpt lat="45.38885" lon="2.48064">
        <ele>666</ele>
        <time>2025-06-08T08:57:33.479Z</time>
      </trkpt>
      <trkpt lat="45.38885" lon="2.48064">
        <ele>665</ele>
        <time>2025-06-08T08:57:34.479Z</time>
      </trkpt>
      <trkpt lat="45.38885" lon="2.48064">
        <ele>665</ele>
        <time>2025-06-08T08:57:35.479Z</time>
      </trkpt>
      <trkpt lat="45.38885" lon="2.48064">
        <ele>665</ele>
        <time>2025-06-08T08:57:36.479Z</time>
      </trkpt>
      <trkpt lat="45.38885" lon="2.48064">
        <ele>665</ele>
        <time>2025-06-08T08:57:37.479Z</time>
      </trkpt>
      <trkpt lat="45.38885" lon="2.48064">
        <ele>665</ele>
        <time>2025-06-08T08:57:38.479Z</time>
      </trkpt>
      <trkpt lat="45.38885" lon="2.48064">
        <ele>665</ele>
        <time>2025-06-08T08:57:39.479Z</time>
      </trkpt>
      <trkpt lat="45.38885" lon="2.48064">
        <ele>665</ele>
        <time>2025-06-08T08:57:40.479Z</time>
      </trkpt>
      <trkpt lat="45.38885" lon="2.48064">
        <ele>665</ele>
        <time>2025-06-08T08:57:41.479Z</time>
      </trkpt>
      <trkpt lat="45.38885" lon="2.48063">
        <ele>665</ele>
        <time>2025-06-08T08:57:42.479Z</time>
      </trkpt>
      <trkpt lat="45.38885" lon="2.48063">
        <ele>665</ele>
        <time>2025-06-08T08:57:43.479Z</time>
      </trkpt>
      <trkpt lat="45.38885" lon="2.48063">
        <ele>665</ele>
        <time>2025-06-08T08:57:44.479Z</time>
      </trkpt>
      <trkpt lat="45.38885" lon="2.48063">
        <ele>666</ele>
        <time>2025-06-08T08:57:45.479Z</time>
      </trkpt>
      <trkpt lat="45.38885" lon="2.48063">
        <ele>667</ele>
        <time>2025-06-08T08:57:46.479Z</time>
      </trkpt>
      <trkpt lat="45.38885" lon="2.48063">
        <ele>667</ele>
        <time>2025-06-08T08:57:47.479Z</time>
      </trkpt>
      <trkpt lat="45.38884" lon="2.48063">
        <ele>668</ele>
        <time>2025-06-08T08:57:48.479Z</time>
      </trkpt>
      <trkpt lat="45.38884" lon="2.48063">
        <ele>668</ele>
        <time>2025-06-08T08:57:49.479Z</time>
      </trkpt>
      <trkpt lat="45.38884" lon="2.48063">
        <ele>669</ele>
        <time>2025-06-08T08:57:50.479Z</time>
      </trkpt>
      <trkpt lat="45.38884" lon="2.48063">
        <ele>669</ele>
        <time>2025-06-08T08:57:51.479Z</time>
      </trkpt>
      <trkpt lat="45.38884" lon="2.48062">
        <ele>669</ele>
        <time>2025-06-08T08:57:52.479Z</time>
      </trkpt>
      <trkpt lat="45.38884" lon="2.48062">
        <ele>669</ele>
        <time>2025-06-08T08:57:53.479Z</time>
      </trkpt>
      <trkpt lat="45.38884" lon="2.48062">
        <ele>669</ele>
        <time>2025-06-08T08:57:54.479Z</time>
      </trkpt>
      <trkpt lat="45.38884" lon="2.4806">
        <ele>670</ele>
        <time>2025-06-08T08:57:55.479Z</time>
      </trkpt>
      <trkpt lat="45.38883" lon="2.4806">
        <ele>671</ele>
        <time>2025-06-08T08:57:56.479Z</time>
      </trkpt>
      <trkpt lat="45.38883" lon="2.4806">
        <ele>671</ele>
        <time>2025-06-08T08:57:57.479Z</time>
      </trkpt>
      <trkpt lat="45.38883" lon="2.4806">
        <ele>671</ele>
        <time>2025-06-08T08:57:58.479Z</time>
      </trkpt>
      <trkpt lat="45.38883" lon="2.4806">
        <ele>671</ele>
        <time>2025-06-08T08:57:59.479Z</time>
      </trkpt>
      <trkpt lat="45.38883" lon="2.48059">
        <ele>671</ele>
        <time>2025-06-08T08:58:00.479Z</time>
      </trkpt>
      <trkpt lat="45.38884" lon="2.48059">
        <ele>671</ele>
        <time>2025-06-08T08:58:01.479Z</time>
      </trkpt>
      <trkpt lat="45.38883" lon="2.48059">
        <ele>670</ele>
        <time>2025-06-08T08:58:02.479Z</time>
      </trkpt>
      <trkpt lat="45.38883" lon="2.48059">
        <ele>669</ele>
        <time>2025-06-08T08:58:03.479Z</time>
      </trkpt>
      <trkpt lat="45.38884" lon="2.48059">
        <ele>668</ele>
        <time>2025-06-08T08:58:04.479Z</time>
      </trkpt>
      <trkpt lat="45.38884" lon="2.48059">
        <ele>667</ele>
        <time>2025-06-08T08:58:05.479Z</time>
      </trkpt>
      <trkpt lat="45.38884" lon="2.48059">
        <ele>666</ele>
        <time>2025-06-08T08:58:06.479Z</time>
      </trkpt>
      <trkpt lat="45.38884" lon="2.48059">
        <ele>665</ele>
        <time>2025-06-08T08:58:07.479Z</time>
      </trkpt>
      <trkpt lat="45.38884" lon="2.48059">
        <ele>665</ele>
        <time>2025-06-08T08:58:08.479Z</time>
      </trkpt>
      <trkpt lat="45.38883" lon="2.48058">
        <ele>664</ele>
        <time>2025-06-08T08:58:09.479Z</time>
      </trkpt>
      <trkpt lat="45.38883" lon="2.48058">
        <ele>664</ele>
        <time>2025-06-08T08:58:10.479Z</time>
      </trkpt>
      <trkpt lat="45.38883" lon="2.48058">
        <ele>664</ele>
        <time>2025-06-08T08:58:11.479Z</time>
      </trkpt>
      <trkpt lat="45.38883" lon="2.48058">
        <ele>664</ele>
        <time>2025-06-08T08:58:12.479Z</time>
      </trkpt>
      <trkpt lat="45.38883" lon="2.48057">
        <ele>664</ele>
        <time>2025-06-08T08:58:13.479Z</time>
      </trkpt>
      <trkpt lat="45.38883" lon="2.48057">
        <ele>664</ele>
        <time>2025-06-08T08:58:14.479Z</time>
      </trkpt>
      <trkpt lat="45.38883" lon="2.48057">
        <ele>664</ele>
        <time>2025-06-08T08:58:15.479Z</time>
      </trkpt>
      <trkpt lat="45.38883" lon="2.48056">
        <ele>664</ele>
        <time>2025-06-08T08:58:16.479Z</time>
      </trkpt>
      <trkpt lat="45.38883" lon="2.48055">
        <ele>664</ele>
        <time>2025-06-08T08:58:17.479Z</time>
      </trkpt>
      <trkpt lat="45.38883" lon="2.48055">
        <ele>664</ele>
        <time>2025-06-08T08:58:18.479Z</time>
      </trkpt>
      <trkpt lat="45.38882" lon="2.48054">
        <ele>664</ele>
        <time>2025-06-08T08:58:19.479Z</time>
      </trkpt>
      <trkpt lat="45.38881" lon="2.48054">
        <ele>664</ele>
        <time>2025-06-08T08:58:20.479Z</time>
      </trkpt>
      <trkpt lat="45.3888" lon="2.48053">
        <ele>664</ele>
        <time>2025-06-08T08:58:21.479Z</time>
      </trkpt>
      <trkpt lat="45.3888" lon="2.48052">
        <ele>664</ele>
        <time>2025-06-08T08:58:22.479Z</time>
      </trkpt>
      <trkpt lat="45.38878" lon="2.48051">
        <ele>665</ele>
        <time>2025-06-08T08:58:23.479Z</time>
      </trkpt>
      <trkpt lat="45.38878" lon="2.4805">
        <ele>665</ele>
        <time>2025-06-08T08:58:24.479Z</time>
      </trkpt>
      <trkpt lat="45.38877" lon="2.4805">
        <ele>665</ele>
        <time>2025-06-08T08:58:25.479Z</time>
      </trkpt>
      <trkpt lat="45.38876" lon="2.48049">
        <ele>665</ele>
        <time>2025-06-08T08:58:26.479Z</time>
      </trkpt>
      <trkpt lat="45.38876" lon="2.48048">
        <ele>666</ele>
        <time>2025-06-08T08:58:27.479Z</time>
      </trkpt>
      <trkpt lat="45.38875" lon="2.48048">
        <ele>666</ele>
        <time>2025-06-08T08:58:28.479Z</time>
      </trkpt>
      <trkpt lat="45.38875" lon="2.48047">
        <ele>666</ele>
        <time>2025-06-08T08:58:29.479Z</time>
      </trkpt>
      <trkpt lat="45.38874" lon="2.48046">
        <ele>665</ele>
        <time>2025-06-08T08:58:30.479Z</time>
      </trkpt>
      <trkpt lat="45.38873" lon="2.48045">
        <ele>665</ele>
        <time>2025-06-08T08:58:31.479Z</time>
      </trkpt>
      <trkpt lat="45.38872" lon="2.48044">
        <ele>665</ele>
        <time>2025-06-08T08:58:32.479Z</time>
      </trkpt>
      <trkpt lat="45.3887" lon="2.48043">
        <ele>664</ele>
        <time>2025-06-08T08:58:33.479Z</time>
      </trkpt>
      <trkpt lat="45.38869" lon="2.48042">
        <ele>664</ele>
        <time>2025-06-08T08:58:34.479Z</time>
      </trkpt>
      <trkpt lat="45.38869" lon="2.48041">
        <ele>664</ele>
        <time>2025-06-08T08:58:35.479Z</time>
      </trkpt>
      <trkpt lat="45.38868" lon="2.4804">
        <ele>664</ele>
        <time>2025-06-08T08:58:36.479Z</time>
      </trkpt>
      <trkpt lat="45.38868" lon="2.48038">
        <ele>664</ele>
        <time>2025-06-08T08:58:37.479Z</time>
      </trkpt>
      <trkpt lat="45.38867" lon="2.48036">
        <ele>663</ele>
        <time>2025-06-08T08:58:38.479Z</time>
      </trkpt>
      <trkpt lat="45.38866" lon="2.48034">
        <ele>662</ele>
        <time>2025-06-08T08:58:39.479Z</time>
      </trkpt>
      <trkpt lat="45.38866" lon="2.48033">
        <ele>662</ele>
        <time>2025-06-08T08:58:40.479Z</time>
      </trkpt>
      <trkpt lat="45.38865" lon="2.48032">
        <ele>661</ele>
        <time>2025-06-08T08:58:41.479Z</time>
      </trkpt>
      <trkpt lat="45.38863" lon="2.48031">
        <ele>661</ele>
        <time>2025-06-08T08:58:42.479Z</time>
      </trkpt>
      <trkpt lat="45.38862" lon="2.4803">
        <ele>660</ele>
        <time>2025-06-08T08:58:43.479Z</time>
      </trkpt>
      <trkpt lat="45.38861" lon="2.48029">
        <ele>660</ele>
        <time>2025-06-08T08:58:44.479Z</time>
      </trkpt>
      <trkpt lat="45.38859" lon="2.48029">
        <ele>659</ele>
        <time>2025-06-08T08:58:45.479Z</time>
      </trkpt>
      <trkpt lat="45.38859" lon="2.48028">
        <ele>659</ele>
        <time>2025-06-08T08:58:46.479Z</time>
      </trkpt>
      <trkpt lat="45.38858" lon="2.48027">
        <ele>659</ele>
        <time>2025-06-08T08:58:47.479Z</time>
      </trkpt>
      <trkpt lat="45.38857" lon="2.48025">
        <ele>659</ele>
        <time>2025-06-08T08:58:48.479Z</time>
      </trkpt>
      <trkpt lat="45.38857" lon="2.48024">
        <ele>659</ele>
        <time>2025-06-08T08:58:49.479Z</time>
      </trkpt>
      <trkpt lat="45.38856" lon="2.48023">
        <ele>660</ele>
        <time>2025-06-08T08:58:50.479Z</time>
      </trkpt>
      <trkpt lat="45.38855" lon="2.48022">
        <ele>660</ele>
        <time>2025-06-08T08:58:51.479Z</time>
      </trkpt>
      <trkpt lat="45.38854" lon="2.48022">
        <ele>660</ele>
        <time>2025-06-08T08:58:52.479Z</time>
      </trkpt>
      <trkpt lat="45.38853" lon="2.48021">
        <ele>661</ele>
        <time>2025-06-08T08:58:53.479Z</time>
      </trkpt>
      <trkpt lat="45.38852" lon="2.48021">
        <ele>661</ele>
        <time>2025-06-08T08:58:54.479Z</time>
      </trkpt>
      <trkpt lat="45.38851" lon="2.4802">
        <ele>662</ele>
        <time>2025-06-08T08:58:55.479Z</time>
      </trkpt>
      <trkpt lat="45.3885" lon="2.48019">
        <ele>662</ele>
        <time>2025-06-08T08:58:56.479Z</time>
      </trkpt>
      <trkpt lat="45.38849" lon="2.48018">
        <ele>662</ele>
        <time>2025-06-08T08:58:57.479Z</time>
      </trkpt>
      <trkpt lat="45.38848" lon="2.48017">
        <ele>661</ele>
        <time>2025-06-08T08:58:58.479Z</time>
      </trkpt>
      <trkpt lat="45.38848" lon="2.48016">
        <ele>661</ele>
        <time>2025-06-08T08:58:59.479Z</time>
      </trkpt>
      <trkpt lat="45.38846" lon="2.48015">
        <ele>661</ele>
        <time>2025-06-08T08:59:00.479Z</time>
      </trkpt>
      <trkpt lat="45.38846" lon="2.48013">
        <ele>661</ele>
        <time>2025-06-08T08:59:01.479Z</time>
      </trkpt>
      <trkpt lat="45.38845" lon="2.48012">
        <ele>661</ele>
        <time>2025-06-08T08:59:02.479Z</time>
      </trkpt>
      <trkpt lat="45.38844" lon="2.48011">
        <ele>661</ele>
        <time>2025-06-08T08:59:03.479Z</time>
      </trkpt>
      <trkpt lat="45.38843" lon="2.48009">
        <ele>661</ele>
        <time>2025-06-08T08:59:04.479Z</time>
      </trkpt>
      <trkpt lat="45.38842" lon="2.48007">
        <ele>661</ele>
        <time>2025-06-08T08:59:05.479Z</time>
      </trkpt>
      <trkpt lat="45.3884" lon="2.48006">
        <ele>662</ele>
        <time>2025-06-08T08:59:06.479Z</time>
      </trkpt>
      <trkpt lat="45.3884" lon="2.48005">
        <ele>662</ele>
        <time>2025-06-08T08:59:07.479Z</time>
      </trkpt>
      <trkpt lat="45.38839" lon="2.48003">
        <ele>662</ele>
        <time>2025-06-08T08:59:08.479Z</time>
      </trkpt>
      <trkpt lat="45.38837" lon="2.48002">
        <ele>662</ele>
        <time>2025-06-08T08:59:09.479Z</time>
      </trkpt>
      <trkpt lat="45.38835" lon="2.48">
        <ele>663</ele>
        <time>2025-06-08T08:59:10.479Z</time>
      </trkpt>
      <trkpt lat="45.38834" lon="2.47998">
        <ele>663</ele>
        <time>2025-06-08T08:59:11.479Z</time>
      </trkpt>
      <trkpt lat="45.38834" lon="2.47996">
        <ele>663</ele>
        <time>2025-06-08T08:59:12.479Z</time>
      </trkpt>
      <trkpt lat="45.38833" lon="2.47995">
        <ele>663</ele>
        <time>2025-06-08T08:59:13.479Z</time>
      </trkpt>
      <trkpt lat="45.38832" lon="2.47994">
        <ele>664</ele>
        <time>2025-06-08T08:59:14.479Z</time>
      </trkpt>
      <trkpt lat="45.38831" lon="2.47992">
        <ele>664</ele>
        <time>2025-06-08T08:59:15.479Z</time>
      </trkpt>
      <trkpt lat="45.3883" lon="2.47991">
        <ele>664</ele>
        <time>2025-06-08T08:59:16.479Z</time>
      </trkpt>
      <trkpt lat="45.3883" lon="2.47989">
        <ele>664</ele>
        <time>2025-06-08T08:59:17.479Z</time>
      </trkpt>
      <trkpt lat="45.38829" lon="2.47988">
        <ele>664</ele>
        <time>2025-06-08T08:59:18.479Z</time>
      </trkpt>
      <trkpt lat="45.38829" lon="2.47986">
        <ele>664</ele>
        <time>2025-06-08T08:59:19.479Z</time>
      </trkpt>
      <trkpt lat="45.38828" lon="2.47985">
        <ele>663</ele>
        <time>2025-06-08T08:59:20.479Z</time>
      </trkpt>
      <trkpt lat="45.38828" lon="2.47984">
        <ele>663</ele>
        <time>2025-06-08T08:59:21.479Z</time>
      </trkpt>
      <trkpt lat="45.38827" lon="2.47983">
        <ele>663</ele>
        <time>2025-06-08T08:59:22.479Z</time>
      </trkpt>
      <trkpt lat="45.38827" lon="2.47981">
        <ele>663</ele>
        <time>2025-06-08T08:59:23.479Z</time>
      </trkpt>
      <trkpt lat="45.38827" lon="2.47981">
        <ele>663</ele>
        <time>2025-06-08T08:59:24.479Z</time>
      </trkpt>
      <trkpt lat="45.38827" lon="2.4798">
        <ele>663</ele>
        <time>2025-06-08T08:59:25.479Z</time>
      </trkpt>
      <trkpt lat="45.38827" lon="2.47979">
        <ele>663</ele>
        <time>2025-06-08T08:59:26.479Z</time>
      </trkpt>
      <trkpt lat="45.38827" lon="2.47977">
        <ele>663</ele>
        <time>2025-06-08T08:59:27.479Z</time>
      </trkpt>
      <trkpt lat="45.38827" lon="2.47976">
        <ele>663</ele>
        <time>2025-06-08T08:59:28.479Z</time>
      </trkpt>
      <trkpt lat="45.38826" lon="2.47975">
        <ele>663</ele>
        <time>2025-06-08T08:59:29.479Z</time>
      </trkpt>
      <trkpt lat="45.38826" lon="2.47974">
        <ele>664</ele>
        <time>2025-06-08T08:59:30.479Z</time>
      </trkpt>
      <trkpt lat="45.38825" lon="2.47974">
        <ele>664</ele>
        <time>2025-06-08T08:59:31.479Z</time>
      </trkpt>
      <trkpt lat="45.38824" lon="2.47973">
        <ele>664</ele>
        <time>2025-06-08T08:59:32.479Z</time>
      </trkpt>
      <trkpt lat="45.38824" lon="2.47972">
        <ele>664</ele>
        <time>2025-06-08T08:59:33.479Z</time>
      </trkpt>
      <trkpt lat="45.38823" lon="2.4797">
        <ele>664</ele>
        <time>2025-06-08T08:59:34.479Z</time>
      </trkpt>
      <trkpt lat="45.38823" lon="2.47969">
        <ele>664</ele>
        <time>2025-06-08T08:59:35.479Z</time>
      </trkpt>
      <trkpt lat="45.38823" lon="2.47969">
        <ele>664</ele>
        <time>2025-06-08T08:59:36.479Z</time>
      </trkpt>
      <trkpt lat="45.38822" lon="2.47967">
        <ele>664</ele>
        <time>2025-06-08T08:59:37.479Z</time>
      </trkpt>
      <trkpt lat="45.38821" lon="2.47966">
        <ele>664</ele>
        <time>2025-06-08T08:59:38.479Z</time>
      </trkpt>
      <trkpt lat="45.3882" lon="2.47966">
        <ele>664</ele>
        <time>2025-06-08T08:59:39.479Z</time>
      </trkpt>
      <trkpt lat="45.3882" lon="2.47966">
        <ele>664</ele>
        <time>2025-06-08T08:59:40.479Z</time>
      </trkpt>
      <trkpt lat="45.38819" lon="2.47965">
        <ele>665</ele>
        <time>2025-06-08T08:59:41.479Z</time>
      </trkpt>
      <trkpt lat="45.38818" lon="2.47965">
        <ele>665</ele>
        <time>2025-06-08T08:59:42.479Z</time>
      </trkpt>
      <trkpt lat="45.38817" lon="2.47964">
        <ele>665</ele>
        <time>2025-06-08T08:59:43.479Z</time>
      </trkpt>
      <trkpt lat="45.38816" lon="2.47963">
        <ele>665</ele>
        <time>2025-06-08T08:59:44.479Z</time>
      </trkpt>
      <trkpt lat="45.38815" lon="2.47962">
        <ele>666</ele>
        <time>2025-06-08T08:59:45.479Z</time>
      </trkpt>
      <trkpt lat="45.38814" lon="2.4796">
        <ele>666</ele>
        <time>2025-06-08T08:59:46.479Z</time>
      </trkpt>
      <trkpt lat="45.38813" lon="2.47956">
        <ele>666</ele>
        <time>2025-06-08T08:59:47.479Z</time>
      </trkpt>
      <trkpt lat="45.38812" lon="2.47953">
        <ele>666</ele>
        <time>2025-06-08T08:59:48.479Z</time>
      </trkpt>
      <trkpt lat="45.38812" lon="2.47951">
        <ele>666</ele>
        <time>2025-06-08T08:59:49.479Z</time>
      </trkpt>
      <trkpt lat="45.38811" lon="2.47948">
        <ele>666</ele>
        <time>2025-06-08T08:59:50.479Z</time>
      </trkpt>
      <trkpt lat="45.38811" lon="2.47946">
        <ele>666</ele>
        <time>2025-06-08T08:59:51.479Z</time>
      </trkpt>
      <trkpt lat="45.38811" lon="2.47944">
        <ele>666</ele>
        <time>2025-06-08T08:59:52.479Z</time>
      </trkpt>
      <trkpt lat="45.38811" lon="2.47942">
        <ele>667</ele>
        <time>2025-06-08T08:59:53.479Z</time>
      </trkpt>
      <trkpt lat="45.38811" lon="2.47941">
        <ele>667</ele>
        <time>2025-06-08T08:59:54.479Z</time>
      </trkpt>
      <trkpt lat="45.38811" lon="2.47939">
        <ele>666</ele>
        <time>2025-06-08T08:59:55.479Z</time>
      </trkpt>
      <trkpt lat="45.3881" lon="2.47938">
        <ele>666</ele>
        <time>2025-06-08T08:59:56.479Z</time>
      </trkpt>
      <trkpt lat="45.3881" lon="2.47935">
        <ele>666</ele>
        <time>2025-06-08T08:59:57.479Z</time>
      </trkpt>
      <trkpt lat="45.3881" lon="2.47933">
        <ele>666</ele>
        <time>2025-06-08T08:59:58.479Z</time>
      </trkpt>
      <trkpt lat="45.38809" lon="2.47932">
        <ele>666</ele>
        <time>2025-06-08T08:59:59.479Z</time>
      </trkpt>
      <trkpt lat="45.38808" lon="2.4793">
        <ele>665</ele>
        <time>2025-06-08T09:00:00.479Z</time>
      </trkpt>
      <trkpt lat="45.38808" lon="2.47929">
        <ele>665</ele>
        <time>2025-06-08T09:00:01.479Z</time>
      </trkpt>
      <trkpt lat="45.38808" lon="2.47927">
        <ele>665</ele>
        <time>2025-06-08T09:00:02.479Z</time>
      </trkpt>
      <trkpt lat="45.38808" lon="2.47924">
        <ele>665</ele>
        <time>2025-06-08T09:00:03.479Z</time>
      </trkpt>
      <trkpt lat="45.38807" lon="2.47923">
        <ele>664</ele>
        <time>2025-06-08T09:00:04.479Z</time>
      </trkpt>
      <trkpt lat="45.38806" lon="2.47921">
        <ele>664</ele>
        <time>2025-06-08T09:00:05.479Z</time>
      </trkpt>
      <trkpt lat="45.38806" lon="2.47919">
        <ele>664</ele>
        <time>2025-06-08T09:00:06.479Z</time>
      </trkpt>
      <trkpt lat="45.38805" lon="2.47917">
        <ele>664</ele>
        <time>2025-06-08T09:00:07.479Z</time>
      </trkpt>
      <trkpt lat="45.38804" lon="2.47916">
        <ele>664</ele>
        <time>2025-06-08T09:00:08.479Z</time>
      </trkpt>
      <trkpt lat="45.38804" lon="2.47914">
        <ele>665</ele>
        <time>2025-06-08T09:00:09.479Z</time>
      </trkpt>
      <trkpt lat="45.38803" lon="2.47912">
        <ele>665</ele>
        <time>2025-06-08T09:00:10.479Z</time>
      </trkpt>
      <trkpt lat="45.38802" lon="2.47911">
        <ele>665</ele>
        <time>2025-06-08T09:00:11.479Z</time>
      </trkpt>
      <trkpt lat="45.38802" lon="2.47909">
        <ele>665</ele>
        <time>2025-06-08T09:00:12.479Z</time>
      </trkpt>
      <trkpt lat="45.38802" lon="2.47908">
        <ele>665</ele>
        <time>2025-06-08T09:00:13.479Z</time>
      </trkpt>
      <trkpt lat="45.38801" lon="2.47906">
        <ele>665</ele>
        <time>2025-06-08T09:00:14.479Z</time>
      </trkpt>
      <trkpt lat="45.38801" lon="2.47905">
        <ele>665</ele>
        <time>2025-06-08T09:00:15.479Z</time>
      </trkpt>
      <trkpt lat="45.388" lon="2.47904">
        <ele>665</ele>
        <time>2025-06-08T09:00:16.479Z</time>
      </trkpt>
      <trkpt lat="45.388" lon="2.47902">
        <ele>665</ele>
        <time>2025-06-08T09:00:17.479Z</time>
      </trkpt>
      <trkpt lat="45.38799" lon="2.47901">
        <ele>665</ele>
        <time>2025-06-08T09:00:18.479Z</time>
      </trkpt>
      <trkpt lat="45.38798" lon="2.47899">
        <ele>665</ele>
        <time>2025-06-08T09:00:19.479Z</time>
      </trkpt>
      <trkpt lat="45.38798" lon="2.47898">
        <ele>665</ele>
        <time>2025-06-08T09:00:20.479Z</time>
      </trkpt>
      <trkpt lat="45.38797" lon="2.47896">
        <ele>665</ele>
        <time>2025-06-08T09:00:21.479Z</time>
      </trkpt>
      <trkpt lat="45.38796" lon="2.47895">
        <ele>665</ele>
        <time>2025-06-08T09:00:22.479Z</time>
      </trkpt>
      <trkpt lat="45.38795" lon="2.47893">
        <ele>665</ele>
        <time>2025-06-08T09:00:23.479Z</time>
      </trkpt>
      <trkpt lat="45.38794" lon="2.47892">
        <ele>665</ele>
        <time>2025-06-08T09:00:24.479Z</time>
      </trkpt>
      <trkpt lat="45.38794" lon="2.47891">
        <ele>666</ele>
        <time>2025-06-08T09:00:25.479Z</time>
      </trkpt>
      <trkpt lat="45.38793" lon="2.4789">
        <ele>666</ele>
        <time>2025-06-08T09:00:26.479Z</time>
      </trkpt>
      <trkpt lat="45.38792" lon="2.47889">
        <ele>665</ele>
        <time>2025-06-08T09:00:27.479Z</time>
      </trkpt>
      <trkpt lat="45.38792" lon="2.47888">
        <ele>665</ele>
        <time>2025-06-08T09:00:28.479Z</time>
      </trkpt>
      <trkpt lat="45.38791" lon="2.47886">
        <ele>665</ele>
        <time>2025-06-08T09:00:29.479Z</time>
      </trkpt>
      <trkpt lat="45.3879" lon="2.47885">
        <ele>665</ele>
        <time>2025-06-08T09:00:30.479Z</time>
      </trkpt>
      <trkpt lat="45.38789" lon="2.47883">
        <ele>665</ele>
        <time>2025-06-08T09:00:31.479Z</time>
      </trkpt>
      <trkpt lat="45.38788" lon="2.47882">
        <ele>665</ele>
        <time>2025-06-08T09:00:32.479Z</time>
      </trkpt>
      <trkpt lat="45.38788" lon="2.4788">
        <ele>665</ele>
        <time>2025-06-08T09:00:33.479Z</time>
      </trkpt>
      <trkpt lat="45.38787" lon="2.47879">
        <ele>665</ele>
        <time>2025-06-08T09:00:34.479Z</time>
      </trkpt>
      <trkpt lat="45.38787" lon="2.47877">
        <ele>665</ele>
        <time>2025-06-08T09:00:35.479Z</time>
      </trkpt>
      <trkpt lat="45.38786" lon="2.47876">
        <ele>665</ele>
        <time>2025-06-08T09:00:36.479Z</time>
      </trkpt>
      <trkpt lat="45.38786" lon="2.47875">
        <ele>665</ele>
        <time>2025-06-08T09:00:37.479Z</time>
      </trkpt>
      <trkpt lat="45.38785" lon="2.47873">
        <ele>665</ele>
        <time>2025-06-08T09:00:38.479Z</time>
      </trkpt>
      <trkpt lat="45.38785" lon="2.47872">
        <ele>665</ele>
        <time>2025-06-08T09:00:39.479Z</time>
      </trkpt>
      <trkpt lat="45.38785" lon="2.47871">
        <ele>665</ele>
        <time>2025-06-08T09:00:40.479Z</time>
      </trkpt>
      <trkpt lat="45.38785" lon="2.47871">
        <ele>665</ele>
        <time>2025-06-08T09:00:41.479Z</time>
      </trkpt>
      <trkpt lat="45.38785" lon="2.4787">
        <ele>665</ele>
        <time>2025-06-08T09:00:42.479Z</time>
      </trkpt>
      <trkpt lat="45.38785" lon="2.4787">
        <ele>665</ele>
        <time>2025-06-08T09:00:43.479Z</time>
      </trkpt>
      <trkpt lat="45.38785" lon="2.47869">
        <ele>665</ele>
        <time>2025-06-08T09:00:44.479Z</time>
      </trkpt>
      <trkpt lat="45.38785" lon="2.47869">
        <ele>665</ele>
        <time>2025-06-08T09:00:45.479Z</time>
      </trkpt>
      <trkpt lat="45.38785" lon="2.47869">
        <ele>665</ele>
        <time>2025-06-08T09:00:46.479Z</time>
      </trkpt>
      <trkpt lat="45.38785" lon="2.47869">
        <ele>665</ele>
        <time>2025-06-08T09:00:47.479Z</time>
      </trkpt>
      <trkpt lat="45.38785" lon="2.47868">
        <ele>665</ele>
        <time>2025-06-08T09:00:48.479Z</time>
      </trkpt>
      <trkpt lat="45.38785" lon="2.47868">
        <ele>665</ele>
        <time>2025-06-08T09:00:49.479Z</time>
      </trkpt>
      <trkpt lat="45.38785" lon="2.47869">
        <ele>665</ele>
        <time>2025-06-08T09:00:50.479Z</time>
      </trkpt>
      <trkpt lat="45.38785" lon="2.47869">
        <ele>666</ele>
        <time>2025-06-08T09:00:51.479Z</time>
      </trkpt>
      <trkpt lat="45.38785" lon="2.47869">
        <ele>666</ele>
        <time>2025-06-08T09:00:52.479Z</time>
      </trkpt>
      <trkpt lat="45.38785" lon="2.47869">
        <ele>666</ele>
        <time>2025-06-08T09:00:53.479Z</time>
      </trkpt>
      <trkpt lat="45.38786" lon="2.47869">
        <ele>666</ele>
        <time>2025-06-08T09:00:54.479Z</time>
      </trkpt>
      <trkpt lat="45.38786" lon="2.47869">
        <ele>666</ele>
        <time>2025-06-08T09:00:55.479Z</time>
      </trkpt>
      <trkpt lat="45.38786" lon="2.47869">
        <ele>666</ele>
        <time>2025-06-08T09:00:56.479Z</time>
      </trkpt>
      <trkpt lat="45.38786" lon="2.47869">
        <ele>665</ele>
        <time>2025-06-08T09:00:57.479Z</time>
      </trkpt>
      <trkpt lat="45.38786" lon="2.47869">
        <ele>665</ele>
        <time>2025-06-08T09:00:58.479Z</time>
      </trkpt>
      <trkpt lat="45.38786" lon="2.47868">
        <ele>664</ele>
        <time>2025-06-08T09:00:59.479Z</time>
      </trkpt>
      <trkpt lat="45.38786" lon="2.47868">
        <ele>664</ele>
        <time>2025-06-08T09:01:00.479Z</time>
      </trkpt>
      <trkpt lat="45.38786" lon="2.47868">
        <ele>664</ele>
        <time>2025-06-08T09:01:01.479Z</time>
      </trkpt>
      <trkpt lat="45.38786" lon="2.47868">
        <ele>664</ele>
        <time>2025-06-08T09:01:02.479Z</time>
      </trkpt>
      <trkpt lat="45.38786" lon="2.47868">
        <ele>664</ele>
        <time>2025-06-08T09:01:03.479Z</time>
      </trkpt>
      <trkpt lat="45.38786" lon="2.47868">
        <ele>664</ele>
        <time>2025-06-08T09:01:04.479Z</time>
      </trkpt>
      <trkpt lat="45.38786" lon="2.47868">
        <ele>664</ele>
        <time>2025-06-08T09:01:05.479Z</time>
      </trkpt>
      <trkpt lat="45.38786" lon="2.47868">
        <ele>664</ele>
        <time>2025-06-08T09:01:06.479Z</time>
      </trkpt>
      <trkpt lat="45.38786" lon="2.47868">
        <ele>664</ele>
        <time>2025-06-08T09:01:07.479Z</time>
      </trkpt>
      <trkpt lat="45.38786" lon="2.47868">
        <ele>665</ele>
        <time>2025-06-08T09:01:08.479Z</time>
      </trkpt>
      <trkpt lat="45.38786" lon="2.47868">
        <ele>665</ele>
        <time>2025-06-08T09:01:09.479Z</time>
      </trkpt>
      <trkpt lat="45.38786" lon="2.47868">
        <ele>665</ele>
        <time>2025-06-08T09:01:10.479Z</time>
      </trkpt>
      <trkpt lat="45.38786" lon="2.47868">
        <ele>665</ele>
        <time>2025-06-08T09:01:11.479Z</time>
      </trkpt>
      <trkpt lat="45.38786" lon="2.47868">
        <ele>666</ele>
        <time>2025-06-08T09:01:12.479Z</time>
      </trkpt>
      <trkpt lat="45.38786" lon="2.47868">
        <ele>666</ele>
        <time>2025-06-08T09:01:13.479Z</time>
      </trkpt>
      <trkpt lat="45.38786" lon="2.47868">
        <ele>666</ele>
        <time>2025-06-08T09:01:14.479Z</time>
      </trkpt>
      <trkpt lat="45.38786" lon="2.47868">
        <ele>666</ele>
        <time>2025-06-08T09:01:15.479Z</time>
      </trkpt>
      <trkpt lat="45.38785" lon="2.47868">
        <ele>666</ele>
        <time>2025-06-08T09:01:16.479Z</time>
      </trkpt>
      <trkpt lat="45.38785" lon="2.47868">
        <ele>666</ele>
        <time>2025-06-08T09:01:17.479Z</time>
      </trkpt>
      <trkpt lat="45.38785" lon="2.47868">
        <ele>667</ele>
        <time>2025-06-08T09:01:18.479Z</time>
      </trkpt>
      <trkpt lat="45.38785" lon="2.47868">
        <ele>667</ele>
        <time>2025-06-08T09:01:19.479Z</time>
      </trkpt>
      <trkpt lat="45.38785" lon="2.47868">
        <ele>667</ele>
        <time>2025-06-08T09:01:20.479Z</time>
      </trkpt>
      <trkpt lat="45.38785" lon="2.47867">
        <ele>668</ele>
        <time>2025-06-08T09:01:21.479Z</time>
      </trkpt>
      <trkpt lat="45.38785" lon="2.47868">
        <ele>668</ele>
        <time>2025-06-08T09:01:22.479Z</time>
      </trkpt>
      <trkpt lat="45.38785" lon="2.47868">
        <ele>669</ele>
        <time>2025-06-08T09:01:23.479Z</time>
      </trkpt>
      <trkpt lat="45.38785" lon="2.47868">
        <ele>669</ele>
        <time>2025-06-08T09:01:24.479Z</time>
      </trkpt>
      <trkpt lat="45.38785" lon="2.47868">
        <ele>670</ele>
        <time>2025-06-08T09:01:25.479Z</time>
      </trkpt>
      <trkpt lat="45.38785" lon="2.47867">
        <ele>671</ele>
        <time>2025-06-08T09:01:26.479Z</time>
      </trkpt>
      <trkpt lat="45.38785" lon="2.47867">
        <ele>671</ele>
        <time>2025-06-08T09:01:27.479Z</time>
      </trkpt>
      <trkpt lat="45.38785" lon="2.47867">
        <ele>672</ele>
        <time>2025-06-08T09:01:28.479Z</time>
      </trkpt>
      <trkpt lat="45.38785" lon="2.47867">
        <ele>672</ele>
        <time>2025-06-08T09:01:29.479Z</time>
      </trkpt>
      <trkpt lat="45.38785" lon="2.47867">
        <ele>672</ele>
        <time>2025-06-08T09:01:30.479Z</time>
      </trkpt>
      <trkpt lat="45.38785" lon="2.47867">
        <ele>672</ele>
        <time>2025-06-08T09:01:31.479Z</time>
      </trkpt>
      <trkpt lat="45.38785" lon="2.47867">
        <ele>672</ele>
        <time>2025-06-08T09:01:32.479Z</time>
      </trkpt>
      <trkpt lat="45.38785" lon="2.47867">
        <ele>672</ele>
        <time>2025-06-08T09:01:33.479Z</time>
      </trkpt>
      <trkpt lat="45.38785" lon="2.47867">
        <ele>672</ele>
        <time>2025-06-08T09:01:34.479Z</time>
      </trkpt>
      <trkpt lat="45.38785" lon="2.47867">
        <ele>672</ele>
        <time>2025-06-08T09:01:35.479Z</time>
      </trkpt>
      <trkpt lat="45.38785" lon="2.47867">
        <ele>672</ele>
        <time>2025-06-08T09:01:36.479Z</time>
      </trkpt>
      <trkpt lat="45.38785" lon="2.47867">
        <ele>672</ele>
        <time>2025-06-08T09:01:37.479Z</time>
      </trkpt>
      <trkpt lat="45.38785" lon="2.47867">
        <ele>672</ele>
        <time>2025-06-08T09:01:38.479Z</time>
      </trkpt>
      <trkpt lat="45.38785" lon="2.47867">
        <ele>671</ele>
        <time>2025-06-08T09:01:39.479Z</time>
      </trkpt>
      <trkpt lat="45.38785" lon="2.47867">
        <ele>671</ele>
        <time>2025-06-08T09:01:40.479Z</time>
      </trkpt>
      <trkpt lat="45.38785" lon="2.47867">
        <ele>671</ele>
        <time>2025-06-08T09:01:41.479Z</time>
      </trkpt>
      <trkpt lat="45.38785" lon="2.47868">
        <ele>671</ele>
        <time>2025-06-08T09:01:42.479Z</time>
      </trkpt>
      <trkpt lat="45.38785" lon="2.47867">
        <ele>670</ele>
        <time>2025-06-08T09:01:43.479Z</time>
      </trkpt>
      <trkpt lat="45.38785" lon="2.47868">
        <ele>670</ele>
        <time>2025-06-08T09:01:44.479Z</time>
      </trkpt>
      <trkpt lat="45.38785" lon="2.47868">
        <ele>669</ele>
        <time>2025-06-08T09:01:45.479Z</time>
      </trkpt>
      <trkpt lat="45.38786" lon="2.47868">
        <ele>669</ele>
        <time>2025-06-08T09:01:46.479Z</time>
      </trkpt>
      <trkpt lat="45.38786" lon="2.47869">
        <ele>669</ele>
        <time>2025-06-08T09:01:47.479Z</time>
      </trkpt>
      <trkpt lat="45.38787" lon="2.47869">
        <ele>669</ele>
        <time>2025-06-08T09:01:48.479Z</time>
      </trkpt>
      <trkpt lat="45.38787" lon="2.47869">
        <ele>669</ele>
        <time>2025-06-08T09:01:49.479Z</time>
      </trkpt>
      <trkpt lat="45.38788" lon="2.47869">
        <ele>669</ele>
        <time>2025-06-08T09:01:50.479Z</time>
      </trkpt>
      <trkpt lat="45.38788" lon="2.47869">
        <ele>669</ele>
        <time>2025-06-08T09:01:51.479Z</time>
      </trkpt>
      <trkpt lat="45.38788" lon="2.47869">
        <ele>669</ele>
        <time>2025-06-08T09:01:52.479Z</time>
      </trkpt>
      <trkpt lat="45.38788" lon="2.47869">
        <ele>669</ele>
        <time>2025-06-08T09:01:53.479Z</time>
      </trkpt>
      <trkpt lat="45.38789" lon="2.47869">
        <ele>670</ele>
        <time>2025-06-08T09:01:54.479Z</time>
      </trkpt>
      <trkpt lat="45.38789" lon="2.47869">
        <ele>670</ele>
        <time>2025-06-08T09:01:55.479Z</time>
      </trkpt>
      <trkpt lat="45.38789" lon="2.47869">
        <ele>671</ele>
        <time>2025-06-08T09:01:56.479Z</time>
      </trkpt>
      <trkpt lat="45.3879" lon="2.47869">
        <ele>671</ele>
        <time>2025-06-08T09:01:57.479Z</time>
      </trkpt>
      <trkpt lat="45.3879" lon="2.4787">
        <ele>671</ele>
        <time>2025-06-08T09:01:58.479Z</time>
      </trkpt>
      <trkpt lat="45.38791" lon="2.4787">
        <ele>671</ele>
        <time>2025-06-08T09:01:59.479Z</time>
      </trkpt>
      <trkpt lat="45.38791" lon="2.4787">
        <ele>672</ele>
        <time>2025-06-08T09:02:00.479Z</time>
      </trkpt>
      <trkpt lat="45.38792" lon="2.47871">
        <ele>672</ele>
        <time>2025-06-08T09:02:01.479Z</time>
      </trkpt>
      <trkpt lat="45.38792" lon="2.47871">
        <ele>672</ele>
        <time>2025-06-08T09:02:02.479Z</time>
      </trkpt>
      <trkpt lat="45.38792" lon="2.4787">
        <ele>672</ele>
        <time>2025-06-08T09:02:03.479Z</time>
      </trkpt>
      <trkpt lat="45.38792" lon="2.47869">
        <ele>672</ele>
        <time>2025-06-08T09:02:04.479Z</time>
      </trkpt>
      <trkpt lat="45.38792" lon="2.47869">
        <ele>672</ele>
        <time>2025-06-08T09:02:05.479Z</time>
      </trkpt>
      <trkpt lat="45.38792" lon="2.47868">
        <ele>672</ele>
        <time>2025-06-08T09:02:06.479Z</time>
      </trkpt>
      <trkpt lat="45.38792" lon="2.47867">
        <ele>672</ele>
        <time>2025-06-08T09:02:07.479Z</time>
      </trkpt>
      <trkpt lat="45.38791" lon="2.47866">
        <ele>672</ele>
        <time>2025-06-08T09:02:08.479Z</time>
      </trkpt>
      <trkpt lat="45.38791" lon="2.47865">
        <ele>673</ele>
        <time>2025-06-08T09:02:09.479Z</time>
      </trkpt>
      <trkpt lat="45.3879" lon="2.47864">
        <ele>673</ele>
        <time>2025-06-08T09:02:10.479Z</time>
      </trkpt>
      <trkpt lat="45.3879" lon="2.47863">
        <ele>673</ele>
        <time>2025-06-08T09:02:11.479Z</time>
      </trkpt>
      <trkpt lat="45.3879" lon="2.47862">
        <ele>673</ele>
        <time>2025-06-08T09:02:12.479Z</time>
      </trkpt>
      <trkpt lat="45.3879" lon="2.47861">
        <ele>673</ele>
        <time>2025-06-08T09:02:13.479Z</time>
      </trkpt>
      <trkpt lat="45.38789" lon="2.47861">
        <ele>674</ele>
        <time>2025-06-08T09:02:14.479Z</time>
      </trkpt>
      <trkpt lat="45.38788" lon="2.4786">
        <ele>674</ele>
        <time>2025-06-08T09:02:15.479Z</time>
      </trkpt>
      <trkpt lat="45.38788" lon="2.47859">
        <ele>675</ele>
        <time>2025-06-08T09:02:16.479Z</time>
      </trkpt>
      <trkpt lat="45.38787" lon="2.47858">
        <ele>675</ele>
        <time>2025-06-08T09:02:17.479Z</time>
      </trkpt>
      <trkpt lat="45.38787" lon="2.47857">
        <ele>676</ele>
        <time>2025-06-08T09:02:18.479Z</time>
      </trkpt>
      <trkpt lat="45.38786" lon="2.47856">
        <ele>676</ele>
        <time>2025-06-08T09:02:19.479Z</time>
      </trkpt>
      <trkpt lat="45.38786" lon="2.47855">
        <ele>676</ele>
        <time>2025-06-08T09:02:20.479Z</time>
      </trkpt>
      <trkpt lat="45.38786" lon="2.47854">
        <ele>676</ele>
        <time>2025-06-08T09:02:21.479Z</time>
      </trkpt>
      <trkpt lat="45.38785" lon="2.47853">
        <ele>676</ele>
        <time>2025-06-08T09:02:22.479Z</time>
      </trkpt>
      <trkpt lat="45.38785" lon="2.47851">
        <ele>676</ele>
        <time>2025-06-08T09:02:23.479Z</time>
      </trkpt>
      <trkpt lat="45.38784" lon="2.47849">
        <ele>675</ele>
        <time>2025-06-08T09:02:24.479Z</time>
      </trkpt>
      <trkpt lat="45.38784" lon="2.47848">
        <ele>675</ele>
        <time>2025-06-08T09:02:25.479Z</time>
      </trkpt>
      <trkpt lat="45.38784" lon="2.47846">
        <ele>675</ele>
        <time>2025-06-08T09:02:26.479Z</time>
      </trkpt>
      <trkpt lat="45.38784" lon="2.47846">
        <ele>675</ele>
        <time>2025-06-08T09:02:27.479Z</time>
      </trkpt>
      <trkpt lat="45.38784" lon="2.47845">
        <ele>675</ele>
        <time>2025-06-08T09:02:28.479Z</time>
      </trkpt>
      <trkpt lat="45.38783" lon="2.47844">
        <ele>675</ele>
        <time>2025-06-08T09:02:29.479Z</time>
      </trkpt>
      <trkpt lat="45.38783" lon="2.47842">
        <ele>675</ele>
        <time>2025-06-08T09:02:30.479Z</time>
      </trkpt>
      <trkpt lat="45.38782" lon="2.47841">
        <ele>675</ele>
        <time>2025-06-08T09:02:31.479Z</time>
      </trkpt>
      <trkpt lat="45.38782" lon="2.4784">
        <ele>675</ele>
        <time>2025-06-08T09:02:32.479Z</time>
      </trkpt>
      <trkpt lat="45.38781" lon="2.47839">
        <ele>675</ele>
        <time>2025-06-08T09:02:33.479Z</time>
      </trkpt>
      <trkpt lat="45.38781" lon="2.47839">
        <ele>675</ele>
        <time>2025-06-08T09:02:34.479Z</time>
      </trkpt>
      <trkpt lat="45.38781" lon="2.47838">
        <ele>675</ele>
        <time>2025-06-08T09:02:35.479Z</time>
      </trkpt>
      <trkpt lat="45.38781" lon="2.47837">
        <ele>675</ele>
        <time>2025-06-08T09:02:36.479Z</time>
      </trkpt>
      <trkpt lat="45.38781" lon="2.47836">
        <ele>675</ele>
        <time>2025-06-08T09:02:37.479Z</time>
      </trkpt>
      <trkpt lat="45.38781" lon="2.47835">
        <ele>675</ele>
        <time>2025-06-08T09:02:38.479Z</time>
      </trkpt>
      <trkpt lat="45.38781" lon="2.47835">
        <ele>675</ele>
        <time>2025-06-08T09:02:39.479Z</time>
      </trkpt>
      <trkpt lat="45.3878" lon="2.47834">
        <ele>675</ele>
        <time>2025-06-08T09:02:40.479Z</time>
      </trkpt>
      <trkpt lat="45.3878" lon="2.47833">
        <ele>676</ele>
        <time>2025-06-08T09:02:41.479Z</time>
      </trkpt>
      <trkpt lat="45.3878" lon="2.47833">
        <ele>676</ele>
        <time>2025-06-08T09:02:42.479Z</time>
      </trkpt>
      <trkpt lat="45.38779" lon="2.47832">
        <ele>676</ele>
        <time>2025-06-08T09:02:43.479Z</time>
      </trkpt>
      <trkpt lat="45.38778" lon="2.47831">
        <ele>676</ele>
        <time>2025-06-08T09:02:44.479Z</time>
      </trkpt>
      <trkpt lat="45.38778" lon="2.4783">
        <ele>676</ele>
        <time>2025-06-08T09:02:45.479Z</time>
      </trkpt>
      <trkpt lat="45.38778" lon="2.47828">
        <ele>676</ele>
        <time>2025-06-08T09:02:46.479Z</time>
      </trkpt>
      <trkpt lat="45.38778" lon="2.47826">
        <ele>676</ele>
        <time>2025-06-08T09:02:47.479Z</time>
      </trkpt>
      <trkpt lat="45.38777" lon="2.47825">
        <ele>676</ele>
        <time>2025-06-08T09:02:48.479Z</time>
      </trkpt>
      <trkpt lat="45.38776" lon="2.47824">
        <ele>676</ele>
        <time>2025-06-08T09:02:49.479Z</time>
      </trkpt>
      <trkpt lat="45.38776" lon="2.47822">
        <ele>675</ele>
        <time>2025-06-08T09:02:50.479Z</time>
      </trkpt>
      <trkpt lat="45.38775" lon="2.47821">
        <ele>675</ele>
        <time>2025-06-08T09:02:51.479Z</time>
      </trkpt>
      <trkpt lat="45.38774" lon="2.4782">
        <ele>675</ele>
        <time>2025-06-08T09:02:52.479Z</time>
      </trkpt>
      <trkpt lat="45.38774" lon="2.47819">
        <ele>675</ele>
        <time>2025-06-08T09:02:53.479Z</time>
      </trkpt>
      <trkpt lat="45.38774" lon="2.47818">
        <ele>675</ele>
        <time>2025-06-08T09:02:54.479Z</time>
      </trkpt>
      <trkpt lat="45.38773" lon="2.47815">
        <ele>675</ele>
        <time>2025-06-08T09:02:55.479Z</time>
      </trkpt>
      <trkpt lat="45.38773" lon="2.47813">
        <ele>675</ele>
        <time>2025-06-08T09:02:56.479Z</time>
      </trkpt>
      <trkpt lat="45.38773" lon="2.47811">
        <ele>675</ele>
        <time>2025-06-08T09:02:57.479Z</time>
      </trkpt>
      <trkpt lat="45.38772" lon="2.4781">
        <ele>675</ele>
        <time>2025-06-08T09:02:58.479Z</time>
      </trkpt>
      <trkpt lat="45.38771" lon="2.47809">
        <ele>675</ele>
        <time>2025-06-08T09:02:59.479Z</time>
      </trkpt>
      <trkpt lat="45.38771" lon="2.47807">
        <ele>676</ele>
        <time>2025-06-08T09:03:00.479Z</time>
      </trkpt>
      <trkpt lat="45.38771" lon="2.47806">
        <ele>676</ele>
        <time>2025-06-08T09:03:01.479Z</time>
      </trkpt>
      <trkpt lat="45.38771" lon="2.47804">
        <ele>676</ele>
        <time>2025-06-08T09:03:02.479Z</time>
      </trkpt>
      <trkpt lat="45.38771" lon="2.47803">
        <ele>676</ele>
        <time>2025-06-08T09:03:03.479Z</time>
      </trkpt>
      <trkpt lat="45.3877" lon="2.47801">
        <ele>676</ele>
        <time>2025-06-08T09:03:04.479Z</time>
      </trkpt>
      <trkpt lat="45.3877" lon="2.478">
        <ele>676</ele>
        <time>2025-06-08T09:03:05.479Z</time>
      </trkpt>
      <trkpt lat="45.3877" lon="2.47798">
        <ele>676</ele>
        <time>2025-06-08T09:03:06.479Z</time>
      </trkpt>
      <trkpt lat="45.3877" lon="2.47797">
        <ele>676</ele>
        <time>2025-06-08T09:03:07.479Z</time>
      </trkpt>
      <trkpt lat="45.3877" lon="2.47796">
        <ele>676</ele>
        <time>2025-06-08T09:03:08.479Z</time>
      </trkpt>
      <trkpt lat="45.3877" lon="2.47794">
        <ele>677</ele>
        <time>2025-06-08T09:03:09.479Z</time>
      </trkpt>
      <trkpt lat="45.3877" lon="2.47793">
        <ele>677</ele>
        <time>2025-06-08T09:03:10.479Z</time>
      </trkpt>
      <trkpt lat="45.3877" lon="2.47793">
        <ele>677</ele>
        <time>2025-06-08T09:03:11.479Z</time>
      </trkpt>
      <trkpt lat="45.3877" lon="2.47792">
        <ele>677</ele>
        <time>2025-06-08T09:03:12.479Z</time>
      </trkpt>
      <trkpt lat="45.3877" lon="2.47791">
        <ele>677</ele>
        <time>2025-06-08T09:03:13.479Z</time>
      </trkpt>
      <trkpt lat="45.38769" lon="2.47789">
        <ele>678</ele>
        <time>2025-06-08T09:03:14.479Z</time>
      </trkpt>
      <trkpt lat="45.38769" lon="2.47787">
        <ele>678</ele>
        <time>2025-06-08T09:03:15.479Z</time>
      </trkpt>
      <trkpt lat="45.3877" lon="2.47786">
        <ele>678</ele>
        <time>2025-06-08T09:03:16.479Z</time>
      </trkpt>
      <trkpt lat="45.3877" lon="2.47784">
        <ele>678</ele>
        <time>2025-06-08T09:03:17.479Z</time>
      </trkpt>
      <trkpt lat="45.3877" lon="2.47782">
        <ele>679</ele>
        <time>2025-06-08T09:03:18.479Z</time>
      </trkpt>
      <trkpt lat="45.3877" lon="2.47781">
        <ele>679</ele>
        <time>2025-06-08T09:03:19.479Z</time>
      </trkpt>
      <trkpt lat="45.38771" lon="2.47779">
        <ele>680</ele>
        <time>2025-06-08T09:03:20.479Z</time>
      </trkpt>
      <trkpt lat="45.38771" lon="2.47777">
        <ele>680</ele>
        <time>2025-06-08T09:03:21.479Z</time>
      </trkpt>
      <trkpt lat="45.38772" lon="2.47776">
        <ele>681</ele>
        <time>2025-06-08T09:03:22.479Z</time>
      </trkpt>
      <trkpt lat="45.38772" lon="2.47776">
        <ele>681</ele>
        <time>2025-06-08T09:03:23.479Z</time>
      </trkpt>
      <trkpt lat="45.38773" lon="2.47775">
        <ele>682</ele>
        <time>2025-06-08T09:03:24.479Z</time>
      </trkpt>
      <trkpt lat="45.38773" lon="2.47774">
        <ele>682</ele>
        <time>2025-06-08T09:03:25.479Z</time>
      </trkpt>
      <trkpt lat="45.38773" lon="2.47773">
        <ele>683</ele>
        <time>2025-06-08T09:03:26.479Z</time>
      </trkpt>
      <trkpt lat="45.38773" lon="2.47771">
        <ele>683</ele>
        <time>2025-06-08T09:03:27.479Z</time>
      </trkpt>
      <trkpt lat="45.38774" lon="2.4777">
        <ele>683</ele>
        <time>2025-06-08T09:03:28.479Z</time>
      </trkpt>
      <trkpt lat="45.38774" lon="2.47768">
        <ele>683</ele>
        <time>2025-06-08T09:03:29.479Z</time>
      </trkpt>
      <trkpt lat="45.38775" lon="2.47767">
        <ele>684</ele>
        <time>2025-06-08T09:03:30.479Z</time>
      </trkpt>
      <trkpt lat="45.38775" lon="2.47765">
        <ele>683</ele>
        <time>2025-06-08T09:03:31.479Z</time>
      </trkpt>
      <trkpt lat="45.38776" lon="2.47762">
        <ele>683</ele>
        <time>2025-06-08T09:03:32.479Z</time>
      </trkpt>
      <trkpt lat="45.38777" lon="2.4776">
        <ele>683</ele>
        <time>2025-06-08T09:03:33.479Z</time>
      </trkpt>
      <trkpt lat="45.38778" lon="2.47758">
        <ele>682</ele>
        <time>2025-06-08T09:03:34.479Z</time>
      </trkpt>
      <trkpt lat="45.38778" lon="2.47756">
        <ele>682</ele>
        <time>2025-06-08T09:03:35.479Z</time>
      </trkpt>
      <trkpt lat="45.38779" lon="2.47754">
        <ele>682</ele>
        <time>2025-06-08T09:03:36.479Z</time>
      </trkpt>
      <trkpt lat="45.3878" lon="2.47753">
        <ele>682</ele>
        <time>2025-06-08T09:03:37.479Z</time>
      </trkpt>
      <trkpt lat="45.3878" lon="2.47752">
        <ele>682</ele>
        <time>2025-06-08T09:03:38.479Z</time>
      </trkpt>
      <trkpt lat="45.38781" lon="2.47751">
        <ele>681</ele>
        <time>2025-06-08T09:03:39.479Z</time>
      </trkpt>
      <trkpt lat="45.38781" lon="2.47749">
        <ele>681</ele>
        <time>2025-06-08T09:03:40.479Z</time>
      </trkpt>
      <trkpt lat="45.38781" lon="2.47748">
        <ele>681</ele>
        <time>2025-06-08T09:03:41.479Z</time>
      </trkpt>
      <trkpt lat="45.38781" lon="2.47747">
        <ele>681</ele>
        <time>2025-06-08T09:03:42.479Z</time>
      </trkpt>
      <trkpt lat="45.38782" lon="2.47746">
        <ele>681</ele>
        <time>2025-06-08T09:03:43.479Z</time>
      </trkpt>
      <trkpt lat="45.38782" lon="2.47744">
        <ele>681</ele>
        <time>2025-06-08T09:03:44.479Z</time>
      </trkpt>
      <trkpt lat="45.38782" lon="2.47743">
        <ele>681</ele>
        <time>2025-06-08T09:03:45.479Z</time>
      </trkpt>
      <trkpt lat="45.38783" lon="2.47742">
        <ele>681</ele>
        <time>2025-06-08T09:03:46.479Z</time>
      </trkpt>
      <trkpt lat="45.38783" lon="2.47742">
        <ele>681</ele>
        <time>2025-06-08T09:03:47.479Z</time>
      </trkpt>
      <trkpt lat="45.38783" lon="2.47741">
        <ele>682</ele>
        <time>2025-06-08T09:03:48.479Z</time>
      </trkpt>
      <trkpt lat="45.38783" lon="2.47739">
        <ele>683</ele>
        <time>2025-06-08T09:03:49.479Z</time>
      </trkpt>
      <trkpt lat="45.38784" lon="2.47738">
        <ele>683</ele>
        <time>2025-06-08T09:03:50.479Z</time>
      </trkpt>
      <trkpt lat="45.38784" lon="2.47738">
        <ele>683</ele>
        <time>2025-06-08T09:03:51.479Z</time>
      </trkpt>
      <trkpt lat="45.38784" lon="2.47738">
        <ele>683</ele>
        <time>2025-06-08T09:03:52.479Z</time>
      </trkpt>
      <trkpt lat="45.38784" lon="2.47737">
        <ele>683</ele>
        <time>2025-06-08T09:03:53.479Z</time>
      </trkpt>
      <trkpt lat="45.38785" lon="2.47737">
        <ele>683</ele>
        <time>2025-06-08T09:03:54.479Z</time>
      </trkpt>
      <trkpt lat="45.38785" lon="2.47737">
        <ele>683</ele>
        <time>2025-06-08T09:03:55.479Z</time>
      </trkpt>
      <trkpt lat="45.38785" lon="2.47737">
        <ele>683</ele>
        <time>2025-06-08T09:03:56.479Z</time>
      </trkpt>
      <trkpt lat="45.38786" lon="2.47737">
        <ele>683</ele>
        <time>2025-06-08T09:03:57.479Z</time>
      </trkpt>
      <trkpt lat="45.38786" lon="2.47737">
        <ele>683</ele>
        <time>2025-06-08T09:03:58.479Z</time>
      </trkpt>
      <trkpt lat="45.38787" lon="2.47736">
        <ele>684</ele>
        <time>2025-06-08T09:03:59.479Z</time>
      </trkpt>
      <trkpt lat="45.38787" lon="2.47736">
        <ele>685</ele>
        <time>2025-06-08T09:04:00.479Z</time>
      </trkpt>
      <trkpt lat="45.38787" lon="2.47733">
        <ele>686</ele>
        <time>2025-06-08T09:04:01.479Z</time>
      </trkpt>
      <trkpt lat="45.38787" lon="2.47731">
        <ele>686</ele>
        <time>2025-06-08T09:04:02.479Z</time>
      </trkpt>
      <trkpt lat="45.38788" lon="2.47729">
        <ele>687</ele>
        <time>2025-06-08T09:04:03.479Z</time>
      </trkpt>
      <trkpt lat="45.3879" lon="2.47727">
        <ele>688</ele>
        <time>2025-06-08T09:04:04.479Z</time>
      </trkpt>
      <trkpt lat="45.38791" lon="2.47726">
        <ele>688</ele>
        <time>2025-06-08T09:04:05.479Z</time>
      </trkpt>
      <trkpt lat="45.38792" lon="2.47725">
        <ele>688</ele>
        <time>2025-06-08T09:04:06.479Z</time>
      </trkpt>
      <trkpt lat="45.38794" lon="2.47724">
        <ele>689</ele>
        <time>2025-06-08T09:04:07.479Z</time>
      </trkpt>
      <trkpt lat="45.38795" lon="2.47722">
        <ele>689</ele>
        <time>2025-06-08T09:04:08.479Z</time>
      </trkpt>
      <trkpt lat="45.38796" lon="2.47721">
        <ele>689</ele>
        <time>2025-06-08T09:04:09.479Z</time>
      </trkpt>
      <trkpt lat="45.38796" lon="2.4772">
        <ele>689</ele>
        <time>2025-06-08T09:04:10.479Z</time>
      </trkpt>
      <trkpt lat="45.38797" lon="2.47719">
        <ele>689</ele>
        <time>2025-06-08T09:04:11.479Z</time>
      </trkpt>
      <trkpt lat="45.38798" lon="2.47718">
        <ele>689</ele>
        <time>2025-06-08T09:04:12.479Z</time>
      </trkpt>
      <trkpt lat="45.38799" lon="2.47716">
        <ele>689</ele>
        <time>2025-06-08T09:04:13.479Z</time>
      </trkpt>
      <trkpt lat="45.38799" lon="2.47714">
        <ele>689</ele>
        <time>2025-06-08T09:04:14.479Z</time>
      </trkpt>
      <trkpt lat="45.388" lon="2.47712">
        <ele>689</ele>
        <time>2025-06-08T09:04:15.479Z</time>
      </trkpt>
      <trkpt lat="45.38801" lon="2.4771">
        <ele>689</ele>
        <time>2025-06-08T09:04:16.479Z</time>
      </trkpt>
      <trkpt lat="45.38802" lon="2.47708">
        <ele>689</ele>
        <time>2025-06-08T09:04:17.479Z</time>
      </trkpt>
      <trkpt lat="45.38802" lon="2.47707">
        <ele>689</ele>
        <time>2025-06-08T09:04:18.479Z</time>
      </trkpt>
      <trkpt lat="45.38803" lon="2.47705">
        <ele>689</ele>
        <time>2025-06-08T09:04:19.479Z</time>
      </trkpt>
      <trkpt lat="45.38803" lon="2.47704">
        <ele>690</ele>
        <time>2025-06-08T09:04:20.479Z</time>
      </trkpt>
      <trkpt lat="45.38804" lon="2.47703">
        <ele>690</ele>
        <time>2025-06-08T09:04:21.479Z</time>
      </trkpt>
      <trkpt lat="45.38804" lon="2.47703">
        <ele>690</ele>
        <time>2025-06-08T09:04:22.479Z</time>
      </trkpt>
      <trkpt lat="45.38805" lon="2.47701">
        <ele>690</ele>
        <time>2025-06-08T09:04:23.479Z</time>
      </trkpt>
      <trkpt lat="45.38805" lon="2.477">
        <ele>689</ele>
        <time>2025-06-08T09:04:24.479Z</time>
      </trkpt>
      <trkpt lat="45.38806" lon="2.47699">
        <ele>690</ele>
        <time>2025-06-08T09:04:25.479Z</time>
      </trkpt>
      <trkpt lat="45.38806" lon="2.47699">
        <ele>690</ele>
        <time>2025-06-08T09:04:26.479Z</time>
      </trkpt>
      <trkpt lat="45.38807" lon="2.47698">
        <ele>690</ele>
        <time>2025-06-08T09:04:27.479Z</time>
      </trkpt>
      <trkpt lat="45.38808" lon="2.47698">
        <ele>690</ele>
        <time>2025-06-08T09:04:28.479Z</time>
      </trkpt>
      <trkpt lat="45.38808" lon="2.47697">
        <ele>690</ele>
        <time>2025-06-08T09:04:29.479Z</time>
      </trkpt>
      <trkpt lat="45.38809" lon="2.47696">
        <ele>690</ele>
        <time>2025-06-08T09:04:30.479Z</time>
      </trkpt>
      <trkpt lat="45.3881" lon="2.47694">
        <ele>690</ele>
        <time>2025-06-08T09:04:31.479Z</time>
      </trkpt>
      <trkpt lat="45.3881" lon="2.47693">
        <ele>691</ele>
        <time>2025-06-08T09:04:32.479Z</time>
      </trkpt>
      <trkpt lat="45.3881" lon="2.47691">
        <ele>691</ele>
        <time>2025-06-08T09:04:33.479Z</time>
      </trkpt>
      <trkpt lat="45.38811" lon="2.4769">
        <ele>692</ele>
        <time>2025-06-08T09:04:34.479Z</time>
      </trkpt>
      <trkpt lat="45.38811" lon="2.47688">
        <ele>692</ele>
        <time>2025-06-08T09:04:35.479Z</time>
      </trkpt>
      <trkpt lat="45.38812" lon="2.47687">
        <ele>692</ele>
        <time>2025-06-08T09:04:36.479Z</time>
      </trkpt>
      <trkpt lat="45.38813" lon="2.47687">
        <ele>693</ele>
        <time>2025-06-08T09:04:37.479Z</time>
      </trkpt>
      <trkpt lat="45.38815" lon="2.47686">
        <ele>693</ele>
        <time>2025-06-08T09:04:38.479Z</time>
      </trkpt>
      <trkpt lat="45.38816" lon="2.47686">
        <ele>693</ele>
        <time>2025-06-08T09:04:39.479Z</time>
      </trkpt>
      <trkpt lat="45.38818" lon="2.47685">
        <ele>693</ele>
        <time>2025-06-08T09:04:40.479Z</time>
      </trkpt>
      <trkpt lat="45.38819" lon="2.47684">
        <ele>693</ele>
        <time>2025-06-08T09:04:41.479Z</time>
      </trkpt>
      <trkpt lat="45.3882" lon="2.47683">
        <ele>694</ele>
        <time>2025-06-08T09:04:42.479Z</time>
      </trkpt>
      <trkpt lat="45.38821" lon="2.47682">
        <ele>694</ele>
        <time>2025-06-08T09:04:43.479Z</time>
      </trkpt>
      <trkpt lat="45.38822" lon="2.47682">
        <ele>694</ele>
        <time>2025-06-08T09:04:44.479Z</time>
      </trkpt>
      <trkpt lat="45.38824" lon="2.47681">
        <ele>695</ele>
        <time>2025-06-08T09:04:45.479Z</time>
      </trkpt>
      <trkpt lat="45.38824" lon="2.4768">
        <ele>695</ele>
        <time>2025-06-08T09:04:46.479Z</time>
      </trkpt>
      <trkpt lat="45.38825" lon="2.47679">
        <ele>695</ele>
        <time>2025-06-08T09:04:47.479Z</time>
      </trkpt>
      <trkpt lat="45.38826" lon="2.47678">
        <ele>695</ele>
        <time>2025-06-08T09:04:48.479Z</time>
      </trkpt>
      <trkpt lat="45.38827" lon="2.47677">
        <ele>696</ele>
        <time>2025-06-08T09:04:49.479Z</time>
      </trkpt>
      <trkpt lat="45.38828" lon="2.47676">
        <ele>696</ele>
        <time>2025-06-08T09:04:50.479Z</time>
      </trkpt>
      <trkpt lat="45.38828" lon="2.47675">
        <ele>696</ele>
        <time>2025-06-08T09:04:51.479Z</time>
      </trkpt>
      <trkpt lat="45.38829" lon="2.47675">
        <ele>696</ele>
        <time>2025-06-08T09:04:52.479Z</time>
      </trkpt>
      <trkpt lat="45.38829" lon="2.47673">
        <ele>696</ele>
        <time>2025-06-08T09:04:53.479Z</time>
      </trkpt>
      <trkpt lat="45.38831" lon="2.47673">
        <ele>696</ele>
        <time>2025-06-08T09:04:54.479Z</time>
      </trkpt>
      <trkpt lat="45.38832" lon="2.47673">
        <ele>696</ele>
        <time>2025-06-08T09:04:55.479Z</time>
      </trkpt>
      <trkpt lat="45.38833" lon="2.47673">
        <ele>697</ele>
        <time>2025-06-08T09:04:56.479Z</time>
      </trkpt>
      <trkpt lat="45.38833" lon="2.47672">
        <ele>697</ele>
        <time>2025-06-08T09:04:57.479Z</time>
      </trkpt>
      <trkpt lat="45.38833" lon="2.47671">
        <ele>697</ele>
        <time>2025-06-08T09:04:58.479Z</time>
      </trkpt>
      <trkpt lat="45.38833" lon="2.47671">
        <ele>697</ele>
        <time>2025-06-08T09:04:59.479Z</time>
      </trkpt>
      <trkpt lat="45.38834" lon="2.4767">
        <ele>698</ele>
        <time>2025-06-08T09:05:00.479Z</time>
      </trkpt>
      <trkpt lat="45.38834" lon="2.4767">
        <ele>698</ele>
        <time>2025-06-08T09:05:01.479Z</time>
      </trkpt>
      <trkpt lat="45.38835" lon="2.47669">
        <ele>698</ele>
        <time>2025-06-08T09:05:02.479Z</time>
      </trkpt>
      <trkpt lat="45.38837" lon="2.47669">
        <ele>698</ele>
        <time>2025-06-08T09:05:03.479Z</time>
      </trkpt>
      <trkpt lat="45.38838" lon="2.47669">
        <ele>699</ele>
        <time>2025-06-08T09:05:04.479Z</time>
      </trkpt>
      <trkpt lat="45.38839" lon="2.47668">
        <ele>699</ele>
        <time>2025-06-08T09:05:05.479Z</time>
      </trkpt>
      <trkpt lat="45.38839" lon="2.47668">
        <ele>699</ele>
        <time>2025-06-08T09:05:06.479Z</time>
      </trkpt>
      <trkpt lat="45.3884" lon="2.47668">
        <ele>700</ele>
        <time>2025-06-08T09:05:07.479Z</time>
      </trkpt>
      <trkpt lat="45.38841" lon="2.47668">
        <ele>700</ele>
        <time>2025-06-08T09:05:08.479Z</time>
      </trkpt>
      <trkpt lat="45.38842" lon="2.47668">
        <ele>700</ele>
        <time>2025-06-08T09:05:09.479Z</time>
      </trkpt>
      <trkpt lat="45.38842" lon="2.47668">
        <ele>700</ele>
        <time>2025-06-08T09:05:10.479Z</time>
      </trkpt>
      <trkpt lat="45.38843" lon="2.47668">
        <ele>700</ele>
        <time>2025-06-08T09:05:11.479Z</time>
      </trkpt>
      <trkpt lat="45.38843" lon="2.47668">
        <ele>700</ele>
        <time>2025-06-08T09:05:12.479Z</time>
      </trkpt>
      <trkpt lat="45.38844" lon="2.47667">
        <ele>700</ele>
        <time>2025-06-08T09:05:13.479Z</time>
      </trkpt>
      <trkpt lat="45.38845" lon="2.47667">
        <ele>699</ele>
        <time>2025-06-08T09:05:14.479Z</time>
      </trkpt>
      <trkpt lat="45.38846" lon="2.47668">
        <ele>699</ele>
        <time>2025-06-08T09:05:15.479Z</time>
      </trkpt>
      <trkpt lat="45.38848" lon="2.47667">
        <ele>699</ele>
        <time>2025-06-08T09:05:16.479Z</time>
      </trkpt>
      <trkpt lat="45.3885" lon="2.47667">
        <ele>699</ele>
        <time>2025-06-08T09:05:17.479Z</time>
      </trkpt>
      <trkpt lat="45.38851" lon="2.47667">
        <ele>698</ele>
        <time>2025-06-08T09:05:18.479Z</time>
      </trkpt>
      <trkpt lat="45.38853" lon="2.47668">
        <ele>698</ele>
        <time>2025-06-08T09:05:19.479Z</time>
      </trkpt>
      <trkpt lat="45.38855" lon="2.47668">
        <ele>698</ele>
        <time>2025-06-08T09:05:20.479Z</time>
      </trkpt>
      <trkpt lat="45.38856" lon="2.47669">
        <ele>698</ele>
        <time>2025-06-08T09:05:21.479Z</time>
      </trkpt>
      <trkpt lat="45.38857" lon="2.4767">
        <ele>698</ele>
        <time>2025-06-08T09:05:22.479Z</time>
      </trkpt>
      <trkpt lat="45.38858" lon="2.4767">
        <ele>698</ele>
        <time>2025-06-08T09:05:23.479Z</time>
      </trkpt>
      <trkpt lat="45.38858" lon="2.4767">
        <ele>698</ele>
        <time>2025-06-08T09:05:24.479Z</time>
      </trkpt>
      <trkpt lat="45.38859" lon="2.4767">
        <ele>698</ele>
        <time>2025-06-08T09:05:25.479Z</time>
      </trkpt>
      <trkpt lat="45.3886" lon="2.47669">
        <ele>699</ele>
        <time>2025-06-08T09:05:26.479Z</time>
      </trkpt>
      <trkpt lat="45.38861" lon="2.47669">
        <ele>699</ele>
        <time>2025-06-08T09:05:27.479Z</time>
      </trkpt>
      <trkpt lat="45.38861" lon="2.4767">
        <ele>699</ele>
        <time>2025-06-08T09:05:28.479Z</time>
      </trkpt>
      <trkpt lat="45.38862" lon="2.4767">
        <ele>700</ele>
        <time>2025-06-08T09:05:29.479Z</time>
      </trkpt>
      <trkpt lat="45.38862" lon="2.4767">
        <ele>700</ele>
        <time>2025-06-08T09:05:30.479Z</time>
      </trkpt>
      <trkpt lat="45.38862" lon="2.47669">
        <ele>701</ele>
        <time>2025-06-08T09:05:31.479Z</time>
      </trkpt>
      <trkpt lat="45.38863" lon="2.47669">
        <ele>702</ele>
        <time>2025-06-08T09:05:32.479Z</time>
      </trkpt>
      <trkpt lat="45.38863" lon="2.4767">
        <ele>702</ele>
        <time>2025-06-08T09:05:33.479Z</time>
      </trkpt>
      <trkpt lat="45.38864" lon="2.47669">
        <ele>703</ele>
        <time>2025-06-08T09:05:34.479Z</time>
      </trkpt>
      <trkpt lat="45.38865" lon="2.47669">
        <ele>703</ele>
        <time>2025-06-08T09:05:35.479Z</time>
      </trkpt>
      <trkpt lat="45.38866" lon="2.47669">
        <ele>704</ele>
        <time>2025-06-08T09:05:36.479Z</time>
      </trkpt>
      <trkpt lat="45.38867" lon="2.47669">
        <ele>704</ele>
        <time>2025-06-08T09:05:37.479Z</time>
      </trkpt>
      <trkpt lat="45.38868" lon="2.47669">
        <ele>704</ele>
        <time>2025-06-08T09:05:38.479Z</time>
      </trkpt>
      <trkpt lat="45.38869" lon="2.47667">
        <ele>705</ele>
        <time>2025-06-08T09:05:39.479Z</time>
      </trkpt>
      <trkpt lat="45.38869" lon="2.47667">
        <ele>705</ele>
        <time>2025-06-08T09:05:40.479Z</time>
      </trkpt>
      <trkpt lat="45.3887" lon="2.47668">
        <ele>705</ele>
        <time>2025-06-08T09:05:41.479Z</time>
      </trkpt>
      <trkpt lat="45.38872" lon="2.47668">
        <ele>705</ele>
        <time>2025-06-08T09:05:42.479Z</time>
      </trkpt>
      <trkpt lat="45.38873" lon="2.47668">
        <ele>706</ele>
        <time>2025-06-08T09:05:43.479Z</time>
      </trkpt>
      <trkpt lat="45.38874" lon="2.47668">
        <ele>706</ele>
        <time>2025-06-08T09:05:44.479Z</time>
      </trkpt>
      <trkpt lat="45.38875" lon="2.47669">
        <ele>706</ele>
        <time>2025-06-08T09:05:45.479Z</time>
      </trkpt>
      <trkpt lat="45.38875" lon="2.47668">
        <ele>707</ele>
        <time>2025-06-08T09:05:46.479Z</time>
      </trkpt>
      <trkpt lat="45.38876" lon="2.47668">
        <ele>707</ele>
        <time>2025-06-08T09:05:47.479Z</time>
      </trkpt>
      <trkpt lat="45.38876" lon="2.47667">
        <ele>707</ele>
        <time>2025-06-08T09:05:48.479Z</time>
      </trkpt>
      <trkpt lat="45.38877" lon="2.47667">
        <ele>707</ele>
        <time>2025-06-08T09:05:49.479Z</time>
      </trkpt>
      <trkpt lat="45.38878" lon="2.47666">
        <ele>707</ele>
        <time>2025-06-08T09:05:50.479Z</time>
      </trkpt>
      <trkpt lat="45.3888" lon="2.47664">
        <ele>707</ele>
        <time>2025-06-08T09:05:51.479Z</time>
      </trkpt>
      <trkpt lat="45.38882" lon="2.47663">
        <ele>707</ele>
        <time>2025-06-08T09:05:52.479Z</time>
      </trkpt>
      <trkpt lat="45.38884" lon="2.47662">
        <ele>707</ele>
        <time>2025-06-08T09:05:53.479Z</time>
      </trkpt>
      <trkpt lat="45.38886" lon="2.47661">
        <ele>707</ele>
        <time>2025-06-08T09:05:54.479Z</time>
      </trkpt>
      <trkpt lat="45.38886" lon="2.47661">
        <ele>706</ele>
        <time>2025-06-08T09:05:55.479Z</time>
      </trkpt>
      <trkpt lat="45.38887" lon="2.4766">
        <ele>706</ele>
        <time>2025-06-08T09:05:56.479Z</time>
      </trkpt>
      <trkpt lat="45.38888" lon="2.4766">
        <ele>706</ele>
        <time>2025-06-08T09:05:57.479Z</time>
      </trkpt>
      <trkpt lat="45.38889" lon="2.47659">
        <ele>706</ele>
        <time>2025-06-08T09:05:58.479Z</time>
      </trkpt>
      <trkpt lat="45.3889" lon="2.4766">
        <ele>705</ele>
        <time>2025-06-08T09:05:59.479Z</time>
      </trkpt>
      <trkpt lat="45.38892" lon="2.47659">
        <ele>705</ele>
        <time>2025-06-08T09:06:00.479Z</time>
      </trkpt>
      <trkpt lat="45.38894" lon="2.47659">
        <ele>705</ele>
        <time>2025-06-08T09:06:01.479Z</time>
      </trkpt>
      <trkpt lat="45.38895" lon="2.47659">
        <ele>705</ele>
        <time>2025-06-08T09:06:02.479Z</time>
      </trkpt>
      <trkpt lat="45.38896" lon="2.47659">
        <ele>705</ele>
        <time>2025-06-08T09:06:03.479Z</time>
      </trkpt>
      <trkpt lat="45.38898" lon="2.47658">
        <ele>705</ele>
        <time>2025-06-08T09:06:04.479Z</time>
      </trkpt>
      <trkpt lat="45.38899" lon="2.47658">
        <ele>705</ele>
        <time>2025-06-08T09:06:05.479Z</time>
      </trkpt>
      <trkpt lat="45.389" lon="2.47657">
        <ele>706</ele>
        <time>2025-06-08T09:06:06.479Z</time>
      </trkpt>
      <trkpt lat="45.38901" lon="2.47656">
        <ele>706</ele>
        <time>2025-06-08T09:06:07.479Z</time>
      </trkpt>
      <trkpt lat="45.38902" lon="2.47654">
        <ele>706</ele>
        <time>2025-06-08T09:06:08.479Z</time>
      </trkpt>
      <trkpt lat="45.38903" lon="2.47652">
        <ele>706</ele>
        <time>2025-06-08T09:06:09.479Z</time>
      </trkpt>
      <trkpt lat="45.38903" lon="2.47651">
        <ele>707</ele>
        <time>2025-06-08T09:06:10.479Z</time>
      </trkpt>
      <trkpt lat="45.38904" lon="2.47649">
        <ele>707</ele>
        <time>2025-06-08T09:06:11.479Z</time>
      </trkpt>
      <trkpt lat="45.38905" lon="2.47648">
        <ele>708</ele>
        <time>2025-06-08T09:06:12.479Z</time>
      </trkpt>
      <trkpt lat="45.38907" lon="2.47646">
        <ele>708</ele>
        <time>2025-06-08T09:06:13.479Z</time>
      </trkpt>
      <trkpt lat="45.38909" lon="2.47644">
        <ele>709</ele>
        <time>2025-06-08T09:06:14.479Z</time>
      </trkpt>
      <trkpt lat="45.38911" lon="2.47644">
        <ele>709</ele>
        <time>2025-06-08T09:06:15.479Z</time>
      </trkpt>
      <trkpt lat="45.38912" lon="2.47643">
        <ele>710</ele>
        <time>2025-06-08T09:06:16.479Z</time>
      </trkpt>
      <trkpt lat="45.38913" lon="2.47643">
        <ele>710</ele>
        <time>2025-06-08T09:06:17.479Z</time>
      </trkpt>
      <trkpt lat="45.38914" lon="2.47642">
        <ele>710</ele>
        <time>2025-06-08T09:06:18.479Z</time>
      </trkpt>
      <trkpt lat="45.38915" lon="2.47642">
        <ele>711</ele>
        <time>2025-06-08T09:06:19.479Z</time>
      </trkpt>
      <trkpt lat="45.38916" lon="2.47641">
        <ele>711</ele>
        <time>2025-06-08T09:06:20.479Z</time>
      </trkpt>
      <trkpt lat="45.38917" lon="2.47641">
        <ele>711</ele>
        <time>2025-06-08T09:06:21.479Z</time>
      </trkpt>
      <trkpt lat="45.38918" lon="2.4764">
        <ele>712</ele>
        <time>2025-06-08T09:06:22.479Z</time>
      </trkpt>
      <trkpt lat="45.3892" lon="2.4764">
        <ele>712</ele>
        <time>2025-06-08T09:06:23.479Z</time>
      </trkpt>
      <trkpt lat="45.38921" lon="2.47639">
        <ele>712</ele>
        <time>2025-06-08T09:06:24.479Z</time>
      </trkpt>
      <trkpt lat="45.38922" lon="2.47639">
        <ele>712</ele>
        <time>2025-06-08T09:06:25.479Z</time>
      </trkpt>
      <trkpt lat="45.38924" lon="2.47639">
        <ele>712</ele>
        <time>2025-06-08T09:06:26.479Z</time>
      </trkpt>
      <trkpt lat="45.38925" lon="2.47639">
        <ele>711</ele>
        <time>2025-06-08T09:06:27.479Z</time>
      </trkpt>
      <trkpt lat="45.38927" lon="2.47639">
        <ele>711</ele>
        <time>2025-06-08T09:06:28.479Z</time>
      </trkpt>
      <trkpt lat="45.38929" lon="2.47637">
        <ele>710</ele>
        <time>2025-06-08T09:06:29.479Z</time>
      </trkpt>
      <trkpt lat="45.3893" lon="2.47636">
        <ele>710</ele>
        <time>2025-06-08T09:06:30.479Z</time>
      </trkpt>
      <trkpt lat="45.38932" lon="2.47636">
        <ele>709</ele>
        <time>2025-06-08T09:06:31.479Z</time>
      </trkpt>
      <trkpt lat="45.38933" lon="2.47636">
        <ele>709</ele>
        <time>2025-06-08T09:06:32.479Z</time>
      </trkpt>
      <trkpt lat="45.38934" lon="2.47635">
        <ele>708</ele>
        <time>2025-06-08T09:06:33.479Z</time>
      </trkpt>
      <trkpt lat="45.38935" lon="2.47635">
        <ele>707</ele>
        <time>2025-06-08T09:06:34.479Z</time>
      </trkpt>
      <trkpt lat="45.38937" lon="2.47636">
        <ele>707</ele>
        <time>2025-06-08T09:06:35.479Z</time>
      </trkpt>
      <trkpt lat="45.38938" lon="2.47634">
        <ele>706</ele>
        <time>2025-06-08T09:06:36.479Z</time>
      </trkpt>
      <trkpt lat="45.38939" lon="2.47634">
        <ele>706</ele>
        <time>2025-06-08T09:06:37.479Z</time>
      </trkpt>
      <trkpt lat="45.3894" lon="2.47634">
        <ele>705</ele>
        <time>2025-06-08T09:06:38.479Z</time>
      </trkpt>
      <trkpt lat="45.38941" lon="2.47633">
        <ele>705</ele>
        <time>2025-06-08T09:06:39.479Z</time>
      </trkpt>
      <trkpt lat="45.38942" lon="2.47633">
        <ele>705</ele>
        <time>2025-06-08T09:06:40.479Z</time>
      </trkpt>
      <trkpt lat="45.38944" lon="2.47632">
        <ele>704</ele>
        <time>2025-06-08T09:06:41.479Z</time>
      </trkpt>
      <trkpt lat="45.38945" lon="2.4763">
        <ele>704</ele>
        <time>2025-06-08T09:06:42.479Z</time>
      </trkpt>
      <trkpt lat="45.38946" lon="2.4763">
        <ele>704</ele>
        <time>2025-06-08T09:06:43.479Z</time>
      </trkpt>
      <trkpt lat="45.38947" lon="2.4763">
        <ele>703</ele>
        <time>2025-06-08T09:06:44.479Z</time>
      </trkpt>
      <trkpt lat="45.38948" lon="2.47629">
        <ele>703</ele>
        <time>2025-06-08T09:06:45.479Z</time>
      </trkpt>
      <trkpt lat="45.38949" lon="2.47628">
        <ele>703</ele>
        <time>2025-06-08T09:06:46.479Z</time>
      </trkpt>
      <trkpt lat="45.38949" lon="2.47628">
        <ele>703</ele>
        <time>2025-06-08T09:06:47.479Z</time>
      </trkpt>
      <trkpt lat="45.3895" lon="2.47627">
        <ele>703</ele>
        <time>2025-06-08T09:06:48.479Z</time>
      </trkpt>
      <trkpt lat="45.38951" lon="2.47627">
        <ele>702</ele>
        <time>2025-06-08T09:06:49.479Z</time>
      </trkpt>
      <trkpt lat="45.38952" lon="2.47626">
        <ele>702</ele>
        <time>2025-06-08T09:06:50.479Z</time>
      </trkpt>
      <trkpt lat="45.38952" lon="2.47626">
        <ele>701</ele>
        <time>2025-06-08T09:06:51.479Z</time>
      </trkpt>
      <trkpt lat="45.38953" lon="2.47625">
        <ele>701</ele>
        <time>2025-06-08T09:06:52.479Z</time>
      </trkpt>
      <trkpt lat="45.38954" lon="2.47624">
        <ele>700</ele>
        <time>2025-06-08T09:06:53.479Z</time>
      </trkpt>
      <trkpt lat="45.38955" lon="2.47624">
        <ele>700</ele>
        <time>2025-06-08T09:06:54.479Z</time>
      </trkpt>
      <trkpt lat="45.38956" lon="2.47623">
        <ele>699</ele>
        <time>2025-06-08T09:06:55.479Z</time>
      </trkpt>
      <trkpt lat="45.38957" lon="2.47623">
        <ele>699</ele>
        <time>2025-06-08T09:06:56.479Z</time>
      </trkpt>
      <trkpt lat="45.38959" lon="2.47623">
        <ele>699</ele>
        <time>2025-06-08T09:06:57.479Z</time>
      </trkpt>
      <trkpt lat="45.3896" lon="2.47624">
        <ele>699</ele>
        <time>2025-06-08T09:06:58.479Z</time>
      </trkpt>
      <trkpt lat="45.38961" lon="2.47623">
        <ele>699</ele>
        <time>2025-06-08T09:06:59.479Z</time>
      </trkpt>
      <trkpt lat="45.38961" lon="2.47623">
        <ele>699</ele>
        <time>2025-06-08T09:07:00.479Z</time>
      </trkpt>
      <trkpt lat="45.38963" lon="2.47624">
        <ele>699</ele>
        <time>2025-06-08T09:07:01.479Z</time>
      </trkpt>
      <trkpt lat="45.38965" lon="2.47625">
        <ele>699</ele>
        <time>2025-06-08T09:07:02.479Z</time>
      </trkpt>
      <trkpt lat="45.38967" lon="2.47626">
        <ele>699</ele>
        <time>2025-06-08T09:07:03.479Z</time>
      </trkpt>
      <trkpt lat="45.38968" lon="2.47626">
        <ele>699</ele>
        <time>2025-06-08T09:07:04.479Z</time>
      </trkpt>
      <trkpt lat="45.38969" lon="2.47626">
        <ele>700</ele>
        <time>2025-06-08T09:07:05.479Z</time>
      </trkpt>
      <trkpt lat="45.38969" lon="2.47627">
        <ele>700</ele>
        <time>2025-06-08T09:07:06.479Z</time>
      </trkpt>
      <trkpt lat="45.3897" lon="2.47627">
        <ele>700</ele>
        <time>2025-06-08T09:07:07.479Z</time>
      </trkpt>
      <trkpt lat="45.38971" lon="2.47627">
        <ele>701</ele>
        <time>2025-06-08T09:07:08.479Z</time>
      </trkpt>
      <trkpt lat="45.38972" lon="2.47627">
        <ele>701</ele>
        <time>2025-06-08T09:07:09.479Z</time>
      </trkpt>
      <trkpt lat="45.38973" lon="2.47627">
        <ele>701</ele>
        <time>2025-06-08T09:07:10.479Z</time>
      </trkpt>
      <trkpt lat="45.38974" lon="2.47626">
        <ele>702</ele>
        <time>2025-06-08T09:07:11.479Z</time>
      </trkpt>
      <trkpt lat="45.38975" lon="2.47626">
        <ele>702</ele>
        <time>2025-06-08T09:07:12.479Z</time>
      </trkpt>
      <trkpt lat="45.38976" lon="2.47626">
        <ele>702</ele>
        <time>2025-06-08T09:07:13.479Z</time>
      </trkpt>
      <trkpt lat="45.38976" lon="2.47626">
        <ele>703</ele>
        <time>2025-06-08T09:07:14.479Z</time>
      </trkpt>
      <trkpt lat="45.38977" lon="2.47626">
        <ele>703</ele>
        <time>2025-06-08T09:07:15.479Z</time>
      </trkpt>
      <trkpt lat="45.38978" lon="2.47626">
        <ele>703</ele>
        <time>2025-06-08T09:07:16.479Z</time>
      </trkpt>
      <trkpt lat="45.38978" lon="2.47626">
        <ele>703</ele>
        <time>2025-06-08T09:07:17.479Z</time>
      </trkpt>
      <trkpt lat="45.38979" lon="2.47626">
        <ele>704</ele>
        <time>2025-06-08T09:07:18.479Z</time>
      </trkpt>
      <trkpt lat="45.3898" lon="2.47626">
        <ele>704</ele>
        <time>2025-06-08T09:07:19.479Z</time>
      </trkpt>
      <trkpt lat="45.38981" lon="2.47626">
        <ele>704</ele>
        <time>2025-06-08T09:07:20.479Z</time>
      </trkpt>
      <trkpt lat="45.38982" lon="2.47626">
        <ele>705</ele>
        <time>2025-06-08T09:07:21.479Z</time>
      </trkpt>
      <trkpt lat="45.38983" lon="2.47626">
        <ele>705</ele>
        <time>2025-06-08T09:07:22.479Z</time>
      </trkpt>
      <trkpt lat="45.38984" lon="2.47626">
        <ele>705</ele>
        <time>2025-06-08T09:07:23.479Z</time>
      </trkpt>
      <trkpt lat="45.38985" lon="2.47626">
        <ele>706</ele>
        <time>2025-06-08T09:07:24.479Z</time>
      </trkpt>
      <trkpt lat="45.38986" lon="2.47626">
        <ele>706</ele>
        <time>2025-06-08T09:07:25.479Z</time>
      </trkpt>
      <trkpt lat="45.38988" lon="2.47627">
        <ele>707</ele>
        <time>2025-06-08T09:07:26.479Z</time>
      </trkpt>
      <trkpt lat="45.38989" lon="2.47627">
        <ele>707</ele>
        <time>2025-06-08T09:07:27.479Z</time>
      </trkpt>
      <trkpt lat="45.3899" lon="2.47628">
        <ele>707</ele>
        <time>2025-06-08T09:07:28.479Z</time>
      </trkpt>
      <trkpt lat="45.38991" lon="2.47628">
        <ele>707</ele>
        <time>2025-06-08T09:07:29.479Z</time>
      </trkpt>
      <trkpt lat="45.38992" lon="2.47628">
        <ele>707</ele>
        <time>2025-06-08T09:07:30.479Z</time>
      </trkpt>
      <trkpt lat="45.38993" lon="2.47629">
        <ele>707</ele>
        <time>2025-06-08T09:07:31.479Z</time>
      </trkpt>
      <trkpt lat="45.38994" lon="2.47629">
        <ele>707</ele>
        <time>2025-06-08T09:07:32.479Z</time>
      </trkpt>
      <trkpt lat="45.38996" lon="2.4763">
        <ele>707</ele>
        <time>2025-06-08T09:07:33.479Z</time>
      </trkpt>
      <trkpt lat="45.38997" lon="2.4763">
        <ele>706</ele>
        <time>2025-06-08T09:07:34.479Z</time>
      </trkpt>
      <trkpt lat="45.38998" lon="2.4763">
        <ele>706</ele>
        <time>2025-06-08T09:07:35.479Z</time>
      </trkpt>
      <trkpt lat="45.38999" lon="2.47631">
        <ele>706</ele>
        <time>2025-06-08T09:07:36.479Z</time>
      </trkpt>
      <trkpt lat="45.39" lon="2.47631">
        <ele>705</ele>
        <time>2025-06-08T09:07:37.479Z</time>
      </trkpt>
      <trkpt lat="45.39001" lon="2.47631">
        <ele>705</ele>
        <time>2025-06-08T09:07:38.479Z</time>
      </trkpt>
      <trkpt lat="45.39002" lon="2.47632">
        <ele>705</ele>
        <time>2025-06-08T09:07:39.479Z</time>
      </trkpt>
      <trkpt lat="45.39003" lon="2.47632">
        <ele>705</ele>
        <time>2025-06-08T09:07:40.479Z</time>
      </trkpt>
      <trkpt lat="45.39004" lon="2.47632">
        <ele>705</ele>
        <time>2025-06-08T09:07:41.479Z</time>
      </trkpt>
      <trkpt lat="45.39004" lon="2.47632">
        <ele>705</ele>
        <time>2025-06-08T09:07:42.479Z</time>
      </trkpt>
      <trkpt lat="45.39004" lon="2.47632">
        <ele>705</ele>
        <time>2025-06-08T09:07:43.479Z</time>
      </trkpt>
      <trkpt lat="45.39005" lon="2.47633">
        <ele>705</ele>
        <time>2025-06-08T09:07:44.479Z</time>
      </trkpt>
      <trkpt lat="45.39005" lon="2.47633">
        <ele>705</ele>
        <time>2025-06-08T09:07:45.479Z</time>
      </trkpt>
      <trkpt lat="45.39005" lon="2.47633">
        <ele>705</ele>
        <time>2025-06-08T09:07:46.479Z</time>
      </trkpt>
      <trkpt lat="45.39005" lon="2.47633">
        <ele>705</ele>
        <time>2025-06-08T09:07:47.479Z</time>
      </trkpt>
      <trkpt lat="45.39005" lon="2.47633">
        <ele>705</ele>
        <time>2025-06-08T09:07:48.479Z</time>
      </trkpt>
      <trkpt lat="45.39005" lon="2.47633">
        <ele>705</ele>
        <time>2025-06-08T09:07:49.479Z</time>
      </trkpt>
      <trkpt lat="45.39005" lon="2.47633">
        <ele>705</ele>
        <time>2025-06-08T09:07:50.479Z</time>
      </trkpt>
      <trkpt lat="45.39005" lon="2.47633">
        <ele>705</ele>
        <time>2025-06-08T09:07:51.479Z</time>
      </trkpt>
      <trkpt lat="45.39006" lon="2.47633">
        <ele>705</ele>
        <time>2025-06-08T09:07:52.479Z</time>
      </trkpt>
      <trkpt lat="45.39006" lon="2.47633">
        <ele>705</ele>
        <time>2025-06-08T09:07:53.479Z</time>
      </trkpt>
      <trkpt lat="45.39006" lon="2.47633">
        <ele>705</ele>
        <time>2025-06-08T09:07:54.479Z</time>
      </trkpt>
      <trkpt lat="45.39007" lon="2.47633">
        <ele>704</ele>
        <time>2025-06-08T09:07:55.479Z</time>
      </trkpt>
      <trkpt lat="45.39007" lon="2.47633">
        <ele>704</ele>
        <time>2025-06-08T09:07:56.479Z</time>
      </trkpt>
      <trkpt lat="45.39008" lon="2.47632">
        <ele>704</ele>
        <time>2025-06-08T09:07:57.479Z</time>
      </trkpt>
      <trkpt lat="45.39008" lon="2.47632">
        <ele>704</ele>
        <time>2025-06-08T09:07:58.479Z</time>
      </trkpt>
      <trkpt lat="45.39008" lon="2.47632">
        <ele>703</ele>
        <time>2025-06-08T09:07:59.479Z</time>
      </trkpt>
      <trkpt lat="45.39008" lon="2.47632">
        <ele>703</ele>
        <time>2025-06-08T09:08:00.479Z</time>
      </trkpt>
      <trkpt lat="45.39008" lon="2.47632">
        <ele>703</ele>
        <time>2025-06-08T09:08:01.479Z</time>
      </trkpt>
      <trkpt lat="45.39008" lon="2.47632">
        <ele>703</ele>
        <time>2025-06-08T09:08:02.479Z</time>
      </trkpt>
      <trkpt lat="45.39008" lon="2.47632">
        <ele>703</ele>
        <time>2025-06-08T09:08:03.479Z</time>
      </trkpt>
      <trkpt lat="45.39008" lon="2.47632">
        <ele>703</ele>
        <time>2025-06-08T09:08:04.479Z</time>
      </trkpt>
      <trkpt lat="45.39008" lon="2.47632">
        <ele>703</ele>
        <time>2025-06-08T09:08:05.479Z</time>
      </trkpt>
      <trkpt lat="45.39008" lon="2.47632">
        <ele>703</ele>
        <time>2025-06-08T09:08:06.479Z</time>
      </trkpt>
      <trkpt lat="45.39008" lon="2.47631">
        <ele>703</ele>
        <time>2025-06-08T09:08:07.479Z</time>
      </trkpt>
      <trkpt lat="45.39008" lon="2.47631">
        <ele>703</ele>
        <time>2025-06-08T09:08:08.479Z</time>
      </trkpt>
      <trkpt lat="45.39008" lon="2.47631">
        <ele>704</ele>
        <time>2025-06-08T09:08:09.479Z</time>
      </trkpt>
      <trkpt lat="45.39008" lon="2.47631">
        <ele>704</ele>
        <time>2025-06-08T09:08:10.479Z</time>
      </trkpt>
      <trkpt lat="45.39008" lon="2.47631">
        <ele>704</ele>
        <time>2025-06-08T09:08:11.479Z</time>
      </trkpt>
      <trkpt lat="45.39008" lon="2.47631">
        <ele>703</ele>
        <time>2025-06-08T09:08:12.479Z</time>
      </trkpt>
      <trkpt lat="45.39008" lon="2.47631">
        <ele>703</ele>
        <time>2025-06-08T09:08:13.479Z</time>
      </trkpt>
      <trkpt lat="45.39008" lon="2.47631">
        <ele>703</ele>
        <time>2025-06-08T09:08:14.479Z</time>
      </trkpt>
      <trkpt lat="45.39008" lon="2.47631">
        <ele>703</ele>
        <time>2025-06-08T09:08:15.479Z</time>
      </trkpt>
      <trkpt lat="45.39008" lon="2.47632">
        <ele>704</ele>
        <time>2025-06-08T09:08:16.479Z</time>
      </trkpt>
      <trkpt lat="45.39008" lon="2.47632">
        <ele>704</ele>
        <time>2025-06-08T09:08:17.479Z</time>
      </trkpt>
      <trkpt lat="45.39008" lon="2.47632">
        <ele>703</ele>
        <time>2025-06-08T09:08:18.479Z</time>
      </trkpt>
      <trkpt lat="45.39008" lon="2.47632">
        <ele>703</ele>
        <time>2025-06-08T09:08:19.479Z</time>
      </trkpt>
      <trkpt lat="45.39009" lon="2.47633">
        <ele>703</ele>
        <time>2025-06-08T09:08:20.479Z</time>
      </trkpt>
      <trkpt lat="45.39009" lon="2.47633">
        <ele>703</ele>
        <time>2025-06-08T09:08:21.479Z</time>
      </trkpt>
      <trkpt lat="45.39009" lon="2.47633">
        <ele>703</ele>
        <time>2025-06-08T09:08:22.479Z</time>
      </trkpt>
      <trkpt lat="45.39009" lon="2.47634">
        <ele>703</ele>
        <time>2025-06-08T09:08:23.479Z</time>
      </trkpt>
      <trkpt lat="45.39009" lon="2.47634">
        <ele>703</ele>
        <time>2025-06-08T09:08:24.479Z</time>
      </trkpt>
      <trkpt lat="45.39009" lon="2.47634">
        <ele>703</ele>
        <time>2025-06-08T09:08:25.479Z</time>
      </trkpt>
      <trkpt lat="45.3901" lon="2.47634">
        <ele>703</ele>
        <time>2025-06-08T09:08:26.479Z</time>
      </trkpt>
      <trkpt lat="45.3901" lon="2.47634">
        <ele>703</ele>
        <time>2025-06-08T09:08:27.479Z</time>
      </trkpt>
      <trkpt lat="45.3901" lon="2.47634">
        <ele>703</ele>
        <time>2025-06-08T09:08:28.479Z</time>
      </trkpt>
      <trkpt lat="45.3901" lon="2.47634">
        <ele>703</ele>
        <time>2025-06-08T09:08:29.479Z</time>
      </trkpt>
      <trkpt lat="45.3901" lon="2.47635">
        <ele>703</ele>
        <time>2025-06-08T09:08:30.479Z</time>
      </trkpt>
      <trkpt lat="45.3901" lon="2.47635">
        <ele>703</ele>
        <time>2025-06-08T09:08:31.479Z</time>
      </trkpt>
      <trkpt lat="45.3901" lon="2.47635">
        <ele>703</ele>
        <time>2025-06-08T09:08:32.479Z</time>
      </trkpt>
      <trkpt lat="45.3901" lon="2.47636">
        <ele>703</ele>
        <time>2025-06-08T09:08:33.479Z</time>
      </trkpt>
      <trkpt lat="45.3901" lon="2.47636">
        <ele>703</ele>
        <time>2025-06-08T09:08:34.479Z</time>
      </trkpt>
      <trkpt lat="45.39011" lon="2.47637">
        <ele>703</ele>
        <time>2025-06-08T09:08:35.479Z</time>
      </trkpt>
      <trkpt lat="45.39011" lon="2.47637">
        <ele>703</ele>
        <time>2025-06-08T09:08:36.479Z</time>
      </trkpt>
      <trkpt lat="45.39011" lon="2.47637">
        <ele>704</ele>
        <time>2025-06-08T09:08:37.479Z</time>
      </trkpt>
      <trkpt lat="45.39011" lon="2.47637">
        <ele>704</ele>
        <time>2025-06-08T09:08:38.479Z</time>
      </trkpt>
      <trkpt lat="45.39011" lon="2.47637">
        <ele>704</ele>
        <time>2025-06-08T09:08:39.479Z</time>
      </trkpt>
      <trkpt lat="45.39011" lon="2.47637">
        <ele>704</ele>
        <time>2025-06-08T09:08:40.479Z</time>
      </trkpt>
      <trkpt lat="45.39011" lon="2.47637">
        <ele>704</ele>
        <time>2025-06-08T09:08:41.479Z</time>
      </trkpt>
      <trkpt lat="45.39011" lon="2.47637">
        <ele>705</ele>
        <time>2025-06-08T09:08:42.479Z</time>
      </trkpt>
      <trkpt lat="45.39011" lon="2.47638">
        <ele>705</ele>
        <time>2025-06-08T09:08:43.479Z</time>
      </trkpt>
      <trkpt lat="45.39011" lon="2.47638">
        <ele>705</ele>
        <time>2025-06-08T09:08:44.479Z</time>
      </trkpt>
      <trkpt lat="45.39011" lon="2.47638">
        <ele>706</ele>
        <time>2025-06-08T09:08:45.479Z</time>
      </trkpt>
      <trkpt lat="45.39011" lon="2.47638">
        <ele>706</ele>
        <time>2025-06-08T09:08:46.479Z</time>
      </trkpt>
      <trkpt lat="45.39011" lon="2.47639">
        <ele>707</ele>
        <time>2025-06-08T09:08:47.479Z</time>
      </trkpt>
      <trkpt lat="45.39011" lon="2.47639">
        <ele>707</ele>
        <time>2025-06-08T09:08:48.479Z</time>
      </trkpt>
      <trkpt lat="45.39011" lon="2.47639">
        <ele>707</ele>
        <time>2025-06-08T09:08:49.479Z</time>
      </trkpt>
      <trkpt lat="45.39011" lon="2.47639">
        <ele>707</ele>
        <time>2025-06-08T09:08:50.479Z</time>
      </trkpt>
      <trkpt lat="45.39011" lon="2.47639">
        <ele>707</ele>
        <time>2025-06-08T09:08:51.479Z</time>
      </trkpt>
      <trkpt lat="45.39011" lon="2.47639">
        <ele>706</ele>
        <time>2025-06-08T09:08:52.479Z</time>
      </trkpt>
      <trkpt lat="45.39011" lon="2.4764">
        <ele>706</ele>
        <time>2025-06-08T09:08:53.479Z</time>
      </trkpt>
      <trkpt lat="45.39011" lon="2.4764">
        <ele>706</ele>
        <time>2025-06-08T09:08:54.479Z</time>
      </trkpt>
      <trkpt lat="45.39012" lon="2.47639">
        <ele>705</ele>
        <time>2025-06-08T09:08:55.479Z</time>
      </trkpt>
      <trkpt lat="45.39012" lon="2.47639">
        <ele>705</ele>
        <time>2025-06-08T09:08:56.479Z</time>
      </trkpt>
      <trkpt lat="45.39012" lon="2.47639">
        <ele>705</ele>
        <time>2025-06-08T09:08:57.479Z</time>
      </trkpt>
      <trkpt lat="45.39012" lon="2.47639">
        <ele>705</ele>
        <time>2025-06-08T09:08:58.479Z</time>
      </trkpt>
      <trkpt lat="45.39012" lon="2.47639">
        <ele>706</ele>
        <time>2025-06-08T09:08:59.479Z</time>
      </trkpt>
      <trkpt lat="45.39012" lon="2.47639">
        <ele>706</ele>
        <time>2025-06-08T09:09:00.479Z</time>
      </trkpt>
      <trkpt lat="45.39012" lon="2.47639">
        <ele>706</ele>
        <time>2025-06-08T09:09:01.479Z</time>
      </trkpt>
      <trkpt lat="45.39013" lon="2.47639">
        <ele>706</ele>
        <time>2025-06-08T09:09:02.479Z</time>
      </trkpt>
      <trkpt lat="45.39013" lon="2.47639">
        <ele>706</ele>
        <time>2025-06-08T09:09:03.479Z</time>
      </trkpt>
      <trkpt lat="45.39013" lon="2.47639">
        <ele>706</ele>
        <time>2025-06-08T09:09:04.479Z</time>
      </trkpt>
      <trkpt lat="45.39013" lon="2.47639">
        <ele>706</ele>
        <time>2025-06-08T09:09:05.479Z</time>
      </trkpt>
      <trkpt lat="45.39013" lon="2.47639">
        <ele>706</ele>
        <time>2025-06-08T09:09:06.479Z</time>
      </trkpt>
      <trkpt lat="45.39013" lon="2.47639">
        <ele>706</ele>
        <time>2025-06-08T09:09:07.479Z</time>
      </trkpt>
      <trkpt lat="45.39013" lon="2.47638">
        <ele>706</ele>
        <time>2025-06-08T09:09:08.479Z</time>
      </trkpt>
      <trkpt lat="45.39014" lon="2.47639">
        <ele>706</ele>
        <time>2025-06-08T09:09:09.479Z</time>
      </trkpt>
      <trkpt lat="45.39014" lon="2.47639">
        <ele>706</ele>
        <time>2025-06-08T09:09:10.479Z</time>
      </trkpt>
      <trkpt lat="45.39014" lon="2.47639">
        <ele>706</ele>
        <time>2025-06-08T09:09:11.479Z</time>
      </trkpt>
      <trkpt lat="45.39014" lon="2.47639">
        <ele>706</ele>
        <time>2025-06-08T09:09:12.479Z</time>
      </trkpt>
      <trkpt lat="45.39015" lon="2.47639">
        <ele>706</ele>
        <time>2025-06-08T09:09:13.479Z</time>
      </trkpt>
      <trkpt lat="45.39015" lon="2.47639">
        <ele>706</ele>
        <time>2025-06-08T09:09:14.479Z</time>
      </trkpt>
      <trkpt lat="45.39015" lon="2.47639">
        <ele>706</ele>
        <time>2025-06-08T09:09:15.479Z</time>
      </trkpt>
      <trkpt lat="45.39015" lon="2.47639">
        <ele>706</ele>
        <time>2025-06-08T09:09:16.479Z</time>
      </trkpt>
      <trkpt lat="45.39015" lon="2.47639">
        <ele>707</ele>
        <time>2025-06-08T09:09:17.479Z</time>
      </trkpt>
      <trkpt lat="45.39016" lon="2.47639">
        <ele>707</ele>
        <time>2025-06-08T09:09:18.479Z</time>
      </trkpt>
      <trkpt lat="45.39016" lon="2.47639">
        <ele>708</ele>
        <time>2025-06-08T09:09:19.479Z</time>
      </trkpt>
      <trkpt lat="45.39016" lon="2.47639">
        <ele>708</ele>
        <time>2025-06-08T09:09:20.479Z</time>
      </trkpt>
      <trkpt lat="45.39016" lon="2.47639">
        <ele>708</ele>
        <time>2025-06-08T09:09:21.479Z</time>
      </trkpt>
      <trkpt lat="45.39017" lon="2.4764">
        <ele>707</ele>
        <time>2025-06-08T09:09:22.479Z</time>
      </trkpt>
      <trkpt lat="45.39017" lon="2.4764">
        <ele>707</ele>
        <time>2025-06-08T09:09:23.479Z</time>
      </trkpt>
      <trkpt lat="45.39018" lon="2.4764">
        <ele>707</ele>
        <time>2025-06-08T09:09:24.479Z</time>
      </trkpt>
      <trkpt lat="45.39019" lon="2.4764">
        <ele>706</ele>
        <time>2025-06-08T09:09:25.479Z</time>
      </trkpt>
      <trkpt lat="45.3902" lon="2.47639">
        <ele>706</ele>
        <time>2025-06-08T09:09:26.479Z</time>
      </trkpt>
      <trkpt lat="45.39021" lon="2.47639">
        <ele>706</ele>
        <time>2025-06-08T09:09:27.479Z</time>
      </trkpt>
      <trkpt lat="45.39022" lon="2.47639">
        <ele>706</ele>
        <time>2025-06-08T09:09:28.479Z</time>
      </trkpt>
      <trkpt lat="45.39023" lon="2.47639">
        <ele>706</ele>
        <time>2025-06-08T09:09:29.479Z</time>
      </trkpt>
      <trkpt lat="45.39024" lon="2.4764">
        <ele>706</ele>
        <time>2025-06-08T09:09:30.479Z</time>
      </trkpt>
      <trkpt lat="45.39025" lon="2.47641">
        <ele>706</ele>
        <time>2025-06-08T09:09:31.479Z</time>
      </trkpt>
      <trkpt lat="45.39026" lon="2.47642">
        <ele>705</ele>
        <time>2025-06-08T09:09:32.479Z</time>
      </trkpt>
      <trkpt lat="45.39027" lon="2.47643">
        <ele>705</ele>
        <time>2025-06-08T09:09:33.479Z</time>
      </trkpt>
      <trkpt lat="45.39028" lon="2.47643">
        <ele>704</ele>
        <time>2025-06-08T09:09:34.479Z</time>
      </trkpt>
      <trkpt lat="45.39028" lon="2.47644">
        <ele>704</ele>
        <time>2025-06-08T09:09:35.479Z</time>
      </trkpt>
      <trkpt lat="45.39029" lon="2.47644">
        <ele>704</ele>
        <time>2025-06-08T09:09:36.479Z</time>
      </trkpt>
      <trkpt lat="45.3903" lon="2.47644">
        <ele>703</ele>
        <time>2025-06-08T09:09:37.479Z</time>
      </trkpt>
      <trkpt lat="45.3903" lon="2.47644">
        <ele>703</ele>
        <time>2025-06-08T09:09:38.479Z</time>
      </trkpt>
      <trkpt lat="45.39031" lon="2.47644">
        <ele>702</ele>
        <time>2025-06-08T09:09:39.479Z</time>
      </trkpt>
      <trkpt lat="45.39031" lon="2.47643">
        <ele>702</ele>
        <time>2025-06-08T09:09:40.479Z</time>
      </trkpt>
      <trkpt lat="45.39032" lon="2.47642">
        <ele>702</ele>
        <time>2025-06-08T09:09:41.479Z</time>
      </trkpt>
      <trkpt lat="45.39033" lon="2.47642">
        <ele>702</ele>
        <time>2025-06-08T09:09:42.479Z</time>
      </trkpt>
      <trkpt lat="45.39033" lon="2.47641">
        <ele>702</ele>
        <time>2025-06-08T09:09:43.479Z</time>
      </trkpt>
      <trkpt lat="45.39034" lon="2.4764">
        <ele>701</ele>
        <time>2025-06-08T09:09:44.479Z</time>
      </trkpt>
      <trkpt lat="45.39034" lon="2.4764">
        <ele>701</ele>
        <time>2025-06-08T09:09:45.479Z</time>
      </trkpt>
      <trkpt lat="45.39035" lon="2.47639">
        <ele>701</ele>
        <time>2025-06-08T09:09:46.479Z</time>
      </trkpt>
      <trkpt lat="45.39035" lon="2.47638">
        <ele>700</ele>
        <time>2025-06-08T09:09:47.479Z</time>
      </trkpt>
      <trkpt lat="45.39036" lon="2.47637">
        <ele>700</ele>
        <time>2025-06-08T09:09:48.479Z</time>
      </trkpt>
      <trkpt lat="45.39036" lon="2.47636">
        <ele>700</ele>
        <time>2025-06-08T09:09:49.479Z</time>
      </trkpt>
      <trkpt lat="45.39036" lon="2.47635">
        <ele>699</ele>
        <time>2025-06-08T09:09:50.479Z</time>
      </trkpt>
      <trkpt lat="45.39037" lon="2.47635">
        <ele>699</ele>
        <time>2025-06-08T09:09:51.479Z</time>
      </trkpt>
      <trkpt lat="45.39037" lon="2.47635">
        <ele>699</ele>
        <time>2025-06-08T09:09:52.479Z</time>
      </trkpt>
      <trkpt lat="45.39037" lon="2.47634">
        <ele>699</ele>
        <time>2025-06-08T09:09:53.479Z</time>
      </trkpt>
      <trkpt lat="45.39037" lon="2.47633">
        <ele>699</ele>
        <time>2025-06-08T09:09:54.479Z</time>
      </trkpt>
      <trkpt lat="45.39038" lon="2.4763">
        <ele>699</ele>
        <time>2025-06-08T09:09:55.479Z</time>
      </trkpt>
      <trkpt lat="45.39039" lon="2.47628">
        <ele>699</ele>
        <time>2025-06-08T09:09:56.479Z</time>
      </trkpt>
      <trkpt lat="45.39038" lon="2.47627">
        <ele>699</ele>
        <time>2025-06-08T09:09:57.479Z</time>
      </trkpt>
      <trkpt lat="45.39038" lon="2.47625">
        <ele>699</ele>
        <time>2025-06-08T09:09:58.479Z</time>
      </trkpt>
      <trkpt lat="45.39039" lon="2.47623">
        <ele>699</ele>
        <time>2025-06-08T09:09:59.479Z</time>
      </trkpt>
      <trkpt lat="45.39039" lon="2.47622">
        <ele>699</ele>
        <time>2025-06-08T09:10:00.479Z</time>
      </trkpt>
      <trkpt lat="45.3904" lon="2.47621">
        <ele>699</ele>
        <time>2025-06-08T09:10:01.479Z</time>
      </trkpt>
      <trkpt lat="45.3904" lon="2.47619">
        <ele>699</ele>
        <time>2025-06-08T09:10:02.479Z</time>
      </trkpt>
      <trkpt lat="45.3904" lon="2.47618">
        <ele>700</ele>
        <time>2025-06-08T09:10:03.479Z</time>
      </trkpt>
      <trkpt lat="45.39041" lon="2.47616">
        <ele>700</ele>
        <time>2025-06-08T09:10:04.479Z</time>
      </trkpt>
      <trkpt lat="45.39042" lon="2.47615">
        <ele>701</ele>
        <time>2025-06-08T09:10:05.479Z</time>
      </trkpt>
      <trkpt lat="45.39043" lon="2.47614">
        <ele>701</ele>
        <time>2025-06-08T09:10:06.479Z</time>
      </trkpt>
      <trkpt lat="45.39044" lon="2.47613">
        <ele>702</ele>
        <time>2025-06-08T09:10:07.479Z</time>
      </trkpt>
      <trkpt lat="45.39045" lon="2.47612">
        <ele>703</ele>
        <time>2025-06-08T09:10:08.479Z</time>
      </trkpt>
      <trkpt lat="45.39047" lon="2.47612">
        <ele>703</ele>
        <time>2025-06-08T09:10:09.479Z</time>
      </trkpt>
      <trkpt lat="45.39048" lon="2.47612">
        <ele>703</ele>
        <time>2025-06-08T09:10:10.479Z</time>
      </trkpt>
      <trkpt lat="45.39049" lon="2.47612">
        <ele>703</ele>
        <time>2025-06-08T09:10:11.479Z</time>
      </trkpt>
      <trkpt lat="45.39051" lon="2.47611">
        <ele>703</ele>
        <time>2025-06-08T09:10:12.479Z</time>
      </trkpt>
      <trkpt lat="45.39052" lon="2.47611">
        <ele>702</ele>
        <time>2025-06-08T09:10:13.479Z</time>
      </trkpt>
      <trkpt lat="45.39052" lon="2.47611">
        <ele>702</ele>
        <time>2025-06-08T09:10:14.479Z</time>
      </trkpt>
      <trkpt lat="45.39053" lon="2.47611">
        <ele>702</ele>
        <time>2025-06-08T09:10:15.479Z</time>
      </trkpt>
      <trkpt lat="45.39053" lon="2.47611">
        <ele>702</ele>
        <time>2025-06-08T09:10:16.479Z</time>
      </trkpt>
      <trkpt lat="45.39053" lon="2.47612">
        <ele>702</ele>
        <time>2025-06-08T09:10:17.479Z</time>
      </trkpt>
      <trkpt lat="45.39053" lon="2.47612">
        <ele>702</ele>
        <time>2025-06-08T09:10:18.479Z</time>
      </trkpt>
      <trkpt lat="45.39053" lon="2.47612">
        <ele>702</ele>
        <time>2025-06-08T09:10:19.479Z</time>
      </trkpt>
      <trkpt lat="45.39053" lon="2.47612">
        <ele>703</ele>
        <time>2025-06-08T09:10:20.479Z</time>
      </trkpt>
      <trkpt lat="45.39054" lon="2.47612">
        <ele>703</ele>
        <time>2025-06-08T09:10:21.479Z</time>
      </trkpt>
      <trkpt lat="45.39055" lon="2.47612">
        <ele>703</ele>
        <time>2025-06-08T09:10:22.479Z</time>
      </trkpt>
      <trkpt lat="45.39056" lon="2.47612">
        <ele>703</ele>
        <time>2025-06-08T09:10:23.479Z</time>
      </trkpt>
      <trkpt lat="45.39057" lon="2.47612">
        <ele>702</ele>
        <time>2025-06-08T09:10:24.479Z</time>
      </trkpt>
      <trkpt lat="45.39058" lon="2.47612">
        <ele>702</ele>
        <time>2025-06-08T09:10:25.479Z</time>
      </trkpt>
      <trkpt lat="45.39059" lon="2.47612">
        <ele>702</ele>
        <time>2025-06-08T09:10:26.479Z</time>
      </trkpt>
      <trkpt lat="45.3906" lon="2.47612">
        <ele>701</ele>
        <time>2025-06-08T09:10:27.479Z</time>
      </trkpt>
      <trkpt lat="45.39061" lon="2.47611">
        <ele>701</ele>
        <time>2025-06-08T09:10:28.479Z</time>
      </trkpt>
      <trkpt lat="45.39063" lon="2.47611">
        <ele>700</ele>
        <time>2025-06-08T09:10:29.479Z</time>
      </trkpt>
      <trkpt lat="45.39064" lon="2.47611">
        <ele>700</ele>
        <time>2025-06-08T09:10:30.479Z</time>
      </trkpt>
      <trkpt lat="45.39065" lon="2.4761">
        <ele>701</ele>
        <time>2025-06-08T09:10:31.479Z</time>
      </trkpt>
      <trkpt lat="45.39066" lon="2.47609">
        <ele>701</ele>
        <time>2025-06-08T09:10:32.479Z</time>
      </trkpt>
      <trkpt lat="45.39067" lon="2.47609">
        <ele>701</ele>
        <time>2025-06-08T09:10:33.479Z</time>
      </trkpt>
      <trkpt lat="45.39068" lon="2.47609">
        <ele>701</ele>
        <time>2025-06-08T09:10:34.479Z</time>
      </trkpt>
      <trkpt lat="45.39069" lon="2.47609">
        <ele>701</ele>
        <time>2025-06-08T09:10:35.479Z</time>
      </trkpt>
      <trkpt lat="45.3907" lon="2.47609">
        <ele>701</ele>
        <time>2025-06-08T09:10:36.479Z</time>
      </trkpt>
      <trkpt lat="45.39071" lon="2.47608">
        <ele>702</ele>
        <time>2025-06-08T09:10:37.479Z</time>
      </trkpt>
      <trkpt lat="45.39072" lon="2.47607">
        <ele>702</ele>
        <time>2025-06-08T09:10:38.479Z</time>
      </trkpt>
      <trkpt lat="45.39074" lon="2.47607">
        <ele>701</ele>
        <time>2025-06-08T09:10:39.479Z</time>
      </trkpt>
      <trkpt lat="45.39075" lon="2.47607">
        <ele>701</ele>
        <time>2025-06-08T09:10:40.479Z</time>
      </trkpt>
      <trkpt lat="45.39076" lon="2.47606">
        <ele>701</ele>
        <time>2025-06-08T09:10:41.479Z</time>
      </trkpt>
      <trkpt lat="45.39078" lon="2.47606">
        <ele>700</ele>
        <time>2025-06-08T09:10:42.479Z</time>
      </trkpt>
      <trkpt lat="45.39079" lon="2.47605">
        <ele>700</ele>
        <time>2025-06-08T09:10:43.479Z</time>
      </trkpt>
      <trkpt lat="45.3908" lon="2.47604">
        <ele>700</ele>
        <time>2025-06-08T09:10:44.479Z</time>
      </trkpt>
      <trkpt lat="45.39081" lon="2.47603">
        <ele>700</ele>
        <time>2025-06-08T09:10:45.479Z</time>
      </trkpt>
      <trkpt lat="45.39082" lon="2.47601">
        <ele>700</ele>
        <time>2025-06-08T09:10:46.479Z</time>
      </trkpt>
      <trkpt lat="45.39084" lon="2.47601">
        <ele>700</ele>
        <time>2025-06-08T09:10:47.479Z</time>
      </trkpt>
      <trkpt lat="45.39085" lon="2.476">
        <ele>700</ele>
        <time>2025-06-08T09:10:48.479Z</time>
      </trkpt>
      <trkpt lat="45.39086" lon="2.47599">
        <ele>700</ele>
        <time>2025-06-08T09:10:49.479Z</time>
      </trkpt>
      <trkpt lat="45.39087" lon="2.47598">
        <ele>700</ele>
        <time>2025-06-08T09:10:50.479Z</time>
      </trkpt>
      <trkpt lat="45.39088" lon="2.47597">
        <ele>699</ele>
        <time>2025-06-08T09:10:51.479Z</time>
      </trkpt>
      <trkpt lat="45.39089" lon="2.47596">
        <ele>699</ele>
        <time>2025-06-08T09:10:52.479Z</time>
      </trkpt>
      <trkpt lat="45.3909" lon="2.47595">
        <ele>698</ele>
        <time>2025-06-08T09:10:53.479Z</time>
      </trkpt>
      <trkpt lat="45.39091" lon="2.47594">
        <ele>698</ele>
        <time>2025-06-08T09:10:54.479Z</time>
      </trkpt>
      <trkpt lat="45.39092" lon="2.47593">
        <ele>698</ele>
        <time>2025-06-08T09:10:55.479Z</time>
      </trkpt>
      <trkpt lat="45.39093" lon="2.47592">
        <ele>698</ele>
        <time>2025-06-08T09:10:56.479Z</time>
      </trkpt>
      <trkpt lat="45.39094" lon="2.47591">
        <ele>697</ele>
        <time>2025-06-08T09:10:57.479Z</time>
      </trkpt>
      <trkpt lat="45.39095" lon="2.4759">
        <ele>697</ele>
        <time>2025-06-08T09:10:58.479Z</time>
      </trkpt>
      <trkpt lat="45.39096" lon="2.47589">
        <ele>697</ele>
        <time>2025-06-08T09:10:59.479Z</time>
      </trkpt>
      <trkpt lat="45.39097" lon="2.47588">
        <ele>696</ele>
        <time>2025-06-08T09:11:00.479Z</time>
      </trkpt>
      <trkpt lat="45.39098" lon="2.47587">
        <ele>696</ele>
        <time>2025-06-08T09:11:01.479Z</time>
      </trkpt>
      <trkpt lat="45.39099" lon="2.47586">
        <ele>697</ele>
        <time>2025-06-08T09:11:02.479Z</time>
      </trkpt>
      <trkpt lat="45.391" lon="2.47585">
        <ele>697</ele>
        <time>2025-06-08T09:11:03.479Z</time>
      </trkpt>
      <trkpt lat="45.39101" lon="2.47584">
        <ele>698</ele>
        <time>2025-06-08T09:11:04.479Z</time>
      </trkpt>
      <trkpt lat="45.39102" lon="2.47583">
        <ele>698</ele>
        <time>2025-06-08T09:11:05.479Z</time>
      </trkpt>
      <trkpt lat="45.39104" lon="2.47582">
        <ele>698</ele>
        <time>2025-06-08T09:11:06.479Z</time>
      </trkpt>
      <trkpt lat="45.39105" lon="2.47581">
        <ele>698</ele>
        <time>2025-06-08T09:11:07.479Z</time>
      </trkpt>
      <trkpt lat="45.39106" lon="2.4758">
        <ele>698</ele>
        <time>2025-06-08T09:11:08.479Z</time>
      </trkpt>
      <trkpt lat="45.39107" lon="2.47579">
        <ele>698</ele>
        <time>2025-06-08T09:11:09.479Z</time>
      </trkpt>
      <trkpt lat="45.39108" lon="2.47578">
        <ele>698</ele>
        <time>2025-06-08T09:11:10.479Z</time>
      </trkpt>
      <trkpt lat="45.39109" lon="2.47577">
        <ele>698</ele>
        <time>2025-06-08T09:11:11.479Z</time>
      </trkpt>
      <trkpt lat="45.39111" lon="2.47577">
        <ele>698</ele>
        <time>2025-06-08T09:11:12.479Z</time>
      </trkpt>
      <trkpt lat="45.39112" lon="2.47576">
        <ele>699</ele>
        <time>2025-06-08T09:11:13.479Z</time>
      </trkpt>
      <trkpt lat="45.39113" lon="2.47575">
        <ele>699</ele>
        <time>2025-06-08T09:11:14.479Z</time>
      </trkpt>
      <trkpt lat="45.39114" lon="2.47573">
        <ele>699</ele>
        <time>2025-06-08T09:11:15.479Z</time>
      </trkpt>
      <trkpt lat="45.39115" lon="2.47573">
        <ele>699</ele>
        <time>2025-06-08T09:11:16.479Z</time>
      </trkpt>
      <trkpt lat="45.39116" lon="2.47572">
        <ele>699</ele>
        <time>2025-06-08T09:11:17.479Z</time>
      </trkpt>
      <trkpt lat="45.39117" lon="2.47571">
        <ele>699</ele>
        <time>2025-06-08T09:11:18.479Z</time>
      </trkpt>
      <trkpt lat="45.39118" lon="2.4757">
        <ele>699</ele>
        <time>2025-06-08T09:11:19.479Z</time>
      </trkpt>
      <trkpt lat="45.39119" lon="2.47569">
        <ele>699</ele>
        <time>2025-06-08T09:11:20.479Z</time>
      </trkpt>
      <trkpt lat="45.39121" lon="2.47568">
        <ele>699</ele>
        <time>2025-06-08T09:11:21.479Z</time>
      </trkpt>
      <trkpt lat="45.39122" lon="2.47567">
        <ele>699</ele>
        <time>2025-06-08T09:11:22.479Z</time>
      </trkpt>
      <trkpt lat="45.39124" lon="2.47566">
        <ele>699</ele>
        <time>2025-06-08T09:11:23.479Z</time>
      </trkpt>
      <trkpt lat="45.39125" lon="2.47565">
        <ele>699</ele>
        <time>2025-06-08T09:11:24.479Z</time>
      </trkpt>
      <trkpt lat="45.39126" lon="2.47564">
        <ele>699</ele>
        <time>2025-06-08T09:11:25.479Z</time>
      </trkpt>
      <trkpt lat="45.39127" lon="2.47563">
        <ele>700</ele>
        <time>2025-06-08T09:11:26.479Z</time>
      </trkpt>
      <trkpt lat="45.39128" lon="2.47562">
        <ele>700</ele>
        <time>2025-06-08T09:11:27.479Z</time>
      </trkpt>
      <trkpt lat="45.39129" lon="2.47561">
        <ele>700</ele>
        <time>2025-06-08T09:11:28.479Z</time>
      </trkpt>
      <trkpt lat="45.3913" lon="2.47559">
        <ele>701</ele>
        <time>2025-06-08T09:11:29.479Z</time>
      </trkpt>
      <trkpt lat="45.39131" lon="2.47558">
        <ele>701</ele>
        <time>2025-06-08T09:11:30.479Z</time>
      </trkpt>
      <trkpt lat="45.39132" lon="2.47558">
        <ele>701</ele>
        <time>2025-06-08T09:11:31.479Z</time>
      </trkpt>
      <trkpt lat="45.39133" lon="2.47557">
        <ele>701</ele>
        <time>2025-06-08T09:11:32.479Z</time>
      </trkpt>
      <trkpt lat="45.39134" lon="2.47556">
        <ele>701</ele>
        <time>2025-06-08T09:11:33.479Z</time>
      </trkpt>
      <trkpt lat="45.39135" lon="2.47555">
        <ele>701</ele>
        <time>2025-06-08T09:11:34.479Z</time>
      </trkpt>
      <trkpt lat="45.39136" lon="2.47553">
        <ele>701</ele>
        <time>2025-06-08T09:11:35.479Z</time>
      </trkpt>
      <trkpt lat="45.39137" lon="2.47552">
        <ele>701</ele>
        <time>2025-06-08T09:11:36.479Z</time>
      </trkpt>
      <trkpt lat="45.39138" lon="2.47551">
        <ele>701</ele>
        <time>2025-06-08T09:11:37.479Z</time>
      </trkpt>
      <trkpt lat="45.39139" lon="2.4755">
        <ele>701</ele>
        <time>2025-06-08T09:11:38.479Z</time>
      </trkpt>
      <trkpt lat="45.3914" lon="2.47549">
        <ele>701</ele>
        <time>2025-06-08T09:11:39.479Z</time>
      </trkpt>
      <trkpt lat="45.39141" lon="2.47548">
        <ele>701</ele>
        <time>2025-06-08T09:11:40.479Z</time>
      </trkpt>
      <trkpt lat="45.39142" lon="2.47547">
        <ele>701</ele>
        <time>2025-06-08T09:11:41.479Z</time>
      </trkpt>
      <trkpt lat="45.39143" lon="2.47546">
        <ele>701</ele>
        <time>2025-06-08T09:11:42.479Z</time>
      </trkpt>
      <trkpt lat="45.39144" lon="2.47545">
        <ele>701</ele>
        <time>2025-06-08T09:11:43.479Z</time>
      </trkpt>
      <trkpt lat="45.39145" lon="2.47544">
        <ele>701</ele>
        <time>2025-06-08T09:11:44.479Z</time>
      </trkpt>
      <trkpt lat="45.39146" lon="2.47543">
        <ele>701</ele>
        <time>2025-06-08T09:11:45.479Z</time>
      </trkpt>
      <trkpt lat="45.39147" lon="2.47542">
        <ele>702</ele>
        <time>2025-06-08T09:11:46.479Z</time>
      </trkpt>
      <trkpt lat="45.39148" lon="2.47542">
        <ele>702</ele>
        <time>2025-06-08T09:11:47.479Z</time>
      </trkpt>
      <trkpt lat="45.39149" lon="2.47541">
        <ele>702</ele>
        <time>2025-06-08T09:11:48.479Z</time>
      </trkpt>
      <trkpt lat="45.3915" lon="2.47541">
        <ele>702</ele>
        <time>2025-06-08T09:11:49.479Z</time>
      </trkpt>
      <trkpt lat="45.39151" lon="2.4754">
        <ele>702</ele>
        <time>2025-06-08T09:11:50.479Z</time>
      </trkpt>
      <trkpt lat="45.39152" lon="2.47539">
        <ele>703</ele>
        <time>2025-06-08T09:11:51.479Z</time>
      </trkpt>
      <trkpt lat="45.39153" lon="2.47538">
        <ele>703</ele>
        <time>2025-06-08T09:11:52.479Z</time>
      </trkpt>
      <trkpt lat="45.39155" lon="2.47537">
        <ele>703</ele>
        <time>2025-06-08T09:11:53.479Z</time>
      </trkpt>
      <trkpt lat="45.39156" lon="2.47537">
        <ele>704</ele>
        <time>2025-06-08T09:11:54.479Z</time>
      </trkpt>
      <trkpt lat="45.39157" lon="2.47537">
        <ele>704</ele>
        <time>2025-06-08T09:11:55.479Z</time>
      </trkpt>
      <trkpt lat="45.39158" lon="2.47536">
        <ele>704</ele>
        <time>2025-06-08T09:11:56.479Z</time>
      </trkpt>
      <trkpt lat="45.39159" lon="2.47536">
        <ele>704</ele>
        <time>2025-06-08T09:11:57.479Z</time>
      </trkpt>
      <trkpt lat="45.3916" lon="2.47536">
        <ele>704</ele>
        <time>2025-06-08T09:11:58.479Z</time>
      </trkpt>
      <trkpt lat="45.39162" lon="2.47536">
        <ele>704</ele>
        <time>2025-06-08T09:11:59.479Z</time>
      </trkpt>
      <trkpt lat="45.39163" lon="2.47536">
        <ele>704</ele>
        <time>2025-06-08T09:12:00.479Z</time>
      </trkpt>
      <trkpt lat="45.39164" lon="2.47536">
        <ele>704</ele>
        <time>2025-06-08T09:12:01.479Z</time>
      </trkpt>
      <trkpt lat="45.39165" lon="2.47536">
        <ele>704</ele>
        <time>2025-06-08T09:12:02.479Z</time>
      </trkpt>
      <trkpt lat="45.39167" lon="2.47536">
        <ele>704</ele>
        <time>2025-06-08T09:12:03.479Z</time>
      </trkpt>
      <trkpt lat="45.39168" lon="2.47537">
        <ele>704</ele>
        <time>2025-06-08T09:12:04.479Z</time>
      </trkpt>
      <trkpt lat="45.3917" lon="2.47537">
        <ele>703</ele>
        <time>2025-06-08T09:12:05.479Z</time>
      </trkpt>
      <trkpt lat="45.39171" lon="2.47538">
        <ele>703</ele>
        <time>2025-06-08T09:12:06.479Z</time>
      </trkpt>
      <trkpt lat="45.39172" lon="2.47538">
        <ele>703</ele>
        <time>2025-06-08T09:12:07.479Z</time>
      </trkpt>
      <trkpt lat="45.39173" lon="2.47538">
        <ele>703</ele>
        <time>2025-06-08T09:12:08.479Z</time>
      </trkpt>
      <trkpt lat="45.39174" lon="2.47538">
        <ele>703</ele>
        <time>2025-06-08T09:12:09.479Z</time>
      </trkpt>
      <trkpt lat="45.39175" lon="2.47538">
        <ele>704</ele>
        <time>2025-06-08T09:12:10.479Z</time>
      </trkpt>
      <trkpt lat="45.39176" lon="2.47538">
        <ele>704</ele>
        <time>2025-06-08T09:12:11.479Z</time>
      </trkpt>
      <trkpt lat="45.39177" lon="2.47538">
        <ele>705</ele>
        <time>2025-06-08T09:12:12.479Z</time>
      </trkpt>
      <trkpt lat="45.39179" lon="2.47539">
        <ele>705</ele>
        <time>2025-06-08T09:12:13.479Z</time>
      </trkpt>
      <trkpt lat="45.3918" lon="2.47539">
        <ele>705</ele>
        <time>2025-06-08T09:12:14.479Z</time>
      </trkpt>
      <trkpt lat="45.39181" lon="2.47539">
        <ele>705</ele>
        <time>2025-06-08T09:12:15.479Z</time>
      </trkpt>
      <trkpt lat="45.39182" lon="2.47539">
        <ele>705</ele>
        <time>2025-06-08T09:12:16.479Z</time>
      </trkpt>
      <trkpt lat="45.39183" lon="2.47539">
        <ele>706</ele>
        <time>2025-06-08T09:12:17.479Z</time>
      </trkpt>
      <trkpt lat="45.39184" lon="2.47539">
        <ele>706</ele>
        <time>2025-06-08T09:12:18.479Z</time>
      </trkpt>
      <trkpt lat="45.39185" lon="2.47539">
        <ele>707</ele>
        <time>2025-06-08T09:12:19.479Z</time>
      </trkpt>
      <trkpt lat="45.39186" lon="2.47538">
        <ele>707</ele>
        <time>2025-06-08T09:12:20.479Z</time>
      </trkpt>
      <trkpt lat="45.39187" lon="2.47538">
        <ele>708</ele>
        <time>2025-06-08T09:12:21.479Z</time>
      </trkpt>
      <trkpt lat="45.39188" lon="2.47538">
        <ele>708</ele>
        <time>2025-06-08T09:12:22.479Z</time>
      </trkpt>
      <trkpt lat="45.39189" lon="2.47537">
        <ele>709</ele>
        <time>2025-06-08T09:12:23.479Z</time>
      </trkpt>
      <trkpt lat="45.3919" lon="2.47537">
        <ele>709</ele>
        <time>2025-06-08T09:12:24.479Z</time>
      </trkpt>
      <trkpt lat="45.39191" lon="2.47537">
        <ele>710</ele>
        <time>2025-06-08T09:12:25.479Z</time>
      </trkpt>
      <trkpt lat="45.39191" lon="2.47537">
        <ele>710</ele>
        <time>2025-06-08T09:12:26.479Z</time>
      </trkpt>
      <trkpt lat="45.39192" lon="2.47537">
        <ele>710</ele>
        <time>2025-06-08T09:12:27.479Z</time>
      </trkpt>
      <trkpt lat="45.39193" lon="2.47537">
        <ele>711</ele>
        <time>2025-06-08T09:12:28.479Z</time>
      </trkpt>
      <trkpt lat="45.39194" lon="2.47537">
        <ele>711</ele>
        <time>2025-06-08T09:12:29.479Z</time>
      </trkpt>
      <trkpt lat="45.39194" lon="2.47538">
        <ele>711</ele>
        <time>2025-06-08T09:12:30.479Z</time>
      </trkpt>
      <trkpt lat="45.39195" lon="2.47538">
        <ele>711</ele>
        <time>2025-06-08T09:12:31.479Z</time>
      </trkpt>
      <trkpt lat="45.39195" lon="2.47538">
        <ele>711</ele>
        <time>2025-06-08T09:12:32.479Z</time>
      </trkpt>
      <trkpt lat="45.39195" lon="2.47539">
        <ele>711</ele>
        <time>2025-06-08T09:12:33.479Z</time>
      </trkpt>
      <trkpt lat="45.39195" lon="2.47539">
        <ele>711</ele>
        <time>2025-06-08T09:12:34.479Z</time>
      </trkpt>
      <trkpt lat="45.39195" lon="2.47539">
        <ele>711</ele>
        <time>2025-06-08T09:12:35.479Z</time>
      </trkpt>
      <trkpt lat="45.39196" lon="2.4754">
        <ele>711</ele>
        <time>2025-06-08T09:12:36.479Z</time>
      </trkpt>
      <trkpt lat="45.39196" lon="2.4754">
        <ele>710</ele>
        <time>2025-06-08T09:12:37.479Z</time>
      </trkpt>
      <trkpt lat="45.39197" lon="2.4754">
        <ele>710</ele>
        <time>2025-06-08T09:12:38.479Z</time>
      </trkpt>
      <trkpt lat="45.39197" lon="2.47541">
        <ele>710</ele>
        <time>2025-06-08T09:12:39.479Z</time>
      </trkpt>
      <trkpt lat="45.39198" lon="2.47541">
        <ele>710</ele>
        <time>2025-06-08T09:12:40.479Z</time>
      </trkpt>
      <trkpt lat="45.39199" lon="2.47542">
        <ele>710</ele>
        <time>2025-06-08T09:12:41.479Z</time>
      </trkpt>
      <trkpt lat="45.39199" lon="2.47543">
        <ele>710</ele>
        <time>2025-06-08T09:12:42.479Z</time>
      </trkpt>
      <trkpt lat="45.392" lon="2.47543">
        <ele>710</ele>
        <time>2025-06-08T09:12:43.479Z</time>
      </trkpt>
      <trkpt lat="45.39201" lon="2.47543">
        <ele>710</ele>
        <time>2025-06-08T09:12:44.479Z</time>
      </trkpt>
      <trkpt lat="45.39202" lon="2.47543">
        <ele>710</ele>
        <time>2025-06-08T09:12:45.479Z</time>
      </trkpt>
      <trkpt lat="45.39202" lon="2.47543">
        <ele>710</ele>
        <time>2025-06-08T09:12:46.479Z</time>
      </trkpt>
      <trkpt lat="45.39203" lon="2.47543">
        <ele>710</ele>
        <time>2025-06-08T09:12:47.479Z</time>
      </trkpt>
      <trkpt lat="45.39203" lon="2.47543">
        <ele>710</ele>
        <time>2025-06-08T09:12:48.479Z</time>
      </trkpt>
      <trkpt lat="45.39204" lon="2.47543">
        <ele>710</ele>
        <time>2025-06-08T09:12:49.479Z</time>
      </trkpt>
      <trkpt lat="45.39204" lon="2.47543">
        <ele>710</ele>
        <time>2025-06-08T09:12:50.479Z</time>
      </trkpt>
      <trkpt lat="45.39204" lon="2.47543">
        <ele>710</ele>
        <time>2025-06-08T09:12:51.479Z</time>
      </trkpt>
      <trkpt lat="45.39205" lon="2.47543">
        <ele>710</ele>
        <time>2025-06-08T09:12:52.479Z</time>
      </trkpt>
      <trkpt lat="45.39205" lon="2.47543">
        <ele>709</ele>
        <time>2025-06-08T09:12:53.479Z</time>
      </trkpt>
      <trkpt lat="45.39205" lon="2.47543">
        <ele>709</ele>
        <time>2025-06-08T09:12:54.479Z</time>
      </trkpt>
      <trkpt lat="45.39205" lon="2.47543">
        <ele>709</ele>
        <time>2025-06-08T09:12:55.479Z</time>
      </trkpt>
      <trkpt lat="45.39205" lon="2.47543">
        <ele>709</ele>
        <time>2025-06-08T09:12:56.479Z</time>
      </trkpt>
      <trkpt lat="45.39205" lon="2.47543">
        <ele>709</ele>
        <time>2025-06-08T09:12:57.479Z</time>
      </trkpt>
      <trkpt lat="45.39205" lon="2.47542">
        <ele>709</ele>
        <time>2025-06-08T09:12:58.479Z</time>
      </trkpt>
      <trkpt lat="45.39205" lon="2.47542">
        <ele>709</ele>
        <time>2025-06-08T09:12:59.479Z</time>
      </trkpt>
      <trkpt lat="45.39205" lon="2.47542">
        <ele>709</ele>
        <time>2025-06-08T09:13:00.479Z</time>
      </trkpt>
      <trkpt lat="45.39205" lon="2.47542">
        <ele>708</ele>
        <time>2025-06-08T09:13:01.479Z</time>
      </trkpt>
      <trkpt lat="45.39205" lon="2.47542">
        <ele>708</ele>
        <time>2025-06-08T09:13:02.479Z</time>
      </trkpt>
      <trkpt lat="45.39206" lon="2.47542">
        <ele>708</ele>
        <time>2025-06-08T09:13:03.479Z</time>
      </trkpt>
      <trkpt lat="45.39206" lon="2.47542">
        <ele>708</ele>
        <time>2025-06-08T09:13:04.479Z</time>
      </trkpt>
      <trkpt lat="45.39206" lon="2.47542">
        <ele>707</ele>
        <time>2025-06-08T09:13:05.479Z</time>
      </trkpt>
      <trkpt lat="45.39205" lon="2.47542">
        <ele>707</ele>
        <time>2025-06-08T09:13:06.479Z</time>
      </trkpt>
      <trkpt lat="45.39205" lon="2.47542">
        <ele>707</ele>
        <time>2025-06-08T09:13:07.479Z</time>
      </trkpt>
      <trkpt lat="45.39205" lon="2.47542">
        <ele>707</ele>
        <time>2025-06-08T09:13:08.479Z</time>
      </trkpt>
      <trkpt lat="45.39205" lon="2.47542">
        <ele>706</ele>
        <time>2025-06-08T09:13:09.479Z</time>
      </trkpt>
      <trkpt lat="45.39205" lon="2.47542">
        <ele>706</ele>
        <time>2025-06-08T09:13:10.479Z</time>
      </trkpt>
      <trkpt lat="45.39206" lon="2.47542">
        <ele>705</ele>
        <time>2025-06-08T09:13:11.479Z</time>
      </trkpt>
      <trkpt lat="45.39206" lon="2.47542">
        <ele>705</ele>
        <time>2025-06-08T09:13:12.479Z</time>
      </trkpt>
      <trkpt lat="45.39206" lon="2.47542">
        <ele>704</ele>
        <time>2025-06-08T09:13:13.479Z</time>
      </trkpt>
      <trkpt lat="45.39206" lon="2.47541">
        <ele>704</ele>
        <time>2025-06-08T09:13:14.479Z</time>
      </trkpt>
      <trkpt lat="45.39206" lon="2.47541">
        <ele>703</ele>
        <time>2025-06-08T09:13:15.479Z</time>
      </trkpt>
      <trkpt lat="45.39206" lon="2.47541">
        <ele>703</ele>
        <time>2025-06-08T09:13:16.479Z</time>
      </trkpt>
      <trkpt lat="45.39206" lon="2.47541">
        <ele>702</ele>
        <time>2025-06-08T09:13:17.479Z</time>
      </trkpt>
      <trkpt lat="45.39206" lon="2.47541">
        <ele>701</ele>
        <time>2025-06-08T09:13:18.479Z</time>
      </trkpt>
      <trkpt lat="45.39206" lon="2.47541">
        <ele>701</ele>
        <time>2025-06-08T09:13:19.479Z</time>
      </trkpt>
      <trkpt lat="45.39206" lon="2.47541">
        <ele>700</ele>
        <time>2025-06-08T09:13:20.479Z</time>
      </trkpt>
      <trkpt lat="45.39206" lon="2.47541">
        <ele>700</ele>
        <time>2025-06-08T09:13:21.479Z</time>
      </trkpt>
      <trkpt lat="45.39206" lon="2.47542">
        <ele>700</ele>
        <time>2025-06-08T09:13:22.479Z</time>
      </trkpt>
      <trkpt lat="45.39206" lon="2.47542">
        <ele>700</ele>
        <time>2025-06-08T09:13:23.479Z</time>
      </trkpt>
      <trkpt lat="45.39206" lon="2.47542">
        <ele>700</ele>
        <time>2025-06-08T09:13:24.479Z</time>
      </trkpt>
      <trkpt lat="45.39206" lon="2.47542">
        <ele>700</ele>
        <time>2025-06-08T09:13:25.479Z</time>
      </trkpt>
      <trkpt lat="45.39206" lon="2.47542">
        <ele>701</ele>
        <time>2025-06-08T09:13:26.479Z</time>
      </trkpt>
      <trkpt lat="45.39206" lon="2.47542">
        <ele>701</ele>
        <time>2025-06-08T09:13:27.479Z</time>
      </trkpt>
      <trkpt lat="45.39206" lon="2.47542">
        <ele>702</ele>
        <time>2025-06-08T09:13:28.479Z</time>
      </trkpt>
      <trkpt lat="45.39206" lon="2.47542">
        <ele>702</ele>
        <time>2025-06-08T09:13:29.479Z</time>
      </trkpt>
      <trkpt lat="45.39206" lon="2.47542">
        <ele>703</ele>
        <time>2025-06-08T09:13:30.479Z</time>
      </trkpt>
      <trkpt lat="45.39206" lon="2.47542">
        <ele>703</ele>
        <time>2025-06-08T09:13:31.479Z</time>
      </trkpt>
      <trkpt lat="45.39206" lon="2.47542">
        <ele>703</ele>
        <time>2025-06-08T09:13:32.479Z</time>
      </trkpt>
      <trkpt lat="45.39206" lon="2.47542">
        <ele>703</ele>
        <time>2025-06-08T09:13:33.479Z</time>
      </trkpt>
      <trkpt lat="45.39206" lon="2.47542">
        <ele>703</ele>
        <time>2025-06-08T09:13:34.479Z</time>
      </trkpt>
      <trkpt lat="45.39206" lon="2.47542">
        <ele>703</ele>
        <time>2025-06-08T09:13:35.479Z</time>
      </trkpt>
      <trkpt lat="45.39206" lon="2.47542">
        <ele>702</ele>
        <time>2025-06-08T09:13:36.479Z</time>
      </trkpt>
      <trkpt lat="45.39206" lon="2.47542">
        <ele>702</ele>
        <time>2025-06-08T09:13:37.479Z</time>
      </trkpt>
      <trkpt lat="45.39206" lon="2.47542">
        <ele>702</ele>
        <time>2025-06-08T09:13:38.479Z</time>
      </trkpt>
      <trkpt lat="45.39207" lon="2.47541">
        <ele>702</ele>
        <time>2025-06-08T09:13:39.479Z</time>
      </trkpt>
      <trkpt lat="45.39207" lon="2.47541">
        <ele>702</ele>
        <time>2025-06-08T09:13:40.479Z</time>
      </trkpt>
      <trkpt lat="45.39207" lon="2.47541">
        <ele>702</ele>
        <time>2025-06-08T09:13:41.479Z</time>
      </trkpt>
      <trkpt lat="45.39207" lon="2.47542">
        <ele>701</ele>
        <time>2025-06-08T09:13:42.479Z</time>
      </trkpt>
      <trkpt lat="45.39207" lon="2.47542">
        <ele>701</ele>
        <time>2025-06-08T09:13:43.479Z</time>
      </trkpt>
      <trkpt lat="45.39206" lon="2.47542">
        <ele>701</ele>
        <time>2025-06-08T09:13:44.479Z</time>
      </trkpt>
      <trkpt lat="45.39206" lon="2.47542">
        <ele>700</ele>
        <time>2025-06-08T09:13:45.479Z</time>
      </trkpt>
      <trkpt lat="45.39206" lon="2.47542">
        <ele>700</ele>
        <time>2025-06-08T09:13:46.479Z</time>
      </trkpt>
      <trkpt lat="45.39206" lon="2.47542">
        <ele>699</ele>
        <time>2025-06-08T09:13:47.479Z</time>
      </trkpt>
      <trkpt lat="45.39206" lon="2.47542">
        <ele>699</ele>
        <time>2025-06-08T09:13:48.479Z</time>
      </trkpt>
      <trkpt lat="45.39206" lon="2.47542">
        <ele>699</ele>
        <time>2025-06-08T09:13:49.479Z</time>
      </trkpt>
      <trkpt lat="45.39206" lon="2.47542">
        <ele>699</ele>
        <time>2025-06-08T09:13:50.479Z</time>
      </trkpt>
      <trkpt lat="45.39206" lon="2.47542">
        <ele>698</ele>
        <time>2025-06-08T09:13:51.479Z</time>
      </trkpt>
      <trkpt lat="45.39206" lon="2.47542">
        <ele>699</ele>
        <time>2025-06-08T09:13:52.479Z</time>
      </trkpt>
      <trkpt lat="45.39206" lon="2.47542">
        <ele>699</ele>
        <time>2025-06-08T09:13:53.479Z</time>
      </trkpt>
      <trkpt lat="45.39206" lon="2.47542">
        <ele>698</ele>
        <time>2025-06-08T09:13:54.479Z</time>
      </trkpt>
      <trkpt lat="45.39206" lon="2.47543">
        <ele>698</ele>
        <time>2025-06-08T09:13:55.479Z</time>
      </trkpt>
      <trkpt lat="45.39206" lon="2.47543">
        <ele>698</ele>
        <time>2025-06-08T09:13:56.479Z</time>
      </trkpt>
      <trkpt lat="45.39206" lon="2.47543">
        <ele>698</ele>
        <time>2025-06-08T09:13:57.479Z</time>
      </trkpt>
      <trkpt lat="45.39206" lon="2.47543">
        <ele>698</ele>
        <time>2025-06-08T09:13:58.479Z</time>
      </trkpt>
      <trkpt lat="45.39206" lon="2.47543">
        <ele>699</ele>
        <time>2025-06-08T09:13:59.479Z</time>
      </trkpt>
      <trkpt lat="45.39206" lon="2.47543">
        <ele>699</ele>
        <time>2025-06-08T09:14:00.479Z</time>
      </trkpt>
      <trkpt lat="45.39207" lon="2.47543">
        <ele>699</ele>
        <time>2025-06-08T09:14:01.479Z</time>
      </trkpt>
      <trkpt lat="45.39207" lon="2.47543">
        <ele>699</ele>
        <time>2025-06-08T09:14:02.479Z</time>
      </trkpt>
      <trkpt lat="45.39207" lon="2.47543">
        <ele>700</ele>
        <time>2025-06-08T09:14:03.479Z</time>
      </trkpt>
      <trkpt lat="45.39207" lon="2.47543">
        <ele>701</ele>
        <time>2025-06-08T09:14:04.479Z</time>
      </trkpt>
      <trkpt lat="45.39207" lon="2.47543">
        <ele>701</ele>
        <time>2025-06-08T09:14:05.479Z</time>
      </trkpt>
      <trkpt lat="45.39207" lon="2.47543">
        <ele>702</ele>
        <time>2025-06-08T09:14:06.479Z</time>
      </trkpt>
      <trkpt lat="45.39207" lon="2.47543">
        <ele>703</ele>
        <time>2025-06-08T09:14:07.479Z</time>
      </trkpt>
      <trkpt lat="45.39207" lon="2.47543">
        <ele>704</ele>
        <time>2025-06-08T09:14:08.479Z</time>
      </trkpt>
      <trkpt lat="45.39207" lon="2.47542">
        <ele>704</ele>
        <time>2025-06-08T09:14:09.479Z</time>
      </trkpt>
      <trkpt lat="45.39207" lon="2.47542">
        <ele>705</ele>
        <time>2025-06-08T09:14:10.479Z</time>
      </trkpt>
      <trkpt lat="45.39207" lon="2.47542">
        <ele>706</ele>
        <time>2025-06-08T09:14:11.479Z</time>
      </trkpt>
      <trkpt lat="45.39207" lon="2.47542">
        <ele>707</ele>
        <time>2025-06-08T09:14:12.479Z</time>
      </trkpt>
      <trkpt lat="45.39207" lon="2.47542">
        <ele>707</ele>
        <time>2025-06-08T09:14:13.479Z</time>
      </trkpt>
      <trkpt lat="45.39207" lon="2.47542">
        <ele>708</ele>
        <time>2025-06-08T09:14:14.479Z</time>
      </trkpt>
      <trkpt lat="45.39207" lon="2.47542">
        <ele>709</ele>
        <time>2025-06-08T09:14:15.479Z</time>
      </trkpt>
      <trkpt lat="45.39207" lon="2.47542">
        <ele>710</ele>
        <time>2025-06-08T09:14:16.479Z</time>
      </trkpt>
      <trkpt lat="45.39207" lon="2.47542">
        <ele>710</ele>
        <time>2025-06-08T09:14:17.479Z</time>
      </trkpt>
      <trkpt lat="45.39207" lon="2.47542">
        <ele>711</ele>
        <time>2025-06-08T09:14:18.479Z</time>
      </trkpt>
      <trkpt lat="45.39207" lon="2.47542">
        <ele>711</ele>
        <time>2025-06-08T09:14:19.479Z</time>
      </trkpt>
      <trkpt lat="45.39206" lon="2.47542">
        <ele>711</ele>
        <time>2025-06-08T09:14:20.479Z</time>
      </trkpt>
      <trkpt lat="45.39206" lon="2.47541">
        <ele>711</ele>
        <time>2025-06-08T09:14:21.479Z</time>
      </trkpt>
      <trkpt lat="45.39206" lon="2.47541">
        <ele>711</ele>
        <time>2025-06-08T09:14:22.479Z</time>
      </trkpt>
      <trkpt lat="45.39206" lon="2.47541">
        <ele>711</ele>
        <time>2025-06-08T09:14:23.479Z</time>
      </trkpt>
      <trkpt lat="45.39206" lon="2.47541">
        <ele>710</ele>
        <time>2025-06-08T09:14:24.479Z</time>
      </trkpt>
      <trkpt lat="45.39206" lon="2.47541">
        <ele>710</ele>
        <time>2025-06-08T09:14:25.479Z</time>
      </trkpt>
      <trkpt lat="45.39206" lon="2.47541">
        <ele>710</ele>
        <time>2025-06-08T09:14:26.479Z</time>
      </trkpt>
      <trkpt lat="45.39205" lon="2.47541">
        <ele>710</ele>
        <time>2025-06-08T09:14:27.479Z</time>
      </trkpt>
      <trkpt lat="45.39205" lon="2.47542">
        <ele>710</ele>
        <time>2025-06-08T09:14:28.479Z</time>
      </trkpt>
      <trkpt lat="45.39205" lon="2.47542">
        <ele>710</ele>
        <time>2025-06-08T09:14:29.479Z</time>
      </trkpt>
      <trkpt lat="45.39205" lon="2.47542">
        <ele>711</ele>
        <time>2025-06-08T09:14:30.479Z</time>
      </trkpt>
      <trkpt lat="45.39205" lon="2.47542">
        <ele>711</ele>
        <time>2025-06-08T09:14:31.479Z</time>
      </trkpt>
      <trkpt lat="45.39205" lon="2.47542">
        <ele>711</ele>
        <time>2025-06-08T09:14:32.479Z</time>
      </trkpt>
      <trkpt lat="45.39205" lon="2.47542">
        <ele>711</ele>
        <time>2025-06-08T09:14:33.479Z</time>
      </trkpt>
      <trkpt lat="45.39205" lon="2.47541">
        <ele>712</ele>
        <time>2025-06-08T09:14:34.479Z</time>
      </trkpt>
      <trkpt lat="45.39205" lon="2.47541">
        <ele>711</ele>
        <time>2025-06-08T09:14:35.479Z</time>
      </trkpt>
      <trkpt lat="45.39205" lon="2.47541">
        <ele>711</ele>
        <time>2025-06-08T09:14:36.479Z</time>
      </trkpt>
      <trkpt lat="45.39205" lon="2.47541">
        <ele>711</ele>
        <time>2025-06-08T09:14:37.479Z</time>
      </trkpt>
      <trkpt lat="45.39205" lon="2.47541">
        <ele>711</ele>
        <time>2025-06-08T09:14:38.479Z</time>
      </trkpt>
      <trkpt lat="45.39206" lon="2.47541">
        <ele>711</ele>
        <time>2025-06-08T09:14:39.479Z</time>
      </trkpt>
      <trkpt lat="45.39206" lon="2.47542">
        <ele>711</ele>
        <time>2025-06-08T09:14:40.479Z</time>
      </trkpt>
      <trkpt lat="45.39205" lon="2.47542">
        <ele>711</ele>
        <time>2025-06-08T09:14:41.479Z</time>
      </trkpt>
      <trkpt lat="45.39205" lon="2.47542">
        <ele>711</ele>
        <time>2025-06-08T09:14:42.479Z</time>
      </trkpt>
      <trkpt lat="45.39205" lon="2.47542">
        <ele>711</ele>
        <time>2025-06-08T09:14:43.479Z</time>
      </trkpt>
      <trkpt lat="45.39205" lon="2.47542">
        <ele>711</ele>
        <time>2025-06-08T09:14:44.479Z</time>
      </trkpt>
      <trkpt lat="45.39206" lon="2.47543">
        <ele>712</ele>
        <time>2025-06-08T09:14:45.479Z</time>
      </trkpt>
      <trkpt lat="45.39206" lon="2.47543">
        <ele>712</ele>
        <time>2025-06-08T09:14:46.479Z</time>
      </trkpt>
      <trkpt lat="45.39207" lon="2.47543">
        <ele>712</ele>
        <time>2025-06-08T09:14:47.479Z</time>
      </trkpt>
      <trkpt lat="45.39206" lon="2.47543">
        <ele>713</ele>
        <time>2025-06-08T09:14:48.479Z</time>
      </trkpt>
      <trkpt lat="45.39206" lon="2.47544">
        <ele>713</ele>
        <time>2025-06-08T09:14:49.479Z</time>
      </trkpt>
      <trkpt lat="45.39206" lon="2.47544">
        <ele>714</ele>
        <time>2025-06-08T09:14:50.479Z</time>
      </trkpt>
      <trkpt lat="45.39206" lon="2.47545">
        <ele>714</ele>
        <time>2025-06-08T09:14:51.479Z</time>
      </trkpt>
      <trkpt lat="45.39206" lon="2.47545">
        <ele>715</ele>
        <time>2025-06-08T09:14:52.479Z</time>
      </trkpt>
      <trkpt lat="45.39206" lon="2.47545">
        <ele>716</ele>
        <time>2025-06-08T09:14:53.479Z</time>
      </trkpt>
      <trkpt lat="45.39207" lon="2.47545">
        <ele>716</ele>
        <time>2025-06-08T09:14:54.479Z</time>
      </trkpt>
      <trkpt lat="45.39207" lon="2.47545">
        <ele>717</ele>
        <time>2025-06-08T09:14:55.479Z</time>
      </trkpt>
      <trkpt lat="45.39207" lon="2.47546">
        <ele>717</ele>
        <time>2025-06-08T09:14:56.479Z</time>
      </trkpt>
      <trkpt lat="45.39207" lon="2.47546">
        <ele>718</ele>
        <time>2025-06-08T09:14:57.479Z</time>
      </trkpt>
      <trkpt lat="45.39207" lon="2.47546">
        <ele>718</ele>
        <time>2025-06-08T09:14:58.479Z</time>
      </trkpt>
      <trkpt lat="45.39207" lon="2.47547">
        <ele>719</ele>
        <time>2025-06-08T09:14:59.479Z</time>
      </trkpt>
      <trkpt lat="45.39207" lon="2.47546">
        <ele>719</ele>
        <time>2025-06-08T09:15:00.479Z</time>
      </trkpt>
      <trkpt lat="45.39207" lon="2.47546">
        <ele>719</ele>
        <time>2025-06-08T09:15:01.479Z</time>
      </trkpt>
      <trkpt lat="45.39207" lon="2.47547">
        <ele>719</ele>
        <time>2025-06-08T09:15:02.479Z</time>
      </trkpt>
      <trkpt lat="45.39207" lon="2.47546">
        <ele>719</ele>
        <time>2025-06-08T09:15:03.479Z</time>
      </trkpt>
      <trkpt lat="45.39206" lon="2.47547">
        <ele>719</ele>
        <time>2025-06-08T09:15:04.479Z</time>
      </trkpt>
      <trkpt lat="45.39206" lon="2.47547">
        <ele>719</ele>
        <time>2025-06-08T09:15:05.479Z</time>
      </trkpt>
      <trkpt lat="45.39206" lon="2.47547">
        <ele>719</ele>
        <time>2025-06-08T09:15:06.479Z</time>
      </trkpt>
      <trkpt lat="45.39206" lon="2.47547">
        <ele>718</ele>
        <time>2025-06-08T09:15:07.479Z</time>
      </trkpt>
      <trkpt lat="45.39207" lon="2.47547">
        <ele>718</ele>
        <time>2025-06-08T09:15:08.479Z</time>
      </trkpt>
      <trkpt lat="45.39207" lon="2.47548">
        <ele>717</ele>
        <time>2025-06-08T09:15:09.479Z</time>
      </trkpt>
      <trkpt lat="45.39208" lon="2.47548">
        <ele>717</ele>
        <time>2025-06-08T09:15:10.479Z</time>
      </trkpt>
      <trkpt lat="45.39208" lon="2.47548">
        <ele>717</ele>
        <time>2025-06-08T09:15:11.479Z</time>
      </trkpt>
      <trkpt lat="45.39209" lon="2.47549">
        <ele>716</ele>
        <time>2025-06-08T09:15:12.479Z</time>
      </trkpt>
      <trkpt lat="45.3921" lon="2.47549">
        <ele>716</ele>
        <time>2025-06-08T09:15:13.479Z</time>
      </trkpt>
      <trkpt lat="45.3921" lon="2.47549">
        <ele>716</ele>
        <time>2025-06-08T09:15:14.479Z</time>
      </trkpt>
      <trkpt lat="45.39211" lon="2.47549">
        <ele>716</ele>
        <time>2025-06-08T09:15:15.479Z</time>
      </trkpt>
      <trkpt lat="45.39212" lon="2.47549">
        <ele>716</ele>
        <time>2025-06-08T09:15:16.479Z</time>
      </trkpt>
      <trkpt lat="45.39213" lon="2.47549">
        <ele>716</ele>
        <time>2025-06-08T09:15:17.479Z</time>
      </trkpt>
      <trkpt lat="45.39214" lon="2.47549">
        <ele>716</ele>
        <time>2025-06-08T09:15:18.479Z</time>
      </trkpt>
      <trkpt lat="45.39214" lon="2.47549">
        <ele>716</ele>
        <time>2025-06-08T09:15:19.479Z</time>
      </trkpt>
      <trkpt lat="45.39215" lon="2.47549">
        <ele>715</ele>
        <time>2025-06-08T09:15:20.479Z</time>
      </trkpt>
      <trkpt lat="45.39215" lon="2.4755">
        <ele>715</ele>
        <time>2025-06-08T09:15:21.479Z</time>
      </trkpt>
      <trkpt lat="45.39216" lon="2.47551">
        <ele>715</ele>
        <time>2025-06-08T09:15:22.479Z</time>
      </trkpt>
      <trkpt lat="45.39216" lon="2.47551">
        <ele>715</ele>
        <time>2025-06-08T09:15:23.479Z</time>
      </trkpt>
      <trkpt lat="45.39217" lon="2.47551">
        <ele>715</ele>
        <time>2025-06-08T09:15:24.479Z</time>
      </trkpt>
      <trkpt lat="45.39217" lon="2.47552">
        <ele>714</ele>
        <time>2025-06-08T09:15:25.479Z</time>
      </trkpt>
      <trkpt lat="45.39218" lon="2.47552">
        <ele>714</ele>
        <time>2025-06-08T09:15:26.479Z</time>
      </trkpt>
      <trkpt lat="45.39219" lon="2.47553">
        <ele>714</ele>
        <time>2025-06-08T09:15:27.479Z</time>
      </trkpt>
      <trkpt lat="45.39219" lon="2.47554">
        <ele>713</ele>
        <time>2025-06-08T09:15:28.479Z</time>
      </trkpt>
      <trkpt lat="45.3922" lon="2.47554">
        <ele>713</ele>
        <time>2025-06-08T09:15:29.479Z</time>
      </trkpt>
      <trkpt lat="45.3922" lon="2.47554">
        <ele>713</ele>
        <time>2025-06-08T09:15:30.479Z</time>
      </trkpt>
      <trkpt lat="45.39221" lon="2.47555">
        <ele>712</ele>
        <time>2025-06-08T09:15:31.479Z</time>
      </trkpt>
      <trkpt lat="45.39221" lon="2.47555">
        <ele>712</ele>
        <time>2025-06-08T09:15:32.479Z</time>
      </trkpt>
      <trkpt lat="45.39222" lon="2.47555">
        <ele>712</ele>
        <time>2025-06-08T09:15:33.479Z</time>
      </trkpt>
      <trkpt lat="45.39223" lon="2.47555">
        <ele>712</ele>
        <time>2025-06-08T09:15:34.479Z</time>
      </trkpt>
      <trkpt lat="45.39224" lon="2.47557">
        <ele>712</ele>
        <time>2025-06-08T09:15:35.479Z</time>
      </trkpt>
      <trkpt lat="45.39225" lon="2.47558">
        <ele>712</ele>
        <time>2025-06-08T09:15:36.479Z</time>
      </trkpt>
      <trkpt lat="45.39226" lon="2.47559">
        <ele>712</ele>
        <time>2025-06-08T09:15:37.479Z</time>
      </trkpt>
      <trkpt lat="45.39227" lon="2.47559">
        <ele>712</ele>
        <time>2025-06-08T09:15:38.479Z</time>
      </trkpt>
      <trkpt lat="45.39228" lon="2.4756">
        <ele>712</ele>
        <time>2025-06-08T09:15:39.479Z</time>
      </trkpt>
      <trkpt lat="45.3923" lon="2.47559">
        <ele>713</ele>
        <time>2025-06-08T09:15:40.479Z</time>
      </trkpt>
      <trkpt lat="45.3923" lon="2.47559">
        <ele>713</ele>
        <time>2025-06-08T09:15:41.479Z</time>
      </trkpt>
      <trkpt lat="45.39232" lon="2.47558">
        <ele>713</ele>
        <time>2025-06-08T09:15:42.479Z</time>
      </trkpt>
      <trkpt lat="45.39233" lon="2.47559">
        <ele>713</ele>
        <time>2025-06-08T09:15:43.479Z</time>
      </trkpt>
      <trkpt lat="45.39233" lon="2.4756">
        <ele>714</ele>
        <time>2025-06-08T09:15:44.479Z</time>
      </trkpt>
      <trkpt lat="45.39234" lon="2.4756">
        <ele>714</ele>
        <time>2025-06-08T09:15:45.479Z</time>
      </trkpt>
      <trkpt lat="45.39235" lon="2.47561">
        <ele>714</ele>
        <time>2025-06-08T09:15:46.479Z</time>
      </trkpt>
      <trkpt lat="45.39237" lon="2.47561">
        <ele>714</ele>
        <time>2025-06-08T09:15:47.479Z</time>
      </trkpt>
      <trkpt lat="45.39238" lon="2.47561">
        <ele>714</ele>
        <time>2025-06-08T09:15:48.479Z</time>
      </trkpt>
      <trkpt lat="45.39238" lon="2.4756">
        <ele>715</ele>
        <time>2025-06-08T09:15:49.479Z</time>
      </trkpt>
      <trkpt lat="45.39239" lon="2.4756">
        <ele>716</ele>
        <time>2025-06-08T09:15:50.479Z</time>
      </trkpt>
      <trkpt lat="45.39239" lon="2.4756">
        <ele>716</ele>
        <time>2025-06-08T09:15:51.479Z</time>
      </trkpt>
      <trkpt lat="45.39241" lon="2.47561">
        <ele>717</ele>
        <time>2025-06-08T09:15:52.479Z</time>
      </trkpt>
      <trkpt lat="45.39242" lon="2.47563">
        <ele>717</ele>
        <time>2025-06-08T09:15:53.479Z</time>
      </trkpt>
      <trkpt lat="45.39243" lon="2.47565">
        <ele>718</ele>
        <time>2025-06-08T09:15:54.479Z</time>
      </trkpt>
      <trkpt lat="45.39243" lon="2.47567">
        <ele>718</ele>
        <time>2025-06-08T09:15:55.479Z</time>
      </trkpt>
      <trkpt lat="45.39244" lon="2.47567">
        <ele>718</ele>
        <time>2025-06-08T09:15:56.479Z</time>
      </trkpt>
      <trkpt lat="45.39244" lon="2.47567">
        <ele>718</ele>
        <time>2025-06-08T09:15:57.479Z</time>
      </trkpt>
      <trkpt lat="45.39245" lon="2.47568">
        <ele>718</ele>
        <time>2025-06-08T09:15:58.479Z</time>
      </trkpt>
      <trkpt lat="45.39245" lon="2.47569">
        <ele>719</ele>
        <time>2025-06-08T09:15:59.479Z</time>
      </trkpt>
      <trkpt lat="45.39246" lon="2.47569">
        <ele>719</ele>
        <time>2025-06-08T09:16:00.479Z</time>
      </trkpt>
      <trkpt lat="45.39247" lon="2.47569">
        <ele>719</ele>
        <time>2025-06-08T09:16:01.479Z</time>
      </trkpt>
      <trkpt lat="45.39247" lon="2.47569">
        <ele>720</ele>
        <time>2025-06-08T09:16:02.479Z</time>
      </trkpt>
      <trkpt lat="45.39247" lon="2.4757">
        <ele>720</ele>
        <time>2025-06-08T09:16:03.479Z</time>
      </trkpt>
      <trkpt lat="45.39248" lon="2.47571">
        <ele>720</ele>
        <time>2025-06-08T09:16:04.479Z</time>
      </trkpt>
      <trkpt lat="45.39249" lon="2.47571">
        <ele>720</ele>
        <time>2025-06-08T09:16:05.479Z</time>
      </trkpt>
      <trkpt lat="45.3925" lon="2.4757">
        <ele>721</ele>
        <time>2025-06-08T09:16:06.479Z</time>
      </trkpt>
      <trkpt lat="45.39251" lon="2.4757">
        <ele>721</ele>
        <time>2025-06-08T09:16:07.479Z</time>
      </trkpt>
      <trkpt lat="45.39252" lon="2.4757">
        <ele>721</ele>
        <time>2025-06-08T09:16:08.479Z</time>
      </trkpt>
      <trkpt lat="45.39252" lon="2.4757">
        <ele>722</ele>
        <time>2025-06-08T09:16:09.479Z</time>
      </trkpt>
      <trkpt lat="45.39253" lon="2.4757">
        <ele>722</ele>
        <time>2025-06-08T09:16:10.479Z</time>
      </trkpt>
      <trkpt lat="45.39254" lon="2.4757">
        <ele>722</ele>
        <time>2025-06-08T09:16:11.479Z</time>
      </trkpt>
      <trkpt lat="45.39254" lon="2.47571">
        <ele>722</ele>
        <time>2025-06-08T09:16:12.479Z</time>
      </trkpt>
      <trkpt lat="45.39255" lon="2.47571">
        <ele>723</ele>
        <time>2025-06-08T09:16:13.479Z</time>
      </trkpt>
      <trkpt lat="45.39255" lon="2.47572">
        <ele>723</ele>
        <time>2025-06-08T09:16:14.479Z</time>
      </trkpt>
      <trkpt lat="45.39255" lon="2.47573">
        <ele>723</ele>
        <time>2025-06-08T09:16:15.479Z</time>
      </trkpt>
      <trkpt lat="45.39256" lon="2.47573">
        <ele>724</ele>
        <time>2025-06-08T09:16:16.479Z</time>
      </trkpt>
      <trkpt lat="45.39256" lon="2.47574">
        <ele>724</ele>
        <time>2025-06-08T09:16:17.479Z</time>
      </trkpt>
      <trkpt lat="45.39257" lon="2.47574">
        <ele>724</ele>
        <time>2025-06-08T09:16:18.479Z</time>
      </trkpt>
      <trkpt lat="45.39258" lon="2.47575">
        <ele>725</ele>
        <time>2025-06-08T09:16:19.479Z</time>
      </trkpt>
      <trkpt lat="45.39258" lon="2.47576">
        <ele>725</ele>
        <time>2025-06-08T09:16:20.479Z</time>
      </trkpt>
      <trkpt lat="45.39259" lon="2.47576">
        <ele>726</ele>
        <time>2025-06-08T09:16:21.479Z</time>
      </trkpt>
      <trkpt lat="45.39259" lon="2.47576">
        <ele>727</ele>
        <time>2025-06-08T09:16:22.479Z</time>
      </trkpt>
      <trkpt lat="45.3926" lon="2.47576">
        <ele>727</ele>
        <time>2025-06-08T09:16:23.479Z</time>
      </trkpt>
      <trkpt lat="45.3926" lon="2.47576">
        <ele>727</ele>
        <time>2025-06-08T09:16:24.479Z</time>
      </trkpt>
      <trkpt lat="45.3926" lon="2.47576">
        <ele>727</ele>
        <time>2025-06-08T09:16:25.479Z</time>
      </trkpt>
      <trkpt lat="45.39261" lon="2.47576">
        <ele>728</ele>
        <time>2025-06-08T09:16:26.479Z</time>
      </trkpt>
      <trkpt lat="45.39261" lon="2.47576">
        <ele>728</ele>
        <time>2025-06-08T09:16:27.479Z</time>
      </trkpt>
      <trkpt lat="45.39261" lon="2.47577">
        <ele>728</ele>
        <time>2025-06-08T09:16:28.479Z</time>
      </trkpt>
      <trkpt lat="45.39262" lon="2.47577">
        <ele>728</ele>
        <time>2025-06-08T09:16:29.479Z</time>
      </trkpt>
      <trkpt lat="45.39263" lon="2.47578">
        <ele>728</ele>
        <time>2025-06-08T09:16:30.479Z</time>
      </trkpt>
      <trkpt lat="45.39264" lon="2.47578">
        <ele>728</ele>
        <time>2025-06-08T09:16:31.479Z</time>
      </trkpt>
      <trkpt lat="45.39265" lon="2.47579">
        <ele>728</ele>
        <time>2025-06-08T09:16:32.479Z</time>
      </trkpt>
      <trkpt lat="45.39265" lon="2.47579">
        <ele>728</ele>
        <time>2025-06-08T09:16:33.479Z</time>
      </trkpt>
      <trkpt lat="45.39266" lon="2.47579">
        <ele>728</ele>
        <time>2025-06-08T09:16:34.479Z</time>
      </trkpt>
      <trkpt lat="45.39267" lon="2.47579">
        <ele>728</ele>
        <time>2025-06-08T09:16:35.479Z</time>
      </trkpt>
      <trkpt lat="45.39268" lon="2.47577">
        <ele>728</ele>
        <time>2025-06-08T09:16:36.479Z</time>
      </trkpt>
      <trkpt lat="45.39269" lon="2.47577">
        <ele>727</ele>
        <time>2025-06-08T09:16:37.479Z</time>
      </trkpt>
      <trkpt lat="45.3927" lon="2.47577">
        <ele>727</ele>
        <time>2025-06-08T09:16:38.479Z</time>
      </trkpt>
      <trkpt lat="45.39271" lon="2.47578">
        <ele>727</ele>
        <time>2025-06-08T09:16:39.479Z</time>
      </trkpt>
      <trkpt lat="45.39271" lon="2.47579">
        <ele>727</ele>
        <time>2025-06-08T09:16:40.479Z</time>
      </trkpt>
      <trkpt lat="45.39272" lon="2.47581">
        <ele>727</ele>
        <time>2025-06-08T09:16:41.479Z</time>
      </trkpt>
      <trkpt lat="45.39273" lon="2.47581">
        <ele>727</ele>
        <time>2025-06-08T09:16:42.479Z</time>
      </trkpt>
      <trkpt lat="45.39273" lon="2.47581">
        <ele>727</ele>
        <time>2025-06-08T09:16:43.479Z</time>
      </trkpt>
      <trkpt lat="45.39273" lon="2.47582">
        <ele>726</ele>
        <time>2025-06-08T09:16:44.479Z</time>
      </trkpt>
      <trkpt lat="45.39274" lon="2.47582">
        <ele>726</ele>
        <time>2025-06-08T09:16:45.479Z</time>
      </trkpt>
      <trkpt lat="45.39275" lon="2.47582">
        <ele>726</ele>
        <time>2025-06-08T09:16:46.479Z</time>
      </trkpt>
      <trkpt lat="45.39276" lon="2.47582">
        <ele>726</ele>
        <time>2025-06-08T09:16:47.479Z</time>
      </trkpt>
      <trkpt lat="45.39276" lon="2.47582">
        <ele>726</ele>
        <time>2025-06-08T09:16:48.479Z</time>
      </trkpt>
      <trkpt lat="45.39277" lon="2.47582">
        <ele>726</ele>
        <time>2025-06-08T09:16:49.479Z</time>
      </trkpt>
      <trkpt lat="45.39277" lon="2.47583">
        <ele>726</ele>
        <time>2025-06-08T09:16:50.479Z</time>
      </trkpt>
      <trkpt lat="45.39278" lon="2.47584">
        <ele>726</ele>
        <time>2025-06-08T09:16:51.479Z</time>
      </trkpt>
      <trkpt lat="45.39279" lon="2.47584">
        <ele>726</ele>
        <time>2025-06-08T09:16:52.479Z</time>
      </trkpt>
      <trkpt lat="45.39279" lon="2.47584">
        <ele>726</ele>
        <time>2025-06-08T09:16:53.479Z</time>
      </trkpt>
      <trkpt lat="45.3928" lon="2.47584">
        <ele>727</ele>
        <time>2025-06-08T09:16:54.479Z</time>
      </trkpt>
      <trkpt lat="45.39281" lon="2.47584">
        <ele>727</ele>
        <time>2025-06-08T09:16:55.479Z</time>
      </trkpt>
      <trkpt lat="45.39282" lon="2.47584">
        <ele>727</ele>
        <time>2025-06-08T09:16:56.479Z</time>
      </trkpt>
      <trkpt lat="45.39283" lon="2.47583">
        <ele>728</ele>
        <time>2025-06-08T09:16:57.479Z</time>
      </trkpt>
      <trkpt lat="45.39283" lon="2.47583">
        <ele>728</ele>
        <time>2025-06-08T09:16:58.479Z</time>
      </trkpt>
      <trkpt lat="45.39284" lon="2.47583">
        <ele>729</ele>
        <time>2025-06-08T09:16:59.479Z</time>
      </trkpt>
      <trkpt lat="45.39285" lon="2.47583">
        <ele>730</ele>
        <time>2025-06-08T09:17:00.479Z</time>
      </trkpt>
      <trkpt lat="45.39286" lon="2.47584">
        <ele>730</ele>
        <time>2025-06-08T09:17:01.479Z</time>
      </trkpt>
      <trkpt lat="45.39287" lon="2.47585">
        <ele>731</ele>
        <time>2025-06-08T09:17:02.479Z</time>
      </trkpt>
      <trkpt lat="45.39286" lon="2.47586">
        <ele>731</ele>
        <time>2025-06-08T09:17:03.479Z</time>
      </trkpt>
      <trkpt lat="45.39287" lon="2.47586">
        <ele>731</ele>
        <time>2025-06-08T09:17:04.479Z</time>
      </trkpt>
      <trkpt lat="45.39288" lon="2.47586">
        <ele>731</ele>
        <time>2025-06-08T09:17:05.479Z</time>
      </trkpt>
      <trkpt lat="45.39288" lon="2.47585">
        <ele>732</ele>
        <time>2025-06-08T09:17:06.479Z</time>
      </trkpt>
      <trkpt lat="45.39289" lon="2.47585">
        <ele>732</ele>
        <time>2025-06-08T09:17:07.479Z</time>
      </trkpt>
      <trkpt lat="45.3929" lon="2.47585">
        <ele>732</ele>
        <time>2025-06-08T09:17:08.479Z</time>
      </trkpt>
      <trkpt lat="45.3929" lon="2.47586">
        <ele>733</ele>
        <time>2025-06-08T09:17:09.479Z</time>
      </trkpt>
      <trkpt lat="45.39291" lon="2.47586">
        <ele>733</ele>
        <time>2025-06-08T09:17:10.479Z</time>
      </trkpt>
      <trkpt lat="45.39292" lon="2.47587">
        <ele>733</ele>
        <time>2025-06-08T09:17:11.479Z</time>
      </trkpt>
      <trkpt lat="45.39293" lon="2.47587">
        <ele>733</ele>
        <time>2025-06-08T09:17:12.479Z</time>
      </trkpt>
      <trkpt lat="45.39294" lon="2.47588">
        <ele>733</ele>
        <time>2025-06-08T09:17:13.479Z</time>
      </trkpt>
      <trkpt lat="45.39295" lon="2.47589">
        <ele>733</ele>
        <time>2025-06-08T09:17:14.479Z</time>
      </trkpt>
      <trkpt lat="45.39296" lon="2.4759">
        <ele>733</ele>
        <time>2025-06-08T09:17:15.479Z</time>
      </trkpt>
      <trkpt lat="45.39297" lon="2.47591">
        <ele>733</ele>
        <time>2025-06-08T09:17:16.479Z</time>
      </trkpt>
      <trkpt lat="45.39298" lon="2.47592">
        <ele>733</ele>
        <time>2025-06-08T09:17:17.479Z</time>
      </trkpt>
      <trkpt lat="45.39299" lon="2.47592">
        <ele>733</ele>
        <time>2025-06-08T09:17:18.479Z</time>
      </trkpt>
      <trkpt lat="45.39299" lon="2.47593">
        <ele>733</ele>
        <time>2025-06-08T09:17:19.479Z</time>
      </trkpt>
      <trkpt lat="45.393" lon="2.47593">
        <ele>733</ele>
        <time>2025-06-08T09:17:20.479Z</time>
      </trkpt>
      <trkpt lat="45.39301" lon="2.47593">
        <ele>733</ele>
        <time>2025-06-08T09:17:21.479Z</time>
      </trkpt>
      <trkpt lat="45.39302" lon="2.47593">
        <ele>733</ele>
        <time>2025-06-08T09:17:22.479Z</time>
      </trkpt>
      <trkpt lat="45.39302" lon="2.47593">
        <ele>734</ele>
        <time>2025-06-08T09:17:23.479Z</time>
      </trkpt>
      <trkpt lat="45.39302" lon="2.47593">
        <ele>734</ele>
        <time>2025-06-08T09:17:24.479Z</time>
      </trkpt>
      <trkpt lat="45.39303" lon="2.47594">
        <ele>734</ele>
        <time>2025-06-08T09:17:25.479Z</time>
      </trkpt>
      <trkpt lat="45.39303" lon="2.47594">
        <ele>734</ele>
        <time>2025-06-08T09:17:26.479Z</time>
      </trkpt>
      <trkpt lat="45.39303" lon="2.47594">
        <ele>734</ele>
        <time>2025-06-08T09:17:27.479Z</time>
      </trkpt>
      <trkpt lat="45.39304" lon="2.47594">
        <ele>734</ele>
        <time>2025-06-08T09:17:28.479Z</time>
      </trkpt>
      <trkpt lat="45.39304" lon="2.47594">
        <ele>733</ele>
        <time>2025-06-08T09:17:29.479Z</time>
      </trkpt>
      <trkpt lat="45.39305" lon="2.47595">
        <ele>733</ele>
        <time>2025-06-08T09:17:30.479Z</time>
      </trkpt>
      <trkpt lat="45.39306" lon="2.47596">
        <ele>733</ele>
        <time>2025-06-08T09:17:31.479Z</time>
      </trkpt>
      <trkpt lat="45.39306" lon="2.47598">
        <ele>733</ele>
        <time>2025-06-08T09:17:32.479Z</time>
      </trkpt>
      <trkpt lat="45.39307" lon="2.47598">
        <ele>733</ele>
        <time>2025-06-08T09:17:33.479Z</time>
      </trkpt>
      <trkpt lat="45.39308" lon="2.47599">
        <ele>733</ele>
        <time>2025-06-08T09:17:34.479Z</time>
      </trkpt>
      <trkpt lat="45.39308" lon="2.476">
        <ele>733</ele>
        <time>2025-06-08T09:17:35.479Z</time>
      </trkpt>
      <trkpt lat="45.39308" lon="2.476">
        <ele>734</ele>
        <time>2025-06-08T09:17:36.479Z</time>
      </trkpt>
      <trkpt lat="45.39309" lon="2.476">
        <ele>734</ele>
        <time>2025-06-08T09:17:37.479Z</time>
      </trkpt>
      <trkpt lat="45.39309" lon="2.47601">
        <ele>734</ele>
        <time>2025-06-08T09:17:38.479Z</time>
      </trkpt>
      <trkpt lat="45.39309" lon="2.47601">
        <ele>735</ele>
        <time>2025-06-08T09:17:39.479Z</time>
      </trkpt>
      <trkpt lat="45.3931" lon="2.47601">
        <ele>735</ele>
        <time>2025-06-08T09:17:40.479Z</time>
      </trkpt>
      <trkpt lat="45.3931" lon="2.47601">
        <ele>735</ele>
        <time>2025-06-08T09:17:41.479Z</time>
      </trkpt>
      <trkpt lat="45.3931" lon="2.47601">
        <ele>735</ele>
        <time>2025-06-08T09:17:42.479Z</time>
      </trkpt>
      <trkpt lat="45.3931" lon="2.476">
        <ele>735</ele>
        <time>2025-06-08T09:17:43.479Z</time>
      </trkpt>
      <trkpt lat="45.3931" lon="2.47599">
        <ele>735</ele>
        <time>2025-06-08T09:17:44.479Z</time>
      </trkpt>
      <trkpt lat="45.39311" lon="2.47599">
        <ele>735</ele>
        <time>2025-06-08T09:17:45.479Z</time>
      </trkpt>
      <trkpt lat="45.39311" lon="2.47599">
        <ele>736</ele>
        <time>2025-06-08T09:17:46.479Z</time>
      </trkpt>
      <trkpt lat="45.39311" lon="2.47599">
        <ele>736</ele>
        <time>2025-06-08T09:17:47.479Z</time>
      </trkpt>
      <trkpt lat="45.39311" lon="2.47599">
        <ele>736</ele>
        <time>2025-06-08T09:17:48.479Z</time>
      </trkpt>
      <trkpt lat="45.39312" lon="2.47599">
        <ele>736</ele>
        <time>2025-06-08T09:17:49.479Z</time>
      </trkpt>
      <trkpt lat="45.39312" lon="2.47599">
        <ele>737</ele>
        <time>2025-06-08T09:17:50.479Z</time>
      </trkpt>
      <trkpt lat="45.39312" lon="2.47598">
        <ele>737</ele>
        <time>2025-06-08T09:17:51.479Z</time>
      </trkpt>
      <trkpt lat="45.39312" lon="2.47598">
        <ele>738</ele>
        <time>2025-06-08T09:17:52.479Z</time>
      </trkpt>
      <trkpt lat="45.39313" lon="2.47598">
        <ele>739</ele>
        <time>2025-06-08T09:17:53.479Z</time>
      </trkpt>
      <trkpt lat="45.39313" lon="2.47598">
        <ele>740</ele>
        <time>2025-06-08T09:17:54.479Z</time>
      </trkpt>
      <trkpt lat="45.39314" lon="2.47599">
        <ele>740</ele>
        <time>2025-06-08T09:17:55.479Z</time>
      </trkpt>
      <trkpt lat="45.39314" lon="2.47599">
        <ele>741</ele>
        <time>2025-06-08T09:17:56.479Z</time>
      </trkpt>
      <trkpt lat="45.39315" lon="2.47599">
        <ele>741</ele>
        <time>2025-06-08T09:17:57.479Z</time>
      </trkpt>
      <trkpt lat="45.39316" lon="2.47599">
        <ele>742</ele>
        <time>2025-06-08T09:17:58.479Z</time>
      </trkpt>
      <trkpt lat="45.39316" lon="2.47599">
        <ele>742</ele>
        <time>2025-06-08T09:17:59.479Z</time>
      </trkpt>
      <trkpt lat="45.39317" lon="2.47599">
        <ele>743</ele>
        <time>2025-06-08T09:18:00.479Z</time>
      </trkpt>
      <trkpt lat="45.39317" lon="2.47599">
        <ele>743</ele>
        <time>2025-06-08T09:18:01.479Z</time>
      </trkpt>
      <trkpt lat="45.39318" lon="2.47599">
        <ele>743</ele>
        <time>2025-06-08T09:18:02.479Z</time>
      </trkpt>
      <trkpt lat="45.39319" lon="2.47599">
        <ele>744</ele>
        <time>2025-06-08T09:18:03.479Z</time>
      </trkpt>
      <trkpt lat="45.39319" lon="2.47599">
        <ele>744</ele>
        <time>2025-06-08T09:18:04.479Z</time>
      </trkpt>
      <trkpt lat="45.39319" lon="2.476">
        <ele>744</ele>
        <time>2025-06-08T09:18:05.479Z</time>
      </trkpt>
      <trkpt lat="45.3932" lon="2.476">
        <ele>743</ele>
        <time>2025-06-08T09:18:06.479Z</time>
      </trkpt>
      <trkpt lat="45.3932" lon="2.47601">
        <ele>743</ele>
        <time>2025-06-08T09:18:07.479Z</time>
      </trkpt>
      <trkpt lat="45.39321" lon="2.47602">
        <ele>742</ele>
        <time>2025-06-08T09:18:08.479Z</time>
      </trkpt>
      <trkpt lat="45.39322" lon="2.47602">
        <ele>741</ele>
        <time>2025-06-08T09:18:09.479Z</time>
      </trkpt>
      <trkpt lat="45.39323" lon="2.47603">
        <ele>741</ele>
        <time>2025-06-08T09:18:10.479Z</time>
      </trkpt>
      <trkpt lat="45.39323" lon="2.47604">
        <ele>740</ele>
        <time>2025-06-08T09:18:11.479Z</time>
      </trkpt>
      <trkpt lat="45.39324" lon="2.47605">
        <ele>739</ele>
        <time>2025-06-08T09:18:12.479Z</time>
      </trkpt>
      <trkpt lat="45.39324" lon="2.47606">
        <ele>739</ele>
        <time>2025-06-08T09:18:13.479Z</time>
      </trkpt>
      <trkpt lat="45.39325" lon="2.47607">
        <ele>738</ele>
        <time>2025-06-08T09:18:14.479Z</time>
      </trkpt>
      <trkpt lat="45.39326" lon="2.47608">
        <ele>738</ele>
        <time>2025-06-08T09:18:15.479Z</time>
      </trkpt>
      <trkpt lat="45.39327" lon="2.47609">
        <ele>739</ele>
        <time>2025-06-08T09:18:16.479Z</time>
      </trkpt>
      <trkpt lat="45.39328" lon="2.4761">
        <ele>739</ele>
        <time>2025-06-08T09:18:17.479Z</time>
      </trkpt>
      <trkpt lat="45.39328" lon="2.47611">
        <ele>739</ele>
        <time>2025-06-08T09:18:18.479Z</time>
      </trkpt>
      <trkpt lat="45.39329" lon="2.47611">
        <ele>739</ele>
        <time>2025-06-08T09:18:19.479Z</time>
      </trkpt>
      <trkpt lat="45.39329" lon="2.47613">
        <ele>739</ele>
        <time>2025-06-08T09:18:20.479Z</time>
      </trkpt>
      <trkpt lat="45.39331" lon="2.47614">
        <ele>739</ele>
        <time>2025-06-08T09:18:21.479Z</time>
      </trkpt>
      <trkpt lat="45.39332" lon="2.47615">
        <ele>739</ele>
        <time>2025-06-08T09:18:22.479Z</time>
      </trkpt>
      <trkpt lat="45.39333" lon="2.47616">
        <ele>739</ele>
        <time>2025-06-08T09:18:23.479Z</time>
      </trkpt>
      <trkpt lat="45.39333" lon="2.47616">
        <ele>738</ele>
        <time>2025-06-08T09:18:24.479Z</time>
      </trkpt>
      <trkpt lat="45.39333" lon="2.47617">
        <ele>738</ele>
        <time>2025-06-08T09:18:25.479Z</time>
      </trkpt>
      <trkpt lat="45.39333" lon="2.47617">
        <ele>737</ele>
        <time>2025-06-08T09:18:26.479Z</time>
      </trkpt>
      <trkpt lat="45.39333" lon="2.47617">
        <ele>737</ele>
        <time>2025-06-08T09:18:27.479Z</time>
      </trkpt>
      <trkpt lat="45.39333" lon="2.47617">
        <ele>736</ele>
        <time>2025-06-08T09:18:28.479Z</time>
      </trkpt>
      <trkpt lat="45.39332" lon="2.47618">
        <ele>736</ele>
        <time>2025-06-08T09:18:29.479Z</time>
      </trkpt>
      <trkpt lat="45.39332" lon="2.47618">
        <ele>735</ele>
        <time>2025-06-08T09:18:30.479Z</time>
      </trkpt>
      <trkpt lat="45.39332" lon="2.47618">
        <ele>735</ele>
        <time>2025-06-08T09:18:31.479Z</time>
      </trkpt>
      <trkpt lat="45.39332" lon="2.47618">
        <ele>735</ele>
        <time>2025-06-08T09:18:32.479Z</time>
      </trkpt>
      <trkpt lat="45.39332" lon="2.47618">
        <ele>735</ele>
        <time>2025-06-08T09:18:33.479Z</time>
      </trkpt>
      <trkpt lat="45.39332" lon="2.47618">
        <ele>735</ele>
        <time>2025-06-08T09:18:34.479Z</time>
      </trkpt>
      <trkpt lat="45.39332" lon="2.47618">
        <ele>736</ele>
        <time>2025-06-08T09:18:35.479Z</time>
      </trkpt>
      <trkpt lat="45.39332" lon="2.47619">
        <ele>736</ele>
        <time>2025-06-08T09:18:36.479Z</time>
      </trkpt>
      <trkpt lat="45.39332" lon="2.4762">
        <ele>737</ele>
        <time>2025-06-08T09:18:37.479Z</time>
      </trkpt>
      <trkpt lat="45.39332" lon="2.4762">
        <ele>737</ele>
        <time>2025-06-08T09:18:38.479Z</time>
      </trkpt>
      <trkpt lat="45.39332" lon="2.4762">
        <ele>737</ele>
        <time>2025-06-08T09:18:39.479Z</time>
      </trkpt>
      <trkpt lat="45.39332" lon="2.4762">
        <ele>738</ele>
        <time>2025-06-08T09:18:40.479Z</time>
      </trkpt>
      <trkpt lat="45.39333" lon="2.4762">
        <ele>738</ele>
        <time>2025-06-08T09:18:41.479Z</time>
      </trkpt>
      <trkpt lat="45.39333" lon="2.47621">
        <ele>738</ele>
        <time>2025-06-08T09:18:42.479Z</time>
      </trkpt>
      <trkpt lat="45.39333" lon="2.47622">
        <ele>738</ele>
        <time>2025-06-08T09:18:43.479Z</time>
      </trkpt>
      <trkpt lat="45.39333" lon="2.47622">
        <ele>739</ele>
        <time>2025-06-08T09:18:44.479Z</time>
      </trkpt>
      <trkpt lat="45.39333" lon="2.47623">
        <ele>740</ele>
        <time>2025-06-08T09:18:45.479Z</time>
      </trkpt>
      <trkpt lat="45.39334" lon="2.47623">
        <ele>741</ele>
        <time>2025-06-08T09:18:46.479Z</time>
      </trkpt>
      <trkpt lat="45.39335" lon="2.47623">
        <ele>742</ele>
        <time>2025-06-08T09:18:47.479Z</time>
      </trkpt>
      <trkpt lat="45.39336" lon="2.47624">
        <ele>742</ele>
        <time>2025-06-08T09:18:48.479Z</time>
      </trkpt>
      <trkpt lat="45.39336" lon="2.47624">
        <ele>743</ele>
        <time>2025-06-08T09:18:49.479Z</time>
      </trkpt>
      <trkpt lat="45.39337" lon="2.47624">
        <ele>744</ele>
        <time>2025-06-08T09:18:50.479Z</time>
      </trkpt>
      <trkpt lat="45.39338" lon="2.47625">
        <ele>744</ele>
        <time>2025-06-08T09:18:51.479Z</time>
      </trkpt>
      <trkpt lat="45.39339" lon="2.47625">
        <ele>744</ele>
        <time>2025-06-08T09:18:52.479Z</time>
      </trkpt>
      <trkpt lat="45.3934" lon="2.47625">
        <ele>744</ele>
        <time>2025-06-08T09:18:53.479Z</time>
      </trkpt>
      <trkpt lat="45.3934" lon="2.47626">
        <ele>744</ele>
        <time>2025-06-08T09:18:54.479Z</time>
      </trkpt>
      <trkpt lat="45.3934" lon="2.47626">
        <ele>745</ele>
        <time>2025-06-08T09:18:55.479Z</time>
      </trkpt>
      <trkpt lat="45.39339" lon="2.47626">
        <ele>745</ele>
        <time>2025-06-08T09:18:56.479Z</time>
      </trkpt>
      <trkpt lat="45.39339" lon="2.47627">
        <ele>745</ele>
        <time>2025-06-08T09:18:57.479Z</time>
      </trkpt>
      <trkpt lat="45.39339" lon="2.47627">
        <ele>745</ele>
        <time>2025-06-08T09:18:58.479Z</time>
      </trkpt>
      <trkpt lat="45.3934" lon="2.47628">
        <ele>745</ele>
        <time>2025-06-08T09:18:59.479Z</time>
      </trkpt>
      <trkpt lat="45.3934" lon="2.47629">
        <ele>746</ele>
        <time>2025-06-08T09:19:00.479Z</time>
      </trkpt>
      <trkpt lat="45.39341" lon="2.4763">
        <ele>746</ele>
        <time>2025-06-08T09:19:01.479Z</time>
      </trkpt>
      <trkpt lat="45.39341" lon="2.4763">
        <ele>746</ele>
        <time>2025-06-08T09:19:02.479Z</time>
      </trkpt>
      <trkpt lat="45.39341" lon="2.47631">
        <ele>745</ele>
        <time>2025-06-08T09:19:03.479Z</time>
      </trkpt>
      <trkpt lat="45.39342" lon="2.47631">
        <ele>745</ele>
        <time>2025-06-08T09:19:04.479Z</time>
      </trkpt>
      <trkpt lat="45.39342" lon="2.47631">
        <ele>746</ele>
        <time>2025-06-08T09:19:05.479Z</time>
      </trkpt>
      <trkpt lat="45.39342" lon="2.47631">
        <ele>746</ele>
        <time>2025-06-08T09:19:06.479Z</time>
      </trkpt>
      <trkpt lat="45.39343" lon="2.47631">
        <ele>746</ele>
        <time>2025-06-08T09:19:07.479Z</time>
      </trkpt>
      <trkpt lat="45.39343" lon="2.47631">
        <ele>746</ele>
        <time>2025-06-08T09:19:08.479Z</time>
      </trkpt>
      <trkpt lat="45.39344" lon="2.47632">
        <ele>746</ele>
        <time>2025-06-08T09:19:09.479Z</time>
      </trkpt>
      <trkpt lat="45.39345" lon="2.47632">
        <ele>746</ele>
        <time>2025-06-08T09:19:10.479Z</time>
      </trkpt>
      <trkpt lat="45.39346" lon="2.47633">
        <ele>746</ele>
        <time>2025-06-08T09:19:11.479Z</time>
      </trkpt>
      <trkpt lat="45.39347" lon="2.47634">
        <ele>747</ele>
        <time>2025-06-08T09:19:12.479Z</time>
      </trkpt>
      <trkpt lat="45.39347" lon="2.47634">
        <ele>748</ele>
        <time>2025-06-08T09:19:13.479Z</time>
      </trkpt>
      <trkpt lat="45.39347" lon="2.47634">
        <ele>748</ele>
        <time>2025-06-08T09:19:14.479Z</time>
      </trkpt>
      <trkpt lat="45.39348" lon="2.47634">
        <ele>749</ele>
        <time>2025-06-08T09:19:15.479Z</time>
      </trkpt>
      <trkpt lat="45.39348" lon="2.47635">
        <ele>749</ele>
        <time>2025-06-08T09:19:16.479Z</time>
      </trkpt>
      <trkpt lat="45.39349" lon="2.47636">
        <ele>750</ele>
        <time>2025-06-08T09:19:17.479Z</time>
      </trkpt>
      <trkpt lat="45.39349" lon="2.47636">
        <ele>750</ele>
        <time>2025-06-08T09:19:18.479Z</time>
      </trkpt>
      <trkpt lat="45.3935" lon="2.47636">
        <ele>750</ele>
        <time>2025-06-08T09:19:19.479Z</time>
      </trkpt>
      <trkpt lat="45.3935" lon="2.47636">
        <ele>750</ele>
        <time>2025-06-08T09:19:20.479Z</time>
      </trkpt>
      <trkpt lat="45.39351" lon="2.47637">
        <ele>750</ele>
        <time>2025-06-08T09:19:21.479Z</time>
      </trkpt>
      <trkpt lat="45.39352" lon="2.47638">
        <ele>750</ele>
        <time>2025-06-08T09:19:22.479Z</time>
      </trkpt>
      <trkpt lat="45.39352" lon="2.47638">
        <ele>750</ele>
        <time>2025-06-08T09:19:23.479Z</time>
      </trkpt>
      <trkpt lat="45.39353" lon="2.47639">
        <ele>750</ele>
        <time>2025-06-08T09:19:24.479Z</time>
      </trkpt>
      <trkpt lat="45.39354" lon="2.4764">
        <ele>750</ele>
        <time>2025-06-08T09:19:25.479Z</time>
      </trkpt>
      <trkpt lat="45.39354" lon="2.4764">
        <ele>750</ele>
        <time>2025-06-08T09:19:26.479Z</time>
      </trkpt>
      <trkpt lat="45.39355" lon="2.47641">
        <ele>750</ele>
        <time>2025-06-08T09:19:27.479Z</time>
      </trkpt>
      <trkpt lat="45.39355" lon="2.47641">
        <ele>749</ele>
        <time>2025-06-08T09:19:28.479Z</time>
      </trkpt>
      <trkpt lat="45.39356" lon="2.47642">
        <ele>749</ele>
        <time>2025-06-08T09:19:29.479Z</time>
      </trkpt>
      <trkpt lat="45.39356" lon="2.47643">
        <ele>749</ele>
        <time>2025-06-08T09:19:30.479Z</time>
      </trkpt>
      <trkpt lat="45.39357" lon="2.47643">
        <ele>749</ele>
        <time>2025-06-08T09:19:31.479Z</time>
      </trkpt>
      <trkpt lat="45.39357" lon="2.47643">
        <ele>749</ele>
        <time>2025-06-08T09:19:32.479Z</time>
      </trkpt>
      <trkpt lat="45.39358" lon="2.47644">
        <ele>749</ele>
        <time>2025-06-08T09:19:33.479Z</time>
      </trkpt>
      <trkpt lat="45.39358" lon="2.47644">
        <ele>749</ele>
        <time>2025-06-08T09:19:34.479Z</time>
      </trkpt>
      <trkpt lat="45.39358" lon="2.47644">
        <ele>749</ele>
        <time>2025-06-08T09:19:35.479Z</time>
      </trkpt>
      <trkpt lat="45.39358" lon="2.47645">
        <ele>749</ele>
        <time>2025-06-08T09:19:36.479Z</time>
      </trkpt>
      <trkpt lat="45.39359" lon="2.47645">
        <ele>749</ele>
        <time>2025-06-08T09:19:37.479Z</time>
      </trkpt>
      <trkpt lat="45.39359" lon="2.47645">
        <ele>749</ele>
        <time>2025-06-08T09:19:38.479Z</time>
      </trkpt>
      <trkpt lat="45.39359" lon="2.47645">
        <ele>750</ele>
        <time>2025-06-08T09:19:39.479Z</time>
      </trkpt>
      <trkpt lat="45.3936" lon="2.47646">
        <ele>750</ele>
        <time>2025-06-08T09:19:40.479Z</time>
      </trkpt>
      <trkpt lat="45.3936" lon="2.47647">
        <ele>750</ele>
        <time>2025-06-08T09:19:41.479Z</time>
      </trkpt>
      <trkpt lat="45.39361" lon="2.47647">
        <ele>750</ele>
        <time>2025-06-08T09:19:42.479Z</time>
      </trkpt>
      <trkpt lat="45.39361" lon="2.47647">
        <ele>750</ele>
        <time>2025-06-08T09:19:43.479Z</time>
      </trkpt>
      <trkpt lat="45.39361" lon="2.47648">
        <ele>750</ele>
        <time>2025-06-08T09:19:44.479Z</time>
      </trkpt>
      <trkpt lat="45.39362" lon="2.47648">
        <ele>751</ele>
        <time>2025-06-08T09:19:45.479Z</time>
      </trkpt>
      <trkpt lat="45.39362" lon="2.47648">
        <ele>751</ele>
        <time>2025-06-08T09:19:46.479Z</time>
      </trkpt>
      <trkpt lat="45.39362" lon="2.47648">
        <ele>752</ele>
        <time>2025-06-08T09:19:47.479Z</time>
      </trkpt>
      <trkpt lat="45.39362" lon="2.47649">
        <ele>752</ele>
        <time>2025-06-08T09:19:48.479Z</time>
      </trkpt>
      <trkpt lat="45.39363" lon="2.47649">
        <ele>752</ele>
        <time>2025-06-08T09:19:49.479Z</time>
      </trkpt>
      <trkpt lat="45.39363" lon="2.4765">
        <ele>753</ele>
        <time>2025-06-08T09:19:50.479Z</time>
      </trkpt>
      <trkpt lat="45.39363" lon="2.4765">
        <ele>753</ele>
        <time>2025-06-08T09:19:51.479Z</time>
      </trkpt>
      <trkpt lat="45.39364" lon="2.4765">
        <ele>754</ele>
        <time>2025-06-08T09:19:52.479Z</time>
      </trkpt>
      <trkpt lat="45.39364" lon="2.4765">
        <ele>755</ele>
        <time>2025-06-08T09:19:53.479Z</time>
      </trkpt>
      <trkpt lat="45.39364" lon="2.4765">
        <ele>755</ele>
        <time>2025-06-08T09:19:54.479Z</time>
      </trkpt>
      <trkpt lat="45.39364" lon="2.4765">
        <ele>756</ele>
        <time>2025-06-08T09:19:55.479Z</time>
      </trkpt>
      <trkpt lat="45.39365" lon="2.47651">
        <ele>756</ele>
        <time>2025-06-08T09:19:56.479Z</time>
      </trkpt>
      <trkpt lat="45.39365" lon="2.47651">
        <ele>756</ele>
        <time>2025-06-08T09:19:57.479Z</time>
      </trkpt>
      <trkpt lat="45.39365" lon="2.47651">
        <ele>756</ele>
        <time>2025-06-08T09:19:58.479Z</time>
      </trkpt>
      <trkpt lat="45.39366" lon="2.47652">
        <ele>756</ele>
        <time>2025-06-08T09:19:59.479Z</time>
      </trkpt>
      <trkpt lat="45.39366" lon="2.47652">
        <ele>756</ele>
        <time>2025-06-08T09:20:00.479Z</time>
      </trkpt>
      <trkpt lat="45.39366" lon="2.47652">
        <ele>756</ele>
        <time>2025-06-08T09:20:01.479Z</time>
      </trkpt>
      <trkpt lat="45.39367" lon="2.47652">
        <ele>756</ele>
        <time>2025-06-08T09:20:02.479Z</time>
      </trkpt>
      <trkpt lat="45.39367" lon="2.47652">
        <ele>756</ele>
        <time>2025-06-08T09:20:03.479Z</time>
      </trkpt>
      <trkpt lat="45.39367" lon="2.47652">
        <ele>756</ele>
        <time>2025-06-08T09:20:04.479Z</time>
      </trkpt>
      <trkpt lat="45.39367" lon="2.47652">
        <ele>756</ele>
        <time>2025-06-08T09:20:05.479Z</time>
      </trkpt>
      <trkpt lat="45.39368" lon="2.47653">
        <ele>756</ele>
        <time>2025-06-08T09:20:06.479Z</time>
      </trkpt>
      <trkpt lat="45.39368" lon="2.47653">
        <ele>756</ele>
        <time>2025-06-08T09:20:07.479Z</time>
      </trkpt>
      <trkpt lat="45.39368" lon="2.47654">
        <ele>756</ele>
        <time>2025-06-08T09:20:08.479Z</time>
      </trkpt>
      <trkpt lat="45.39368" lon="2.47654">
        <ele>756</ele>
        <time>2025-06-08T09:20:09.479Z</time>
      </trkpt>
      <trkpt lat="45.39368" lon="2.47655">
        <ele>756</ele>
        <time>2025-06-08T09:20:10.479Z</time>
      </trkpt>
      <trkpt lat="45.39369" lon="2.47655">
        <ele>756</ele>
        <time>2025-06-08T09:20:11.479Z</time>
      </trkpt>
      <trkpt lat="45.39369" lon="2.47655">
        <ele>756</ele>
        <time>2025-06-08T09:20:12.479Z</time>
      </trkpt>
      <trkpt lat="45.39369" lon="2.47655">
        <ele>757</ele>
        <time>2025-06-08T09:20:13.479Z</time>
      </trkpt>
      <trkpt lat="45.3937" lon="2.47656">
        <ele>757</ele>
        <time>2025-06-08T09:20:14.479Z</time>
      </trkpt>
      <trkpt lat="45.3937" lon="2.47656">
        <ele>757</ele>
        <time>2025-06-08T09:20:15.479Z</time>
      </trkpt>
      <trkpt lat="45.39372" lon="2.47657">
        <ele>757</ele>
        <time>2025-06-08T09:20:16.479Z</time>
      </trkpt>
      <trkpt lat="45.39372" lon="2.47658">
        <ele>758</ele>
        <time>2025-06-08T09:20:17.479Z</time>
      </trkpt>
      <trkpt lat="45.39373" lon="2.4766">
        <ele>758</ele>
        <time>2025-06-08T09:20:18.479Z</time>
      </trkpt>
      <trkpt lat="45.39374" lon="2.47661">
        <ele>758</ele>
        <time>2025-06-08T09:20:19.479Z</time>
      </trkpt>
      <trkpt lat="45.39374" lon="2.47661">
        <ele>758</ele>
        <time>2025-06-08T09:20:20.479Z</time>
      </trkpt>
      <trkpt lat="45.39374" lon="2.47661">
        <ele>758</ele>
        <time>2025-06-08T09:20:21.479Z</time>
      </trkpt>
      <trkpt lat="45.39375" lon="2.47661">
        <ele>759</ele>
        <time>2025-06-08T09:20:22.479Z</time>
      </trkpt>
      <trkpt lat="45.39375" lon="2.47662">
        <ele>759</ele>
        <time>2025-06-08T09:20:23.479Z</time>
      </trkpt>
      <trkpt lat="45.39376" lon="2.47663">
        <ele>759</ele>
        <time>2025-06-08T09:20:24.479Z</time>
      </trkpt>
      <trkpt lat="45.39377" lon="2.47665">
        <ele>759</ele>
        <time>2025-06-08T09:20:25.479Z</time>
      </trkpt>
      <trkpt lat="45.39377" lon="2.47665">
        <ele>759</ele>
        <time>2025-06-08T09:20:26.479Z</time>
      </trkpt>
      <trkpt lat="45.39377" lon="2.47666">
        <ele>759</ele>
        <time>2025-06-08T09:20:27.479Z</time>
      </trkpt>
      <trkpt lat="45.39377" lon="2.47666">
        <ele>758</ele>
        <time>2025-06-08T09:20:28.479Z</time>
      </trkpt>
      <trkpt lat="45.39377" lon="2.47666">
        <ele>758</ele>
        <time>2025-06-08T09:20:29.479Z</time>
      </trkpt>
      <trkpt lat="45.39378" lon="2.47668">
        <ele>758</ele>
        <time>2025-06-08T09:20:30.479Z</time>
      </trkpt>
      <trkpt lat="45.3938" lon="2.4767">
        <ele>758</ele>
        <time>2025-06-08T09:20:31.479Z</time>
      </trkpt>
      <trkpt lat="45.39382" lon="2.47671">
        <ele>758</ele>
        <time>2025-06-08T09:20:32.479Z</time>
      </trkpt>
      <trkpt lat="45.39383" lon="2.47672">
        <ele>758</ele>
        <time>2025-06-08T09:20:33.479Z</time>
      </trkpt>
      <trkpt lat="45.39383" lon="2.47673">
        <ele>758</ele>
        <time>2025-06-08T09:20:34.479Z</time>
      </trkpt>
      <trkpt lat="45.39383" lon="2.47674">
        <ele>758</ele>
        <time>2025-06-08T09:20:35.479Z</time>
      </trkpt>
      <trkpt lat="45.39383" lon="2.47674">
        <ele>758</ele>
        <time>2025-06-08T09:20:36.479Z</time>
      </trkpt>
      <trkpt lat="45.39384" lon="2.47675">
        <ele>758</ele>
        <time>2025-06-08T09:20:37.479Z</time>
      </trkpt>
      <trkpt lat="45.39384" lon="2.47675">
        <ele>758</ele>
        <time>2025-06-08T09:20:38.479Z</time>
      </trkpt>
      <trkpt lat="45.39385" lon="2.47676">
        <ele>758</ele>
        <time>2025-06-08T09:20:39.479Z</time>
      </trkpt>
      <trkpt lat="45.39385" lon="2.47676">
        <ele>759</ele>
        <time>2025-06-08T09:20:40.479Z</time>
      </trkpt>
      <trkpt lat="45.39386" lon="2.47677">
        <ele>759</ele>
        <time>2025-06-08T09:20:41.479Z</time>
      </trkpt>
      <trkpt lat="45.39387" lon="2.47677">
        <ele>760</ele>
        <time>2025-06-08T09:20:42.479Z</time>
      </trkpt>
      <trkpt lat="45.39387" lon="2.47677">
        <ele>760</ele>
        <time>2025-06-08T09:20:43.479Z</time>
      </trkpt>
      <trkpt lat="45.39388" lon="2.47677">
        <ele>761</ele>
        <time>2025-06-08T09:20:44.479Z</time>
      </trkpt>
      <trkpt lat="45.39388" lon="2.47678">
        <ele>761</ele>
        <time>2025-06-08T09:20:45.479Z</time>
      </trkpt>
      <trkpt lat="45.39389" lon="2.47678">
        <ele>761</ele>
        <time>2025-06-08T09:20:46.479Z</time>
      </trkpt>
      <trkpt lat="45.39389" lon="2.47679">
        <ele>761</ele>
        <time>2025-06-08T09:20:47.479Z</time>
      </trkpt>
      <trkpt lat="45.39389" lon="2.47679">
        <ele>761</ele>
        <time>2025-06-08T09:20:48.479Z</time>
      </trkpt>
      <trkpt lat="45.3939" lon="2.47679">
        <ele>761</ele>
        <time>2025-06-08T09:20:49.479Z</time>
      </trkpt>
      <trkpt lat="45.3939" lon="2.4768">
        <ele>761</ele>
        <time>2025-06-08T09:20:50.479Z</time>
      </trkpt>
      <trkpt lat="45.39391" lon="2.4768">
        <ele>761</ele>
        <time>2025-06-08T09:20:51.479Z</time>
      </trkpt>
      <trkpt lat="45.39392" lon="2.47681">
        <ele>761</ele>
        <time>2025-06-08T09:20:52.479Z</time>
      </trkpt>
      <trkpt lat="45.39394" lon="2.47682">
        <ele>760</ele>
        <time>2025-06-08T09:20:53.479Z</time>
      </trkpt>
      <trkpt lat="45.39394" lon="2.47682">
        <ele>760</ele>
        <time>2025-06-08T09:20:54.479Z</time>
      </trkpt>
      <trkpt lat="45.39395" lon="2.47682">
        <ele>760</ele>
        <time>2025-06-08T09:20:55.479Z</time>
      </trkpt>
      <trkpt lat="45.39396" lon="2.47682">
        <ele>760</ele>
        <time>2025-06-08T09:20:56.479Z</time>
      </trkpt>
      <trkpt lat="45.39397" lon="2.47682">
        <ele>760</ele>
        <time>2025-06-08T09:20:57.479Z</time>
      </trkpt>
      <trkpt lat="45.39397" lon="2.47683">
        <ele>760</ele>
        <time>2025-06-08T09:20:58.479Z</time>
      </trkpt>
      <trkpt lat="45.39398" lon="2.47684">
        <ele>760</ele>
        <time>2025-06-08T09:20:59.479Z</time>
      </trkpt>
      <trkpt lat="45.39399" lon="2.47685">
        <ele>760</ele>
        <time>2025-06-08T09:21:00.479Z</time>
      </trkpt>
      <trkpt lat="45.39401" lon="2.47686">
        <ele>761</ele>
        <time>2025-06-08T09:21:01.479Z</time>
      </trkpt>
      <trkpt lat="45.39401" lon="2.47686">
        <ele>761</ele>
        <time>2025-06-08T09:21:02.479Z</time>
      </trkpt>
      <trkpt lat="45.39402" lon="2.47687">
        <ele>761</ele>
        <time>2025-06-08T09:21:03.479Z</time>
      </trkpt>
      <trkpt lat="45.39403" lon="2.47688">
        <ele>762</ele>
        <time>2025-06-08T09:21:04.479Z</time>
      </trkpt>
      <trkpt lat="45.39404" lon="2.47689">
        <ele>762</ele>
        <time>2025-06-08T09:21:05.479Z</time>
      </trkpt>
      <trkpt lat="45.39404" lon="2.47689">
        <ele>762</ele>
        <time>2025-06-08T09:21:06.479Z</time>
      </trkpt>
      <trkpt lat="45.39406" lon="2.4769">
        <ele>762</ele>
        <time>2025-06-08T09:21:07.479Z</time>
      </trkpt>
      <trkpt lat="45.39406" lon="2.4769">
        <ele>762</ele>
        <time>2025-06-08T09:21:08.479Z</time>
      </trkpt>
      <trkpt lat="45.39407" lon="2.4769">
        <ele>763</ele>
        <time>2025-06-08T09:21:09.479Z</time>
      </trkpt>
      <trkpt lat="45.39408" lon="2.4769">
        <ele>763</ele>
        <time>2025-06-08T09:21:10.479Z</time>
      </trkpt>
      <trkpt lat="45.39408" lon="2.4769">
        <ele>764</ele>
        <time>2025-06-08T09:21:11.479Z</time>
      </trkpt>
      <trkpt lat="45.39409" lon="2.4769">
        <ele>764</ele>
        <time>2025-06-08T09:21:12.479Z</time>
      </trkpt>
      <trkpt lat="45.3941" lon="2.4769">
        <ele>764</ele>
        <time>2025-06-08T09:21:13.479Z</time>
      </trkpt>
      <trkpt lat="45.39411" lon="2.4769">
        <ele>764</ele>
        <time>2025-06-08T09:21:14.479Z</time>
      </trkpt>
      <trkpt lat="45.39412" lon="2.47691">
        <ele>764</ele>
        <time>2025-06-08T09:21:15.479Z</time>
      </trkpt>
      <trkpt lat="45.39412" lon="2.47691">
        <ele>764</ele>
        <time>2025-06-08T09:21:16.479Z</time>
      </trkpt>
      <trkpt lat="45.39413" lon="2.47692">
        <ele>764</ele>
        <time>2025-06-08T09:21:17.479Z</time>
      </trkpt>
      <trkpt lat="45.39414" lon="2.47692">
        <ele>764</ele>
        <time>2025-06-08T09:21:18.479Z</time>
      </trkpt>
      <trkpt lat="45.39415" lon="2.47692">
        <ele>764</ele>
        <time>2025-06-08T09:21:19.479Z</time>
      </trkpt>
      <trkpt lat="45.39415" lon="2.47693">
        <ele>764</ele>
        <time>2025-06-08T09:21:20.479Z</time>
      </trkpt>
      <trkpt lat="45.39416" lon="2.47694">
        <ele>764</ele>
        <time>2025-06-08T09:21:21.479Z</time>
      </trkpt>
      <trkpt lat="45.39417" lon="2.47694">
        <ele>764</ele>
        <time>2025-06-08T09:21:22.479Z</time>
      </trkpt>
      <trkpt lat="45.39418" lon="2.47695">
        <ele>764</ele>
        <time>2025-06-08T09:21:23.479Z</time>
      </trkpt>
      <trkpt lat="45.39418" lon="2.47695">
        <ele>764</ele>
        <time>2025-06-08T09:21:24.479Z</time>
      </trkpt>
      <trkpt lat="45.39419" lon="2.47696">
        <ele>765</ele>
        <time>2025-06-08T09:21:25.479Z</time>
      </trkpt>
      <trkpt lat="45.39419" lon="2.47696">
        <ele>765</ele>
        <time>2025-06-08T09:21:26.479Z</time>
      </trkpt>
      <trkpt lat="45.3942" lon="2.47696">
        <ele>765</ele>
        <time>2025-06-08T09:21:27.479Z</time>
      </trkpt>
      <trkpt lat="45.39421" lon="2.47697">
        <ele>765</ele>
        <time>2025-06-08T09:21:28.479Z</time>
      </trkpt>
      <trkpt lat="45.39421" lon="2.47697">
        <ele>765</ele>
        <time>2025-06-08T09:21:29.479Z</time>
      </trkpt>
      <trkpt lat="45.39423" lon="2.47698">
        <ele>765</ele>
        <time>2025-06-08T09:21:30.479Z</time>
      </trkpt>
      <trkpt lat="45.39424" lon="2.47699">
        <ele>766</ele>
        <time>2025-06-08T09:21:31.479Z</time>
      </trkpt>
      <trkpt lat="45.39424" lon="2.47699">
        <ele>766</ele>
        <time>2025-06-08T09:21:32.479Z</time>
      </trkpt>
      <trkpt lat="45.39425" lon="2.47699">
        <ele>767</ele>
        <time>2025-06-08T09:21:33.479Z</time>
      </trkpt>
      <trkpt lat="45.39426" lon="2.477">
        <ele>767</ele>
        <time>2025-06-08T09:21:34.479Z</time>
      </trkpt>
      <trkpt lat="45.39427" lon="2.477">
        <ele>767</ele>
        <time>2025-06-08T09:21:35.479Z</time>
      </trkpt>
      <trkpt lat="45.39427" lon="2.47701">
        <ele>768</ele>
        <time>2025-06-08T09:21:36.479Z</time>
      </trkpt>
      <trkpt lat="45.39428" lon="2.47701">
        <ele>768</ele>
        <time>2025-06-08T09:21:37.479Z</time>
      </trkpt>
      <trkpt lat="45.39428" lon="2.47702">
        <ele>768</ele>
        <time>2025-06-08T09:21:38.479Z</time>
      </trkpt>
      <trkpt lat="45.39429" lon="2.47702">
        <ele>768</ele>
        <time>2025-06-08T09:21:39.479Z</time>
      </trkpt>
      <trkpt lat="45.3943" lon="2.47702">
        <ele>768</ele>
        <time>2025-06-08T09:21:40.479Z</time>
      </trkpt>
      <trkpt lat="45.3943" lon="2.47703">
        <ele>768</ele>
        <time>2025-06-08T09:21:41.479Z</time>
      </trkpt>
      <trkpt lat="45.39431" lon="2.47704">
        <ele>768</ele>
        <time>2025-06-08T09:21:42.479Z</time>
      </trkpt>
      <trkpt lat="45.39432" lon="2.47704">
        <ele>767</ele>
        <time>2025-06-08T09:21:43.479Z</time>
      </trkpt>
      <trkpt lat="45.39432" lon="2.47704">
        <ele>767</ele>
        <time>2025-06-08T09:21:44.479Z</time>
      </trkpt>
      <trkpt lat="45.39433" lon="2.47704">
        <ele>767</ele>
        <time>2025-06-08T09:21:45.479Z</time>
      </trkpt>
      <trkpt lat="45.39434" lon="2.47705">
        <ele>768</ele>
        <time>2025-06-08T09:21:46.479Z</time>
      </trkpt>
      <trkpt lat="45.39434" lon="2.47706">
        <ele>768</ele>
        <time>2025-06-08T09:21:47.479Z</time>
      </trkpt>
      <trkpt lat="45.39435" lon="2.47706">
        <ele>768</ele>
        <time>2025-06-08T09:21:48.479Z</time>
      </trkpt>
      <trkpt lat="45.39436" lon="2.47707">
        <ele>768</ele>
        <time>2025-06-08T09:21:49.479Z</time>
      </trkpt>
      <trkpt lat="45.39437" lon="2.47708">
        <ele>768</ele>
        <time>2025-06-08T09:21:50.479Z</time>
      </trkpt>
      <trkpt lat="45.39437" lon="2.47709">
        <ele>768</ele>
        <time>2025-06-08T09:21:51.479Z</time>
      </trkpt>
      <trkpt lat="45.39438" lon="2.47709">
        <ele>767</ele>
        <time>2025-06-08T09:21:52.479Z</time>
      </trkpt>
      <trkpt lat="45.39438" lon="2.4771">
        <ele>767</ele>
        <time>2025-06-08T09:21:53.479Z</time>
      </trkpt>
      <trkpt lat="45.39439" lon="2.4771">
        <ele>767</ele>
        <time>2025-06-08T09:21:54.479Z</time>
      </trkpt>
      <trkpt lat="45.3944" lon="2.47713">
        <ele>767</ele>
        <time>2025-06-08T09:21:55.479Z</time>
      </trkpt>
      <trkpt lat="45.39441" lon="2.47714">
        <ele>767</ele>
        <time>2025-06-08T09:21:56.479Z</time>
      </trkpt>
      <trkpt lat="45.39441" lon="2.47715">
        <ele>766</ele>
        <time>2025-06-08T09:21:57.479Z</time>
      </trkpt>
      <trkpt lat="45.39441" lon="2.47716">
        <ele>766</ele>
        <time>2025-06-08T09:21:58.479Z</time>
      </trkpt>
      <trkpt lat="45.39441" lon="2.47716">
        <ele>765</ele>
        <time>2025-06-08T09:21:59.479Z</time>
      </trkpt>
      <trkpt lat="45.39441" lon="2.47717">
        <ele>764</ele>
        <time>2025-06-08T09:22:00.479Z</time>
      </trkpt>
      <trkpt lat="45.39442" lon="2.47718">
        <ele>763</ele>
        <time>2025-06-08T09:22:01.479Z</time>
      </trkpt>
      <trkpt lat="45.39442" lon="2.47719">
        <ele>763</ele>
        <time>2025-06-08T09:22:02.479Z</time>
      </trkpt>
      <trkpt lat="45.39443" lon="2.4772">
        <ele>762</ele>
        <time>2025-06-08T09:22:03.479Z</time>
      </trkpt>
      <trkpt lat="45.39443" lon="2.4772">
        <ele>762</ele>
        <time>2025-06-08T09:22:04.479Z</time>
      </trkpt>
      <trkpt lat="45.39443" lon="2.4772">
        <ele>761</ele>
        <time>2025-06-08T09:22:05.479Z</time>
      </trkpt>
      <trkpt lat="45.39443" lon="2.47721">
        <ele>761</ele>
        <time>2025-06-08T09:22:06.479Z</time>
      </trkpt>
      <trkpt lat="45.39444" lon="2.47722">
        <ele>761</ele>
        <time>2025-06-08T09:22:07.479Z</time>
      </trkpt>
      <trkpt lat="45.39444" lon="2.47722">
        <ele>760</ele>
        <time>2025-06-08T09:22:08.479Z</time>
      </trkpt>
      <trkpt lat="45.39444" lon="2.47723">
        <ele>760</ele>
        <time>2025-06-08T09:22:09.479Z</time>
      </trkpt>
      <trkpt lat="45.39445" lon="2.47724">
        <ele>760</ele>
        <time>2025-06-08T09:22:10.479Z</time>
      </trkpt>
      <trkpt lat="45.39445" lon="2.47724">
        <ele>761</ele>
        <time>2025-06-08T09:22:11.479Z</time>
      </trkpt>
      <trkpt lat="45.39446" lon="2.47725">
        <ele>761</ele>
        <time>2025-06-08T09:22:12.479Z</time>
      </trkpt>
      <trkpt lat="45.39446" lon="2.47725">
        <ele>761</ele>
        <time>2025-06-08T09:22:13.479Z</time>
      </trkpt>
      <trkpt lat="45.39447" lon="2.47725">
        <ele>761</ele>
        <time>2025-06-08T09:22:14.479Z</time>
      </trkpt>
      <trkpt lat="45.39448" lon="2.47726">
        <ele>761</ele>
        <time>2025-06-08T09:22:15.479Z</time>
      </trkpt>
      <trkpt lat="45.39448" lon="2.47726">
        <ele>761</ele>
        <time>2025-06-08T09:22:16.479Z</time>
      </trkpt>
      <trkpt lat="45.39449" lon="2.47727">
        <ele>762</ele>
        <time>2025-06-08T09:22:17.479Z</time>
      </trkpt>
      <trkpt lat="45.3945" lon="2.47727">
        <ele>763</ele>
        <time>2025-06-08T09:22:18.479Z</time>
      </trkpt>
      <trkpt lat="45.39451" lon="2.47728">
        <ele>763</ele>
        <time>2025-06-08T09:22:19.479Z</time>
      </trkpt>
      <trkpt lat="45.39452" lon="2.47729">
        <ele>763</ele>
        <time>2025-06-08T09:22:20.479Z</time>
      </trkpt>
      <trkpt lat="45.39452" lon="2.47729">
        <ele>763</ele>
        <time>2025-06-08T09:22:21.479Z</time>
      </trkpt>
      <trkpt lat="45.39453" lon="2.4773">
        <ele>764</ele>
        <time>2025-06-08T09:22:22.479Z</time>
      </trkpt>
      <trkpt lat="45.39454" lon="2.4773">
        <ele>764</ele>
        <time>2025-06-08T09:22:23.479Z</time>
      </trkpt>
      <trkpt lat="45.39456" lon="2.47731">
        <ele>765</ele>
        <time>2025-06-08T09:22:24.479Z</time>
      </trkpt>
      <trkpt lat="45.39456" lon="2.47732">
        <ele>765</ele>
        <time>2025-06-08T09:22:25.479Z</time>
      </trkpt>
      <trkpt lat="45.39457" lon="2.47732">
        <ele>765</ele>
        <time>2025-06-08T09:22:26.479Z</time>
      </trkpt>
      <trkpt lat="45.39457" lon="2.47732">
        <ele>765</ele>
        <time>2025-06-08T09:22:27.479Z</time>
      </trkpt>
      <trkpt lat="45.39457" lon="2.47733">
        <ele>765</ele>
        <time>2025-06-08T09:22:28.479Z</time>
      </trkpt>
      <trkpt lat="45.39458" lon="2.47733">
        <ele>765</ele>
        <time>2025-06-08T09:22:29.479Z</time>
      </trkpt>
      <trkpt lat="45.39458" lon="2.47734">
        <ele>765</ele>
        <time>2025-06-08T09:22:30.479Z</time>
      </trkpt>
      <trkpt lat="45.39458" lon="2.47734">
        <ele>766</ele>
        <time>2025-06-08T09:22:31.479Z</time>
      </trkpt>
      <trkpt lat="45.39459" lon="2.47735">
        <ele>766</ele>
        <time>2025-06-08T09:22:32.479Z</time>
      </trkpt>
      <trkpt lat="45.39459" lon="2.47735">
        <ele>767</ele>
        <time>2025-06-08T09:22:33.479Z</time>
      </trkpt>
      <trkpt lat="45.39459" lon="2.47736">
        <ele>767</ele>
        <time>2025-06-08T09:22:34.479Z</time>
      </trkpt>
      <trkpt lat="45.3946" lon="2.47737">
        <ele>768</ele>
        <time>2025-06-08T09:22:35.479Z</time>
      </trkpt>
      <trkpt lat="45.3946" lon="2.47737">
        <ele>769</ele>
        <time>2025-06-08T09:22:36.479Z</time>
      </trkpt>
      <trkpt lat="45.3946" lon="2.47737">
        <ele>769</ele>
        <time>2025-06-08T09:22:37.479Z</time>
      </trkpt>
      <trkpt lat="45.39461" lon="2.47738">
        <ele>770</ele>
        <time>2025-06-08T09:22:38.479Z</time>
      </trkpt>
      <trkpt lat="45.39462" lon="2.47739">
        <ele>771</ele>
        <time>2025-06-08T09:22:39.479Z</time>
      </trkpt>
      <trkpt lat="45.39462" lon="2.47739">
        <ele>772</ele>
        <time>2025-06-08T09:22:40.479Z</time>
      </trkpt>
      <trkpt lat="45.39463" lon="2.4774">
        <ele>772</ele>
        <time>2025-06-08T09:22:41.479Z</time>
      </trkpt>
      <trkpt lat="45.39464" lon="2.47741">
        <ele>773</ele>
        <time>2025-06-08T09:22:42.479Z</time>
      </trkpt>
      <trkpt lat="45.39465" lon="2.47742">
        <ele>773</ele>
        <time>2025-06-08T09:22:43.479Z</time>
      </trkpt>
      <trkpt lat="45.39465" lon="2.47743">
        <ele>773</ele>
        <time>2025-06-08T09:22:44.479Z</time>
      </trkpt>
      <trkpt lat="45.39466" lon="2.47743">
        <ele>773</ele>
        <time>2025-06-08T09:22:45.479Z</time>
      </trkpt>
      <trkpt lat="45.39467" lon="2.47744">
        <ele>772</ele>
        <time>2025-06-08T09:22:46.479Z</time>
      </trkpt>
      <trkpt lat="45.39467" lon="2.47744">
        <ele>773</ele>
        <time>2025-06-08T09:22:47.479Z</time>
      </trkpt>
      <trkpt lat="45.39468" lon="2.47745">
        <ele>773</ele>
        <time>2025-06-08T09:22:48.479Z</time>
      </trkpt>
      <trkpt lat="45.39468" lon="2.47745">
        <ele>773</ele>
        <time>2025-06-08T09:22:49.479Z</time>
      </trkpt>
      <trkpt lat="45.39469" lon="2.47746">
        <ele>773</ele>
        <time>2025-06-08T09:22:50.479Z</time>
      </trkpt>
      <trkpt lat="45.39469" lon="2.47746">
        <ele>773</ele>
        <time>2025-06-08T09:22:51.479Z</time>
      </trkpt>
      <trkpt lat="45.39469" lon="2.47746">
        <ele>773</ele>
        <time>2025-06-08T09:22:52.479Z</time>
      </trkpt>
      <trkpt lat="45.3947" lon="2.47747">
        <ele>773</ele>
        <time>2025-06-08T09:22:53.479Z</time>
      </trkpt>
      <trkpt lat="45.39471" lon="2.47747">
        <ele>773</ele>
        <time>2025-06-08T09:22:54.479Z</time>
      </trkpt>
      <trkpt lat="45.39471" lon="2.47749">
        <ele>773</ele>
        <time>2025-06-08T09:22:55.479Z</time>
      </trkpt>
      <trkpt lat="45.39472" lon="2.4775">
        <ele>773</ele>
        <time>2025-06-08T09:22:56.479Z</time>
      </trkpt>
      <trkpt lat="45.39473" lon="2.47751">
        <ele>773</ele>
        <time>2025-06-08T09:22:57.479Z</time>
      </trkpt>
      <trkpt lat="45.39473" lon="2.47751">
        <ele>773</ele>
        <time>2025-06-08T09:22:58.479Z</time>
      </trkpt>
      <trkpt lat="45.39474" lon="2.47751">
        <ele>773</ele>
        <time>2025-06-08T09:22:59.479Z</time>
      </trkpt>
      <trkpt lat="45.39474" lon="2.47751">
        <ele>773</ele>
        <time>2025-06-08T09:23:00.479Z</time>
      </trkpt>
      <trkpt lat="45.39475" lon="2.47751">
        <ele>774</ele>
        <time>2025-06-08T09:23:01.479Z</time>
      </trkpt>
      <trkpt lat="45.39476" lon="2.47751">
        <ele>774</ele>
        <time>2025-06-08T09:23:02.479Z</time>
      </trkpt>
      <trkpt lat="45.39476" lon="2.47752">
        <ele>774</ele>
        <time>2025-06-08T09:23:03.479Z</time>
      </trkpt>
      <trkpt lat="45.39477" lon="2.47753">
        <ele>774</ele>
        <time>2025-06-08T09:23:04.479Z</time>
      </trkpt>
      <trkpt lat="45.39477" lon="2.47753">
        <ele>774</ele>
        <time>2025-06-08T09:23:05.479Z</time>
      </trkpt>
      <trkpt lat="45.39478" lon="2.47753">
        <ele>774</ele>
        <time>2025-06-08T09:23:06.479Z</time>
      </trkpt>
      <trkpt lat="45.39478" lon="2.47753">
        <ele>774</ele>
        <time>2025-06-08T09:23:07.479Z</time>
      </trkpt>
      <trkpt lat="45.39478" lon="2.47754">
        <ele>774</ele>
        <time>2025-06-08T09:23:08.479Z</time>
      </trkpt>
      <trkpt lat="45.39479" lon="2.47754">
        <ele>774</ele>
        <time>2025-06-08T09:23:09.479Z</time>
      </trkpt>
      <trkpt lat="45.39479" lon="2.47754">
        <ele>774</ele>
        <time>2025-06-08T09:23:10.479Z</time>
      </trkpt>
      <trkpt lat="45.39478" lon="2.47755">
        <ele>773</ele>
        <time>2025-06-08T09:23:11.479Z</time>
      </trkpt>
      <trkpt lat="45.39479" lon="2.47756">
        <ele>773</ele>
        <time>2025-06-08T09:23:12.479Z</time>
      </trkpt>
      <trkpt lat="45.39479" lon="2.47757">
        <ele>773</ele>
        <time>2025-06-08T09:23:13.479Z</time>
      </trkpt>
      <trkpt lat="45.39479" lon="2.47757">
        <ele>773</ele>
        <time>2025-06-08T09:23:14.479Z</time>
      </trkpt>
      <trkpt lat="45.39479" lon="2.47757">
        <ele>773</ele>
        <time>2025-06-08T09:23:15.479Z</time>
      </trkpt>
      <trkpt lat="45.39479" lon="2.47757">
        <ele>774</ele>
        <time>2025-06-08T09:23:16.479Z</time>
      </trkpt>
      <trkpt lat="45.39479" lon="2.47757">
        <ele>773</ele>
        <time>2025-06-08T09:23:17.479Z</time>
      </trkpt>
      <trkpt lat="45.39479" lon="2.47757">
        <ele>773</ele>
        <time>2025-06-08T09:23:18.479Z</time>
      </trkpt>
      <trkpt lat="45.39479" lon="2.47757">
        <ele>773</ele>
        <time>2025-06-08T09:23:19.479Z</time>
      </trkpt>
      <trkpt lat="45.39479" lon="2.47757">
        <ele>773</ele>
        <time>2025-06-08T09:23:20.479Z</time>
      </trkpt>
      <trkpt lat="45.39479" lon="2.47757">
        <ele>773</ele>
        <time>2025-06-08T09:23:21.479Z</time>
      </trkpt>
      <trkpt lat="45.39479" lon="2.47757">
        <ele>773</ele>
        <time>2025-06-08T09:23:22.479Z</time>
      </trkpt>
      <trkpt lat="45.39479" lon="2.47757">
        <ele>773</ele>
        <time>2025-06-08T09:23:23.479Z</time>
      </trkpt>
      <trkpt lat="45.39479" lon="2.47757">
        <ele>773</ele>
        <time>2025-06-08T09:23:24.479Z</time>
      </trkpt>
      <trkpt lat="45.39479" lon="2.47757">
        <ele>773</ele>
        <time>2025-06-08T09:23:25.479Z</time>
      </trkpt>
      <trkpt lat="45.39479" lon="2.47757">
        <ele>773</ele>
        <time>2025-06-08T09:23:26.479Z</time>
      </trkpt>
      <trkpt lat="45.39479" lon="2.47758">
        <ele>773</ele>
        <time>2025-06-08T09:23:27.479Z</time>
      </trkpt>
      <trkpt lat="45.39478" lon="2.47758">
        <ele>773</ele>
        <time>2025-06-08T09:23:28.479Z</time>
      </trkpt>
      <trkpt lat="45.39478" lon="2.47758">
        <ele>772</ele>
        <time>2025-06-08T09:23:29.479Z</time>
      </trkpt>
      <trkpt lat="45.39478" lon="2.47758">
        <ele>772</ele>
        <time>2025-06-08T09:23:30.479Z</time>
      </trkpt>
      <trkpt lat="45.39478" lon="2.47758">
        <ele>771</ele>
        <time>2025-06-08T09:23:31.479Z</time>
      </trkpt>
      <trkpt lat="45.39478" lon="2.47758">
        <ele>771</ele>
        <time>2025-06-08T09:23:32.479Z</time>
      </trkpt>
      <trkpt lat="45.39477" lon="2.47758">
        <ele>770</ele>
        <time>2025-06-08T09:23:33.479Z</time>
      </trkpt>
      <trkpt lat="45.39477" lon="2.47758">
        <ele>770</ele>
        <time>2025-06-08T09:23:34.479Z</time>
      </trkpt>
      <trkpt lat="45.39477" lon="2.47758">
        <ele>771</ele>
        <time>2025-06-08T09:23:35.479Z</time>
      </trkpt>
      <trkpt lat="45.39477" lon="2.47758">
        <ele>771</ele>
        <time>2025-06-08T09:23:36.479Z</time>
      </trkpt>
      <trkpt lat="45.39477" lon="2.47758">
        <ele>771</ele>
        <time>2025-06-08T09:23:37.479Z</time>
      </trkpt>
      <trkpt lat="45.39477" lon="2.47758">
        <ele>771</ele>
        <time>2025-06-08T09:23:38.479Z</time>
      </trkpt>
      <trkpt lat="45.39477" lon="2.47758">
        <ele>771</ele>
        <time>2025-06-08T09:23:39.479Z</time>
      </trkpt>
      <trkpt lat="45.39477" lon="2.47758">
        <ele>771</ele>
        <time>2025-06-08T09:23:40.479Z</time>
      </trkpt>
      <trkpt lat="45.39477" lon="2.47758">
        <ele>771</ele>
        <time>2025-06-08T09:23:41.479Z</time>
      </trkpt>
      <trkpt lat="45.39477" lon="2.47758">
        <ele>771</ele>
        <time>2025-06-08T09:23:42.479Z</time>
      </trkpt>
      <trkpt lat="45.39477" lon="2.47758">
        <ele>771</ele>
        <time>2025-06-08T09:23:43.479Z</time>
      </trkpt>
      <trkpt lat="45.39477" lon="2.47758">
        <ele>771</ele>
        <time>2025-06-08T09:23:44.479Z</time>
      </trkpt>
      <trkpt lat="45.39477" lon="2.47758">
        <ele>771</ele>
        <time>2025-06-08T09:23:45.479Z</time>
      </trkpt>
      <trkpt lat="45.39477" lon="2.47758">
        <ele>771</ele>
        <time>2025-06-08T09:23:46.479Z</time>
      </trkpt>
      <trkpt lat="45.39477" lon="2.47759">
        <ele>771</ele>
        <time>2025-06-08T09:23:47.479Z</time>
      </trkpt>
      <trkpt lat="45.39477" lon="2.47759">
        <ele>772</ele>
        <time>2025-06-08T09:23:48.479Z</time>
      </trkpt>
      <trkpt lat="45.39478" lon="2.4776">
        <ele>772</ele>
        <time>2025-06-08T09:23:49.479Z</time>
      </trkpt>
      <trkpt lat="45.39479" lon="2.47761">
        <ele>772</ele>
        <time>2025-06-08T09:23:50.479Z</time>
      </trkpt>
      <trkpt lat="45.39479" lon="2.47762">
        <ele>772</ele>
        <time>2025-06-08T09:23:51.479Z</time>
      </trkpt>
      <trkpt lat="45.39479" lon="2.47763">
        <ele>772</ele>
        <time>2025-06-08T09:23:52.479Z</time>
      </trkpt>
      <trkpt lat="45.3948" lon="2.47765">
        <ele>772</ele>
        <time>2025-06-08T09:23:53.479Z</time>
      </trkpt>
      <trkpt lat="45.39481" lon="2.47767">
        <ele>772</ele>
        <time>2025-06-08T09:23:54.479Z</time>
      </trkpt>
      <trkpt lat="45.39482" lon="2.47769">
        <ele>772</ele>
        <time>2025-06-08T09:23:55.479Z</time>
      </trkpt>
      <trkpt lat="45.39482" lon="2.47771">
        <ele>772</ele>
        <time>2025-06-08T09:23:56.479Z</time>
      </trkpt>
      <trkpt lat="45.39482" lon="2.47772">
        <ele>772</ele>
        <time>2025-06-08T09:23:57.479Z</time>
      </trkpt>
      <trkpt lat="45.39482" lon="2.47773">
        <ele>772</ele>
        <time>2025-06-08T09:23:58.479Z</time>
      </trkpt>
      <trkpt lat="45.39482" lon="2.47774">
        <ele>772</ele>
        <time>2025-06-08T09:23:59.479Z</time>
      </trkpt>
      <trkpt lat="45.39483" lon="2.47776">
        <ele>772</ele>
        <time>2025-06-08T09:24:00.479Z</time>
      </trkpt>
      <trkpt lat="45.39483" lon="2.47777">
        <ele>772</ele>
        <time>2025-06-08T09:24:01.479Z</time>
      </trkpt>
      <trkpt lat="45.39484" lon="2.47778">
        <ele>772</ele>
        <time>2025-06-08T09:24:02.479Z</time>
      </trkpt>
      <trkpt lat="45.39484" lon="2.4778">
        <ele>772</ele>
        <time>2025-06-08T09:24:03.479Z</time>
      </trkpt>
      <trkpt lat="45.39484" lon="2.47781">
        <ele>772</ele>
        <time>2025-06-08T09:24:04.479Z</time>
      </trkpt>
      <trkpt lat="45.39484" lon="2.47782">
        <ele>772</ele>
        <time>2025-06-08T09:24:05.479Z</time>
      </trkpt>
      <trkpt lat="45.39484" lon="2.47782">
        <ele>773</ele>
        <time>2025-06-08T09:24:06.479Z</time>
      </trkpt>
      <trkpt lat="45.39484" lon="2.47784">
        <ele>773</ele>
        <time>2025-06-08T09:24:07.479Z</time>
      </trkpt>
      <trkpt lat="45.39485" lon="2.47785">
        <ele>773</ele>
        <time>2025-06-08T09:24:08.479Z</time>
      </trkpt>
      <trkpt lat="45.39485" lon="2.47786">
        <ele>773</ele>
        <time>2025-06-08T09:24:09.479Z</time>
      </trkpt>
      <trkpt lat="45.39485" lon="2.47787">
        <ele>774</ele>
        <time>2025-06-08T09:24:10.479Z</time>
      </trkpt>
      <trkpt lat="45.39485" lon="2.47789">
        <ele>774</ele>
        <time>2025-06-08T09:24:11.479Z</time>
      </trkpt>
      <trkpt lat="45.39486" lon="2.4779">
        <ele>774</ele>
        <time>2025-06-08T09:24:12.479Z</time>
      </trkpt>
      <trkpt lat="45.39486" lon="2.47791">
        <ele>774</ele>
        <time>2025-06-08T09:24:13.479Z</time>
      </trkpt>
      <trkpt lat="45.39486" lon="2.47792">
        <ele>774</ele>
        <time>2025-06-08T09:24:14.479Z</time>
      </trkpt>
      <trkpt lat="45.39487" lon="2.47792">
        <ele>774</ele>
        <time>2025-06-08T09:24:15.479Z</time>
      </trkpt>
      <trkpt lat="45.39487" lon="2.47793">
        <ele>774</ele>
        <time>2025-06-08T09:24:16.479Z</time>
      </trkpt>
      <trkpt lat="45.39488" lon="2.47794">
        <ele>774</ele>
        <time>2025-06-08T09:24:17.479Z</time>
      </trkpt>
      <trkpt lat="45.39488" lon="2.47795">
        <ele>774</ele>
        <time>2025-06-08T09:24:18.479Z</time>
      </trkpt>
      <trkpt lat="45.39488" lon="2.47796">
        <ele>774</ele>
        <time>2025-06-08T09:24:19.479Z</time>
      </trkpt>
      <trkpt lat="45.39488" lon="2.47797">
        <ele>774</ele>
        <time>2025-06-08T09:24:20.479Z</time>
      </trkpt>
      <trkpt lat="45.39488" lon="2.47798">
        <ele>775</ele>
        <time>2025-06-08T09:24:21.479Z</time>
      </trkpt>
      <trkpt lat="45.39488" lon="2.47799">
        <ele>775</ele>
        <time>2025-06-08T09:24:22.479Z</time>
      </trkpt>
      <trkpt lat="45.39488" lon="2.478">
        <ele>776</ele>
        <time>2025-06-08T09:24:23.479Z</time>
      </trkpt>
      <trkpt lat="45.39489" lon="2.47801">
        <ele>776</ele>
        <time>2025-06-08T09:24:24.479Z</time>
      </trkpt>
      <trkpt lat="45.39489" lon="2.47802">
        <ele>776</ele>
        <time>2025-06-08T09:24:25.479Z</time>
      </trkpt>
      <trkpt lat="45.39489" lon="2.47804">
        <ele>776</ele>
        <time>2025-06-08T09:24:26.479Z</time>
      </trkpt>
      <trkpt lat="45.3949" lon="2.47805">
        <ele>776</ele>
        <time>2025-06-08T09:24:27.479Z</time>
      </trkpt>
      <trkpt lat="45.39492" lon="2.47806">
        <ele>776</ele>
        <time>2025-06-08T09:24:28.479Z</time>
      </trkpt>
      <trkpt lat="45.39492" lon="2.47807">
        <ele>776</ele>
        <time>2025-06-08T09:24:29.479Z</time>
      </trkpt>
      <trkpt lat="45.39493" lon="2.47808">
        <ele>776</ele>
        <time>2025-06-08T09:24:30.479Z</time>
      </trkpt>
      <trkpt lat="45.39494" lon="2.47809">
        <ele>776</ele>
        <time>2025-06-08T09:24:31.479Z</time>
      </trkpt>
      <trkpt lat="45.39494" lon="2.47811">
        <ele>777</ele>
        <time>2025-06-08T09:24:32.479Z</time>
      </trkpt>
      <trkpt lat="45.39494" lon="2.47812">
        <ele>777</ele>
        <time>2025-06-08T09:24:33.479Z</time>
      </trkpt>
      <trkpt lat="45.39494" lon="2.47813">
        <ele>776</ele>
        <time>2025-06-08T09:24:34.479Z</time>
      </trkpt>
      <trkpt lat="45.39494" lon="2.47814">
        <ele>776</ele>
        <time>2025-06-08T09:24:35.479Z</time>
      </trkpt>
      <trkpt lat="45.39495" lon="2.47816">
        <ele>776</ele>
        <time>2025-06-08T09:24:36.479Z</time>
      </trkpt>
      <trkpt lat="45.39496" lon="2.47818">
        <ele>775</ele>
        <time>2025-06-08T09:24:37.479Z</time>
      </trkpt>
      <trkpt lat="45.39496" lon="2.47819">
        <ele>774</ele>
        <time>2025-06-08T09:24:38.479Z</time>
      </trkpt>
      <trkpt lat="45.39497" lon="2.47821">
        <ele>774</ele>
        <time>2025-06-08T09:24:39.479Z</time>
      </trkpt>
      <trkpt lat="45.39497" lon="2.47823">
        <ele>773</ele>
        <time>2025-06-08T09:24:40.479Z</time>
      </trkpt>
      <trkpt lat="45.39497" lon="2.47824">
        <ele>773</ele>
        <time>2025-06-08T09:24:41.479Z</time>
      </trkpt>
      <trkpt lat="45.39498" lon="2.47825">
        <ele>772</ele>
        <time>2025-06-08T09:24:42.479Z</time>
      </trkpt>
      <trkpt lat="45.39498" lon="2.47827">
        <ele>772</ele>
        <time>2025-06-08T09:24:43.479Z</time>
      </trkpt>
      <trkpt lat="45.39498" lon="2.47828">
        <ele>772</ele>
        <time>2025-06-08T09:24:44.479Z</time>
      </trkpt>
      <trkpt lat="45.39499" lon="2.47828">
        <ele>772</ele>
        <time>2025-06-08T09:24:45.479Z</time>
      </trkpt>
      <trkpt lat="45.395" lon="2.47829">
        <ele>772</ele>
        <time>2025-06-08T09:24:46.479Z</time>
      </trkpt>
      <trkpt lat="45.395" lon="2.4783">
        <ele>773</ele>
        <time>2025-06-08T09:24:47.479Z</time>
      </trkpt>
      <trkpt lat="45.395" lon="2.4783">
        <ele>773</ele>
        <time>2025-06-08T09:24:48.479Z</time>
      </trkpt>
      <trkpt lat="45.395" lon="2.47832">
        <ele>774</ele>
        <time>2025-06-08T09:24:49.479Z</time>
      </trkpt>
      <trkpt lat="45.395" lon="2.47832">
        <ele>775</ele>
        <time>2025-06-08T09:24:50.479Z</time>
      </trkpt>
      <trkpt lat="45.395" lon="2.47833">
        <ele>775</ele>
        <time>2025-06-08T09:24:51.479Z</time>
      </trkpt>
      <trkpt lat="45.395" lon="2.47833">
        <ele>775</ele>
        <time>2025-06-08T09:24:52.479Z</time>
      </trkpt>
      <trkpt lat="45.395" lon="2.47834">
        <ele>775</ele>
        <time>2025-06-08T09:24:53.479Z</time>
      </trkpt>
      <trkpt lat="45.395" lon="2.47835">
        <ele>776</ele>
        <time>2025-06-08T09:24:54.479Z</time>
      </trkpt>
      <trkpt lat="45.395" lon="2.47836">
        <ele>776</ele>
        <time>2025-06-08T09:24:55.479Z</time>
      </trkpt>
      <trkpt lat="45.395" lon="2.47837">
        <ele>776</ele>
        <time>2025-06-08T09:24:56.479Z</time>
      </trkpt>
      <trkpt lat="45.39501" lon="2.47838">
        <ele>777</ele>
        <time>2025-06-08T09:24:57.479Z</time>
      </trkpt>
      <trkpt lat="45.39501" lon="2.4784">
        <ele>777</ele>
        <time>2025-06-08T09:24:58.479Z</time>
      </trkpt>
      <trkpt lat="45.39501" lon="2.47841">
        <ele>777</ele>
        <time>2025-06-08T09:24:59.479Z</time>
      </trkpt>
      <trkpt lat="45.39501" lon="2.47842">
        <ele>777</ele>
        <time>2025-06-08T09:25:00.479Z</time>
      </trkpt>
      <trkpt lat="45.39502" lon="2.47843">
        <ele>777</ele>
        <time>2025-06-08T09:25:01.479Z</time>
      </trkpt>
      <trkpt lat="45.39502" lon="2.47844">
        <ele>777</ele>
        <time>2025-06-08T09:25:02.479Z</time>
      </trkpt>
      <trkpt lat="45.39502" lon="2.47845">
        <ele>777</ele>
        <time>2025-06-08T09:25:03.479Z</time>
      </trkpt>
      <trkpt lat="45.39502" lon="2.47846">
        <ele>777</ele>
        <time>2025-06-08T09:25:04.479Z</time>
      </trkpt>
      <trkpt lat="45.39502" lon="2.47848">
        <ele>778</ele>
        <time>2025-06-08T09:25:05.479Z</time>
      </trkpt>
      <trkpt lat="45.39503" lon="2.47849">
        <ele>778</ele>
        <time>2025-06-08T09:25:06.479Z</time>
      </trkpt>
      <trkpt lat="45.39503" lon="2.47851">
        <ele>778</ele>
        <time>2025-06-08T09:25:07.479Z</time>
      </trkpt>
      <trkpt lat="45.39503" lon="2.47852">
        <ele>778</ele>
        <time>2025-06-08T09:25:08.479Z</time>
      </trkpt>
      <trkpt lat="45.39503" lon="2.47852">
        <ele>778</ele>
        <time>2025-06-08T09:25:09.479Z</time>
      </trkpt>
      <trkpt lat="45.39503" lon="2.47853">
        <ele>778</ele>
        <time>2025-06-08T09:25:10.479Z</time>
      </trkpt>
      <trkpt lat="45.39503" lon="2.47854">
        <ele>778</ele>
        <time>2025-06-08T09:25:11.479Z</time>
      </trkpt>
      <trkpt lat="45.39503" lon="2.47854">
        <ele>778</ele>
        <time>2025-06-08T09:25:12.479Z</time>
      </trkpt>
      <trkpt lat="45.39503" lon="2.47855">
        <ele>778</ele>
        <time>2025-06-08T09:25:13.479Z</time>
      </trkpt>
      <trkpt lat="45.39503" lon="2.47855">
        <ele>779</ele>
        <time>2025-06-08T09:25:14.479Z</time>
      </trkpt>
      <trkpt lat="45.39503" lon="2.47855">
        <ele>779</ele>
        <time>2025-06-08T09:25:15.479Z</time>
      </trkpt>
      <trkpt lat="45.39503" lon="2.47856">
        <ele>779</ele>
        <time>2025-06-08T09:25:16.479Z</time>
      </trkpt>
      <trkpt lat="45.39503" lon="2.47856">
        <ele>780</ele>
        <time>2025-06-08T09:25:17.479Z</time>
      </trkpt>
      <trkpt lat="45.39503" lon="2.47856">
        <ele>780</ele>
        <time>2025-06-08T09:25:18.479Z</time>
      </trkpt>
      <trkpt lat="45.39504" lon="2.47856">
        <ele>780</ele>
        <time>2025-06-08T09:25:19.479Z</time>
      </trkpt>
      <trkpt lat="45.39504" lon="2.47856">
        <ele>780</ele>
        <time>2025-06-08T09:25:20.479Z</time>
      </trkpt>
      <trkpt lat="45.39504" lon="2.47856">
        <ele>779</ele>
        <time>2025-06-08T09:25:21.479Z</time>
      </trkpt>
      <trkpt lat="45.39504" lon="2.47857">
        <ele>779</ele>
        <time>2025-06-08T09:25:22.479Z</time>
      </trkpt>
      <trkpt lat="45.39504" lon="2.47857">
        <ele>778</ele>
        <time>2025-06-08T09:25:23.479Z</time>
      </trkpt>
      <trkpt lat="45.39504" lon="2.47857">
        <ele>778</ele>
        <time>2025-06-08T09:25:24.479Z</time>
      </trkpt>
      <trkpt lat="45.39504" lon="2.47857">
        <ele>777</ele>
        <time>2025-06-08T09:25:25.479Z</time>
      </trkpt>
      <trkpt lat="45.39504" lon="2.47857">
        <ele>777</ele>
        <time>2025-06-08T09:25:26.479Z</time>
      </trkpt>
      <trkpt lat="45.39504" lon="2.47858">
        <ele>777</ele>
        <time>2025-06-08T09:25:27.479Z</time>
      </trkpt>
      <trkpt lat="45.39504" lon="2.47858">
        <ele>777</ele>
        <time>2025-06-08T09:25:28.479Z</time>
      </trkpt>
      <trkpt lat="45.39504" lon="2.47858">
        <ele>777</ele>
        <time>2025-06-08T09:25:29.479Z</time>
      </trkpt>
      <trkpt lat="45.39504" lon="2.47858">
        <ele>777</ele>
        <time>2025-06-08T09:25:30.479Z</time>
      </trkpt>
      <trkpt lat="45.39504" lon="2.47858">
        <ele>778</ele>
        <time>2025-06-08T09:25:31.479Z</time>
      </trkpt>
      <trkpt lat="45.39504" lon="2.47858">
        <ele>778</ele>
        <time>2025-06-08T09:25:32.479Z</time>
      </trkpt>
      <trkpt lat="45.39504" lon="2.47858">
        <ele>778</ele>
        <time>2025-06-08T09:25:33.479Z</time>
      </trkpt>
      <trkpt lat="45.39504" lon="2.47858">
        <ele>778</ele>
        <time>2025-06-08T09:25:34.479Z</time>
      </trkpt>
      <trkpt lat="45.39503" lon="2.47859">
        <ele>777</ele>
        <time>2025-06-08T09:25:35.479Z</time>
      </trkpt>
      <trkpt lat="45.39503" lon="2.47859">
        <ele>777</ele>
        <time>2025-06-08T09:25:36.479Z</time>
      </trkpt>
      <trkpt lat="45.39503" lon="2.4786">
        <ele>777</ele>
        <time>2025-06-08T09:25:37.479Z</time>
      </trkpt>
      <trkpt lat="45.39503" lon="2.4786">
        <ele>776</ele>
        <time>2025-06-08T09:25:38.479Z</time>
      </trkpt>
      <trkpt lat="45.39503" lon="2.4786">
        <ele>776</ele>
        <time>2025-06-08T09:25:39.479Z</time>
      </trkpt>
      <trkpt lat="45.39501" lon="2.47861">
        <ele>776</ele>
        <time>2025-06-08T09:25:40.479Z</time>
      </trkpt>
      <trkpt lat="45.39501" lon="2.47861">
        <ele>775</ele>
        <time>2025-06-08T09:25:41.479Z</time>
      </trkpt>
      <trkpt lat="45.39501" lon="2.47861">
        <ele>775</ele>
        <time>2025-06-08T09:25:42.479Z</time>
      </trkpt>
      <trkpt lat="45.395" lon="2.47862">
        <ele>775</ele>
        <time>2025-06-08T09:25:43.479Z</time>
      </trkpt>
      <trkpt lat="45.395" lon="2.47862">
        <ele>776</ele>
        <time>2025-06-08T09:25:44.479Z</time>
      </trkpt>
      <trkpt lat="45.395" lon="2.47862">
        <ele>776</ele>
        <time>2025-06-08T09:25:45.479Z</time>
      </trkpt>
      <trkpt lat="45.39501" lon="2.47862">
        <ele>776</ele>
        <time>2025-06-08T09:25:46.479Z</time>
      </trkpt>
      <trkpt lat="45.39501" lon="2.47863">
        <ele>777</ele>
        <time>2025-06-08T09:25:47.479Z</time>
      </trkpt>
      <trkpt lat="45.39501" lon="2.47864">
        <ele>777</ele>
        <time>2025-06-08T09:25:48.479Z</time>
      </trkpt>
      <trkpt lat="45.39501" lon="2.47864">
        <ele>777</ele>
        <time>2025-06-08T09:25:49.479Z</time>
      </trkpt>
      <trkpt lat="45.39501" lon="2.47864">
        <ele>778</ele>
        <time>2025-06-08T09:25:50.479Z</time>
      </trkpt>
      <trkpt lat="45.39501" lon="2.47864">
        <ele>778</ele>
        <time>2025-06-08T09:25:51.479Z</time>
      </trkpt>
      <trkpt lat="45.395" lon="2.47864">
        <ele>778</ele>
        <time>2025-06-08T09:25:52.479Z</time>
      </trkpt>
      <trkpt lat="45.395" lon="2.47864">
        <ele>779</ele>
        <time>2025-06-08T09:25:53.479Z</time>
      </trkpt>
      <trkpt lat="45.395" lon="2.47864">
        <ele>779</ele>
        <time>2025-06-08T09:25:54.479Z</time>
      </trkpt>
      <trkpt lat="45.395" lon="2.47864">
        <ele>779</ele>
        <time>2025-06-08T09:25:55.479Z</time>
      </trkpt>
      <trkpt lat="45.395" lon="2.47864">
        <ele>779</ele>
        <time>2025-06-08T09:25:56.479Z</time>
      </trkpt>
      <trkpt lat="45.395" lon="2.47864">
        <ele>779</ele>
        <time>2025-06-08T09:25:57.479Z</time>
      </trkpt>
      <trkpt lat="45.39499" lon="2.47865">
        <ele>779</ele>
        <time>2025-06-08T09:25:58.479Z</time>
      </trkpt>
      <trkpt lat="45.395" lon="2.47865">
        <ele>780</ele>
        <time>2025-06-08T09:25:59.479Z</time>
      </trkpt>
      <trkpt lat="45.395" lon="2.47866">
        <ele>780</ele>
        <time>2025-06-08T09:26:00.479Z</time>
      </trkpt>
      <trkpt lat="45.395" lon="2.47867">
        <ele>781</ele>
        <time>2025-06-08T09:26:01.479Z</time>
      </trkpt>
      <trkpt lat="45.395" lon="2.47867">
        <ele>782</ele>
        <time>2025-06-08T09:26:02.479Z</time>
      </trkpt>
      <trkpt lat="45.395" lon="2.47868">
        <ele>782</ele>
        <time>2025-06-08T09:26:03.479Z</time>
      </trkpt>
      <trkpt lat="45.395" lon="2.47868">
        <ele>782</ele>
        <time>2025-06-08T09:26:04.479Z</time>
      </trkpt>
      <trkpt lat="45.395" lon="2.47869">
        <ele>783</ele>
        <time>2025-06-08T09:26:05.479Z</time>
      </trkpt>
      <trkpt lat="45.395" lon="2.47869">
        <ele>783</ele>
        <time>2025-06-08T09:26:06.479Z</time>
      </trkpt>
      <trkpt lat="45.395" lon="2.47868">
        <ele>783</ele>
        <time>2025-06-08T09:26:07.479Z</time>
      </trkpt>
      <trkpt lat="45.395" lon="2.47868">
        <ele>782</ele>
        <time>2025-06-08T09:26:08.479Z</time>
      </trkpt>
      <trkpt lat="45.39501" lon="2.47868">
        <ele>782</ele>
        <time>2025-06-08T09:26:09.479Z</time>
      </trkpt>
      <trkpt lat="45.39501" lon="2.47868">
        <ele>782</ele>
        <time>2025-06-08T09:26:10.479Z</time>
      </trkpt>
      <trkpt lat="45.39501" lon="2.47868">
        <ele>782</ele>
        <time>2025-06-08T09:26:11.479Z</time>
      </trkpt>
      <trkpt lat="45.39501" lon="2.47868">
        <ele>782</ele>
        <time>2025-06-08T09:26:12.479Z</time>
      </trkpt>
      <trkpt lat="45.39502" lon="2.47868">
        <ele>782</ele>
        <time>2025-06-08T09:26:13.479Z</time>
      </trkpt>
      <trkpt lat="45.39502" lon="2.47868">
        <ele>782</ele>
        <time>2025-06-08T09:26:14.479Z</time>
      </trkpt>
      <trkpt lat="45.39502" lon="2.47868">
        <ele>782</ele>
        <time>2025-06-08T09:26:15.479Z</time>
      </trkpt>
      <trkpt lat="45.39502" lon="2.47868">
        <ele>782</ele>
        <time>2025-06-08T09:26:16.479Z</time>
      </trkpt>
      <trkpt lat="45.39502" lon="2.47868">
        <ele>782</ele>
        <time>2025-06-08T09:26:17.479Z</time>
      </trkpt>
      <trkpt lat="45.39502" lon="2.47868">
        <ele>782</ele>
        <time>2025-06-08T09:26:18.479Z</time>
      </trkpt>
      <trkpt lat="45.39502" lon="2.47868">
        <ele>782</ele>
        <time>2025-06-08T09:26:19.479Z</time>
      </trkpt>
      <trkpt lat="45.39502" lon="2.47868">
        <ele>782</ele>
        <time>2025-06-08T09:26:20.479Z</time>
      </trkpt>
      <trkpt lat="45.39502" lon="2.47868">
        <ele>782</ele>
        <time>2025-06-08T09:26:21.479Z</time>
      </trkpt>
      <trkpt lat="45.39502" lon="2.47868">
        <ele>783</ele>
        <time>2025-06-08T09:26:22.479Z</time>
      </trkpt>
      <trkpt lat="45.39502" lon="2.47868">
        <ele>783</ele>
        <time>2025-06-08T09:26:23.479Z</time>
      </trkpt>
      <trkpt lat="45.39501" lon="2.47868">
        <ele>783</ele>
        <time>2025-06-08T09:26:24.479Z</time>
      </trkpt>
      <trkpt lat="45.39501" lon="2.47868">
        <ele>784</ele>
        <time>2025-06-08T09:26:25.479Z</time>
      </trkpt>
      <trkpt lat="45.39502" lon="2.47868">
        <ele>784</ele>
        <time>2025-06-08T09:26:26.479Z</time>
      </trkpt>
      <trkpt lat="45.39502" lon="2.47868">
        <ele>785</ele>
        <time>2025-06-08T09:26:27.479Z</time>
      </trkpt>
      <trkpt lat="45.39502" lon="2.47868">
        <ele>785</ele>
        <time>2025-06-08T09:26:28.479Z</time>
      </trkpt>
      <trkpt lat="45.39502" lon="2.47868">
        <ele>785</ele>
        <time>2025-06-08T09:26:29.479Z</time>
      </trkpt>
      <trkpt lat="45.39502" lon="2.47868">
        <ele>785</ele>
        <time>2025-06-08T09:26:30.479Z</time>
      </trkpt>
      <trkpt lat="45.39502" lon="2.47868">
        <ele>786</ele>
        <time>2025-06-08T09:26:31.479Z</time>
      </trkpt>
      <trkpt lat="45.39502" lon="2.47868">
        <ele>786</ele>
        <time>2025-06-08T09:26:32.479Z</time>
      </trkpt>
      <trkpt lat="45.39502" lon="2.47868">
        <ele>785</ele>
        <time>2025-06-08T09:26:33.479Z</time>
      </trkpt>
      <trkpt lat="45.39502" lon="2.47868">
        <ele>785</ele>
        <time>2025-06-08T09:26:34.479Z</time>
      </trkpt>
      <trkpt lat="45.39502" lon="2.47868">
        <ele>785</ele>
        <time>2025-06-08T09:26:35.479Z</time>
      </trkpt>
      <trkpt lat="45.39502" lon="2.47868">
        <ele>784</ele>
        <time>2025-06-08T09:26:36.479Z</time>
      </trkpt>
      <trkpt lat="45.39502" lon="2.47868">
        <ele>784</ele>
        <time>2025-06-08T09:26:37.479Z</time>
      </trkpt>
      <trkpt lat="45.39502" lon="2.47868">
        <ele>783</ele>
        <time>2025-06-08T09:26:38.479Z</time>
      </trkpt>
      <trkpt lat="45.39502" lon="2.47868">
        <ele>783</ele>
        <time>2025-06-08T09:26:39.479Z</time>
      </trkpt>
      <trkpt lat="45.39502" lon="2.47868">
        <ele>782</ele>
        <time>2025-06-08T09:26:40.479Z</time>
      </trkpt>
      <trkpt lat="45.39502" lon="2.47868">
        <ele>782</ele>
        <time>2025-06-08T09:26:41.479Z</time>
      </trkpt>
      <trkpt lat="45.39502" lon="2.47868">
        <ele>781</ele>
        <time>2025-06-08T09:26:42.479Z</time>
      </trkpt>
      <trkpt lat="45.39502" lon="2.47868">
        <ele>781</ele>
        <time>2025-06-08T09:26:43.479Z</time>
      </trkpt>
      <trkpt lat="45.39503" lon="2.47868">
        <ele>781</ele>
        <time>2025-06-08T09:26:44.479Z</time>
      </trkpt>
      <trkpt lat="45.39503" lon="2.47868">
        <ele>781</ele>
        <time>2025-06-08T09:26:45.479Z</time>
      </trkpt>
      <trkpt lat="45.39503" lon="2.47868">
        <ele>781</ele>
        <time>2025-06-08T09:26:46.479Z</time>
      </trkpt>
      <trkpt lat="45.39503" lon="2.47868">
        <ele>781</ele>
        <time>2025-06-08T09:26:47.479Z</time>
      </trkpt>
      <trkpt lat="45.39503" lon="2.47868">
        <ele>781</ele>
        <time>2025-06-08T09:26:48.479Z</time>
      </trkpt>
      <trkpt lat="45.39503" lon="2.47868">
        <ele>781</ele>
        <time>2025-06-08T09:26:49.479Z</time>
      </trkpt>
      <trkpt lat="45.39503" lon="2.47868">
        <ele>781</ele>
        <time>2025-06-08T09:26:50.479Z</time>
      </trkpt>
      <trkpt lat="45.39502" lon="2.47867">
        <ele>781</ele>
        <time>2025-06-08T09:26:51.479Z</time>
      </trkpt>
      <trkpt lat="45.39502" lon="2.47867">
        <ele>781</ele>
        <time>2025-06-08T09:26:52.479Z</time>
      </trkpt>
      <trkpt lat="45.39502" lon="2.47867">
        <ele>781</ele>
        <time>2025-06-08T09:26:53.479Z</time>
      </trkpt>
      <trkpt lat="45.39502" lon="2.47867">
        <ele>780</ele>
        <time>2025-06-08T09:26:54.479Z</time>
      </trkpt>
      <trkpt lat="45.39502" lon="2.47867">
        <ele>780</ele>
        <time>2025-06-08T09:26:55.479Z</time>
      </trkpt>
      <trkpt lat="45.39502" lon="2.47867">
        <ele>780</ele>
        <time>2025-06-08T09:26:56.479Z</time>
      </trkpt>
      <trkpt lat="45.39502" lon="2.47867">
        <ele>780</ele>
        <time>2025-06-08T09:26:57.479Z</time>
      </trkpt>
      <trkpt lat="45.39501" lon="2.47867">
        <ele>781</ele>
        <time>2025-06-08T09:26:58.479Z</time>
      </trkpt>
      <trkpt lat="45.39501" lon="2.47867">
        <ele>780</ele>
        <time>2025-06-08T09:26:59.479Z</time>
      </trkpt>
      <trkpt lat="45.39501" lon="2.47867">
        <ele>780</ele>
        <time>2025-06-08T09:27:00.479Z</time>
      </trkpt>
      <trkpt lat="45.39501" lon="2.47867">
        <ele>780</ele>
        <time>2025-06-08T09:27:01.479Z</time>
      </trkpt>
      <trkpt lat="45.39501" lon="2.47866">
        <ele>780</ele>
        <time>2025-06-08T09:27:02.479Z</time>
      </trkpt>
      <trkpt lat="45.39501" lon="2.47866">
        <ele>781</ele>
        <time>2025-06-08T09:27:03.479Z</time>
      </trkpt>
      <trkpt lat="45.39501" lon="2.47866">
        <ele>781</ele>
        <time>2025-06-08T09:27:04.479Z</time>
      </trkpt>
      <trkpt lat="45.39501" lon="2.47865">
        <ele>782</ele>
        <time>2025-06-08T09:27:05.479Z</time>
      </trkpt>
      <trkpt lat="45.39501" lon="2.47865">
        <ele>782</ele>
        <time>2025-06-08T09:27:06.479Z</time>
      </trkpt>
      <trkpt lat="45.39501" lon="2.47865">
        <ele>783</ele>
        <time>2025-06-08T09:27:07.479Z</time>
      </trkpt>
      <trkpt lat="45.39501" lon="2.47865">
        <ele>783</ele>
        <time>2025-06-08T09:27:08.479Z</time>
      </trkpt>
      <trkpt lat="45.39501" lon="2.47864">
        <ele>783</ele>
        <time>2025-06-08T09:27:09.479Z</time>
      </trkpt>
      <trkpt lat="45.39501" lon="2.47864">
        <ele>783</ele>
        <time>2025-06-08T09:27:10.479Z</time>
      </trkpt>
      <trkpt lat="45.39501" lon="2.47864">
        <ele>783</ele>
        <time>2025-06-08T09:27:11.479Z</time>
      </trkpt>
      <trkpt lat="45.39501" lon="2.47864">
        <ele>783</ele>
        <time>2025-06-08T09:27:12.479Z</time>
      </trkpt>
      <trkpt lat="45.39501" lon="2.47864">
        <ele>783</ele>
        <time>2025-06-08T09:27:13.479Z</time>
      </trkpt>
      <trkpt lat="45.39501" lon="2.47864">
        <ele>783</ele>
        <time>2025-06-08T09:27:14.479Z</time>
      </trkpt>
      <trkpt lat="45.39501" lon="2.47864">
        <ele>783</ele>
        <time>2025-06-08T09:27:15.479Z</time>
      </trkpt>
      <trkpt lat="45.395" lon="2.47864">
        <ele>784</ele>
        <time>2025-06-08T09:27:16.479Z</time>
      </trkpt>
      <trkpt lat="45.395" lon="2.47864">
        <ele>784</ele>
        <time>2025-06-08T09:27:17.479Z</time>
      </trkpt>
      <trkpt lat="45.39501" lon="2.47864">
        <ele>784</ele>
        <time>2025-06-08T09:27:18.479Z</time>
      </trkpt>
      <trkpt lat="45.39501" lon="2.47864">
        <ele>784</ele>
        <time>2025-06-08T09:27:19.479Z</time>
      </trkpt>
      <trkpt lat="45.39501" lon="2.47864">
        <ele>784</ele>
        <time>2025-06-08T09:27:20.479Z</time>
      </trkpt>
      <trkpt lat="45.39501" lon="2.47864">
        <ele>784</ele>
        <time>2025-06-08T09:27:21.479Z</time>
      </trkpt>
      <trkpt lat="45.39501" lon="2.47864">
        <ele>784</ele>
        <time>2025-06-08T09:27:22.479Z</time>
      </trkpt>
      <trkpt lat="45.39501" lon="2.47864">
        <ele>784</ele>
        <time>2025-06-08T09:27:23.479Z</time>
      </trkpt>
      <trkpt lat="45.39501" lon="2.47864">
        <ele>784</ele>
        <time>2025-06-08T09:27:24.479Z</time>
      </trkpt>
      <trkpt lat="45.39501" lon="2.47864">
        <ele>784</ele>
        <time>2025-06-08T09:27:25.479Z</time>
      </trkpt>
      <trkpt lat="45.39501" lon="2.47864">
        <ele>784</ele>
        <time>2025-06-08T09:27:26.479Z</time>
      </trkpt>
      <trkpt lat="45.39501" lon="2.47864">
        <ele>784</ele>
        <time>2025-06-08T09:27:27.479Z</time>
      </trkpt>
      <trkpt lat="45.39501" lon="2.47864">
        <ele>784</ele>
        <time>2025-06-08T09:27:28.479Z</time>
      </trkpt>
      <trkpt lat="45.39501" lon="2.47864">
        <ele>784</ele>
        <time>2025-06-08T09:27:29.479Z</time>
      </trkpt>
      <trkpt lat="45.39501" lon="2.47864">
        <ele>784</ele>
        <time>2025-06-08T09:27:30.479Z</time>
      </trkpt>
      <trkpt lat="45.39501" lon="2.47864">
        <ele>784</ele>
        <time>2025-06-08T09:27:31.479Z</time>
      </trkpt>
      <trkpt lat="45.39501" lon="2.47864">
        <ele>784</ele>
        <time>2025-06-08T09:27:32.479Z</time>
      </trkpt>
      <trkpt lat="45.39501" lon="2.47864">
        <ele>784</ele>
        <time>2025-06-08T09:27:33.479Z</time>
      </trkpt>
      <trkpt lat="45.39501" lon="2.47864">
        <ele>784</ele>
        <time>2025-06-08T09:27:34.479Z</time>
      </trkpt>
      <trkpt lat="45.39501" lon="2.47864">
        <ele>783</ele>
        <time>2025-06-08T09:27:35.479Z</time>
      </trkpt>
      <trkpt lat="45.39501" lon="2.47863">
        <ele>783</ele>
        <time>2025-06-08T09:27:36.479Z</time>
      </trkpt>
      <trkpt lat="45.39501" lon="2.47863">
        <ele>783</ele>
        <time>2025-06-08T09:27:37.479Z</time>
      </trkpt>
      <trkpt lat="45.39501" lon="2.47863">
        <ele>783</ele>
        <time>2025-06-08T09:27:38.479Z</time>
      </trkpt>
      <trkpt lat="45.39501" lon="2.47863">
        <ele>782</ele>
        <time>2025-06-08T09:27:39.479Z</time>
      </trkpt>
      <trkpt lat="45.39501" lon="2.47863">
        <ele>782</ele>
        <time>2025-06-08T09:27:40.479Z</time>
      </trkpt>
      <trkpt lat="45.39501" lon="2.47863">
        <ele>781</ele>
        <time>2025-06-08T09:27:41.479Z</time>
      </trkpt>
      <trkpt lat="45.39501" lon="2.47863">
        <ele>781</ele>
        <time>2025-06-08T09:27:42.479Z</time>
      </trkpt>
      <trkpt lat="45.39501" lon="2.47863">
        <ele>781</ele>
        <time>2025-06-08T09:27:43.479Z</time>
      </trkpt>
      <trkpt lat="45.39502" lon="2.47863">
        <ele>781</ele>
        <time>2025-06-08T09:27:44.479Z</time>
      </trkpt>
      <trkpt lat="45.39502" lon="2.47863">
        <ele>781</ele>
        <time>2025-06-08T09:27:45.479Z</time>
      </trkpt>
      <trkpt lat="45.39502" lon="2.47863">
        <ele>781</ele>
        <time>2025-06-08T09:27:46.479Z</time>
      </trkpt>
      <trkpt lat="45.39502" lon="2.47863">
        <ele>781</ele>
        <time>2025-06-08T09:27:47.479Z</time>
      </trkpt>
      <trkpt lat="45.39502" lon="2.47863">
        <ele>781</ele>
        <time>2025-06-08T09:27:48.479Z</time>
      </trkpt>
      <trkpt lat="45.39502" lon="2.47864">
        <ele>781</ele>
        <time>2025-06-08T09:27:49.479Z</time>
      </trkpt>
      <trkpt lat="45.39501" lon="2.47865">
        <ele>781</ele>
        <time>2025-06-08T09:27:50.479Z</time>
      </trkpt>
      <trkpt lat="45.395" lon="2.47866">
        <ele>781</ele>
        <time>2025-06-08T09:27:51.479Z</time>
      </trkpt>
      <trkpt lat="45.395" lon="2.47866">
        <ele>781</ele>
        <time>2025-06-08T09:27:52.479Z</time>
      </trkpt>
      <trkpt lat="45.39499" lon="2.47867">
        <ele>780</ele>
        <time>2025-06-08T09:27:53.479Z</time>
      </trkpt>
      <trkpt lat="45.39499" lon="2.47868">
        <ele>780</ele>
        <time>2025-06-08T09:27:54.479Z</time>
      </trkpt>
      <trkpt lat="45.39498" lon="2.47868">
        <ele>779</ele>
        <time>2025-06-08T09:27:55.479Z</time>
      </trkpt>
      <trkpt lat="45.39498" lon="2.47868">
        <ele>779</ele>
        <time>2025-06-08T09:27:56.479Z</time>
      </trkpt>
      <trkpt lat="45.39498" lon="2.47868">
        <ele>779</ele>
        <time>2025-06-08T09:27:57.479Z</time>
      </trkpt>
      <trkpt lat="45.39498" lon="2.47868">
        <ele>778</ele>
        <time>2025-06-08T09:27:58.479Z</time>
      </trkpt>
      <trkpt lat="45.39499" lon="2.47867">
        <ele>778</ele>
        <time>2025-06-08T09:27:59.479Z</time>
      </trkpt>
      <trkpt lat="45.39499" lon="2.47867">
        <ele>778</ele>
        <time>2025-06-08T09:28:00.479Z</time>
      </trkpt>
      <trkpt lat="45.39499" lon="2.47867">
        <ele>778</ele>
        <time>2025-06-08T09:28:01.479Z</time>
      </trkpt>
      <trkpt lat="45.39499" lon="2.47867">
        <ele>778</ele>
        <time>2025-06-08T09:28:02.479Z</time>
      </trkpt>
      <trkpt lat="45.39499" lon="2.47867">
        <ele>778</ele>
        <time>2025-06-08T09:28:03.479Z</time>
      </trkpt>
      <trkpt lat="45.39499" lon="2.47867">
        <ele>779</ele>
        <time>2025-06-08T09:28:04.479Z</time>
      </trkpt>
      <trkpt lat="45.39498" lon="2.47866">
        <ele>780</ele>
        <time>2025-06-08T09:28:05.479Z</time>
      </trkpt>
      <trkpt lat="45.39498" lon="2.47866">
        <ele>781</ele>
        <time>2025-06-08T09:28:06.479Z</time>
      </trkpt>
      <trkpt lat="45.39497" lon="2.47865">
        <ele>782</ele>
        <time>2025-06-08T09:28:07.479Z</time>
      </trkpt>
      <trkpt lat="45.39497" lon="2.47865">
        <ele>783</ele>
        <time>2025-06-08T09:28:08.479Z</time>
      </trkpt>
      <trkpt lat="45.39497" lon="2.47865">
        <ele>783</ele>
        <time>2025-06-08T09:28:09.479Z</time>
      </trkpt>
      <trkpt lat="45.39497" lon="2.47864">
        <ele>783</ele>
        <time>2025-06-08T09:28:10.479Z</time>
      </trkpt>
      <trkpt lat="45.39497" lon="2.47864">
        <ele>783</ele>
        <time>2025-06-08T09:28:11.479Z</time>
      </trkpt>
      <trkpt lat="45.39497" lon="2.47864">
        <ele>782</ele>
        <time>2025-06-08T09:28:12.479Z</time>
      </trkpt>
      <trkpt lat="45.39497" lon="2.47864">
        <ele>782</ele>
        <time>2025-06-08T09:28:13.479Z</time>
      </trkpt>
      <trkpt lat="45.39497" lon="2.47864">
        <ele>781</ele>
        <time>2025-06-08T09:28:14.479Z</time>
      </trkpt>
      <trkpt lat="45.39497" lon="2.47864">
        <ele>781</ele>
        <time>2025-06-08T09:28:15.479Z</time>
      </trkpt>
      <trkpt lat="45.39497" lon="2.47864">
        <ele>781</ele>
        <time>2025-06-08T09:28:16.479Z</time>
      </trkpt>
      <trkpt lat="45.39497" lon="2.47864">
        <ele>780</ele>
        <time>2025-06-08T09:28:17.479Z</time>
      </trkpt>
      <trkpt lat="45.39498" lon="2.47864">
        <ele>780</ele>
        <time>2025-06-08T09:28:18.479Z</time>
      </trkpt>
      <trkpt lat="45.39498" lon="2.47865">
        <ele>781</ele>
        <time>2025-06-08T09:28:19.479Z</time>
      </trkpt>
      <trkpt lat="45.39498" lon="2.47866">
        <ele>781</ele>
        <time>2025-06-08T09:28:20.479Z</time>
      </trkpt>
      <trkpt lat="45.39498" lon="2.47866">
        <ele>781</ele>
        <time>2025-06-08T09:28:21.479Z</time>
      </trkpt>
      <trkpt lat="45.39498" lon="2.47867">
        <ele>781</ele>
        <time>2025-06-08T09:28:22.479Z</time>
      </trkpt>
      <trkpt lat="45.39499" lon="2.47867">
        <ele>781</ele>
        <time>2025-06-08T09:28:23.479Z</time>
      </trkpt>
      <trkpt lat="45.39499" lon="2.47868">
        <ele>781</ele>
        <time>2025-06-08T09:28:24.479Z</time>
      </trkpt>
      <trkpt lat="45.39499" lon="2.47868">
        <ele>781</ele>
        <time>2025-06-08T09:28:25.479Z</time>
      </trkpt>
      <trkpt lat="45.395" lon="2.47869">
        <ele>781</ele>
        <time>2025-06-08T09:28:26.479Z</time>
      </trkpt>
      <trkpt lat="45.39501" lon="2.4787">
        <ele>781</ele>
        <time>2025-06-08T09:28:27.479Z</time>
      </trkpt>
      <trkpt lat="45.39502" lon="2.47871">
        <ele>781</ele>
        <time>2025-06-08T09:28:28.479Z</time>
      </trkpt>
      <trkpt lat="45.39503" lon="2.47871">
        <ele>781</ele>
        <time>2025-06-08T09:28:29.479Z</time>
      </trkpt>
      <trkpt lat="45.39503" lon="2.47872">
        <ele>781</ele>
        <time>2025-06-08T09:28:30.479Z</time>
      </trkpt>
      <trkpt lat="45.39504" lon="2.47872">
        <ele>781</ele>
        <time>2025-06-08T09:28:31.479Z</time>
      </trkpt>
      <trkpt lat="45.39505" lon="2.47873">
        <ele>781</ele>
        <time>2025-06-08T09:28:32.479Z</time>
      </trkpt>
      <trkpt lat="45.39506" lon="2.47874">
        <ele>782</ele>
        <time>2025-06-08T09:28:33.479Z</time>
      </trkpt>
      <trkpt lat="45.39507" lon="2.47875">
        <ele>783</ele>
        <time>2025-06-08T09:28:34.479Z</time>
      </trkpt>
      <trkpt lat="45.39508" lon="2.47876">
        <ele>783</ele>
        <time>2025-06-08T09:28:35.479Z</time>
      </trkpt>
      <trkpt lat="45.39509" lon="2.47877">
        <ele>783</ele>
        <time>2025-06-08T09:28:36.479Z</time>
      </trkpt>
      <trkpt lat="45.39509" lon="2.47878">
        <ele>783</ele>
        <time>2025-06-08T09:28:37.479Z</time>
      </trkpt>
      <trkpt lat="45.39509" lon="2.47879">
        <ele>783</ele>
        <time>2025-06-08T09:28:38.479Z</time>
      </trkpt>
      <trkpt lat="45.39509" lon="2.47879">
        <ele>783</ele>
        <time>2025-06-08T09:28:39.479Z</time>
      </trkpt>
      <trkpt lat="45.3951" lon="2.4788">
        <ele>783</ele>
        <time>2025-06-08T09:28:40.479Z</time>
      </trkpt>
      <trkpt lat="45.3951" lon="2.4788">
        <ele>784</ele>
        <time>2025-06-08T09:28:41.479Z</time>
      </trkpt>
      <trkpt lat="45.3951" lon="2.47879">
        <ele>784</ele>
        <time>2025-06-08T09:28:42.479Z</time>
      </trkpt>
      <trkpt lat="45.39509" lon="2.47879">
        <ele>784</ele>
        <time>2025-06-08T09:28:43.479Z</time>
      </trkpt>
      <trkpt lat="45.39509" lon="2.47879">
        <ele>785</ele>
        <time>2025-06-08T09:28:44.479Z</time>
      </trkpt>
      <trkpt lat="45.39509" lon="2.47879">
        <ele>785</ele>
        <time>2025-06-08T09:28:45.479Z</time>
      </trkpt>
      <trkpt lat="45.3951" lon="2.47879">
        <ele>785</ele>
        <time>2025-06-08T09:28:46.479Z</time>
      </trkpt>
      <trkpt lat="45.3951" lon="2.47879">
        <ele>785</ele>
        <time>2025-06-08T09:28:47.479Z</time>
      </trkpt>
      <trkpt lat="45.3951" lon="2.47879">
        <ele>785</ele>
        <time>2025-06-08T09:28:48.479Z</time>
      </trkpt>
      <trkpt lat="45.3951" lon="2.47879">
        <ele>785</ele>
        <time>2025-06-08T09:28:49.479Z</time>
      </trkpt>
      <trkpt lat="45.39509" lon="2.47879">
        <ele>786</ele>
        <time>2025-06-08T09:28:50.479Z</time>
      </trkpt>
      <trkpt lat="45.39509" lon="2.47879">
        <ele>786</ele>
        <time>2025-06-08T09:28:51.479Z</time>
      </trkpt>
      <trkpt lat="45.39509" lon="2.47879">
        <ele>786</ele>
        <time>2025-06-08T09:28:52.479Z</time>
      </trkpt>
      <trkpt lat="45.3951" lon="2.47879">
        <ele>786</ele>
        <time>2025-06-08T09:28:53.479Z</time>
      </trkpt>
      <trkpt lat="45.3951" lon="2.47879">
        <ele>786</ele>
        <time>2025-06-08T09:28:54.479Z</time>
      </trkpt>
      <trkpt lat="45.3951" lon="2.47879">
        <ele>785</ele>
        <time>2025-06-08T09:28:55.479Z</time>
      </trkpt>
      <trkpt lat="45.3951" lon="2.47879">
        <ele>785</ele>
        <time>2025-06-08T09:28:56.479Z</time>
      </trkpt>
      <trkpt lat="45.3951" lon="2.47879">
        <ele>784</ele>
        <time>2025-06-08T09:28:57.479Z</time>
      </trkpt>
      <trkpt lat="45.3951" lon="2.47879">
        <ele>784</ele>
        <time>2025-06-08T09:28:58.479Z</time>
      </trkpt>
      <trkpt lat="45.3951" lon="2.47879">
        <ele>784</ele>
        <time>2025-06-08T09:28:59.479Z</time>
      </trkpt>
      <trkpt lat="45.3951" lon="2.47879">
        <ele>784</ele>
        <time>2025-06-08T09:29:00.479Z</time>
      </trkpt>
      <trkpt lat="45.3951" lon="2.47879">
        <ele>784</ele>
        <time>2025-06-08T09:29:01.479Z</time>
      </trkpt>
      <trkpt lat="45.3951" lon="2.47879">
        <ele>784</ele>
        <time>2025-06-08T09:29:02.479Z</time>
      </trkpt>
      <trkpt lat="45.3951" lon="2.47879">
        <ele>784</ele>
        <time>2025-06-08T09:29:03.479Z</time>
      </trkpt>
      <trkpt lat="45.3951" lon="2.4788">
        <ele>784</ele>
        <time>2025-06-08T09:29:04.479Z</time>
      </trkpt>
      <trkpt lat="45.3951" lon="2.4788">
        <ele>784</ele>
        <time>2025-06-08T09:29:05.479Z</time>
      </trkpt>
      <trkpt lat="45.3951" lon="2.4788">
        <ele>784</ele>
        <time>2025-06-08T09:29:06.479Z</time>
      </trkpt>
      <trkpt lat="45.3951" lon="2.4788">
        <ele>784</ele>
        <time>2025-06-08T09:29:07.479Z</time>
      </trkpt>
      <trkpt lat="45.3951" lon="2.4788">
        <ele>784</ele>
        <time>2025-06-08T09:29:08.479Z</time>
      </trkpt>
      <trkpt lat="45.3951" lon="2.4788">
        <ele>784</ele>
        <time>2025-06-08T09:29:09.479Z</time>
      </trkpt>
      <trkpt lat="45.3951" lon="2.4788">
        <ele>784</ele>
        <time>2025-06-08T09:29:10.479Z</time>
      </trkpt>
      <trkpt lat="45.39511" lon="2.4788">
        <ele>784</ele>
        <time>2025-06-08T09:29:11.479Z</time>
      </trkpt>
      <trkpt lat="45.39511" lon="2.47881">
        <ele>783</ele>
        <time>2025-06-08T09:29:12.479Z</time>
      </trkpt>
      <trkpt lat="45.39512" lon="2.47882">
        <ele>783</ele>
        <time>2025-06-08T09:29:13.479Z</time>
      </trkpt>
      <trkpt lat="45.39513" lon="2.47882">
        <ele>783</ele>
        <time>2025-06-08T09:29:14.479Z</time>
      </trkpt>
      <trkpt lat="45.39514" lon="2.47883">
        <ele>783</ele>
        <time>2025-06-08T09:29:15.479Z</time>
      </trkpt>
      <trkpt lat="45.39514" lon="2.47884">
        <ele>783</ele>
        <time>2025-06-08T09:29:16.479Z</time>
      </trkpt>
      <trkpt lat="45.39515" lon="2.47885">
        <ele>783</ele>
        <time>2025-06-08T09:29:17.479Z</time>
      </trkpt>
      <trkpt lat="45.39516" lon="2.47886">
        <ele>782</ele>
        <time>2025-06-08T09:29:18.479Z</time>
      </trkpt>
      <trkpt lat="45.39518" lon="2.47887">
        <ele>782</ele>
        <time>2025-06-08T09:29:19.479Z</time>
      </trkpt>
      <trkpt lat="45.39519" lon="2.47888">
        <ele>781</ele>
        <time>2025-06-08T09:29:20.479Z</time>
      </trkpt>
      <trkpt lat="45.3952" lon="2.47889">
        <ele>781</ele>
        <time>2025-06-08T09:29:21.479Z</time>
      </trkpt>
      <trkpt lat="45.39522" lon="2.4789">
        <ele>781</ele>
        <time>2025-06-08T09:29:22.479Z</time>
      </trkpt>
      <trkpt lat="45.39523" lon="2.47891">
        <ele>781</ele>
        <time>2025-06-08T09:29:23.479Z</time>
      </trkpt>
      <trkpt lat="45.39524" lon="2.47892">
        <ele>781</ele>
        <time>2025-06-08T09:29:24.479Z</time>
      </trkpt>
      <trkpt lat="45.39524" lon="2.47893">
        <ele>781</ele>
        <time>2025-06-08T09:29:25.479Z</time>
      </trkpt>
      <trkpt lat="45.39525" lon="2.47894">
        <ele>780</ele>
        <time>2025-06-08T09:29:26.479Z</time>
      </trkpt>
      <trkpt lat="45.39526" lon="2.47895">
        <ele>780</ele>
        <time>2025-06-08T09:29:27.479Z</time>
      </trkpt>
      <trkpt lat="45.39526" lon="2.47896">
        <ele>780</ele>
        <time>2025-06-08T09:29:28.479Z</time>
      </trkpt>
      <trkpt lat="45.39527" lon="2.47897">
        <ele>780</ele>
        <time>2025-06-08T09:29:29.479Z</time>
      </trkpt>
      <trkpt lat="45.39528" lon="2.47898">
        <ele>781</ele>
        <time>2025-06-08T09:29:30.479Z</time>
      </trkpt>
      <trkpt lat="45.39528" lon="2.47899">
        <ele>781</ele>
        <time>2025-06-08T09:29:31.479Z</time>
      </trkpt>
      <trkpt lat="45.39529" lon="2.479">
        <ele>782</ele>
        <time>2025-06-08T09:29:32.479Z</time>
      </trkpt>
      <trkpt lat="45.3953" lon="2.47901">
        <ele>782</ele>
        <time>2025-06-08T09:29:33.479Z</time>
      </trkpt>
      <trkpt lat="45.39531" lon="2.47903">
        <ele>782</ele>
        <time>2025-06-08T09:29:34.479Z</time>
      </trkpt>
      <trkpt lat="45.39531" lon="2.47904">
        <ele>782</ele>
        <time>2025-06-08T09:29:35.479Z</time>
      </trkpt>
      <trkpt lat="45.39532" lon="2.47905">
        <ele>782</ele>
        <time>2025-06-08T09:29:36.479Z</time>
      </trkpt>
      <trkpt lat="45.39533" lon="2.47907">
        <ele>782</ele>
        <time>2025-06-08T09:29:37.479Z</time>
      </trkpt>
      <trkpt lat="45.39535" lon="2.47908">
        <ele>782</ele>
        <time>2025-06-08T09:29:38.479Z</time>
      </trkpt>
      <trkpt lat="45.39535" lon="2.4791">
        <ele>782</ele>
        <time>2025-06-08T09:29:39.479Z</time>
      </trkpt>
      <trkpt lat="45.39536" lon="2.47911">
        <ele>782</ele>
        <time>2025-06-08T09:29:40.479Z</time>
      </trkpt>
      <trkpt lat="45.39537" lon="2.47912">
        <ele>782</ele>
        <time>2025-06-08T09:29:41.479Z</time>
      </trkpt>
      <trkpt lat="45.39538" lon="2.47914">
        <ele>782</ele>
        <time>2025-06-08T09:29:42.479Z</time>
      </trkpt>
      <trkpt lat="45.39538" lon="2.47915">
        <ele>782</ele>
        <time>2025-06-08T09:29:43.479Z</time>
      </trkpt>
      <trkpt lat="45.39538" lon="2.47916">
        <ele>782</ele>
        <time>2025-06-08T09:29:44.479Z</time>
      </trkpt>
      <trkpt lat="45.39539" lon="2.47917">
        <ele>783</ele>
        <time>2025-06-08T09:29:45.479Z</time>
      </trkpt>
      <trkpt lat="45.39539" lon="2.47919">
        <ele>783</ele>
        <time>2025-06-08T09:29:46.479Z</time>
      </trkpt>
      <trkpt lat="45.39539" lon="2.4792">
        <ele>783</ele>
        <time>2025-06-08T09:29:47.479Z</time>
      </trkpt>
      <trkpt lat="45.3954" lon="2.47922">
        <ele>784</ele>
        <time>2025-06-08T09:29:48.479Z</time>
      </trkpt>
      <trkpt lat="45.3954" lon="2.47923">
        <ele>784</ele>
        <time>2025-06-08T09:29:49.479Z</time>
      </trkpt>
      <trkpt lat="45.39542" lon="2.47925">
        <ele>785</ele>
        <time>2025-06-08T09:29:50.479Z</time>
      </trkpt>
      <trkpt lat="45.39542" lon="2.47926">
        <ele>786</ele>
        <time>2025-06-08T09:29:51.479Z</time>
      </trkpt>
      <trkpt lat="45.39543" lon="2.47927">
        <ele>787</ele>
        <time>2025-06-08T09:29:52.479Z</time>
      </trkpt>
      <trkpt lat="45.39543" lon="2.47929">
        <ele>787</ele>
        <time>2025-06-08T09:29:53.479Z</time>
      </trkpt>
      <trkpt lat="45.39545" lon="2.47931">
        <ele>788</ele>
        <time>2025-06-08T09:29:54.479Z</time>
      </trkpt>
      <trkpt lat="45.39546" lon="2.47933">
        <ele>788</ele>
        <time>2025-06-08T09:29:55.479Z</time>
      </trkpt>
      <trkpt lat="45.39547" lon="2.47936">
        <ele>788</ele>
        <time>2025-06-08T09:29:56.479Z</time>
      </trkpt>
      <trkpt lat="45.39548" lon="2.47937">
        <ele>789</ele>
        <time>2025-06-08T09:29:57.479Z</time>
      </trkpt>
      <trkpt lat="45.39549" lon="2.47939">
        <ele>789</ele>
        <time>2025-06-08T09:29:58.479Z</time>
      </trkpt>
      <trkpt lat="45.3955" lon="2.4794">
        <ele>790</ele>
        <time>2025-06-08T09:29:59.479Z</time>
      </trkpt>
      <trkpt lat="45.3955" lon="2.47942">
        <ele>791</ele>
        <time>2025-06-08T09:30:00.479Z</time>
      </trkpt>
      <trkpt lat="45.39551" lon="2.47943">
        <ele>791</ele>
        <time>2025-06-08T09:30:01.479Z</time>
      </trkpt>
      <trkpt lat="45.39551" lon="2.47945">
        <ele>790</ele>
        <time>2025-06-08T09:30:02.479Z</time>
      </trkpt>
      <trkpt lat="45.39551" lon="2.47946">
        <ele>790</ele>
        <time>2025-06-08T09:30:03.479Z</time>
      </trkpt>
      <trkpt lat="45.39552" lon="2.47948">
        <ele>789</ele>
        <time>2025-06-08T09:30:04.479Z</time>
      </trkpt>
      <trkpt lat="45.39552" lon="2.47949">
        <ele>789</ele>
        <time>2025-06-08T09:30:05.479Z</time>
      </trkpt>
      <trkpt lat="45.39553" lon="2.4795">
        <ele>788</ele>
        <time>2025-06-08T09:30:06.479Z</time>
      </trkpt>
      <trkpt lat="45.39554" lon="2.47952">
        <ele>787</ele>
        <time>2025-06-08T09:30:07.479Z</time>
      </trkpt>
      <trkpt lat="45.39554" lon="2.47953">
        <ele>787</ele>
        <time>2025-06-08T09:30:08.479Z</time>
      </trkpt>
      <trkpt lat="45.39555" lon="2.47955">
        <ele>786</ele>
        <time>2025-06-08T09:30:09.479Z</time>
      </trkpt>
      <trkpt lat="45.39556" lon="2.47957">
        <ele>786</ele>
        <time>2025-06-08T09:30:10.479Z</time>
      </trkpt>
      <trkpt lat="45.39557" lon="2.47958">
        <ele>785</ele>
        <time>2025-06-08T09:30:11.479Z</time>
      </trkpt>
      <trkpt lat="45.39559" lon="2.4796">
        <ele>785</ele>
        <time>2025-06-08T09:30:12.479Z</time>
      </trkpt>
      <trkpt lat="45.3956" lon="2.47961">
        <ele>785</ele>
        <time>2025-06-08T09:30:13.479Z</time>
      </trkpt>
      <trkpt lat="45.39561" lon="2.47963">
        <ele>785</ele>
        <time>2025-06-08T09:30:14.479Z</time>
      </trkpt>
      <trkpt lat="45.39561" lon="2.47964">
        <ele>785</ele>
        <time>2025-06-08T09:30:15.479Z</time>
      </trkpt>
      <trkpt lat="45.39561" lon="2.47966">
        <ele>786</ele>
        <time>2025-06-08T09:30:16.479Z</time>
      </trkpt>
      <trkpt lat="45.39561" lon="2.47968">
        <ele>786</ele>
        <time>2025-06-08T09:30:17.479Z</time>
      </trkpt>
      <trkpt lat="45.39561" lon="2.4797">
        <ele>786</ele>
        <time>2025-06-08T09:30:18.479Z</time>
      </trkpt>
      <trkpt lat="45.39561" lon="2.47972">
        <ele>786</ele>
        <time>2025-06-08T09:30:19.479Z</time>
      </trkpt>
      <trkpt lat="45.39561" lon="2.47973">
        <ele>786</ele>
        <time>2025-06-08T09:30:20.479Z</time>
      </trkpt>
      <trkpt lat="45.39561" lon="2.47975">
        <ele>786</ele>
        <time>2025-06-08T09:30:21.479Z</time>
      </trkpt>
      <trkpt lat="45.39561" lon="2.47977">
        <ele>786</ele>
        <time>2025-06-08T09:30:22.479Z</time>
      </trkpt>
      <trkpt lat="45.39561" lon="2.47977">
        <ele>786</ele>
        <time>2025-06-08T09:30:23.479Z</time>
      </trkpt>
      <trkpt lat="45.39561" lon="2.47978">
        <ele>786</ele>
        <time>2025-06-08T09:30:24.479Z</time>
      </trkpt>
      <trkpt lat="45.39561" lon="2.47979">
        <ele>787</ele>
        <time>2025-06-08T09:30:25.479Z</time>
      </trkpt>
      <trkpt lat="45.39561" lon="2.47981">
        <ele>787</ele>
        <time>2025-06-08T09:30:26.479Z</time>
      </trkpt>
      <trkpt lat="45.39561" lon="2.47982">
        <ele>787</ele>
        <time>2025-06-08T09:30:27.479Z</time>
      </trkpt>
      <trkpt lat="45.39561" lon="2.47984">
        <ele>788</ele>
        <time>2025-06-08T09:30:28.479Z</time>
      </trkpt>
      <trkpt lat="45.39562" lon="2.47986">
        <ele>788</ele>
        <time>2025-06-08T09:30:29.479Z</time>
      </trkpt>
      <trkpt lat="45.39563" lon="2.47988">
        <ele>787</ele>
        <time>2025-06-08T09:30:30.479Z</time>
      </trkpt>
      <trkpt lat="45.39563" lon="2.4799">
        <ele>787</ele>
        <time>2025-06-08T09:30:31.479Z</time>
      </trkpt>
      <trkpt lat="45.39563" lon="2.47992">
        <ele>787</ele>
        <time>2025-06-08T09:30:32.479Z</time>
      </trkpt>
      <trkpt lat="45.39563" lon="2.47993">
        <ele>788</ele>
        <time>2025-06-08T09:30:33.479Z</time>
      </trkpt>
      <trkpt lat="45.39563" lon="2.47995">
        <ele>788</ele>
        <time>2025-06-08T09:30:34.479Z</time>
      </trkpt>
      <trkpt lat="45.39564" lon="2.47998">
        <ele>788</ele>
        <time>2025-06-08T09:30:35.479Z</time>
      </trkpt>
      <trkpt lat="45.39563" lon="2.48001">
        <ele>788</ele>
        <time>2025-06-08T09:30:36.479Z</time>
      </trkpt>
      <trkpt lat="45.39564" lon="2.48003">
        <ele>788</ele>
        <time>2025-06-08T09:30:37.479Z</time>
      </trkpt>
      <trkpt lat="45.39563" lon="2.48004">
        <ele>788</ele>
        <time>2025-06-08T09:30:38.479Z</time>
      </trkpt>
      <trkpt lat="45.39563" lon="2.48006">
        <ele>788</ele>
        <time>2025-06-08T09:30:39.479Z</time>
      </trkpt>
      <trkpt lat="45.39564" lon="2.48008">
        <ele>788</ele>
        <time>2025-06-08T09:30:40.479Z</time>
      </trkpt>
      <trkpt lat="45.39565" lon="2.48009">
        <ele>788</ele>
        <time>2025-06-08T09:30:41.479Z</time>
      </trkpt>
      <trkpt lat="45.39565" lon="2.48011">
        <ele>788</ele>
        <time>2025-06-08T09:30:42.479Z</time>
      </trkpt>
      <trkpt lat="45.39565" lon="2.48012">
        <ele>789</ele>
        <time>2025-06-08T09:30:43.479Z</time>
      </trkpt>
      <trkpt lat="45.39566" lon="2.48014">
        <ele>789</ele>
        <time>2025-06-08T09:30:44.479Z</time>
      </trkpt>
      <trkpt lat="45.39566" lon="2.48017">
        <ele>789</ele>
        <time>2025-06-08T09:30:45.479Z</time>
      </trkpt>
      <trkpt lat="45.39567" lon="2.48019">
        <ele>789</ele>
        <time>2025-06-08T09:30:46.479Z</time>
      </trkpt>
      <trkpt lat="45.39567" lon="2.48021">
        <ele>789</ele>
        <time>2025-06-08T09:30:47.479Z</time>
      </trkpt>
      <trkpt lat="45.39566" lon="2.48022">
        <ele>789</ele>
        <time>2025-06-08T09:30:48.479Z</time>
      </trkpt>
      <trkpt lat="45.39566" lon="2.48024">
        <ele>790</ele>
        <time>2025-06-08T09:30:49.479Z</time>
      </trkpt>
      <trkpt lat="45.39567" lon="2.48025">
        <ele>790</ele>
        <time>2025-06-08T09:30:50.479Z</time>
      </trkpt>
      <trkpt lat="45.39567" lon="2.48027">
        <ele>790</ele>
        <time>2025-06-08T09:30:51.479Z</time>
      </trkpt>
      <trkpt lat="45.39567" lon="2.48029">
        <ele>791</ele>
        <time>2025-06-08T09:30:52.479Z</time>
      </trkpt>
      <trkpt lat="45.39567" lon="2.4803">
        <ele>791</ele>
        <time>2025-06-08T09:30:53.479Z</time>
      </trkpt>
      <trkpt lat="45.39568" lon="2.48032">
        <ele>790</ele>
        <time>2025-06-08T09:30:54.479Z</time>
      </trkpt>
      <trkpt lat="45.39568" lon="2.48034">
        <ele>790</ele>
        <time>2025-06-08T09:30:55.479Z</time>
      </trkpt>
      <trkpt lat="45.39569" lon="2.48037">
        <ele>789</ele>
        <time>2025-06-08T09:30:56.479Z</time>
      </trkpt>
      <trkpt lat="45.39569" lon="2.48039">
        <ele>788</ele>
        <time>2025-06-08T09:30:57.479Z</time>
      </trkpt>
      <trkpt lat="45.39569" lon="2.48041">
        <ele>788</ele>
        <time>2025-06-08T09:30:58.479Z</time>
      </trkpt>
      <trkpt lat="45.3957" lon="2.48043">
        <ele>788</ele>
        <time>2025-06-08T09:30:59.479Z</time>
      </trkpt>
      <trkpt lat="45.3957" lon="2.48045">
        <ele>788</ele>
        <time>2025-06-08T09:31:00.479Z</time>
      </trkpt>
      <trkpt lat="45.39571" lon="2.48047">
        <ele>788</ele>
        <time>2025-06-08T09:31:01.479Z</time>
      </trkpt>
      <trkpt lat="45.39571" lon="2.48049">
        <ele>788</ele>
        <time>2025-06-08T09:31:02.479Z</time>
      </trkpt>
      <trkpt lat="45.39572" lon="2.48051">
        <ele>789</ele>
        <time>2025-06-08T09:31:03.479Z</time>
      </trkpt>
      <trkpt lat="45.39573" lon="2.48053">
        <ele>789</ele>
        <time>2025-06-08T09:31:04.479Z</time>
      </trkpt>
      <trkpt lat="45.39573" lon="2.48054">
        <ele>789</ele>
        <time>2025-06-08T09:31:05.479Z</time>
      </trkpt>
      <trkpt lat="45.39574" lon="2.48056">
        <ele>790</ele>
        <time>2025-06-08T09:31:06.479Z</time>
      </trkpt>
      <trkpt lat="45.39574" lon="2.48057">
        <ele>790</ele>
        <time>2025-06-08T09:31:07.479Z</time>
      </trkpt>
      <trkpt lat="45.39575" lon="2.48058">
        <ele>790</ele>
        <time>2025-06-08T09:31:08.479Z</time>
      </trkpt>
      <trkpt lat="45.39576" lon="2.48059">
        <ele>790</ele>
        <time>2025-06-08T09:31:09.479Z</time>
      </trkpt>
      <trkpt lat="45.39577" lon="2.4806">
        <ele>791</ele>
        <time>2025-06-08T09:31:10.479Z</time>
      </trkpt>
      <trkpt lat="45.39578" lon="2.4806">
        <ele>791</ele>
        <time>2025-06-08T09:31:11.479Z</time>
      </trkpt>
      <trkpt lat="45.39579" lon="2.48061">
        <ele>791</ele>
        <time>2025-06-08T09:31:12.479Z</time>
      </trkpt>
      <trkpt lat="45.3958" lon="2.48061">
        <ele>791</ele>
        <time>2025-06-08T09:31:13.479Z</time>
      </trkpt>
      <trkpt lat="45.39581" lon="2.48061">
        <ele>791</ele>
        <time>2025-06-08T09:31:14.479Z</time>
      </trkpt>
      <trkpt lat="45.39582" lon="2.48061">
        <ele>791</ele>
        <time>2025-06-08T09:31:15.479Z</time>
      </trkpt>
      <trkpt lat="45.39583" lon="2.48061">
        <ele>791</ele>
        <time>2025-06-08T09:31:16.479Z</time>
      </trkpt>
      <trkpt lat="45.39583" lon="2.4806">
        <ele>792</ele>
        <time>2025-06-08T09:31:17.479Z</time>
      </trkpt>
      <trkpt lat="45.39584" lon="2.48059">
        <ele>793</ele>
        <time>2025-06-08T09:31:18.479Z</time>
      </trkpt>
      <trkpt lat="45.39585" lon="2.48058">
        <ele>793</ele>
        <time>2025-06-08T09:31:19.479Z</time>
      </trkpt>
      <trkpt lat="45.39586" lon="2.48057">
        <ele>794</ele>
        <time>2025-06-08T09:31:20.479Z</time>
      </trkpt>
      <trkpt lat="45.39587" lon="2.48055">
        <ele>795</ele>
        <time>2025-06-08T09:31:21.479Z</time>
      </trkpt>
      <trkpt lat="45.39587" lon="2.48055">
        <ele>796</ele>
        <time>2025-06-08T09:31:22.479Z</time>
      </trkpt>
      <trkpt lat="45.39588" lon="2.48054">
        <ele>796</ele>
        <time>2025-06-08T09:31:23.479Z</time>
      </trkpt>
      <trkpt lat="45.39589" lon="2.48053">
        <ele>797</ele>
        <time>2025-06-08T09:31:24.479Z</time>
      </trkpt>
      <trkpt lat="45.3959" lon="2.48053">
        <ele>798</ele>
        <time>2025-06-08T09:31:25.479Z</time>
      </trkpt>
      <trkpt lat="45.39591" lon="2.48053">
        <ele>798</ele>
        <time>2025-06-08T09:31:26.479Z</time>
      </trkpt>
      <trkpt lat="45.39592" lon="2.48052">
        <ele>798</ele>
        <time>2025-06-08T09:31:27.479Z</time>
      </trkpt>
      <trkpt lat="45.39593" lon="2.48051">
        <ele>798</ele>
        <time>2025-06-08T09:31:28.479Z</time>
      </trkpt>
      <trkpt lat="45.39594" lon="2.48051">
        <ele>798</ele>
        <time>2025-06-08T09:31:29.479Z</time>
      </trkpt>
      <trkpt lat="45.39594" lon="2.48051">
        <ele>798</ele>
        <time>2025-06-08T09:31:30.479Z</time>
      </trkpt>
      <trkpt lat="45.39595" lon="2.48051">
        <ele>798</ele>
        <time>2025-06-08T09:31:31.479Z</time>
      </trkpt>
      <trkpt lat="45.39597" lon="2.48051">
        <ele>798</ele>
        <time>2025-06-08T09:31:32.479Z</time>
      </trkpt>
      <trkpt lat="45.39598" lon="2.48051">
        <ele>798</ele>
        <time>2025-06-08T09:31:33.479Z</time>
      </trkpt>
      <trkpt lat="45.39598" lon="2.4805">
        <ele>798</ele>
        <time>2025-06-08T09:31:34.479Z</time>
      </trkpt>
      <trkpt lat="45.39598" lon="2.48049">
        <ele>798</ele>
        <time>2025-06-08T09:31:35.479Z</time>
      </trkpt>
      <trkpt lat="45.39599" lon="2.48047">
        <ele>798</ele>
        <time>2025-06-08T09:31:36.479Z</time>
      </trkpt>
      <trkpt lat="45.396" lon="2.48046">
        <ele>798</ele>
        <time>2025-06-08T09:31:37.479Z</time>
      </trkpt>
      <trkpt lat="45.39601" lon="2.48045">
        <ele>798</ele>
        <time>2025-06-08T09:31:38.479Z</time>
      </trkpt>
      <trkpt lat="45.39601" lon="2.48044">
        <ele>798</ele>
        <time>2025-06-08T09:31:39.479Z</time>
      </trkpt>
      <trkpt lat="45.39602" lon="2.48044">
        <ele>798</ele>
        <time>2025-06-08T09:31:40.479Z</time>
      </trkpt>
      <trkpt lat="45.39603" lon="2.48042">
        <ele>798</ele>
        <time>2025-06-08T09:31:41.479Z</time>
      </trkpt>
      <trkpt lat="45.39604" lon="2.48041">
        <ele>798</ele>
        <time>2025-06-08T09:31:42.479Z</time>
      </trkpt>
      <trkpt lat="45.39604" lon="2.48041">
        <ele>799</ele>
        <time>2025-06-08T09:31:43.479Z</time>
      </trkpt>
      <trkpt lat="45.39605" lon="2.48041">
        <ele>800</ele>
        <time>2025-06-08T09:31:44.479Z</time>
      </trkpt>
      <trkpt lat="45.39605" lon="2.4804">
        <ele>800</ele>
        <time>2025-06-08T09:31:45.479Z</time>
      </trkpt>
      <trkpt lat="45.39606" lon="2.4804">
        <ele>801</ele>
        <time>2025-06-08T09:31:46.479Z</time>
      </trkpt>
      <trkpt lat="45.39607" lon="2.48039">
        <ele>801</ele>
        <time>2025-06-08T09:31:47.479Z</time>
      </trkpt>
      <trkpt lat="45.39608" lon="2.48039">
        <ele>801</ele>
        <time>2025-06-08T09:31:48.479Z</time>
      </trkpt>
      <trkpt lat="45.39609" lon="2.48038">
        <ele>801</ele>
        <time>2025-06-08T09:31:49.479Z</time>
      </trkpt>
      <trkpt lat="45.39609" lon="2.48037">
        <ele>801</ele>
        <time>2025-06-08T09:31:50.479Z</time>
      </trkpt>
      <trkpt lat="45.3961" lon="2.48036">
        <ele>801</ele>
        <time>2025-06-08T09:31:51.479Z</time>
      </trkpt>
      <trkpt lat="45.3961" lon="2.48035">
        <ele>801</ele>
        <time>2025-06-08T09:31:52.479Z</time>
      </trkpt>
      <trkpt lat="45.39611" lon="2.48034">
        <ele>801</ele>
        <time>2025-06-08T09:31:53.479Z</time>
      </trkpt>
      <trkpt lat="45.39613" lon="2.48034">
        <ele>800</ele>
        <time>2025-06-08T09:31:54.479Z</time>
      </trkpt>
      <trkpt lat="45.39614" lon="2.48033">
        <ele>800</ele>
        <time>2025-06-08T09:31:55.479Z</time>
      </trkpt>
      <trkpt lat="45.39615" lon="2.48032">
        <ele>800</ele>
        <time>2025-06-08T09:31:56.479Z</time>
      </trkpt>
      <trkpt lat="45.39617" lon="2.4803">
        <ele>799</ele>
        <time>2025-06-08T09:31:57.479Z</time>
      </trkpt>
      <trkpt lat="45.3962" lon="2.48031">
        <ele>799</ele>
        <time>2025-06-08T09:31:58.479Z</time>
      </trkpt>
      <trkpt lat="45.39621" lon="2.4803">
        <ele>799</ele>
        <time>2025-06-08T09:31:59.479Z</time>
      </trkpt>
      <trkpt lat="45.39623" lon="2.4803">
        <ele>798</ele>
        <time>2025-06-08T09:32:00.479Z</time>
      </trkpt>
      <trkpt lat="45.39624" lon="2.4803">
        <ele>798</ele>
        <time>2025-06-08T09:32:01.479Z</time>
      </trkpt>
      <trkpt lat="45.39624" lon="2.48029">
        <ele>798</ele>
        <time>2025-06-08T09:32:02.479Z</time>
      </trkpt>
      <trkpt lat="45.39625" lon="2.48028">
        <ele>798</ele>
        <time>2025-06-08T09:32:03.479Z</time>
      </trkpt>
      <trkpt lat="45.39626" lon="2.48027">
        <ele>799</ele>
        <time>2025-06-08T09:32:04.479Z</time>
      </trkpt>
      <trkpt lat="45.39628" lon="2.48026">
        <ele>800</ele>
        <time>2025-06-08T09:32:05.479Z</time>
      </trkpt>
      <trkpt lat="45.3963" lon="2.48025">
        <ele>800</ele>
        <time>2025-06-08T09:32:06.479Z</time>
      </trkpt>
      <trkpt lat="45.39631" lon="2.48024">
        <ele>800</ele>
        <time>2025-06-08T09:32:07.479Z</time>
      </trkpt>
      <trkpt lat="45.39633" lon="2.48024">
        <ele>801</ele>
        <time>2025-06-08T09:32:08.479Z</time>
      </trkpt>
      <trkpt lat="45.39634" lon="2.48024">
        <ele>801</ele>
        <time>2025-06-08T09:32:09.479Z</time>
      </trkpt>
      <trkpt lat="45.39636" lon="2.48023">
        <ele>802</ele>
        <time>2025-06-08T09:32:10.479Z</time>
      </trkpt>
      <trkpt lat="45.39637" lon="2.48023">
        <ele>802</ele>
        <time>2025-06-08T09:32:11.479Z</time>
      </trkpt>
      <trkpt lat="45.39639" lon="2.48023">
        <ele>802</ele>
        <time>2025-06-08T09:32:12.479Z</time>
      </trkpt>
      <trkpt lat="45.39641" lon="2.48023">
        <ele>802</ele>
        <time>2025-06-08T09:32:13.479Z</time>
      </trkpt>
      <trkpt lat="45.39643" lon="2.48024">
        <ele>802</ele>
        <time>2025-06-08T09:32:14.479Z</time>
      </trkpt>
      <trkpt lat="45.39644" lon="2.48024">
        <ele>801</ele>
        <time>2025-06-08T09:32:15.479Z</time>
      </trkpt>
      <trkpt lat="45.39646" lon="2.48025">
        <ele>800</ele>
        <time>2025-06-08T09:32:16.479Z</time>
      </trkpt>
      <trkpt lat="45.39647" lon="2.48026">
        <ele>799</ele>
        <time>2025-06-08T09:32:17.479Z</time>
      </trkpt>
      <trkpt lat="45.39649" lon="2.48028">
        <ele>798</ele>
        <time>2025-06-08T09:32:18.479Z</time>
      </trkpt>
      <trkpt lat="45.3965" lon="2.48029">
        <ele>797</ele>
        <time>2025-06-08T09:32:19.479Z</time>
      </trkpt>
      <trkpt lat="45.39652" lon="2.48031">
        <ele>796</ele>
        <time>2025-06-08T09:32:20.479Z</time>
      </trkpt>
      <trkpt lat="45.39653" lon="2.48034">
        <ele>795</ele>
        <time>2025-06-08T09:32:21.479Z</time>
      </trkpt>
      <trkpt lat="45.39655" lon="2.48038">
        <ele>794</ele>
        <time>2025-06-08T09:32:22.479Z</time>
      </trkpt>
      <trkpt lat="45.39656" lon="2.4804">
        <ele>793</ele>
        <time>2025-06-08T09:32:23.479Z</time>
      </trkpt>
      <trkpt lat="45.39656" lon="2.48042">
        <ele>792</ele>
        <time>2025-06-08T09:32:24.479Z</time>
      </trkpt>
      <trkpt lat="45.39657" lon="2.48044">
        <ele>791</ele>
        <time>2025-06-08T09:32:25.479Z</time>
      </trkpt>
      <trkpt lat="45.39657" lon="2.48046">
        <ele>791</ele>
        <time>2025-06-08T09:32:26.479Z</time>
      </trkpt>
      <trkpt lat="45.39657" lon="2.48048">
        <ele>791</ele>
        <time>2025-06-08T09:32:27.479Z</time>
      </trkpt>
      <trkpt lat="45.39657" lon="2.48064">
        <ele>790</ele>
        <time>2025-06-08T09:32:34.877Z</time>
      </trkpt>
      <trkpt lat="45.39657" lon="2.48066">
        <ele>790</ele>
        <time>2025-06-08T09:32:35.877Z</time>
      </trkpt>
      <trkpt lat="45.39657" lon="2.48066">
        <ele>790</ele>
        <time>2025-06-08T09:32:36.877Z</time>
      </trkpt>
      <trkpt lat="45.39657" lon="2.48069">
        <ele>789</ele>
        <time>2025-06-08T09:32:37.877Z</time>
      </trkpt>
      <trkpt lat="45.39657" lon="2.48069">
        <ele>789</ele>
        <time>2025-06-08T09:32:38.877Z</time>
      </trkpt>
      <trkpt lat="45.39658" lon="2.48073">
        <ele>788</ele>
        <time>2025-06-08T09:32:39.877Z</time>
      </trkpt>
      <trkpt lat="45.39658" lon="2.48073">
        <ele>788</ele>
        <time>2025-06-08T09:32:40.877Z</time>
      </trkpt>
      <trkpt lat="45.39658" lon="2.48077">
        <ele>788</ele>
        <time>2025-06-08T09:32:41.877Z</time>
      </trkpt>
      <trkpt lat="45.39658" lon="2.48077">
        <ele>788</ele>
        <time>2025-06-08T09:32:42.877Z</time>
      </trkpt>
      <trkpt lat="45.39659" lon="2.48081">
        <ele>788</ele>
        <time>2025-06-08T09:32:43.877Z</time>
      </trkpt>
      <trkpt lat="45.39659" lon="2.48084">
        <ele>788</ele>
        <time>2025-06-08T09:32:44.877Z</time>
      </trkpt>
      <trkpt lat="45.39659" lon="2.48084">
        <ele>788</ele>
        <time>2025-06-08T09:32:45.877Z</time>
      </trkpt>
      <trkpt lat="45.39658" lon="2.48088">
        <ele>788</ele>
        <time>2025-06-08T09:32:46.877Z</time>
      </trkpt>
      <trkpt lat="45.39658" lon="2.48088">
        <ele>788</ele>
        <time>2025-06-08T09:32:47.877Z</time>
      </trkpt>
      <trkpt lat="45.39657" lon="2.48091">
        <ele>788</ele>
        <time>2025-06-08T09:32:48.877Z</time>
      </trkpt>
      <trkpt lat="45.39656" lon="2.48092">
        <ele>788</ele>
        <time>2025-06-08T09:32:49.877Z</time>
      </trkpt>
      <trkpt lat="45.39655" lon="2.48092">
        <ele>787</ele>
        <time>2025-06-08T09:32:50.877Z</time>
      </trkpt>
      <trkpt lat="45.39655" lon="2.48093">
        <ele>787</ele>
        <time>2025-06-08T09:32:51.877Z</time>
      </trkpt>
      <trkpt lat="45.39655" lon="2.48095">
        <ele>787</ele>
        <time>2025-06-08T09:32:52.877Z</time>
      </trkpt>
      <trkpt lat="45.39653" lon="2.48098">
        <ele>787</ele>
        <time>2025-06-08T09:32:53.877Z</time>
      </trkpt>
      <trkpt lat="45.39653" lon="2.48098">
        <ele>787</ele>
        <time>2025-06-08T09:32:54.877Z</time>
      </trkpt>
      <trkpt lat="45.39653" lon="2.48099">
        <ele>787</ele>
        <time>2025-06-08T09:32:55.877Z</time>
      </trkpt>
      <trkpt lat="45.39653" lon="2.48102">
        <ele>787</ele>
        <time>2025-06-08T09:32:56.877Z</time>
      </trkpt>
      <trkpt lat="45.39652" lon="2.48104">
        <ele>787</ele>
        <time>2025-06-08T09:32:57.877Z</time>
      </trkpt>
      <trkpt lat="45.39652" lon="2.48104">
        <ele>787</ele>
        <time>2025-06-08T09:32:58.877Z</time>
      </trkpt>
      <trkpt lat="45.39648" lon="2.48105">
        <ele>787</ele>
        <time>2025-06-08T09:32:59.877Z</time>
      </trkpt>
      <trkpt lat="45.39648" lon="2.48105">
        <ele>787</ele>
        <time>2025-06-08T09:33:00.877Z</time>
      </trkpt>
      <trkpt lat="45.39648" lon="2.48107">
        <ele>788</ele>
        <time>2025-06-08T09:33:01.877Z</time>
      </trkpt>
      <trkpt lat="45.39648" lon="2.48109">
        <ele>789</ele>
        <time>2025-06-08T09:33:02.877Z</time>
      </trkpt>
      <trkpt lat="45.39648" lon="2.48109">
        <ele>789</ele>
        <time>2025-06-08T09:33:03.877Z</time>
      </trkpt>
      <trkpt lat="45.39649" lon="2.48114">
        <ele>789</ele>
        <time>2025-06-08T09:33:04.877Z</time>
      </trkpt>
      <trkpt lat="45.3965" lon="2.48116">
        <ele>789</ele>
        <time>2025-06-08T09:33:05.877Z</time>
      </trkpt>
      <trkpt lat="45.3965" lon="2.48116">
        <ele>789</ele>
        <time>2025-06-08T09:33:06.877Z</time>
      </trkpt>
      <trkpt lat="45.3965" lon="2.48118">
        <ele>789</ele>
        <time>2025-06-08T09:33:07.877Z</time>
      </trkpt>
      <trkpt lat="45.39651" lon="2.48121">
        <ele>790</ele>
        <time>2025-06-08T09:33:08.877Z</time>
      </trkpt>
      <trkpt lat="45.39651" lon="2.48123">
        <ele>790</ele>
        <time>2025-06-08T09:33:09.877Z</time>
      </trkpt>
      <trkpt lat="45.39651" lon="2.48125">
        <ele>790</ele>
        <time>2025-06-08T09:33:10.877Z</time>
      </trkpt>
      <trkpt lat="45.39652" lon="2.48128">
        <ele>790</ele>
        <time>2025-06-08T09:33:11.877Z</time>
      </trkpt>
      <trkpt lat="45.39652" lon="2.48128">
        <ele>790</ele>
        <time>2025-06-08T09:33:12.877Z</time>
      </trkpt>
      <trkpt lat="45.39652" lon="2.48131">
        <ele>790</ele>
        <time>2025-06-08T09:33:13.877Z</time>
      </trkpt>
      <trkpt lat="45.39652" lon="2.48131">
        <ele>790</ele>
        <time>2025-06-08T09:33:14.877Z</time>
      </trkpt>
      <trkpt lat="45.39653" lon="2.48132">
        <ele>790</ele>
        <time>2025-06-08T09:33:15.877Z</time>
      </trkpt>
      <trkpt lat="45.39652" lon="2.48135">
        <ele>789</ele>
        <time>2025-06-08T09:33:16.877Z</time>
      </trkpt>
      <trkpt lat="45.39652" lon="2.48135">
        <ele>789</ele>
        <time>2025-06-08T09:33:17.877Z</time>
      </trkpt>
      <trkpt lat="45.39652" lon="2.48136">
        <ele>790</ele>
        <time>2025-06-08T09:33:18.877Z</time>
      </trkpt>
      <trkpt lat="45.39652" lon="2.48138">
        <ele>791</ele>
        <time>2025-06-08T09:33:19.877Z</time>
      </trkpt>
      <trkpt lat="45.39651" lon="2.48139">
        <ele>791</ele>
        <time>2025-06-08T09:33:20.877Z</time>
      </trkpt>
      <trkpt lat="45.39651" lon="2.48139">
        <ele>791</ele>
        <time>2025-06-08T09:33:21.877Z</time>
      </trkpt>
      <trkpt lat="45.3965" lon="2.48141">
        <ele>792</ele>
        <time>2025-06-08T09:33:22.877Z</time>
      </trkpt>
      <trkpt lat="45.39651" lon="2.48145">
        <ele>792</ele>
        <time>2025-06-08T09:33:23.877Z</time>
      </trkpt>
      <trkpt lat="45.39651" lon="2.48145">
        <ele>792</ele>
        <time>2025-06-08T09:33:24.878Z</time>
      </trkpt>
      <trkpt lat="45.39651" lon="2.48148">
        <ele>792</ele>
        <time>2025-06-08T09:33:25.877Z</time>
      </trkpt>
      <trkpt lat="45.39651" lon="2.48153">
        <ele>792</ele>
        <time>2025-06-08T09:33:26.877Z</time>
      </trkpt>
      <trkpt lat="45.39651" lon="2.48153">
        <ele>792</ele>
        <time>2025-06-08T09:33:27.877Z</time>
      </trkpt>
      <trkpt lat="45.39653" lon="2.48155">
        <ele>792</ele>
        <time>2025-06-08T09:33:28.877Z</time>
      </trkpt>
      <trkpt lat="45.39653" lon="2.48157">
        <ele>792</ele>
        <time>2025-06-08T09:33:29.877Z</time>
      </trkpt>
      <trkpt lat="45.39654" lon="2.48161">
        <ele>793</ele>
        <time>2025-06-08T09:33:30.877Z</time>
      </trkpt>
      <trkpt lat="45.39654" lon="2.48163">
        <ele>793</ele>
        <time>2025-06-08T09:33:31.877Z</time>
      </trkpt>
      <trkpt lat="45.39654" lon="2.48165">
        <ele>793</ele>
        <time>2025-06-08T09:33:32.877Z</time>
      </trkpt>
      <trkpt lat="45.39654" lon="2.48165">
        <ele>793</ele>
        <time>2025-06-08T09:33:33.877Z</time>
      </trkpt>
      <trkpt lat="45.39653" lon="2.4817">
        <ele>794</ele>
        <time>2025-06-08T09:33:34.877Z</time>
      </trkpt>
      <trkpt lat="45.39653" lon="2.48173">
        <ele>794</ele>
        <time>2025-06-08T09:33:35.877Z</time>
      </trkpt>
      <trkpt lat="45.39653" lon="2.48173">
        <ele>794</ele>
        <time>2025-06-08T09:33:36.877Z</time>
      </trkpt>
      <trkpt lat="45.39654" lon="2.48178">
        <ele>793</ele>
        <time>2025-06-08T09:33:37.877Z</time>
      </trkpt>
      <trkpt lat="45.39653" lon="2.48181">
        <ele>793</ele>
        <time>2025-06-08T09:33:38.877Z</time>
      </trkpt>
      <trkpt lat="45.39653" lon="2.48181">
        <ele>793</ele>
        <time>2025-06-08T09:33:39.877Z</time>
      </trkpt>
      <trkpt lat="45.39654" lon="2.48182">
        <ele>793</ele>
        <time>2025-06-08T09:33:40.877Z</time>
      </trkpt>
      <trkpt lat="45.39654" lon="2.48185">
        <ele>793</ele>
        <time>2025-06-08T09:33:41.877Z</time>
      </trkpt>
      <trkpt lat="45.39654" lon="2.48187">
        <ele>793</ele>
        <time>2025-06-08T09:33:42.877Z</time>
      </trkpt>
      <trkpt lat="45.39653" lon="2.48191">
        <ele>794</ele>
        <time>2025-06-08T09:33:43.877Z</time>
      </trkpt>
      <trkpt lat="45.39653" lon="2.48191">
        <ele>794</ele>
        <time>2025-06-08T09:33:44.877Z</time>
      </trkpt>
      <trkpt lat="45.39653" lon="2.48193">
        <ele>794</ele>
        <time>2025-06-08T09:33:45.877Z</time>
      </trkpt>
      <trkpt lat="45.39653" lon="2.48194">
        <ele>794</ele>
        <time>2025-06-08T09:33:46.877Z</time>
      </trkpt>
      <trkpt lat="45.39652" lon="2.48196">
        <ele>793</ele>
        <time>2025-06-08T09:33:47.877Z</time>
      </trkpt>
      <trkpt lat="45.39652" lon="2.48198">
        <ele>793</ele>
        <time>2025-06-08T09:33:48.877Z</time>
      </trkpt>
      <trkpt lat="45.39651" lon="2.48201">
        <ele>793</ele>
        <time>2025-06-08T09:33:49.877Z</time>
      </trkpt>
      <trkpt lat="45.39649" lon="2.48205">
        <ele>793</ele>
        <time>2025-06-08T09:33:50.877Z</time>
      </trkpt>
      <trkpt lat="45.39649" lon="2.48205">
        <ele>793</ele>
        <time>2025-06-08T09:33:51.877Z</time>
      </trkpt>
      <trkpt lat="45.39648" lon="2.48207">
        <ele>792</ele>
        <time>2025-06-08T09:33:52.877Z</time>
      </trkpt>
      <trkpt lat="45.39648" lon="2.48209">
        <ele>792</ele>
        <time>2025-06-08T09:33:53.877Z</time>
      </trkpt>
      <trkpt lat="45.39648" lon="2.48211">
        <ele>792</ele>
        <time>2025-06-08T09:33:54.877Z</time>
      </trkpt>
      <trkpt lat="45.39648" lon="2.48212">
        <ele>791</ele>
        <time>2025-06-08T09:33:55.877Z</time>
      </trkpt>
      <trkpt lat="45.39648" lon="2.48215">
        <ele>791</ele>
        <time>2025-06-08T09:33:56.877Z</time>
      </trkpt>
      <trkpt lat="45.39648" lon="2.48215">
        <ele>791</ele>
        <time>2025-06-08T09:33:57.877Z</time>
      </trkpt>
      <trkpt lat="45.39648" lon="2.48218">
        <ele>791</ele>
        <time>2025-06-08T09:33:58.877Z</time>
      </trkpt>
      <trkpt lat="45.39647" lon="2.48219">
        <ele>791</ele>
        <time>2025-06-08T09:33:59.877Z</time>
      </trkpt>
      <trkpt lat="45.39647" lon="2.48219">
        <ele>791</ele>
        <time>2025-06-08T09:34:00.877Z</time>
      </trkpt>
      <trkpt lat="45.39648" lon="2.48224">
        <ele>792</ele>
        <time>2025-06-08T09:34:01.877Z</time>
      </trkpt>
      <trkpt lat="45.39647" lon="2.48228">
        <ele>792</ele>
        <time>2025-06-08T09:34:02.877Z</time>
      </trkpt>
      <trkpt lat="45.39645" lon="2.48229">
        <ele>793</ele>
        <time>2025-06-08T09:34:03.877Z</time>
      </trkpt>
      <trkpt lat="45.39644" lon="2.48232">
        <ele>793</ele>
        <time>2025-06-08T09:34:04.877Z</time>
      </trkpt>
      <trkpt lat="45.39643" lon="2.48233">
        <ele>792</ele>
        <time>2025-06-08T09:34:05.877Z</time>
      </trkpt>
      <trkpt lat="45.39643" lon="2.48233">
        <ele>792</ele>
        <time>2025-06-08T09:34:06.877Z</time>
      </trkpt>
      <trkpt lat="45.39642" lon="2.48235">
        <ele>793</ele>
        <time>2025-06-08T09:34:07.877Z</time>
      </trkpt>
      <trkpt lat="45.39641" lon="2.48236">
        <ele>793</ele>
        <time>2025-06-08T09:34:08.877Z</time>
      </trkpt>
      <trkpt lat="45.39641" lon="2.48236">
        <ele>793</ele>
        <time>2025-06-08T09:34:09.877Z</time>
      </trkpt>
      <trkpt lat="45.39641" lon="2.4824">
        <ele>794</ele>
        <time>2025-06-08T09:34:10.877Z</time>
      </trkpt>
      <trkpt lat="45.39641" lon="2.4824">
        <ele>794</ele>
        <time>2025-06-08T09:34:11.877Z</time>
      </trkpt>
      <trkpt lat="45.3964" lon="2.48241">
        <ele>795</ele>
        <time>2025-06-08T09:34:12.877Z</time>
      </trkpt>
      <trkpt lat="45.3964" lon="2.48241">
        <ele>796</ele>
        <time>2025-06-08T09:34:13.877Z</time>
      </trkpt>
      <trkpt lat="45.39638" lon="2.48243">
        <ele>796</ele>
        <time>2025-06-08T09:34:14.877Z</time>
      </trkpt>
      <trkpt lat="45.39637" lon="2.48244">
        <ele>797</ele>
        <time>2025-06-08T09:34:15.877Z</time>
      </trkpt>
      <trkpt lat="45.39637" lon="2.48245">
        <ele>797</ele>
        <time>2025-06-08T09:34:16.877Z</time>
      </trkpt>
      <trkpt lat="45.39637" lon="2.48247">
        <ele>798</ele>
        <time>2025-06-08T09:34:17.877Z</time>
      </trkpt>
      <trkpt lat="45.39637" lon="2.48248">
        <ele>798</ele>
        <time>2025-06-08T09:34:18.877Z</time>
      </trkpt>
      <trkpt lat="45.39636" lon="2.48248">
        <ele>798</ele>
        <time>2025-06-08T09:34:19.877Z</time>
      </trkpt>
      <trkpt lat="45.39635" lon="2.48251">
        <ele>797</ele>
        <time>2025-06-08T09:34:20.877Z</time>
      </trkpt>
      <trkpt lat="45.39635" lon="2.48251">
        <ele>797</ele>
        <time>2025-06-08T09:34:21.877Z</time>
      </trkpt>
      <trkpt lat="45.39633" lon="2.48254">
        <ele>796</ele>
        <time>2025-06-08T09:34:22.877Z</time>
      </trkpt>
      <trkpt lat="45.39631" lon="2.48258">
        <ele>797</ele>
        <time>2025-06-08T09:34:23.877Z</time>
      </trkpt>
      <trkpt lat="45.39631" lon="2.48258">
        <ele>797</ele>
        <time>2025-06-08T09:34:24.877Z</time>
      </trkpt>
      <trkpt lat="45.3963" lon="2.48259">
        <ele>797</ele>
        <time>2025-06-08T09:34:25.877Z</time>
      </trkpt>
      <trkpt lat="45.3963" lon="2.48259">
        <ele>797</ele>
        <time>2025-06-08T09:34:26.877Z</time>
      </trkpt>
      <trkpt lat="45.39629" lon="2.4826">
        <ele>797</ele>
        <time>2025-06-08T09:34:27.877Z</time>
      </trkpt>
      <trkpt lat="45.39628" lon="2.48261">
        <ele>797</ele>
        <time>2025-06-08T09:34:28.877Z</time>
      </trkpt>
      <trkpt lat="45.39628" lon="2.48262">
        <ele>797</ele>
        <time>2025-06-08T09:34:29.877Z</time>
      </trkpt>
      <trkpt lat="45.39628" lon="2.48262">
        <ele>797</ele>
        <time>2025-06-08T09:34:30.877Z</time>
      </trkpt>
      <trkpt lat="45.39627" lon="2.48262">
        <ele>797</ele>
        <time>2025-06-08T09:34:31.877Z</time>
      </trkpt>
      <trkpt lat="45.39627" lon="2.48263">
        <ele>797</ele>
        <time>2025-06-08T09:34:32.877Z</time>
      </trkpt>
      <trkpt lat="45.39627" lon="2.48263">
        <ele>797</ele>
        <time>2025-06-08T09:34:33.877Z</time>
      </trkpt>
      <trkpt lat="45.39627" lon="2.48263">
        <ele>797</ele>
        <time>2025-06-08T09:34:34.877Z</time>
      </trkpt>
      <trkpt lat="45.39627" lon="2.48263">
        <ele>797</ele>
        <time>2025-06-08T09:34:35.877Z</time>
      </trkpt>
      <trkpt lat="45.39627" lon="2.48262">
        <ele>797</ele>
        <time>2025-06-08T09:34:36.877Z</time>
      </trkpt>
      <trkpt lat="45.39627" lon="2.48262">
        <ele>797</ele>
        <time>2025-06-08T09:34:37.877Z</time>
      </trkpt>
      <trkpt lat="45.39627" lon="2.48262">
        <ele>798</ele>
        <time>2025-06-08T09:34:38.877Z</time>
      </trkpt>
      <trkpt lat="45.39627" lon="2.48262">
        <ele>798</ele>
        <time>2025-06-08T09:34:39.877Z</time>
      </trkpt>
      <trkpt lat="45.39627" lon="2.48262">
        <ele>798</ele>
        <time>2025-06-08T09:34:40.877Z</time>
      </trkpt>
      <trkpt lat="45.39627" lon="2.48262">
        <ele>798</ele>
        <time>2025-06-08T09:34:41.877Z</time>
      </trkpt>
      <trkpt lat="45.39627" lon="2.48262">
        <ele>798</ele>
        <time>2025-06-08T09:34:42.877Z</time>
      </trkpt>
      <trkpt lat="45.39627" lon="2.48263">
        <ele>798</ele>
        <time>2025-06-08T09:34:43.877Z</time>
      </trkpt>
      <trkpt lat="45.39627" lon="2.48263">
        <ele>798</ele>
        <time>2025-06-08T09:34:44.877Z</time>
      </trkpt>
      <trkpt lat="45.39626" lon="2.48263">
        <ele>798</ele>
        <time>2025-06-08T09:34:45.877Z</time>
      </trkpt>
      <trkpt lat="45.39626" lon="2.48263">
        <ele>798</ele>
        <time>2025-06-08T09:34:46.877Z</time>
      </trkpt>
      <trkpt lat="45.39626" lon="2.48263">
        <ele>799</ele>
        <time>2025-06-08T09:34:47.877Z</time>
      </trkpt>
      <trkpt lat="45.39626" lon="2.48263">
        <ele>799</ele>
        <time>2025-06-08T09:34:48.877Z</time>
      </trkpt>
      <trkpt lat="45.39626" lon="2.48263">
        <ele>799</ele>
        <time>2025-06-08T09:34:49.877Z</time>
      </trkpt>
      <trkpt lat="45.39626" lon="2.48263">
        <ele>800</ele>
        <time>2025-06-08T09:34:50.877Z</time>
      </trkpt>
      <trkpt lat="45.39626" lon="2.48263">
        <ele>800</ele>
        <time>2025-06-08T09:34:51.877Z</time>
      </trkpt>
      <trkpt lat="45.39626" lon="2.48262">
        <ele>801</ele>
        <time>2025-06-08T09:34:52.877Z</time>
      </trkpt>
      <trkpt lat="45.39626" lon="2.48263">
        <ele>801</ele>
        <time>2025-06-08T09:34:53.877Z</time>
      </trkpt>
      <trkpt lat="45.39626" lon="2.48263">
        <ele>801</ele>
        <time>2025-06-08T09:34:54.877Z</time>
      </trkpt>
      <trkpt lat="45.39626" lon="2.48263">
        <ele>801</ele>
        <time>2025-06-08T09:34:55.877Z</time>
      </trkpt>
      <trkpt lat="45.39626" lon="2.48263">
        <ele>801</ele>
        <time>2025-06-08T09:34:56.877Z</time>
      </trkpt>
      <trkpt lat="45.39626" lon="2.48263">
        <ele>801</ele>
        <time>2025-06-08T09:34:57.877Z</time>
      </trkpt>
      <trkpt lat="45.39626" lon="2.48263">
        <ele>801</ele>
        <time>2025-06-08T09:34:58.877Z</time>
      </trkpt>
      <trkpt lat="45.39626" lon="2.48263">
        <ele>802</ele>
        <time>2025-06-08T09:34:59.877Z</time>
      </trkpt>
      <trkpt lat="45.39626" lon="2.48263">
        <ele>802</ele>
        <time>2025-06-08T09:35:00.877Z</time>
      </trkpt>
      <trkpt lat="45.39626" lon="2.48263">
        <ele>803</ele>
        <time>2025-06-08T09:35:01.877Z</time>
      </trkpt>
      <trkpt lat="45.39626" lon="2.48263">
        <ele>803</ele>
        <time>2025-06-08T09:35:02.877Z</time>
      </trkpt>
      <trkpt lat="45.39626" lon="2.48263">
        <ele>804</ele>
        <time>2025-06-08T09:35:03.877Z</time>
      </trkpt>
      <trkpt lat="45.39626" lon="2.48264">
        <ele>804</ele>
        <time>2025-06-08T09:35:04.877Z</time>
      </trkpt>
      <trkpt lat="45.39626" lon="2.48263">
        <ele>805</ele>
        <time>2025-06-08T09:35:05.877Z</time>
      </trkpt>
      <trkpt lat="45.39626" lon="2.48263">
        <ele>805</ele>
        <time>2025-06-08T09:35:06.877Z</time>
      </trkpt>
      <trkpt lat="45.39626" lon="2.48263">
        <ele>806</ele>
        <time>2025-06-08T09:35:07.877Z</time>
      </trkpt>
      <trkpt lat="45.39626" lon="2.48263">
        <ele>806</ele>
        <time>2025-06-08T09:35:08.877Z</time>
      </trkpt>
      <trkpt lat="45.39626" lon="2.48263">
        <ele>806</ele>
        <time>2025-06-08T09:35:09.877Z</time>
      </trkpt>
      <trkpt lat="45.39626" lon="2.48263">
        <ele>807</ele>
        <time>2025-06-08T09:35:10.877Z</time>
      </trkpt>
      <trkpt lat="45.39625" lon="2.48263">
        <ele>808</ele>
        <time>2025-06-08T09:35:11.877Z</time>
      </trkpt>
      <trkpt lat="45.39625" lon="2.48263">
        <ele>808</ele>
        <time>2025-06-08T09:35:12.877Z</time>
      </trkpt>
      <trkpt lat="45.39624" lon="2.48262">
        <ele>809</ele>
        <time>2025-06-08T09:35:13.877Z</time>
      </trkpt>
      <trkpt lat="45.39625" lon="2.48261">
        <ele>809</ele>
        <time>2025-06-08T09:35:14.877Z</time>
      </trkpt>
      <trkpt lat="45.39625" lon="2.48261">
        <ele>809</ele>
        <time>2025-06-08T09:35:15.877Z</time>
      </trkpt>
      <trkpt lat="45.39625" lon="2.48261">
        <ele>810</ele>
        <time>2025-06-08T09:35:16.877Z</time>
      </trkpt>
      <trkpt lat="45.39625" lon="2.48261">
        <ele>810</ele>
        <time>2025-06-08T09:35:17.877Z</time>
      </trkpt>
      <trkpt lat="45.39625" lon="2.48261">
        <ele>811</ele>
        <time>2025-06-08T09:35:18.877Z</time>
      </trkpt>
      <trkpt lat="45.39625" lon="2.48262">
        <ele>812</ele>
        <time>2025-06-08T09:35:19.877Z</time>
      </trkpt>
      <trkpt lat="45.39625" lon="2.48262">
        <ele>812</ele>
        <time>2025-06-08T09:35:20.877Z</time>
      </trkpt>
      <trkpt lat="45.39625" lon="2.48262">
        <ele>812</ele>
        <time>2025-06-08T09:35:21.877Z</time>
      </trkpt>
      <trkpt lat="45.39625" lon="2.48262">
        <ele>812</ele>
        <time>2025-06-08T09:35:22.877Z</time>
      </trkpt>
      <trkpt lat="45.39624" lon="2.48262">
        <ele>813</ele>
        <time>2025-06-08T09:35:23.877Z</time>
      </trkpt>
      <trkpt lat="45.39624" lon="2.48262">
        <ele>813</ele>
        <time>2025-06-08T09:35:24.877Z</time>
      </trkpt>
      <trkpt lat="45.39624" lon="2.48262">
        <ele>813</ele>
        <time>2025-06-08T09:35:25.877Z</time>
      </trkpt>
      <trkpt lat="45.39624" lon="2.48262">
        <ele>813</ele>
        <time>2025-06-08T09:35:26.877Z</time>
      </trkpt>
      <trkpt lat="45.39624" lon="2.48262">
        <ele>813</ele>
        <time>2025-06-08T09:35:27.877Z</time>
      </trkpt>
      <trkpt lat="45.39623" lon="2.48262">
        <ele>814</ele>
        <time>2025-06-08T09:35:28.877Z</time>
      </trkpt>
      <trkpt lat="45.39623" lon="2.48262">
        <ele>814</ele>
        <time>2025-06-08T09:35:29.877Z</time>
      </trkpt>
      <trkpt lat="45.39624" lon="2.48262">
        <ele>814</ele>
        <time>2025-06-08T09:35:30.877Z</time>
      </trkpt>
      <trkpt lat="45.39624" lon="2.48262">
        <ele>813</ele>
        <time>2025-06-08T09:35:31.877Z</time>
      </trkpt>
      <trkpt lat="45.39624" lon="2.48262">
        <ele>813</ele>
        <time>2025-06-08T09:35:32.877Z</time>
      </trkpt>
      <trkpt lat="45.39624" lon="2.48262">
        <ele>813</ele>
        <time>2025-06-08T09:35:33.877Z</time>
      </trkpt>
      <trkpt lat="45.39624" lon="2.48262">
        <ele>812</ele>
        <time>2025-06-08T09:35:34.877Z</time>
      </trkpt>
      <trkpt lat="45.39624" lon="2.48262">
        <ele>812</ele>
        <time>2025-06-08T09:35:35.877Z</time>
      </trkpt>
      <trkpt lat="45.39624" lon="2.48262">
        <ele>812</ele>
        <time>2025-06-08T09:35:36.877Z</time>
      </trkpt>
      <trkpt lat="45.39624" lon="2.48262">
        <ele>812</ele>
        <time>2025-06-08T09:35:37.877Z</time>
      </trkpt>
      <trkpt lat="45.39625" lon="2.48262">
        <ele>813</ele>
        <time>2025-06-08T09:35:38.877Z</time>
      </trkpt>
      <trkpt lat="45.39625" lon="2.48262">
        <ele>813</ele>
        <time>2025-06-08T09:35:39.877Z</time>
      </trkpt>
      <trkpt lat="45.39625" lon="2.48262">
        <ele>813</ele>
        <time>2025-06-08T09:35:40.877Z</time>
      </trkpt>
      <trkpt lat="45.39625" lon="2.48262">
        <ele>813</ele>
        <time>2025-06-08T09:35:41.877Z</time>
      </trkpt>
      <trkpt lat="45.39625" lon="2.48262">
        <ele>813</ele>
        <time>2025-06-08T09:35:42.877Z</time>
      </trkpt>
      <trkpt lat="45.39624" lon="2.48262">
        <ele>813</ele>
        <time>2025-06-08T09:35:43.877Z</time>
      </trkpt>
      <trkpt lat="45.39624" lon="2.48263">
        <ele>813</ele>
        <time>2025-06-08T09:35:44.877Z</time>
      </trkpt>
      <trkpt lat="45.39624" lon="2.48263">
        <ele>813</ele>
        <time>2025-06-08T09:35:45.877Z</time>
      </trkpt>
      <trkpt lat="45.39624" lon="2.48263">
        <ele>813</ele>
        <time>2025-06-08T09:35:46.877Z</time>
      </trkpt>
      <trkpt lat="45.39625" lon="2.48263">
        <ele>812</ele>
        <time>2025-06-08T09:35:47.877Z</time>
      </trkpt>
      <trkpt lat="45.39625" lon="2.48262">
        <ele>812</ele>
        <time>2025-06-08T09:35:48.877Z</time>
      </trkpt>
      <trkpt lat="45.39625" lon="2.48262">
        <ele>811</ele>
        <time>2025-06-08T09:35:49.877Z</time>
      </trkpt>
      <trkpt lat="45.39624" lon="2.48262">
        <ele>811</ele>
        <time>2025-06-08T09:35:50.877Z</time>
      </trkpt>
      <trkpt lat="45.39624" lon="2.48262">
        <ele>812</ele>
        <time>2025-06-08T09:35:51.877Z</time>
      </trkpt>
      <trkpt lat="45.39624" lon="2.48262">
        <ele>812</ele>
        <time>2025-06-08T09:35:52.877Z</time>
      </trkpt>
      <trkpt lat="45.39624" lon="2.48262">
        <ele>812</ele>
        <time>2025-06-08T09:35:53.877Z</time>
      </trkpt>
      <trkpt lat="45.39624" lon="2.48263">
        <ele>813</ele>
        <time>2025-06-08T09:35:54.877Z</time>
      </trkpt>
      <trkpt lat="45.39625" lon="2.48263">
        <ele>813</ele>
        <time>2025-06-08T09:35:55.877Z</time>
      </trkpt>
      <trkpt lat="45.39625" lon="2.48263">
        <ele>812</ele>
        <time>2025-06-08T09:35:56.877Z</time>
      </trkpt>
      <trkpt lat="45.39625" lon="2.48263">
        <ele>812</ele>
        <time>2025-06-08T09:35:57.877Z</time>
      </trkpt>
      <trkpt lat="45.39625" lon="2.48264">
        <ele>811</ele>
        <time>2025-06-08T09:35:58.877Z</time>
      </trkpt>
      <trkpt lat="45.39626" lon="2.48264">
        <ele>811</ele>
        <time>2025-06-08T09:35:59.877Z</time>
      </trkpt>
      <trkpt lat="45.39625" lon="2.48263">
        <ele>811</ele>
        <time>2025-06-08T09:36:00.877Z</time>
      </trkpt>
      <trkpt lat="45.39625" lon="2.48263">
        <ele>810</ele>
        <time>2025-06-08T09:36:01.877Z</time>
      </trkpt>
      <trkpt lat="45.39625" lon="2.48263">
        <ele>810</ele>
        <time>2025-06-08T09:36:02.877Z</time>
      </trkpt>
      <trkpt lat="45.39626" lon="2.48263">
        <ele>810</ele>
        <time>2025-06-08T09:36:03.877Z</time>
      </trkpt>
      <trkpt lat="45.39626" lon="2.48263">
        <ele>810</ele>
        <time>2025-06-08T09:36:04.877Z</time>
      </trkpt>
      <trkpt lat="45.39626" lon="2.48262">
        <ele>810</ele>
        <time>2025-06-08T09:36:05.877Z</time>
      </trkpt>
      <trkpt lat="45.39626" lon="2.48262">
        <ele>810</ele>
        <time>2025-06-08T09:36:06.877Z</time>
      </trkpt>
      <trkpt lat="45.39626" lon="2.48262">
        <ele>810</ele>
        <time>2025-06-08T09:36:07.877Z</time>
      </trkpt>
      <trkpt lat="45.39626" lon="2.48262">
        <ele>810</ele>
        <time>2025-06-08T09:36:08.877Z</time>
      </trkpt>
      <trkpt lat="45.39626" lon="2.48262">
        <ele>810</ele>
        <time>2025-06-08T09:36:09.877Z</time>
      </trkpt>
      <trkpt lat="45.39626" lon="2.48261">
        <ele>810</ele>
        <time>2025-06-08T09:36:10.877Z</time>
      </trkpt>
      <trkpt lat="45.39626" lon="2.48261">
        <ele>810</ele>
        <time>2025-06-08T09:36:11.877Z</time>
      </trkpt>
      <trkpt lat="45.39626" lon="2.48261">
        <ele>810</ele>
        <time>2025-06-08T09:36:12.877Z</time>
      </trkpt>
      <trkpt lat="45.39626" lon="2.48261">
        <ele>810</ele>
        <time>2025-06-08T09:36:13.877Z</time>
      </trkpt>
      <trkpt lat="45.39626" lon="2.48261">
        <ele>811</ele>
        <time>2025-06-08T09:36:14.877Z</time>
      </trkpt>
      <trkpt lat="45.39626" lon="2.48261">
        <ele>811</ele>
        <time>2025-06-08T09:36:15.877Z</time>
      </trkpt>
      <trkpt lat="45.39626" lon="2.48261">
        <ele>811</ele>
        <time>2025-06-08T09:36:16.877Z</time>
      </trkpt>
      <trkpt lat="45.39626" lon="2.48261">
        <ele>812</ele>
        <time>2025-06-08T09:36:17.877Z</time>
      </trkpt>
      <trkpt lat="45.39626" lon="2.48261">
        <ele>812</ele>
        <time>2025-06-08T09:36:18.877Z</time>
      </trkpt>
      <trkpt lat="45.39626" lon="2.48261">
        <ele>813</ele>
        <time>2025-06-08T09:36:19.877Z</time>
      </trkpt>
      <trkpt lat="45.39626" lon="2.48261">
        <ele>813</ele>
        <time>2025-06-08T09:36:20.877Z</time>
      </trkpt>
      <trkpt lat="45.39626" lon="2.48262">
        <ele>813</ele>
        <time>2025-06-08T09:36:21.877Z</time>
      </trkpt>
      <trkpt lat="45.39626" lon="2.48262">
        <ele>813</ele>
        <time>2025-06-08T09:36:22.877Z</time>
      </trkpt>
      <trkpt lat="45.39626" lon="2.48262">
        <ele>813</ele>
        <time>2025-06-08T09:36:23.878Z</time>
      </trkpt>
      <trkpt lat="45.39626" lon="2.48262">
        <ele>814</ele>
        <time>2025-06-08T09:36:24.877Z</time>
      </trkpt>
      <trkpt lat="45.39625" lon="2.48262">
        <ele>814</ele>
        <time>2025-06-08T09:36:25.877Z</time>
      </trkpt>
      <trkpt lat="45.39625" lon="2.48262">
        <ele>815</ele>
        <time>2025-06-08T09:36:26.877Z</time>
      </trkpt>
      <trkpt lat="45.39625" lon="2.48262">
        <ele>815</ele>
        <time>2025-06-08T09:36:27.877Z</time>
      </trkpt>
      <trkpt lat="45.39625" lon="2.48263">
        <ele>816</ele>
        <time>2025-06-08T09:36:28.877Z</time>
      </trkpt>
      <trkpt lat="45.39625" lon="2.48263">
        <ele>817</ele>
        <time>2025-06-08T09:36:29.877Z</time>
      </trkpt>
      <trkpt lat="45.39625" lon="2.48263">
        <ele>817</ele>
        <time>2025-06-08T09:36:30.877Z</time>
      </trkpt>
      <trkpt lat="45.39625" lon="2.48263">
        <ele>818</ele>
        <time>2025-06-08T09:36:31.877Z</time>
      </trkpt>
      <trkpt lat="45.39625" lon="2.48263">
        <ele>818</ele>
        <time>2025-06-08T09:36:32.877Z</time>
      </trkpt>
      <trkpt lat="45.39625" lon="2.48263">
        <ele>818</ele>
        <time>2025-06-08T09:36:33.877Z</time>
      </trkpt>
      <trkpt lat="45.39625" lon="2.48263">
        <ele>818</ele>
        <time>2025-06-08T09:36:34.877Z</time>
      </trkpt>
      <trkpt lat="45.39625" lon="2.48263">
        <ele>818</ele>
        <time>2025-06-08T09:36:35.877Z</time>
      </trkpt>
      <trkpt lat="45.39625" lon="2.48263">
        <ele>818</ele>
        <time>2025-06-08T09:36:36.877Z</time>
      </trkpt>
      <trkpt lat="45.39625" lon="2.48263">
        <ele>818</ele>
        <time>2025-06-08T09:36:37.877Z</time>
      </trkpt>
      <trkpt lat="45.39625" lon="2.48263">
        <ele>818</ele>
        <time>2025-06-08T09:36:38.877Z</time>
      </trkpt>
      <trkpt lat="45.39625" lon="2.48263">
        <ele>818</ele>
        <time>2025-06-08T09:36:39.877Z</time>
      </trkpt>
      <trkpt lat="45.39625" lon="2.48263">
        <ele>817</ele>
        <time>2025-06-08T09:36:40.877Z</time>
      </trkpt>
      <trkpt lat="45.39624" lon="2.48263">
        <ele>817</ele>
        <time>2025-06-08T09:36:41.877Z</time>
      </trkpt>
      <trkpt lat="45.39624" lon="2.48263">
        <ele>817</ele>
        <time>2025-06-08T09:36:42.877Z</time>
      </trkpt>
      <trkpt lat="45.39624" lon="2.48263">
        <ele>817</ele>
        <time>2025-06-08T09:36:43.877Z</time>
      </trkpt>
      <trkpt lat="45.39624" lon="2.48262">
        <ele>817</ele>
        <time>2025-06-08T09:36:44.877Z</time>
      </trkpt>
      <trkpt lat="45.39624" lon="2.48262">
        <ele>817</ele>
        <time>2025-06-08T09:36:45.877Z</time>
      </trkpt>
      <trkpt lat="45.39625" lon="2.48262">
        <ele>817</ele>
        <time>2025-06-08T09:36:46.877Z</time>
      </trkpt>
      <trkpt lat="45.39625" lon="2.48262">
        <ele>817</ele>
        <time>2025-06-08T09:36:47.877Z</time>
      </trkpt>
      <trkpt lat="45.39624" lon="2.48262">
        <ele>817</ele>
        <time>2025-06-08T09:36:48.877Z</time>
      </trkpt>
      <trkpt lat="45.39623" lon="2.48262">
        <ele>817</ele>
        <time>2025-06-08T09:36:49.877Z</time>
      </trkpt>
      <trkpt lat="45.39623" lon="2.48262">
        <ele>816</ele>
        <time>2025-06-08T09:36:50.877Z</time>
      </trkpt>
      <trkpt lat="45.39622" lon="2.48262">
        <ele>816</ele>
        <time>2025-06-08T09:36:51.877Z</time>
      </trkpt>
      <trkpt lat="45.39622" lon="2.4826">
        <ele>815</ele>
        <time>2025-06-08T09:36:52.877Z</time>
      </trkpt>
      <trkpt lat="45.39621" lon="2.48259">
        <ele>814</ele>
        <time>2025-06-08T09:36:53.877Z</time>
      </trkpt>
      <trkpt lat="45.39621" lon="2.48259">
        <ele>814</ele>
        <time>2025-06-08T09:36:54.877Z</time>
      </trkpt>
      <trkpt lat="45.39621" lon="2.48259">
        <ele>813</ele>
        <time>2025-06-08T09:36:55.877Z</time>
      </trkpt>
      <trkpt lat="45.39621" lon="2.48258">
        <ele>812</ele>
        <time>2025-06-08T09:36:56.877Z</time>
      </trkpt>
      <trkpt lat="45.39621" lon="2.48258">
        <ele>812</ele>
        <time>2025-06-08T09:36:57.877Z</time>
      </trkpt>
      <trkpt lat="45.39621" lon="2.48258">
        <ele>811</ele>
        <time>2025-06-08T09:36:58.877Z</time>
      </trkpt>
      <trkpt lat="45.39621" lon="2.48258">
        <ele>810</ele>
        <time>2025-06-08T09:36:59.877Z</time>
      </trkpt>
      <trkpt lat="45.39621" lon="2.48257">
        <ele>809</ele>
        <time>2025-06-08T09:37:00.877Z</time>
      </trkpt>
      <trkpt lat="45.39621" lon="2.48257">
        <ele>808</ele>
        <time>2025-06-08T09:37:01.877Z</time>
      </trkpt>
      <trkpt lat="45.39621" lon="2.48257">
        <ele>808</ele>
        <time>2025-06-08T09:37:02.877Z</time>
      </trkpt>
      <trkpt lat="45.39621" lon="2.48257">
        <ele>807</ele>
        <time>2025-06-08T09:37:03.877Z</time>
      </trkpt>
      <trkpt lat="45.39621" lon="2.48258">
        <ele>806</ele>
        <time>2025-06-08T09:37:04.877Z</time>
      </trkpt>
      <trkpt lat="45.39621" lon="2.48258">
        <ele>805</ele>
        <time>2025-06-08T09:37:05.877Z</time>
      </trkpt>
      <trkpt lat="45.39621" lon="2.48258">
        <ele>805</ele>
        <time>2025-06-08T09:37:06.877Z</time>
      </trkpt>
      <trkpt lat="45.39621" lon="2.48257">
        <ele>804</ele>
        <time>2025-06-08T09:37:07.877Z</time>
      </trkpt>
      <trkpt lat="45.39621" lon="2.48257">
        <ele>803</ele>
        <time>2025-06-08T09:37:08.877Z</time>
      </trkpt>
      <trkpt lat="45.39622" lon="2.48255">
        <ele>803</ele>
        <time>2025-06-08T09:37:09.877Z</time>
      </trkpt>
      <trkpt lat="45.39622" lon="2.48255">
        <ele>803</ele>
        <time>2025-06-08T09:37:10.877Z</time>
      </trkpt>
      <trkpt lat="45.39622" lon="2.48255">
        <ele>803</ele>
        <time>2025-06-08T09:37:11.877Z</time>
      </trkpt>
      <trkpt lat="45.39622" lon="2.48255">
        <ele>803</ele>
        <time>2025-06-08T09:37:12.877Z</time>
      </trkpt>
      <trkpt lat="45.39622" lon="2.48255">
        <ele>804</ele>
        <time>2025-06-08T09:37:13.877Z</time>
      </trkpt>
      <trkpt lat="45.39621" lon="2.48255">
        <ele>804</ele>
        <time>2025-06-08T09:37:14.877Z</time>
      </trkpt>
      <trkpt lat="45.39621" lon="2.48255">
        <ele>804</ele>
        <time>2025-06-08T09:37:15.877Z</time>
      </trkpt>
      <trkpt lat="45.39621" lon="2.48255">
        <ele>805</ele>
        <time>2025-06-08T09:37:16.877Z</time>
      </trkpt>
      <trkpt lat="45.39621" lon="2.48255">
        <ele>805</ele>
        <time>2025-06-08T09:37:17.877Z</time>
      </trkpt>
      <trkpt lat="45.39621" lon="2.48255">
        <ele>805</ele>
        <time>2025-06-08T09:37:18.877Z</time>
      </trkpt>
      <trkpt lat="45.39621" lon="2.48255">
        <ele>805</ele>
        <time>2025-06-08T09:37:19.877Z</time>
      </trkpt>
      <trkpt lat="45.39621" lon="2.48255">
        <ele>805</ele>
        <time>2025-06-08T09:37:20.877Z</time>
      </trkpt>
      <trkpt lat="45.39621" lon="2.48254">
        <ele>804</ele>
        <time>2025-06-08T09:37:21.877Z</time>
      </trkpt>
      <trkpt lat="45.39621" lon="2.48254">
        <ele>804</ele>
        <time>2025-06-08T09:37:22.877Z</time>
      </trkpt>
      <trkpt lat="45.39622" lon="2.48254">
        <ele>804</ele>
        <time>2025-06-08T09:37:23.877Z</time>
      </trkpt>
      <trkpt lat="45.39622" lon="2.48254">
        <ele>803</ele>
        <time>2025-06-08T09:37:24.877Z</time>
      </trkpt>
      <trkpt lat="45.39622" lon="2.48255">
        <ele>803</ele>
        <time>2025-06-08T09:37:25.877Z</time>
      </trkpt>
      <trkpt lat="45.39621" lon="2.48255">
        <ele>803</ele>
        <time>2025-06-08T09:37:26.877Z</time>
      </trkpt>
      <trkpt lat="45.39621" lon="2.48255">
        <ele>803</ele>
        <time>2025-06-08T09:37:27.877Z</time>
      </trkpt>
      <trkpt lat="45.39621" lon="2.48255">
        <ele>803</ele>
        <time>2025-06-08T09:37:28.877Z</time>
      </trkpt>
      <trkpt lat="45.39621" lon="2.48255">
        <ele>803</ele>
        <time>2025-06-08T09:37:29.877Z</time>
      </trkpt>
      <trkpt lat="45.39622" lon="2.48255">
        <ele>803</ele>
        <time>2025-06-08T09:37:30.877Z</time>
      </trkpt>
      <trkpt lat="45.39622" lon="2.48256">
        <ele>803</ele>
        <time>2025-06-08T09:37:31.877Z</time>
      </trkpt>
      <trkpt lat="45.39622" lon="2.48256">
        <ele>803</ele>
        <time>2025-06-08T09:37:32.877Z</time>
      </trkpt>
      <trkpt lat="45.39622" lon="2.48257">
        <ele>803</ele>
        <time>2025-06-08T09:37:33.877Z</time>
      </trkpt>
      <trkpt lat="45.39622" lon="2.48256">
        <ele>803</ele>
        <time>2025-06-08T09:37:34.877Z</time>
      </trkpt>
      <trkpt lat="45.39622" lon="2.48257">
        <ele>804</ele>
        <time>2025-06-08T09:37:35.877Z</time>
      </trkpt>
      <trkpt lat="45.39622" lon="2.48257">
        <ele>804</ele>
        <time>2025-06-08T09:37:36.877Z</time>
      </trkpt>
      <trkpt lat="45.39622" lon="2.48257">
        <ele>804</ele>
        <time>2025-06-08T09:37:37.877Z</time>
      </trkpt>
      <trkpt lat="45.39623" lon="2.48257">
        <ele>804</ele>
        <time>2025-06-08T09:37:38.877Z</time>
      </trkpt>
      <trkpt lat="45.39623" lon="2.48257">
        <ele>804</ele>
        <time>2025-06-08T09:37:39.877Z</time>
      </trkpt>
      <trkpt lat="45.39623" lon="2.48257">
        <ele>804</ele>
        <time>2025-06-08T09:37:40.877Z</time>
      </trkpt>
      <trkpt lat="45.39622" lon="2.48256">
        <ele>804</ele>
        <time>2025-06-08T09:37:41.877Z</time>
      </trkpt>
      <trkpt lat="45.39622" lon="2.48257">
        <ele>803</ele>
        <time>2025-06-08T09:37:42.877Z</time>
      </trkpt>
      <trkpt lat="45.39621" lon="2.48259">
        <ele>803</ele>
        <time>2025-06-08T09:37:43.877Z</time>
      </trkpt>
      <trkpt lat="45.39621" lon="2.48259">
        <ele>803</ele>
        <time>2025-06-08T09:37:44.877Z</time>
      </trkpt>
      <trkpt lat="45.39621" lon="2.48258">
        <ele>803</ele>
        <time>2025-06-08T09:37:45.877Z</time>
      </trkpt>
      <trkpt lat="45.39621" lon="2.48258">
        <ele>803</ele>
        <time>2025-06-08T09:37:46.877Z</time>
      </trkpt>
      <trkpt lat="45.39621" lon="2.48257">
        <ele>803</ele>
        <time>2025-06-08T09:37:47.877Z</time>
      </trkpt>
      <trkpt lat="45.39621" lon="2.48257">
        <ele>803</ele>
        <time>2025-06-08T09:37:48.877Z</time>
      </trkpt>
      <trkpt lat="45.39621" lon="2.48256">
        <ele>802</ele>
        <time>2025-06-08T09:37:49.877Z</time>
      </trkpt>
      <trkpt lat="45.39621" lon="2.48256">
        <ele>802</ele>
        <time>2025-06-08T09:37:50.877Z</time>
      </trkpt>
      <trkpt lat="45.39621" lon="2.48256">
        <ele>801</ele>
        <time>2025-06-08T09:37:51.877Z</time>
      </trkpt>
      <trkpt lat="45.39621" lon="2.48256">
        <ele>801</ele>
        <time>2025-06-08T09:37:52.877Z</time>
      </trkpt>
      <trkpt lat="45.39621" lon="2.48257">
        <ele>801</ele>
        <time>2025-06-08T09:37:53.877Z</time>
      </trkpt>
      <trkpt lat="45.39621" lon="2.48256">
        <ele>802</ele>
        <time>2025-06-08T09:37:54.877Z</time>
      </trkpt>
      <trkpt lat="45.39621" lon="2.48256">
        <ele>802</ele>
        <time>2025-06-08T09:37:55.877Z</time>
      </trkpt>
      <trkpt lat="45.3962" lon="2.48256">
        <ele>802</ele>
        <time>2025-06-08T09:37:56.877Z</time>
      </trkpt>
      <trkpt lat="45.3962" lon="2.48256">
        <ele>802</ele>
        <time>2025-06-08T09:37:57.877Z</time>
      </trkpt>
      <trkpt lat="45.3962" lon="2.48256">
        <ele>802</ele>
        <time>2025-06-08T09:37:58.877Z</time>
      </trkpt>
      <trkpt lat="45.3962" lon="2.48256">
        <ele>802</ele>
        <time>2025-06-08T09:37:59.877Z</time>
      </trkpt>
      <trkpt lat="45.39621" lon="2.48256">
        <ele>802</ele>
        <time>2025-06-08T09:38:00.877Z</time>
      </trkpt>
      <trkpt lat="45.39621" lon="2.48256">
        <ele>801</ele>
        <time>2025-06-08T09:38:01.877Z</time>
      </trkpt>
      <trkpt lat="45.3962" lon="2.48257">
        <ele>801</ele>
        <time>2025-06-08T09:38:02.877Z</time>
      </trkpt>
      <trkpt lat="45.3962" lon="2.48257">
        <ele>800</ele>
        <time>2025-06-08T09:38:03.877Z</time>
      </trkpt>
      <trkpt lat="45.39619" lon="2.48256">
        <ele>800</ele>
        <time>2025-06-08T09:38:04.877Z</time>
      </trkpt>
      <trkpt lat="45.39619" lon="2.48257">
        <ele>799</ele>
        <time>2025-06-08T09:38:05.877Z</time>
      </trkpt>
      <trkpt lat="45.39619" lon="2.48257">
        <ele>799</ele>
        <time>2025-06-08T09:38:06.877Z</time>
      </trkpt>
      <trkpt lat="45.39619" lon="2.48257">
        <ele>798</ele>
        <time>2025-06-08T09:38:07.877Z</time>
      </trkpt>
      <trkpt lat="45.39619" lon="2.48258">
        <ele>798</ele>
        <time>2025-06-08T09:38:08.877Z</time>
      </trkpt>
      <trkpt lat="45.3962" lon="2.48259">
        <ele>798</ele>
        <time>2025-06-08T09:38:09.877Z</time>
      </trkpt>
      <trkpt lat="45.3962" lon="2.48259">
        <ele>798</ele>
        <time>2025-06-08T09:38:10.877Z</time>
      </trkpt>
      <trkpt lat="45.3962" lon="2.48259">
        <ele>798</ele>
        <time>2025-06-08T09:38:11.877Z</time>
      </trkpt>
      <trkpt lat="45.39621" lon="2.48259">
        <ele>798</ele>
        <time>2025-06-08T09:38:12.877Z</time>
      </trkpt>
      <trkpt lat="45.39621" lon="2.48259">
        <ele>799</ele>
        <time>2025-06-08T09:38:13.877Z</time>
      </trkpt>
      <trkpt lat="45.39622" lon="2.48257">
        <ele>799</ele>
        <time>2025-06-08T09:38:14.877Z</time>
      </trkpt>
      <trkpt lat="45.39622" lon="2.48258">
        <ele>799</ele>
        <time>2025-06-08T09:38:15.877Z</time>
      </trkpt>
      <trkpt lat="45.39622" lon="2.48258">
        <ele>799</ele>
        <time>2025-06-08T09:38:16.877Z</time>
      </trkpt>
      <trkpt lat="45.39622" lon="2.48257">
        <ele>798</ele>
        <time>2025-06-08T09:38:17.877Z</time>
      </trkpt>
      <trkpt lat="45.39622" lon="2.48257">
        <ele>798</ele>
        <time>2025-06-08T09:38:18.877Z</time>
      </trkpt>
      <trkpt lat="45.39623" lon="2.48257">
        <ele>798</ele>
        <time>2025-06-08T09:38:19.877Z</time>
      </trkpt>
      <trkpt lat="45.39623" lon="2.48257">
        <ele>798</ele>
        <time>2025-06-08T09:38:20.877Z</time>
      </trkpt>
      <trkpt lat="45.39623" lon="2.48257">
        <ele>798</ele>
        <time>2025-06-08T09:38:21.877Z</time>
      </trkpt>
      <trkpt lat="45.39622" lon="2.48257">
        <ele>798</ele>
        <time>2025-06-08T09:38:22.877Z</time>
      </trkpt>
      <trkpt lat="45.39622" lon="2.48257">
        <ele>798</ele>
        <time>2025-06-08T09:38:23.877Z</time>
      </trkpt>
      <trkpt lat="45.39622" lon="2.48257">
        <ele>798</ele>
        <time>2025-06-08T09:38:24.877Z</time>
      </trkpt>
      <trkpt lat="45.39622" lon="2.48257">
        <ele>798</ele>
        <time>2025-06-08T09:38:25.877Z</time>
      </trkpt>
      <trkpt lat="45.39622" lon="2.48257">
        <ele>798</ele>
        <time>2025-06-08T09:38:26.877Z</time>
      </trkpt>
      <trkpt lat="45.39622" lon="2.48257">
        <ele>798</ele>
        <time>2025-06-08T09:38:27.877Z</time>
      </trkpt>
      <trkpt lat="45.39622" lon="2.48257">
        <ele>798</ele>
        <time>2025-06-08T09:38:28.877Z</time>
      </trkpt>
      <trkpt lat="45.39622" lon="2.48257">
        <ele>798</ele>
        <time>2025-06-08T09:38:29.877Z</time>
      </trkpt>
      <trkpt lat="45.39622" lon="2.48256">
        <ele>798</ele>
        <time>2025-06-08T09:38:30.877Z</time>
      </trkpt>
      <trkpt lat="45.39622" lon="2.48255">
        <ele>798</ele>
        <time>2025-06-08T09:38:31.877Z</time>
      </trkpt>
      <trkpt lat="45.39621" lon="2.48255">
        <ele>797</ele>
        <time>2025-06-08T09:38:32.877Z</time>
      </trkpt>
      <trkpt lat="45.39621" lon="2.48255">
        <ele>797</ele>
        <time>2025-06-08T09:38:33.877Z</time>
      </trkpt>
      <trkpt lat="45.39621" lon="2.48255">
        <ele>796</ele>
        <time>2025-06-08T09:38:34.877Z</time>
      </trkpt>
      <trkpt lat="45.39621" lon="2.48255">
        <ele>795</ele>
        <time>2025-06-08T09:38:35.877Z</time>
      </trkpt>
      <trkpt lat="45.39621" lon="2.48255">
        <ele>794</ele>
        <time>2025-06-08T09:38:36.877Z</time>
      </trkpt>
      <trkpt lat="45.39621" lon="2.48255">
        <ele>794</ele>
        <time>2025-06-08T09:38:37.877Z</time>
      </trkpt>
      <trkpt lat="45.39622" lon="2.48255">
        <ele>794</ele>
        <time>2025-06-08T09:38:38.877Z</time>
      </trkpt>
      <trkpt lat="45.39622" lon="2.48255">
        <ele>794</ele>
        <time>2025-06-08T09:38:39.877Z</time>
      </trkpt>
      <trkpt lat="45.39622" lon="2.48255">
        <ele>794</ele>
        <time>2025-06-08T09:38:40.877Z</time>
      </trkpt>
      <trkpt lat="45.39621" lon="2.48254">
        <ele>794</ele>
        <time>2025-06-08T09:38:41.877Z</time>
      </trkpt>
      <trkpt lat="45.39622" lon="2.48254">
        <ele>794</ele>
        <time>2025-06-08T09:38:42.877Z</time>
      </trkpt>
      <trkpt lat="45.39622" lon="2.48254">
        <ele>794</ele>
        <time>2025-06-08T09:38:43.877Z</time>
      </trkpt>
      <trkpt lat="45.39622" lon="2.48254">
        <ele>795</ele>
        <time>2025-06-08T09:38:44.877Z</time>
      </trkpt>
      <trkpt lat="45.39622" lon="2.48254">
        <ele>795</ele>
        <time>2025-06-08T09:38:45.877Z</time>
      </trkpt>
      <trkpt lat="45.39622" lon="2.48254">
        <ele>796</ele>
        <time>2025-06-08T09:38:46.877Z</time>
      </trkpt>
      <trkpt lat="45.39622" lon="2.48254">
        <ele>797</ele>
        <time>2025-06-08T09:38:47.877Z</time>
      </trkpt>
      <trkpt lat="45.39622" lon="2.48254">
        <ele>797</ele>
        <time>2025-06-08T09:38:48.877Z</time>
      </trkpt>
      <trkpt lat="45.39622" lon="2.48254">
        <ele>798</ele>
        <time>2025-06-08T09:38:49.877Z</time>
      </trkpt>
      <trkpt lat="45.39622" lon="2.48254">
        <ele>798</ele>
        <time>2025-06-08T09:38:50.877Z</time>
      </trkpt>
      <trkpt lat="45.39622" lon="2.48254">
        <ele>799</ele>
        <time>2025-06-08T09:38:51.877Z</time>
      </trkpt>
      <trkpt lat="45.39622" lon="2.48254">
        <ele>799</ele>
        <time>2025-06-08T09:38:52.877Z</time>
      </trkpt>
      <trkpt lat="45.39622" lon="2.48254">
        <ele>799</ele>
        <time>2025-06-08T09:38:53.877Z</time>
      </trkpt>
      <trkpt lat="45.39622" lon="2.48254">
        <ele>799</ele>
        <time>2025-06-08T09:38:54.877Z</time>
      </trkpt>
      <trkpt lat="45.39621" lon="2.48255">
        <ele>799</ele>
        <time>2025-06-08T09:38:55.877Z</time>
      </trkpt>
      <trkpt lat="45.39621" lon="2.48255">
        <ele>799</ele>
        <time>2025-06-08T09:38:56.877Z</time>
      </trkpt>
      <trkpt lat="45.39621" lon="2.48256">
        <ele>798</ele>
        <time>2025-06-08T09:38:57.877Z</time>
      </trkpt>
      <trkpt lat="45.39621" lon="2.48256">
        <ele>798</ele>
        <time>2025-06-08T09:38:58.877Z</time>
      </trkpt>
      <trkpt lat="45.39621" lon="2.48255">
        <ele>799</ele>
        <time>2025-06-08T09:38:59.877Z</time>
      </trkpt>
      <trkpt lat="45.39621" lon="2.48255">
        <ele>799</ele>
        <time>2025-06-08T09:39:00.877Z</time>
      </trkpt>
      <trkpt lat="45.39621" lon="2.48255">
        <ele>799</ele>
        <time>2025-06-08T09:39:01.877Z</time>
      </trkpt>
      <trkpt lat="45.39621" lon="2.48255">
        <ele>799</ele>
        <time>2025-06-08T09:39:02.877Z</time>
      </trkpt>
      <trkpt lat="45.39621" lon="2.48255">
        <ele>799</ele>
        <time>2025-06-08T09:39:03.877Z</time>
      </trkpt>
      <trkpt lat="45.39621" lon="2.48255">
        <ele>799</ele>
        <time>2025-06-08T09:39:04.877Z</time>
      </trkpt>
      <trkpt lat="45.39621" lon="2.48255">
        <ele>800</ele>
        <time>2025-06-08T09:39:05.877Z</time>
      </trkpt>
      <trkpt lat="45.39621" lon="2.48256">
        <ele>800</ele>
        <time>2025-06-08T09:39:06.877Z</time>
      </trkpt>
      <trkpt lat="45.39621" lon="2.48255">
        <ele>801</ele>
        <time>2025-06-08T09:39:07.877Z</time>
      </trkpt>
      <trkpt lat="45.39622" lon="2.48255">
        <ele>801</ele>
        <time>2025-06-08T09:39:08.877Z</time>
      </trkpt>
      <trkpt lat="45.39621" lon="2.48255">
        <ele>802</ele>
        <time>2025-06-08T09:39:09.877Z</time>
      </trkpt>
      <trkpt lat="45.39622" lon="2.48255">
        <ele>802</ele>
        <time>2025-06-08T09:39:10.877Z</time>
      </trkpt>
      <trkpt lat="45.39622" lon="2.48255">
        <ele>802</ele>
        <time>2025-06-08T09:39:11.877Z</time>
      </trkpt>
      <trkpt lat="45.39622" lon="2.48255">
        <ele>803</ele>
        <time>2025-06-08T09:39:12.877Z</time>
      </trkpt>
      <trkpt lat="45.39622" lon="2.48254">
        <ele>803</ele>
        <time>2025-06-08T09:39:13.877Z</time>
      </trkpt>
      <trkpt lat="45.39622" lon="2.48254">
        <ele>803</ele>
        <time>2025-06-08T09:39:14.877Z</time>
      </trkpt>
      <trkpt lat="45.39622" lon="2.48254">
        <ele>802</ele>
        <time>2025-06-08T09:39:15.877Z</time>
      </trkpt>
      <trkpt lat="45.39622" lon="2.48254">
        <ele>802</ele>
        <time>2025-06-08T09:39:16.877Z</time>
      </trkpt>
      <trkpt lat="45.39622" lon="2.48254">
        <ele>802</ele>
        <time>2025-06-08T09:39:17.877Z</time>
      </trkpt>
      <trkpt lat="45.39622" lon="2.48254">
        <ele>802</ele>
        <time>2025-06-08T09:39:18.877Z</time>
      </trkpt>
      <trkpt lat="45.39623" lon="2.48254">
        <ele>802</ele>
        <time>2025-06-08T09:39:19.877Z</time>
      </trkpt>
      <trkpt lat="45.39623" lon="2.48254">
        <ele>802</ele>
        <time>2025-06-08T09:39:20.877Z</time>
      </trkpt>
      <trkpt lat="45.39623" lon="2.48254">
        <ele>802</ele>
        <time>2025-06-08T09:39:21.877Z</time>
      </trkpt>
      <trkpt lat="45.39623" lon="2.48254">
        <ele>801</ele>
        <time>2025-06-08T09:39:22.877Z</time>
      </trkpt>
      <trkpt lat="45.39623" lon="2.48254">
        <ele>801</ele>
        <time>2025-06-08T09:39:23.877Z</time>
      </trkpt>
      <trkpt lat="45.39623" lon="2.48254">
        <ele>801</ele>
        <time>2025-06-08T09:39:24.877Z</time>
      </trkpt>
      <trkpt lat="45.39623" lon="2.48254">
        <ele>801</ele>
        <time>2025-06-08T09:39:25.877Z</time>
      </trkpt>
      <trkpt lat="45.39623" lon="2.48254">
        <ele>801</ele>
        <time>2025-06-08T09:39:26.877Z</time>
      </trkpt>
      <trkpt lat="45.39623" lon="2.48254">
        <ele>800</ele>
        <time>2025-06-08T09:39:27.877Z</time>
      </trkpt>
      <trkpt lat="45.39623" lon="2.48254">
        <ele>800</ele>
        <time>2025-06-08T09:39:28.877Z</time>
      </trkpt>
      <trkpt lat="45.39622" lon="2.48254">
        <ele>800</ele>
        <time>2025-06-08T09:39:29.877Z</time>
      </trkpt>
      <trkpt lat="45.39622" lon="2.48254">
        <ele>800</ele>
        <time>2025-06-08T09:39:30.877Z</time>
      </trkpt>
      <trkpt lat="45.39622" lon="2.48255">
        <ele>799</ele>
        <time>2025-06-08T09:39:31.877Z</time>
      </trkpt>
      <trkpt lat="45.39622" lon="2.48255">
        <ele>799</ele>
        <time>2025-06-08T09:39:32.877Z</time>
      </trkpt>
      <trkpt lat="45.39622" lon="2.48255">
        <ele>799</ele>
        <time>2025-06-08T09:39:33.877Z</time>
      </trkpt>
      <trkpt lat="45.39622" lon="2.48255">
        <ele>800</ele>
        <time>2025-06-08T09:39:34.877Z</time>
      </trkpt>
      <trkpt lat="45.39622" lon="2.48255">
        <ele>800</ele>
        <time>2025-06-08T09:39:35.877Z</time>
      </trkpt>
      <trkpt lat="45.39622" lon="2.48254">
        <ele>799</ele>
        <time>2025-06-08T09:39:36.877Z</time>
      </trkpt>
      <trkpt lat="45.39622" lon="2.48254">
        <ele>799</ele>
        <time>2025-06-08T09:39:37.877Z</time>
      </trkpt>
      <trkpt lat="45.39622" lon="2.48254">
        <ele>799</ele>
        <time>2025-06-08T09:39:38.877Z</time>
      </trkpt>
      <trkpt lat="45.39621" lon="2.48254">
        <ele>799</ele>
        <time>2025-06-08T09:39:39.877Z</time>
      </trkpt>
      <trkpt lat="45.39621" lon="2.48255">
        <ele>799</ele>
        <time>2025-06-08T09:39:40.877Z</time>
      </trkpt>
      <trkpt lat="45.39622" lon="2.48255">
        <ele>798</ele>
        <time>2025-06-08T09:39:41.877Z</time>
      </trkpt>
      <trkpt lat="45.39622" lon="2.48255">
        <ele>798</ele>
        <time>2025-06-08T09:39:42.877Z</time>
      </trkpt>
      <trkpt lat="45.39622" lon="2.48255">
        <ele>798</ele>
        <time>2025-06-08T09:39:43.877Z</time>
      </trkpt>
      <trkpt lat="45.39622" lon="2.48255">
        <ele>797</ele>
        <time>2025-06-08T09:39:44.877Z</time>
      </trkpt>
      <trkpt lat="45.39622" lon="2.48255">
        <ele>797</ele>
        <time>2025-06-08T09:39:45.877Z</time>
      </trkpt>
      <trkpt lat="45.39622" lon="2.48255">
        <ele>796</ele>
        <time>2025-06-08T09:39:46.877Z</time>
      </trkpt>
      <trkpt lat="45.39622" lon="2.48255">
        <ele>796</ele>
        <time>2025-06-08T09:39:47.877Z</time>
      </trkpt>
      <trkpt lat="45.39622" lon="2.48255">
        <ele>795</ele>
        <time>2025-06-08T09:39:48.877Z</time>
      </trkpt>
      <trkpt lat="45.39622" lon="2.48256">
        <ele>795</ele>
        <time>2025-06-08T09:39:49.877Z</time>
      </trkpt>
      <trkpt lat="45.39621" lon="2.48257">
        <ele>795</ele>
        <time>2025-06-08T09:39:50.877Z</time>
      </trkpt>
      <trkpt lat="45.39621" lon="2.48257">
        <ele>794</ele>
        <time>2025-06-08T09:39:51.877Z</time>
      </trkpt>
      <trkpt lat="45.3962" lon="2.48258">
        <ele>794</ele>
        <time>2025-06-08T09:39:52.877Z</time>
      </trkpt>
      <trkpt lat="45.3962" lon="2.48258">
        <ele>794</ele>
        <time>2025-06-08T09:39:53.877Z</time>
      </trkpt>
      <trkpt lat="45.3962" lon="2.48258">
        <ele>794</ele>
        <time>2025-06-08T09:39:54.877Z</time>
      </trkpt>
      <trkpt lat="45.3962" lon="2.48258">
        <ele>794</ele>
        <time>2025-06-08T09:39:55.877Z</time>
      </trkpt>
      <trkpt lat="45.39621" lon="2.48258">
        <ele>794</ele>
        <time>2025-06-08T09:39:56.877Z</time>
      </trkpt>
      <trkpt lat="45.39622" lon="2.48259">
        <ele>794</ele>
        <time>2025-06-08T09:39:57.877Z</time>
      </trkpt>
      <trkpt lat="45.39621" lon="2.48259">
        <ele>794</ele>
        <time>2025-06-08T09:39:58.877Z</time>
      </trkpt>
      <trkpt lat="45.39621" lon="2.48259">
        <ele>794</ele>
        <time>2025-06-08T09:39:59.877Z</time>
      </trkpt>
      <trkpt lat="45.39621" lon="2.48259">
        <ele>794</ele>
        <time>2025-06-08T09:40:00.877Z</time>
      </trkpt>
      <trkpt lat="45.39621" lon="2.4826">
        <ele>795</ele>
        <time>2025-06-08T09:40:01.877Z</time>
      </trkpt>
      <trkpt lat="45.39621" lon="2.4826">
        <ele>795</ele>
        <time>2025-06-08T09:40:02.877Z</time>
      </trkpt>
      <trkpt lat="45.3962" lon="2.4826">
        <ele>796</ele>
        <time>2025-06-08T09:40:03.877Z</time>
      </trkpt>
      <trkpt lat="45.39619" lon="2.4826">
        <ele>796</ele>
        <time>2025-06-08T09:40:04.877Z</time>
      </trkpt>
      <trkpt lat="45.3962" lon="2.4826">
        <ele>796</ele>
        <time>2025-06-08T09:40:05.877Z</time>
      </trkpt>
      <trkpt lat="45.3962" lon="2.4826">
        <ele>797</ele>
        <time>2025-06-08T09:40:06.877Z</time>
      </trkpt>
      <trkpt lat="45.3962" lon="2.4826">
        <ele>797</ele>
        <time>2025-06-08T09:40:07.877Z</time>
      </trkpt>
      <trkpt lat="45.3962" lon="2.4826">
        <ele>798</ele>
        <time>2025-06-08T09:40:08.877Z</time>
      </trkpt>
      <trkpt lat="45.3962" lon="2.4826">
        <ele>798</ele>
        <time>2025-06-08T09:40:09.877Z</time>
      </trkpt>
      <trkpt lat="45.3962" lon="2.4826">
        <ele>798</ele>
        <time>2025-06-08T09:40:10.877Z</time>
      </trkpt>
      <trkpt lat="45.3962" lon="2.4826">
        <ele>799</ele>
        <time>2025-06-08T09:40:11.877Z</time>
      </trkpt>
      <trkpt lat="45.3962" lon="2.4826">
        <ele>799</ele>
        <time>2025-06-08T09:40:12.877Z</time>
      </trkpt>
      <trkpt lat="45.3962" lon="2.4826">
        <ele>799</ele>
        <time>2025-06-08T09:40:13.877Z</time>
      </trkpt>
      <trkpt lat="45.39619" lon="2.4826">
        <ele>799</ele>
        <time>2025-06-08T09:40:14.877Z</time>
      </trkpt>
      <trkpt lat="45.39619" lon="2.4826">
        <ele>800</ele>
        <time>2025-06-08T09:40:15.877Z</time>
      </trkpt>
      <trkpt lat="45.3962" lon="2.4826">
        <ele>800</ele>
        <time>2025-06-08T09:40:16.877Z</time>
      </trkpt>
      <trkpt lat="45.3962" lon="2.48261">
        <ele>800</ele>
        <time>2025-06-08T09:40:17.877Z</time>
      </trkpt>
      <trkpt lat="45.39619" lon="2.48261">
        <ele>801</ele>
        <time>2025-06-08T09:40:18.877Z</time>
      </trkpt>
      <trkpt lat="45.39619" lon="2.48261">
        <ele>801</ele>
        <time>2025-06-08T09:40:19.877Z</time>
      </trkpt>
      <trkpt lat="45.39619" lon="2.48261">
        <ele>801</ele>
        <time>2025-06-08T09:40:20.877Z</time>
      </trkpt>
      <trkpt lat="45.39619" lon="2.48261">
        <ele>801</ele>
        <time>2025-06-08T09:40:21.877Z</time>
      </trkpt>
      <trkpt lat="45.39619" lon="2.48261">
        <ele>801</ele>
        <time>2025-06-08T09:40:22.877Z</time>
      </trkpt>
      <trkpt lat="45.39619" lon="2.48261">
        <ele>801</ele>
        <time>2025-06-08T09:40:23.877Z</time>
      </trkpt>
      <trkpt lat="45.39619" lon="2.48261">
        <ele>801</ele>
        <time>2025-06-08T09:40:24.877Z</time>
      </trkpt>
      <trkpt lat="45.39619" lon="2.48261">
        <ele>801</ele>
        <time>2025-06-08T09:40:25.877Z</time>
      </trkpt>
      <trkpt lat="45.39619" lon="2.48261">
        <ele>801</ele>
        <time>2025-06-08T09:40:26.877Z</time>
      </trkpt>
      <trkpt lat="45.39619" lon="2.48261">
        <ele>800</ele>
        <time>2025-06-08T09:40:27.877Z</time>
      </trkpt>
      <trkpt lat="45.39619" lon="2.48261">
        <ele>800</ele>
        <time>2025-06-08T09:40:28.877Z</time>
      </trkpt>
      <trkpt lat="45.39619" lon="2.48261">
        <ele>799</ele>
        <time>2025-06-08T09:40:29.877Z</time>
      </trkpt>
      <trkpt lat="45.39619" lon="2.48261">
        <ele>799</ele>
        <time>2025-06-08T09:40:30.877Z</time>
      </trkpt>
      <trkpt lat="45.39619" lon="2.48261">
        <ele>798</ele>
        <time>2025-06-08T09:40:31.877Z</time>
      </trkpt>
      <trkpt lat="45.39619" lon="2.48261">
        <ele>797</ele>
        <time>2025-06-08T09:40:32.877Z</time>
      </trkpt>
      <trkpt lat="45.39619" lon="2.48261">
        <ele>796</ele>
        <time>2025-06-08T09:40:33.877Z</time>
      </trkpt>
      <trkpt lat="45.39619" lon="2.48261">
        <ele>795</ele>
        <time>2025-06-08T09:40:34.877Z</time>
      </trkpt>
      <trkpt lat="45.39619" lon="2.4826">
        <ele>794</ele>
        <time>2025-06-08T09:40:35.877Z</time>
      </trkpt>
      <trkpt lat="45.3962" lon="2.48261">
        <ele>794</ele>
        <time>2025-06-08T09:40:36.877Z</time>
      </trkpt>
      <trkpt lat="45.3962" lon="2.48261">
        <ele>793</ele>
        <time>2025-06-08T09:40:37.877Z</time>
      </trkpt>
      <trkpt lat="45.3962" lon="2.48261">
        <ele>793</ele>
        <time>2025-06-08T09:40:38.877Z</time>
      </trkpt>
      <trkpt lat="45.3962" lon="2.4826">
        <ele>792</ele>
        <time>2025-06-08T09:40:39.877Z</time>
      </trkpt>
      <trkpt lat="45.39619" lon="2.4826">
        <ele>791</ele>
        <time>2025-06-08T09:40:40.877Z</time>
      </trkpt>
      <trkpt lat="45.39619" lon="2.4826">
        <ele>791</ele>
        <time>2025-06-08T09:40:41.877Z</time>
      </trkpt>
      <trkpt lat="45.39619" lon="2.4826">
        <ele>791</ele>
        <time>2025-06-08T09:40:42.877Z</time>
      </trkpt>
      <trkpt lat="45.39616" lon="2.48259">
        <ele>792</ele>
        <time>2025-06-08T09:40:50.539Z</time>
      </trkpt>
      <trkpt lat="45.39614" lon="2.4826">
        <ele>793</ele>
        <time>2025-06-08T09:40:51.539Z</time>
      </trkpt>
      <trkpt lat="45.39612" lon="2.4826">
        <ele>793</ele>
        <time>2025-06-08T09:40:52.539Z</time>
      </trkpt>
      <trkpt lat="45.3961" lon="2.48261">
        <ele>793</ele>
        <time>2025-06-08T09:40:53.539Z</time>
      </trkpt>
      <trkpt lat="45.39609" lon="2.48262">
        <ele>793</ele>
        <time>2025-06-08T09:40:54.539Z</time>
      </trkpt>
      <trkpt lat="45.39608" lon="2.4826">
        <ele>793</ele>
        <time>2025-06-08T09:40:55.539Z</time>
      </trkpt>
      <trkpt lat="45.39607" lon="2.48259">
        <ele>793</ele>
        <time>2025-06-08T09:40:56.539Z</time>
      </trkpt>
      <trkpt lat="45.39607" lon="2.48258">
        <ele>793</ele>
        <time>2025-06-08T09:40:57.539Z</time>
      </trkpt>
      <trkpt lat="45.39607" lon="2.48258">
        <ele>793</ele>
        <time>2025-06-08T09:40:58.540Z</time>
      </trkpt>
      <trkpt lat="45.39607" lon="2.48258">
        <ele>793</ele>
        <time>2025-06-08T09:40:59.539Z</time>
      </trkpt>
      <trkpt lat="45.39606" lon="2.48257">
        <ele>794</ele>
        <time>2025-06-08T09:41:00.539Z</time>
      </trkpt>
      <trkpt lat="45.39607" lon="2.48255">
        <ele>794</ele>
        <time>2025-06-08T09:41:01.539Z</time>
      </trkpt>
      <trkpt lat="45.39608" lon="2.48257">
        <ele>798</ele>
        <time>2025-06-08T09:41:08.113Z</time>
      </trkpt>
      <trkpt lat="45.39606" lon="2.48259">
        <ele>798</ele>
        <time>2025-06-08T09:41:09.113Z</time>
      </trkpt>
      <trkpt lat="45.39604" lon="2.48261">
        <ele>799</ele>
        <time>2025-06-08T09:41:10.113Z</time>
      </trkpt>
      <trkpt lat="45.39602" lon="2.48263">
        <ele>799</ele>
        <time>2025-06-08T09:41:11.113Z</time>
      </trkpt>
      <trkpt lat="45.396" lon="2.48266">
        <ele>800</ele>
        <time>2025-06-08T09:41:12.113Z</time>
      </trkpt>
      <trkpt lat="45.39599" lon="2.48264">
        <ele>800</ele>
        <time>2025-06-08T09:41:13.113Z</time>
      </trkpt>
      <trkpt lat="45.39599" lon="2.48264">
        <ele>800</ele>
        <time>2025-06-08T09:41:14.113Z</time>
      </trkpt>
      <trkpt lat="45.39599" lon="2.48264">
        <ele>800</ele>
        <time>2025-06-08T09:41:15.113Z</time>
      </trkpt>
      <trkpt lat="45.39599" lon="2.48264">
        <ele>800</ele>
        <time>2025-06-08T09:41:16.113Z</time>
      </trkpt>
      <trkpt lat="45.39599" lon="2.48267">
        <ele>800</ele>
        <time>2025-06-08T09:41:17.113Z</time>
      </trkpt>
      <trkpt lat="45.39599" lon="2.48268">
        <ele>799</ele>
        <time>2025-06-08T09:41:18.113Z</time>
      </trkpt>
      <trkpt lat="45.39599" lon="2.48268">
        <ele>799</ele>
        <time>2025-06-08T09:41:19.112Z</time>
      </trkpt>
      <trkpt lat="45.396" lon="2.48268">
        <ele>799</ele>
        <time>2025-06-08T09:41:20.113Z</time>
      </trkpt>
      <trkpt lat="45.396" lon="2.48267">
        <ele>799</ele>
        <time>2025-06-08T09:41:21.113Z</time>
      </trkpt>
      <trkpt lat="45.39601" lon="2.48269">
        <ele>799</ele>
        <time>2025-06-08T09:41:22.113Z</time>
      </trkpt>
      <trkpt lat="45.39601" lon="2.48271">
        <ele>799</ele>
        <time>2025-06-08T09:41:23.113Z</time>
      </trkpt>
    </trkseg>
  </trk>
</gpx>